<?xml version="1.0" encoding="UTF-8" standalone="no" ?>
<gpx xmlns="http://www.topografix.com/GPX/1/1" xmlns:xsi="http://www.w3.org/2001/XMLSchema-instance" xsi:schemaLocation="http://www.topografix.com/GPX/1/1 http://www.topografix.com/GPX/1/1/gpx.xsd" version="1.1" creator="VisuGPX - https://www.visugpx.com">
  <metadata>
    <name>Ventabren-Roquefavour 15 mars 2023</name>
    <desc><![CDATA[Boucle de 13 km, dénivelé cumulé 215 m]]></desc>
  </metadata>
  <trk>
    <name><![CDATA[Ventabren-Roquefavour 15 mars 2023]]></name>
    <trkseg>
      <trkpt lat="43.53446" lon="5.29896">
        <ele>297.80835</ele>
        <time>2023-03-15T08:45:02.000Z</time>
      </trkpt>
      <trkpt lat="43.53444" lon="5.29897">
        <ele>297.81039</ele>
        <time>2023-03-15T08:45:34.000Z</time>
      </trkpt>
      <trkpt lat="43.53443" lon="5.29899">
        <ele>297.88367</ele>
        <time>2023-03-15T08:45:49.000Z</time>
      </trkpt>
      <trkpt lat="43.53443" lon="5.29902">
        <ele>298.03265</ele>
        <time>2023-03-15T08:48:44.000Z</time>
      </trkpt>
      <trkpt lat="43.53443" lon="5.29899">
        <ele>298.1889</ele>
        <time>2023-03-15T08:51:16.000Z</time>
      </trkpt>
      <trkpt lat="43.53444" lon="5.29897">
        <ele>298.27988</ele>
        <time>2023-03-15T08:51:19.000Z</time>
      </trkpt>
      <trkpt lat="43.53444" lon="5.29899">
        <ele>298.23947</ele>
        <time>2023-03-15T08:52:18.000Z</time>
      </trkpt>
      <trkpt lat="43.53445" lon="5.29901">
        <ele>298.25668</ele>
        <time>2023-03-15T08:52:37.000Z</time>
      </trkpt>
      <trkpt lat="43.53447" lon="5.29901">
        <ele>298.25034</ele>
        <time>2023-03-15T08:52:41.000Z</time>
      </trkpt>
      <trkpt lat="43.53446" lon="5.29903">
        <ele>297.9939</ele>
        <time>2023-03-15T08:53:05.000Z</time>
      </trkpt>
      <trkpt lat="43.53448" lon="5.29906">
        <ele>297.70432</ele>
        <time>2023-03-15T08:53:13.000Z</time>
      </trkpt>
      <trkpt lat="43.53447" lon="5.29909">
        <ele>297.44553</ele>
        <time>2023-03-15T08:53:15.000Z</time>
      </trkpt>
      <trkpt lat="43.53446" lon="5.29912">
        <ele>297.22333</ele>
        <time>2023-03-15T08:53:19.000Z</time>
      </trkpt>
      <trkpt lat="43.53447" lon="5.29915">
        <ele>296.99689</ele>
        <time>2023-03-15T08:53:38.000Z</time>
      </trkpt>
      <trkpt lat="43.53448" lon="5.29917">
        <ele>296.76871</ele>
        <time>2023-03-15T08:53:42.000Z</time>
      </trkpt>
      <trkpt lat="43.53447" lon="5.2992">
        <ele>296.55182</ele>
        <time>2023-03-15T08:53:47.000Z</time>
      </trkpt>
      <trkpt lat="43.53446" lon="5.29923">
        <ele>296.33463</ele>
        <time>2023-03-15T08:53:50.000Z</time>
      </trkpt>
      <trkpt lat="43.53445" lon="5.29926">
        <ele>296.12576</ele>
        <time>2023-03-15T08:53:53.000Z</time>
      </trkpt>
      <trkpt lat="43.53443" lon="5.29928">
        <ele>295.95712</ele>
        <time>2023-03-15T08:53:56.000Z</time>
      </trkpt>
      <trkpt lat="43.53441" lon="5.29928">
        <ele>295.82077</ele>
        <time>2023-03-15T08:53:59.000Z</time>
      </trkpt>
      <trkpt lat="43.53439" lon="5.29929">
        <ele>295.60144</ele>
        <time>2023-03-15T08:54:03.000Z</time>
      </trkpt>
      <trkpt lat="43.53437" lon="5.29931">
        <ele>295.42978</ele>
        <time>2023-03-15T08:54:06.000Z</time>
      </trkpt>
      <trkpt lat="43.53436" lon="5.29933">
        <ele>295.25912</ele>
        <time>2023-03-15T08:54:09.000Z</time>
      </trkpt>
      <trkpt lat="43.53434" lon="5.29934">
        <ele>295.04242</ele>
        <time>2023-03-15T08:54:12.000Z</time>
      </trkpt>
      <trkpt lat="43.53432" lon="5.29935">
        <ele>294.79385</ele>
        <time>2023-03-15T08:54:15.000Z</time>
      </trkpt>
      <trkpt lat="43.5343" lon="5.29937">
        <ele>294.53152</ele>
        <time>2023-03-15T08:54:18.000Z</time>
      </trkpt>
      <trkpt lat="43.53428" lon="5.29938">
        <ele>294.31192</ele>
        <time>2023-03-15T08:54:20.000Z</time>
      </trkpt>
      <trkpt lat="43.53426" lon="5.2994">
        <ele>294.03571</ele>
        <time>2023-03-15T08:54:23.000Z</time>
      </trkpt>
      <trkpt lat="43.53425" lon="5.29942">
        <ele>293.73279</ele>
        <time>2023-03-15T08:54:26.000Z</time>
      </trkpt>
      <trkpt lat="43.53423" lon="5.29944">
        <ele>293.5155</ele>
        <time>2023-03-15T08:54:28.000Z</time>
      </trkpt>
      <trkpt lat="43.53422" lon="5.29946">
        <ele>293.32852</ele>
        <time>2023-03-15T08:54:30.000Z</time>
      </trkpt>
      <trkpt lat="43.5342" lon="5.29948">
        <ele>293.1644</ele>
        <time>2023-03-15T08:54:32.000Z</time>
      </trkpt>
      <trkpt lat="43.53419" lon="5.2995">
        <ele>292.98981</ele>
        <time>2023-03-15T08:54:34.000Z</time>
      </trkpt>
      <trkpt lat="43.53417" lon="5.29952">
        <ele>292.8353</ele>
        <time>2023-03-15T08:54:36.000Z</time>
      </trkpt>
      <trkpt lat="43.53415" lon="5.29954">
        <ele>292.69333</ele>
        <time>2023-03-15T08:54:38.000Z</time>
      </trkpt>
      <trkpt lat="43.53413" lon="5.29956">
        <ele>292.5701</ele>
        <time>2023-03-15T08:54:40.000Z</time>
      </trkpt>
      <trkpt lat="43.53411" lon="5.29957">
        <ele>292.42291</ele>
        <time>2023-03-15T08:54:42.000Z</time>
      </trkpt>
      <trkpt lat="43.53409" lon="5.29958">
        <ele>292.31964</ele>
        <time>2023-03-15T08:54:44.000Z</time>
      </trkpt>
      <trkpt lat="43.53407" lon="5.2996">
        <ele>292.16498</ele>
        <time>2023-03-15T08:54:47.000Z</time>
      </trkpt>
      <trkpt lat="43.53405" lon="5.29961">
        <ele>292.04721</ele>
        <time>2023-03-15T08:54:49.000Z</time>
      </trkpt>
      <trkpt lat="43.53404" lon="5.29962">
        <ele>291.93015</ele>
        <time>2023-03-15T08:54:51.000Z</time>
      </trkpt>
      <trkpt lat="43.53402" lon="5.29964">
        <ele>291.83743</ele>
        <time>2023-03-15T08:54:53.000Z</time>
      </trkpt>
      <trkpt lat="43.534" lon="5.29965">
        <ele>291.73672</ele>
        <time>2023-03-15T08:54:55.000Z</time>
      </trkpt>
      <trkpt lat="43.53398" lon="5.29966">
        <ele>291.65179</ele>
        <time>2023-03-15T08:54:57.000Z</time>
      </trkpt>
      <trkpt lat="43.53396" lon="5.29967">
        <ele>291.56747</ele>
        <time>2023-03-15T08:54:59.000Z</time>
      </trkpt>
      <trkpt lat="43.53394" lon="5.29969">
        <ele>291.50836</ele>
        <time>2023-03-15T08:55:01.000Z</time>
      </trkpt>
      <trkpt lat="43.53392" lon="5.2997">
        <ele>291.4483</ele>
        <time>2023-03-15T08:55:03.000Z</time>
      </trkpt>
      <trkpt lat="43.5339" lon="5.29972">
        <ele>291.43939</ele>
        <time>2023-03-15T08:55:05.000Z</time>
      </trkpt>
      <trkpt lat="43.53388" lon="5.29973">
        <ele>291.4444</ele>
        <time>2023-03-15T08:55:07.000Z</time>
      </trkpt>
      <trkpt lat="43.53386" lon="5.29973">
        <ele>291.47552</ele>
        <time>2023-03-15T08:55:09.000Z</time>
      </trkpt>
      <trkpt lat="43.53384" lon="5.29975">
        <ele>291.51569</ele>
        <time>2023-03-15T08:55:11.000Z</time>
      </trkpt>
      <trkpt lat="43.53383" lon="5.29977">
        <ele>291.56793</ele>
        <time>2023-03-15T08:55:13.000Z</time>
      </trkpt>
      <trkpt lat="43.53382" lon="5.29978">
        <ele>291.59616</ele>
        <time>2023-03-15T08:55:15.000Z</time>
      </trkpt>
      <trkpt lat="43.5338" lon="5.2998">
        <ele>291.61951</ele>
        <time>2023-03-15T08:55:17.000Z</time>
      </trkpt>
      <trkpt lat="43.53378" lon="5.29983">
        <ele>291.65659</ele>
        <time>2023-03-15T08:55:20.000Z</time>
      </trkpt>
      <trkpt lat="43.53376" lon="5.29985">
        <ele>291.6535</ele>
        <time>2023-03-15T08:55:22.000Z</time>
      </trkpt>
      <trkpt lat="43.53375" lon="5.29987">
        <ele>291.67664</ele>
        <time>2023-03-15T08:55:24.000Z</time>
      </trkpt>
      <trkpt lat="43.53373" lon="5.29989">
        <ele>291.6347</ele>
        <time>2023-03-15T08:55:26.000Z</time>
      </trkpt>
      <trkpt lat="43.53371" lon="5.29991">
        <ele>291.60788</ele>
        <time>2023-03-15T08:55:28.000Z</time>
      </trkpt>
      <trkpt lat="43.53369" lon="5.29992">
        <ele>291.51718</ele>
        <time>2023-03-15T08:55:30.000Z</time>
      </trkpt>
      <trkpt lat="43.53368" lon="5.29995">
        <ele>291.42285</ele>
        <time>2023-03-15T08:55:32.000Z</time>
      </trkpt>
      <trkpt lat="43.53367" lon="5.29998">
        <ele>291.31436</ele>
        <time>2023-03-15T08:55:34.000Z</time>
      </trkpt>
      <trkpt lat="43.53366" lon="5.30001">
        <ele>291.2529</ele>
        <time>2023-03-15T08:55:36.000Z</time>
      </trkpt>
      <trkpt lat="43.53366" lon="5.30004">
        <ele>291.21338</ele>
        <time>2023-03-15T08:55:38.000Z</time>
      </trkpt>
      <trkpt lat="43.53366" lon="5.30008">
        <ele>291.20697</ele>
        <time>2023-03-15T08:55:40.000Z</time>
      </trkpt>
      <trkpt lat="43.53366" lon="5.30011">
        <ele>291.22461</ele>
        <time>2023-03-15T08:55:42.000Z</time>
      </trkpt>
      <trkpt lat="43.53366" lon="5.30015">
        <ele>291.24884</ele>
        <time>2023-03-15T08:55:44.000Z</time>
      </trkpt>
      <trkpt lat="43.53366" lon="5.30018">
        <ele>291.24008</ele>
        <time>2023-03-15T08:55:46.000Z</time>
      </trkpt>
      <trkpt lat="43.53366" lon="5.30021">
        <ele>291.25266</ele>
        <time>2023-03-15T08:55:48.000Z</time>
      </trkpt>
      <trkpt lat="43.53366" lon="5.30024">
        <ele>291.32413</ele>
        <time>2023-03-15T08:55:50.000Z</time>
      </trkpt>
      <trkpt lat="43.53366" lon="5.30026">
        <ele>291.40451</ele>
        <time>2023-03-15T08:55:52.000Z</time>
      </trkpt>
      <trkpt lat="43.53366" lon="5.30029">
        <ele>291.49103</ele>
        <time>2023-03-15T08:55:54.000Z</time>
      </trkpt>
      <trkpt lat="43.53365" lon="5.30032">
        <ele>291.59558</ele>
        <time>2023-03-15T08:55:56.000Z</time>
      </trkpt>
      <trkpt lat="43.53365" lon="5.30035">
        <ele>291.70883</ele>
        <time>2023-03-15T08:55:58.000Z</time>
      </trkpt>
      <trkpt lat="43.53364" lon="5.30038">
        <ele>291.81094</ele>
        <time>2023-03-15T08:56:00.000Z</time>
      </trkpt>
      <trkpt lat="43.53364" lon="5.30041">
        <ele>291.95868</ele>
        <time>2023-03-15T08:56:02.000Z</time>
      </trkpt>
      <trkpt lat="43.53363" lon="5.30043">
        <ele>292.12656</ele>
        <time>2023-03-15T08:56:04.000Z</time>
      </trkpt>
      <trkpt lat="43.53363" lon="5.30046">
        <ele>292.32977</ele>
        <time>2023-03-15T08:56:06.000Z</time>
      </trkpt>
      <trkpt lat="43.53363" lon="5.30049">
        <ele>292.58179</ele>
        <time>2023-03-15T08:56:08.000Z</time>
      </trkpt>
      <trkpt lat="43.53363" lon="5.30052">
        <ele>292.84311</ele>
        <time>2023-03-15T08:56:10.000Z</time>
      </trkpt>
      <trkpt lat="43.53363" lon="5.30056">
        <ele>293.09879</ele>
        <time>2023-03-15T08:56:12.000Z</time>
      </trkpt>
      <trkpt lat="43.53362" lon="5.30059">
        <ele>293.30423</ele>
        <time>2023-03-15T08:56:14.000Z</time>
      </trkpt>
      <trkpt lat="43.53362" lon="5.30062">
        <ele>293.46417</ele>
        <time>2023-03-15T08:56:16.000Z</time>
      </trkpt>
      <trkpt lat="43.53362" lon="5.30065">
        <ele>293.59369</ele>
        <time>2023-03-15T08:56:18.000Z</time>
      </trkpt>
      <trkpt lat="43.53361" lon="5.30068">
        <ele>293.68021</ele>
        <time>2023-03-15T08:56:20.000Z</time>
      </trkpt>
      <trkpt lat="43.53361" lon="5.30071">
        <ele>293.724</ele>
        <time>2023-03-15T08:56:22.000Z</time>
      </trkpt>
      <trkpt lat="43.53361" lon="5.30075">
        <ele>293.75708</ele>
        <time>2023-03-15T08:56:24.000Z</time>
      </trkpt>
      <trkpt lat="43.53361" lon="5.30078">
        <ele>293.81223</ele>
        <time>2023-03-15T08:56:26.000Z</time>
      </trkpt>
      <trkpt lat="43.5336" lon="5.30081">
        <ele>293.88315</ele>
        <time>2023-03-15T08:56:28.000Z</time>
      </trkpt>
      <trkpt lat="43.5336" lon="5.30084">
        <ele>293.89334</ele>
        <time>2023-03-15T08:56:30.000Z</time>
      </trkpt>
      <trkpt lat="43.5336" lon="5.30088">
        <ele>293.88486</ele>
        <time>2023-03-15T08:56:32.000Z</time>
      </trkpt>
      <trkpt lat="43.5336" lon="5.30091">
        <ele>293.85883</ele>
        <time>2023-03-15T08:56:34.000Z</time>
      </trkpt>
      <trkpt lat="43.5336" lon="5.30094">
        <ele>293.85245</ele>
        <time>2023-03-15T08:56:36.000Z</time>
      </trkpt>
      <trkpt lat="43.53359" lon="5.30097">
        <ele>293.8465</ele>
        <time>2023-03-15T08:56:38.000Z</time>
      </trkpt>
      <trkpt lat="43.53359" lon="5.301">
        <ele>293.8663</ele>
        <time>2023-03-15T08:56:40.000Z</time>
      </trkpt>
      <trkpt lat="43.53358" lon="5.30104">
        <ele>293.86353</ele>
        <time>2023-03-15T08:56:42.000Z</time>
      </trkpt>
      <trkpt lat="43.53358" lon="5.30107">
        <ele>293.87766</ele>
        <time>2023-03-15T08:56:44.000Z</time>
      </trkpt>
      <trkpt lat="43.53358" lon="5.3011">
        <ele>293.90219</ele>
        <time>2023-03-15T08:56:46.000Z</time>
      </trkpt>
      <trkpt lat="43.53358" lon="5.30113">
        <ele>293.88318</ele>
        <time>2023-03-15T08:56:48.000Z</time>
      </trkpt>
      <trkpt lat="43.53357" lon="5.30116">
        <ele>293.8353</ele>
        <time>2023-03-15T08:56:50.000Z</time>
      </trkpt>
      <trkpt lat="43.53357" lon="5.30119">
        <ele>293.80789</ele>
        <time>2023-03-15T08:56:52.000Z</time>
      </trkpt>
      <trkpt lat="43.53356" lon="5.30122">
        <ele>293.80231</ele>
        <time>2023-03-15T08:56:54.000Z</time>
      </trkpt>
      <trkpt lat="43.53356" lon="5.30125">
        <ele>293.80765</ele>
        <time>2023-03-15T08:56:56.000Z</time>
      </trkpt>
      <trkpt lat="43.53356" lon="5.30129">
        <ele>293.81805</ele>
        <time>2023-03-15T08:56:58.000Z</time>
      </trkpt>
      <trkpt lat="43.53356" lon="5.30132">
        <ele>293.79126</ele>
        <time>2023-03-15T08:57:00.000Z</time>
      </trkpt>
      <trkpt lat="43.53356" lon="5.30135">
        <ele>293.7789</ele>
        <time>2023-03-15T08:57:03.000Z</time>
      </trkpt>
      <trkpt lat="43.53355" lon="5.30139">
        <ele>293.7883</ele>
        <time>2023-03-15T08:57:05.000Z</time>
      </trkpt>
      <trkpt lat="43.53355" lon="5.30141">
        <ele>293.81131</ele>
        <time>2023-03-15T08:57:07.000Z</time>
      </trkpt>
      <trkpt lat="43.53354" lon="5.30144">
        <ele>293.77951</ele>
        <time>2023-03-15T08:57:11.000Z</time>
      </trkpt>
      <trkpt lat="43.53354" lon="5.30147">
        <ele>293.72894</ele>
        <time>2023-03-15T08:57:13.000Z</time>
      </trkpt>
      <trkpt lat="43.53355" lon="5.30152">
        <ele>293.69403</ele>
        <time>2023-03-15T08:57:15.000Z</time>
      </trkpt>
      <trkpt lat="43.53354" lon="5.30156">
        <ele>293.62909</ele>
        <time>2023-03-15T08:57:17.000Z</time>
      </trkpt>
      <trkpt lat="43.53354" lon="5.30159">
        <ele>293.5752</ele>
        <time>2023-03-15T08:57:19.000Z</time>
      </trkpt>
      <trkpt lat="43.53354" lon="5.30161">
        <ele>293.53604</ele>
        <time>2023-03-15T08:57:21.000Z</time>
      </trkpt>
      <trkpt lat="43.53354" lon="5.30164">
        <ele>293.47748</ele>
        <time>2023-03-15T08:57:23.000Z</time>
      </trkpt>
      <trkpt lat="43.53354" lon="5.30167">
        <ele>293.4458</ele>
        <time>2023-03-15T08:57:25.000Z</time>
      </trkpt>
      <trkpt lat="43.53354" lon="5.3017">
        <ele>293.35529</ele>
        <time>2023-03-15T08:57:27.000Z</time>
      </trkpt>
      <trkpt lat="43.53354" lon="5.30173">
        <ele>293.25885</ele>
        <time>2023-03-15T08:57:29.000Z</time>
      </trkpt>
      <trkpt lat="43.53354" lon="5.30177">
        <ele>293.18576</ele>
        <time>2023-03-15T08:57:32.000Z</time>
      </trkpt>
      <trkpt lat="43.53353" lon="5.30179">
        <ele>293.19284</ele>
        <time>2023-03-15T08:57:34.000Z</time>
      </trkpt>
      <trkpt lat="43.53353" lon="5.30182">
        <ele>293.16336</ele>
        <time>2023-03-15T08:57:36.000Z</time>
      </trkpt>
      <trkpt lat="43.53353" lon="5.30185">
        <ele>293.08075</ele>
        <time>2023-03-15T08:57:38.000Z</time>
      </trkpt>
      <trkpt lat="43.53353" lon="5.30189">
        <ele>292.95737</ele>
        <time>2023-03-15T08:57:40.000Z</time>
      </trkpt>
      <trkpt lat="43.53353" lon="5.30193">
        <ele>292.83652</ele>
        <time>2023-03-15T08:57:42.000Z</time>
      </trkpt>
      <trkpt lat="43.53353" lon="5.30196">
        <ele>292.74005</ele>
        <time>2023-03-15T08:57:44.000Z</time>
      </trkpt>
      <trkpt lat="43.53352" lon="5.302">
        <ele>292.6373</ele>
        <time>2023-03-15T08:57:46.000Z</time>
      </trkpt>
      <trkpt lat="43.53352" lon="5.30203">
        <ele>292.47565</ele>
        <time>2023-03-15T08:57:48.000Z</time>
      </trkpt>
      <trkpt lat="43.53351" lon="5.30206">
        <ele>292.3074</ele>
        <time>2023-03-15T08:57:50.000Z</time>
      </trkpt>
      <trkpt lat="43.53351" lon="5.30209">
        <ele>292.18866</ele>
        <time>2023-03-15T08:57:52.000Z</time>
      </trkpt>
      <trkpt lat="43.53351" lon="5.30212">
        <ele>292.11102</ele>
        <time>2023-03-15T08:57:54.000Z</time>
      </trkpt>
      <trkpt lat="43.53351" lon="5.30215">
        <ele>291.99612</ele>
        <time>2023-03-15T08:57:56.000Z</time>
      </trkpt>
      <trkpt lat="43.5335" lon="5.30218">
        <ele>291.87384</ele>
        <time>2023-03-15T08:57:58.000Z</time>
      </trkpt>
      <trkpt lat="43.5335" lon="5.30221">
        <ele>291.73474</ele>
        <time>2023-03-15T08:58:00.000Z</time>
      </trkpt>
      <trkpt lat="43.5335" lon="5.30225">
        <ele>291.6163</ele>
        <time>2023-03-15T08:58:02.000Z</time>
      </trkpt>
      <trkpt lat="43.53349" lon="5.30228">
        <ele>291.51288</ele>
        <time>2023-03-15T08:58:04.000Z</time>
      </trkpt>
      <trkpt lat="43.53349" lon="5.30231">
        <ele>291.41937</ele>
        <time>2023-03-15T08:58:06.000Z</time>
      </trkpt>
      <trkpt lat="43.53349" lon="5.30234">
        <ele>291.36734</ele>
        <time>2023-03-15T08:58:08.000Z</time>
      </trkpt>
      <trkpt lat="43.53349" lon="5.30237">
        <ele>291.2793</ele>
        <time>2023-03-15T08:58:10.000Z</time>
      </trkpt>
      <trkpt lat="43.53349" lon="5.3024">
        <ele>291.16904</ele>
        <time>2023-03-15T08:58:12.000Z</time>
      </trkpt>
      <trkpt lat="43.53348" lon="5.30243">
        <ele>290.97058</ele>
        <time>2023-03-15T08:58:14.000Z</time>
      </trkpt>
      <trkpt lat="43.53348" lon="5.30247">
        <ele>290.79742</ele>
        <time>2023-03-15T08:58:16.000Z</time>
      </trkpt>
      <trkpt lat="43.53348" lon="5.3025">
        <ele>290.66473</ele>
        <time>2023-03-15T08:58:18.000Z</time>
      </trkpt>
      <trkpt lat="43.53348" lon="5.30253">
        <ele>290.6048</ele>
        <time>2023-03-15T08:58:20.000Z</time>
      </trkpt>
      <trkpt lat="43.53348" lon="5.30256">
        <ele>290.55243</ele>
        <time>2023-03-15T08:58:22.000Z</time>
      </trkpt>
      <trkpt lat="43.53348" lon="5.30259">
        <ele>290.56223</ele>
        <time>2023-03-15T08:58:24.000Z</time>
      </trkpt>
      <trkpt lat="43.53348" lon="5.30263">
        <ele>290.53671</ele>
        <time>2023-03-15T08:58:26.000Z</time>
      </trkpt>
      <trkpt lat="43.53348" lon="5.30266">
        <ele>290.55054</ele>
        <time>2023-03-15T08:58:28.000Z</time>
      </trkpt>
      <trkpt lat="43.53349" lon="5.30269">
        <ele>290.55206</ele>
        <time>2023-03-15T08:58:30.000Z</time>
      </trkpt>
      <trkpt lat="43.53349" lon="5.30272">
        <ele>290.53125</ele>
        <time>2023-03-15T08:58:32.000Z</time>
      </trkpt>
      <trkpt lat="43.53349" lon="5.30275">
        <ele>290.48907</ele>
        <time>2023-03-15T08:58:34.000Z</time>
      </trkpt>
      <trkpt lat="43.53349" lon="5.30279">
        <ele>290.49405</ele>
        <time>2023-03-15T08:58:36.000Z</time>
      </trkpt>
      <trkpt lat="43.5335" lon="5.30282">
        <ele>290.52646</ele>
        <time>2023-03-15T08:58:38.000Z</time>
      </trkpt>
      <trkpt lat="43.53349" lon="5.30286">
        <ele>290.53955</ele>
        <time>2023-03-15T08:58:40.000Z</time>
      </trkpt>
      <trkpt lat="43.53349" lon="5.30289">
        <ele>290.52396</ele>
        <time>2023-03-15T08:58:42.000Z</time>
      </trkpt>
      <trkpt lat="43.53349" lon="5.30292">
        <ele>290.4993</ele>
        <time>2023-03-15T08:58:44.000Z</time>
      </trkpt>
      <trkpt lat="43.53348" lon="5.30295">
        <ele>290.44135</ele>
        <time>2023-03-15T08:58:46.000Z</time>
      </trkpt>
      <trkpt lat="43.53348" lon="5.30298">
        <ele>290.35468</ele>
        <time>2023-03-15T08:58:48.000Z</time>
      </trkpt>
      <trkpt lat="43.53348" lon="5.30301">
        <ele>290.28836</ele>
        <time>2023-03-15T08:58:50.000Z</time>
      </trkpt>
      <trkpt lat="43.53347" lon="5.30304">
        <ele>290.19629</ele>
        <time>2023-03-15T08:58:52.000Z</time>
      </trkpt>
      <trkpt lat="43.53347" lon="5.30307">
        <ele>290.1369</ele>
        <time>2023-03-15T08:58:54.000Z</time>
      </trkpt>
      <trkpt lat="43.53347" lon="5.3031">
        <ele>290.08356</ele>
        <time>2023-03-15T08:58:56.000Z</time>
      </trkpt>
      <trkpt lat="43.53347" lon="5.30313">
        <ele>290.08185</ele>
        <time>2023-03-15T08:58:58.000Z</time>
      </trkpt>
      <trkpt lat="43.53347" lon="5.30316">
        <ele>290.06293</ele>
        <time>2023-03-15T08:59:00.000Z</time>
      </trkpt>
      <trkpt lat="43.53346" lon="5.30319">
        <ele>290.03894</ele>
        <time>2023-03-15T08:59:02.000Z</time>
      </trkpt>
      <trkpt lat="43.53346" lon="5.30322">
        <ele>289.96649</ele>
        <time>2023-03-15T08:59:04.000Z</time>
      </trkpt>
      <trkpt lat="43.53345" lon="5.30325">
        <ele>289.92703</ele>
        <time>2023-03-15T08:59:06.000Z</time>
      </trkpt>
      <trkpt lat="43.53345" lon="5.30329">
        <ele>289.8808</ele>
        <time>2023-03-15T08:59:08.000Z</time>
      </trkpt>
      <trkpt lat="43.53345" lon="5.30332">
        <ele>289.7514</ele>
        <time>2023-03-15T08:59:10.000Z</time>
      </trkpt>
      <trkpt lat="43.53344" lon="5.30336">
        <ele>289.57416</ele>
        <time>2023-03-15T08:59:12.000Z</time>
      </trkpt>
      <trkpt lat="43.53344" lon="5.30339">
        <ele>289.41571</ele>
        <time>2023-03-15T08:59:14.000Z</time>
      </trkpt>
      <trkpt lat="43.53343" lon="5.30342">
        <ele>289.25055</ele>
        <time>2023-03-15T08:59:16.000Z</time>
      </trkpt>
      <trkpt lat="43.53343" lon="5.30345">
        <ele>289.11581</ele>
        <time>2023-03-15T08:59:18.000Z</time>
      </trkpt>
      <trkpt lat="43.53342" lon="5.30348">
        <ele>288.99136</ele>
        <time>2023-03-15T08:59:20.000Z</time>
      </trkpt>
      <trkpt lat="43.53342" lon="5.30351">
        <ele>288.89215</ele>
        <time>2023-03-15T08:59:22.000Z</time>
      </trkpt>
      <trkpt lat="43.53341" lon="5.30354">
        <ele>288.74701</ele>
        <time>2023-03-15T08:59:24.000Z</time>
      </trkpt>
      <trkpt lat="43.53341" lon="5.30357">
        <ele>288.64038</ele>
        <time>2023-03-15T08:59:26.000Z</time>
      </trkpt>
      <trkpt lat="43.53342" lon="5.30361">
        <ele>288.58456</ele>
        <time>2023-03-15T08:59:28.000Z</time>
      </trkpt>
      <trkpt lat="43.53341" lon="5.30364">
        <ele>288.57892</ele>
        <time>2023-03-15T08:59:30.000Z</time>
      </trkpt>
      <trkpt lat="43.53341" lon="5.30367">
        <ele>288.60931</ele>
        <time>2023-03-15T08:59:32.000Z</time>
      </trkpt>
      <trkpt lat="43.5334" lon="5.3037">
        <ele>288.64899</ele>
        <time>2023-03-15T08:59:34.000Z</time>
      </trkpt>
      <trkpt lat="43.53339" lon="5.30374">
        <ele>288.66412</ele>
        <time>2023-03-15T08:59:36.000Z</time>
      </trkpt>
      <trkpt lat="43.53339" lon="5.30378">
        <ele>288.5481</ele>
        <time>2023-03-15T08:59:38.000Z</time>
      </trkpt>
      <trkpt lat="43.53339" lon="5.30381">
        <ele>288.37555</ele>
        <time>2023-03-15T08:59:40.000Z</time>
      </trkpt>
      <trkpt lat="43.53339" lon="5.30384">
        <ele>288.21085</ele>
        <time>2023-03-15T08:59:42.000Z</time>
      </trkpt>
      <trkpt lat="43.53339" lon="5.30387">
        <ele>288.06726</ele>
        <time>2023-03-15T08:59:44.000Z</time>
      </trkpt>
      <trkpt lat="43.53338" lon="5.30391">
        <ele>287.90692</ele>
        <time>2023-03-15T08:59:46.000Z</time>
      </trkpt>
      <trkpt lat="43.53339" lon="5.30394">
        <ele>287.76172</ele>
        <time>2023-03-15T08:59:48.000Z</time>
      </trkpt>
      <trkpt lat="43.53339" lon="5.30397">
        <ele>287.62274</ele>
        <time>2023-03-15T08:59:50.000Z</time>
      </trkpt>
      <trkpt lat="43.53338" lon="5.30401">
        <ele>287.55157</ele>
        <time>2023-03-15T08:59:52.000Z</time>
      </trkpt>
      <trkpt lat="43.53338" lon="5.30404">
        <ele>287.48587</ele>
        <time>2023-03-15T08:59:54.000Z</time>
      </trkpt>
      <trkpt lat="43.53338" lon="5.30407">
        <ele>287.38336</ele>
        <time>2023-03-15T08:59:56.000Z</time>
      </trkpt>
      <trkpt lat="43.53338" lon="5.3041">
        <ele>287.211</ele>
        <time>2023-03-15T08:59:58.000Z</time>
      </trkpt>
      <trkpt lat="43.53337" lon="5.30413">
        <ele>287.08121</ele>
        <time>2023-03-15T09:00:00.000Z</time>
      </trkpt>
      <trkpt lat="43.53337" lon="5.30416">
        <ele>286.91092</ele>
        <time>2023-03-15T09:00:02.000Z</time>
      </trkpt>
      <trkpt lat="43.53337" lon="5.30418">
        <ele>286.78094</ele>
        <time>2023-03-15T09:00:04.000Z</time>
      </trkpt>
      <trkpt lat="43.53337" lon="5.30421">
        <ele>286.61304</ele>
        <time>2023-03-15T09:00:06.000Z</time>
      </trkpt>
      <trkpt lat="43.53336" lon="5.30424">
        <ele>286.3819</ele>
        <time>2023-03-15T09:00:08.000Z</time>
      </trkpt>
      <trkpt lat="43.53336" lon="5.30427">
        <ele>286.10779</ele>
        <time>2023-03-15T09:00:10.000Z</time>
      </trkpt>
      <trkpt lat="43.53335" lon="5.3043">
        <ele>285.79639</ele>
        <time>2023-03-15T09:00:12.000Z</time>
      </trkpt>
      <trkpt lat="43.53335" lon="5.30433">
        <ele>285.44354</ele>
        <time>2023-03-15T09:00:14.000Z</time>
      </trkpt>
      <trkpt lat="43.53335" lon="5.30436">
        <ele>285.03949</ele>
        <time>2023-03-15T09:00:16.000Z</time>
      </trkpt>
      <trkpt lat="43.53335" lon="5.30439">
        <ele>284.70975</ele>
        <time>2023-03-15T09:00:18.000Z</time>
      </trkpt>
      <trkpt lat="43.53334" lon="5.30442">
        <ele>284.43457</ele>
        <time>2023-03-15T09:00:20.000Z</time>
      </trkpt>
      <trkpt lat="43.53333" lon="5.30445">
        <ele>284.15656</ele>
        <time>2023-03-15T09:00:22.000Z</time>
      </trkpt>
      <trkpt lat="43.53331" lon="5.30448">
        <ele>283.90546</ele>
        <time>2023-03-15T09:00:24.000Z</time>
      </trkpt>
      <trkpt lat="43.5333" lon="5.3045">
        <ele>283.67676</ele>
        <time>2023-03-15T09:00:26.000Z</time>
      </trkpt>
      <trkpt lat="43.53329" lon="5.30453">
        <ele>283.4838</ele>
        <time>2023-03-15T09:00:28.000Z</time>
      </trkpt>
      <trkpt lat="43.53327" lon="5.30456">
        <ele>283.36475</ele>
        <time>2023-03-15T09:00:30.000Z</time>
      </trkpt>
      <trkpt lat="43.53325" lon="5.30458">
        <ele>283.26801</ele>
        <time>2023-03-15T09:00:32.000Z</time>
      </trkpt>
      <trkpt lat="43.53324" lon="5.3046">
        <ele>283.16998</ele>
        <time>2023-03-15T09:00:34.000Z</time>
      </trkpt>
      <trkpt lat="43.53322" lon="5.30462">
        <ele>283.10187</ele>
        <time>2023-03-15T09:00:36.000Z</time>
      </trkpt>
      <trkpt lat="43.53321" lon="5.30464">
        <ele>283.04962</ele>
        <time>2023-03-15T09:00:38.000Z</time>
      </trkpt>
      <trkpt lat="43.53319" lon="5.30466">
        <ele>282.98004</ele>
        <time>2023-03-15T09:00:40.000Z</time>
      </trkpt>
      <trkpt lat="43.53317" lon="5.30467">
        <ele>282.9234</ele>
        <time>2023-03-15T09:00:42.000Z</time>
      </trkpt>
      <trkpt lat="43.53316" lon="5.30468">
        <ele>282.88443</ele>
        <time>2023-03-15T09:00:44.000Z</time>
      </trkpt>
      <trkpt lat="43.53314" lon="5.3047">
        <ele>282.83521</ele>
        <time>2023-03-15T09:00:46.000Z</time>
      </trkpt>
      <trkpt lat="43.53312" lon="5.30471">
        <ele>282.82123</ele>
        <time>2023-03-15T09:00:48.000Z</time>
      </trkpt>
      <trkpt lat="43.5331" lon="5.30472">
        <ele>282.80777</ele>
        <time>2023-03-15T09:00:50.000Z</time>
      </trkpt>
      <trkpt lat="43.53307" lon="5.30473">
        <ele>282.84454</ele>
        <time>2023-03-15T09:00:52.000Z</time>
      </trkpt>
      <trkpt lat="43.53305" lon="5.30474">
        <ele>282.90762</ele>
        <time>2023-03-15T09:00:54.000Z</time>
      </trkpt>
      <trkpt lat="43.53303" lon="5.30475">
        <ele>283.03168</ele>
        <time>2023-03-15T09:00:56.000Z</time>
      </trkpt>
      <trkpt lat="43.533" lon="5.30477">
        <ele>283.14426</ele>
        <time>2023-03-15T09:00:58.000Z</time>
      </trkpt>
      <trkpt lat="43.53298" lon="5.30478">
        <ele>283.21951</ele>
        <time>2023-03-15T09:01:00.000Z</time>
      </trkpt>
      <trkpt lat="43.53296" lon="5.30479">
        <ele>283.29428</ele>
        <time>2023-03-15T09:01:02.000Z</time>
      </trkpt>
      <trkpt lat="43.53294" lon="5.3048">
        <ele>283.3551</ele>
        <time>2023-03-15T09:01:04.000Z</time>
      </trkpt>
      <trkpt lat="43.53292" lon="5.30481">
        <ele>283.38647</ele>
        <time>2023-03-15T09:01:06.000Z</time>
      </trkpt>
      <trkpt lat="43.53291" lon="5.30483">
        <ele>283.35455</ele>
        <time>2023-03-15T09:01:08.000Z</time>
      </trkpt>
      <trkpt lat="43.53288" lon="5.30484">
        <ele>283.30545</ele>
        <time>2023-03-15T09:01:10.000Z</time>
      </trkpt>
      <trkpt lat="43.53286" lon="5.30485">
        <ele>283.18936</ele>
        <time>2023-03-15T09:01:12.000Z</time>
      </trkpt>
      <trkpt lat="43.53284" lon="5.30486">
        <ele>283.06485</ele>
        <time>2023-03-15T09:01:14.000Z</time>
      </trkpt>
      <trkpt lat="43.53282" lon="5.30487">
        <ele>282.95279</ele>
        <time>2023-03-15T09:01:16.000Z</time>
      </trkpt>
      <trkpt lat="43.5328" lon="5.30488">
        <ele>282.88873</ele>
        <time>2023-03-15T09:01:18.000Z</time>
      </trkpt>
      <trkpt lat="43.53278" lon="5.30489">
        <ele>282.76407</ele>
        <time>2023-03-15T09:01:20.000Z</time>
      </trkpt>
      <trkpt lat="43.53277" lon="5.30491">
        <ele>282.63132</ele>
        <time>2023-03-15T09:01:22.000Z</time>
      </trkpt>
      <trkpt lat="43.53275" lon="5.30494">
        <ele>282.48709</ele>
        <time>2023-03-15T09:01:24.000Z</time>
      </trkpt>
      <trkpt lat="43.53273" lon="5.30496">
        <ele>282.34888</ele>
        <time>2023-03-15T09:01:26.000Z</time>
      </trkpt>
      <trkpt lat="43.53272" lon="5.30498">
        <ele>282.16946</ele>
        <time>2023-03-15T09:01:28.000Z</time>
      </trkpt>
      <trkpt lat="43.5327" lon="5.305">
        <ele>281.94977</ele>
        <time>2023-03-15T09:01:30.000Z</time>
      </trkpt>
      <trkpt lat="43.53269" lon="5.30503">
        <ele>281.724</ele>
        <time>2023-03-15T09:01:33.000Z</time>
      </trkpt>
      <trkpt lat="43.53268" lon="5.30506">
        <ele>281.48337</ele>
        <time>2023-03-15T09:01:36.000Z</time>
      </trkpt>
      <trkpt lat="43.53268" lon="5.30509">
        <ele>281.20261</ele>
        <time>2023-03-15T09:01:38.000Z</time>
      </trkpt>
      <trkpt lat="43.53269" lon="5.30513">
        <ele>280.84424</ele>
        <time>2023-03-15T09:01:41.000Z</time>
      </trkpt>
      <trkpt lat="43.53269" lon="5.30516">
        <ele>280.44037</ele>
        <time>2023-03-15T09:01:43.000Z</time>
      </trkpt>
      <trkpt lat="43.53269" lon="5.3052">
        <ele>280.00903</ele>
        <time>2023-03-15T09:01:45.000Z</time>
      </trkpt>
      <trkpt lat="43.5327" lon="5.30523">
        <ele>279.58383</ele>
        <time>2023-03-15T09:01:47.000Z</time>
      </trkpt>
      <trkpt lat="43.53271" lon="5.30526">
        <ele>279.17838</ele>
        <time>2023-03-15T09:01:49.000Z</time>
      </trkpt>
      <trkpt lat="43.53271" lon="5.30528">
        <ele>278.79556</ele>
        <time>2023-03-15T09:01:51.000Z</time>
      </trkpt>
      <trkpt lat="43.53272" lon="5.30531">
        <ele>278.436</ele>
        <time>2023-03-15T09:01:53.000Z</time>
      </trkpt>
      <trkpt lat="43.53274" lon="5.30533">
        <ele>278.04401</ele>
        <time>2023-03-15T09:01:56.000Z</time>
      </trkpt>
      <trkpt lat="43.53276" lon="5.30535">
        <ele>277.56915</ele>
        <time>2023-03-15T09:01:59.000Z</time>
      </trkpt>
      <trkpt lat="43.53278" lon="5.30536">
        <ele>277.02951</ele>
        <time>2023-03-15T09:02:01.000Z</time>
      </trkpt>
      <trkpt lat="43.53279" lon="5.30538">
        <ele>276.48154</ele>
        <time>2023-03-15T09:02:03.000Z</time>
      </trkpt>
      <trkpt lat="43.5328" lon="5.3054">
        <ele>275.97809</ele>
        <time>2023-03-15T09:02:05.000Z</time>
      </trkpt>
      <trkpt lat="43.53282" lon="5.30542">
        <ele>275.48227</ele>
        <time>2023-03-15T09:02:08.000Z</time>
      </trkpt>
      <trkpt lat="43.53284" lon="5.30544">
        <ele>274.95407</ele>
        <time>2023-03-15T09:02:11.000Z</time>
      </trkpt>
      <trkpt lat="43.53287" lon="5.30545">
        <ele>274.43106</ele>
        <time>2023-03-15T09:02:14.000Z</time>
      </trkpt>
      <trkpt lat="43.53288" lon="5.30546">
        <ele>273.95627</ele>
        <time>2023-03-15T09:02:16.000Z</time>
      </trkpt>
      <trkpt lat="43.5329" lon="5.30546">
        <ele>273.52707</ele>
        <time>2023-03-15T09:02:18.000Z</time>
      </trkpt>
      <trkpt lat="43.53292" lon="5.30546">
        <ele>273.09439</ele>
        <time>2023-03-15T09:02:20.000Z</time>
      </trkpt>
      <trkpt lat="43.53294" lon="5.30546">
        <ele>272.67957</ele>
        <time>2023-03-15T09:02:22.000Z</time>
      </trkpt>
      <trkpt lat="43.53296" lon="5.30546">
        <ele>272.29828</ele>
        <time>2023-03-15T09:02:24.000Z</time>
      </trkpt>
      <trkpt lat="43.53298" lon="5.30546">
        <ele>272.00018</ele>
        <time>2023-03-15T09:02:26.000Z</time>
      </trkpt>
      <trkpt lat="43.533" lon="5.30546">
        <ele>271.73792</ele>
        <time>2023-03-15T09:02:28.000Z</time>
      </trkpt>
      <trkpt lat="43.53302" lon="5.30546">
        <ele>271.50922</ele>
        <time>2023-03-15T09:02:30.000Z</time>
      </trkpt>
      <trkpt lat="43.53304" lon="5.30547">
        <ele>271.28082</ele>
        <time>2023-03-15T09:02:32.000Z</time>
      </trkpt>
      <trkpt lat="43.53306" lon="5.30547">
        <ele>271.05746</ele>
        <time>2023-03-15T09:02:34.000Z</time>
      </trkpt>
      <trkpt lat="43.53309" lon="5.30546">
        <ele>270.82507</ele>
        <time>2023-03-15T09:02:36.000Z</time>
      </trkpt>
      <trkpt lat="43.53311" lon="5.30546">
        <ele>270.58646</ele>
        <time>2023-03-15T09:02:38.000Z</time>
      </trkpt>
      <trkpt lat="43.53313" lon="5.30546">
        <ele>270.44696</ele>
        <time>2023-03-15T09:02:40.000Z</time>
      </trkpt>
      <trkpt lat="43.53316" lon="5.30545">
        <ele>270.39511</ele>
        <time>2023-03-15T09:02:42.000Z</time>
      </trkpt>
      <trkpt lat="43.53318" lon="5.30545">
        <ele>270.36423</ele>
        <time>2023-03-15T09:02:44.000Z</time>
      </trkpt>
      <trkpt lat="43.5332" lon="5.30546">
        <ele>270.34027</ele>
        <time>2023-03-15T09:02:46.000Z</time>
      </trkpt>
      <trkpt lat="43.53322" lon="5.30545">
        <ele>270.30963</ele>
        <time>2023-03-15T09:02:48.000Z</time>
      </trkpt>
      <trkpt lat="43.53324" lon="5.30545">
        <ele>270.28146</ele>
        <time>2023-03-15T09:02:50.000Z</time>
      </trkpt>
      <trkpt lat="43.53326" lon="5.30545">
        <ele>270.30817</ele>
        <time>2023-03-15T09:02:52.000Z</time>
      </trkpt>
      <trkpt lat="43.53328" lon="5.30546">
        <ele>270.34125</ele>
        <time>2023-03-15T09:02:54.000Z</time>
      </trkpt>
      <trkpt lat="43.5333" lon="5.30546">
        <ele>270.36026</ele>
        <time>2023-03-15T09:02:56.000Z</time>
      </trkpt>
      <trkpt lat="43.53333" lon="5.30546">
        <ele>270.37173</ele>
        <time>2023-03-15T09:02:58.000Z</time>
      </trkpt>
      <trkpt lat="43.53335" lon="5.30546">
        <ele>270.35828</ele>
        <time>2023-03-15T09:03:00.000Z</time>
      </trkpt>
      <trkpt lat="43.53336" lon="5.30545">
        <ele>270.33856</ele>
        <time>2023-03-15T09:03:02.000Z</time>
      </trkpt>
      <trkpt lat="43.53338" lon="5.30545">
        <ele>270.33456</ele>
        <time>2023-03-15T09:03:04.000Z</time>
      </trkpt>
      <trkpt lat="43.53341" lon="5.30544">
        <ele>270.30646</ele>
        <time>2023-03-15T09:03:06.000Z</time>
      </trkpt>
      <trkpt lat="43.53343" lon="5.30544">
        <ele>270.28149</ele>
        <time>2023-03-15T09:03:08.000Z</time>
      </trkpt>
      <trkpt lat="43.53345" lon="5.30544">
        <ele>270.25397</ele>
        <time>2023-03-15T09:03:10.000Z</time>
      </trkpt>
      <trkpt lat="43.53347" lon="5.30544">
        <ele>270.1962</ele>
        <time>2023-03-15T09:03:12.000Z</time>
      </trkpt>
      <trkpt lat="43.53349" lon="5.30544">
        <ele>270.12878</ele>
        <time>2023-03-15T09:03:15.000Z</time>
      </trkpt>
      <trkpt lat="43.53351" lon="5.30544">
        <ele>270.06573</ele>
        <time>2023-03-15T09:03:17.000Z</time>
      </trkpt>
      <trkpt lat="43.53353" lon="5.30544">
        <ele>269.98895</ele>
        <time>2023-03-15T09:03:19.000Z</time>
      </trkpt>
      <trkpt lat="43.53355" lon="5.30543">
        <ele>269.8725</ele>
        <time>2023-03-15T09:03:21.000Z</time>
      </trkpt>
      <trkpt lat="43.53358" lon="5.30542">
        <ele>269.72665</ele>
        <time>2023-03-15T09:03:23.000Z</time>
      </trkpt>
      <trkpt lat="43.5336" lon="5.30542">
        <ele>269.61731</ele>
        <time>2023-03-15T09:03:25.000Z</time>
      </trkpt>
      <trkpt lat="43.53363" lon="5.30542">
        <ele>269.42145</ele>
        <time>2023-03-15T09:03:27.000Z</time>
      </trkpt>
      <trkpt lat="43.53365" lon="5.30542">
        <ele>269.19171</ele>
        <time>2023-03-15T09:03:29.000Z</time>
      </trkpt>
      <trkpt lat="43.53367" lon="5.30544">
        <ele>268.95032</ele>
        <time>2023-03-15T09:03:31.000Z</time>
      </trkpt>
      <trkpt lat="43.53369" lon="5.30546">
        <ele>268.60483</ele>
        <time>2023-03-15T09:03:34.000Z</time>
      </trkpt>
      <trkpt lat="43.5337" lon="5.30547">
        <ele>268.2023</ele>
        <time>2023-03-15T09:03:37.000Z</time>
      </trkpt>
      <trkpt lat="43.53372" lon="5.30549">
        <ele>267.7778</ele>
        <time>2023-03-15T09:03:40.000Z</time>
      </trkpt>
      <trkpt lat="43.53374" lon="5.30551">
        <ele>267.31149</ele>
        <time>2023-03-15T09:03:42.000Z</time>
      </trkpt>
      <trkpt lat="43.53375" lon="5.30553">
        <ele>266.8703</ele>
        <time>2023-03-15T09:03:44.000Z</time>
      </trkpt>
      <trkpt lat="43.53376" lon="5.30556">
        <ele>266.42511</ele>
        <time>2023-03-15T09:03:46.000Z</time>
      </trkpt>
      <trkpt lat="43.53376" lon="5.30559">
        <ele>265.93988</ele>
        <time>2023-03-15T09:03:49.000Z</time>
      </trkpt>
      <trkpt lat="43.53378" lon="5.30561">
        <ele>265.45258</ele>
        <time>2023-03-15T09:03:52.000Z</time>
      </trkpt>
      <trkpt lat="43.53377" lon="5.30564">
        <ele>264.95596</ele>
        <time>2023-03-15T09:03:55.000Z</time>
      </trkpt>
      <trkpt lat="43.53377" lon="5.30568">
        <ele>264.45135</ele>
        <time>2023-03-15T09:03:59.000Z</time>
      </trkpt>
      <trkpt lat="43.53377" lon="5.3057">
        <ele>264.01489</ele>
        <time>2023-03-15T09:04:01.000Z</time>
      </trkpt>
      <trkpt lat="43.53376" lon="5.30573">
        <ele>263.6095</ele>
        <time>2023-03-15T09:04:03.000Z</time>
      </trkpt>
      <trkpt lat="43.53376" lon="5.30575">
        <ele>263.14581</ele>
        <time>2023-03-15T09:04:05.000Z</time>
      </trkpt>
      <trkpt lat="43.53375" lon="5.30578">
        <ele>262.65756</ele>
        <time>2023-03-15T09:04:07.000Z</time>
      </trkpt>
      <trkpt lat="43.53374" lon="5.30581">
        <ele>262.12238</ele>
        <time>2023-03-15T09:04:09.000Z</time>
      </trkpt>
      <trkpt lat="43.53374" lon="5.30584">
        <ele>261.63177</ele>
        <time>2023-03-15T09:04:11.000Z</time>
      </trkpt>
      <trkpt lat="43.53373" lon="5.30586">
        <ele>261.10477</ele>
        <time>2023-03-15T09:04:13.000Z</time>
      </trkpt>
      <trkpt lat="43.53372" lon="5.30589">
        <ele>260.61035</ele>
        <time>2023-03-15T09:04:15.000Z</time>
      </trkpt>
      <trkpt lat="43.53371" lon="5.30591">
        <ele>260.13632</ele>
        <time>2023-03-15T09:04:18.000Z</time>
      </trkpt>
      <trkpt lat="43.53369" lon="5.30594">
        <ele>259.6633</ele>
        <time>2023-03-15T09:04:21.000Z</time>
      </trkpt>
      <trkpt lat="43.53368" lon="5.30596">
        <ele>259.27151</ele>
        <time>2023-03-15T09:04:23.000Z</time>
      </trkpt>
      <trkpt lat="43.53367" lon="5.30598">
        <ele>258.95728</ele>
        <time>2023-03-15T09:04:25.000Z</time>
      </trkpt>
      <trkpt lat="43.53365" lon="5.306">
        <ele>258.72308</ele>
        <time>2023-03-15T09:04:27.000Z</time>
      </trkpt>
      <trkpt lat="43.53364" lon="5.30603">
        <ele>258.58698</ele>
        <time>2023-03-15T09:04:29.000Z</time>
      </trkpt>
      <trkpt lat="43.53363" lon="5.30606">
        <ele>258.40839</ele>
        <time>2023-03-15T09:04:31.000Z</time>
      </trkpt>
      <trkpt lat="43.53362" lon="5.30608">
        <ele>258.24384</ele>
        <time>2023-03-15T09:04:33.000Z</time>
      </trkpt>
      <trkpt lat="43.5336" lon="5.3061">
        <ele>258.08316</ele>
        <time>2023-03-15T09:04:35.000Z</time>
      </trkpt>
      <trkpt lat="43.53359" lon="5.30613">
        <ele>257.9061</ele>
        <time>2023-03-15T09:04:38.000Z</time>
      </trkpt>
      <trkpt lat="43.53357" lon="5.30616">
        <ele>257.68259</ele>
        <time>2023-03-15T09:04:41.000Z</time>
      </trkpt>
      <trkpt lat="43.53356" lon="5.30619">
        <ele>257.49237</ele>
        <time>2023-03-15T09:04:43.000Z</time>
      </trkpt>
      <trkpt lat="43.53355" lon="5.30621">
        <ele>257.24615</ele>
        <time>2023-03-15T09:04:45.000Z</time>
      </trkpt>
      <trkpt lat="43.53354" lon="5.30624">
        <ele>256.98734</ele>
        <time>2023-03-15T09:04:47.000Z</time>
      </trkpt>
      <trkpt lat="43.53353" lon="5.30626">
        <ele>256.81384</ele>
        <time>2023-03-15T09:04:49.000Z</time>
      </trkpt>
      <trkpt lat="43.53351" lon="5.30628">
        <ele>256.6557</ele>
        <time>2023-03-15T09:04:51.000Z</time>
      </trkpt>
      <trkpt lat="43.5335" lon="5.3063">
        <ele>256.53717</ele>
        <time>2023-03-15T09:04:53.000Z</time>
      </trkpt>
      <trkpt lat="43.53349" lon="5.30632">
        <ele>256.39072</ele>
        <time>2023-03-15T09:04:55.000Z</time>
      </trkpt>
      <trkpt lat="43.53347" lon="5.30635">
        <ele>256.24609</ele>
        <time>2023-03-15T09:04:57.000Z</time>
      </trkpt>
      <trkpt lat="43.53346" lon="5.30638">
        <ele>256.08447</ele>
        <time>2023-03-15T09:04:59.000Z</time>
      </trkpt>
      <trkpt lat="43.53345" lon="5.3064">
        <ele>255.92264</ele>
        <time>2023-03-15T09:05:01.000Z</time>
      </trkpt>
      <trkpt lat="43.53344" lon="5.30643">
        <ele>255.74991</ele>
        <time>2023-03-15T09:05:03.000Z</time>
      </trkpt>
      <trkpt lat="43.53342" lon="5.30645">
        <ele>255.53252</ele>
        <time>2023-03-15T09:05:05.000Z</time>
      </trkpt>
      <trkpt lat="43.53341" lon="5.30648">
        <ele>255.2229</ele>
        <time>2023-03-15T09:05:08.000Z</time>
      </trkpt>
      <trkpt lat="43.5334" lon="5.3065">
        <ele>254.89041</ele>
        <time>2023-03-15T09:05:10.000Z</time>
      </trkpt>
      <trkpt lat="43.53338" lon="5.30652">
        <ele>254.48686</ele>
        <time>2023-03-15T09:05:12.000Z</time>
      </trkpt>
      <trkpt lat="43.53336" lon="5.30655">
        <ele>254.16635</ele>
        <time>2023-03-15T09:05:15.000Z</time>
      </trkpt>
      <trkpt lat="43.53335" lon="5.30656">
        <ele>253.88533</ele>
        <time>2023-03-15T09:05:17.000Z</time>
      </trkpt>
      <trkpt lat="43.53332" lon="5.30658">
        <ele>253.60587</ele>
        <time>2023-03-15T09:05:20.000Z</time>
      </trkpt>
      <trkpt lat="43.5333" lon="5.3066">
        <ele>253.35434</ele>
        <time>2023-03-15T09:05:23.000Z</time>
      </trkpt>
      <trkpt lat="43.53328" lon="5.30662">
        <ele>253.1597</ele>
        <time>2023-03-15T09:05:26.000Z</time>
      </trkpt>
      <trkpt lat="43.53326" lon="5.30663">
        <ele>252.95845</ele>
        <time>2023-03-15T09:05:28.000Z</time>
      </trkpt>
      <trkpt lat="43.53324" lon="5.30665">
        <ele>252.75412</ele>
        <time>2023-03-15T09:05:30.000Z</time>
      </trkpt>
      <trkpt lat="43.53321" lon="5.30666">
        <ele>252.5773</ele>
        <time>2023-03-15T09:05:32.000Z</time>
      </trkpt>
      <trkpt lat="43.53319" lon="5.30667">
        <ele>252.36206</ele>
        <time>2023-03-15T09:05:34.000Z</time>
      </trkpt>
      <trkpt lat="43.53317" lon="5.30669">
        <ele>252.14775</ele>
        <time>2023-03-15T09:05:36.000Z</time>
      </trkpt>
      <trkpt lat="43.53316" lon="5.30671">
        <ele>251.93669</ele>
        <time>2023-03-15T09:05:38.000Z</time>
      </trkpt>
      <trkpt lat="43.53314" lon="5.30672">
        <ele>251.74382</ele>
        <time>2023-03-15T09:05:40.000Z</time>
      </trkpt>
      <trkpt lat="43.53312" lon="5.30673">
        <ele>251.59705</ele>
        <time>2023-03-15T09:05:42.000Z</time>
      </trkpt>
      <trkpt lat="43.5331" lon="5.30674">
        <ele>251.46793</ele>
        <time>2023-03-15T09:05:44.000Z</time>
      </trkpt>
      <trkpt lat="43.53308" lon="5.30676">
        <ele>251.30203</ele>
        <time>2023-03-15T09:05:47.000Z</time>
      </trkpt>
      <trkpt lat="43.53306" lon="5.30678">
        <ele>251.14082</ele>
        <time>2023-03-15T09:05:50.000Z</time>
      </trkpt>
      <trkpt lat="43.53304" lon="5.30679">
        <ele>251.05093</ele>
        <time>2023-03-15T09:05:52.000Z</time>
      </trkpt>
      <trkpt lat="43.53302" lon="5.30679">
        <ele>251.0175</ele>
        <time>2023-03-15T09:05:54.000Z</time>
      </trkpt>
      <trkpt lat="43.53299" lon="5.3068">
        <ele>250.96687</ele>
        <time>2023-03-15T09:05:57.000Z</time>
      </trkpt>
      <trkpt lat="43.53297" lon="5.30681">
        <ele>250.94695</ele>
        <time>2023-03-15T09:05:59.000Z</time>
      </trkpt>
      <trkpt lat="43.53295" lon="5.30683">
        <ele>250.94125</ele>
        <time>2023-03-15T09:06:01.000Z</time>
      </trkpt>
      <trkpt lat="43.53294" lon="5.30684">
        <ele>250.86372</ele>
        <time>2023-03-15T09:06:03.000Z</time>
      </trkpt>
      <trkpt lat="43.53292" lon="5.30685">
        <ele>250.7095</ele>
        <time>2023-03-15T09:06:05.000Z</time>
      </trkpt>
      <trkpt lat="43.5329" lon="5.30687">
        <ele>250.50383</ele>
        <time>2023-03-15T09:06:08.000Z</time>
      </trkpt>
      <trkpt lat="43.53288" lon="5.30688">
        <ele>250.29898</ele>
        <time>2023-03-15T09:06:10.000Z</time>
      </trkpt>
      <trkpt lat="43.53286" lon="5.30688">
        <ele>250.10103</ele>
        <time>2023-03-15T09:06:12.000Z</time>
      </trkpt>
      <trkpt lat="43.53284" lon="5.30689">
        <ele>249.89799</ele>
        <time>2023-03-15T09:06:14.000Z</time>
      </trkpt>
      <trkpt lat="43.53282" lon="5.3069">
        <ele>249.62566</ele>
        <time>2023-03-15T09:06:18.000Z</time>
      </trkpt>
      <trkpt lat="43.5328" lon="5.30689">
        <ele>249.30669</ele>
        <time>2023-03-15T09:06:22.000Z</time>
      </trkpt>
      <trkpt lat="43.53278" lon="5.30685">
        <ele>248.94463</ele>
        <time>2023-03-15T09:06:26.000Z</time>
      </trkpt>
      <trkpt lat="43.53276" lon="5.30686">
        <ele>248.59404</ele>
        <time>2023-03-15T09:06:29.000Z</time>
      </trkpt>
      <trkpt lat="43.53274" lon="5.30688">
        <ele>248.24263</ele>
        <time>2023-03-15T09:06:31.000Z</time>
      </trkpt>
      <trkpt lat="43.53272" lon="5.30688">
        <ele>247.87154</ele>
        <time>2023-03-15T09:06:33.000Z</time>
      </trkpt>
      <trkpt lat="43.5327" lon="5.30688">
        <ele>247.54948</ele>
        <time>2023-03-15T09:06:36.000Z</time>
      </trkpt>
      <trkpt lat="43.53268" lon="5.30689">
        <ele>247.30107</ele>
        <time>2023-03-15T09:06:38.000Z</time>
      </trkpt>
      <trkpt lat="43.53265" lon="5.30689">
        <ele>247.01221</ele>
        <time>2023-03-15T09:06:40.000Z</time>
      </trkpt>
      <trkpt lat="43.53263" lon="5.3069">
        <ele>246.65092</ele>
        <time>2023-03-15T09:06:43.000Z</time>
      </trkpt>
      <trkpt lat="43.5326" lon="5.30691">
        <ele>246.28177</ele>
        <time>2023-03-15T09:06:46.000Z</time>
      </trkpt>
      <trkpt lat="43.53258" lon="5.30692">
        <ele>245.83487</ele>
        <time>2023-03-15T09:06:49.000Z</time>
      </trkpt>
      <trkpt lat="43.53256" lon="5.30693">
        <ele>245.40874</ele>
        <time>2023-03-15T09:06:51.000Z</time>
      </trkpt>
      <trkpt lat="43.53254" lon="5.30693">
        <ele>244.90128</ele>
        <time>2023-03-15T09:06:54.000Z</time>
      </trkpt>
      <trkpt lat="43.53252" lon="5.30693">
        <ele>244.38147</ele>
        <time>2023-03-15T09:06:57.000Z</time>
      </trkpt>
      <trkpt lat="43.5325" lon="5.30693">
        <ele>243.94348</ele>
        <time>2023-03-15T09:06:59.000Z</time>
      </trkpt>
      <trkpt lat="43.53248" lon="5.30693">
        <ele>243.54294</ele>
        <time>2023-03-15T09:07:01.000Z</time>
      </trkpt>
      <trkpt lat="43.53246" lon="5.30693">
        <ele>243.23135</ele>
        <time>2023-03-15T09:07:03.000Z</time>
      </trkpt>
      <trkpt lat="43.53244" lon="5.30693">
        <ele>242.89297</ele>
        <time>2023-03-15T09:07:05.000Z</time>
      </trkpt>
      <trkpt lat="43.53242" lon="5.30693">
        <ele>242.53487</ele>
        <time>2023-03-15T09:07:07.000Z</time>
      </trkpt>
      <trkpt lat="43.5324" lon="5.30695">
        <ele>242.20943</ele>
        <time>2023-03-15T09:07:10.000Z</time>
      </trkpt>
      <trkpt lat="43.53237" lon="5.30694">
        <ele>241.95749</ele>
        <time>2023-03-15T09:07:13.000Z</time>
      </trkpt>
      <trkpt lat="43.53235" lon="5.30693">
        <ele>241.68538</ele>
        <time>2023-03-15T09:07:16.000Z</time>
      </trkpt>
      <trkpt lat="43.53233" lon="5.30695">
        <ele>241.42339</ele>
        <time>2023-03-15T09:07:20.000Z</time>
      </trkpt>
      <trkpt lat="43.5323" lon="5.30696">
        <ele>241.13432</ele>
        <time>2023-03-15T09:07:25.000Z</time>
      </trkpt>
      <trkpt lat="43.53228" lon="5.30697">
        <ele>240.82735</ele>
        <time>2023-03-15T09:07:27.000Z</time>
      </trkpt>
      <trkpt lat="43.53226" lon="5.30697">
        <ele>240.50406</ele>
        <time>2023-03-15T09:07:29.000Z</time>
      </trkpt>
      <trkpt lat="43.53223" lon="5.30697">
        <ele>240.26961</ele>
        <time>2023-03-15T09:07:32.000Z</time>
      </trkpt>
      <trkpt lat="43.53221" lon="5.30696">
        <ele>240.0686</ele>
        <time>2023-03-15T09:07:34.000Z</time>
      </trkpt>
      <trkpt lat="43.53218" lon="5.30696">
        <ele>239.93265</ele>
        <time>2023-03-15T09:07:37.000Z</time>
      </trkpt>
      <trkpt lat="43.53216" lon="5.30695">
        <ele>239.84209</ele>
        <time>2023-03-15T09:07:39.000Z</time>
      </trkpt>
      <trkpt lat="43.53214" lon="5.30696">
        <ele>239.79721</ele>
        <time>2023-03-15T09:07:41.000Z</time>
      </trkpt>
      <trkpt lat="43.53212" lon="5.30696">
        <ele>239.69608</ele>
        <time>2023-03-15T09:07:43.000Z</time>
      </trkpt>
      <trkpt lat="43.5321" lon="5.30696">
        <ele>239.6261</ele>
        <time>2023-03-15T09:07:45.000Z</time>
      </trkpt>
      <trkpt lat="43.53208" lon="5.30697">
        <ele>239.63322</ele>
        <time>2023-03-15T09:07:47.000Z</time>
      </trkpt>
      <trkpt lat="43.53206" lon="5.30697">
        <ele>239.6425</ele>
        <time>2023-03-15T09:07:49.000Z</time>
      </trkpt>
      <trkpt lat="43.53204" lon="5.30697">
        <ele>239.67676</ele>
        <time>2023-03-15T09:07:51.000Z</time>
      </trkpt>
      <trkpt lat="43.53202" lon="5.30697">
        <ele>239.62971</ele>
        <time>2023-03-15T09:07:53.000Z</time>
      </trkpt>
      <trkpt lat="43.53199" lon="5.30697">
        <ele>239.6302</ele>
        <time>2023-03-15T09:07:55.000Z</time>
      </trkpt>
      <trkpt lat="43.53197" lon="5.30697">
        <ele>239.64771</ele>
        <time>2023-03-15T09:07:57.000Z</time>
      </trkpt>
      <trkpt lat="43.53195" lon="5.30697">
        <ele>239.66714</ele>
        <time>2023-03-15T09:07:59.000Z</time>
      </trkpt>
      <trkpt lat="43.53193" lon="5.30697">
        <ele>239.63354</ele>
        <time>2023-03-15T09:08:01.000Z</time>
      </trkpt>
      <trkpt lat="43.53191" lon="5.30697">
        <ele>239.72363</ele>
        <time>2023-03-15T09:08:03.000Z</time>
      </trkpt>
      <trkpt lat="43.53188" lon="5.30697">
        <ele>239.80034</ele>
        <time>2023-03-15T09:08:05.000Z</time>
      </trkpt>
      <trkpt lat="43.53186" lon="5.30696">
        <ele>239.91586</ele>
        <time>2023-03-15T09:08:07.000Z</time>
      </trkpt>
      <trkpt lat="43.53184" lon="5.30696">
        <ele>240.01826</ele>
        <time>2023-03-15T09:08:09.000Z</time>
      </trkpt>
      <trkpt lat="43.53181" lon="5.30696">
        <ele>240.0928</ele>
        <time>2023-03-15T09:08:12.000Z</time>
      </trkpt>
      <trkpt lat="43.53179" lon="5.30695">
        <ele>240.07822</ele>
        <time>2023-03-15T09:08:14.000Z</time>
      </trkpt>
      <trkpt lat="43.53177" lon="5.30695">
        <ele>240.13907</ele>
        <time>2023-03-15T09:08:16.000Z</time>
      </trkpt>
      <trkpt lat="43.53175" lon="5.30695">
        <ele>240.17847</ele>
        <time>2023-03-15T09:08:18.000Z</time>
      </trkpt>
      <trkpt lat="43.53172" lon="5.30695">
        <ele>240.18149</ele>
        <time>2023-03-15T09:08:20.000Z</time>
      </trkpt>
      <trkpt lat="43.53171" lon="5.30695">
        <ele>240.20952</ele>
        <time>2023-03-15T09:08:22.000Z</time>
      </trkpt>
      <trkpt lat="43.53168" lon="5.30696">
        <ele>240.28391</ele>
        <time>2023-03-15T09:08:24.000Z</time>
      </trkpt>
      <trkpt lat="43.53166" lon="5.30695">
        <ele>240.38721</ele>
        <time>2023-03-15T09:08:26.000Z</time>
      </trkpt>
      <trkpt lat="43.53164" lon="5.30695">
        <ele>240.44028</ele>
        <time>2023-03-15T09:08:28.000Z</time>
      </trkpt>
      <trkpt lat="43.53162" lon="5.30695">
        <ele>240.5264</ele>
        <time>2023-03-15T09:08:30.000Z</time>
      </trkpt>
      <trkpt lat="43.53159" lon="5.30695">
        <ele>240.62585</ele>
        <time>2023-03-15T09:08:32.000Z</time>
      </trkpt>
      <trkpt lat="43.53157" lon="5.30695">
        <ele>240.75473</ele>
        <time>2023-03-15T09:08:34.000Z</time>
      </trkpt>
      <trkpt lat="43.53155" lon="5.30696">
        <ele>240.79761</ele>
        <time>2023-03-15T09:08:36.000Z</time>
      </trkpt>
      <trkpt lat="43.53152" lon="5.30696">
        <ele>240.86038</ele>
        <time>2023-03-15T09:08:38.000Z</time>
      </trkpt>
      <trkpt lat="43.5315" lon="5.30697">
        <ele>240.90596</ele>
        <time>2023-03-15T09:08:40.000Z</time>
      </trkpt>
      <trkpt lat="43.53149" lon="5.30699">
        <ele>240.94051</ele>
        <time>2023-03-15T09:08:42.000Z</time>
      </trkpt>
      <trkpt lat="43.53146" lon="5.307">
        <ele>240.95825</ele>
        <time>2023-03-15T09:08:44.000Z</time>
      </trkpt>
      <trkpt lat="43.53144" lon="5.30699">
        <ele>241.01367</ele>
        <time>2023-03-15T09:08:46.000Z</time>
      </trkpt>
      <trkpt lat="43.53142" lon="5.307">
        <ele>241.06535</ele>
        <time>2023-03-15T09:08:48.000Z</time>
      </trkpt>
      <trkpt lat="43.5314" lon="5.30699">
        <ele>241.23145</ele>
        <time>2023-03-15T09:08:50.000Z</time>
      </trkpt>
      <trkpt lat="43.53138" lon="5.307">
        <ele>241.38667</ele>
        <time>2023-03-15T09:08:52.000Z</time>
      </trkpt>
      <trkpt lat="43.53135" lon="5.30701">
        <ele>241.56462</ele>
        <time>2023-03-15T09:08:54.000Z</time>
      </trkpt>
      <trkpt lat="43.53133" lon="5.307">
        <ele>241.71268</ele>
        <time>2023-03-15T09:08:56.000Z</time>
      </trkpt>
      <trkpt lat="43.53131" lon="5.307">
        <ele>241.82666</ele>
        <time>2023-03-15T09:08:58.000Z</time>
      </trkpt>
      <trkpt lat="43.53129" lon="5.30702">
        <ele>241.95564</ele>
        <time>2023-03-15T09:09:00.000Z</time>
      </trkpt>
      <trkpt lat="43.53127" lon="5.30703">
        <ele>242.09543</ele>
        <time>2023-03-15T09:09:02.000Z</time>
      </trkpt>
      <trkpt lat="43.53124" lon="5.30704">
        <ele>242.22757</ele>
        <time>2023-03-15T09:09:04.000Z</time>
      </trkpt>
      <trkpt lat="43.53122" lon="5.30704">
        <ele>242.34058</ele>
        <time>2023-03-15T09:09:06.000Z</time>
      </trkpt>
      <trkpt lat="43.5312" lon="5.30704">
        <ele>242.48486</ele>
        <time>2023-03-15T09:09:08.000Z</time>
      </trkpt>
      <trkpt lat="43.53119" lon="5.30705">
        <ele>242.58235</ele>
        <time>2023-03-15T09:09:10.000Z</time>
      </trkpt>
      <trkpt lat="43.53117" lon="5.30706">
        <ele>242.69717</ele>
        <time>2023-03-15T09:09:12.000Z</time>
      </trkpt>
      <trkpt lat="43.53115" lon="5.30707">
        <ele>242.74487</ele>
        <time>2023-03-15T09:09:14.000Z</time>
      </trkpt>
      <trkpt lat="43.53112" lon="5.30707">
        <ele>242.8544</ele>
        <time>2023-03-15T09:09:16.000Z</time>
      </trkpt>
      <trkpt lat="43.53109" lon="5.30706">
        <ele>242.99362</ele>
        <time>2023-03-15T09:09:18.000Z</time>
      </trkpt>
      <trkpt lat="43.53107" lon="5.30706">
        <ele>243.13339</ele>
        <time>2023-03-15T09:09:20.000Z</time>
      </trkpt>
      <trkpt lat="43.53105" lon="5.30706">
        <ele>243.26199</ele>
        <time>2023-03-15T09:09:22.000Z</time>
      </trkpt>
      <trkpt lat="43.53103" lon="5.30707">
        <ele>243.35352</ele>
        <time>2023-03-15T09:09:24.000Z</time>
      </trkpt>
      <trkpt lat="43.53101" lon="5.30707">
        <ele>243.39206</ele>
        <time>2023-03-15T09:09:26.000Z</time>
      </trkpt>
      <trkpt lat="43.53099" lon="5.30708">
        <ele>243.38779</ele>
        <time>2023-03-15T09:09:28.000Z</time>
      </trkpt>
      <trkpt lat="43.53097" lon="5.30708">
        <ele>243.29025</ele>
        <time>2023-03-15T09:09:30.000Z</time>
      </trkpt>
      <trkpt lat="43.53095" lon="5.30708">
        <ele>243.21941</ele>
        <time>2023-03-15T09:09:32.000Z</time>
      </trkpt>
      <trkpt lat="43.53093" lon="5.30709">
        <ele>243.09497</ele>
        <time>2023-03-15T09:09:34.000Z</time>
      </trkpt>
      <trkpt lat="43.53091" lon="5.30709">
        <ele>242.94162</ele>
        <time>2023-03-15T09:09:36.000Z</time>
      </trkpt>
      <trkpt lat="43.53089" lon="5.30709">
        <ele>242.79611</ele>
        <time>2023-03-15T09:09:38.000Z</time>
      </trkpt>
      <trkpt lat="43.53087" lon="5.30709">
        <ele>242.63484</ele>
        <time>2023-03-15T09:09:40.000Z</time>
      </trkpt>
      <trkpt lat="43.53085" lon="5.3071">
        <ele>242.45032</ele>
        <time>2023-03-15T09:09:42.000Z</time>
      </trkpt>
      <trkpt lat="43.53083" lon="5.3071">
        <ele>242.22107</ele>
        <time>2023-03-15T09:09:44.000Z</time>
      </trkpt>
      <trkpt lat="43.53081" lon="5.3071">
        <ele>241.94804</ele>
        <time>2023-03-15T09:09:46.000Z</time>
      </trkpt>
      <trkpt lat="43.53079" lon="5.3071">
        <ele>241.64095</ele>
        <time>2023-03-15T09:09:48.000Z</time>
      </trkpt>
      <trkpt lat="43.53076" lon="5.30711">
        <ele>241.36972</ele>
        <time>2023-03-15T09:09:50.000Z</time>
      </trkpt>
      <trkpt lat="43.53074" lon="5.30711">
        <ele>241.02979</ele>
        <time>2023-03-15T09:09:52.000Z</time>
      </trkpt>
      <trkpt lat="43.53072" lon="5.30712">
        <ele>240.72115</ele>
        <time>2023-03-15T09:09:54.000Z</time>
      </trkpt>
      <trkpt lat="43.5307" lon="5.30712">
        <ele>240.37236</ele>
        <time>2023-03-15T09:09:56.000Z</time>
      </trkpt>
      <trkpt lat="43.53068" lon="5.30712">
        <ele>239.95749</ele>
        <time>2023-03-15T09:09:58.000Z</time>
      </trkpt>
      <trkpt lat="43.53066" lon="5.30712">
        <ele>239.51624</ele>
        <time>2023-03-15T09:10:00.000Z</time>
      </trkpt>
      <trkpt lat="43.53064" lon="5.30713">
        <ele>239.13701</ele>
        <time>2023-03-15T09:10:02.000Z</time>
      </trkpt>
      <trkpt lat="43.53061" lon="5.30714">
        <ele>238.80252</ele>
        <time>2023-03-15T09:10:04.000Z</time>
      </trkpt>
      <trkpt lat="43.5306" lon="5.30716">
        <ele>238.44731</ele>
        <time>2023-03-15T09:10:06.000Z</time>
      </trkpt>
      <trkpt lat="43.53058" lon="5.30717">
        <ele>238.08264</ele>
        <time>2023-03-15T09:10:08.000Z</time>
      </trkpt>
      <trkpt lat="43.53055" lon="5.30719">
        <ele>237.68144</ele>
        <time>2023-03-15T09:10:10.000Z</time>
      </trkpt>
      <trkpt lat="43.53053" lon="5.3072">
        <ele>237.28052</ele>
        <time>2023-03-15T09:10:12.000Z</time>
      </trkpt>
      <trkpt lat="43.53052" lon="5.30721">
        <ele>236.88376</ele>
        <time>2023-03-15T09:10:14.000Z</time>
      </trkpt>
      <trkpt lat="43.5305" lon="5.30722">
        <ele>236.51401</ele>
        <time>2023-03-15T09:10:25.000Z</time>
      </trkpt>
      <trkpt lat="43.53048" lon="5.30722">
        <ele>236.24385</ele>
        <time>2023-03-15T09:10:39.000Z</time>
      </trkpt>
      <trkpt lat="43.53046" lon="5.30722">
        <ele>236.07109</ele>
        <time>2023-03-15T09:10:47.000Z</time>
      </trkpt>
      <trkpt lat="43.53045" lon="5.3072">
        <ele>235.89812</ele>
        <time>2023-03-15T09:10:50.000Z</time>
      </trkpt>
      <trkpt lat="43.53043" lon="5.30719">
        <ele>235.79102</ele>
        <time>2023-03-15T09:10:52.000Z</time>
      </trkpt>
      <trkpt lat="43.53041" lon="5.30721">
        <ele>235.65288</ele>
        <time>2023-03-15T09:10:55.000Z</time>
      </trkpt>
      <trkpt lat="43.5304" lon="5.30723">
        <ele>235.51875</ele>
        <time>2023-03-15T09:10:57.000Z</time>
      </trkpt>
      <trkpt lat="43.53039" lon="5.30725">
        <ele>235.32739</ele>
        <time>2023-03-15T09:10:59.000Z</time>
      </trkpt>
      <trkpt lat="43.53037" lon="5.30728">
        <ele>235.17065</ele>
        <time>2023-03-15T09:11:01.000Z</time>
      </trkpt>
      <trkpt lat="43.53036" lon="5.3073">
        <ele>235.02705</ele>
        <time>2023-03-15T09:11:03.000Z</time>
      </trkpt>
      <trkpt lat="43.53035" lon="5.30732">
        <ele>234.93503</ele>
        <time>2023-03-15T09:11:05.000Z</time>
      </trkpt>
      <trkpt lat="43.53033" lon="5.30735">
        <ele>234.84122</ele>
        <time>2023-03-15T09:11:07.000Z</time>
      </trkpt>
      <trkpt lat="43.53031" lon="5.30737">
        <ele>234.79858</ele>
        <time>2023-03-15T09:11:09.000Z</time>
      </trkpt>
      <trkpt lat="43.53029" lon="5.30739">
        <ele>234.76884</ele>
        <time>2023-03-15T09:11:11.000Z</time>
      </trkpt>
      <trkpt lat="43.53027" lon="5.3074">
        <ele>234.74094</ele>
        <time>2023-03-15T09:11:13.000Z</time>
      </trkpt>
      <trkpt lat="43.53026" lon="5.30742">
        <ele>234.75778</ele>
        <time>2023-03-15T09:11:15.000Z</time>
      </trkpt>
      <trkpt lat="43.53025" lon="5.30745">
        <ele>234.81255</ele>
        <time>2023-03-15T09:11:18.000Z</time>
      </trkpt>
      <trkpt lat="43.53023" lon="5.30747">
        <ele>234.89314</ele>
        <time>2023-03-15T09:11:20.000Z</time>
      </trkpt>
      <trkpt lat="43.53021" lon="5.30749">
        <ele>234.9969</ele>
        <time>2023-03-15T09:11:22.000Z</time>
      </trkpt>
      <trkpt lat="43.5302" lon="5.30752">
        <ele>235.0769</ele>
        <time>2023-03-15T09:11:24.000Z</time>
      </trkpt>
      <trkpt lat="43.53018" lon="5.30754">
        <ele>235.13789</ele>
        <time>2023-03-15T09:11:26.000Z</time>
      </trkpt>
      <trkpt lat="43.53017" lon="5.30757">
        <ele>235.08594</ele>
        <time>2023-03-15T09:11:28.000Z</time>
      </trkpt>
      <trkpt lat="43.53016" lon="5.30759">
        <ele>234.90463</ele>
        <time>2023-03-15T09:11:30.000Z</time>
      </trkpt>
      <trkpt lat="43.53014" lon="5.30761">
        <ele>234.77144</ele>
        <time>2023-03-15T09:11:32.000Z</time>
      </trkpt>
      <trkpt lat="43.53013" lon="5.30763">
        <ele>234.59561</ele>
        <time>2023-03-15T09:11:34.000Z</time>
      </trkpt>
      <trkpt lat="43.5301" lon="5.30765">
        <ele>234.45284</ele>
        <time>2023-03-15T09:11:36.000Z</time>
      </trkpt>
      <trkpt lat="43.53009" lon="5.30767">
        <ele>234.32988</ele>
        <time>2023-03-15T09:11:38.000Z</time>
      </trkpt>
      <trkpt lat="43.53007" lon="5.30769">
        <ele>234.2305</ele>
        <time>2023-03-15T09:11:40.000Z</time>
      </trkpt>
      <trkpt lat="43.53004" lon="5.30769">
        <ele>234.1543</ele>
        <time>2023-03-15T09:11:43.000Z</time>
      </trkpt>
      <trkpt lat="43.53002" lon="5.30769">
        <ele>234.10713</ele>
        <time>2023-03-15T09:11:45.000Z</time>
      </trkpt>
      <trkpt lat="43.53" lon="5.30771">
        <ele>234.06828</ele>
        <time>2023-03-15T09:11:48.000Z</time>
      </trkpt>
      <trkpt lat="43.52999" lon="5.30774">
        <ele>234.08647</ele>
        <time>2023-03-15T09:11:51.000Z</time>
      </trkpt>
      <trkpt lat="43.52999" lon="5.30777">
        <ele>234.06104</ele>
        <time>2023-03-15T09:11:53.000Z</time>
      </trkpt>
      <trkpt lat="43.53" lon="5.3078">
        <ele>233.99582</ele>
        <time>2023-03-15T09:11:55.000Z</time>
      </trkpt>
      <trkpt lat="43.53002" lon="5.3078">
        <ele>233.89189</ele>
        <time>2023-03-15T09:11:57.000Z</time>
      </trkpt>
      <trkpt lat="43.53005" lon="5.30781">
        <ele>233.7626</ele>
        <time>2023-03-15T09:12:00.000Z</time>
      </trkpt>
      <trkpt lat="43.53006" lon="5.30783">
        <ele>233.5842</ele>
        <time>2023-03-15T09:12:02.000Z</time>
      </trkpt>
      <trkpt lat="43.53007" lon="5.30786">
        <ele>233.46855</ele>
        <time>2023-03-15T09:12:04.000Z</time>
      </trkpt>
      <trkpt lat="43.53008" lon="5.30789">
        <ele>233.24362</ele>
        <time>2023-03-15T09:12:07.000Z</time>
      </trkpt>
      <trkpt lat="43.53008" lon="5.30792">
        <ele>233.07303</ele>
        <time>2023-03-15T09:12:09.000Z</time>
      </trkpt>
      <trkpt lat="43.53007" lon="5.30795">
        <ele>232.86972</ele>
        <time>2023-03-15T09:12:11.000Z</time>
      </trkpt>
      <trkpt lat="43.53007" lon="5.30798">
        <ele>232.65714</ele>
        <time>2023-03-15T09:12:13.000Z</time>
      </trkpt>
      <trkpt lat="43.53007" lon="5.30801">
        <ele>232.50601</ele>
        <time>2023-03-15T09:12:15.000Z</time>
      </trkpt>
      <trkpt lat="43.53008" lon="5.30804">
        <ele>232.30815</ele>
        <time>2023-03-15T09:12:17.000Z</time>
      </trkpt>
      <trkpt lat="43.5301" lon="5.30806">
        <ele>232.10947</ele>
        <time>2023-03-15T09:12:19.000Z</time>
      </trkpt>
      <trkpt lat="43.53011" lon="5.30808">
        <ele>231.9594</ele>
        <time>2023-03-15T09:12:21.000Z</time>
      </trkpt>
      <trkpt lat="43.53012" lon="5.30809">
        <ele>231.8597</ele>
        <time>2023-03-15T09:12:23.000Z</time>
      </trkpt>
      <trkpt lat="43.53014" lon="5.30812">
        <ele>231.81528</ele>
        <time>2023-03-15T09:12:25.000Z</time>
      </trkpt>
      <trkpt lat="43.53016" lon="5.30814">
        <ele>231.76875</ele>
        <time>2023-03-15T09:12:27.000Z</time>
      </trkpt>
      <trkpt lat="43.53018" lon="5.30817">
        <ele>231.7332</ele>
        <time>2023-03-15T09:12:29.000Z</time>
      </trkpt>
      <trkpt lat="43.5302" lon="5.30819">
        <ele>231.66536</ele>
        <time>2023-03-15T09:12:31.000Z</time>
      </trkpt>
      <trkpt lat="43.53022" lon="5.30821">
        <ele>231.52893</ele>
        <time>2023-03-15T09:12:33.000Z</time>
      </trkpt>
      <trkpt lat="43.53023" lon="5.30823">
        <ele>231.40276</ele>
        <time>2023-03-15T09:12:35.000Z</time>
      </trkpt>
      <trkpt lat="43.53025" lon="5.30825">
        <ele>231.3344</ele>
        <time>2023-03-15T09:12:37.000Z</time>
      </trkpt>
      <trkpt lat="43.53027" lon="5.30827">
        <ele>231.28703</ele>
        <time>2023-03-15T09:12:39.000Z</time>
      </trkpt>
      <trkpt lat="43.53028" lon="5.30829">
        <ele>231.26318</ele>
        <time>2023-03-15T09:12:41.000Z</time>
      </trkpt>
      <trkpt lat="43.5303" lon="5.30831">
        <ele>231.28731</ele>
        <time>2023-03-15T09:12:43.000Z</time>
      </trkpt>
      <trkpt lat="43.53032" lon="5.30831">
        <ele>231.27817</ele>
        <time>2023-03-15T09:12:45.000Z</time>
      </trkpt>
      <trkpt lat="43.53034" lon="5.30833">
        <ele>231.35425</ele>
        <time>2023-03-15T09:12:47.000Z</time>
      </trkpt>
      <trkpt lat="43.53036" lon="5.30835">
        <ele>231.41182</ele>
        <time>2023-03-15T09:12:49.000Z</time>
      </trkpt>
      <trkpt lat="43.53037" lon="5.30837">
        <ele>231.53426</ele>
        <time>2023-03-15T09:12:51.000Z</time>
      </trkpt>
      <trkpt lat="43.53038" lon="5.30839">
        <ele>231.75735</ele>
        <time>2023-03-15T09:12:53.000Z</time>
      </trkpt>
      <trkpt lat="43.5304" lon="5.30841">
        <ele>231.97763</ele>
        <time>2023-03-15T09:12:55.000Z</time>
      </trkpt>
      <trkpt lat="43.53041" lon="5.30844">
        <ele>232.24748</ele>
        <time>2023-03-15T09:12:57.000Z</time>
      </trkpt>
      <trkpt lat="43.53042" lon="5.30847">
        <ele>232.53487</ele>
        <time>2023-03-15T09:12:59.000Z</time>
      </trkpt>
      <trkpt lat="43.53044" lon="5.30849">
        <ele>232.76913</ele>
        <time>2023-03-15T09:13:01.000Z</time>
      </trkpt>
      <trkpt lat="43.53045" lon="5.30852">
        <ele>232.97856</ele>
        <time>2023-03-15T09:13:03.000Z</time>
      </trkpt>
      <trkpt lat="43.53047" lon="5.30854">
        <ele>233.15605</ele>
        <time>2023-03-15T09:13:05.000Z</time>
      </trkpt>
      <trkpt lat="43.53049" lon="5.30856">
        <ele>233.33133</ele>
        <time>2023-03-15T09:13:07.000Z</time>
      </trkpt>
      <trkpt lat="43.5305" lon="5.30859">
        <ele>233.50276</ele>
        <time>2023-03-15T09:13:09.000Z</time>
      </trkpt>
      <trkpt lat="43.5305" lon="5.30861">
        <ele>233.70731</ele>
        <time>2023-03-15T09:13:11.000Z</time>
      </trkpt>
      <trkpt lat="43.53051" lon="5.30864">
        <ele>234.00272</ele>
        <time>2023-03-15T09:13:13.000Z</time>
      </trkpt>
      <trkpt lat="43.53052" lon="5.30866">
        <ele>234.33611</ele>
        <time>2023-03-15T09:13:15.000Z</time>
      </trkpt>
      <trkpt lat="43.53053" lon="5.3087">
        <ele>234.58826</ele>
        <time>2023-03-15T09:13:18.000Z</time>
      </trkpt>
      <trkpt lat="43.53054" lon="5.30872">
        <ele>234.8344</ele>
        <time>2023-03-15T09:13:20.000Z</time>
      </trkpt>
      <trkpt lat="43.53055" lon="5.30875">
        <ele>235.11276</ele>
        <time>2023-03-15T09:13:22.000Z</time>
      </trkpt>
      <trkpt lat="43.53055" lon="5.30878">
        <ele>235.40422</ele>
        <time>2023-03-15T09:13:24.000Z</time>
      </trkpt>
      <trkpt lat="43.53056" lon="5.30881">
        <ele>235.66016</ele>
        <time>2023-03-15T09:13:26.000Z</time>
      </trkpt>
      <trkpt lat="43.53057" lon="5.30883">
        <ele>235.87224</ele>
        <time>2023-03-15T09:13:28.000Z</time>
      </trkpt>
      <trkpt lat="43.53057" lon="5.30886">
        <ele>236.06953</ele>
        <time>2023-03-15T09:13:31.000Z</time>
      </trkpt>
      <trkpt lat="43.53057" lon="5.30888">
        <ele>236.20671</ele>
        <time>2023-03-15T09:13:33.000Z</time>
      </trkpt>
      <trkpt lat="43.53057" lon="5.30891">
        <ele>236.30229</ele>
        <time>2023-03-15T09:13:35.000Z</time>
      </trkpt>
      <trkpt lat="43.53056" lon="5.30894">
        <ele>236.39493</ele>
        <time>2023-03-15T09:13:37.000Z</time>
      </trkpt>
      <trkpt lat="43.53057" lon="5.30897">
        <ele>236.47566</ele>
        <time>2023-03-15T09:13:39.000Z</time>
      </trkpt>
      <trkpt lat="43.53056" lon="5.309">
        <ele>236.56758</ele>
        <time>2023-03-15T09:13:42.000Z</time>
      </trkpt>
      <trkpt lat="43.53054" lon="5.30904">
        <ele>236.68599</ele>
        <time>2023-03-15T09:13:45.000Z</time>
      </trkpt>
      <trkpt lat="43.53053" lon="5.30907">
        <ele>236.79668</ele>
        <time>2023-03-15T09:13:47.000Z</time>
      </trkpt>
      <trkpt lat="43.53053" lon="5.30909">
        <ele>236.93282</ele>
        <time>2023-03-15T09:13:49.000Z</time>
      </trkpt>
      <trkpt lat="43.53052" lon="5.30913">
        <ele>237.03012</ele>
        <time>2023-03-15T09:13:52.000Z</time>
      </trkpt>
      <trkpt lat="43.53051" lon="5.30915">
        <ele>237.13301</ele>
        <time>2023-03-15T09:13:54.000Z</time>
      </trkpt>
      <trkpt lat="43.5305" lon="5.30918">
        <ele>237.18875</ele>
        <time>2023-03-15T09:13:56.000Z</time>
      </trkpt>
      <trkpt lat="43.53049" lon="5.3092">
        <ele>237.22163</ele>
        <time>2023-03-15T09:13:58.000Z</time>
      </trkpt>
      <trkpt lat="43.53048" lon="5.30923">
        <ele>237.22452</ele>
        <time>2023-03-15T09:14:00.000Z</time>
      </trkpt>
      <trkpt lat="43.53047" lon="5.30926">
        <ele>237.26094</ele>
        <time>2023-03-15T09:14:02.000Z</time>
      </trkpt>
      <trkpt lat="43.53046" lon="5.30928">
        <ele>237.34213</ele>
        <time>2023-03-15T09:14:05.000Z</time>
      </trkpt>
      <trkpt lat="43.53045" lon="5.30932">
        <ele>237.4644</ele>
        <time>2023-03-15T09:14:08.000Z</time>
      </trkpt>
      <trkpt lat="43.53044" lon="5.30935">
        <ele>237.58719</ele>
        <time>2023-03-15T09:14:10.000Z</time>
      </trkpt>
      <trkpt lat="43.53044" lon="5.30939">
        <ele>237.75974</ele>
        <time>2023-03-15T09:14:12.000Z</time>
      </trkpt>
      <trkpt lat="43.53042" lon="5.30942">
        <ele>238.01868</ele>
        <time>2023-03-15T09:14:14.000Z</time>
      </trkpt>
      <trkpt lat="43.53041" lon="5.30945">
        <ele>238.27756</ele>
        <time>2023-03-15T09:14:16.000Z</time>
      </trkpt>
      <trkpt lat="43.53041" lon="5.30947">
        <ele>238.54541</ele>
        <time>2023-03-15T09:14:18.000Z</time>
      </trkpt>
      <trkpt lat="43.53041" lon="5.3095">
        <ele>238.79483</ele>
        <time>2023-03-15T09:14:20.000Z</time>
      </trkpt>
      <trkpt lat="43.53042" lon="5.30953">
        <ele>238.93347</ele>
        <time>2023-03-15T09:14:23.000Z</time>
      </trkpt>
      <trkpt lat="43.53042" lon="5.30957">
        <ele>239.03633</ele>
        <time>2023-03-15T09:14:25.000Z</time>
      </trkpt>
      <trkpt lat="43.53042" lon="5.3096">
        <ele>239.12224</ele>
        <time>2023-03-15T09:14:27.000Z</time>
      </trkpt>
      <trkpt lat="43.53041" lon="5.30962">
        <ele>239.18845</ele>
        <time>2023-03-15T09:14:29.000Z</time>
      </trkpt>
      <trkpt lat="43.53041" lon="5.30965">
        <ele>239.28755</ele>
        <time>2023-03-15T09:14:32.000Z</time>
      </trkpt>
      <trkpt lat="43.53041" lon="5.30968">
        <ele>239.3499</ele>
        <time>2023-03-15T09:14:34.000Z</time>
      </trkpt>
      <trkpt lat="43.53042" lon="5.30971">
        <ele>239.4272</ele>
        <time>2023-03-15T09:14:36.000Z</time>
      </trkpt>
      <trkpt lat="43.53042" lon="5.30975">
        <ele>239.4978</ele>
        <time>2023-03-15T09:14:38.000Z</time>
      </trkpt>
      <trkpt lat="43.53042" lon="5.30977">
        <ele>239.57004</ele>
        <time>2023-03-15T09:14:40.000Z</time>
      </trkpt>
      <trkpt lat="43.53043" lon="5.3098">
        <ele>239.60034</ele>
        <time>2023-03-15T09:14:43.000Z</time>
      </trkpt>
      <trkpt lat="43.53043" lon="5.30984">
        <ele>239.66853</ele>
        <time>2023-03-15T09:14:45.000Z</time>
      </trkpt>
      <trkpt lat="43.53044" lon="5.30987">
        <ele>239.78914</ele>
        <time>2023-03-15T09:14:47.000Z</time>
      </trkpt>
      <trkpt lat="43.53046" lon="5.30989">
        <ele>239.82991</ele>
        <time>2023-03-15T09:14:49.000Z</time>
      </trkpt>
      <trkpt lat="43.53048" lon="5.3099">
        <ele>239.84004</ele>
        <time>2023-03-15T09:14:52.000Z</time>
      </trkpt>
      <trkpt lat="43.5305" lon="5.3099">
        <ele>239.87114</ele>
        <time>2023-03-15T09:14:54.000Z</time>
      </trkpt>
      <trkpt lat="43.53052" lon="5.30989">
        <ele>239.87134</ele>
        <time>2023-03-15T09:14:58.000Z</time>
      </trkpt>
      <trkpt lat="43.53054" lon="5.30988">
        <ele>239.85742</ele>
        <time>2023-03-15T09:15:00.000Z</time>
      </trkpt>
      <trkpt lat="43.53056" lon="5.30987">
        <ele>239.91768</ele>
        <time>2023-03-15T09:15:03.000Z</time>
      </trkpt>
      <trkpt lat="43.53058" lon="5.30985">
        <ele>239.99629</ele>
        <time>2023-03-15T09:15:06.000Z</time>
      </trkpt>
      <trkpt lat="43.5306" lon="5.30984">
        <ele>240.13387</ele>
        <time>2023-03-15T09:15:09.000Z</time>
      </trkpt>
      <trkpt lat="43.53062" lon="5.30982">
        <ele>240.35152</ele>
        <time>2023-03-15T09:15:11.000Z</time>
      </trkpt>
      <trkpt lat="43.53063" lon="5.3098">
        <ele>240.62729</ele>
        <time>2023-03-15T09:15:13.000Z</time>
      </trkpt>
      <trkpt lat="43.53065" lon="5.30978">
        <ele>240.94775</ele>
        <time>2023-03-15T09:15:16.000Z</time>
      </trkpt>
      <trkpt lat="43.53065" lon="5.30975">
        <ele>241.32895</ele>
        <time>2023-03-15T09:15:19.000Z</time>
      </trkpt>
      <trkpt lat="43.53065" lon="5.30971">
        <ele>241.68362</ele>
        <time>2023-03-15T09:15:22.000Z</time>
      </trkpt>
      <trkpt lat="43.53066" lon="5.30968">
        <ele>242.10039</ele>
        <time>2023-03-15T09:15:24.000Z</time>
      </trkpt>
      <trkpt lat="43.53066" lon="5.30966">
        <ele>242.45419</ele>
        <time>2023-03-15T09:15:26.000Z</time>
      </trkpt>
      <trkpt lat="43.53066" lon="5.30963">
        <ele>242.75175</ele>
        <time>2023-03-15T09:15:28.000Z</time>
      </trkpt>
      <trkpt lat="43.53067" lon="5.3096">
        <ele>243.05576</ele>
        <time>2023-03-15T09:15:31.000Z</time>
      </trkpt>
      <trkpt lat="43.53067" lon="5.30957">
        <ele>243.37988</ele>
        <time>2023-03-15T09:15:34.000Z</time>
      </trkpt>
      <trkpt lat="43.53067" lon="5.30954">
        <ele>243.71805</ele>
        <time>2023-03-15T09:15:37.000Z</time>
      </trkpt>
      <trkpt lat="43.53069" lon="5.30956">
        <ele>243.92021</ele>
        <time>2023-03-15T09:15:46.000Z</time>
      </trkpt>
      <trkpt lat="43.53071" lon="5.30958">
        <ele>244.19299</ele>
        <time>2023-03-15T09:15:48.000Z</time>
      </trkpt>
      <trkpt lat="43.53072" lon="5.3096">
        <ele>244.4343</ele>
        <time>2023-03-15T09:15:51.000Z</time>
      </trkpt>
      <trkpt lat="43.53074" lon="5.30962">
        <ele>244.67192</ele>
        <time>2023-03-15T09:15:54.000Z</time>
      </trkpt>
      <trkpt lat="43.53076" lon="5.30964">
        <ele>244.90649</ele>
        <time>2023-03-15T09:15:57.000Z</time>
      </trkpt>
      <trkpt lat="43.53077" lon="5.30967">
        <ele>245.11508</ele>
        <time>2023-03-15T09:15:59.000Z</time>
      </trkpt>
      <trkpt lat="43.53078" lon="5.30969">
        <ele>245.27432</ele>
        <time>2023-03-15T09:16:01.000Z</time>
      </trkpt>
      <trkpt lat="43.5308" lon="5.30971">
        <ele>245.4841</ele>
        <time>2023-03-15T09:16:04.000Z</time>
      </trkpt>
      <trkpt lat="43.53081" lon="5.30973">
        <ele>245.65747</ele>
        <time>2023-03-15T09:16:06.000Z</time>
      </trkpt>
      <trkpt lat="43.53083" lon="5.30975">
        <ele>245.84038</ele>
        <time>2023-03-15T09:16:09.000Z</time>
      </trkpt>
      <trkpt lat="43.53085" lon="5.30978">
        <ele>245.98596</ele>
        <time>2023-03-15T09:16:12.000Z</time>
      </trkpt>
      <trkpt lat="43.53086" lon="5.3098">
        <ele>246.09993</ele>
        <time>2023-03-15T09:16:14.000Z</time>
      </trkpt>
      <trkpt lat="43.53087" lon="5.30982">
        <ele>246.17781</ele>
        <time>2023-03-15T09:16:17.000Z</time>
      </trkpt>
      <trkpt lat="43.53088" lon="5.30986">
        <ele>246.21375</ele>
        <time>2023-03-15T09:16:20.000Z</time>
      </trkpt>
      <trkpt lat="43.53089" lon="5.30989">
        <ele>246.15369</ele>
        <time>2023-03-15T09:16:22.000Z</time>
      </trkpt>
      <trkpt lat="43.5309" lon="5.30991">
        <ele>246.15823</ele>
        <time>2023-03-15T09:16:25.000Z</time>
      </trkpt>
      <trkpt lat="43.53091" lon="5.30994">
        <ele>246.18391</ele>
        <time>2023-03-15T09:16:27.000Z</time>
      </trkpt>
      <trkpt lat="43.53092" lon="5.30997">
        <ele>246.24094</ele>
        <time>2023-03-15T09:16:29.000Z</time>
      </trkpt>
      <trkpt lat="43.53093" lon="5.30999">
        <ele>246.36455</ele>
        <time>2023-03-15T09:16:31.000Z</time>
      </trkpt>
      <trkpt lat="43.53094" lon="5.31001">
        <ele>246.50644</ele>
        <time>2023-03-15T09:16:33.000Z</time>
      </trkpt>
      <trkpt lat="43.53096" lon="5.31004">
        <ele>246.72388</ele>
        <time>2023-03-15T09:16:35.000Z</time>
      </trkpt>
      <trkpt lat="43.53097" lon="5.31006">
        <ele>246.90215</ele>
        <time>2023-03-15T09:16:37.000Z</time>
      </trkpt>
      <trkpt lat="43.53099" lon="5.31008">
        <ele>247.03784</ele>
        <time>2023-03-15T09:16:40.000Z</time>
      </trkpt>
      <trkpt lat="43.531" lon="5.31011">
        <ele>247.09392</ele>
        <time>2023-03-15T09:16:42.000Z</time>
      </trkpt>
      <trkpt lat="43.53101" lon="5.31014">
        <ele>247.15942</ele>
        <time>2023-03-15T09:16:44.000Z</time>
      </trkpt>
      <trkpt lat="43.53103" lon="5.31016">
        <ele>247.24011</ele>
        <time>2023-03-15T09:16:46.000Z</time>
      </trkpt>
      <trkpt lat="43.53105" lon="5.31017">
        <ele>247.34311</ele>
        <time>2023-03-15T09:16:48.000Z</time>
      </trkpt>
      <trkpt lat="43.53106" lon="5.3102">
        <ele>247.45541</ele>
        <time>2023-03-15T09:16:50.000Z</time>
      </trkpt>
      <trkpt lat="43.53108" lon="5.31022">
        <ele>247.59506</ele>
        <time>2023-03-15T09:16:52.000Z</time>
      </trkpt>
      <trkpt lat="43.53109" lon="5.31023">
        <ele>247.74362</ele>
        <time>2023-03-15T09:16:54.000Z</time>
      </trkpt>
      <trkpt lat="43.53111" lon="5.31025">
        <ele>247.94534</ele>
        <time>2023-03-15T09:16:56.000Z</time>
      </trkpt>
      <trkpt lat="43.53113" lon="5.31026">
        <ele>248.1658</ele>
        <time>2023-03-15T09:16:58.000Z</time>
      </trkpt>
      <trkpt lat="43.53115" lon="5.31027">
        <ele>248.40439</ele>
        <time>2023-03-15T09:17:00.000Z</time>
      </trkpt>
      <trkpt lat="43.53117" lon="5.31028">
        <ele>248.68169</ele>
        <time>2023-03-15T09:17:02.000Z</time>
      </trkpt>
      <trkpt lat="43.53119" lon="5.31029">
        <ele>249.01111</ele>
        <time>2023-03-15T09:17:04.000Z</time>
      </trkpt>
      <trkpt lat="43.53121" lon="5.3103">
        <ele>249.36411</ele>
        <time>2023-03-15T09:17:06.000Z</time>
      </trkpt>
      <trkpt lat="43.53123" lon="5.31031">
        <ele>249.74612</ele>
        <time>2023-03-15T09:17:08.000Z</time>
      </trkpt>
      <trkpt lat="43.53126" lon="5.31031">
        <ele>250.03906</ele>
        <time>2023-03-15T09:17:10.000Z</time>
      </trkpt>
      <trkpt lat="43.53128" lon="5.31032">
        <ele>250.32661</ele>
        <time>2023-03-15T09:17:12.000Z</time>
      </trkpt>
      <trkpt lat="43.5313" lon="5.31034">
        <ele>250.56844</ele>
        <time>2023-03-15T09:17:14.000Z</time>
      </trkpt>
      <trkpt lat="43.53132" lon="5.31034">
        <ele>250.76717</ele>
        <time>2023-03-15T09:17:16.000Z</time>
      </trkpt>
      <trkpt lat="43.53135" lon="5.31035">
        <ele>250.91853</ele>
        <time>2023-03-15T09:17:18.000Z</time>
      </trkpt>
      <trkpt lat="43.53137" lon="5.31036">
        <ele>251.07047</ele>
        <time>2023-03-15T09:17:20.000Z</time>
      </trkpt>
      <trkpt lat="43.53139" lon="5.31037">
        <ele>251.24931</ele>
        <time>2023-03-15T09:17:22.000Z</time>
      </trkpt>
      <trkpt lat="43.53141" lon="5.31038">
        <ele>251.42656</ele>
        <time>2023-03-15T09:17:24.000Z</time>
      </trkpt>
      <trkpt lat="43.53143" lon="5.3104">
        <ele>251.62878</ele>
        <time>2023-03-15T09:17:26.000Z</time>
      </trkpt>
      <trkpt lat="43.53145" lon="5.31042">
        <ele>251.79594</ele>
        <time>2023-03-15T09:17:29.000Z</time>
      </trkpt>
      <trkpt lat="43.53147" lon="5.31043">
        <ele>251.9364</ele>
        <time>2023-03-15T09:17:31.000Z</time>
      </trkpt>
      <trkpt lat="43.5315" lon="5.31044">
        <ele>252.028</ele>
        <time>2023-03-15T09:17:33.000Z</time>
      </trkpt>
      <trkpt lat="43.53152" lon="5.31046">
        <ele>252.13618</ele>
        <time>2023-03-15T09:17:35.000Z</time>
      </trkpt>
      <trkpt lat="43.53154" lon="5.31047">
        <ele>252.22087</ele>
        <time>2023-03-15T09:17:37.000Z</time>
      </trkpt>
      <trkpt lat="43.53156" lon="5.31049">
        <ele>252.28609</ele>
        <time>2023-03-15T09:17:39.000Z</time>
      </trkpt>
      <trkpt lat="43.53158" lon="5.31051">
        <ele>252.35588</ele>
        <time>2023-03-15T09:17:41.000Z</time>
      </trkpt>
      <trkpt lat="43.5316" lon="5.31052">
        <ele>252.45369</ele>
        <time>2023-03-15T09:17:43.000Z</time>
      </trkpt>
      <trkpt lat="43.53163" lon="5.31053">
        <ele>252.59036</ele>
        <time>2023-03-15T09:17:45.000Z</time>
      </trkpt>
      <trkpt lat="43.53165" lon="5.31056">
        <ele>252.72769</ele>
        <time>2023-03-15T09:17:47.000Z</time>
      </trkpt>
      <trkpt lat="43.53167" lon="5.31058">
        <ele>252.85904</ele>
        <time>2023-03-15T09:17:49.000Z</time>
      </trkpt>
      <trkpt lat="43.53169" lon="5.3106">
        <ele>253.05396</ele>
        <time>2023-03-15T09:17:51.000Z</time>
      </trkpt>
      <trkpt lat="43.53172" lon="5.31061">
        <ele>253.1969</ele>
        <time>2023-03-15T09:17:53.000Z</time>
      </trkpt>
      <trkpt lat="43.53174" lon="5.31063">
        <ele>253.33139</ele>
        <time>2023-03-15T09:17:55.000Z</time>
      </trkpt>
      <trkpt lat="43.53176" lon="5.31064">
        <ele>253.48059</ele>
        <time>2023-03-15T09:17:57.000Z</time>
      </trkpt>
      <trkpt lat="43.53178" lon="5.31064">
        <ele>253.66765</ele>
        <time>2023-03-15T09:17:59.000Z</time>
      </trkpt>
      <trkpt lat="43.5318" lon="5.31065">
        <ele>253.87173</ele>
        <time>2023-03-15T09:18:01.000Z</time>
      </trkpt>
      <trkpt lat="43.53183" lon="5.31067">
        <ele>254.09541</ele>
        <time>2023-03-15T09:18:03.000Z</time>
      </trkpt>
      <trkpt lat="43.53185" lon="5.31069">
        <ele>254.29782</ele>
        <time>2023-03-15T09:18:05.000Z</time>
      </trkpt>
      <trkpt lat="43.53187" lon="5.3107">
        <ele>254.47803</ele>
        <time>2023-03-15T09:18:07.000Z</time>
      </trkpt>
      <trkpt lat="43.5319" lon="5.31072">
        <ele>254.65593</ele>
        <time>2023-03-15T09:18:09.000Z</time>
      </trkpt>
      <trkpt lat="43.53191" lon="5.31074">
        <ele>254.80908</ele>
        <time>2023-03-15T09:18:11.000Z</time>
      </trkpt>
      <trkpt lat="43.53194" lon="5.31075">
        <ele>254.94705</ele>
        <time>2023-03-15T09:18:14.000Z</time>
      </trkpt>
      <trkpt lat="43.53196" lon="5.31076">
        <ele>255.08633</ele>
        <time>2023-03-15T09:18:16.000Z</time>
      </trkpt>
      <trkpt lat="43.53198" lon="5.31078">
        <ele>255.17685</ele>
        <time>2023-03-15T09:18:18.000Z</time>
      </trkpt>
      <trkpt lat="43.53201" lon="5.31079">
        <ele>255.25481</ele>
        <time>2023-03-15T09:18:20.000Z</time>
      </trkpt>
      <trkpt lat="43.53203" lon="5.31079">
        <ele>255.35977</ele>
        <time>2023-03-15T09:18:22.000Z</time>
      </trkpt>
      <trkpt lat="43.53206" lon="5.31081">
        <ele>255.41147</ele>
        <time>2023-03-15T09:18:24.000Z</time>
      </trkpt>
      <trkpt lat="43.53208" lon="5.31082">
        <ele>255.43921</ele>
        <time>2023-03-15T09:18:26.000Z</time>
      </trkpt>
      <trkpt lat="43.53211" lon="5.31083">
        <ele>255.45438</ele>
        <time>2023-03-15T09:18:28.000Z</time>
      </trkpt>
      <trkpt lat="43.53214" lon="5.31086">
        <ele>255.5031</ele>
        <time>2023-03-15T09:18:30.000Z</time>
      </trkpt>
      <trkpt lat="43.53216" lon="5.31087">
        <ele>255.54895</ele>
        <time>2023-03-15T09:18:32.000Z</time>
      </trkpt>
      <trkpt lat="43.53219" lon="5.31088">
        <ele>255.54301</ele>
        <time>2023-03-15T09:18:34.000Z</time>
      </trkpt>
      <trkpt lat="43.53221" lon="5.31091">
        <ele>255.57336</ele>
        <time>2023-03-15T09:18:36.000Z</time>
      </trkpt>
      <trkpt lat="43.53222" lon="5.31094">
        <ele>255.63496</ele>
        <time>2023-03-15T09:18:38.000Z</time>
      </trkpt>
      <trkpt lat="43.53223" lon="5.31096">
        <ele>255.67</ele>
        <time>2023-03-15T09:18:40.000Z</time>
      </trkpt>
      <trkpt lat="43.53225" lon="5.31098">
        <ele>255.75073</ele>
        <time>2023-03-15T09:18:42.000Z</time>
      </trkpt>
      <trkpt lat="43.53226" lon="5.31101">
        <ele>255.90796</ele>
        <time>2023-03-15T09:18:44.000Z</time>
      </trkpt>
      <trkpt lat="43.53227" lon="5.31104">
        <ele>256.12274</ele>
        <time>2023-03-15T09:18:46.000Z</time>
      </trkpt>
      <trkpt lat="43.53228" lon="5.31107">
        <ele>256.35123</ele>
        <time>2023-03-15T09:18:48.000Z</time>
      </trkpt>
      <trkpt lat="43.5323" lon="5.31109">
        <ele>256.60156</ele>
        <time>2023-03-15T09:18:50.000Z</time>
      </trkpt>
      <trkpt lat="43.53233" lon="5.3111">
        <ele>256.8327</ele>
        <time>2023-03-15T09:18:52.000Z</time>
      </trkpt>
      <trkpt lat="43.53236" lon="5.31111">
        <ele>257.10144</ele>
        <time>2023-03-15T09:18:54.000Z</time>
      </trkpt>
      <trkpt lat="43.53239" lon="5.31111">
        <ele>257.39752</ele>
        <time>2023-03-15T09:18:56.000Z</time>
      </trkpt>
      <trkpt lat="43.53242" lon="5.31112">
        <ele>257.72095</ele>
        <time>2023-03-15T09:18:58.000Z</time>
      </trkpt>
      <trkpt lat="43.53245" lon="5.31112">
        <ele>258.03351</ele>
        <time>2023-03-15T09:19:00.000Z</time>
      </trkpt>
      <trkpt lat="43.53247" lon="5.31112">
        <ele>258.31</ele>
        <time>2023-03-15T09:19:02.000Z</time>
      </trkpt>
      <trkpt lat="43.53249" lon="5.31111">
        <ele>258.54514</ele>
        <time>2023-03-15T09:19:04.000Z</time>
      </trkpt>
      <trkpt lat="43.53251" lon="5.31112">
        <ele>258.71356</ele>
        <time>2023-03-15T09:19:06.000Z</time>
      </trkpt>
      <trkpt lat="43.53253" lon="5.31113">
        <ele>258.94925</ele>
        <time>2023-03-15T09:19:08.000Z</time>
      </trkpt>
      <trkpt lat="43.53255" lon="5.31115">
        <ele>259.16162</ele>
        <time>2023-03-15T09:19:10.000Z</time>
      </trkpt>
      <trkpt lat="43.53257" lon="5.31117">
        <ele>259.38193</ele>
        <time>2023-03-15T09:19:12.000Z</time>
      </trkpt>
      <trkpt lat="43.5326" lon="5.31119">
        <ele>259.66153</ele>
        <time>2023-03-15T09:19:14.000Z</time>
      </trkpt>
      <trkpt lat="43.53262" lon="5.31121">
        <ele>259.93692</ele>
        <time>2023-03-15T09:19:16.000Z</time>
      </trkpt>
      <trkpt lat="43.53265" lon="5.31122">
        <ele>260.21661</ele>
        <time>2023-03-15T09:19:18.000Z</time>
      </trkpt>
      <trkpt lat="43.53267" lon="5.31123">
        <ele>260.53247</ele>
        <time>2023-03-15T09:19:20.000Z</time>
      </trkpt>
      <trkpt lat="43.53269" lon="5.31124">
        <ele>260.71533</ele>
        <time>2023-03-15T09:19:22.000Z</time>
      </trkpt>
      <trkpt lat="43.53271" lon="5.31125">
        <ele>260.84009</ele>
        <time>2023-03-15T09:19:24.000Z</time>
      </trkpt>
      <trkpt lat="43.53273" lon="5.31126">
        <ele>260.99091</ele>
        <time>2023-03-15T09:19:26.000Z</time>
      </trkpt>
      <trkpt lat="43.53276" lon="5.31127">
        <ele>261.06506</ele>
        <time>2023-03-15T09:19:28.000Z</time>
      </trkpt>
      <trkpt lat="43.53279" lon="5.31128">
        <ele>261.14291</ele>
        <time>2023-03-15T09:19:30.000Z</time>
      </trkpt>
      <trkpt lat="43.53281" lon="5.31129">
        <ele>261.23868</ele>
        <time>2023-03-15T09:19:32.000Z</time>
      </trkpt>
      <trkpt lat="43.53283" lon="5.3113">
        <ele>261.31552</ele>
        <time>2023-03-15T09:19:34.000Z</time>
      </trkpt>
      <trkpt lat="43.53286" lon="5.31131">
        <ele>261.33792</ele>
        <time>2023-03-15T09:19:36.000Z</time>
      </trkpt>
      <trkpt lat="43.53288" lon="5.31131">
        <ele>261.32657</ele>
        <time>2023-03-15T09:19:38.000Z</time>
      </trkpt>
      <trkpt lat="43.5329" lon="5.31132">
        <ele>261.34906</ele>
        <time>2023-03-15T09:19:40.000Z</time>
      </trkpt>
      <trkpt lat="43.53293" lon="5.31132">
        <ele>261.39551</ele>
        <time>2023-03-15T09:19:42.000Z</time>
      </trkpt>
      <trkpt lat="43.53295" lon="5.31132">
        <ele>261.52972</ele>
        <time>2023-03-15T09:19:44.000Z</time>
      </trkpt>
      <trkpt lat="43.53298" lon="5.31133">
        <ele>261.79288</ele>
        <time>2023-03-15T09:19:46.000Z</time>
      </trkpt>
      <trkpt lat="43.53301" lon="5.31133">
        <ele>261.99207</ele>
        <time>2023-03-15T09:19:48.000Z</time>
      </trkpt>
      <trkpt lat="43.53305" lon="5.31133">
        <ele>262.16742</ele>
        <time>2023-03-15T09:19:50.000Z</time>
      </trkpt>
      <trkpt lat="43.53307" lon="5.31133">
        <ele>262.35309</ele>
        <time>2023-03-15T09:19:52.000Z</time>
      </trkpt>
      <trkpt lat="43.5331" lon="5.31133">
        <ele>262.54062</ele>
        <time>2023-03-15T09:19:54.000Z</time>
      </trkpt>
      <trkpt lat="43.53313" lon="5.31133">
        <ele>262.75073</ele>
        <time>2023-03-15T09:19:56.000Z</time>
      </trkpt>
      <trkpt lat="43.53315" lon="5.31132">
        <ele>262.95123</ele>
        <time>2023-03-15T09:19:58.000Z</time>
      </trkpt>
      <trkpt lat="43.53318" lon="5.3113">
        <ele>263.09048</ele>
        <time>2023-03-15T09:20:00.000Z</time>
      </trkpt>
      <trkpt lat="43.5332" lon="5.31128">
        <ele>263.31418</ele>
        <time>2023-03-15T09:20:02.000Z</time>
      </trkpt>
      <trkpt lat="43.53323" lon="5.31127">
        <ele>263.5368</ele>
        <time>2023-03-15T09:20:04.000Z</time>
      </trkpt>
      <trkpt lat="43.53325" lon="5.31126">
        <ele>263.70261</ele>
        <time>2023-03-15T09:20:06.000Z</time>
      </trkpt>
      <trkpt lat="43.53328" lon="5.31126">
        <ele>263.9234</ele>
        <time>2023-03-15T09:20:08.000Z</time>
      </trkpt>
      <trkpt lat="43.5333" lon="5.31125">
        <ele>264.13126</ele>
        <time>2023-03-15T09:20:10.000Z</time>
      </trkpt>
      <trkpt lat="43.53333" lon="5.31124">
        <ele>264.32104</ele>
        <time>2023-03-15T09:20:12.000Z</time>
      </trkpt>
      <trkpt lat="43.53335" lon="5.31123">
        <ele>264.46906</ele>
        <time>2023-03-15T09:20:14.000Z</time>
      </trkpt>
      <trkpt lat="43.53336" lon="5.31122">
        <ele>264.60468</ele>
        <time>2023-03-15T09:20:16.000Z</time>
      </trkpt>
      <trkpt lat="43.53339" lon="5.31122">
        <ele>264.73892</ele>
        <time>2023-03-15T09:20:18.000Z</time>
      </trkpt>
      <trkpt lat="43.53341" lon="5.3112">
        <ele>264.87054</ele>
        <time>2023-03-15T09:20:20.000Z</time>
      </trkpt>
      <trkpt lat="43.53343" lon="5.31119">
        <ele>265.00604</ele>
        <time>2023-03-15T09:20:22.000Z</time>
      </trkpt>
      <trkpt lat="43.53346" lon="5.31118">
        <ele>265.13721</ele>
        <time>2023-03-15T09:20:24.000Z</time>
      </trkpt>
      <trkpt lat="43.53349" lon="5.31117">
        <ele>265.20355</ele>
        <time>2023-03-15T09:20:26.000Z</time>
      </trkpt>
      <trkpt lat="43.53351" lon="5.31116">
        <ele>265.26657</ele>
        <time>2023-03-15T09:20:28.000Z</time>
      </trkpt>
      <trkpt lat="43.53354" lon="5.31116">
        <ele>265.28815</ele>
        <time>2023-03-15T09:20:30.000Z</time>
      </trkpt>
      <trkpt lat="43.53357" lon="5.31114">
        <ele>265.29941</ele>
        <time>2023-03-15T09:20:32.000Z</time>
      </trkpt>
      <trkpt lat="43.5336" lon="5.31113">
        <ele>265.28143</ele>
        <time>2023-03-15T09:20:34.000Z</time>
      </trkpt>
      <trkpt lat="43.53363" lon="5.31113">
        <ele>265.24094</ele>
        <time>2023-03-15T09:20:36.000Z</time>
      </trkpt>
      <trkpt lat="43.53365" lon="5.31112">
        <ele>265.22028</ele>
        <time>2023-03-15T09:20:38.000Z</time>
      </trkpt>
      <trkpt lat="43.53368" lon="5.3111">
        <ele>265.25946</ele>
        <time>2023-03-15T09:20:40.000Z</time>
      </trkpt>
      <trkpt lat="43.5337" lon="5.31109">
        <ele>265.23819</ele>
        <time>2023-03-15T09:20:42.000Z</time>
      </trkpt>
      <trkpt lat="43.53373" lon="5.31108">
        <ele>265.1936</ele>
        <time>2023-03-15T09:20:44.000Z</time>
      </trkpt>
      <trkpt lat="43.53375" lon="5.31107">
        <ele>265.20486</ele>
        <time>2023-03-15T09:20:46.000Z</time>
      </trkpt>
      <trkpt lat="43.53378" lon="5.31107">
        <ele>265.20178</ele>
        <time>2023-03-15T09:20:48.000Z</time>
      </trkpt>
      <trkpt lat="43.53381" lon="5.31106">
        <ele>265.24179</ele>
        <time>2023-03-15T09:20:50.000Z</time>
      </trkpt>
      <trkpt lat="43.53383" lon="5.31105">
        <ele>265.23773</ele>
        <time>2023-03-15T09:20:52.000Z</time>
      </trkpt>
      <trkpt lat="43.53385" lon="5.31103">
        <ele>265.2774</ele>
        <time>2023-03-15T09:20:54.000Z</time>
      </trkpt>
      <trkpt lat="43.53388" lon="5.31103">
        <ele>265.39584</ele>
        <time>2023-03-15T09:20:56.000Z</time>
      </trkpt>
      <trkpt lat="43.5339" lon="5.31103">
        <ele>265.53375</ele>
        <time>2023-03-15T09:20:58.000Z</time>
      </trkpt>
      <trkpt lat="43.53393" lon="5.31101">
        <ele>265.62457</ele>
        <time>2023-03-15T09:21:00.000Z</time>
      </trkpt>
      <trkpt lat="43.53395" lon="5.311">
        <ele>265.64151</ele>
        <time>2023-03-15T09:21:02.000Z</time>
      </trkpt>
      <trkpt lat="43.53397" lon="5.31098">
        <ele>265.66031</ele>
        <time>2023-03-15T09:21:04.000Z</time>
      </trkpt>
      <trkpt lat="43.53399" lon="5.31097">
        <ele>265.69763</ele>
        <time>2023-03-15T09:21:06.000Z</time>
      </trkpt>
      <trkpt lat="43.53401" lon="5.31096">
        <ele>265.7634</ele>
        <time>2023-03-15T09:21:08.000Z</time>
      </trkpt>
      <trkpt lat="43.53404" lon="5.31095">
        <ele>265.82477</ele>
        <time>2023-03-15T09:21:10.000Z</time>
      </trkpt>
      <trkpt lat="43.53407" lon="5.31094">
        <ele>265.88525</ele>
        <time>2023-03-15T09:21:12.000Z</time>
      </trkpt>
      <trkpt lat="43.5341" lon="5.31093">
        <ele>265.96442</ele>
        <time>2023-03-15T09:21:14.000Z</time>
      </trkpt>
      <trkpt lat="43.53412" lon="5.31091">
        <ele>265.98209</ele>
        <time>2023-03-15T09:21:16.000Z</time>
      </trkpt>
      <trkpt lat="43.53415" lon="5.3109">
        <ele>266.04303</ele>
        <time>2023-03-15T09:21:18.000Z</time>
      </trkpt>
      <trkpt lat="43.53416" lon="5.31088">
        <ele>266.10641</ele>
        <time>2023-03-15T09:21:20.000Z</time>
      </trkpt>
      <trkpt lat="43.53419" lon="5.31087">
        <ele>266.33502</ele>
        <time>2023-03-15T09:21:22.000Z</time>
      </trkpt>
      <trkpt lat="43.53421" lon="5.31085">
        <ele>266.57062</ele>
        <time>2023-03-15T09:21:24.000Z</time>
      </trkpt>
      <trkpt lat="43.53424" lon="5.31084">
        <ele>266.75937</ele>
        <time>2023-03-15T09:21:26.000Z</time>
      </trkpt>
      <trkpt lat="43.53425" lon="5.31082">
        <ele>266.95566</ele>
        <time>2023-03-15T09:21:28.000Z</time>
      </trkpt>
      <trkpt lat="43.53428" lon="5.31082">
        <ele>267.07697</ele>
        <time>2023-03-15T09:21:31.000Z</time>
      </trkpt>
      <trkpt lat="43.5343" lon="5.31081">
        <ele>267.24518</ele>
        <time>2023-03-15T09:21:33.000Z</time>
      </trkpt>
      <trkpt lat="43.53432" lon="5.3108">
        <ele>267.39816</ele>
        <time>2023-03-15T09:21:35.000Z</time>
      </trkpt>
      <trkpt lat="43.53433" lon="5.31079">
        <ele>267.57333</ele>
        <time>2023-03-15T09:21:37.000Z</time>
      </trkpt>
      <trkpt lat="43.53435" lon="5.31079">
        <ele>267.75006</ele>
        <time>2023-03-15T09:21:39.000Z</time>
      </trkpt>
      <trkpt lat="43.53437" lon="5.31078">
        <ele>267.98627</ele>
        <time>2023-03-15T09:21:41.000Z</time>
      </trkpt>
      <trkpt lat="43.5344" lon="5.31077">
        <ele>268.25815</ele>
        <time>2023-03-15T09:21:44.000Z</time>
      </trkpt>
      <trkpt lat="43.53441" lon="5.31077">
        <ele>268.49799</ele>
        <time>2023-03-15T09:21:46.000Z</time>
      </trkpt>
      <trkpt lat="43.53443" lon="5.31076">
        <ele>268.73651</ele>
        <time>2023-03-15T09:21:48.000Z</time>
      </trkpt>
      <trkpt lat="43.53446" lon="5.31076">
        <ele>268.96692</ele>
        <time>2023-03-15T09:21:50.000Z</time>
      </trkpt>
      <trkpt lat="43.53448" lon="5.31075">
        <ele>269.25983</ele>
        <time>2023-03-15T09:21:52.000Z</time>
      </trkpt>
      <trkpt lat="43.53451" lon="5.31074">
        <ele>269.5546</ele>
        <time>2023-03-15T09:21:54.000Z</time>
      </trkpt>
      <trkpt lat="43.53454" lon="5.31073">
        <ele>269.85135</ele>
        <time>2023-03-15T09:21:56.000Z</time>
      </trkpt>
      <trkpt lat="43.53456" lon="5.31071">
        <ele>270.21201</ele>
        <time>2023-03-15T09:21:58.000Z</time>
      </trkpt>
      <trkpt lat="43.53458" lon="5.31071">
        <ele>270.55859</ele>
        <time>2023-03-15T09:22:00.000Z</time>
      </trkpt>
      <trkpt lat="43.5346" lon="5.3107">
        <ele>270.94562</ele>
        <time>2023-03-15T09:22:02.000Z</time>
      </trkpt>
      <trkpt lat="43.53462" lon="5.31069">
        <ele>271.20831</ele>
        <time>2023-03-15T09:22:04.000Z</time>
      </trkpt>
      <trkpt lat="43.53464" lon="5.31069">
        <ele>271.53394</ele>
        <time>2023-03-15T09:22:06.000Z</time>
      </trkpt>
      <trkpt lat="43.53467" lon="5.31068">
        <ele>271.87585</ele>
        <time>2023-03-15T09:22:08.000Z</time>
      </trkpt>
      <trkpt lat="43.53469" lon="5.31068">
        <ele>272.21625</ele>
        <time>2023-03-15T09:22:12.000Z</time>
      </trkpt>
      <trkpt lat="43.53471" lon="5.31067">
        <ele>272.55496</ele>
        <time>2023-03-15T09:22:14.000Z</time>
      </trkpt>
      <trkpt lat="43.53473" lon="5.31066">
        <ele>272.89789</ele>
        <time>2023-03-15T09:22:17.000Z</time>
      </trkpt>
      <trkpt lat="43.53476" lon="5.31065">
        <ele>273.22549</ele>
        <time>2023-03-15T09:22:20.000Z</time>
      </trkpt>
      <trkpt lat="43.53478" lon="5.31065">
        <ele>273.53162</ele>
        <time>2023-03-15T09:22:22.000Z</time>
      </trkpt>
      <trkpt lat="43.53479" lon="5.31065">
        <ele>273.88165</ele>
        <time>2023-03-15T09:22:24.000Z</time>
      </trkpt>
      <trkpt lat="43.53482" lon="5.31064">
        <ele>274.18439</ele>
        <time>2023-03-15T09:22:27.000Z</time>
      </trkpt>
      <trkpt lat="43.53484" lon="5.31063">
        <ele>274.48529</ele>
        <time>2023-03-15T09:22:30.000Z</time>
      </trkpt>
      <trkpt lat="43.53487" lon="5.31062">
        <ele>274.78937</ele>
        <time>2023-03-15T09:22:32.000Z</time>
      </trkpt>
      <trkpt lat="43.53489" lon="5.31062">
        <ele>275.09247</ele>
        <time>2023-03-15T09:22:34.000Z</time>
      </trkpt>
      <trkpt lat="43.53491" lon="5.31061">
        <ele>275.38242</ele>
        <time>2023-03-15T09:22:36.000Z</time>
      </trkpt>
      <trkpt lat="43.53493" lon="5.3106">
        <ele>275.61688</ele>
        <time>2023-03-15T09:22:38.000Z</time>
      </trkpt>
      <trkpt lat="43.53495" lon="5.3106">
        <ele>275.86667</ele>
        <time>2023-03-15T09:22:40.000Z</time>
      </trkpt>
      <trkpt lat="43.53497" lon="5.31059">
        <ele>276.09494</ele>
        <time>2023-03-15T09:22:42.000Z</time>
      </trkpt>
      <trkpt lat="43.53499" lon="5.31057">
        <ele>276.26251</ele>
        <time>2023-03-15T09:22:44.000Z</time>
      </trkpt>
      <trkpt lat="43.53501" lon="5.31056">
        <ele>276.45496</ele>
        <time>2023-03-15T09:22:47.000Z</time>
      </trkpt>
      <trkpt lat="43.53503" lon="5.31056">
        <ele>276.60358</ele>
        <time>2023-03-15T09:22:50.000Z</time>
      </trkpt>
      <trkpt lat="43.53506" lon="5.31056">
        <ele>276.78677</ele>
        <time>2023-03-15T09:22:53.000Z</time>
      </trkpt>
      <trkpt lat="43.53508" lon="5.31056">
        <ele>276.9007</ele>
        <time>2023-03-15T09:22:56.000Z</time>
      </trkpt>
      <trkpt lat="43.5351" lon="5.31056">
        <ele>277.01254</ele>
        <time>2023-03-15T09:23:05.000Z</time>
      </trkpt>
      <trkpt lat="43.53512" lon="5.31056">
        <ele>277.12027</ele>
        <time>2023-03-15T09:23:08.000Z</time>
      </trkpt>
      <trkpt lat="43.53513" lon="5.31055">
        <ele>277.25046</ele>
        <time>2023-03-15T09:23:50.000Z</time>
      </trkpt>
      <trkpt lat="43.53515" lon="5.31053">
        <ele>277.28513</ele>
        <time>2023-03-15T09:26:39.000Z</time>
      </trkpt>
      <trkpt lat="43.53517" lon="5.31056">
        <ele>277.39264</ele>
        <time>2023-03-15T09:27:06.000Z</time>
      </trkpt>
      <trkpt lat="43.53519" lon="5.31057">
        <ele>277.46744</ele>
        <time>2023-03-15T09:27:10.000Z</time>
      </trkpt>
      <trkpt lat="43.53521" lon="5.31057">
        <ele>277.54059</ele>
        <time>2023-03-15T09:27:14.000Z</time>
      </trkpt>
      <trkpt lat="43.53522" lon="5.31056">
        <ele>277.61676</ele>
        <time>2023-03-15T09:27:17.000Z</time>
      </trkpt>
      <trkpt lat="43.53524" lon="5.31054">
        <ele>277.67789</ele>
        <time>2023-03-15T09:27:21.000Z</time>
      </trkpt>
      <trkpt lat="43.53526" lon="5.31053">
        <ele>277.77008</ele>
        <time>2023-03-15T09:27:26.000Z</time>
      </trkpt>
      <trkpt lat="43.53526" lon="5.31051">
        <ele>277.77979</ele>
        <time>2023-03-15T09:29:12.000Z</time>
      </trkpt>
      <trkpt lat="43.53528" lon="5.31051">
        <ele>277.83463</ele>
        <time>2023-03-15T09:29:15.000Z</time>
      </trkpt>
      <trkpt lat="43.5353" lon="5.3105">
        <ele>277.91318</ele>
        <time>2023-03-15T09:29:19.000Z</time>
      </trkpt>
      <trkpt lat="43.53532" lon="5.31049">
        <ele>277.95419</ele>
        <time>2023-03-15T09:29:21.000Z</time>
      </trkpt>
      <trkpt lat="43.53535" lon="5.31048">
        <ele>277.98611</ele>
        <time>2023-03-15T09:29:24.000Z</time>
      </trkpt>
      <trkpt lat="43.53537" lon="5.31047">
        <ele>278.03986</ele>
        <time>2023-03-15T09:29:26.000Z</time>
      </trkpt>
      <trkpt lat="43.53539" lon="5.31047">
        <ele>278.05045</ele>
        <time>2023-03-15T09:29:28.000Z</time>
      </trkpt>
      <trkpt lat="43.53541" lon="5.31046">
        <ele>278.05988</ele>
        <time>2023-03-15T09:29:30.000Z</time>
      </trkpt>
      <trkpt lat="43.53543" lon="5.31046">
        <ele>278.07379</ele>
        <time>2023-03-15T09:29:32.000Z</time>
      </trkpt>
      <trkpt lat="43.53545" lon="5.31045">
        <ele>278.07285</ele>
        <time>2023-03-15T09:29:34.000Z</time>
      </trkpt>
      <trkpt lat="43.53547" lon="5.31044">
        <ele>278.02997</ele>
        <time>2023-03-15T09:29:36.000Z</time>
      </trkpt>
      <trkpt lat="43.53549" lon="5.31043">
        <ele>278.00983</ele>
        <time>2023-03-15T09:29:38.000Z</time>
      </trkpt>
      <trkpt lat="43.53552" lon="5.31042">
        <ele>278.03461</ele>
        <time>2023-03-15T09:29:40.000Z</time>
      </trkpt>
      <trkpt lat="43.53554" lon="5.31041">
        <ele>278.14575</ele>
        <time>2023-03-15T09:29:42.000Z</time>
      </trkpt>
      <trkpt lat="43.53556" lon="5.31039">
        <ele>278.20761</ele>
        <time>2023-03-15T09:29:44.000Z</time>
      </trkpt>
      <trkpt lat="43.53558" lon="5.31038">
        <ele>278.25153</ele>
        <time>2023-03-15T09:29:46.000Z</time>
      </trkpt>
      <trkpt lat="43.5356" lon="5.31038">
        <ele>278.27368</ele>
        <time>2023-03-15T09:29:48.000Z</time>
      </trkpt>
      <trkpt lat="43.53562" lon="5.31037">
        <ele>278.32367</ele>
        <time>2023-03-15T09:29:50.000Z</time>
      </trkpt>
      <trkpt lat="43.53564" lon="5.31035">
        <ele>278.39246</ele>
        <time>2023-03-15T09:29:52.000Z</time>
      </trkpt>
      <trkpt lat="43.53566" lon="5.31034">
        <ele>278.41074</ele>
        <time>2023-03-15T09:29:54.000Z</time>
      </trkpt>
      <trkpt lat="43.53568" lon="5.31034">
        <ele>278.46881</ele>
        <time>2023-03-15T09:29:56.000Z</time>
      </trkpt>
      <trkpt lat="43.5357" lon="5.31033">
        <ele>278.41412</ele>
        <time>2023-03-15T09:29:58.000Z</time>
      </trkpt>
      <trkpt lat="43.53571" lon="5.31031">
        <ele>278.34271</ele>
        <time>2023-03-15T09:30:00.000Z</time>
      </trkpt>
      <trkpt lat="43.53573" lon="5.3103">
        <ele>278.2543</ele>
        <time>2023-03-15T09:30:02.000Z</time>
      </trkpt>
      <trkpt lat="43.53575" lon="5.3103">
        <ele>278.17264</ele>
        <time>2023-03-15T09:30:04.000Z</time>
      </trkpt>
      <trkpt lat="43.53577" lon="5.31029">
        <ele>278.10114</ele>
        <time>2023-03-15T09:30:06.000Z</time>
      </trkpt>
      <trkpt lat="43.53579" lon="5.31028">
        <ele>278.01904</ele>
        <time>2023-03-15T09:30:08.000Z</time>
      </trkpt>
      <trkpt lat="43.53582" lon="5.31027">
        <ele>277.96698</ele>
        <time>2023-03-15T09:30:10.000Z</time>
      </trkpt>
      <trkpt lat="43.53584" lon="5.31025">
        <ele>277.89111</ele>
        <time>2023-03-15T09:30:12.000Z</time>
      </trkpt>
      <trkpt lat="43.53586" lon="5.31025">
        <ele>277.83954</ele>
        <time>2023-03-15T09:30:14.000Z</time>
      </trkpt>
      <trkpt lat="43.53588" lon="5.31024">
        <ele>277.80389</ele>
        <time>2023-03-15T09:30:16.000Z</time>
      </trkpt>
      <trkpt lat="43.5359" lon="5.31022">
        <ele>277.76611</ele>
        <time>2023-03-15T09:30:18.000Z</time>
      </trkpt>
      <trkpt lat="43.53592" lon="5.31021">
        <ele>277.70987</ele>
        <time>2023-03-15T09:30:20.000Z</time>
      </trkpt>
      <trkpt lat="43.53593" lon="5.31021">
        <ele>277.66626</ele>
        <time>2023-03-15T09:30:22.000Z</time>
      </trkpt>
      <trkpt lat="43.53595" lon="5.3102">
        <ele>277.62985</ele>
        <time>2023-03-15T09:30:24.000Z</time>
      </trkpt>
      <trkpt lat="43.53597" lon="5.3102">
        <ele>277.6102</ele>
        <time>2023-03-15T09:30:26.000Z</time>
      </trkpt>
      <trkpt lat="43.53599" lon="5.3102">
        <ele>277.59274</ele>
        <time>2023-03-15T09:30:28.000Z</time>
      </trkpt>
      <trkpt lat="43.53601" lon="5.3102">
        <ele>277.57162</ele>
        <time>2023-03-15T09:30:30.000Z</time>
      </trkpt>
      <trkpt lat="43.53603" lon="5.31019">
        <ele>277.50415</ele>
        <time>2023-03-15T09:30:32.000Z</time>
      </trkpt>
      <trkpt lat="43.53606" lon="5.31019">
        <ele>277.43695</ele>
        <time>2023-03-15T09:30:34.000Z</time>
      </trkpt>
      <trkpt lat="43.53608" lon="5.31018">
        <ele>277.36469</ele>
        <time>2023-03-15T09:30:36.000Z</time>
      </trkpt>
      <trkpt lat="43.5361" lon="5.31018">
        <ele>277.33856</ele>
        <time>2023-03-15T09:30:38.000Z</time>
      </trkpt>
      <trkpt lat="43.53612" lon="5.31018">
        <ele>277.31448</ele>
        <time>2023-03-15T09:30:40.000Z</time>
      </trkpt>
      <trkpt lat="43.53615" lon="5.31018">
        <ele>277.31055</ele>
        <time>2023-03-15T09:30:42.000Z</time>
      </trkpt>
      <trkpt lat="43.53617" lon="5.31018">
        <ele>277.3049</ele>
        <time>2023-03-15T09:30:44.000Z</time>
      </trkpt>
      <trkpt lat="43.53619" lon="5.31019">
        <ele>277.30713</ele>
        <time>2023-03-15T09:30:46.000Z</time>
      </trkpt>
      <trkpt lat="43.53621" lon="5.31019">
        <ele>277.31055</ele>
        <time>2023-03-15T09:30:48.000Z</time>
      </trkpt>
      <trkpt lat="43.53623" lon="5.3102">
        <ele>277.29266</ele>
        <time>2023-03-15T09:30:50.000Z</time>
      </trkpt>
      <trkpt lat="43.53625" lon="5.3102">
        <ele>277.2934</ele>
        <time>2023-03-15T09:30:52.000Z</time>
      </trkpt>
      <trkpt lat="43.53627" lon="5.31021">
        <ele>277.2894</ele>
        <time>2023-03-15T09:30:54.000Z</time>
      </trkpt>
      <trkpt lat="43.5363" lon="5.31021">
        <ele>277.3064</ele>
        <time>2023-03-15T09:30:56.000Z</time>
      </trkpt>
      <trkpt lat="43.53632" lon="5.31022">
        <ele>277.2991</ele>
        <time>2023-03-15T09:30:59.000Z</time>
      </trkpt>
      <trkpt lat="43.53634" lon="5.31022">
        <ele>277.27084</ele>
        <time>2023-03-15T09:31:01.000Z</time>
      </trkpt>
      <trkpt lat="43.53636" lon="5.31023">
        <ele>277.25037</ele>
        <time>2023-03-15T09:31:03.000Z</time>
      </trkpt>
      <trkpt lat="43.53639" lon="5.31023">
        <ele>277.246</ele>
        <time>2023-03-15T09:31:05.000Z</time>
      </trkpt>
      <trkpt lat="43.53641" lon="5.31023">
        <ele>277.22177</ele>
        <time>2023-03-15T09:31:07.000Z</time>
      </trkpt>
      <trkpt lat="43.53644" lon="5.31023">
        <ele>277.16351</ele>
        <time>2023-03-15T09:31:09.000Z</time>
      </trkpt>
      <trkpt lat="43.53646" lon="5.31023">
        <ele>277.08438</ele>
        <time>2023-03-15T09:31:11.000Z</time>
      </trkpt>
      <trkpt lat="43.53648" lon="5.31023">
        <ele>277.05115</ele>
        <time>2023-03-15T09:31:13.000Z</time>
      </trkpt>
      <trkpt lat="43.53651" lon="5.31023">
        <ele>276.99597</ele>
        <time>2023-03-15T09:31:15.000Z</time>
      </trkpt>
      <trkpt lat="43.53653" lon="5.31023">
        <ele>276.90582</ele>
        <time>2023-03-15T09:31:17.000Z</time>
      </trkpt>
      <trkpt lat="43.53655" lon="5.31022">
        <ele>276.80817</ele>
        <time>2023-03-15T09:31:19.000Z</time>
      </trkpt>
      <trkpt lat="43.53657" lon="5.31022">
        <ele>276.68756</ele>
        <time>2023-03-15T09:31:21.000Z</time>
      </trkpt>
      <trkpt lat="43.53659" lon="5.31022">
        <ele>276.58228</ele>
        <time>2023-03-15T09:31:23.000Z</time>
      </trkpt>
      <trkpt lat="43.53662" lon="5.31022">
        <ele>276.5083</ele>
        <time>2023-03-15T09:31:25.000Z</time>
      </trkpt>
      <trkpt lat="43.53664" lon="5.31023">
        <ele>276.39951</ele>
        <time>2023-03-15T09:31:27.000Z</time>
      </trkpt>
      <trkpt lat="43.53666" lon="5.31023">
        <ele>276.28134</ele>
        <time>2023-03-15T09:31:29.000Z</time>
      </trkpt>
      <trkpt lat="43.53669" lon="5.31023">
        <ele>276.16876</ele>
        <time>2023-03-15T09:31:31.000Z</time>
      </trkpt>
      <trkpt lat="43.53671" lon="5.31023">
        <ele>276.04852</ele>
        <time>2023-03-15T09:31:33.000Z</time>
      </trkpt>
      <trkpt lat="43.53673" lon="5.31024">
        <ele>275.9296</ele>
        <time>2023-03-15T09:31:35.000Z</time>
      </trkpt>
      <trkpt lat="43.53674" lon="5.31026">
        <ele>275.78644</ele>
        <time>2023-03-15T09:31:37.000Z</time>
      </trkpt>
      <trkpt lat="43.53676" lon="5.31028">
        <ele>275.64328</ele>
        <time>2023-03-15T09:31:39.000Z</time>
      </trkpt>
      <trkpt lat="43.53677" lon="5.3103">
        <ele>275.50586</ele>
        <time>2023-03-15T09:31:41.000Z</time>
      </trkpt>
      <trkpt lat="43.53679" lon="5.31033">
        <ele>275.37039</ele>
        <time>2023-03-15T09:31:43.000Z</time>
      </trkpt>
      <trkpt lat="43.5368" lon="5.31035">
        <ele>275.20087</ele>
        <time>2023-03-15T09:31:45.000Z</time>
      </trkpt>
      <trkpt lat="43.53682" lon="5.31037">
        <ele>275.02246</ele>
        <time>2023-03-15T09:31:47.000Z</time>
      </trkpt>
      <trkpt lat="43.53684" lon="5.3104">
        <ele>274.86493</ele>
        <time>2023-03-15T09:31:49.000Z</time>
      </trkpt>
      <trkpt lat="43.53685" lon="5.31042">
        <ele>274.71408</ele>
        <time>2023-03-15T09:31:51.000Z</time>
      </trkpt>
      <trkpt lat="43.53686" lon="5.31045">
        <ele>274.5929</ele>
        <time>2023-03-15T09:31:53.000Z</time>
      </trkpt>
      <trkpt lat="43.53687" lon="5.31048">
        <ele>274.5141</ele>
        <time>2023-03-15T09:31:55.000Z</time>
      </trkpt>
      <trkpt lat="43.53688" lon="5.31052">
        <ele>274.48856</ele>
        <time>2023-03-15T09:31:57.000Z</time>
      </trkpt>
      <trkpt lat="43.53688" lon="5.31055">
        <ele>274.46246</ele>
        <time>2023-03-15T09:31:59.000Z</time>
      </trkpt>
      <trkpt lat="43.53689" lon="5.31058">
        <ele>274.47382</ele>
        <time>2023-03-15T09:32:01.000Z</time>
      </trkpt>
      <trkpt lat="43.5369" lon="5.31061">
        <ele>274.45081</ele>
        <time>2023-03-15T09:32:03.000Z</time>
      </trkpt>
      <trkpt lat="43.53691" lon="5.31063">
        <ele>274.41644</ele>
        <time>2023-03-15T09:32:05.000Z</time>
      </trkpt>
      <trkpt lat="43.53691" lon="5.31066">
        <ele>274.40625</ele>
        <time>2023-03-15T09:32:07.000Z</time>
      </trkpt>
      <trkpt lat="43.53692" lon="5.31069">
        <ele>274.41861</ele>
        <time>2023-03-15T09:32:09.000Z</time>
      </trkpt>
      <trkpt lat="43.53693" lon="5.31071">
        <ele>274.44519</ele>
        <time>2023-03-15T09:32:11.000Z</time>
      </trkpt>
      <trkpt lat="43.53694" lon="5.31074">
        <ele>274.47104</ele>
        <time>2023-03-15T09:32:13.000Z</time>
      </trkpt>
      <trkpt lat="43.53695" lon="5.31077">
        <ele>274.55847</ele>
        <time>2023-03-15T09:32:15.000Z</time>
      </trkpt>
      <trkpt lat="43.53697" lon="5.3108">
        <ele>274.68604</ele>
        <time>2023-03-15T09:32:17.000Z</time>
      </trkpt>
      <trkpt lat="43.53697" lon="5.31083">
        <ele>274.87244</ele>
        <time>2023-03-15T09:32:19.000Z</time>
      </trkpt>
      <trkpt lat="43.53698" lon="5.31086">
        <ele>275.05215</ele>
        <time>2023-03-15T09:32:21.000Z</time>
      </trkpt>
      <trkpt lat="43.537" lon="5.31089">
        <ele>275.20462</ele>
        <time>2023-03-15T09:32:23.000Z</time>
      </trkpt>
      <trkpt lat="43.53702" lon="5.31092">
        <ele>275.31363</ele>
        <time>2023-03-15T09:32:25.000Z</time>
      </trkpt>
      <trkpt lat="43.53704" lon="5.31095">
        <ele>275.39542</ele>
        <time>2023-03-15T09:32:27.000Z</time>
      </trkpt>
      <trkpt lat="43.53705" lon="5.31098">
        <ele>275.46793</ele>
        <time>2023-03-15T09:32:29.000Z</time>
      </trkpt>
      <trkpt lat="43.53706" lon="5.31101">
        <ele>275.56891</ele>
        <time>2023-03-15T09:32:31.000Z</time>
      </trkpt>
      <trkpt lat="43.53707" lon="5.31104">
        <ele>275.63434</ele>
        <time>2023-03-15T09:32:33.000Z</time>
      </trkpt>
      <trkpt lat="43.53709" lon="5.31106">
        <ele>275.70209</ele>
        <time>2023-03-15T09:32:35.000Z</time>
      </trkpt>
      <trkpt lat="43.53711" lon="5.31108">
        <ele>275.77435</ele>
        <time>2023-03-15T09:32:37.000Z</time>
      </trkpt>
      <trkpt lat="43.53712" lon="5.31109">
        <ele>275.86371</ele>
        <time>2023-03-15T09:32:39.000Z</time>
      </trkpt>
      <trkpt lat="43.53715" lon="5.3111">
        <ele>275.93536</ele>
        <time>2023-03-15T09:32:41.000Z</time>
      </trkpt>
      <trkpt lat="43.53717" lon="5.31111">
        <ele>276.04346</ele>
        <time>2023-03-15T09:32:43.000Z</time>
      </trkpt>
      <trkpt lat="43.53719" lon="5.31112">
        <ele>276.16254</ele>
        <time>2023-03-15T09:32:45.000Z</time>
      </trkpt>
      <trkpt lat="43.53721" lon="5.31113">
        <ele>276.28143</ele>
        <time>2023-03-15T09:32:47.000Z</time>
      </trkpt>
      <trkpt lat="43.53724" lon="5.31114">
        <ele>276.38428</ele>
        <time>2023-03-15T09:32:49.000Z</time>
      </trkpt>
      <trkpt lat="43.53726" lon="5.31115">
        <ele>276.46048</ele>
        <time>2023-03-15T09:32:51.000Z</time>
      </trkpt>
      <trkpt lat="43.53729" lon="5.31116">
        <ele>276.54349</ele>
        <time>2023-03-15T09:32:53.000Z</time>
      </trkpt>
      <trkpt lat="43.53731" lon="5.31117">
        <ele>276.58633</ele>
        <time>2023-03-15T09:32:55.000Z</time>
      </trkpt>
      <trkpt lat="43.53734" lon="5.31118">
        <ele>276.58746</ele>
        <time>2023-03-15T09:32:57.000Z</time>
      </trkpt>
      <trkpt lat="43.53736" lon="5.31119">
        <ele>276.53354</ele>
        <time>2023-03-15T09:32:59.000Z</time>
      </trkpt>
      <trkpt lat="43.53738" lon="5.31121">
        <ele>276.47205</ele>
        <time>2023-03-15T09:33:01.000Z</time>
      </trkpt>
      <trkpt lat="43.53741" lon="5.31122">
        <ele>276.42197</ele>
        <time>2023-03-15T09:33:03.000Z</time>
      </trkpt>
      <trkpt lat="43.53743" lon="5.31123">
        <ele>276.43015</ele>
        <time>2023-03-15T09:33:05.000Z</time>
      </trkpt>
      <trkpt lat="43.53745" lon="5.31124">
        <ele>276.45682</ele>
        <time>2023-03-15T09:33:07.000Z</time>
      </trkpt>
      <trkpt lat="43.53747" lon="5.31125">
        <ele>276.48129</ele>
        <time>2023-03-15T09:33:09.000Z</time>
      </trkpt>
      <trkpt lat="43.53749" lon="5.31127">
        <ele>276.49103</ele>
        <time>2023-03-15T09:33:11.000Z</time>
      </trkpt>
      <trkpt lat="43.53751" lon="5.31129">
        <ele>276.51685</ele>
        <time>2023-03-15T09:33:13.000Z</time>
      </trkpt>
      <trkpt lat="43.53753" lon="5.3113">
        <ele>276.56168</ele>
        <time>2023-03-15T09:33:15.000Z</time>
      </trkpt>
      <trkpt lat="43.53755" lon="5.31132">
        <ele>276.60278</ele>
        <time>2023-03-15T09:33:17.000Z</time>
      </trkpt>
      <trkpt lat="43.53756" lon="5.31134">
        <ele>276.63312</ele>
        <time>2023-03-15T09:33:19.000Z</time>
      </trkpt>
      <trkpt lat="43.53758" lon="5.31136">
        <ele>276.67441</ele>
        <time>2023-03-15T09:33:21.000Z</time>
      </trkpt>
      <trkpt lat="43.5376" lon="5.31137">
        <ele>276.70258</ele>
        <time>2023-03-15T09:33:23.000Z</time>
      </trkpt>
      <trkpt lat="43.53762" lon="5.31138">
        <ele>276.70685</ele>
        <time>2023-03-15T09:33:25.000Z</time>
      </trkpt>
      <trkpt lat="43.53764" lon="5.31139">
        <ele>276.66849</ele>
        <time>2023-03-15T09:33:27.000Z</time>
      </trkpt>
      <trkpt lat="43.53766" lon="5.3114">
        <ele>276.60208</ele>
        <time>2023-03-15T09:33:29.000Z</time>
      </trkpt>
      <trkpt lat="43.53768" lon="5.31141">
        <ele>276.5401</ele>
        <time>2023-03-15T09:33:31.000Z</time>
      </trkpt>
      <trkpt lat="43.53771" lon="5.31142">
        <ele>276.51312</ele>
        <time>2023-03-15T09:33:33.000Z</time>
      </trkpt>
      <trkpt lat="43.53773" lon="5.31142">
        <ele>276.4548</ele>
        <time>2023-03-15T09:33:35.000Z</time>
      </trkpt>
      <trkpt lat="43.53776" lon="5.31144">
        <ele>276.41595</ele>
        <time>2023-03-15T09:33:37.000Z</time>
      </trkpt>
      <trkpt lat="43.53778" lon="5.31145">
        <ele>276.40295</ele>
        <time>2023-03-15T09:33:39.000Z</time>
      </trkpt>
      <trkpt lat="43.53781" lon="5.31145">
        <ele>276.40598</ele>
        <time>2023-03-15T09:33:41.000Z</time>
      </trkpt>
      <trkpt lat="43.53783" lon="5.31146">
        <ele>276.4292</ele>
        <time>2023-03-15T09:33:43.000Z</time>
      </trkpt>
      <trkpt lat="43.53786" lon="5.31146">
        <ele>276.46722</ele>
        <time>2023-03-15T09:33:45.000Z</time>
      </trkpt>
      <trkpt lat="43.53788" lon="5.31146">
        <ele>276.53409</ele>
        <time>2023-03-15T09:33:47.000Z</time>
      </trkpt>
      <trkpt lat="43.5379" lon="5.31146">
        <ele>276.59799</ele>
        <time>2023-03-15T09:33:49.000Z</time>
      </trkpt>
      <trkpt lat="43.53793" lon="5.31147">
        <ele>276.65582</ele>
        <time>2023-03-15T09:33:51.000Z</time>
      </trkpt>
      <trkpt lat="43.53795" lon="5.31148">
        <ele>276.72043</ele>
        <time>2023-03-15T09:33:53.000Z</time>
      </trkpt>
      <trkpt lat="43.53797" lon="5.31148">
        <ele>276.73456</ele>
        <time>2023-03-15T09:33:55.000Z</time>
      </trkpt>
      <trkpt lat="43.53799" lon="5.3115">
        <ele>276.76544</ele>
        <time>2023-03-15T09:33:58.000Z</time>
      </trkpt>
      <trkpt lat="43.53801" lon="5.31152">
        <ele>276.78018</ele>
        <time>2023-03-15T09:34:01.000Z</time>
      </trkpt>
      <trkpt lat="43.53802" lon="5.31155">
        <ele>276.80789</ele>
        <time>2023-03-15T09:34:03.000Z</time>
      </trkpt>
      <trkpt lat="43.53803" lon="5.31157">
        <ele>276.83798</ele>
        <time>2023-03-15T09:34:05.000Z</time>
      </trkpt>
      <trkpt lat="43.53804" lon="5.3116">
        <ele>276.85394</ele>
        <time>2023-03-15T09:34:07.000Z</time>
      </trkpt>
      <trkpt lat="43.53806" lon="5.31163">
        <ele>276.91483</ele>
        <time>2023-03-15T09:34:09.000Z</time>
      </trkpt>
      <trkpt lat="43.53807" lon="5.31165">
        <ele>277.00089</ele>
        <time>2023-03-15T09:34:11.000Z</time>
      </trkpt>
      <trkpt lat="43.53809" lon="5.31168">
        <ele>277.14563</ele>
        <time>2023-03-15T09:34:14.000Z</time>
      </trkpt>
      <trkpt lat="43.5381" lon="5.3117">
        <ele>277.28909</ele>
        <time>2023-03-15T09:34:17.000Z</time>
      </trkpt>
      <trkpt lat="43.53811" lon="5.31172">
        <ele>277.46002</ele>
        <time>2023-03-15T09:34:19.000Z</time>
      </trkpt>
      <trkpt lat="43.53813" lon="5.31174">
        <ele>277.63361</ele>
        <time>2023-03-15T09:34:21.000Z</time>
      </trkpt>
      <trkpt lat="43.53815" lon="5.31176">
        <ele>277.83032</ele>
        <time>2023-03-15T09:34:23.000Z</time>
      </trkpt>
      <trkpt lat="43.53817" lon="5.31179">
        <ele>278.02533</ele>
        <time>2023-03-15T09:34:25.000Z</time>
      </trkpt>
      <trkpt lat="43.53818" lon="5.31181">
        <ele>278.22937</ele>
        <time>2023-03-15T09:34:27.000Z</time>
      </trkpt>
      <trkpt lat="43.5382" lon="5.31183">
        <ele>278.41299</ele>
        <time>2023-03-15T09:34:29.000Z</time>
      </trkpt>
      <trkpt lat="43.53822" lon="5.31186">
        <ele>278.57248</ele>
        <time>2023-03-15T09:34:31.000Z</time>
      </trkpt>
      <trkpt lat="43.53824" lon="5.31188">
        <ele>278.69672</ele>
        <time>2023-03-15T09:34:33.000Z</time>
      </trkpt>
      <trkpt lat="43.53826" lon="5.3119">
        <ele>278.79889</ele>
        <time>2023-03-15T09:34:35.000Z</time>
      </trkpt>
      <trkpt lat="43.53828" lon="5.31192">
        <ele>278.88513</ele>
        <time>2023-03-15T09:34:37.000Z</time>
      </trkpt>
      <trkpt lat="43.53831" lon="5.31194">
        <ele>278.96124</ele>
        <time>2023-03-15T09:34:39.000Z</time>
      </trkpt>
      <trkpt lat="43.53833" lon="5.31195">
        <ele>278.97891</ele>
        <time>2023-03-15T09:34:41.000Z</time>
      </trkpt>
      <trkpt lat="43.53835" lon="5.31197">
        <ele>279.09595</ele>
        <time>2023-03-15T09:34:43.000Z</time>
      </trkpt>
      <trkpt lat="43.53837" lon="5.31199">
        <ele>279.21774</ele>
        <time>2023-03-15T09:34:45.000Z</time>
      </trkpt>
      <trkpt lat="43.53838" lon="5.31201">
        <ele>279.37067</ele>
        <time>2023-03-15T09:34:47.000Z</time>
      </trkpt>
      <trkpt lat="43.5384" lon="5.31204">
        <ele>279.52271</ele>
        <time>2023-03-15T09:34:49.000Z</time>
      </trkpt>
      <trkpt lat="43.53842" lon="5.31206">
        <ele>279.68933</ele>
        <time>2023-03-15T09:34:51.000Z</time>
      </trkpt>
      <trkpt lat="43.53844" lon="5.31208">
        <ele>279.88776</ele>
        <time>2023-03-15T09:34:53.000Z</time>
      </trkpt>
      <trkpt lat="43.53845" lon="5.3121">
        <ele>280.02405</ele>
        <time>2023-03-15T09:34:55.000Z</time>
      </trkpt>
      <trkpt lat="43.53847" lon="5.31213">
        <ele>280.13617</ele>
        <time>2023-03-15T09:34:57.000Z</time>
      </trkpt>
      <trkpt lat="43.53849" lon="5.31215">
        <ele>280.24603</ele>
        <time>2023-03-15T09:34:59.000Z</time>
      </trkpt>
      <trkpt lat="43.5385" lon="5.31217">
        <ele>280.35388</ele>
        <time>2023-03-15T09:35:01.000Z</time>
      </trkpt>
      <trkpt lat="43.53851" lon="5.3122">
        <ele>280.35028</ele>
        <time>2023-03-15T09:35:03.000Z</time>
      </trkpt>
      <trkpt lat="43.53852" lon="5.31223">
        <ele>280.33582</ele>
        <time>2023-03-15T09:35:05.000Z</time>
      </trkpt>
      <trkpt lat="43.53853" lon="5.31225">
        <ele>280.28049</ele>
        <time>2023-03-15T09:35:07.000Z</time>
      </trkpt>
      <trkpt lat="43.53854" lon="5.31228">
        <ele>280.19452</ele>
        <time>2023-03-15T09:35:09.000Z</time>
      </trkpt>
      <trkpt lat="43.53855" lon="5.3123">
        <ele>280.14719</ele>
        <time>2023-03-15T09:35:11.000Z</time>
      </trkpt>
      <trkpt lat="43.53856" lon="5.31233">
        <ele>280.11957</ele>
        <time>2023-03-15T09:35:13.000Z</time>
      </trkpt>
      <trkpt lat="43.53857" lon="5.31237">
        <ele>280.12085</ele>
        <time>2023-03-15T09:35:15.000Z</time>
      </trkpt>
      <trkpt lat="43.53859" lon="5.31239">
        <ele>280.12714</ele>
        <time>2023-03-15T09:35:17.000Z</time>
      </trkpt>
      <trkpt lat="43.53859" lon="5.31242">
        <ele>280.16293</ele>
        <time>2023-03-15T09:35:19.000Z</time>
      </trkpt>
      <trkpt lat="43.5386" lon="5.31245">
        <ele>280.2728</ele>
        <time>2023-03-15T09:35:21.000Z</time>
      </trkpt>
      <trkpt lat="43.5386" lon="5.31248">
        <ele>280.31378</ele>
        <time>2023-03-15T09:35:23.000Z</time>
      </trkpt>
      <trkpt lat="43.53861" lon="5.31251">
        <ele>280.31909</ele>
        <time>2023-03-15T09:35:25.000Z</time>
      </trkpt>
      <trkpt lat="43.53861" lon="5.31254">
        <ele>280.29654</ele>
        <time>2023-03-15T09:35:27.000Z</time>
      </trkpt>
      <trkpt lat="43.53862" lon="5.31256">
        <ele>280.32831</ele>
        <time>2023-03-15T09:35:29.000Z</time>
      </trkpt>
      <trkpt lat="43.53863" lon="5.31259">
        <ele>280.31055</ele>
        <time>2023-03-15T09:35:31.000Z</time>
      </trkpt>
      <trkpt lat="43.53863" lon="5.31262">
        <ele>280.28723</ele>
        <time>2023-03-15T09:35:33.000Z</time>
      </trkpt>
      <trkpt lat="43.53863" lon="5.31265">
        <ele>280.28271</ele>
        <time>2023-03-15T09:35:35.000Z</time>
      </trkpt>
      <trkpt lat="43.53864" lon="5.31268">
        <ele>280.26483</ele>
        <time>2023-03-15T09:35:37.000Z</time>
      </trkpt>
      <trkpt lat="43.53864" lon="5.3127">
        <ele>280.2554</ele>
        <time>2023-03-15T09:35:39.000Z</time>
      </trkpt>
      <trkpt lat="43.53865" lon="5.31274">
        <ele>280.24838</ele>
        <time>2023-03-15T09:35:42.000Z</time>
      </trkpt>
      <trkpt lat="43.53865" lon="5.31276">
        <ele>280.33517</ele>
        <time>2023-03-15T09:35:44.000Z</time>
      </trkpt>
      <trkpt lat="43.53866" lon="5.31279">
        <ele>280.44781</ele>
        <time>2023-03-15T09:35:46.000Z</time>
      </trkpt>
      <trkpt lat="43.53866" lon="5.31282">
        <ele>280.62167</ele>
        <time>2023-03-15T09:35:48.000Z</time>
      </trkpt>
      <trkpt lat="43.53867" lon="5.31286">
        <ele>280.86951</ele>
        <time>2023-03-15T09:35:50.000Z</time>
      </trkpt>
      <trkpt lat="43.53868" lon="5.31289">
        <ele>281.07306</ele>
        <time>2023-03-15T09:35:52.000Z</time>
      </trkpt>
      <trkpt lat="43.53868" lon="5.31292">
        <ele>281.28354</ele>
        <time>2023-03-15T09:35:54.000Z</time>
      </trkpt>
      <trkpt lat="43.53869" lon="5.31295">
        <ele>281.47821</ele>
        <time>2023-03-15T09:35:56.000Z</time>
      </trkpt>
      <trkpt lat="43.53871" lon="5.31298">
        <ele>281.65723</ele>
        <time>2023-03-15T09:35:58.000Z</time>
      </trkpt>
      <trkpt lat="43.53872" lon="5.31301">
        <ele>281.84286</ele>
        <time>2023-03-15T09:36:00.000Z</time>
      </trkpt>
      <trkpt lat="43.53873" lon="5.31304">
        <ele>281.98251</ele>
        <time>2023-03-15T09:36:02.000Z</time>
      </trkpt>
      <trkpt lat="43.53874" lon="5.31306">
        <ele>282.10867</ele>
        <time>2023-03-15T09:36:04.000Z</time>
      </trkpt>
      <trkpt lat="43.53875" lon="5.31309">
        <ele>282.23615</ele>
        <time>2023-03-15T09:36:06.000Z</time>
      </trkpt>
      <trkpt lat="43.53876" lon="5.31312">
        <ele>282.36694</ele>
        <time>2023-03-15T09:36:08.000Z</time>
      </trkpt>
      <trkpt lat="43.53878" lon="5.31315">
        <ele>282.46613</ele>
        <time>2023-03-15T09:36:10.000Z</time>
      </trkpt>
      <trkpt lat="43.53879" lon="5.31317">
        <ele>282.56879</ele>
        <time>2023-03-15T09:36:12.000Z</time>
      </trkpt>
      <trkpt lat="43.53881" lon="5.31319">
        <ele>282.61749</ele>
        <time>2023-03-15T09:36:14.000Z</time>
      </trkpt>
      <trkpt lat="43.53882" lon="5.31321">
        <ele>282.65204</ele>
        <time>2023-03-15T09:36:16.000Z</time>
      </trkpt>
      <trkpt lat="43.53884" lon="5.31323">
        <ele>282.69769</ele>
        <time>2023-03-15T09:36:18.000Z</time>
      </trkpt>
      <trkpt lat="43.53886" lon="5.31324">
        <ele>282.69629</ele>
        <time>2023-03-15T09:36:20.000Z</time>
      </trkpt>
      <trkpt lat="43.53887" lon="5.31326">
        <ele>282.70654</ele>
        <time>2023-03-15T09:36:22.000Z</time>
      </trkpt>
      <trkpt lat="43.53889" lon="5.31328">
        <ele>282.68637</ele>
        <time>2023-03-15T09:36:24.000Z</time>
      </trkpt>
      <trkpt lat="43.53891" lon="5.31331">
        <ele>282.66293</ele>
        <time>2023-03-15T09:36:26.000Z</time>
      </trkpt>
      <trkpt lat="43.53892" lon="5.31333">
        <ele>282.61713</ele>
        <time>2023-03-15T09:36:28.000Z</time>
      </trkpt>
      <trkpt lat="43.53894" lon="5.31335">
        <ele>282.55948</ele>
        <time>2023-03-15T09:36:30.000Z</time>
      </trkpt>
      <trkpt lat="43.53896" lon="5.31337">
        <ele>282.53519</ele>
        <time>2023-03-15T09:36:32.000Z</time>
      </trkpt>
      <trkpt lat="43.53897" lon="5.31339">
        <ele>282.5173</ele>
        <time>2023-03-15T09:36:34.000Z</time>
      </trkpt>
      <trkpt lat="43.53899" lon="5.31341">
        <ele>282.50204</ele>
        <time>2023-03-15T09:36:36.000Z</time>
      </trkpt>
      <trkpt lat="43.539" lon="5.31344">
        <ele>282.49567</ele>
        <time>2023-03-15T09:36:38.000Z</time>
      </trkpt>
      <trkpt lat="43.53901" lon="5.31346">
        <ele>282.49268</ele>
        <time>2023-03-15T09:36:40.000Z</time>
      </trkpt>
      <trkpt lat="43.53903" lon="5.31348">
        <ele>282.48071</ele>
        <time>2023-03-15T09:36:42.000Z</time>
      </trkpt>
      <trkpt lat="43.53904" lon="5.31351">
        <ele>282.47235</ele>
        <time>2023-03-15T09:36:44.000Z</time>
      </trkpt>
      <trkpt lat="43.53906" lon="5.31354">
        <ele>282.49707</ele>
        <time>2023-03-15T09:36:46.000Z</time>
      </trkpt>
      <trkpt lat="43.53907" lon="5.31357">
        <ele>282.52002</ele>
        <time>2023-03-15T09:36:48.000Z</time>
      </trkpt>
      <trkpt lat="43.53909" lon="5.3136">
        <ele>282.55023</ele>
        <time>2023-03-15T09:36:50.000Z</time>
      </trkpt>
      <trkpt lat="43.5391" lon="5.31362">
        <ele>282.61438</ele>
        <time>2023-03-15T09:36:52.000Z</time>
      </trkpt>
      <trkpt lat="43.53911" lon="5.31365">
        <ele>282.71671</ele>
        <time>2023-03-15T09:36:54.000Z</time>
      </trkpt>
      <trkpt lat="43.53913" lon="5.31368">
        <ele>282.81592</ele>
        <time>2023-03-15T09:36:56.000Z</time>
      </trkpt>
      <trkpt lat="43.53913" lon="5.31371">
        <ele>282.88495</ele>
        <time>2023-03-15T09:36:58.000Z</time>
      </trkpt>
      <trkpt lat="43.53914" lon="5.31373">
        <ele>282.97345</ele>
        <time>2023-03-15T09:37:00.000Z</time>
      </trkpt>
      <trkpt lat="43.53915" lon="5.31375">
        <ele>283.0528</ele>
        <time>2023-03-15T09:37:02.000Z</time>
      </trkpt>
      <trkpt lat="43.53916" lon="5.31378">
        <ele>283.14484</ele>
        <time>2023-03-15T09:37:04.000Z</time>
      </trkpt>
      <trkpt lat="43.53917" lon="5.31381">
        <ele>283.19513</ele>
        <time>2023-03-15T09:37:06.000Z</time>
      </trkpt>
      <trkpt lat="43.53918" lon="5.31384">
        <ele>283.23724</ele>
        <time>2023-03-15T09:37:08.000Z</time>
      </trkpt>
      <trkpt lat="43.53918" lon="5.31387">
        <ele>283.27594</ele>
        <time>2023-03-15T09:37:10.000Z</time>
      </trkpt>
      <trkpt lat="43.53918" lon="5.3139">
        <ele>283.30719</ele>
        <time>2023-03-15T09:37:12.000Z</time>
      </trkpt>
      <trkpt lat="43.53918" lon="5.31393">
        <ele>283.33429</ele>
        <time>2023-03-15T09:37:14.000Z</time>
      </trkpt>
      <trkpt lat="43.53919" lon="5.31395">
        <ele>283.38013</ele>
        <time>2023-03-15T09:37:16.000Z</time>
      </trkpt>
      <trkpt lat="43.53919" lon="5.31398">
        <ele>283.43262</ele>
        <time>2023-03-15T09:37:18.000Z</time>
      </trkpt>
      <trkpt lat="43.53919" lon="5.31401">
        <ele>283.46063</ele>
        <time>2023-03-15T09:37:20.000Z</time>
      </trkpt>
      <trkpt lat="43.5392" lon="5.31404">
        <ele>283.49429</ele>
        <time>2023-03-15T09:37:22.000Z</time>
      </trkpt>
      <trkpt lat="43.53921" lon="5.31406">
        <ele>283.50885</ele>
        <time>2023-03-15T09:37:24.000Z</time>
      </trkpt>
      <trkpt lat="43.53921" lon="5.31409">
        <ele>283.4798</ele>
        <time>2023-03-15T09:37:26.000Z</time>
      </trkpt>
      <trkpt lat="43.53922" lon="5.31412">
        <ele>283.43643</ele>
        <time>2023-03-15T09:37:28.000Z</time>
      </trkpt>
      <trkpt lat="43.53922" lon="5.31416">
        <ele>283.38699</ele>
        <time>2023-03-15T09:37:30.000Z</time>
      </trkpt>
      <trkpt lat="43.53923" lon="5.31418">
        <ele>283.33734</ele>
        <time>2023-03-15T09:37:32.000Z</time>
      </trkpt>
      <trkpt lat="43.53923" lon="5.3142">
        <ele>283.26553</ele>
        <time>2023-03-15T09:37:34.000Z</time>
      </trkpt>
      <trkpt lat="43.53924" lon="5.31423">
        <ele>283.18784</ele>
        <time>2023-03-15T09:37:36.000Z</time>
      </trkpt>
      <trkpt lat="43.53924" lon="5.31426">
        <ele>283.14746</ele>
        <time>2023-03-15T09:37:38.000Z</time>
      </trkpt>
      <trkpt lat="43.53925" lon="5.3143">
        <ele>283.07623</ele>
        <time>2023-03-15T09:37:40.000Z</time>
      </trkpt>
      <trkpt lat="43.53926" lon="5.31433">
        <ele>282.9653</ele>
        <time>2023-03-15T09:37:42.000Z</time>
      </trkpt>
      <trkpt lat="43.53927" lon="5.31436">
        <ele>282.86127</ele>
        <time>2023-03-15T09:37:44.000Z</time>
      </trkpt>
      <trkpt lat="43.53927" lon="5.3144">
        <ele>282.79553</ele>
        <time>2023-03-15T09:37:46.000Z</time>
      </trkpt>
      <trkpt lat="43.53928" lon="5.31443">
        <ele>282.74411</ele>
        <time>2023-03-15T09:37:48.000Z</time>
      </trkpt>
      <trkpt lat="43.53929" lon="5.31446">
        <ele>282.65338</ele>
        <time>2023-03-15T09:37:50.000Z</time>
      </trkpt>
      <trkpt lat="43.5393" lon="5.31449">
        <ele>282.57681</ele>
        <time>2023-03-15T09:37:52.000Z</time>
      </trkpt>
      <trkpt lat="43.53931" lon="5.31452">
        <ele>282.47751</ele>
        <time>2023-03-15T09:37:54.000Z</time>
      </trkpt>
      <trkpt lat="43.53931" lon="5.31455">
        <ele>282.35089</ele>
        <time>2023-03-15T09:37:56.000Z</time>
      </trkpt>
      <trkpt lat="43.53932" lon="5.31458">
        <ele>282.19461</ele>
        <time>2023-03-15T09:37:58.000Z</time>
      </trkpt>
      <trkpt lat="43.53933" lon="5.31461">
        <ele>282.06293</ele>
        <time>2023-03-15T09:38:00.000Z</time>
      </trkpt>
      <trkpt lat="43.53934" lon="5.31465">
        <ele>281.9538</ele>
        <time>2023-03-15T09:38:02.000Z</time>
      </trkpt>
      <trkpt lat="43.53934" lon="5.31468">
        <ele>281.88739</ele>
        <time>2023-03-15T09:38:04.000Z</time>
      </trkpt>
      <trkpt lat="43.53935" lon="5.31471">
        <ele>281.89169</ele>
        <time>2023-03-15T09:38:06.000Z</time>
      </trkpt>
      <trkpt lat="43.53936" lon="5.31474">
        <ele>281.90796</ele>
        <time>2023-03-15T09:38:08.000Z</time>
      </trkpt>
      <trkpt lat="43.53936" lon="5.31477">
        <ele>281.94775</ele>
        <time>2023-03-15T09:38:10.000Z</time>
      </trkpt>
      <trkpt lat="43.53937" lon="5.3148">
        <ele>281.9917</ele>
        <time>2023-03-15T09:38:12.000Z</time>
      </trkpt>
      <trkpt lat="43.53937" lon="5.31483">
        <ele>282.08527</ele>
        <time>2023-03-15T09:38:14.000Z</time>
      </trkpt>
      <trkpt lat="43.53938" lon="5.31487">
        <ele>282.2027</ele>
        <time>2023-03-15T09:38:16.000Z</time>
      </trkpt>
      <trkpt lat="43.53938" lon="5.3149">
        <ele>282.31781</ele>
        <time>2023-03-15T09:38:18.000Z</time>
      </trkpt>
      <trkpt lat="43.53939" lon="5.31493">
        <ele>282.4671</ele>
        <time>2023-03-15T09:38:20.000Z</time>
      </trkpt>
      <trkpt lat="43.53939" lon="5.31496">
        <ele>282.62201</ele>
        <time>2023-03-15T09:38:22.000Z</time>
      </trkpt>
      <trkpt lat="43.53939" lon="5.31499">
        <ele>282.7616</ele>
        <time>2023-03-15T09:38:24.000Z</time>
      </trkpt>
      <trkpt lat="43.5394" lon="5.31502">
        <ele>282.89081</ele>
        <time>2023-03-15T09:38:27.000Z</time>
      </trkpt>
      <trkpt lat="43.5394" lon="5.31506">
        <ele>282.97293</ele>
        <time>2023-03-15T09:38:30.000Z</time>
      </trkpt>
      <trkpt lat="43.53939" lon="5.31509">
        <ele>283.07416</ele>
        <time>2023-03-15T09:38:33.000Z</time>
      </trkpt>
      <trkpt lat="43.53939" lon="5.31512">
        <ele>283.17889</ele>
        <time>2023-03-15T09:38:35.000Z</time>
      </trkpt>
      <trkpt lat="43.53938" lon="5.31515">
        <ele>283.32318</ele>
        <time>2023-03-15T09:38:37.000Z</time>
      </trkpt>
      <trkpt lat="43.53938" lon="5.31518">
        <ele>283.4942</ele>
        <time>2023-03-15T09:38:39.000Z</time>
      </trkpt>
      <trkpt lat="43.53937" lon="5.31522">
        <ele>283.71222</ele>
        <time>2023-03-15T09:38:41.000Z</time>
      </trkpt>
      <trkpt lat="43.53937" lon="5.31525">
        <ele>283.93292</ele>
        <time>2023-03-15T09:38:43.000Z</time>
      </trkpt>
      <trkpt lat="43.53937" lon="5.31529">
        <ele>284.15381</ele>
        <time>2023-03-15T09:38:45.000Z</time>
      </trkpt>
      <trkpt lat="43.53937" lon="5.31532">
        <ele>284.34686</ele>
        <time>2023-03-15T09:38:47.000Z</time>
      </trkpt>
      <trkpt lat="43.53938" lon="5.31535">
        <ele>284.52451</ele>
        <time>2023-03-15T09:38:49.000Z</time>
      </trkpt>
      <trkpt lat="43.53939" lon="5.31539">
        <ele>284.67596</ele>
        <time>2023-03-15T09:38:51.000Z</time>
      </trkpt>
      <trkpt lat="43.53939" lon="5.31542">
        <ele>284.81525</ele>
        <time>2023-03-15T09:38:53.000Z</time>
      </trkpt>
      <trkpt lat="43.5394" lon="5.31545">
        <ele>284.93246</ele>
        <time>2023-03-15T09:38:55.000Z</time>
      </trkpt>
      <trkpt lat="43.53942" lon="5.31548">
        <ele>285.02325</ele>
        <time>2023-03-15T09:38:57.000Z</time>
      </trkpt>
      <trkpt lat="43.53943" lon="5.31551">
        <ele>285.10547</ele>
        <time>2023-03-15T09:38:59.000Z</time>
      </trkpt>
      <trkpt lat="43.53943" lon="5.31554">
        <ele>285.18369</ele>
        <time>2023-03-15T09:39:01.000Z</time>
      </trkpt>
      <trkpt lat="43.53945" lon="5.31556">
        <ele>285.27917</ele>
        <time>2023-03-15T09:39:03.000Z</time>
      </trkpt>
      <trkpt lat="43.53946" lon="5.31559">
        <ele>285.3985</ele>
        <time>2023-03-15T09:39:05.000Z</time>
      </trkpt>
      <trkpt lat="43.53948" lon="5.31561">
        <ele>285.5047</ele>
        <time>2023-03-15T09:39:07.000Z</time>
      </trkpt>
      <trkpt lat="43.53949" lon="5.31564">
        <ele>285.63461</ele>
        <time>2023-03-15T09:39:09.000Z</time>
      </trkpt>
      <trkpt lat="43.53951" lon="5.31566">
        <ele>285.77411</ele>
        <time>2023-03-15T09:39:11.000Z</time>
      </trkpt>
      <trkpt lat="43.53952" lon="5.31569">
        <ele>285.92023</ele>
        <time>2023-03-15T09:39:13.000Z</time>
      </trkpt>
      <trkpt lat="43.53953" lon="5.31572">
        <ele>286.03629</ele>
        <time>2023-03-15T09:39:15.000Z</time>
      </trkpt>
      <trkpt lat="43.53953" lon="5.31574">
        <ele>286.13141</ele>
        <time>2023-03-15T09:39:17.000Z</time>
      </trkpt>
      <trkpt lat="43.53953" lon="5.31578">
        <ele>286.19562</ele>
        <time>2023-03-15T09:39:20.000Z</time>
      </trkpt>
      <trkpt lat="43.53953" lon="5.31581">
        <ele>286.22479</ele>
        <time>2023-03-15T09:39:22.000Z</time>
      </trkpt>
      <trkpt lat="43.53953" lon="5.31584">
        <ele>286.21362</ele>
        <time>2023-03-15T09:39:24.000Z</time>
      </trkpt>
      <trkpt lat="43.53951" lon="5.31586">
        <ele>286.16003</ele>
        <time>2023-03-15T09:39:26.000Z</time>
      </trkpt>
      <trkpt lat="43.5395" lon="5.31589">
        <ele>286.1218</ele>
        <time>2023-03-15T09:39:29.000Z</time>
      </trkpt>
      <trkpt lat="43.53949" lon="5.31591">
        <ele>286.05017</ele>
        <time>2023-03-15T09:39:31.000Z</time>
      </trkpt>
      <trkpt lat="43.53947" lon="5.31594">
        <ele>286.02881</ele>
        <time>2023-03-15T09:39:33.000Z</time>
      </trkpt>
      <trkpt lat="43.53946" lon="5.31596">
        <ele>286.0134</ele>
        <time>2023-03-15T09:39:35.000Z</time>
      </trkpt>
      <trkpt lat="43.53945" lon="5.31599">
        <ele>286.01837</ele>
        <time>2023-03-15T09:39:37.000Z</time>
      </trkpt>
      <trkpt lat="43.53943" lon="5.31602">
        <ele>286.04501</ele>
        <time>2023-03-15T09:39:39.000Z</time>
      </trkpt>
      <trkpt lat="43.53942" lon="5.31605">
        <ele>286.06952</ele>
        <time>2023-03-15T09:39:41.000Z</time>
      </trkpt>
      <trkpt lat="43.5394" lon="5.31607">
        <ele>286.05447</ele>
        <time>2023-03-15T09:39:43.000Z</time>
      </trkpt>
      <trkpt lat="43.53939" lon="5.3161">
        <ele>286.00439</ele>
        <time>2023-03-15T09:39:45.000Z</time>
      </trkpt>
      <trkpt lat="43.53938" lon="5.31612">
        <ele>285.93857</ele>
        <time>2023-03-15T09:39:47.000Z</time>
      </trkpt>
      <trkpt lat="43.53936" lon="5.31615">
        <ele>285.8848</ele>
        <time>2023-03-15T09:39:49.000Z</time>
      </trkpt>
      <trkpt lat="43.53935" lon="5.31617">
        <ele>285.8208</ele>
        <time>2023-03-15T09:39:51.000Z</time>
      </trkpt>
      <trkpt lat="43.53933" lon="5.31619">
        <ele>285.75186</ele>
        <time>2023-03-15T09:39:53.000Z</time>
      </trkpt>
      <trkpt lat="43.53931" lon="5.3162">
        <ele>285.68918</ele>
        <time>2023-03-15T09:39:55.000Z</time>
      </trkpt>
      <trkpt lat="43.53929" lon="5.31622">
        <ele>285.62225</ele>
        <time>2023-03-15T09:39:57.000Z</time>
      </trkpt>
      <trkpt lat="43.53927" lon="5.31623">
        <ele>285.5589</ele>
        <time>2023-03-15T09:39:59.000Z</time>
      </trkpt>
      <trkpt lat="43.53925" lon="5.31624">
        <ele>285.49747</ele>
        <time>2023-03-15T09:40:01.000Z</time>
      </trkpt>
      <trkpt lat="43.53923" lon="5.31624">
        <ele>285.40997</ele>
        <time>2023-03-15T09:40:03.000Z</time>
      </trkpt>
      <trkpt lat="43.5392" lon="5.31625">
        <ele>285.35971</ele>
        <time>2023-03-15T09:40:05.000Z</time>
      </trkpt>
      <trkpt lat="43.53918" lon="5.31626">
        <ele>285.33524</ele>
        <time>2023-03-15T09:40:07.000Z</time>
      </trkpt>
      <trkpt lat="43.53916" lon="5.31627">
        <ele>285.29376</ele>
        <time>2023-03-15T09:40:09.000Z</time>
      </trkpt>
      <trkpt lat="43.53914" lon="5.31628">
        <ele>285.27496</ele>
        <time>2023-03-15T09:40:11.000Z</time>
      </trkpt>
      <trkpt lat="43.53912" lon="5.3163">
        <ele>285.21835</ele>
        <time>2023-03-15T09:40:13.000Z</time>
      </trkpt>
      <trkpt lat="43.5391" lon="5.31631">
        <ele>285.13916</ele>
        <time>2023-03-15T09:40:15.000Z</time>
      </trkpt>
      <trkpt lat="43.53908" lon="5.31633">
        <ele>285.06732</ele>
        <time>2023-03-15T09:40:17.000Z</time>
      </trkpt>
      <trkpt lat="43.53906" lon="5.31636">
        <ele>284.96521</ele>
        <time>2023-03-15T09:40:19.000Z</time>
      </trkpt>
      <trkpt lat="43.53904" lon="5.31638">
        <ele>284.86978</ele>
        <time>2023-03-15T09:40:21.000Z</time>
      </trkpt>
      <trkpt lat="43.53902" lon="5.3164">
        <ele>284.79071</ele>
        <time>2023-03-15T09:40:23.000Z</time>
      </trkpt>
      <trkpt lat="43.53901" lon="5.31643">
        <ele>284.7215</ele>
        <time>2023-03-15T09:40:25.000Z</time>
      </trkpt>
      <trkpt lat="43.53899" lon="5.31646">
        <ele>284.64838</ele>
        <time>2023-03-15T09:40:27.000Z</time>
      </trkpt>
      <trkpt lat="43.53898" lon="5.31649">
        <ele>284.57889</ele>
        <time>2023-03-15T09:40:29.000Z</time>
      </trkpt>
      <trkpt lat="43.53897" lon="5.31651">
        <ele>284.48648</ele>
        <time>2023-03-15T09:40:31.000Z</time>
      </trkpt>
      <trkpt lat="43.53895" lon="5.31653">
        <ele>284.36304</ele>
        <time>2023-03-15T09:40:33.000Z</time>
      </trkpt>
      <trkpt lat="43.53893" lon="5.31656">
        <ele>284.21259</ele>
        <time>2023-03-15T09:40:35.000Z</time>
      </trkpt>
      <trkpt lat="43.53891" lon="5.31659">
        <ele>284.02838</ele>
        <time>2023-03-15T09:40:37.000Z</time>
      </trkpt>
      <trkpt lat="43.5389" lon="5.31661">
        <ele>283.83936</ele>
        <time>2023-03-15T09:40:39.000Z</time>
      </trkpt>
      <trkpt lat="43.53888" lon="5.31664">
        <ele>283.63647</ele>
        <time>2023-03-15T09:40:41.000Z</time>
      </trkpt>
      <trkpt lat="43.53887" lon="5.31666">
        <ele>283.46378</ele>
        <time>2023-03-15T09:40:43.000Z</time>
      </trkpt>
      <trkpt lat="43.53886" lon="5.31669">
        <ele>283.26608</ele>
        <time>2023-03-15T09:40:45.000Z</time>
      </trkpt>
      <trkpt lat="43.53885" lon="5.31672">
        <ele>283.08856</ele>
        <time>2023-03-15T09:40:47.000Z</time>
      </trkpt>
      <trkpt lat="43.53884" lon="5.31675">
        <ele>282.92178</ele>
        <time>2023-03-15T09:40:49.000Z</time>
      </trkpt>
      <trkpt lat="43.53883" lon="5.31678">
        <ele>282.76801</ele>
        <time>2023-03-15T09:40:51.000Z</time>
      </trkpt>
      <trkpt lat="43.53883" lon="5.31681">
        <ele>282.62079</ele>
        <time>2023-03-15T09:40:53.000Z</time>
      </trkpt>
      <trkpt lat="43.53882" lon="5.31683">
        <ele>282.4577</ele>
        <time>2023-03-15T09:40:55.000Z</time>
      </trkpt>
      <trkpt lat="43.53881" lon="5.31685">
        <ele>282.28534</ele>
        <time>2023-03-15T09:40:57.000Z</time>
      </trkpt>
      <trkpt lat="43.5388" lon="5.31688">
        <ele>282.13953</ele>
        <time>2023-03-15T09:40:59.000Z</time>
      </trkpt>
      <trkpt lat="43.53878" lon="5.31691">
        <ele>281.98853</ele>
        <time>2023-03-15T09:41:01.000Z</time>
      </trkpt>
      <trkpt lat="43.53878" lon="5.31694">
        <ele>281.8728</ele>
        <time>2023-03-15T09:41:03.000Z</time>
      </trkpt>
      <trkpt lat="43.53877" lon="5.31696">
        <ele>281.77072</ele>
        <time>2023-03-15T09:41:05.000Z</time>
      </trkpt>
      <trkpt lat="43.53876" lon="5.31699">
        <ele>281.70599</ele>
        <time>2023-03-15T09:41:07.000Z</time>
      </trkpt>
      <trkpt lat="43.53875" lon="5.31702">
        <ele>281.6467</ele>
        <time>2023-03-15T09:41:09.000Z</time>
      </trkpt>
      <trkpt lat="43.53874" lon="5.31705">
        <ele>281.59735</ele>
        <time>2023-03-15T09:41:11.000Z</time>
      </trkpt>
      <trkpt lat="43.53873" lon="5.31707">
        <ele>281.58618</ele>
        <time>2023-03-15T09:41:13.000Z</time>
      </trkpt>
      <trkpt lat="43.53872" lon="5.3171">
        <ele>281.60742</ele>
        <time>2023-03-15T09:41:15.000Z</time>
      </trkpt>
      <trkpt lat="43.53871" lon="5.31713">
        <ele>281.67245</ele>
        <time>2023-03-15T09:41:17.000Z</time>
      </trkpt>
      <trkpt lat="43.5387" lon="5.31715">
        <ele>281.76007</ele>
        <time>2023-03-15T09:41:19.000Z</time>
      </trkpt>
      <trkpt lat="43.53869" lon="5.31718">
        <ele>281.87875</ele>
        <time>2023-03-15T09:41:21.000Z</time>
      </trkpt>
      <trkpt lat="43.53868" lon="5.31721">
        <ele>281.95514</ele>
        <time>2023-03-15T09:41:23.000Z</time>
      </trkpt>
      <trkpt lat="43.53866" lon="5.31724">
        <ele>282.05771</ele>
        <time>2023-03-15T09:41:25.000Z</time>
      </trkpt>
      <trkpt lat="43.53865" lon="5.31726">
        <ele>282.13266</ele>
        <time>2023-03-15T09:41:27.000Z</time>
      </trkpt>
      <trkpt lat="43.53862" lon="5.31728">
        <ele>282.23456</ele>
        <time>2023-03-15T09:41:29.000Z</time>
      </trkpt>
      <trkpt lat="43.5386" lon="5.31729">
        <ele>282.29776</ele>
        <time>2023-03-15T09:41:31.000Z</time>
      </trkpt>
      <trkpt lat="43.53858" lon="5.31732">
        <ele>282.35321</ele>
        <time>2023-03-15T09:41:33.000Z</time>
      </trkpt>
      <trkpt lat="43.53857" lon="5.31734">
        <ele>282.41779</ele>
        <time>2023-03-15T09:41:35.000Z</time>
      </trkpt>
      <trkpt lat="43.53855" lon="5.31737">
        <ele>282.46936</ele>
        <time>2023-03-15T09:41:37.000Z</time>
      </trkpt>
      <trkpt lat="43.53853" lon="5.31739">
        <ele>282.47943</ele>
        <time>2023-03-15T09:41:39.000Z</time>
      </trkpt>
      <trkpt lat="43.53852" lon="5.31742">
        <ele>282.43802</ele>
        <time>2023-03-15T09:41:41.000Z</time>
      </trkpt>
      <trkpt lat="43.5385" lon="5.31744">
        <ele>282.37979</ele>
        <time>2023-03-15T09:41:43.000Z</time>
      </trkpt>
      <trkpt lat="43.53849" lon="5.31746">
        <ele>282.28314</ele>
        <time>2023-03-15T09:41:45.000Z</time>
      </trkpt>
      <trkpt lat="43.53848" lon="5.31749">
        <ele>282.13687</ele>
        <time>2023-03-15T09:41:47.000Z</time>
      </trkpt>
      <trkpt lat="43.53847" lon="5.31752">
        <ele>281.99768</ele>
        <time>2023-03-15T09:41:49.000Z</time>
      </trkpt>
      <trkpt lat="43.53846" lon="5.31754">
        <ele>281.82236</ele>
        <time>2023-03-15T09:41:51.000Z</time>
      </trkpt>
      <trkpt lat="43.53845" lon="5.31757">
        <ele>281.62958</ele>
        <time>2023-03-15T09:41:53.000Z</time>
      </trkpt>
      <trkpt lat="43.53844" lon="5.3176">
        <ele>281.40442</ele>
        <time>2023-03-15T09:41:55.000Z</time>
      </trkpt>
      <trkpt lat="43.53843" lon="5.31763">
        <ele>281.15045</ele>
        <time>2023-03-15T09:41:57.000Z</time>
      </trkpt>
      <trkpt lat="43.53842" lon="5.31765">
        <ele>280.89154</ele>
        <time>2023-03-15T09:41:59.000Z</time>
      </trkpt>
      <trkpt lat="43.53841" lon="5.31769">
        <ele>280.63315</ele>
        <time>2023-03-15T09:42:01.000Z</time>
      </trkpt>
      <trkpt lat="43.53841" lon="5.31772">
        <ele>280.39828</ele>
        <time>2023-03-15T09:42:03.000Z</time>
      </trkpt>
      <trkpt lat="43.5384" lon="5.31775">
        <ele>280.15256</ele>
        <time>2023-03-15T09:42:05.000Z</time>
      </trkpt>
      <trkpt lat="43.53839" lon="5.31777">
        <ele>279.91562</ele>
        <time>2023-03-15T09:42:07.000Z</time>
      </trkpt>
      <trkpt lat="43.53838" lon="5.3178">
        <ele>279.66589</ele>
        <time>2023-03-15T09:42:09.000Z</time>
      </trkpt>
      <trkpt lat="43.53836" lon="5.31782">
        <ele>279.41061</ele>
        <time>2023-03-15T09:42:11.000Z</time>
      </trkpt>
      <trkpt lat="43.53834" lon="5.31784">
        <ele>279.18176</ele>
        <time>2023-03-15T09:42:13.000Z</time>
      </trkpt>
      <trkpt lat="43.53833" lon="5.31787">
        <ele>278.95044</ele>
        <time>2023-03-15T09:42:15.000Z</time>
      </trkpt>
      <trkpt lat="43.53831" lon="5.31789">
        <ele>278.70319</ele>
        <time>2023-03-15T09:42:17.000Z</time>
      </trkpt>
      <trkpt lat="43.5383" lon="5.31792">
        <ele>278.48029</ele>
        <time>2023-03-15T09:42:19.000Z</time>
      </trkpt>
      <trkpt lat="43.53829" lon="5.31794">
        <ele>278.28653</ele>
        <time>2023-03-15T09:42:21.000Z</time>
      </trkpt>
      <trkpt lat="43.53827" lon="5.31796">
        <ele>278.11469</ele>
        <time>2023-03-15T09:42:23.000Z</time>
      </trkpt>
      <trkpt lat="43.53825" lon="5.31799">
        <ele>277.94467</ele>
        <time>2023-03-15T09:42:25.000Z</time>
      </trkpt>
      <trkpt lat="43.53824" lon="5.31801">
        <ele>277.78687</ele>
        <time>2023-03-15T09:42:27.000Z</time>
      </trkpt>
      <trkpt lat="43.53823" lon="5.31803">
        <ele>277.63788</ele>
        <time>2023-03-15T09:42:29.000Z</time>
      </trkpt>
      <trkpt lat="43.53822" lon="5.31806">
        <ele>277.52164</ele>
        <time>2023-03-15T09:42:31.000Z</time>
      </trkpt>
      <trkpt lat="43.53821" lon="5.31808">
        <ele>277.40436</ele>
        <time>2023-03-15T09:42:33.000Z</time>
      </trkpt>
      <trkpt lat="43.5382" lon="5.31811">
        <ele>277.31216</ele>
        <time>2023-03-15T09:42:35.000Z</time>
      </trkpt>
      <trkpt lat="43.53819" lon="5.31813">
        <ele>277.23935</ele>
        <time>2023-03-15T09:42:37.000Z</time>
      </trkpt>
      <trkpt lat="43.53817" lon="5.31815">
        <ele>277.14325</ele>
        <time>2023-03-15T09:42:39.000Z</time>
      </trkpt>
      <trkpt lat="43.53816" lon="5.31817">
        <ele>276.99677</ele>
        <time>2023-03-15T09:42:41.000Z</time>
      </trkpt>
      <trkpt lat="43.53814" lon="5.31819">
        <ele>276.84351</ele>
        <time>2023-03-15T09:42:43.000Z</time>
      </trkpt>
      <trkpt lat="43.53813" lon="5.31822">
        <ele>276.68527</ele>
        <time>2023-03-15T09:42:45.000Z</time>
      </trkpt>
      <trkpt lat="43.53812" lon="5.31825">
        <ele>276.5423</ele>
        <time>2023-03-15T09:42:47.000Z</time>
      </trkpt>
      <trkpt lat="43.53811" lon="5.31827">
        <ele>276.36469</ele>
        <time>2023-03-15T09:42:49.000Z</time>
      </trkpt>
      <trkpt lat="43.53809" lon="5.3183">
        <ele>276.18402</ele>
        <time>2023-03-15T09:42:52.000Z</time>
      </trkpt>
      <trkpt lat="43.53808" lon="5.31832">
        <ele>275.99203</ele>
        <time>2023-03-15T09:42:54.000Z</time>
      </trkpt>
      <trkpt lat="43.53807" lon="5.31834">
        <ele>275.83105</ele>
        <time>2023-03-15T09:42:56.000Z</time>
      </trkpt>
      <trkpt lat="43.53806" lon="5.31837">
        <ele>275.65875</ele>
        <time>2023-03-15T09:42:58.000Z</time>
      </trkpt>
      <trkpt lat="43.53804" lon="5.31838">
        <ele>275.45197</ele>
        <time>2023-03-15T09:43:00.000Z</time>
      </trkpt>
      <trkpt lat="43.53802" lon="5.31841">
        <ele>275.25049</ele>
        <time>2023-03-15T09:43:02.000Z</time>
      </trkpt>
      <trkpt lat="43.53801" lon="5.31843">
        <ele>275.0379</ele>
        <time>2023-03-15T09:43:04.000Z</time>
      </trkpt>
      <trkpt lat="43.538" lon="5.31846">
        <ele>274.87189</ele>
        <time>2023-03-15T09:43:06.000Z</time>
      </trkpt>
      <trkpt lat="43.53799" lon="5.31849">
        <ele>274.74805</ele>
        <time>2023-03-15T09:43:08.000Z</time>
      </trkpt>
      <trkpt lat="43.53799" lon="5.31851">
        <ele>274.5835</ele>
        <time>2023-03-15T09:43:10.000Z</time>
      </trkpt>
      <trkpt lat="43.53798" lon="5.31854">
        <ele>274.40137</ele>
        <time>2023-03-15T09:43:12.000Z</time>
      </trkpt>
      <trkpt lat="43.53796" lon="5.31856">
        <ele>274.2251</ele>
        <time>2023-03-15T09:43:14.000Z</time>
      </trkpt>
      <trkpt lat="43.53795" lon="5.31859">
        <ele>274.03479</ele>
        <time>2023-03-15T09:43:16.000Z</time>
      </trkpt>
      <trkpt lat="43.53794" lon="5.31861">
        <ele>273.85147</ele>
        <time>2023-03-15T09:43:18.000Z</time>
      </trkpt>
      <trkpt lat="43.53793" lon="5.31864">
        <ele>273.70828</ele>
        <time>2023-03-15T09:43:20.000Z</time>
      </trkpt>
      <trkpt lat="43.53793" lon="5.31867">
        <ele>273.58856</ele>
        <time>2023-03-15T09:43:22.000Z</time>
      </trkpt>
      <trkpt lat="43.53792" lon="5.31869">
        <ele>273.49811</ele>
        <time>2023-03-15T09:43:24.000Z</time>
      </trkpt>
      <trkpt lat="43.53791" lon="5.31872">
        <ele>273.39059</ele>
        <time>2023-03-15T09:43:26.000Z</time>
      </trkpt>
      <trkpt lat="43.5379" lon="5.31874">
        <ele>273.28192</ele>
        <time>2023-03-15T09:43:28.000Z</time>
      </trkpt>
      <trkpt lat="43.5379" lon="5.31877">
        <ele>273.16132</ele>
        <time>2023-03-15T09:43:30.000Z</time>
      </trkpt>
      <trkpt lat="43.53789" lon="5.31879">
        <ele>273.03583</ele>
        <time>2023-03-15T09:43:32.000Z</time>
      </trkpt>
      <trkpt lat="43.53788" lon="5.31882">
        <ele>272.8967</ele>
        <time>2023-03-15T09:43:34.000Z</time>
      </trkpt>
      <trkpt lat="43.53787" lon="5.31885">
        <ele>272.71835</ele>
        <time>2023-03-15T09:43:36.000Z</time>
      </trkpt>
      <trkpt lat="43.53786" lon="5.31887">
        <ele>272.56543</ele>
        <time>2023-03-15T09:43:38.000Z</time>
      </trkpt>
      <trkpt lat="43.53785" lon="5.3189">
        <ele>272.39404</ele>
        <time>2023-03-15T09:43:40.000Z</time>
      </trkpt>
      <trkpt lat="43.53784" lon="5.31893">
        <ele>272.20773</ele>
        <time>2023-03-15T09:43:42.000Z</time>
      </trkpt>
      <trkpt lat="43.53782" lon="5.31895">
        <ele>271.99911</ele>
        <time>2023-03-15T09:43:44.000Z</time>
      </trkpt>
      <trkpt lat="43.53781" lon="5.31898">
        <ele>271.75928</ele>
        <time>2023-03-15T09:43:46.000Z</time>
      </trkpt>
      <trkpt lat="43.53779" lon="5.31901">
        <ele>271.4826</ele>
        <time>2023-03-15T09:43:48.000Z</time>
      </trkpt>
      <trkpt lat="43.53777" lon="5.31902">
        <ele>271.21967</ele>
        <time>2023-03-15T09:43:50.000Z</time>
      </trkpt>
      <trkpt lat="43.53776" lon="5.31904">
        <ele>270.97455</ele>
        <time>2023-03-15T09:43:52.000Z</time>
      </trkpt>
      <trkpt lat="43.53774" lon="5.31905">
        <ele>270.75912</ele>
        <time>2023-03-15T09:43:54.000Z</time>
      </trkpt>
      <trkpt lat="43.53773" lon="5.31907">
        <ele>270.53134</ele>
        <time>2023-03-15T09:43:56.000Z</time>
      </trkpt>
      <trkpt lat="43.53772" lon="5.31911">
        <ele>270.30331</ele>
        <time>2023-03-15T09:43:59.000Z</time>
      </trkpt>
      <trkpt lat="43.53771" lon="5.31913">
        <ele>270.03265</ele>
        <time>2023-03-15T09:44:01.000Z</time>
      </trkpt>
      <trkpt lat="43.53769" lon="5.31915">
        <ele>269.76923</ele>
        <time>2023-03-15T09:44:03.000Z</time>
      </trkpt>
      <trkpt lat="43.53768" lon="5.31917">
        <ele>269.48328</ele>
        <time>2023-03-15T09:44:05.000Z</time>
      </trkpt>
      <trkpt lat="43.53766" lon="5.31919">
        <ele>269.25311</ele>
        <time>2023-03-15T09:44:07.000Z</time>
      </trkpt>
      <trkpt lat="43.53765" lon="5.31921">
        <ele>268.9993</ele>
        <time>2023-03-15T09:44:09.000Z</time>
      </trkpt>
      <trkpt lat="43.53764" lon="5.31924">
        <ele>268.754</ele>
        <time>2023-03-15T09:44:11.000Z</time>
      </trkpt>
      <trkpt lat="43.53763" lon="5.31927">
        <ele>268.53815</ele>
        <time>2023-03-15T09:44:13.000Z</time>
      </trkpt>
      <trkpt lat="43.53762" lon="5.31929">
        <ele>268.31595</ele>
        <time>2023-03-15T09:44:15.000Z</time>
      </trkpt>
      <trkpt lat="43.5376" lon="5.31931">
        <ele>268.08063</ele>
        <time>2023-03-15T09:44:17.000Z</time>
      </trkpt>
      <trkpt lat="43.53759" lon="5.31932">
        <ele>267.83917</ele>
        <time>2023-03-15T09:44:19.000Z</time>
      </trkpt>
      <trkpt lat="43.53757" lon="5.31934">
        <ele>267.6051</ele>
        <time>2023-03-15T09:44:21.000Z</time>
      </trkpt>
      <trkpt lat="43.53756" lon="5.31937">
        <ele>267.3616</ele>
        <time>2023-03-15T09:44:23.000Z</time>
      </trkpt>
      <trkpt lat="43.53754" lon="5.31939">
        <ele>267.12604</ele>
        <time>2023-03-15T09:44:25.000Z</time>
      </trkpt>
      <trkpt lat="43.53752" lon="5.31941">
        <ele>266.91495</ele>
        <time>2023-03-15T09:44:27.000Z</time>
      </trkpt>
      <trkpt lat="43.5375" lon="5.31942">
        <ele>266.72638</ele>
        <time>2023-03-15T09:44:29.000Z</time>
      </trkpt>
      <trkpt lat="43.53748" lon="5.31944">
        <ele>266.51337</ele>
        <time>2023-03-15T09:44:31.000Z</time>
      </trkpt>
      <trkpt lat="43.53747" lon="5.31947">
        <ele>266.24094</ele>
        <time>2023-03-15T09:44:33.000Z</time>
      </trkpt>
      <trkpt lat="43.53746" lon="5.31949">
        <ele>265.92456</ele>
        <time>2023-03-15T09:44:35.000Z</time>
      </trkpt>
      <trkpt lat="43.53744" lon="5.31952">
        <ele>265.63263</ele>
        <time>2023-03-15T09:44:37.000Z</time>
      </trkpt>
      <trkpt lat="43.53742" lon="5.31954">
        <ele>265.31754</ele>
        <time>2023-03-15T09:44:39.000Z</time>
      </trkpt>
      <trkpt lat="43.53741" lon="5.31956">
        <ele>264.99075</ele>
        <time>2023-03-15T09:44:41.000Z</time>
      </trkpt>
      <trkpt lat="43.53739" lon="5.31958">
        <ele>264.65567</ele>
        <time>2023-03-15T09:44:43.000Z</time>
      </trkpt>
      <trkpt lat="43.53738" lon="5.3196">
        <ele>264.32584</ele>
        <time>2023-03-15T09:44:45.000Z</time>
      </trkpt>
      <trkpt lat="43.53736" lon="5.31962">
        <ele>263.92657</ele>
        <time>2023-03-15T09:44:47.000Z</time>
      </trkpt>
      <trkpt lat="43.53734" lon="5.31964">
        <ele>263.52771</ele>
        <time>2023-03-15T09:44:49.000Z</time>
      </trkpt>
      <trkpt lat="43.53733" lon="5.31966">
        <ele>263.14728</ele>
        <time>2023-03-15T09:44:51.000Z</time>
      </trkpt>
      <trkpt lat="43.53732" lon="5.31968">
        <ele>262.74957</ele>
        <time>2023-03-15T09:44:53.000Z</time>
      </trkpt>
      <trkpt lat="43.5373" lon="5.3197">
        <ele>262.37836</ele>
        <time>2023-03-15T09:44:55.000Z</time>
      </trkpt>
      <trkpt lat="43.53728" lon="5.31971">
        <ele>262.04001</ele>
        <time>2023-03-15T09:44:57.000Z</time>
      </trkpt>
      <trkpt lat="43.53726" lon="5.31973">
        <ele>261.68814</ele>
        <time>2023-03-15T09:44:59.000Z</time>
      </trkpt>
      <trkpt lat="43.53724" lon="5.31974">
        <ele>261.36725</ele>
        <time>2023-03-15T09:45:01.000Z</time>
      </trkpt>
      <trkpt lat="43.53722" lon="5.31975">
        <ele>261.05859</ele>
        <time>2023-03-15T09:45:03.000Z</time>
      </trkpt>
      <trkpt lat="43.5372" lon="5.31976">
        <ele>260.76196</ele>
        <time>2023-03-15T09:45:05.000Z</time>
      </trkpt>
      <trkpt lat="43.53718" lon="5.31977">
        <ele>260.45825</ele>
        <time>2023-03-15T09:45:07.000Z</time>
      </trkpt>
      <trkpt lat="43.53715" lon="5.31978">
        <ele>260.11432</ele>
        <time>2023-03-15T09:45:10.000Z</time>
      </trkpt>
      <trkpt lat="43.53713" lon="5.31978">
        <ele>259.76706</ele>
        <time>2023-03-15T09:45:13.000Z</time>
      </trkpt>
      <trkpt lat="43.53711" lon="5.31978">
        <ele>259.47205</ele>
        <time>2023-03-15T09:45:16.000Z</time>
      </trkpt>
      <trkpt lat="43.53709" lon="5.31979">
        <ele>259.16742</ele>
        <time>2023-03-15T09:45:18.000Z</time>
      </trkpt>
      <trkpt lat="43.53707" lon="5.31982">
        <ele>258.82785</ele>
        <time>2023-03-15T09:45:20.000Z</time>
      </trkpt>
      <trkpt lat="43.53706" lon="5.31982">
        <ele>258.49731</ele>
        <time>2023-03-15T09:45:22.000Z</time>
      </trkpt>
      <trkpt lat="43.53704" lon="5.31983">
        <ele>258.16595</ele>
        <time>2023-03-15T09:45:24.000Z</time>
      </trkpt>
      <trkpt lat="43.53702" lon="5.31985">
        <ele>257.87564</ele>
        <time>2023-03-15T09:45:26.000Z</time>
      </trkpt>
      <trkpt lat="43.537" lon="5.31987">
        <ele>257.59961</ele>
        <time>2023-03-15T09:45:28.000Z</time>
      </trkpt>
      <trkpt lat="43.537" lon="5.3199">
        <ele>257.3613</ele>
        <time>2023-03-15T09:45:30.000Z</time>
      </trkpt>
      <trkpt lat="43.537" lon="5.31993">
        <ele>257.11725</ele>
        <time>2023-03-15T09:45:32.000Z</time>
      </trkpt>
      <trkpt lat="43.53701" lon="5.31996">
        <ele>256.89926</ele>
        <time>2023-03-15T09:45:34.000Z</time>
      </trkpt>
      <trkpt lat="43.53702" lon="5.31999">
        <ele>256.70007</ele>
        <time>2023-03-15T09:45:36.000Z</time>
      </trkpt>
      <trkpt lat="43.53703" lon="5.32002">
        <ele>256.51031</ele>
        <time>2023-03-15T09:45:38.000Z</time>
      </trkpt>
      <trkpt lat="43.53703" lon="5.32005">
        <ele>256.30093</ele>
        <time>2023-03-15T09:45:40.000Z</time>
      </trkpt>
      <trkpt lat="43.53704" lon="5.32008">
        <ele>256.10608</ele>
        <time>2023-03-15T09:45:42.000Z</time>
      </trkpt>
      <trkpt lat="43.53704" lon="5.32012">
        <ele>255.86284</ele>
        <time>2023-03-15T09:45:45.000Z</time>
      </trkpt>
      <trkpt lat="43.53704" lon="5.32015">
        <ele>255.68022</ele>
        <time>2023-03-15T09:45:47.000Z</time>
      </trkpt>
      <trkpt lat="43.53705" lon="5.32018">
        <ele>255.483</ele>
        <time>2023-03-15T09:45:49.000Z</time>
      </trkpt>
      <trkpt lat="43.53706" lon="5.32021">
        <ele>255.25578</ele>
        <time>2023-03-15T09:45:51.000Z</time>
      </trkpt>
      <trkpt lat="43.53707" lon="5.32024">
        <ele>255.00046</ele>
        <time>2023-03-15T09:45:53.000Z</time>
      </trkpt>
      <trkpt lat="43.53708" lon="5.32027">
        <ele>254.80026</ele>
        <time>2023-03-15T09:45:55.000Z</time>
      </trkpt>
      <trkpt lat="43.53709" lon="5.32031">
        <ele>254.62639</ele>
        <time>2023-03-15T09:45:57.000Z</time>
      </trkpt>
      <trkpt lat="43.5371" lon="5.32034">
        <ele>254.47241</ele>
        <time>2023-03-15T09:45:59.000Z</time>
      </trkpt>
      <trkpt lat="43.53711" lon="5.32037">
        <ele>254.39751</ele>
        <time>2023-03-15T09:46:01.000Z</time>
      </trkpt>
      <trkpt lat="43.53712" lon="5.32039">
        <ele>254.34624</ele>
        <time>2023-03-15T09:46:04.000Z</time>
      </trkpt>
      <trkpt lat="43.53713" lon="5.32042">
        <ele>254.29733</ele>
        <time>2023-03-15T09:46:07.000Z</time>
      </trkpt>
      <trkpt lat="43.53715" lon="5.32045">
        <ele>254.20834</ele>
        <time>2023-03-15T09:46:09.000Z</time>
      </trkpt>
      <trkpt lat="43.53716" lon="5.32046">
        <ele>254.10995</ele>
        <time>2023-03-15T09:46:11.000Z</time>
      </trkpt>
      <trkpt lat="43.53719" lon="5.32048">
        <ele>254.00125</ele>
        <time>2023-03-15T09:46:14.000Z</time>
      </trkpt>
      <trkpt lat="43.5372" lon="5.32049">
        <ele>253.94116</ele>
        <time>2023-03-15T09:46:16.000Z</time>
      </trkpt>
      <trkpt lat="43.53722" lon="5.32051">
        <ele>253.85701</ele>
        <time>2023-03-15T09:46:18.000Z</time>
      </trkpt>
      <trkpt lat="43.53725" lon="5.32052">
        <ele>253.76303</ele>
        <time>2023-03-15T09:46:20.000Z</time>
      </trkpt>
      <trkpt lat="43.53727" lon="5.32053">
        <ele>253.63248</ele>
        <time>2023-03-15T09:46:22.000Z</time>
      </trkpt>
      <trkpt lat="43.53729" lon="5.32055">
        <ele>253.52563</ele>
        <time>2023-03-15T09:46:24.000Z</time>
      </trkpt>
      <trkpt lat="43.53731" lon="5.32056">
        <ele>253.44986</ele>
        <time>2023-03-15T09:46:26.000Z</time>
      </trkpt>
      <trkpt lat="43.53733" lon="5.32058">
        <ele>253.47632</ele>
        <time>2023-03-15T09:46:29.000Z</time>
      </trkpt>
      <trkpt lat="43.53735" lon="5.32059">
        <ele>253.48648</ele>
        <time>2023-03-15T09:46:31.000Z</time>
      </trkpt>
      <trkpt lat="43.53737" lon="5.32061">
        <ele>253.51575</ele>
        <time>2023-03-15T09:46:33.000Z</time>
      </trkpt>
      <trkpt lat="43.53738" lon="5.32063">
        <ele>253.58157</ele>
        <time>2023-03-15T09:46:35.000Z</time>
      </trkpt>
      <trkpt lat="43.5374" lon="5.32064">
        <ele>253.69954</ele>
        <time>2023-03-15T09:46:38.000Z</time>
      </trkpt>
      <trkpt lat="43.53741" lon="5.32066">
        <ele>253.83862</ele>
        <time>2023-03-15T09:46:41.000Z</time>
      </trkpt>
      <trkpt lat="43.53742" lon="5.32068">
        <ele>253.94785</ele>
        <time>2023-03-15T09:46:43.000Z</time>
      </trkpt>
      <trkpt lat="43.53744" lon="5.3207">
        <ele>254.07085</ele>
        <time>2023-03-15T09:46:45.000Z</time>
      </trkpt>
      <trkpt lat="43.53746" lon="5.32072">
        <ele>254.20854</ele>
        <time>2023-03-15T09:46:48.000Z</time>
      </trkpt>
      <trkpt lat="43.53747" lon="5.32074">
        <ele>254.38301</ele>
        <time>2023-03-15T09:46:50.000Z</time>
      </trkpt>
      <trkpt lat="43.53748" lon="5.32076">
        <ele>254.62407</ele>
        <time>2023-03-15T09:46:53.000Z</time>
      </trkpt>
      <trkpt lat="43.5375" lon="5.32078">
        <ele>254.90227</ele>
        <time>2023-03-15T09:46:55.000Z</time>
      </trkpt>
      <trkpt lat="43.53751" lon="5.3208">
        <ele>255.18307</ele>
        <time>2023-03-15T09:46:58.000Z</time>
      </trkpt>
      <trkpt lat="43.53752" lon="5.32082">
        <ele>255.47192</ele>
        <time>2023-03-15T09:47:01.000Z</time>
      </trkpt>
      <trkpt lat="43.53753" lon="5.32085">
        <ele>255.78654</ele>
        <time>2023-03-15T09:47:03.000Z</time>
      </trkpt>
      <trkpt lat="43.53755" lon="5.32087">
        <ele>256.12561</ele>
        <time>2023-03-15T09:47:05.000Z</time>
      </trkpt>
      <trkpt lat="43.53756" lon="5.32089">
        <ele>256.48959</ele>
        <time>2023-03-15T09:47:08.000Z</time>
      </trkpt>
      <trkpt lat="43.53758" lon="5.32091">
        <ele>256.91284</ele>
        <time>2023-03-15T09:47:11.000Z</time>
      </trkpt>
      <trkpt lat="43.5376" lon="5.32093">
        <ele>257.37726</ele>
        <time>2023-03-15T09:47:13.000Z</time>
      </trkpt>
      <trkpt lat="43.53762" lon="5.32095">
        <ele>257.85855</ele>
        <time>2023-03-15T09:47:16.000Z</time>
      </trkpt>
      <trkpt lat="43.53763" lon="5.32097">
        <ele>258.32794</ele>
        <time>2023-03-15T09:47:18.000Z</time>
      </trkpt>
      <trkpt lat="43.53765" lon="5.321">
        <ele>258.81592</ele>
        <time>2023-03-15T09:47:20.000Z</time>
      </trkpt>
      <trkpt lat="43.53766" lon="5.32103">
        <ele>259.3136</ele>
        <time>2023-03-15T09:47:23.000Z</time>
      </trkpt>
      <trkpt lat="43.53768" lon="5.32105">
        <ele>259.79749</ele>
        <time>2023-03-15T09:47:25.000Z</time>
      </trkpt>
      <trkpt lat="43.53769" lon="5.32107">
        <ele>260.25464</ele>
        <time>2023-03-15T09:47:27.000Z</time>
      </trkpt>
      <trkpt lat="43.53771" lon="5.32109">
        <ele>260.68951</ele>
        <time>2023-03-15T09:47:29.000Z</time>
      </trkpt>
      <trkpt lat="43.53773" lon="5.32111">
        <ele>261.10434</ele>
        <time>2023-03-15T09:47:32.000Z</time>
      </trkpt>
      <trkpt lat="43.53774" lon="5.32113">
        <ele>261.5025</ele>
        <time>2023-03-15T09:47:34.000Z</time>
      </trkpt>
      <trkpt lat="43.53776" lon="5.32114">
        <ele>261.83502</ele>
        <time>2023-03-15T09:47:36.000Z</time>
      </trkpt>
      <trkpt lat="43.53778" lon="5.32116">
        <ele>262.12927</ele>
        <time>2023-03-15T09:47:38.000Z</time>
      </trkpt>
      <trkpt lat="43.53779" lon="5.32118">
        <ele>262.40402</ele>
        <time>2023-03-15T09:47:41.000Z</time>
      </trkpt>
      <trkpt lat="43.53781" lon="5.32121">
        <ele>262.6767</ele>
        <time>2023-03-15T09:47:43.000Z</time>
      </trkpt>
      <trkpt lat="43.53783" lon="5.32123">
        <ele>262.97458</ele>
        <time>2023-03-15T09:47:45.000Z</time>
      </trkpt>
      <trkpt lat="43.53784" lon="5.32124">
        <ele>263.24411</ele>
        <time>2023-03-15T09:47:47.000Z</time>
      </trkpt>
      <trkpt lat="43.53786" lon="5.32126">
        <ele>263.50171</ele>
        <time>2023-03-15T09:47:49.000Z</time>
      </trkpt>
      <trkpt lat="43.53788" lon="5.32128">
        <ele>263.75024</ele>
        <time>2023-03-15T09:47:51.000Z</time>
      </trkpt>
      <trkpt lat="43.5379" lon="5.3213">
        <ele>264.01813</ele>
        <time>2023-03-15T09:47:54.000Z</time>
      </trkpt>
      <trkpt lat="43.53792" lon="5.32132">
        <ele>264.25848</ele>
        <time>2023-03-15T09:47:56.000Z</time>
      </trkpt>
      <trkpt lat="43.53793" lon="5.32135">
        <ele>264.45517</ele>
        <time>2023-03-15T09:47:58.000Z</time>
      </trkpt>
      <trkpt lat="43.53795" lon="5.32137">
        <ele>264.64911</ele>
        <time>2023-03-15T09:48:00.000Z</time>
      </trkpt>
      <trkpt lat="43.53797" lon="5.32139">
        <ele>264.7832</ele>
        <time>2023-03-15T09:48:03.000Z</time>
      </trkpt>
      <trkpt lat="43.53798" lon="5.32141">
        <ele>264.89911</ele>
        <time>2023-03-15T09:48:05.000Z</time>
      </trkpt>
      <trkpt lat="43.53799" lon="5.32143">
        <ele>264.9971</ele>
        <time>2023-03-15T09:48:07.000Z</time>
      </trkpt>
      <trkpt lat="43.53801" lon="5.32146">
        <ele>265.10245</ele>
        <time>2023-03-15T09:48:09.000Z</time>
      </trkpt>
      <trkpt lat="43.53803" lon="5.32148">
        <ele>265.24359</ele>
        <time>2023-03-15T09:48:11.000Z</time>
      </trkpt>
      <trkpt lat="43.53804" lon="5.3215">
        <ele>265.32858</ele>
        <time>2023-03-15T09:48:13.000Z</time>
      </trkpt>
      <trkpt lat="43.53806" lon="5.32151">
        <ele>265.42386</ele>
        <time>2023-03-15T09:48:15.000Z</time>
      </trkpt>
      <trkpt lat="43.53809" lon="5.32153">
        <ele>265.52631</ele>
        <time>2023-03-15T09:48:18.000Z</time>
      </trkpt>
      <trkpt lat="43.5381" lon="5.32155">
        <ele>265.64331</ele>
        <time>2023-03-15T09:48:20.000Z</time>
      </trkpt>
      <trkpt lat="43.53811" lon="5.32158">
        <ele>265.7713</ele>
        <time>2023-03-15T09:48:22.000Z</time>
      </trkpt>
      <trkpt lat="43.53813" lon="5.3216">
        <ele>265.88727</ele>
        <time>2023-03-15T09:48:24.000Z</time>
      </trkpt>
      <trkpt lat="43.53814" lon="5.32162">
        <ele>265.97534</ele>
        <time>2023-03-15T09:48:26.000Z</time>
      </trkpt>
      <trkpt lat="43.53816" lon="5.32164">
        <ele>266.04477</ele>
        <time>2023-03-15T09:48:28.000Z</time>
      </trkpt>
      <trkpt lat="43.53817" lon="5.32166">
        <ele>266.16309</ele>
        <time>2023-03-15T09:48:30.000Z</time>
      </trkpt>
      <trkpt lat="43.53818" lon="5.32169">
        <ele>266.18518</ele>
        <time>2023-03-15T09:48:32.000Z</time>
      </trkpt>
      <trkpt lat="43.5382" lon="5.32171">
        <ele>266.2034</ele>
        <time>2023-03-15T09:48:34.000Z</time>
      </trkpt>
      <trkpt lat="43.53822" lon="5.32173">
        <ele>266.16711</ele>
        <time>2023-03-15T09:48:36.000Z</time>
      </trkpt>
      <trkpt lat="43.53823" lon="5.32176">
        <ele>266.16211</ele>
        <time>2023-03-15T09:48:38.000Z</time>
      </trkpt>
      <trkpt lat="43.53825" lon="5.32178">
        <ele>266.1142</ele>
        <time>2023-03-15T09:48:40.000Z</time>
      </trkpt>
      <trkpt lat="43.53827" lon="5.3218">
        <ele>266.06708</ele>
        <time>2023-03-15T09:48:42.000Z</time>
      </trkpt>
      <trkpt lat="43.53828" lon="5.32182">
        <ele>266.08041</ele>
        <time>2023-03-15T09:48:44.000Z</time>
      </trkpt>
      <trkpt lat="43.5383" lon="5.32184">
        <ele>266.0744</ele>
        <time>2023-03-15T09:48:46.000Z</time>
      </trkpt>
      <trkpt lat="43.53832" lon="5.32186">
        <ele>266.08749</ele>
        <time>2023-03-15T09:48:48.000Z</time>
      </trkpt>
      <trkpt lat="43.53833" lon="5.32189">
        <ele>266.14819</ele>
        <time>2023-03-15T09:48:50.000Z</time>
      </trkpt>
      <trkpt lat="43.53835" lon="5.32191">
        <ele>266.23615</ele>
        <time>2023-03-15T09:48:52.000Z</time>
      </trkpt>
      <trkpt lat="43.53837" lon="5.32193">
        <ele>266.38446</ele>
        <time>2023-03-15T09:48:54.000Z</time>
      </trkpt>
      <trkpt lat="43.53839" lon="5.32195">
        <ele>266.5473</ele>
        <time>2023-03-15T09:48:56.000Z</time>
      </trkpt>
      <trkpt lat="43.5384" lon="5.32197">
        <ele>266.6907</ele>
        <time>2023-03-15T09:48:58.000Z</time>
      </trkpt>
      <trkpt lat="43.53842" lon="5.32199">
        <ele>266.71603</ele>
        <time>2023-03-15T09:49:01.000Z</time>
      </trkpt>
      <trkpt lat="43.53843" lon="5.32201">
        <ele>266.75018</ele>
        <time>2023-03-15T09:49:04.000Z</time>
      </trkpt>
      <trkpt lat="43.53845" lon="5.32203">
        <ele>266.81403</ele>
        <time>2023-03-15T09:49:06.000Z</time>
      </trkpt>
      <trkpt lat="43.53847" lon="5.32205">
        <ele>266.92578</ele>
        <time>2023-03-15T09:49:08.000Z</time>
      </trkpt>
      <trkpt lat="43.53848" lon="5.32207">
        <ele>267.10889</ele>
        <time>2023-03-15T09:49:10.000Z</time>
      </trkpt>
      <trkpt lat="43.5385" lon="5.32209">
        <ele>267.28754</ele>
        <time>2023-03-15T09:49:12.000Z</time>
      </trkpt>
      <trkpt lat="43.53852" lon="5.32211">
        <ele>267.48853</ele>
        <time>2023-03-15T09:49:14.000Z</time>
      </trkpt>
      <trkpt lat="43.53853" lon="5.32213">
        <ele>267.65472</ele>
        <time>2023-03-15T09:49:16.000Z</time>
      </trkpt>
      <trkpt lat="43.53855" lon="5.32216">
        <ele>267.86606</ele>
        <time>2023-03-15T09:49:18.000Z</time>
      </trkpt>
      <trkpt lat="43.53856" lon="5.32219">
        <ele>268.043</ele>
        <time>2023-03-15T09:49:20.000Z</time>
      </trkpt>
      <trkpt lat="43.53858" lon="5.32221">
        <ele>268.25629</ele>
        <time>2023-03-15T09:49:22.000Z</time>
      </trkpt>
      <trkpt lat="43.5386" lon="5.32224">
        <ele>268.42648</ele>
        <time>2023-03-15T09:49:24.000Z</time>
      </trkpt>
      <trkpt lat="43.53861" lon="5.32226">
        <ele>268.55054</ele>
        <time>2023-03-15T09:49:26.000Z</time>
      </trkpt>
      <trkpt lat="43.53863" lon="5.32228">
        <ele>268.67154</ele>
        <time>2023-03-15T09:49:28.000Z</time>
      </trkpt>
      <trkpt lat="43.53865" lon="5.32231">
        <ele>268.75351</ele>
        <time>2023-03-15T09:49:30.000Z</time>
      </trkpt>
      <trkpt lat="43.53866" lon="5.32233">
        <ele>268.81232</ele>
        <time>2023-03-15T09:49:32.000Z</time>
      </trkpt>
      <trkpt lat="43.53868" lon="5.32236">
        <ele>268.82248</ele>
        <time>2023-03-15T09:49:34.000Z</time>
      </trkpt>
      <trkpt lat="43.53869" lon="5.32238">
        <ele>268.81525</ele>
        <time>2023-03-15T09:49:36.000Z</time>
      </trkpt>
      <trkpt lat="43.53871" lon="5.32241">
        <ele>268.79352</ele>
        <time>2023-03-15T09:49:38.000Z</time>
      </trkpt>
      <trkpt lat="43.53872" lon="5.32243">
        <ele>268.8389</ele>
        <time>2023-03-15T09:49:40.000Z</time>
      </trkpt>
      <trkpt lat="43.53873" lon="5.32246">
        <ele>268.99365</ele>
        <time>2023-03-15T09:49:42.000Z</time>
      </trkpt>
      <trkpt lat="43.53875" lon="5.32248">
        <ele>269.14648</ele>
        <time>2023-03-15T09:49:44.000Z</time>
      </trkpt>
      <trkpt lat="43.53876" lon="5.3225">
        <ele>269.21967</ele>
        <time>2023-03-15T09:49:46.000Z</time>
      </trkpt>
      <trkpt lat="43.53877" lon="5.32252">
        <ele>269.28323</ele>
        <time>2023-03-15T09:49:48.000Z</time>
      </trkpt>
      <trkpt lat="43.53879" lon="5.32255">
        <ele>269.23346</ele>
        <time>2023-03-15T09:49:50.000Z</time>
      </trkpt>
      <trkpt lat="43.5388" lon="5.32258">
        <ele>269.13391</ele>
        <time>2023-03-15T09:49:52.000Z</time>
      </trkpt>
      <trkpt lat="43.53882" lon="5.3226">
        <ele>269.07822</ele>
        <time>2023-03-15T09:49:54.000Z</time>
      </trkpt>
      <trkpt lat="43.53883" lon="5.32262">
        <ele>269.05093</ele>
        <time>2023-03-15T09:49:56.000Z</time>
      </trkpt>
      <trkpt lat="43.53885" lon="5.32265">
        <ele>269.0155</ele>
        <time>2023-03-15T09:49:58.000Z</time>
      </trkpt>
      <trkpt lat="43.53887" lon="5.32267">
        <ele>269.0206</ele>
        <time>2023-03-15T09:50:01.000Z</time>
      </trkpt>
      <trkpt lat="43.53888" lon="5.3227">
        <ele>269.02319</ele>
        <time>2023-03-15T09:50:03.000Z</time>
      </trkpt>
      <trkpt lat="43.53889" lon="5.32273">
        <ele>269.03165</ele>
        <time>2023-03-15T09:50:05.000Z</time>
      </trkpt>
      <trkpt lat="43.53891" lon="5.32276">
        <ele>269.12543</ele>
        <time>2023-03-15T09:50:07.000Z</time>
      </trkpt>
      <trkpt lat="43.53893" lon="5.32278">
        <ele>269.21918</ele>
        <time>2023-03-15T09:50:09.000Z</time>
      </trkpt>
      <trkpt lat="43.53894" lon="5.3228">
        <ele>269.2894</ele>
        <time>2023-03-15T09:50:11.000Z</time>
      </trkpt>
      <trkpt lat="43.53895" lon="5.32283">
        <ele>269.28156</ele>
        <time>2023-03-15T09:50:13.000Z</time>
      </trkpt>
      <trkpt lat="43.53897" lon="5.32286">
        <ele>269.25269</ele>
        <time>2023-03-15T09:50:15.000Z</time>
      </trkpt>
      <trkpt lat="43.53898" lon="5.32289">
        <ele>269.1647</ele>
        <time>2023-03-15T09:50:17.000Z</time>
      </trkpt>
      <trkpt lat="43.539" lon="5.32291">
        <ele>269.14563</ele>
        <time>2023-03-15T09:50:19.000Z</time>
      </trkpt>
      <trkpt lat="43.53902" lon="5.32294">
        <ele>269.11383</ele>
        <time>2023-03-15T09:50:21.000Z</time>
      </trkpt>
      <trkpt lat="43.53903" lon="5.32296">
        <ele>269.09537</ele>
        <time>2023-03-15T09:50:23.000Z</time>
      </trkpt>
      <trkpt lat="43.53904" lon="5.32298">
        <ele>269.0643</ele>
        <time>2023-03-15T09:50:25.000Z</time>
      </trkpt>
      <trkpt lat="43.53906" lon="5.323">
        <ele>269.09579</ele>
        <time>2023-03-15T09:50:27.000Z</time>
      </trkpt>
      <trkpt lat="43.53907" lon="5.32302">
        <ele>269.08954</ele>
        <time>2023-03-15T09:50:29.000Z</time>
      </trkpt>
      <trkpt lat="43.53908" lon="5.32304">
        <ele>269.1214</ele>
        <time>2023-03-15T09:50:31.000Z</time>
      </trkpt>
      <trkpt lat="43.53909" lon="5.32306">
        <ele>269.19238</ele>
        <time>2023-03-15T09:50:33.000Z</time>
      </trkpt>
      <trkpt lat="43.53911" lon="5.32309">
        <ele>269.25873</ele>
        <time>2023-03-15T09:50:35.000Z</time>
      </trkpt>
      <trkpt lat="43.53913" lon="5.32311">
        <ele>269.31549</ele>
        <time>2023-03-15T09:50:37.000Z</time>
      </trkpt>
      <trkpt lat="43.53914" lon="5.32313">
        <ele>269.37021</ele>
        <time>2023-03-15T09:50:39.000Z</time>
      </trkpt>
      <trkpt lat="43.53915" lon="5.32316">
        <ele>269.38403</ele>
        <time>2023-03-15T09:50:41.000Z</time>
      </trkpt>
      <trkpt lat="43.53917" lon="5.32319">
        <ele>269.42096</ele>
        <time>2023-03-15T09:50:43.000Z</time>
      </trkpt>
      <trkpt lat="43.53918" lon="5.32321">
        <ele>269.46899</ele>
        <time>2023-03-15T09:50:45.000Z</time>
      </trkpt>
      <trkpt lat="43.53919" lon="5.32324">
        <ele>269.44989</ele>
        <time>2023-03-15T09:50:47.000Z</time>
      </trkpt>
      <trkpt lat="43.5392" lon="5.32327">
        <ele>269.44659</ele>
        <time>2023-03-15T09:50:50.000Z</time>
      </trkpt>
      <trkpt lat="43.53922" lon="5.3233">
        <ele>269.50958</ele>
        <time>2023-03-15T09:50:52.000Z</time>
      </trkpt>
      <trkpt lat="43.53923" lon="5.32334">
        <ele>269.62567</ele>
        <time>2023-03-15T09:50:54.000Z</time>
      </trkpt>
      <trkpt lat="43.53924" lon="5.32337">
        <ele>269.78799</ele>
        <time>2023-03-15T09:50:56.000Z</time>
      </trkpt>
      <trkpt lat="43.53926" lon="5.32339">
        <ele>269.99854</ele>
        <time>2023-03-15T09:50:58.000Z</time>
      </trkpt>
      <trkpt lat="43.53927" lon="5.32341">
        <ele>270.16476</ele>
        <time>2023-03-15T09:51:01.000Z</time>
      </trkpt>
      <trkpt lat="43.53929" lon="5.32344">
        <ele>270.3486</ele>
        <time>2023-03-15T09:51:04.000Z</time>
      </trkpt>
      <trkpt lat="43.5393" lon="5.32348">
        <ele>270.53775</ele>
        <time>2023-03-15T09:51:06.000Z</time>
      </trkpt>
      <trkpt lat="43.53931" lon="5.32351">
        <ele>270.75552</ele>
        <time>2023-03-15T09:51:08.000Z</time>
      </trkpt>
      <trkpt lat="43.53932" lon="5.32353">
        <ele>270.94965</ele>
        <time>2023-03-15T09:51:10.000Z</time>
      </trkpt>
      <trkpt lat="43.53933" lon="5.32356">
        <ele>271.11969</ele>
        <time>2023-03-15T09:51:12.000Z</time>
      </trkpt>
      <trkpt lat="43.53933" lon="5.32358">
        <ele>271.28513</ele>
        <time>2023-03-15T09:51:14.000Z</time>
      </trkpt>
      <trkpt lat="43.53934" lon="5.32361">
        <ele>271.46295</ele>
        <time>2023-03-15T09:51:16.000Z</time>
      </trkpt>
      <trkpt lat="43.53935" lon="5.32364">
        <ele>271.64163</ele>
        <time>2023-03-15T09:51:18.000Z</time>
      </trkpt>
      <trkpt lat="43.53935" lon="5.32367">
        <ele>271.82022</ele>
        <time>2023-03-15T09:51:20.000Z</time>
      </trkpt>
      <trkpt lat="43.53936" lon="5.3237">
        <ele>271.96533</ele>
        <time>2023-03-15T09:51:22.000Z</time>
      </trkpt>
      <trkpt lat="43.53937" lon="5.32373">
        <ele>272.09882</ele>
        <time>2023-03-15T09:51:24.000Z</time>
      </trkpt>
      <trkpt lat="43.53938" lon="5.32375">
        <ele>272.22382</ele>
        <time>2023-03-15T09:51:26.000Z</time>
      </trkpt>
      <trkpt lat="43.53939" lon="5.32378">
        <ele>272.34927</ele>
        <time>2023-03-15T09:51:28.000Z</time>
      </trkpt>
      <trkpt lat="43.5394" lon="5.32381">
        <ele>272.50241</ele>
        <time>2023-03-15T09:51:30.000Z</time>
      </trkpt>
      <trkpt lat="43.5394" lon="5.32384">
        <ele>272.61899</ele>
        <time>2023-03-15T09:51:32.000Z</time>
      </trkpt>
      <trkpt lat="43.53941" lon="5.32386">
        <ele>272.73764</ele>
        <time>2023-03-15T09:51:34.000Z</time>
      </trkpt>
      <trkpt lat="43.53942" lon="5.32389">
        <ele>272.84515</ele>
        <time>2023-03-15T09:51:36.000Z</time>
      </trkpt>
      <trkpt lat="43.53943" lon="5.32391">
        <ele>272.94662</ele>
        <time>2023-03-15T09:51:38.000Z</time>
      </trkpt>
      <trkpt lat="43.53944" lon="5.32394">
        <ele>273.02692</ele>
        <time>2023-03-15T09:51:40.000Z</time>
      </trkpt>
      <trkpt lat="43.53945" lon="5.32397">
        <ele>273.12943</ele>
        <time>2023-03-15T09:51:42.000Z</time>
      </trkpt>
      <trkpt lat="43.53946" lon="5.324">
        <ele>273.2338</ele>
        <time>2023-03-15T09:51:44.000Z</time>
      </trkpt>
      <trkpt lat="43.53947" lon="5.32403">
        <ele>273.33707</ele>
        <time>2023-03-15T09:51:46.000Z</time>
      </trkpt>
      <trkpt lat="43.53949" lon="5.32407">
        <ele>273.42255</ele>
        <time>2023-03-15T09:51:48.000Z</time>
      </trkpt>
      <trkpt lat="43.5395" lon="5.3241">
        <ele>273.52701</ele>
        <time>2023-03-15T09:51:50.000Z</time>
      </trkpt>
      <trkpt lat="43.53951" lon="5.32414">
        <ele>273.67426</ele>
        <time>2023-03-15T09:51:52.000Z</time>
      </trkpt>
      <trkpt lat="43.53952" lon="5.32417">
        <ele>273.85034</ele>
        <time>2023-03-15T09:51:54.000Z</time>
      </trkpt>
      <trkpt lat="43.53954" lon="5.3242">
        <ele>274.04013</ele>
        <time>2023-03-15T09:51:56.000Z</time>
      </trkpt>
      <trkpt lat="43.53955" lon="5.32423">
        <ele>274.24487</ele>
        <time>2023-03-15T09:51:58.000Z</time>
      </trkpt>
      <trkpt lat="43.53956" lon="5.32426">
        <ele>274.45224</ele>
        <time>2023-03-15T09:52:00.000Z</time>
      </trkpt>
      <trkpt lat="43.53957" lon="5.32429">
        <ele>274.68375</ele>
        <time>2023-03-15T09:52:02.000Z</time>
      </trkpt>
      <trkpt lat="43.53959" lon="5.32432">
        <ele>274.88702</ele>
        <time>2023-03-15T09:52:04.000Z</time>
      </trkpt>
      <trkpt lat="43.5396" lon="5.32435">
        <ele>275.06799</ele>
        <time>2023-03-15T09:52:06.000Z</time>
      </trkpt>
      <trkpt lat="43.53961" lon="5.32437">
        <ele>275.24979</ele>
        <time>2023-03-15T09:52:08.000Z</time>
      </trkpt>
      <trkpt lat="43.53962" lon="5.3244">
        <ele>275.36362</ele>
        <time>2023-03-15T09:52:10.000Z</time>
      </trkpt>
      <trkpt lat="43.53963" lon="5.32443">
        <ele>275.48837</ele>
        <time>2023-03-15T09:52:12.000Z</time>
      </trkpt>
      <trkpt lat="43.53964" lon="5.32445">
        <ele>275.60159</ele>
        <time>2023-03-15T09:52:14.000Z</time>
      </trkpt>
      <trkpt lat="43.53965" lon="5.32448">
        <ele>275.71173</ele>
        <time>2023-03-15T09:52:16.000Z</time>
      </trkpt>
      <trkpt lat="43.53966" lon="5.3245">
        <ele>275.82385</ele>
        <time>2023-03-15T09:52:18.000Z</time>
      </trkpt>
      <trkpt lat="43.53966" lon="5.32453">
        <ele>275.94418</ele>
        <time>2023-03-15T09:52:20.000Z</time>
      </trkpt>
      <trkpt lat="43.53967" lon="5.32456">
        <ele>276.03281</ele>
        <time>2023-03-15T09:52:22.000Z</time>
      </trkpt>
      <trkpt lat="43.53968" lon="5.32458">
        <ele>276.09308</ele>
        <time>2023-03-15T09:52:24.000Z</time>
      </trkpt>
      <trkpt lat="43.53968" lon="5.32461">
        <ele>276.08075</ele>
        <time>2023-03-15T09:52:26.000Z</time>
      </trkpt>
      <trkpt lat="43.53969" lon="5.32464">
        <ele>276.04852</ele>
        <time>2023-03-15T09:52:28.000Z</time>
      </trkpt>
      <trkpt lat="43.53969" lon="5.32467">
        <ele>276.03366</ele>
        <time>2023-03-15T09:52:30.000Z</time>
      </trkpt>
      <trkpt lat="43.5397" lon="5.3247">
        <ele>276.01645</ele>
        <time>2023-03-15T09:52:32.000Z</time>
      </trkpt>
      <trkpt lat="43.53971" lon="5.32473">
        <ele>275.97644</ele>
        <time>2023-03-15T09:52:34.000Z</time>
      </trkpt>
      <trkpt lat="43.53971" lon="5.32476">
        <ele>275.92108</ele>
        <time>2023-03-15T09:52:36.000Z</time>
      </trkpt>
      <trkpt lat="43.53972" lon="5.32479">
        <ele>275.83652</ele>
        <time>2023-03-15T09:52:38.000Z</time>
      </trkpt>
      <trkpt lat="43.53972" lon="5.32482">
        <ele>275.74048</ele>
        <time>2023-03-15T09:52:40.000Z</time>
      </trkpt>
      <trkpt lat="43.53973" lon="5.32485">
        <ele>275.61078</ele>
        <time>2023-03-15T09:52:42.000Z</time>
      </trkpt>
      <trkpt lat="43.53973" lon="5.32488">
        <ele>275.47916</ele>
        <time>2023-03-15T09:52:44.000Z</time>
      </trkpt>
      <trkpt lat="43.53973" lon="5.32491">
        <ele>275.33136</ele>
        <time>2023-03-15T09:52:46.000Z</time>
      </trkpt>
      <trkpt lat="43.53974" lon="5.32494">
        <ele>275.17868</ele>
        <time>2023-03-15T09:52:48.000Z</time>
      </trkpt>
      <trkpt lat="43.53974" lon="5.32497">
        <ele>275.03351</ele>
        <time>2023-03-15T09:52:50.000Z</time>
      </trkpt>
      <trkpt lat="43.53974" lon="5.325">
        <ele>274.91998</ele>
        <time>2023-03-15T09:52:52.000Z</time>
      </trkpt>
      <trkpt lat="43.53974" lon="5.32502">
        <ele>274.79205</ele>
        <time>2023-03-15T09:52:54.000Z</time>
      </trkpt>
      <trkpt lat="43.53974" lon="5.32505">
        <ele>274.69672</ele>
        <time>2023-03-15T09:52:56.000Z</time>
      </trkpt>
      <trkpt lat="43.53974" lon="5.32509">
        <ele>274.61005</ele>
        <time>2023-03-15T09:52:58.000Z</time>
      </trkpt>
      <trkpt lat="43.53974" lon="5.32512">
        <ele>274.56085</ele>
        <time>2023-03-15T09:53:00.000Z</time>
      </trkpt>
      <trkpt lat="43.53973" lon="5.32516">
        <ele>274.56955</ele>
        <time>2023-03-15T09:53:02.000Z</time>
      </trkpt>
      <trkpt lat="43.53974" lon="5.32519">
        <ele>274.55725</ele>
        <time>2023-03-15T09:53:04.000Z</time>
      </trkpt>
      <trkpt lat="43.53974" lon="5.32523">
        <ele>274.58832</ele>
        <time>2023-03-15T09:53:06.000Z</time>
      </trkpt>
      <trkpt lat="43.53974" lon="5.32526">
        <ele>274.61951</ele>
        <time>2023-03-15T09:53:08.000Z</time>
      </trkpt>
      <trkpt lat="43.53974" lon="5.32529">
        <ele>274.65314</ele>
        <time>2023-03-15T09:53:10.000Z</time>
      </trkpt>
      <trkpt lat="43.53974" lon="5.32532">
        <ele>274.68597</ele>
        <time>2023-03-15T09:53:12.000Z</time>
      </trkpt>
      <trkpt lat="43.53974" lon="5.32535">
        <ele>274.70502</ele>
        <time>2023-03-15T09:53:14.000Z</time>
      </trkpt>
      <trkpt lat="43.53974" lon="5.32538">
        <ele>274.67749</ele>
        <time>2023-03-15T09:53:16.000Z</time>
      </trkpt>
      <trkpt lat="43.53975" lon="5.32541">
        <ele>274.66599</ele>
        <time>2023-03-15T09:53:18.000Z</time>
      </trkpt>
      <trkpt lat="43.53975" lon="5.32544">
        <ele>274.66644</ele>
        <time>2023-03-15T09:53:20.000Z</time>
      </trkpt>
      <trkpt lat="43.53974" lon="5.32548">
        <ele>274.7095</ele>
        <time>2023-03-15T09:53:22.000Z</time>
      </trkpt>
      <trkpt lat="43.53974" lon="5.32551">
        <ele>274.74741</ele>
        <time>2023-03-15T09:53:24.000Z</time>
      </trkpt>
      <trkpt lat="43.53974" lon="5.32554">
        <ele>274.85931</ele>
        <time>2023-03-15T09:53:26.000Z</time>
      </trkpt>
      <trkpt lat="43.53974" lon="5.32558">
        <ele>274.93561</ele>
        <time>2023-03-15T09:53:28.000Z</time>
      </trkpt>
      <trkpt lat="43.53975" lon="5.32561">
        <ele>274.96405</ele>
        <time>2023-03-15T09:53:30.000Z</time>
      </trkpt>
      <trkpt lat="43.53975" lon="5.32564">
        <ele>274.9613</ele>
        <time>2023-03-15T09:53:32.000Z</time>
      </trkpt>
      <trkpt lat="43.53976" lon="5.32567">
        <ele>274.93381</ele>
        <time>2023-03-15T09:53:34.000Z</time>
      </trkpt>
      <trkpt lat="43.53976" lon="5.32569">
        <ele>274.86578</ele>
        <time>2023-03-15T09:53:36.000Z</time>
      </trkpt>
      <trkpt lat="43.53976" lon="5.32573">
        <ele>274.76822</ele>
        <time>2023-03-15T09:53:39.000Z</time>
      </trkpt>
      <trkpt lat="43.53976" lon="5.32576">
        <ele>274.66473</ele>
        <time>2023-03-15T09:53:41.000Z</time>
      </trkpt>
      <trkpt lat="43.53977" lon="5.32579">
        <ele>274.54141</ele>
        <time>2023-03-15T09:53:43.000Z</time>
      </trkpt>
      <trkpt lat="43.53977" lon="5.32583">
        <ele>274.43765</ele>
        <time>2023-03-15T09:53:45.000Z</time>
      </trkpt>
      <trkpt lat="43.53978" lon="5.32586">
        <ele>274.35962</ele>
        <time>2023-03-15T09:53:47.000Z</time>
      </trkpt>
      <trkpt lat="43.53978" lon="5.3259">
        <ele>274.31015</ele>
        <time>2023-03-15T09:53:49.000Z</time>
      </trkpt>
      <trkpt lat="43.53978" lon="5.32593">
        <ele>274.22888</ele>
        <time>2023-03-15T09:53:51.000Z</time>
      </trkpt>
      <trkpt lat="43.53978" lon="5.32596">
        <ele>274.12433</ele>
        <time>2023-03-15T09:53:53.000Z</time>
      </trkpt>
      <trkpt lat="43.53978" lon="5.32599">
        <ele>274.01797</ele>
        <time>2023-03-15T09:53:55.000Z</time>
      </trkpt>
      <trkpt lat="43.53978" lon="5.32601">
        <ele>273.9231</ele>
        <time>2023-03-15T09:53:57.000Z</time>
      </trkpt>
      <trkpt lat="43.53977" lon="5.32604">
        <ele>273.80231</ele>
        <time>2023-03-15T09:54:00.000Z</time>
      </trkpt>
      <trkpt lat="43.53977" lon="5.32608">
        <ele>273.66281</ele>
        <time>2023-03-15T09:54:03.000Z</time>
      </trkpt>
      <trkpt lat="43.53977" lon="5.32611">
        <ele>273.47116</ele>
        <time>2023-03-15T09:54:05.000Z</time>
      </trkpt>
      <trkpt lat="43.53977" lon="5.32614">
        <ele>273.31256</ele>
        <time>2023-03-15T09:54:07.000Z</time>
      </trkpt>
      <trkpt lat="43.53976" lon="5.32617">
        <ele>273.10141</ele>
        <time>2023-03-15T09:54:09.000Z</time>
      </trkpt>
      <trkpt lat="43.53976" lon="5.3262">
        <ele>272.90579</ele>
        <time>2023-03-15T09:54:11.000Z</time>
      </trkpt>
      <trkpt lat="43.53975" lon="5.32623">
        <ele>272.75696</ele>
        <time>2023-03-15T09:54:14.000Z</time>
      </trkpt>
      <trkpt lat="43.53975" lon="5.32625">
        <ele>272.55878</ele>
        <time>2023-03-15T09:54:16.000Z</time>
      </trkpt>
      <trkpt lat="43.53974" lon="5.32628">
        <ele>272.35248</ele>
        <time>2023-03-15T09:54:18.000Z</time>
      </trkpt>
      <trkpt lat="43.53973" lon="5.32631">
        <ele>272.15549</ele>
        <time>2023-03-15T09:54:20.000Z</time>
      </trkpt>
      <trkpt lat="43.53972" lon="5.32634">
        <ele>271.9726</ele>
        <time>2023-03-15T09:54:22.000Z</time>
      </trkpt>
      <trkpt lat="43.53971" lon="5.32636">
        <ele>271.73672</ele>
        <time>2023-03-15T09:54:24.000Z</time>
      </trkpt>
      <trkpt lat="43.5397" lon="5.32639">
        <ele>271.45465</ele>
        <time>2023-03-15T09:54:26.000Z</time>
      </trkpt>
      <trkpt lat="43.5397" lon="5.32642">
        <ele>271.18738</ele>
        <time>2023-03-15T09:54:28.000Z</time>
      </trkpt>
      <trkpt lat="43.53969" lon="5.32645">
        <ele>270.88715</ele>
        <time>2023-03-15T09:54:30.000Z</time>
      </trkpt>
      <trkpt lat="43.53968" lon="5.32647">
        <ele>270.5387</ele>
        <time>2023-03-15T09:54:32.000Z</time>
      </trkpt>
      <trkpt lat="43.53967" lon="5.3265">
        <ele>270.13846</ele>
        <time>2023-03-15T09:54:34.000Z</time>
      </trkpt>
      <trkpt lat="43.53966" lon="5.32653">
        <ele>269.78293</ele>
        <time>2023-03-15T09:54:36.000Z</time>
      </trkpt>
      <trkpt lat="43.53965" lon="5.32655">
        <ele>269.45636</ele>
        <time>2023-03-15T09:54:38.000Z</time>
      </trkpt>
      <trkpt lat="43.53965" lon="5.32658">
        <ele>269.10876</ele>
        <time>2023-03-15T09:54:40.000Z</time>
      </trkpt>
      <trkpt lat="43.53964" lon="5.3266">
        <ele>268.74246</ele>
        <time>2023-03-15T09:54:42.000Z</time>
      </trkpt>
      <trkpt lat="43.53964" lon="5.32663">
        <ele>268.38535</ele>
        <time>2023-03-15T09:54:44.000Z</time>
      </trkpt>
      <trkpt lat="43.53963" lon="5.32666">
        <ele>268.01556</ele>
        <time>2023-03-15T09:54:47.000Z</time>
      </trkpt>
      <trkpt lat="43.53962" lon="5.32669">
        <ele>267.6452</ele>
        <time>2023-03-15T09:54:49.000Z</time>
      </trkpt>
      <trkpt lat="43.53961" lon="5.32672">
        <ele>267.24774</ele>
        <time>2023-03-15T09:54:52.000Z</time>
      </trkpt>
      <trkpt lat="43.5396" lon="5.32674">
        <ele>266.85361</ele>
        <time>2023-03-15T09:54:54.000Z</time>
      </trkpt>
      <trkpt lat="43.5396" lon="5.32677">
        <ele>266.47083</ele>
        <time>2023-03-15T09:54:56.000Z</time>
      </trkpt>
      <trkpt lat="43.53959" lon="5.32679">
        <ele>266.11481</ele>
        <time>2023-03-15T09:54:58.000Z</time>
      </trkpt>
      <trkpt lat="43.53959" lon="5.32682">
        <ele>265.74884</ele>
        <time>2023-03-15T09:55:00.000Z</time>
      </trkpt>
      <trkpt lat="43.53958" lon="5.32685">
        <ele>265.36295</ele>
        <time>2023-03-15T09:55:02.000Z</time>
      </trkpt>
      <trkpt lat="43.53958" lon="5.32688">
        <ele>264.93149</ele>
        <time>2023-03-15T09:55:04.000Z</time>
      </trkpt>
      <trkpt lat="43.53957" lon="5.3269">
        <ele>264.51144</ele>
        <time>2023-03-15T09:55:06.000Z</time>
      </trkpt>
      <trkpt lat="43.53957" lon="5.32693">
        <ele>264.065</ele>
        <time>2023-03-15T09:55:08.000Z</time>
      </trkpt>
      <trkpt lat="43.53957" lon="5.32696">
        <ele>263.58612</ele>
        <time>2023-03-15T09:55:10.000Z</time>
      </trkpt>
      <trkpt lat="43.53957" lon="5.32699">
        <ele>263.10248</ele>
        <time>2023-03-15T09:55:12.000Z</time>
      </trkpt>
      <trkpt lat="43.53956" lon="5.32701">
        <ele>262.62253</ele>
        <time>2023-03-15T09:55:14.000Z</time>
      </trkpt>
      <trkpt lat="43.53956" lon="5.32704">
        <ele>262.18036</ele>
        <time>2023-03-15T09:55:16.000Z</time>
      </trkpt>
      <trkpt lat="43.53956" lon="5.32707">
        <ele>261.67548</ele>
        <time>2023-03-15T09:55:18.000Z</time>
      </trkpt>
      <trkpt lat="43.53956" lon="5.32711">
        <ele>261.1521</ele>
        <time>2023-03-15T09:55:20.000Z</time>
      </trkpt>
      <trkpt lat="43.53956" lon="5.32714">
        <ele>260.64023</ele>
        <time>2023-03-15T09:55:22.000Z</time>
      </trkpt>
      <trkpt lat="43.53956" lon="5.32717">
        <ele>260.13434</ele>
        <time>2023-03-15T09:55:24.000Z</time>
      </trkpt>
      <trkpt lat="43.53956" lon="5.32721">
        <ele>259.62616</ele>
        <time>2023-03-15T09:55:26.000Z</time>
      </trkpt>
      <trkpt lat="43.53957" lon="5.32724">
        <ele>259.15268</ele>
        <time>2023-03-15T09:55:28.000Z</time>
      </trkpt>
      <trkpt lat="43.53957" lon="5.32727">
        <ele>258.70743</ele>
        <time>2023-03-15T09:55:30.000Z</time>
      </trkpt>
      <trkpt lat="43.53957" lon="5.32731">
        <ele>258.30923</ele>
        <time>2023-03-15T09:55:32.000Z</time>
      </trkpt>
      <trkpt lat="43.53958" lon="5.32734">
        <ele>257.9343</ele>
        <time>2023-03-15T09:55:34.000Z</time>
      </trkpt>
      <trkpt lat="43.53958" lon="5.32737">
        <ele>257.58319</ele>
        <time>2023-03-15T09:55:36.000Z</time>
      </trkpt>
      <trkpt lat="43.53958" lon="5.3274">
        <ele>257.31085</ele>
        <time>2023-03-15T09:55:38.000Z</time>
      </trkpt>
      <trkpt lat="43.53958" lon="5.32743">
        <ele>257.08405</ele>
        <time>2023-03-15T09:55:40.000Z</time>
      </trkpt>
      <trkpt lat="43.53958" lon="5.32746">
        <ele>256.84137</ele>
        <time>2023-03-15T09:55:42.000Z</time>
      </trkpt>
      <trkpt lat="43.53957" lon="5.32748">
        <ele>256.62976</ele>
        <time>2023-03-15T09:55:44.000Z</time>
      </trkpt>
      <trkpt lat="43.53958" lon="5.32752">
        <ele>256.46466</ele>
        <time>2023-03-15T09:55:47.000Z</time>
      </trkpt>
      <trkpt lat="43.53959" lon="5.32755">
        <ele>256.35931</ele>
        <time>2023-03-15T09:55:49.000Z</time>
      </trkpt>
      <trkpt lat="43.5396" lon="5.32759">
        <ele>256.25391</ele>
        <time>2023-03-15T09:55:51.000Z</time>
      </trkpt>
      <trkpt lat="43.5396" lon="5.32762">
        <ele>256.17593</ele>
        <time>2023-03-15T09:55:53.000Z</time>
      </trkpt>
      <trkpt lat="43.5396" lon="5.32765">
        <ele>256.12283</ele>
        <time>2023-03-15T09:55:55.000Z</time>
      </trkpt>
      <trkpt lat="43.5396" lon="5.32768">
        <ele>256.06445</ele>
        <time>2023-03-15T09:55:57.000Z</time>
      </trkpt>
      <trkpt lat="43.5396" lon="5.32772">
        <ele>256.01514</ele>
        <time>2023-03-15T09:55:59.000Z</time>
      </trkpt>
      <trkpt lat="43.5396" lon="5.32775">
        <ele>255.9729</ele>
        <time>2023-03-15T09:56:01.000Z</time>
      </trkpt>
      <trkpt lat="43.5396" lon="5.32778">
        <ele>255.99007</ele>
        <time>2023-03-15T09:56:03.000Z</time>
      </trkpt>
      <trkpt lat="43.5396" lon="5.32782">
        <ele>256.03107</ele>
        <time>2023-03-15T09:56:05.000Z</time>
      </trkpt>
      <trkpt lat="43.5396" lon="5.32785">
        <ele>256.08585</ele>
        <time>2023-03-15T09:56:07.000Z</time>
      </trkpt>
      <trkpt lat="43.53959" lon="5.32787">
        <ele>256.14081</ele>
        <time>2023-03-15T09:56:09.000Z</time>
      </trkpt>
      <trkpt lat="43.53959" lon="5.32791">
        <ele>256.18188</ele>
        <time>2023-03-15T09:56:11.000Z</time>
      </trkpt>
      <trkpt lat="43.53959" lon="5.32794">
        <ele>256.21689</ele>
        <time>2023-03-15T09:56:13.000Z</time>
      </trkpt>
      <trkpt lat="43.53958" lon="5.32797">
        <ele>256.19598</ele>
        <time>2023-03-15T09:56:15.000Z</time>
      </trkpt>
      <trkpt lat="43.53958" lon="5.328">
        <ele>256.16837</ele>
        <time>2023-03-15T09:56:17.000Z</time>
      </trkpt>
      <trkpt lat="43.53957" lon="5.32802">
        <ele>256.08771</ele>
        <time>2023-03-15T09:56:19.000Z</time>
      </trkpt>
      <trkpt lat="43.53957" lon="5.32805">
        <ele>255.99927</ele>
        <time>2023-03-15T09:56:21.000Z</time>
      </trkpt>
      <trkpt lat="43.53956" lon="5.32808">
        <ele>255.96037</ele>
        <time>2023-03-15T09:56:23.000Z</time>
      </trkpt>
      <trkpt lat="43.53956" lon="5.32811">
        <ele>255.92085</ele>
        <time>2023-03-15T09:56:25.000Z</time>
      </trkpt>
      <trkpt lat="43.53956" lon="5.32814">
        <ele>255.85083</ele>
        <time>2023-03-15T09:56:27.000Z</time>
      </trkpt>
      <trkpt lat="43.53955" lon="5.32817">
        <ele>255.74287</ele>
        <time>2023-03-15T09:56:29.000Z</time>
      </trkpt>
      <trkpt lat="43.53955" lon="5.32819">
        <ele>255.65784</ele>
        <time>2023-03-15T09:56:31.000Z</time>
      </trkpt>
      <trkpt lat="43.53955" lon="5.32823">
        <ele>255.61621</ele>
        <time>2023-03-15T09:56:33.000Z</time>
      </trkpt>
      <trkpt lat="43.53956" lon="5.32826">
        <ele>255.52499</ele>
        <time>2023-03-15T09:56:35.000Z</time>
      </trkpt>
      <trkpt lat="43.53955" lon="5.32829">
        <ele>255.42203</ele>
        <time>2023-03-15T09:56:37.000Z</time>
      </trkpt>
      <trkpt lat="43.53955" lon="5.32832">
        <ele>255.29434</ele>
        <time>2023-03-15T09:56:39.000Z</time>
      </trkpt>
      <trkpt lat="43.53955" lon="5.32835">
        <ele>255.14082</ele>
        <time>2023-03-15T09:56:41.000Z</time>
      </trkpt>
      <trkpt lat="43.53954" lon="5.32838">
        <ele>254.92236</ele>
        <time>2023-03-15T09:56:43.000Z</time>
      </trkpt>
      <trkpt lat="43.53954" lon="5.3284">
        <ele>254.66321</ele>
        <time>2023-03-15T09:56:45.000Z</time>
      </trkpt>
      <trkpt lat="43.53954" lon="5.32843">
        <ele>254.45499</ele>
        <time>2023-03-15T09:56:47.000Z</time>
      </trkpt>
      <trkpt lat="43.53954" lon="5.32846">
        <ele>254.24905</ele>
        <time>2023-03-15T09:56:49.000Z</time>
      </trkpt>
      <trkpt lat="43.53954" lon="5.32849">
        <ele>254.01704</ele>
        <time>2023-03-15T09:56:51.000Z</time>
      </trkpt>
      <trkpt lat="43.53954" lon="5.32852">
        <ele>253.71687</ele>
        <time>2023-03-15T09:56:53.000Z</time>
      </trkpt>
      <trkpt lat="43.53954" lon="5.32855">
        <ele>253.5065</ele>
        <time>2023-03-15T09:56:55.000Z</time>
      </trkpt>
      <trkpt lat="43.53954" lon="5.32857">
        <ele>253.30217</ele>
        <time>2023-03-15T09:56:57.000Z</time>
      </trkpt>
      <trkpt lat="43.53954" lon="5.32861">
        <ele>253.10678</ele>
        <time>2023-03-15T09:57:00.000Z</time>
      </trkpt>
      <trkpt lat="43.53953" lon="5.32865">
        <ele>252.87143</ele>
        <time>2023-03-15T09:57:03.000Z</time>
      </trkpt>
      <trkpt lat="43.53953" lon="5.32867">
        <ele>252.65622</ele>
        <time>2023-03-15T09:57:05.000Z</time>
      </trkpt>
      <trkpt lat="43.53953" lon="5.3287">
        <ele>252.47749</ele>
        <time>2023-03-15T09:57:07.000Z</time>
      </trkpt>
      <trkpt lat="43.53953" lon="5.32873">
        <ele>252.31628</ele>
        <time>2023-03-15T09:57:09.000Z</time>
      </trkpt>
      <trkpt lat="43.53953" lon="5.32877">
        <ele>252.17549</ele>
        <time>2023-03-15T09:57:11.000Z</time>
      </trkpt>
      <trkpt lat="43.53953" lon="5.3288">
        <ele>251.98837</ele>
        <time>2023-03-15T09:57:13.000Z</time>
      </trkpt>
      <trkpt lat="43.53953" lon="5.32883">
        <ele>251.75252</ele>
        <time>2023-03-15T09:57:15.000Z</time>
      </trkpt>
      <trkpt lat="43.53953" lon="5.32886">
        <ele>251.5173</ele>
        <time>2023-03-15T09:57:17.000Z</time>
      </trkpt>
      <trkpt lat="43.53953" lon="5.32889">
        <ele>251.2961</ele>
        <time>2023-03-15T09:57:19.000Z</time>
      </trkpt>
      <trkpt lat="43.53952" lon="5.32892">
        <ele>251.0968</ele>
        <time>2023-03-15T09:57:22.000Z</time>
      </trkpt>
      <trkpt lat="43.53952" lon="5.32895">
        <ele>250.93501</ele>
        <time>2023-03-15T09:57:24.000Z</time>
      </trkpt>
      <trkpt lat="43.53952" lon="5.32898">
        <ele>250.76758</ele>
        <time>2023-03-15T09:57:26.000Z</time>
      </trkpt>
      <trkpt lat="43.53951" lon="5.329">
        <ele>250.58781</ele>
        <time>2023-03-15T09:57:28.000Z</time>
      </trkpt>
      <trkpt lat="43.53951" lon="5.32903">
        <ele>250.36313</ele>
        <time>2023-03-15T09:57:30.000Z</time>
      </trkpt>
      <trkpt lat="43.53952" lon="5.32906">
        <ele>250.13892</ele>
        <time>2023-03-15T09:57:32.000Z</time>
      </trkpt>
      <trkpt lat="43.53951" lon="5.32909">
        <ele>249.91045</ele>
        <time>2023-03-15T09:57:34.000Z</time>
      </trkpt>
      <trkpt lat="43.53951" lon="5.32911">
        <ele>249.73071</ele>
        <time>2023-03-15T09:57:36.000Z</time>
      </trkpt>
      <trkpt lat="43.53951" lon="5.32914">
        <ele>249.4957</ele>
        <time>2023-03-15T09:57:38.000Z</time>
      </trkpt>
      <trkpt lat="43.53951" lon="5.32917">
        <ele>249.19075</ele>
        <time>2023-03-15T09:57:41.000Z</time>
      </trkpt>
      <trkpt lat="43.5395" lon="5.3292">
        <ele>248.88608</ele>
        <time>2023-03-15T09:57:43.000Z</time>
      </trkpt>
      <trkpt lat="43.5395" lon="5.32923">
        <ele>248.58406</ele>
        <time>2023-03-15T09:57:45.000Z</time>
      </trkpt>
      <trkpt lat="43.5395" lon="5.32926">
        <ele>248.26851</ele>
        <time>2023-03-15T09:57:47.000Z</time>
      </trkpt>
      <trkpt lat="43.5395" lon="5.32929">
        <ele>247.93765</ele>
        <time>2023-03-15T09:57:49.000Z</time>
      </trkpt>
      <trkpt lat="43.5395" lon="5.32932">
        <ele>247.64485</ele>
        <time>2023-03-15T09:57:51.000Z</time>
      </trkpt>
      <trkpt lat="43.5395" lon="5.32935">
        <ele>247.32649</ele>
        <time>2023-03-15T09:57:53.000Z</time>
      </trkpt>
      <trkpt lat="43.5395" lon="5.32939">
        <ele>247.08699</ele>
        <time>2023-03-15T09:57:55.000Z</time>
      </trkpt>
      <trkpt lat="43.5395" lon="5.32941">
        <ele>246.7919</ele>
        <time>2023-03-15T09:57:57.000Z</time>
      </trkpt>
      <trkpt lat="43.53951" lon="5.32945">
        <ele>246.55058</ele>
        <time>2023-03-15T09:57:59.000Z</time>
      </trkpt>
      <trkpt lat="43.53951" lon="5.32947">
        <ele>246.32475</ele>
        <time>2023-03-15T09:58:01.000Z</time>
      </trkpt>
      <trkpt lat="43.53951" lon="5.3295">
        <ele>246.11499</ele>
        <time>2023-03-15T09:58:03.000Z</time>
      </trkpt>
      <trkpt lat="43.53951" lon="5.32953">
        <ele>245.89433</ele>
        <time>2023-03-15T09:58:05.000Z</time>
      </trkpt>
      <trkpt lat="43.53951" lon="5.32956">
        <ele>245.67973</ele>
        <time>2023-03-15T09:58:07.000Z</time>
      </trkpt>
      <trkpt lat="43.53951" lon="5.32959">
        <ele>245.56607</ele>
        <time>2023-03-15T09:58:09.000Z</time>
      </trkpt>
      <trkpt lat="43.53951" lon="5.32962">
        <ele>245.46159</ele>
        <time>2023-03-15T09:58:11.000Z</time>
      </trkpt>
      <trkpt lat="43.53951" lon="5.32964">
        <ele>245.32809</ele>
        <time>2023-03-15T09:58:13.000Z</time>
      </trkpt>
      <trkpt lat="43.5395" lon="5.32968">
        <ele>245.19685</ele>
        <time>2023-03-15T09:58:16.000Z</time>
      </trkpt>
      <trkpt lat="43.53951" lon="5.32971">
        <ele>245.07547</ele>
        <time>2023-03-15T09:58:18.000Z</time>
      </trkpt>
      <trkpt lat="43.53951" lon="5.32974">
        <ele>244.96919</ele>
        <time>2023-03-15T09:58:20.000Z</time>
      </trkpt>
      <trkpt lat="43.53951" lon="5.32977">
        <ele>244.87891</ele>
        <time>2023-03-15T09:58:22.000Z</time>
      </trkpt>
      <trkpt lat="43.53951" lon="5.32981">
        <ele>244.75793</ele>
        <time>2023-03-15T09:58:24.000Z</time>
      </trkpt>
      <trkpt lat="43.53952" lon="5.32984">
        <ele>244.64673</ele>
        <time>2023-03-15T09:58:26.000Z</time>
      </trkpt>
      <trkpt lat="43.53952" lon="5.32987">
        <ele>244.56143</ele>
        <time>2023-03-15T09:58:28.000Z</time>
      </trkpt>
      <trkpt lat="43.53952" lon="5.3299">
        <ele>244.4469</ele>
        <time>2023-03-15T09:58:30.000Z</time>
      </trkpt>
      <trkpt lat="43.53952" lon="5.32993">
        <ele>244.29538</ele>
        <time>2023-03-15T09:58:32.000Z</time>
      </trkpt>
      <trkpt lat="43.53952" lon="5.32996">
        <ele>244.15854</ele>
        <time>2023-03-15T09:58:34.000Z</time>
      </trkpt>
      <trkpt lat="43.53952" lon="5.32998">
        <ele>243.95605</ele>
        <time>2023-03-15T09:58:36.000Z</time>
      </trkpt>
      <trkpt lat="43.53953" lon="5.33001">
        <ele>243.79941</ele>
        <time>2023-03-15T09:58:38.000Z</time>
      </trkpt>
      <trkpt lat="43.53954" lon="5.33004">
        <ele>243.58379</ele>
        <time>2023-03-15T09:58:40.000Z</time>
      </trkpt>
      <trkpt lat="43.53954" lon="5.33006">
        <ele>243.33662</ele>
        <time>2023-03-15T09:58:42.000Z</time>
      </trkpt>
      <trkpt lat="43.53955" lon="5.33009">
        <ele>243.06445</ele>
        <time>2023-03-15T09:58:44.000Z</time>
      </trkpt>
      <trkpt lat="43.53955" lon="5.33012">
        <ele>242.79257</ele>
        <time>2023-03-15T09:58:47.000Z</time>
      </trkpt>
      <trkpt lat="43.53955" lon="5.33016">
        <ele>242.56709</ele>
        <time>2023-03-15T09:58:50.000Z</time>
      </trkpt>
      <trkpt lat="43.53955" lon="5.33018">
        <ele>242.37495</ele>
        <time>2023-03-15T09:58:52.000Z</time>
      </trkpt>
      <trkpt lat="43.53956" lon="5.33021">
        <ele>242.1447</ele>
        <time>2023-03-15T09:58:54.000Z</time>
      </trkpt>
      <trkpt lat="43.53956" lon="5.33024">
        <ele>241.97012</ele>
        <time>2023-03-15T09:58:56.000Z</time>
      </trkpt>
      <trkpt lat="43.53956" lon="5.33026">
        <ele>241.77718</ele>
        <time>2023-03-15T09:58:58.000Z</time>
      </trkpt>
      <trkpt lat="43.53957" lon="5.33029">
        <ele>241.59175</ele>
        <time>2023-03-15T09:59:00.000Z</time>
      </trkpt>
      <trkpt lat="43.53957" lon="5.33032">
        <ele>241.37007</ele>
        <time>2023-03-15T09:59:02.000Z</time>
      </trkpt>
      <trkpt lat="43.53957" lon="5.33035">
        <ele>241.16647</ele>
        <time>2023-03-15T09:59:04.000Z</time>
      </trkpt>
      <trkpt lat="43.53957" lon="5.33038">
        <ele>240.98161</ele>
        <time>2023-03-15T09:59:06.000Z</time>
      </trkpt>
      <trkpt lat="43.53957" lon="5.33041">
        <ele>240.82759</ele>
        <time>2023-03-15T09:59:08.000Z</time>
      </trkpt>
      <trkpt lat="43.53957" lon="5.33044">
        <ele>240.56631</ele>
        <time>2023-03-15T09:59:11.000Z</time>
      </trkpt>
      <trkpt lat="43.53957" lon="5.33047">
        <ele>240.3033</ele>
        <time>2023-03-15T09:59:13.000Z</time>
      </trkpt>
      <trkpt lat="43.53957" lon="5.33051">
        <ele>240.01035</ele>
        <time>2023-03-15T09:59:16.000Z</time>
      </trkpt>
      <trkpt lat="43.53957" lon="5.33054">
        <ele>239.67691</ele>
        <time>2023-03-15T09:59:18.000Z</time>
      </trkpt>
      <trkpt lat="43.53957" lon="5.33056">
        <ele>239.32153</ele>
        <time>2023-03-15T09:59:20.000Z</time>
      </trkpt>
      <trkpt lat="43.53957" lon="5.33059">
        <ele>238.9749</ele>
        <time>2023-03-15T09:59:22.000Z</time>
      </trkpt>
      <trkpt lat="43.53957" lon="5.33062">
        <ele>238.65889</ele>
        <time>2023-03-15T09:59:24.000Z</time>
      </trkpt>
      <trkpt lat="43.53957" lon="5.33065">
        <ele>238.32112</ele>
        <time>2023-03-15T09:59:26.000Z</time>
      </trkpt>
      <trkpt lat="43.53958" lon="5.33068">
        <ele>238.02486</ele>
        <time>2023-03-15T09:59:30.000Z</time>
      </trkpt>
      <trkpt lat="43.53958" lon="5.33071">
        <ele>237.70679</ele>
        <time>2023-03-15T09:59:32.000Z</time>
      </trkpt>
      <trkpt lat="43.53957" lon="5.33074">
        <ele>237.37906</ele>
        <time>2023-03-15T09:59:34.000Z</time>
      </trkpt>
      <trkpt lat="43.53956" lon="5.33077">
        <ele>236.99187</ele>
        <time>2023-03-15T09:59:36.000Z</time>
      </trkpt>
      <trkpt lat="43.53956" lon="5.33079">
        <ele>236.62688</ele>
        <time>2023-03-15T09:59:38.000Z</time>
      </trkpt>
      <trkpt lat="43.53956" lon="5.33082">
        <ele>236.26299</ele>
        <time>2023-03-15T09:59:40.000Z</time>
      </trkpt>
      <trkpt lat="43.53955" lon="5.33085">
        <ele>235.922</ele>
        <time>2023-03-15T09:59:42.000Z</time>
      </trkpt>
      <trkpt lat="43.53955" lon="5.33088">
        <ele>235.54695</ele>
        <time>2023-03-15T09:59:44.000Z</time>
      </trkpt>
      <trkpt lat="43.53955" lon="5.33091">
        <ele>235.18083</ele>
        <time>2023-03-15T09:59:46.000Z</time>
      </trkpt>
      <trkpt lat="43.53955" lon="5.33094">
        <ele>234.80476</ele>
        <time>2023-03-15T09:59:48.000Z</time>
      </trkpt>
      <trkpt lat="43.53954" lon="5.33098">
        <ele>234.41431</ele>
        <time>2023-03-15T09:59:50.000Z</time>
      </trkpt>
      <trkpt lat="43.53953" lon="5.33101">
        <ele>233.99841</ele>
        <time>2023-03-15T09:59:52.000Z</time>
      </trkpt>
      <trkpt lat="43.53953" lon="5.33104">
        <ele>233.66824</ele>
        <time>2023-03-15T09:59:54.000Z</time>
      </trkpt>
      <trkpt lat="43.53953" lon="5.33107">
        <ele>233.34932</ele>
        <time>2023-03-15T09:59:56.000Z</time>
      </trkpt>
      <trkpt lat="43.53953" lon="5.3311">
        <ele>233.04488</ele>
        <time>2023-03-15T09:59:58.000Z</time>
      </trkpt>
      <trkpt lat="43.53952" lon="5.33113">
        <ele>232.78462</ele>
        <time>2023-03-15T10:00:00.000Z</time>
      </trkpt>
      <trkpt lat="43.53952" lon="5.33116">
        <ele>232.56723</ele>
        <time>2023-03-15T10:00:02.000Z</time>
      </trkpt>
      <trkpt lat="43.53952" lon="5.33119">
        <ele>232.31892</ele>
        <time>2023-03-15T10:00:04.000Z</time>
      </trkpt>
      <trkpt lat="43.53952" lon="5.33122">
        <ele>232.08627</ele>
        <time>2023-03-15T10:00:06.000Z</time>
      </trkpt>
      <trkpt lat="43.53952" lon="5.33125">
        <ele>231.91287</ele>
        <time>2023-03-15T10:00:08.000Z</time>
      </trkpt>
      <trkpt lat="43.53952" lon="5.33128">
        <ele>231.72543</ele>
        <time>2023-03-15T10:00:10.000Z</time>
      </trkpt>
      <trkpt lat="43.53952" lon="5.33132">
        <ele>231.56107</ele>
        <time>2023-03-15T10:00:12.000Z</time>
      </trkpt>
      <trkpt lat="43.53952" lon="5.33135">
        <ele>231.42107</ele>
        <time>2023-03-15T10:00:14.000Z</time>
      </trkpt>
      <trkpt lat="43.53952" lon="5.33138">
        <ele>231.2355</ele>
        <time>2023-03-15T10:00:16.000Z</time>
      </trkpt>
      <trkpt lat="43.53952" lon="5.33141">
        <ele>231.02547</ele>
        <time>2023-03-15T10:00:18.000Z</time>
      </trkpt>
      <trkpt lat="43.53952" lon="5.33144">
        <ele>230.78809</ele>
        <time>2023-03-15T10:00:20.000Z</time>
      </trkpt>
      <trkpt lat="43.53951" lon="5.33147">
        <ele>230.52832</ele>
        <time>2023-03-15T10:00:22.000Z</time>
      </trkpt>
      <trkpt lat="43.53951" lon="5.3315">
        <ele>230.29788</ele>
        <time>2023-03-15T10:00:24.000Z</time>
      </trkpt>
      <trkpt lat="43.53951" lon="5.33153">
        <ele>230.08765</ele>
        <time>2023-03-15T10:00:26.000Z</time>
      </trkpt>
      <trkpt lat="43.53951" lon="5.33155">
        <ele>229.89688</ele>
        <time>2023-03-15T10:00:28.000Z</time>
      </trkpt>
      <trkpt lat="43.5395" lon="5.33158">
        <ele>229.66745</ele>
        <time>2023-03-15T10:00:30.000Z</time>
      </trkpt>
      <trkpt lat="43.5395" lon="5.33161">
        <ele>229.479</ele>
        <time>2023-03-15T10:00:32.000Z</time>
      </trkpt>
      <trkpt lat="43.5395" lon="5.33165">
        <ele>229.29297</ele>
        <time>2023-03-15T10:00:34.000Z</time>
      </trkpt>
      <trkpt lat="43.5395" lon="5.33168">
        <ele>229.09619</ele>
        <time>2023-03-15T10:00:36.000Z</time>
      </trkpt>
      <trkpt lat="43.5395" lon="5.33171">
        <ele>228.88647</ele>
        <time>2023-03-15T10:00:38.000Z</time>
      </trkpt>
      <trkpt lat="43.5395" lon="5.33175">
        <ele>228.69955</ele>
        <time>2023-03-15T10:00:40.000Z</time>
      </trkpt>
      <trkpt lat="43.5395" lon="5.33177">
        <ele>228.51457</ele>
        <time>2023-03-15T10:00:42.000Z</time>
      </trkpt>
      <trkpt lat="43.5395" lon="5.3318">
        <ele>228.33659</ele>
        <time>2023-03-15T10:00:44.000Z</time>
      </trkpt>
      <trkpt lat="43.53949" lon="5.33183">
        <ele>228.15015</ele>
        <time>2023-03-15T10:00:46.000Z</time>
      </trkpt>
      <trkpt lat="43.53949" lon="5.33186">
        <ele>227.94002</ele>
        <time>2023-03-15T10:00:48.000Z</time>
      </trkpt>
      <trkpt lat="43.53948" lon="5.33188">
        <ele>227.72842</ele>
        <time>2023-03-15T10:00:50.000Z</time>
      </trkpt>
      <trkpt lat="43.53948" lon="5.33191">
        <ele>227.51938</ele>
        <time>2023-03-15T10:00:52.000Z</time>
      </trkpt>
      <trkpt lat="43.53948" lon="5.33194">
        <ele>227.25772</ele>
        <time>2023-03-15T10:00:54.000Z</time>
      </trkpt>
      <trkpt lat="43.53948" lon="5.33197">
        <ele>227.00981</ele>
        <time>2023-03-15T10:00:56.000Z</time>
      </trkpt>
      <trkpt lat="43.53948" lon="5.33201">
        <ele>226.81198</ele>
        <time>2023-03-15T10:00:58.000Z</time>
      </trkpt>
      <trkpt lat="43.53948" lon="5.33203">
        <ele>226.60904</ele>
        <time>2023-03-15T10:01:00.000Z</time>
      </trkpt>
      <trkpt lat="43.53947" lon="5.33206">
        <ele>226.38994</ele>
        <time>2023-03-15T10:01:02.000Z</time>
      </trkpt>
      <trkpt lat="43.53947" lon="5.3321">
        <ele>226.18217</ele>
        <time>2023-03-15T10:01:04.000Z</time>
      </trkpt>
      <trkpt lat="43.53947" lon="5.33213">
        <ele>225.95561</ele>
        <time>2023-03-15T10:01:06.000Z</time>
      </trkpt>
      <trkpt lat="43.53947" lon="5.33216">
        <ele>225.7471</ele>
        <time>2023-03-15T10:01:08.000Z</time>
      </trkpt>
      <trkpt lat="43.53946" lon="5.33219">
        <ele>225.60013</ele>
        <time>2023-03-15T10:01:10.000Z</time>
      </trkpt>
      <trkpt lat="43.53946" lon="5.33222">
        <ele>225.42053</ele>
        <time>2023-03-15T10:01:12.000Z</time>
      </trkpt>
      <trkpt lat="43.53946" lon="5.33224">
        <ele>225.21286</ele>
        <time>2023-03-15T10:01:14.000Z</time>
      </trkpt>
      <trkpt lat="43.53946" lon="5.33227">
        <ele>225.0406</ele>
        <time>2023-03-15T10:01:16.000Z</time>
      </trkpt>
      <trkpt lat="43.53946" lon="5.3323">
        <ele>224.85095</ele>
        <time>2023-03-15T10:01:18.000Z</time>
      </trkpt>
      <trkpt lat="43.53946" lon="5.33233">
        <ele>224.62971</ele>
        <time>2023-03-15T10:01:20.000Z</time>
      </trkpt>
      <trkpt lat="43.53945" lon="5.33236">
        <ele>224.37845</ele>
        <time>2023-03-15T10:01:22.000Z</time>
      </trkpt>
      <trkpt lat="43.53945" lon="5.33239">
        <ele>224.17679</ele>
        <time>2023-03-15T10:01:24.000Z</time>
      </trkpt>
      <trkpt lat="43.53945" lon="5.33241">
        <ele>223.96249</ele>
        <time>2023-03-15T10:01:26.000Z</time>
      </trkpt>
      <trkpt lat="43.53945" lon="5.33244">
        <ele>223.76704</ele>
        <time>2023-03-15T10:01:28.000Z</time>
      </trkpt>
      <trkpt lat="43.53945" lon="5.33248">
        <ele>223.58313</ele>
        <time>2023-03-15T10:01:30.000Z</time>
      </trkpt>
      <trkpt lat="43.53945" lon="5.33251">
        <ele>223.3846</ele>
        <time>2023-03-15T10:01:32.000Z</time>
      </trkpt>
      <trkpt lat="43.53945" lon="5.33254">
        <ele>223.24226</ele>
        <time>2023-03-15T10:01:34.000Z</time>
      </trkpt>
      <trkpt lat="43.53945" lon="5.33257">
        <ele>223.07869</ele>
        <time>2023-03-15T10:01:36.000Z</time>
      </trkpt>
      <trkpt lat="43.53944" lon="5.3326">
        <ele>222.90359</ele>
        <time>2023-03-15T10:01:39.000Z</time>
      </trkpt>
      <trkpt lat="43.53944" lon="5.33264">
        <ele>222.79671</ele>
        <time>2023-03-15T10:01:42.000Z</time>
      </trkpt>
      <trkpt lat="43.53947" lon="5.33264">
        <ele>222.79575</ele>
        <time>2023-03-15T10:01:44.000Z</time>
      </trkpt>
      <trkpt lat="43.53945" lon="5.33265">
        <ele>222.76811</ele>
        <time>2023-03-15T10:14:16.000Z</time>
      </trkpt>
      <trkpt lat="43.53943" lon="5.33263">
        <ele>222.75668</ele>
        <time>2023-03-15T10:14:19.000Z</time>
      </trkpt>
      <trkpt lat="43.53942" lon="5.3326">
        <ele>222.76944</ele>
        <time>2023-03-15T10:14:21.000Z</time>
      </trkpt>
      <trkpt lat="43.53943" lon="5.33258">
        <ele>222.83659</ele>
        <time>2023-03-15T10:14:23.000Z</time>
      </trkpt>
      <trkpt lat="43.53941" lon="5.33256">
        <ele>222.93623</ele>
        <time>2023-03-15T10:14:24.000Z</time>
      </trkpt>
      <trkpt lat="43.53939" lon="5.33257">
        <ele>223.04517</ele>
        <time>2023-03-15T10:14:26.000Z</time>
      </trkpt>
      <trkpt lat="43.53937" lon="5.33258">
        <ele>223.14624</ele>
        <time>2023-03-15T10:14:28.000Z</time>
      </trkpt>
      <trkpt lat="43.53935" lon="5.33258">
        <ele>223.2872</ele>
        <time>2023-03-15T10:14:30.000Z</time>
      </trkpt>
      <trkpt lat="43.53933" lon="5.33259">
        <ele>223.39011</ele>
        <time>2023-03-15T10:14:33.000Z</time>
      </trkpt>
      <trkpt lat="43.53932" lon="5.33258">
        <ele>223.52856</ele>
        <time>2023-03-15T10:14:36.000Z</time>
      </trkpt>
      <trkpt lat="43.5393" lon="5.33258">
        <ele>223.56787</ele>
        <time>2023-03-15T10:14:39.000Z</time>
      </trkpt>
      <trkpt lat="43.53927" lon="5.33257">
        <ele>223.63086</ele>
        <time>2023-03-15T10:14:42.000Z</time>
      </trkpt>
      <trkpt lat="43.53925" lon="5.33256">
        <ele>223.73056</ele>
        <time>2023-03-15T10:14:45.000Z</time>
      </trkpt>
      <trkpt lat="43.53923" lon="5.33256">
        <ele>223.84372</ele>
        <time>2023-03-15T10:14:48.000Z</time>
      </trkpt>
      <trkpt lat="43.53921" lon="5.33255">
        <ele>223.96176</ele>
        <time>2023-03-15T10:14:51.000Z</time>
      </trkpt>
      <trkpt lat="43.53918" lon="5.33254">
        <ele>224.06108</ele>
        <time>2023-03-15T10:14:54.000Z</time>
      </trkpt>
      <trkpt lat="43.53916" lon="5.33253">
        <ele>224.24222</ele>
        <time>2023-03-15T10:14:57.000Z</time>
      </trkpt>
      <trkpt lat="43.53914" lon="5.33252">
        <ele>224.40935</ele>
        <time>2023-03-15T10:15:00.000Z</time>
      </trkpt>
      <trkpt lat="43.53912" lon="5.33251">
        <ele>224.52559</ele>
        <time>2023-03-15T10:15:03.000Z</time>
      </trkpt>
      <trkpt lat="43.5391" lon="5.3325">
        <ele>224.60934</ele>
        <time>2023-03-15T10:15:06.000Z</time>
      </trkpt>
      <trkpt lat="43.53908" lon="5.33249">
        <ele>224.71687</ele>
        <time>2023-03-15T10:15:09.000Z</time>
      </trkpt>
      <trkpt lat="43.53905" lon="5.33248">
        <ele>224.84001</ele>
        <time>2023-03-15T10:15:12.000Z</time>
      </trkpt>
      <trkpt lat="43.53903" lon="5.33247">
        <ele>224.95259</ele>
        <time>2023-03-15T10:15:15.000Z</time>
      </trkpt>
      <trkpt lat="43.53901" lon="5.33246">
        <ele>225.06943</ele>
        <time>2023-03-15T10:15:18.000Z</time>
      </trkpt>
      <trkpt lat="43.53899" lon="5.33246">
        <ele>225.19698</ele>
        <time>2023-03-15T10:15:21.000Z</time>
      </trkpt>
      <trkpt lat="43.53897" lon="5.33245">
        <ele>225.31084</ele>
        <time>2023-03-15T10:15:24.000Z</time>
      </trkpt>
      <trkpt lat="43.53895" lon="5.33244">
        <ele>225.47197</ele>
        <time>2023-03-15T10:15:27.000Z</time>
      </trkpt>
      <trkpt lat="43.53892" lon="5.33243">
        <ele>225.6412</ele>
        <time>2023-03-15T10:15:30.000Z</time>
      </trkpt>
      <trkpt lat="43.5389" lon="5.33242">
        <ele>225.90219</ele>
        <time>2023-03-15T10:15:33.000Z</time>
      </trkpt>
      <trkpt lat="43.53887" lon="5.33241">
        <ele>226.16422</ele>
        <time>2023-03-15T10:15:36.000Z</time>
      </trkpt>
      <trkpt lat="43.53885" lon="5.3324">
        <ele>226.49991</ele>
        <time>2023-03-15T10:15:39.000Z</time>
      </trkpt>
      <trkpt lat="43.53882" lon="5.3324">
        <ele>226.84683</ele>
        <time>2023-03-15T10:15:42.000Z</time>
      </trkpt>
      <trkpt lat="43.5388" lon="5.33241">
        <ele>227.15323</ele>
        <time>2023-03-15T10:15:45.000Z</time>
      </trkpt>
      <trkpt lat="43.53877" lon="5.33242">
        <ele>227.46468</ele>
        <time>2023-03-15T10:15:48.000Z</time>
      </trkpt>
      <trkpt lat="43.53876" lon="5.33243">
        <ele>227.80917</ele>
        <time>2023-03-15T10:15:51.000Z</time>
      </trkpt>
      <trkpt lat="43.53874" lon="5.33246">
        <ele>228.14539</ele>
        <time>2023-03-15T10:15:54.000Z</time>
      </trkpt>
      <trkpt lat="43.53873" lon="5.33248">
        <ele>228.44966</ele>
        <time>2023-03-15T10:15:56.000Z</time>
      </trkpt>
      <trkpt lat="43.53872" lon="5.33251">
        <ele>228.77994</ele>
        <time>2023-03-15T10:15:58.000Z</time>
      </trkpt>
      <trkpt lat="43.53871" lon="5.33254">
        <ele>229.15303</ele>
        <time>2023-03-15T10:16:00.000Z</time>
      </trkpt>
      <trkpt lat="43.53871" lon="5.33257">
        <ele>229.52641</ele>
        <time>2023-03-15T10:16:02.000Z</time>
      </trkpt>
      <trkpt lat="43.5387" lon="5.33259">
        <ele>229.91455</ele>
        <time>2023-03-15T10:16:04.000Z</time>
      </trkpt>
      <trkpt lat="43.5387" lon="5.33263">
        <ele>230.27029</ele>
        <time>2023-03-15T10:16:07.000Z</time>
      </trkpt>
      <trkpt lat="43.5387" lon="5.33265">
        <ele>230.5782</ele>
        <time>2023-03-15T10:16:09.000Z</time>
      </trkpt>
      <trkpt lat="43.5387" lon="5.33268">
        <ele>230.82285</ele>
        <time>2023-03-15T10:16:11.000Z</time>
      </trkpt>
      <trkpt lat="43.53871" lon="5.33271">
        <ele>231.05991</ele>
        <time>2023-03-15T10:16:13.000Z</time>
      </trkpt>
      <trkpt lat="43.53871" lon="5.33274">
        <ele>231.32401</ele>
        <time>2023-03-15T10:16:15.000Z</time>
      </trkpt>
      <trkpt lat="43.53871" lon="5.33277">
        <ele>231.54692</ele>
        <time>2023-03-15T10:16:17.000Z</time>
      </trkpt>
      <trkpt lat="43.53871" lon="5.3328">
        <ele>231.76376</ele>
        <time>2023-03-15T10:16:19.000Z</time>
      </trkpt>
      <trkpt lat="43.53872" lon="5.33283">
        <ele>231.95088</ele>
        <time>2023-03-15T10:16:21.000Z</time>
      </trkpt>
      <trkpt lat="43.53872" lon="5.33286">
        <ele>232.12325</ele>
        <time>2023-03-15T10:16:23.000Z</time>
      </trkpt>
      <trkpt lat="43.53872" lon="5.33289">
        <ele>232.2876</ele>
        <time>2023-03-15T10:16:25.000Z</time>
      </trkpt>
      <trkpt lat="43.53872" lon="5.33292">
        <ele>232.4277</ele>
        <time>2023-03-15T10:16:27.000Z</time>
      </trkpt>
      <trkpt lat="43.53872" lon="5.33295">
        <ele>232.57341</ele>
        <time>2023-03-15T10:16:29.000Z</time>
      </trkpt>
      <trkpt lat="43.53872" lon="5.33298">
        <ele>232.69185</ele>
        <time>2023-03-15T10:16:31.000Z</time>
      </trkpt>
      <trkpt lat="43.53872" lon="5.33301">
        <ele>232.75217</ele>
        <time>2023-03-15T10:16:33.000Z</time>
      </trkpt>
      <trkpt lat="43.53872" lon="5.33304">
        <ele>232.80859</ele>
        <time>2023-03-15T10:16:35.000Z</time>
      </trkpt>
      <trkpt lat="43.53873" lon="5.33307">
        <ele>232.83821</ele>
        <time>2023-03-15T10:16:37.000Z</time>
      </trkpt>
      <trkpt lat="43.53873" lon="5.3331">
        <ele>232.78061</ele>
        <time>2023-03-15T10:16:39.000Z</time>
      </trkpt>
      <trkpt lat="43.53874" lon="5.33312">
        <ele>232.66284</ele>
        <time>2023-03-15T10:16:41.000Z</time>
      </trkpt>
      <trkpt lat="43.53874" lon="5.33316">
        <ele>232.51802</ele>
        <time>2023-03-15T10:16:43.000Z</time>
      </trkpt>
      <trkpt lat="43.53875" lon="5.33318">
        <ele>232.36064</ele>
        <time>2023-03-15T10:16:45.000Z</time>
      </trkpt>
      <trkpt lat="43.53875" lon="5.33321">
        <ele>232.2457</ele>
        <time>2023-03-15T10:16:47.000Z</time>
      </trkpt>
      <trkpt lat="43.53875" lon="5.33324">
        <ele>232.17221</ele>
        <time>2023-03-15T10:16:49.000Z</time>
      </trkpt>
      <trkpt lat="43.53875" lon="5.33327">
        <ele>232.10295</ele>
        <time>2023-03-15T10:16:51.000Z</time>
      </trkpt>
      <trkpt lat="43.53875" lon="5.3333">
        <ele>232.00716</ele>
        <time>2023-03-15T10:16:53.000Z</time>
      </trkpt>
      <trkpt lat="43.53875" lon="5.33333">
        <ele>231.90096</ele>
        <time>2023-03-15T10:16:55.000Z</time>
      </trkpt>
      <trkpt lat="43.53875" lon="5.33336">
        <ele>231.79008</ele>
        <time>2023-03-15T10:16:57.000Z</time>
      </trkpt>
      <trkpt lat="43.53875" lon="5.33339">
        <ele>231.67068</ele>
        <time>2023-03-15T10:16:59.000Z</time>
      </trkpt>
      <trkpt lat="43.53875" lon="5.33342">
        <ele>231.52808</ele>
        <time>2023-03-15T10:17:01.000Z</time>
      </trkpt>
      <trkpt lat="43.53875" lon="5.33345">
        <ele>231.38936</ele>
        <time>2023-03-15T10:17:03.000Z</time>
      </trkpt>
      <trkpt lat="43.53875" lon="5.33348">
        <ele>231.24394</ele>
        <time>2023-03-15T10:17:05.000Z</time>
      </trkpt>
      <trkpt lat="43.53875" lon="5.33351">
        <ele>231.08499</ele>
        <time>2023-03-15T10:17:07.000Z</time>
      </trkpt>
      <trkpt lat="43.53875" lon="5.33354">
        <ele>230.95462</ele>
        <time>2023-03-15T10:17:09.000Z</time>
      </trkpt>
      <trkpt lat="43.53876" lon="5.33357">
        <ele>230.83684</ele>
        <time>2023-03-15T10:17:11.000Z</time>
      </trkpt>
      <trkpt lat="43.53876" lon="5.33359">
        <ele>230.76578</ele>
        <time>2023-03-15T10:17:13.000Z</time>
      </trkpt>
      <trkpt lat="43.53876" lon="5.33363">
        <ele>230.68881</ele>
        <time>2023-03-15T10:17:15.000Z</time>
      </trkpt>
      <trkpt lat="43.53876" lon="5.33366">
        <ele>230.62375</ele>
        <time>2023-03-15T10:17:17.000Z</time>
      </trkpt>
      <trkpt lat="43.53876" lon="5.33369">
        <ele>230.63147</ele>
        <time>2023-03-15T10:17:19.000Z</time>
      </trkpt>
      <trkpt lat="43.53876" lon="5.33372">
        <ele>230.64249</ele>
        <time>2023-03-15T10:17:21.000Z</time>
      </trkpt>
      <trkpt lat="43.53877" lon="5.33375">
        <ele>230.68149</ele>
        <time>2023-03-15T10:17:23.000Z</time>
      </trkpt>
      <trkpt lat="43.53877" lon="5.33377">
        <ele>230.70996</ele>
        <time>2023-03-15T10:17:25.000Z</time>
      </trkpt>
      <trkpt lat="43.53878" lon="5.3338">
        <ele>230.71237</ele>
        <time>2023-03-15T10:17:27.000Z</time>
      </trkpt>
      <trkpt lat="43.53879" lon="5.33383">
        <ele>230.72275</ele>
        <time>2023-03-15T10:17:29.000Z</time>
      </trkpt>
      <trkpt lat="43.5388" lon="5.33386">
        <ele>230.76114</ele>
        <time>2023-03-15T10:17:31.000Z</time>
      </trkpt>
      <trkpt lat="43.53881" lon="5.33389">
        <ele>230.82048</ele>
        <time>2023-03-15T10:17:33.000Z</time>
      </trkpt>
      <trkpt lat="43.53883" lon="5.33391">
        <ele>230.82669</ele>
        <time>2023-03-15T10:17:35.000Z</time>
      </trkpt>
      <trkpt lat="43.53884" lon="5.33393">
        <ele>230.74976</ele>
        <time>2023-03-15T10:17:37.000Z</time>
      </trkpt>
      <trkpt lat="43.53886" lon="5.33395">
        <ele>230.64363</ele>
        <time>2023-03-15T10:17:40.000Z</time>
      </trkpt>
      <trkpt lat="43.53887" lon="5.33397">
        <ele>230.53117</ele>
        <time>2023-03-15T10:17:42.000Z</time>
      </trkpt>
      <trkpt lat="43.53889" lon="5.33399">
        <ele>230.41675</ele>
        <time>2023-03-15T10:17:44.000Z</time>
      </trkpt>
      <trkpt lat="43.53891" lon="5.334">
        <ele>230.29053</ele>
        <time>2023-03-15T10:17:46.000Z</time>
      </trkpt>
      <trkpt lat="43.53892" lon="5.33402">
        <ele>230.18271</ele>
        <time>2023-03-15T10:17:48.000Z</time>
      </trkpt>
      <trkpt lat="43.53894" lon="5.33403">
        <ele>229.97942</ele>
        <time>2023-03-15T10:17:50.000Z</time>
      </trkpt>
      <trkpt lat="43.53896" lon="5.33404">
        <ele>229.74304</ele>
        <time>2023-03-15T10:17:52.000Z</time>
      </trkpt>
      <trkpt lat="43.53898" lon="5.33404">
        <ele>229.4418</ele>
        <time>2023-03-15T10:17:54.000Z</time>
      </trkpt>
      <trkpt lat="43.539" lon="5.33403">
        <ele>229.09624</ele>
        <time>2023-03-15T10:17:56.000Z</time>
      </trkpt>
      <trkpt lat="43.53903" lon="5.33403">
        <ele>228.74527</ele>
        <time>2023-03-15T10:17:59.000Z</time>
      </trkpt>
      <trkpt lat="43.53905" lon="5.33402">
        <ele>228.39029</ele>
        <time>2023-03-15T10:18:01.000Z</time>
      </trkpt>
      <trkpt lat="43.53907" lon="5.334">
        <ele>228.02693</ele>
        <time>2023-03-15T10:18:04.000Z</time>
      </trkpt>
      <trkpt lat="43.53909" lon="5.33398">
        <ele>227.62093</ele>
        <time>2023-03-15T10:18:06.000Z</time>
      </trkpt>
      <trkpt lat="43.5391" lon="5.33396">
        <ele>227.20914</ele>
        <time>2023-03-15T10:18:08.000Z</time>
      </trkpt>
      <trkpt lat="43.53912" lon="5.33394">
        <ele>226.80188</ele>
        <time>2023-03-15T10:18:10.000Z</time>
      </trkpt>
      <trkpt lat="43.53913" lon="5.33391">
        <ele>226.36723</ele>
        <time>2023-03-15T10:18:12.000Z</time>
      </trkpt>
      <trkpt lat="43.53914" lon="5.33388">
        <ele>225.89229</ele>
        <time>2023-03-15T10:18:14.000Z</time>
      </trkpt>
      <trkpt lat="43.53915" lon="5.33386">
        <ele>225.38591</ele>
        <time>2023-03-15T10:18:16.000Z</time>
      </trkpt>
      <trkpt lat="43.53916" lon="5.33383">
        <ele>224.92097</ele>
        <time>2023-03-15T10:18:18.000Z</time>
      </trkpt>
      <trkpt lat="43.53917" lon="5.3338">
        <ele>224.53775</ele>
        <time>2023-03-15T10:18:20.000Z</time>
      </trkpt>
      <trkpt lat="43.53918" lon="5.33378">
        <ele>224.19365</ele>
        <time>2023-03-15T10:18:22.000Z</time>
      </trkpt>
      <trkpt lat="43.53919" lon="5.33376">
        <ele>223.85962</ele>
        <time>2023-03-15T10:18:24.000Z</time>
      </trkpt>
      <trkpt lat="43.53919" lon="5.33373">
        <ele>223.51384</ele>
        <time>2023-03-15T10:18:26.000Z</time>
      </trkpt>
      <trkpt lat="43.5392" lon="5.3337">
        <ele>223.15788</ele>
        <time>2023-03-15T10:18:28.000Z</time>
      </trkpt>
      <trkpt lat="43.53921" lon="5.33367">
        <ele>222.81079</ele>
        <time>2023-03-15T10:18:30.000Z</time>
      </trkpt>
      <trkpt lat="43.53922" lon="5.33365">
        <ele>222.51591</ele>
        <time>2023-03-15T10:18:32.000Z</time>
      </trkpt>
      <trkpt lat="43.53923" lon="5.33362">
        <ele>222.26169</ele>
        <time>2023-03-15T10:18:34.000Z</time>
      </trkpt>
      <trkpt lat="43.53924" lon="5.3336">
        <ele>222.02214</ele>
        <time>2023-03-15T10:18:36.000Z</time>
      </trkpt>
      <trkpt lat="43.53925" lon="5.33358">
        <ele>221.82895</ele>
        <time>2023-03-15T10:18:38.000Z</time>
      </trkpt>
      <trkpt lat="43.53927" lon="5.33356">
        <ele>221.63652</ele>
        <time>2023-03-15T10:18:40.000Z</time>
      </trkpt>
      <trkpt lat="43.53929" lon="5.33355">
        <ele>221.42558</ele>
        <time>2023-03-15T10:18:42.000Z</time>
      </trkpt>
      <trkpt lat="43.5393" lon="5.33353">
        <ele>221.21355</ele>
        <time>2023-03-15T10:18:44.000Z</time>
      </trkpt>
      <trkpt lat="43.53932" lon="5.33352">
        <ele>221.00371</ele>
        <time>2023-03-15T10:18:46.000Z</time>
      </trkpt>
      <trkpt lat="43.53934" lon="5.33352">
        <ele>220.78496</ele>
        <time>2023-03-15T10:18:48.000Z</time>
      </trkpt>
      <trkpt lat="43.53936" lon="5.33352">
        <ele>220.54111</ele>
        <time>2023-03-15T10:18:50.000Z</time>
      </trkpt>
      <trkpt lat="43.53938" lon="5.33353">
        <ele>220.3062</ele>
        <time>2023-03-15T10:18:52.000Z</time>
      </trkpt>
      <trkpt lat="43.5394" lon="5.33353">
        <ele>220.06474</ele>
        <time>2023-03-15T10:18:54.000Z</time>
      </trkpt>
      <trkpt lat="43.53942" lon="5.33354">
        <ele>219.82471</ele>
        <time>2023-03-15T10:18:56.000Z</time>
      </trkpt>
      <trkpt lat="43.53944" lon="5.33355">
        <ele>219.58818</ele>
        <time>2023-03-15T10:18:58.000Z</time>
      </trkpt>
      <trkpt lat="43.53946" lon="5.33356">
        <ele>219.3175</ele>
        <time>2023-03-15T10:19:00.000Z</time>
      </trkpt>
      <trkpt lat="43.53948" lon="5.33357">
        <ele>219.06062</ele>
        <time>2023-03-15T10:19:02.000Z</time>
      </trkpt>
      <trkpt lat="43.5395" lon="5.33358">
        <ele>218.81287</ele>
        <time>2023-03-15T10:19:04.000Z</time>
      </trkpt>
      <trkpt lat="43.53952" lon="5.33359">
        <ele>218.58853</ele>
        <time>2023-03-15T10:19:06.000Z</time>
      </trkpt>
      <trkpt lat="43.53954" lon="5.3336">
        <ele>218.48213</ele>
        <time>2023-03-15T10:19:08.000Z</time>
      </trkpt>
      <trkpt lat="43.53955" lon="5.3336">
        <ele>218.34978</ele>
        <time>2023-03-15T10:19:10.000Z</time>
      </trkpt>
      <trkpt lat="43.53957" lon="5.33361">
        <ele>218.21231</ele>
        <time>2023-03-15T10:19:12.000Z</time>
      </trkpt>
      <trkpt lat="43.53959" lon="5.33364">
        <ele>218.13406</ele>
        <time>2023-03-15T10:19:14.000Z</time>
      </trkpt>
      <trkpt lat="43.5396" lon="5.33366">
        <ele>218.10701</ele>
        <time>2023-03-15T10:19:16.000Z</time>
      </trkpt>
      <trkpt lat="43.53959" lon="5.33368">
        <ele>218.075</ele>
        <time>2023-03-15T10:19:18.000Z</time>
      </trkpt>
      <trkpt lat="43.53957" lon="5.3337">
        <ele>217.94234</ele>
        <time>2023-03-15T10:19:20.000Z</time>
      </trkpt>
      <trkpt lat="43.53955" lon="5.3337">
        <ele>217.77457</ele>
        <time>2023-03-15T10:19:24.000Z</time>
      </trkpt>
      <trkpt lat="43.53953" lon="5.3337">
        <ele>217.58733</ele>
        <time>2023-03-15T10:19:32.000Z</time>
      </trkpt>
      <trkpt lat="43.53952" lon="5.33373">
        <ele>217.36783</ele>
        <time>2023-03-15T10:19:35.000Z</time>
      </trkpt>
      <trkpt lat="43.53952" lon="5.33376">
        <ele>217.13992</ele>
        <time>2023-03-15T10:19:37.000Z</time>
      </trkpt>
      <trkpt lat="43.53951" lon="5.33379">
        <ele>216.93794</ele>
        <time>2023-03-15T10:19:40.000Z</time>
      </trkpt>
      <trkpt lat="43.5395" lon="5.33382">
        <ele>216.72791</ele>
        <time>2023-03-15T10:19:42.000Z</time>
      </trkpt>
      <trkpt lat="43.5395" lon="5.33384">
        <ele>216.52554</ele>
        <time>2023-03-15T10:19:44.000Z</time>
      </trkpt>
      <trkpt lat="43.53949" lon="5.33387">
        <ele>216.35432</ele>
        <time>2023-03-15T10:19:46.000Z</time>
      </trkpt>
      <trkpt lat="43.53948" lon="5.3339">
        <ele>216.21587</ele>
        <time>2023-03-15T10:19:48.000Z</time>
      </trkpt>
      <trkpt lat="43.53948" lon="5.33392">
        <ele>216.10909</ele>
        <time>2023-03-15T10:19:50.000Z</time>
      </trkpt>
      <trkpt lat="43.53948" lon="5.33395">
        <ele>216.00008</ele>
        <time>2023-03-15T10:19:52.000Z</time>
      </trkpt>
      <trkpt lat="43.53947" lon="5.33397">
        <ele>215.84506</ele>
        <time>2023-03-15T10:19:54.000Z</time>
      </trkpt>
      <trkpt lat="43.53947" lon="5.334">
        <ele>215.717</ele>
        <time>2023-03-15T10:19:57.000Z</time>
      </trkpt>
      <trkpt lat="43.53948" lon="5.33403">
        <ele>215.55379</ele>
        <time>2023-03-15T10:20:00.000Z</time>
      </trkpt>
      <trkpt lat="43.53947" lon="5.33406">
        <ele>215.37656</ele>
        <time>2023-03-15T10:20:03.000Z</time>
      </trkpt>
      <trkpt lat="43.53947" lon="5.33408">
        <ele>215.20126</ele>
        <time>2023-03-15T10:20:05.000Z</time>
      </trkpt>
      <trkpt lat="43.53947" lon="5.33411">
        <ele>214.96309</ele>
        <time>2023-03-15T10:20:07.000Z</time>
      </trkpt>
      <trkpt lat="43.53948" lon="5.33414">
        <ele>214.70015</ele>
        <time>2023-03-15T10:20:09.000Z</time>
      </trkpt>
      <trkpt lat="43.53948" lon="5.33417">
        <ele>214.40298</ele>
        <time>2023-03-15T10:20:11.000Z</time>
      </trkpt>
      <trkpt lat="43.53949" lon="5.3342">
        <ele>214.25725</ele>
        <time>2023-03-15T10:20:13.000Z</time>
      </trkpt>
      <trkpt lat="43.53949" lon="5.33422">
        <ele>214.17525</ele>
        <time>2023-03-15T10:20:15.000Z</time>
      </trkpt>
      <trkpt lat="43.5395" lon="5.33425">
        <ele>214.15152</ele>
        <time>2023-03-15T10:20:17.000Z</time>
      </trkpt>
      <trkpt lat="43.53951" lon="5.33429">
        <ele>214.17041</ele>
        <time>2023-03-15T10:20:20.000Z</time>
      </trkpt>
      <trkpt lat="43.53951" lon="5.33431">
        <ele>214.21919</ele>
        <time>2023-03-15T10:20:22.000Z</time>
      </trkpt>
      <trkpt lat="43.53951" lon="5.33434">
        <ele>214.2988</ele>
        <time>2023-03-15T10:20:24.000Z</time>
      </trkpt>
      <trkpt lat="43.53952" lon="5.33437">
        <ele>214.40332</ele>
        <time>2023-03-15T10:20:26.000Z</time>
      </trkpt>
      <trkpt lat="43.53952" lon="5.3344">
        <ele>214.51762</ele>
        <time>2023-03-15T10:20:29.000Z</time>
      </trkpt>
      <trkpt lat="43.53952" lon="5.33444">
        <ele>214.59244</ele>
        <time>2023-03-15T10:20:32.000Z</time>
      </trkpt>
      <trkpt lat="43.53952" lon="5.33447">
        <ele>214.6147</ele>
        <time>2023-03-15T10:20:34.000Z</time>
      </trkpt>
      <trkpt lat="43.53952" lon="5.33449">
        <ele>214.64546</ele>
        <time>2023-03-15T10:20:36.000Z</time>
      </trkpt>
      <trkpt lat="43.53952" lon="5.33452">
        <ele>214.65649</ele>
        <time>2023-03-15T10:20:38.000Z</time>
      </trkpt>
      <trkpt lat="43.53952" lon="5.33455">
        <ele>214.68806</ele>
        <time>2023-03-15T10:20:41.000Z</time>
      </trkpt>
      <trkpt lat="43.53953" lon="5.33458">
        <ele>214.64084</ele>
        <time>2023-03-15T10:20:43.000Z</time>
      </trkpt>
      <trkpt lat="43.53952" lon="5.33461">
        <ele>214.58789</ele>
        <time>2023-03-15T10:20:45.000Z</time>
      </trkpt>
      <trkpt lat="43.53952" lon="5.33463">
        <ele>214.49687</ele>
        <time>2023-03-15T10:20:47.000Z</time>
      </trkpt>
      <trkpt lat="43.53951" lon="5.33466">
        <ele>214.44194</ele>
        <time>2023-03-15T10:20:49.000Z</time>
      </trkpt>
      <trkpt lat="43.53951" lon="5.33469">
        <ele>214.34659</ele>
        <time>2023-03-15T10:20:52.000Z</time>
      </trkpt>
      <trkpt lat="43.53951" lon="5.33472">
        <ele>214.25432</ele>
        <time>2023-03-15T10:20:54.000Z</time>
      </trkpt>
      <trkpt lat="43.5395" lon="5.33474">
        <ele>214.19345</ele>
        <time>2023-03-15T10:20:56.000Z</time>
      </trkpt>
      <trkpt lat="43.5395" lon="5.33477">
        <ele>214.11191</ele>
        <time>2023-03-15T10:20:58.000Z</time>
      </trkpt>
      <trkpt lat="43.53949" lon="5.3348">
        <ele>214.03987</ele>
        <time>2023-03-15T10:21:00.000Z</time>
      </trkpt>
      <trkpt lat="43.53949" lon="5.33483">
        <ele>213.90327</ele>
        <time>2023-03-15T10:21:02.000Z</time>
      </trkpt>
      <trkpt lat="43.53948" lon="5.33485">
        <ele>213.76591</ele>
        <time>2023-03-15T10:21:04.000Z</time>
      </trkpt>
      <trkpt lat="43.53948" lon="5.33488">
        <ele>213.65665</ele>
        <time>2023-03-15T10:21:06.000Z</time>
      </trkpt>
      <trkpt lat="43.53948" lon="5.33491">
        <ele>213.535</ele>
        <time>2023-03-15T10:21:08.000Z</time>
      </trkpt>
      <trkpt lat="43.53947" lon="5.33493">
        <ele>213.43294</ele>
        <time>2023-03-15T10:21:10.000Z</time>
      </trkpt>
      <trkpt lat="43.53947" lon="5.33496">
        <ele>213.40669</ele>
        <time>2023-03-15T10:21:12.000Z</time>
      </trkpt>
      <trkpt lat="43.53947" lon="5.33499">
        <ele>213.41496</ele>
        <time>2023-03-15T10:21:14.000Z</time>
      </trkpt>
      <trkpt lat="43.53947" lon="5.33501">
        <ele>213.46391</ele>
        <time>2023-03-15T10:21:16.000Z</time>
      </trkpt>
      <trkpt lat="43.53947" lon="5.33504">
        <ele>213.46333</ele>
        <time>2023-03-15T10:21:18.000Z</time>
      </trkpt>
      <trkpt lat="43.53947" lon="5.33507">
        <ele>213.43588</ele>
        <time>2023-03-15T10:21:20.000Z</time>
      </trkpt>
      <trkpt lat="43.53946" lon="5.33509">
        <ele>213.44003</ele>
        <time>2023-03-15T10:21:22.000Z</time>
      </trkpt>
      <trkpt lat="43.53945" lon="5.33512">
        <ele>213.4677</ele>
        <time>2023-03-15T10:21:24.000Z</time>
      </trkpt>
      <trkpt lat="43.53945" lon="5.33514">
        <ele>213.46683</ele>
        <time>2023-03-15T10:21:26.000Z</time>
      </trkpt>
      <trkpt lat="43.53945" lon="5.33517">
        <ele>213.53691</ele>
        <time>2023-03-15T10:21:28.000Z</time>
      </trkpt>
      <trkpt lat="43.53944" lon="5.3352">
        <ele>213.5804</ele>
        <time>2023-03-15T10:21:30.000Z</time>
      </trkpt>
      <trkpt lat="43.53944" lon="5.33523">
        <ele>213.65332</ele>
        <time>2023-03-15T10:21:32.000Z</time>
      </trkpt>
      <trkpt lat="43.53943" lon="5.33525">
        <ele>213.70663</ele>
        <time>2023-03-15T10:21:34.000Z</time>
      </trkpt>
      <trkpt lat="43.53942" lon="5.33528">
        <ele>213.83374</ele>
        <time>2023-03-15T10:21:36.000Z</time>
      </trkpt>
      <trkpt lat="43.53942" lon="5.33531">
        <ele>213.93208</ele>
        <time>2023-03-15T10:21:38.000Z</time>
      </trkpt>
      <trkpt lat="43.53942" lon="5.33534">
        <ele>214.0433</ele>
        <time>2023-03-15T10:21:40.000Z</time>
      </trkpt>
      <trkpt lat="43.53941" lon="5.33537">
        <ele>214.18738</ele>
        <time>2023-03-15T10:21:42.000Z</time>
      </trkpt>
      <trkpt lat="43.5394" lon="5.3354">
        <ele>214.31721</ele>
        <time>2023-03-15T10:21:45.000Z</time>
      </trkpt>
      <trkpt lat="43.53939" lon="5.33543">
        <ele>214.42044</ele>
        <time>2023-03-15T10:21:47.000Z</time>
      </trkpt>
      <trkpt lat="43.53939" lon="5.33546">
        <ele>214.49548</ele>
        <time>2023-03-15T10:21:49.000Z</time>
      </trkpt>
      <trkpt lat="43.53938" lon="5.33549">
        <ele>214.53027</ele>
        <time>2023-03-15T10:21:51.000Z</time>
      </trkpt>
      <trkpt lat="43.53938" lon="5.33551">
        <ele>214.47766</ele>
        <time>2023-03-15T10:21:53.000Z</time>
      </trkpt>
      <trkpt lat="43.53938" lon="5.33554">
        <ele>214.40047</ele>
        <time>2023-03-15T10:21:55.000Z</time>
      </trkpt>
      <trkpt lat="43.53937" lon="5.33557">
        <ele>214.2916</ele>
        <time>2023-03-15T10:21:57.000Z</time>
      </trkpt>
      <trkpt lat="43.53937" lon="5.3356">
        <ele>214.22871</ele>
        <time>2023-03-15T10:21:59.000Z</time>
      </trkpt>
      <trkpt lat="43.53937" lon="5.33562">
        <ele>214.22275</ele>
        <time>2023-03-15T10:22:01.000Z</time>
      </trkpt>
      <trkpt lat="43.53936" lon="5.33565">
        <ele>214.18526</ele>
        <time>2023-03-15T10:22:03.000Z</time>
      </trkpt>
      <trkpt lat="43.53936" lon="5.33568">
        <ele>214.21211</ele>
        <time>2023-03-15T10:22:05.000Z</time>
      </trkpt>
      <trkpt lat="43.53936" lon="5.33571">
        <ele>214.24895</ele>
        <time>2023-03-15T10:22:07.000Z</time>
      </trkpt>
      <trkpt lat="43.53935" lon="5.33574">
        <ele>214.34834</ele>
        <time>2023-03-15T10:22:09.000Z</time>
      </trkpt>
      <trkpt lat="43.53934" lon="5.33576">
        <ele>214.46692</ele>
        <time>2023-03-15T10:22:11.000Z</time>
      </trkpt>
      <trkpt lat="43.53933" lon="5.33579">
        <ele>214.61137</ele>
        <time>2023-03-15T10:22:13.000Z</time>
      </trkpt>
      <trkpt lat="43.53933" lon="5.33582">
        <ele>214.75424</ele>
        <time>2023-03-15T10:22:15.000Z</time>
      </trkpt>
      <trkpt lat="43.53932" lon="5.33585">
        <ele>214.87216</ele>
        <time>2023-03-15T10:22:17.000Z</time>
      </trkpt>
      <trkpt lat="43.53931" lon="5.33587">
        <ele>214.95992</ele>
        <time>2023-03-15T10:22:19.000Z</time>
      </trkpt>
      <trkpt lat="43.5393" lon="5.3359">
        <ele>215.03242</ele>
        <time>2023-03-15T10:22:21.000Z</time>
      </trkpt>
      <trkpt lat="43.53929" lon="5.33592">
        <ele>215.13115</ele>
        <time>2023-03-15T10:22:23.000Z</time>
      </trkpt>
      <trkpt lat="43.53929" lon="5.33595">
        <ele>215.25455</ele>
        <time>2023-03-15T10:22:25.000Z</time>
      </trkpt>
      <trkpt lat="43.53928" lon="5.33598">
        <ele>215.38066</ele>
        <time>2023-03-15T10:22:27.000Z</time>
      </trkpt>
      <trkpt lat="43.53927" lon="5.33601">
        <ele>215.53238</ele>
        <time>2023-03-15T10:22:29.000Z</time>
      </trkpt>
      <trkpt lat="43.53927" lon="5.33603">
        <ele>215.70544</ele>
        <time>2023-03-15T10:22:31.000Z</time>
      </trkpt>
      <trkpt lat="43.53926" lon="5.33606">
        <ele>215.90695</ele>
        <time>2023-03-15T10:22:33.000Z</time>
      </trkpt>
      <trkpt lat="43.53926" lon="5.33609">
        <ele>216.13358</ele>
        <time>2023-03-15T10:22:35.000Z</time>
      </trkpt>
      <trkpt lat="43.53925" lon="5.33612">
        <ele>216.3689</ele>
        <time>2023-03-15T10:22:37.000Z</time>
      </trkpt>
      <trkpt lat="43.53925" lon="5.33615">
        <ele>216.61438</ele>
        <time>2023-03-15T10:22:39.000Z</time>
      </trkpt>
      <trkpt lat="43.53925" lon="5.33618">
        <ele>216.83159</ele>
        <time>2023-03-15T10:22:41.000Z</time>
      </trkpt>
      <trkpt lat="43.53924" lon="5.33621">
        <ele>217.08089</ele>
        <time>2023-03-15T10:22:43.000Z</time>
      </trkpt>
      <trkpt lat="43.53924" lon="5.33624">
        <ele>217.31458</ele>
        <time>2023-03-15T10:22:45.000Z</time>
      </trkpt>
      <trkpt lat="43.53923" lon="5.33627">
        <ele>217.53816</ele>
        <time>2023-03-15T10:22:47.000Z</time>
      </trkpt>
      <trkpt lat="43.53922" lon="5.3363">
        <ele>217.6665</ele>
        <time>2023-03-15T10:22:49.000Z</time>
      </trkpt>
      <trkpt lat="43.53922" lon="5.33632">
        <ele>217.8096</ele>
        <time>2023-03-15T10:22:51.000Z</time>
      </trkpt>
      <trkpt lat="43.53921" lon="5.33635">
        <ele>217.93127</ele>
        <time>2023-03-15T10:22:53.000Z</time>
      </trkpt>
      <trkpt lat="43.53921" lon="5.33638">
        <ele>218.08614</ele>
        <time>2023-03-15T10:22:55.000Z</time>
      </trkpt>
      <trkpt lat="43.5392" lon="5.33641">
        <ele>218.21558</ele>
        <time>2023-03-15T10:22:57.000Z</time>
      </trkpt>
      <trkpt lat="43.5392" lon="5.33643">
        <ele>218.3605</ele>
        <time>2023-03-15T10:22:59.000Z</time>
      </trkpt>
      <trkpt lat="43.53919" lon="5.33645">
        <ele>218.48779</ele>
        <time>2023-03-15T10:23:01.000Z</time>
      </trkpt>
      <trkpt lat="43.53919" lon="5.33648">
        <ele>218.64828</ele>
        <time>2023-03-15T10:23:03.000Z</time>
      </trkpt>
      <trkpt lat="43.53918" lon="5.33651">
        <ele>218.82544</ele>
        <time>2023-03-15T10:23:05.000Z</time>
      </trkpt>
      <trkpt lat="43.53917" lon="5.33654">
        <ele>218.97441</ele>
        <time>2023-03-15T10:23:07.000Z</time>
      </trkpt>
      <trkpt lat="43.53917" lon="5.33657">
        <ele>219.11865</ele>
        <time>2023-03-15T10:23:09.000Z</time>
      </trkpt>
      <trkpt lat="43.53916" lon="5.3366">
        <ele>219.24887</ele>
        <time>2023-03-15T10:23:11.000Z</time>
      </trkpt>
      <trkpt lat="43.53915" lon="5.33662">
        <ele>219.39275</ele>
        <time>2023-03-15T10:23:13.000Z</time>
      </trkpt>
      <trkpt lat="43.53914" lon="5.33665">
        <ele>219.52205</ele>
        <time>2023-03-15T10:23:15.000Z</time>
      </trkpt>
      <trkpt lat="43.53913" lon="5.33668">
        <ele>219.6302</ele>
        <time>2023-03-15T10:23:17.000Z</time>
      </trkpt>
      <trkpt lat="43.53912" lon="5.33671">
        <ele>219.72757</ele>
        <time>2023-03-15T10:23:19.000Z</time>
      </trkpt>
      <trkpt lat="43.53911" lon="5.33673">
        <ele>219.82455</ele>
        <time>2023-03-15T10:23:21.000Z</time>
      </trkpt>
      <trkpt lat="43.5391" lon="5.33676">
        <ele>219.89461</ele>
        <time>2023-03-15T10:23:23.000Z</time>
      </trkpt>
      <trkpt lat="43.53909" lon="5.33678">
        <ele>219.82492</ele>
        <time>2023-03-15T10:23:25.000Z</time>
      </trkpt>
      <trkpt lat="43.53909" lon="5.33681">
        <ele>219.76274</ele>
        <time>2023-03-15T10:23:27.000Z</time>
      </trkpt>
      <trkpt lat="43.53908" lon="5.33683">
        <ele>219.73921</ele>
        <time>2023-03-15T10:23:29.000Z</time>
      </trkpt>
      <trkpt lat="43.53907" lon="5.33686">
        <ele>219.68527</ele>
        <time>2023-03-15T10:23:31.000Z</time>
      </trkpt>
      <trkpt lat="43.53906" lon="5.33688">
        <ele>219.60539</ele>
        <time>2023-03-15T10:23:33.000Z</time>
      </trkpt>
      <trkpt lat="43.53905" lon="5.33691">
        <ele>219.48203</ele>
        <time>2023-03-15T10:23:35.000Z</time>
      </trkpt>
      <trkpt lat="43.53903" lon="5.33693">
        <ele>219.3717</ele>
        <time>2023-03-15T10:23:37.000Z</time>
      </trkpt>
      <trkpt lat="43.53902" lon="5.33697">
        <ele>219.31648</ele>
        <time>2023-03-15T10:23:39.000Z</time>
      </trkpt>
      <trkpt lat="43.53902" lon="5.33699">
        <ele>219.24385</ele>
        <time>2023-03-15T10:23:41.000Z</time>
      </trkpt>
      <trkpt lat="43.53901" lon="5.33702">
        <ele>219.05704</ele>
        <time>2023-03-15T10:23:43.000Z</time>
      </trkpt>
      <trkpt lat="43.539" lon="5.33705">
        <ele>218.86882</ele>
        <time>2023-03-15T10:23:45.000Z</time>
      </trkpt>
      <trkpt lat="43.53899" lon="5.33707">
        <ele>218.72971</ele>
        <time>2023-03-15T10:23:47.000Z</time>
      </trkpt>
      <trkpt lat="43.53898" lon="5.33709">
        <ele>218.5833</ele>
        <time>2023-03-15T10:23:49.000Z</time>
      </trkpt>
      <trkpt lat="43.53897" lon="5.33711">
        <ele>218.44376</ele>
        <time>2023-03-15T10:23:51.000Z</time>
      </trkpt>
      <trkpt lat="43.53896" lon="5.33714">
        <ele>218.28271</ele>
        <time>2023-03-15T10:23:53.000Z</time>
      </trkpt>
      <trkpt lat="43.53894" lon="5.33716">
        <ele>218.13054</ele>
        <time>2023-03-15T10:23:55.000Z</time>
      </trkpt>
      <trkpt lat="43.53893" lon="5.33718">
        <ele>218.00656</ele>
        <time>2023-03-15T10:23:57.000Z</time>
      </trkpt>
      <trkpt lat="43.53892" lon="5.33721">
        <ele>217.89841</ele>
        <time>2023-03-15T10:23:59.000Z</time>
      </trkpt>
      <trkpt lat="43.5389" lon="5.33723">
        <ele>217.82205</ele>
        <time>2023-03-15T10:24:01.000Z</time>
      </trkpt>
      <trkpt lat="43.53889" lon="5.33726">
        <ele>217.76517</ele>
        <time>2023-03-15T10:24:03.000Z</time>
      </trkpt>
      <trkpt lat="43.53887" lon="5.33728">
        <ele>217.84929</ele>
        <time>2023-03-15T10:24:05.000Z</time>
      </trkpt>
      <trkpt lat="43.53886" lon="5.3373">
        <ele>217.89534</ele>
        <time>2023-03-15T10:24:07.000Z</time>
      </trkpt>
      <trkpt lat="43.53885" lon="5.33732">
        <ele>217.93977</ele>
        <time>2023-03-15T10:24:09.000Z</time>
      </trkpt>
      <trkpt lat="43.53884" lon="5.33735">
        <ele>217.99594</ele>
        <time>2023-03-15T10:24:11.000Z</time>
      </trkpt>
      <trkpt lat="43.53883" lon="5.33737">
        <ele>218.12212</ele>
        <time>2023-03-15T10:24:13.000Z</time>
      </trkpt>
      <trkpt lat="43.53882" lon="5.33739">
        <ele>218.33969</ele>
        <time>2023-03-15T10:24:15.000Z</time>
      </trkpt>
      <trkpt lat="43.53881" lon="5.33741">
        <ele>218.58228</ele>
        <time>2023-03-15T10:24:17.000Z</time>
      </trkpt>
      <trkpt lat="43.5388" lon="5.33744">
        <ele>218.82915</ele>
        <time>2023-03-15T10:24:19.000Z</time>
      </trkpt>
      <trkpt lat="43.53879" lon="5.33746">
        <ele>219.04756</ele>
        <time>2023-03-15T10:24:21.000Z</time>
      </trkpt>
      <trkpt lat="43.53878" lon="5.33749">
        <ele>219.26961</ele>
        <time>2023-03-15T10:24:23.000Z</time>
      </trkpt>
      <trkpt lat="43.53876" lon="5.33752">
        <ele>219.47693</ele>
        <time>2023-03-15T10:24:26.000Z</time>
      </trkpt>
      <trkpt lat="43.53875" lon="5.33754">
        <ele>219.61362</ele>
        <time>2023-03-15T10:24:28.000Z</time>
      </trkpt>
      <trkpt lat="43.53873" lon="5.33756">
        <ele>219.76909</ele>
        <time>2023-03-15T10:24:30.000Z</time>
      </trkpt>
      <trkpt lat="43.53871" lon="5.33758">
        <ele>219.93506</ele>
        <time>2023-03-15T10:24:32.000Z</time>
      </trkpt>
      <trkpt lat="43.53869" lon="5.3376">
        <ele>220.13716</ele>
        <time>2023-03-15T10:24:34.000Z</time>
      </trkpt>
      <trkpt lat="43.53867" lon="5.33761">
        <ele>220.32442</ele>
        <time>2023-03-15T10:24:36.000Z</time>
      </trkpt>
      <trkpt lat="43.53865" lon="5.33763">
        <ele>220.51855</ele>
        <time>2023-03-15T10:24:38.000Z</time>
      </trkpt>
      <trkpt lat="43.53863" lon="5.33764">
        <ele>220.65669</ele>
        <time>2023-03-15T10:24:40.000Z</time>
      </trkpt>
      <trkpt lat="43.53861" lon="5.33765">
        <ele>220.75774</ele>
        <time>2023-03-15T10:24:42.000Z</time>
      </trkpt>
      <trkpt lat="43.53859" lon="5.33767">
        <ele>220.86296</ele>
        <time>2023-03-15T10:24:44.000Z</time>
      </trkpt>
      <trkpt lat="43.53857" lon="5.33768">
        <ele>220.90288</ele>
        <time>2023-03-15T10:24:46.000Z</time>
      </trkpt>
      <trkpt lat="43.53855" lon="5.33769">
        <ele>220.9736</ele>
        <time>2023-03-15T10:24:48.000Z</time>
      </trkpt>
      <trkpt lat="43.53853" lon="5.3377">
        <ele>221.03641</ele>
        <time>2023-03-15T10:24:50.000Z</time>
      </trkpt>
      <trkpt lat="43.53852" lon="5.33771">
        <ele>221.07715</ele>
        <time>2023-03-15T10:24:52.000Z</time>
      </trkpt>
      <trkpt lat="43.5385" lon="5.33772">
        <ele>221.07246</ele>
        <time>2023-03-15T10:24:54.000Z</time>
      </trkpt>
      <trkpt lat="43.53848" lon="5.33773">
        <ele>221.03653</ele>
        <time>2023-03-15T10:24:56.000Z</time>
      </trkpt>
      <trkpt lat="43.53846" lon="5.33775">
        <ele>220.92656</ele>
        <time>2023-03-15T10:24:58.000Z</time>
      </trkpt>
      <trkpt lat="43.53844" lon="5.33776">
        <ele>220.73274</ele>
        <time>2023-03-15T10:25:00.000Z</time>
      </trkpt>
      <trkpt lat="43.53842" lon="5.33777">
        <ele>220.57304</ele>
        <time>2023-03-15T10:25:02.000Z</time>
      </trkpt>
      <trkpt lat="43.5384" lon="5.33778">
        <ele>220.49231</ele>
        <time>2023-03-15T10:25:04.000Z</time>
      </trkpt>
      <trkpt lat="43.53838" lon="5.3378">
        <ele>220.38567</ele>
        <time>2023-03-15T10:25:06.000Z</time>
      </trkpt>
      <trkpt lat="43.53836" lon="5.33781">
        <ele>220.32954</ele>
        <time>2023-03-15T10:25:08.000Z</time>
      </trkpt>
      <trkpt lat="43.53834" lon="5.33781">
        <ele>220.23933</ele>
        <time>2023-03-15T10:25:10.000Z</time>
      </trkpt>
      <trkpt lat="43.53832" lon="5.33783">
        <ele>220.11044</ele>
        <time>2023-03-15T10:25:12.000Z</time>
      </trkpt>
      <trkpt lat="43.5383" lon="5.33784">
        <ele>219.95064</ele>
        <time>2023-03-15T10:25:14.000Z</time>
      </trkpt>
      <trkpt lat="43.53828" lon="5.33785">
        <ele>219.80229</ele>
        <time>2023-03-15T10:25:16.000Z</time>
      </trkpt>
      <trkpt lat="43.53826" lon="5.33787">
        <ele>219.65317</ele>
        <time>2023-03-15T10:25:18.000Z</time>
      </trkpt>
      <trkpt lat="43.53824" lon="5.33788">
        <ele>219.54419</ele>
        <time>2023-03-15T10:25:20.000Z</time>
      </trkpt>
      <trkpt lat="43.53822" lon="5.3379">
        <ele>219.43506</ele>
        <time>2023-03-15T10:25:22.000Z</time>
      </trkpt>
      <trkpt lat="43.5382" lon="5.33791">
        <ele>219.32236</ele>
        <time>2023-03-15T10:25:24.000Z</time>
      </trkpt>
      <trkpt lat="43.53818" lon="5.33792">
        <ele>219.17949</ele>
        <time>2023-03-15T10:25:26.000Z</time>
      </trkpt>
      <trkpt lat="43.53816" lon="5.33793">
        <ele>219.02368</ele>
        <time>2023-03-15T10:25:28.000Z</time>
      </trkpt>
      <trkpt lat="43.53814" lon="5.33793">
        <ele>218.88936</ele>
        <time>2023-03-15T10:25:30.000Z</time>
      </trkpt>
      <trkpt lat="43.53812" lon="5.33795">
        <ele>218.77856</ele>
        <time>2023-03-15T10:25:32.000Z</time>
      </trkpt>
      <trkpt lat="43.5381" lon="5.33796">
        <ele>218.65494</ele>
        <time>2023-03-15T10:25:34.000Z</time>
      </trkpt>
      <trkpt lat="43.53808" lon="5.33797">
        <ele>218.50842</ele>
        <time>2023-03-15T10:25:36.000Z</time>
      </trkpt>
      <trkpt lat="43.53806" lon="5.33798">
        <ele>218.39261</ele>
        <time>2023-03-15T10:25:38.000Z</time>
      </trkpt>
      <trkpt lat="43.53804" lon="5.338">
        <ele>218.33121</ele>
        <time>2023-03-15T10:25:40.000Z</time>
      </trkpt>
      <trkpt lat="43.53802" lon="5.338">
        <ele>218.27087</ele>
        <time>2023-03-15T10:25:42.000Z</time>
      </trkpt>
      <trkpt lat="43.538" lon="5.33801">
        <ele>218.18901</ele>
        <time>2023-03-15T10:25:44.000Z</time>
      </trkpt>
      <trkpt lat="43.53798" lon="5.33802">
        <ele>218.11975</ele>
        <time>2023-03-15T10:25:46.000Z</time>
      </trkpt>
      <trkpt lat="43.53796" lon="5.33803">
        <ele>218.00981</ele>
        <time>2023-03-15T10:25:48.000Z</time>
      </trkpt>
      <trkpt lat="43.53795" lon="5.33804">
        <ele>217.9001</ele>
        <time>2023-03-15T10:25:50.000Z</time>
      </trkpt>
      <trkpt lat="43.53793" lon="5.33804">
        <ele>217.81143</ele>
        <time>2023-03-15T10:25:52.000Z</time>
      </trkpt>
      <trkpt lat="43.53791" lon="5.33805">
        <ele>217.71086</ele>
        <time>2023-03-15T10:25:54.000Z</time>
      </trkpt>
      <trkpt lat="43.53789" lon="5.33806">
        <ele>217.59079</ele>
        <time>2023-03-15T10:25:56.000Z</time>
      </trkpt>
      <trkpt lat="43.53787" lon="5.33807">
        <ele>217.47501</ele>
        <time>2023-03-15T10:25:58.000Z</time>
      </trkpt>
      <trkpt lat="43.53785" lon="5.33808">
        <ele>217.37407</ele>
        <time>2023-03-15T10:26:00.000Z</time>
      </trkpt>
      <trkpt lat="43.53782" lon="5.33808">
        <ele>217.27217</ele>
        <time>2023-03-15T10:26:02.000Z</time>
      </trkpt>
      <trkpt lat="43.5378" lon="5.33809">
        <ele>217.14668</ele>
        <time>2023-03-15T10:26:04.000Z</time>
      </trkpt>
      <trkpt lat="43.53778" lon="5.33808">
        <ele>217.08273</ele>
        <time>2023-03-15T10:26:06.000Z</time>
      </trkpt>
      <trkpt lat="43.53776" lon="5.33808">
        <ele>216.98787</ele>
        <time>2023-03-15T10:26:08.000Z</time>
      </trkpt>
      <trkpt lat="43.53774" lon="5.33808">
        <ele>216.86606</ele>
        <time>2023-03-15T10:26:10.000Z</time>
      </trkpt>
      <trkpt lat="43.53771" lon="5.33809">
        <ele>216.69986</ele>
        <time>2023-03-15T10:26:12.000Z</time>
      </trkpt>
      <trkpt lat="43.53769" lon="5.33809">
        <ele>216.53152</ele>
        <time>2023-03-15T10:26:14.000Z</time>
      </trkpt>
      <trkpt lat="43.53767" lon="5.33809">
        <ele>216.33163</ele>
        <time>2023-03-15T10:26:16.000Z</time>
      </trkpt>
      <trkpt lat="43.53765" lon="5.33809">
        <ele>216.11292</ele>
        <time>2023-03-15T10:26:18.000Z</time>
      </trkpt>
      <trkpt lat="43.53763" lon="5.33809">
        <ele>215.86948</ele>
        <time>2023-03-15T10:26:20.000Z</time>
      </trkpt>
      <trkpt lat="43.53761" lon="5.33808">
        <ele>215.63899</ele>
        <time>2023-03-15T10:26:22.000Z</time>
      </trkpt>
      <trkpt lat="43.53759" lon="5.33809">
        <ele>215.41812</ele>
        <time>2023-03-15T10:26:24.000Z</time>
      </trkpt>
      <trkpt lat="43.53757" lon="5.33809">
        <ele>215.20273</ele>
        <time>2023-03-15T10:26:26.000Z</time>
      </trkpt>
      <trkpt lat="43.53754" lon="5.33808">
        <ele>215.00415</ele>
        <time>2023-03-15T10:26:28.000Z</time>
      </trkpt>
      <trkpt lat="43.53752" lon="5.33808">
        <ele>214.78789</ele>
        <time>2023-03-15T10:26:30.000Z</time>
      </trkpt>
      <trkpt lat="43.5375" lon="5.33808">
        <ele>214.58296</ele>
        <time>2023-03-15T10:26:32.000Z</time>
      </trkpt>
      <trkpt lat="43.53748" lon="5.33808">
        <ele>214.32846</ele>
        <time>2023-03-15T10:26:34.000Z</time>
      </trkpt>
      <trkpt lat="43.53746" lon="5.33808">
        <ele>214.09248</ele>
        <time>2023-03-15T10:26:36.000Z</time>
      </trkpt>
      <trkpt lat="43.53744" lon="5.33808">
        <ele>213.84351</ele>
        <time>2023-03-15T10:26:38.000Z</time>
      </trkpt>
      <trkpt lat="43.53742" lon="5.33808">
        <ele>213.55046</ele>
        <time>2023-03-15T10:26:40.000Z</time>
      </trkpt>
      <trkpt lat="43.53739" lon="5.33808">
        <ele>213.26201</ele>
        <time>2023-03-15T10:26:42.000Z</time>
      </trkpt>
      <trkpt lat="43.53737" lon="5.33807">
        <ele>213.00217</ele>
        <time>2023-03-15T10:26:44.000Z</time>
      </trkpt>
      <trkpt lat="43.53735" lon="5.33807">
        <ele>212.70749</ele>
        <time>2023-03-15T10:26:46.000Z</time>
      </trkpt>
      <trkpt lat="43.53733" lon="5.33807">
        <ele>212.46353</ele>
        <time>2023-03-15T10:26:48.000Z</time>
      </trkpt>
      <trkpt lat="43.53731" lon="5.33807">
        <ele>212.2365</ele>
        <time>2023-03-15T10:26:50.000Z</time>
      </trkpt>
      <trkpt lat="43.53729" lon="5.33807">
        <ele>212.02747</ele>
        <time>2023-03-15T10:26:52.000Z</time>
      </trkpt>
      <trkpt lat="43.53727" lon="5.33806">
        <ele>211.85709</ele>
        <time>2023-03-15T10:26:54.000Z</time>
      </trkpt>
      <trkpt lat="43.53725" lon="5.33806">
        <ele>211.71321</ele>
        <time>2023-03-15T10:26:56.000Z</time>
      </trkpt>
      <trkpt lat="43.53723" lon="5.33805">
        <ele>211.55978</ele>
        <time>2023-03-15T10:26:58.000Z</time>
      </trkpt>
      <trkpt lat="43.53721" lon="5.33804">
        <ele>211.41879</ele>
        <time>2023-03-15T10:27:00.000Z</time>
      </trkpt>
      <trkpt lat="43.53719" lon="5.33803">
        <ele>211.25558</ele>
        <time>2023-03-15T10:27:02.000Z</time>
      </trkpt>
      <trkpt lat="43.53717" lon="5.33802">
        <ele>211.07246</ele>
        <time>2023-03-15T10:27:04.000Z</time>
      </trkpt>
      <trkpt lat="43.53715" lon="5.33803">
        <ele>210.87524</ele>
        <time>2023-03-15T10:27:06.000Z</time>
      </trkpt>
      <trkpt lat="43.53713" lon="5.33802">
        <ele>210.68076</ele>
        <time>2023-03-15T10:27:08.000Z</time>
      </trkpt>
      <trkpt lat="43.53711" lon="5.33802">
        <ele>210.52808</ele>
        <time>2023-03-15T10:27:10.000Z</time>
      </trkpt>
      <trkpt lat="43.53709" lon="5.33801">
        <ele>210.38139</ele>
        <time>2023-03-15T10:27:12.000Z</time>
      </trkpt>
      <trkpt lat="43.53707" lon="5.338">
        <ele>210.29138</ele>
        <time>2023-03-15T10:27:14.000Z</time>
      </trkpt>
      <trkpt lat="43.53704" lon="5.338">
        <ele>210.18831</ele>
        <time>2023-03-15T10:27:16.000Z</time>
      </trkpt>
      <trkpt lat="43.53702" lon="5.33799">
        <ele>210.08244</ele>
        <time>2023-03-15T10:27:18.000Z</time>
      </trkpt>
      <trkpt lat="43.537" lon="5.33798">
        <ele>209.99564</ele>
        <time>2023-03-15T10:27:20.000Z</time>
      </trkpt>
      <trkpt lat="43.53698" lon="5.33797">
        <ele>209.93584</ele>
        <time>2023-03-15T10:27:22.000Z</time>
      </trkpt>
      <trkpt lat="43.53696" lon="5.33795">
        <ele>209.88962</ele>
        <time>2023-03-15T10:27:24.000Z</time>
      </trkpt>
      <trkpt lat="43.53694" lon="5.33794">
        <ele>209.87387</ele>
        <time>2023-03-15T10:27:26.000Z</time>
      </trkpt>
      <trkpt lat="43.53692" lon="5.33793">
        <ele>209.8353</ele>
        <time>2023-03-15T10:27:28.000Z</time>
      </trkpt>
      <trkpt lat="43.5369" lon="5.33792">
        <ele>209.80026</ele>
        <time>2023-03-15T10:27:30.000Z</time>
      </trkpt>
      <trkpt lat="43.53689" lon="5.33791">
        <ele>209.78366</ele>
        <time>2023-03-15T10:27:32.000Z</time>
      </trkpt>
      <trkpt lat="43.53687" lon="5.3379">
        <ele>209.76289</ele>
        <time>2023-03-15T10:27:34.000Z</time>
      </trkpt>
      <trkpt lat="43.53685" lon="5.33789">
        <ele>209.7626</ele>
        <time>2023-03-15T10:27:36.000Z</time>
      </trkpt>
      <trkpt lat="43.53683" lon="5.33788">
        <ele>209.79605</ele>
        <time>2023-03-15T10:27:38.000Z</time>
      </trkpt>
      <trkpt lat="43.53681" lon="5.33787">
        <ele>209.847</ele>
        <time>2023-03-15T10:27:40.000Z</time>
      </trkpt>
      <trkpt lat="43.53679" lon="5.33786">
        <ele>209.91084</ele>
        <time>2023-03-15T10:27:42.000Z</time>
      </trkpt>
      <trkpt lat="43.53676" lon="5.33786">
        <ele>210.00203</ele>
        <time>2023-03-15T10:27:44.000Z</time>
      </trkpt>
      <trkpt lat="43.53674" lon="5.33785">
        <ele>210.09836</ele>
        <time>2023-03-15T10:27:46.000Z</time>
      </trkpt>
      <trkpt lat="43.53672" lon="5.33784">
        <ele>210.23203</ele>
        <time>2023-03-15T10:27:48.000Z</time>
      </trkpt>
      <trkpt lat="43.5367" lon="5.33783">
        <ele>210.33244</ele>
        <time>2023-03-15T10:27:50.000Z</time>
      </trkpt>
      <trkpt lat="43.53668" lon="5.33782">
        <ele>210.41891</ele>
        <time>2023-03-15T10:27:52.000Z</time>
      </trkpt>
      <trkpt lat="43.53667" lon="5.33781">
        <ele>210.48563</ele>
        <time>2023-03-15T10:27:54.000Z</time>
      </trkpt>
      <trkpt lat="43.53665" lon="5.3378">
        <ele>210.6062</ele>
        <time>2023-03-15T10:27:56.000Z</time>
      </trkpt>
      <trkpt lat="43.53663" lon="5.33779">
        <ele>210.72185</ele>
        <time>2023-03-15T10:27:58.000Z</time>
      </trkpt>
      <trkpt lat="43.53661" lon="5.33778">
        <ele>210.83487</ele>
        <time>2023-03-15T10:28:00.000Z</time>
      </trkpt>
      <trkpt lat="43.53659" lon="5.33777">
        <ele>210.92781</ele>
        <time>2023-03-15T10:28:02.000Z</time>
      </trkpt>
      <trkpt lat="43.53657" lon="5.33776">
        <ele>211.02971</ele>
        <time>2023-03-15T10:28:04.000Z</time>
      </trkpt>
      <trkpt lat="43.53655" lon="5.33775">
        <ele>211.12312</ele>
        <time>2023-03-15T10:28:06.000Z</time>
      </trkpt>
      <trkpt lat="43.53653" lon="5.33775">
        <ele>211.20711</ele>
        <time>2023-03-15T10:28:08.000Z</time>
      </trkpt>
      <trkpt lat="43.53651" lon="5.33775">
        <ele>211.25281</ele>
        <time>2023-03-15T10:28:10.000Z</time>
      </trkpt>
      <trkpt lat="43.53649" lon="5.33774">
        <ele>211.31001</ele>
        <time>2023-03-15T10:28:12.000Z</time>
      </trkpt>
      <trkpt lat="43.53647" lon="5.33773">
        <ele>211.33862</ele>
        <time>2023-03-15T10:28:14.000Z</time>
      </trkpt>
      <trkpt lat="43.53645" lon="5.33772">
        <ele>211.34286</ele>
        <time>2023-03-15T10:28:16.000Z</time>
      </trkpt>
      <trkpt lat="43.53642" lon="5.33771">
        <ele>211.33223</ele>
        <time>2023-03-15T10:28:18.000Z</time>
      </trkpt>
      <trkpt lat="43.5364" lon="5.33771">
        <ele>211.31955</ele>
        <time>2023-03-15T10:28:20.000Z</time>
      </trkpt>
      <trkpt lat="43.53638" lon="5.3377">
        <ele>211.31621</ele>
        <time>2023-03-15T10:28:22.000Z</time>
      </trkpt>
      <trkpt lat="43.53636" lon="5.33769">
        <ele>211.30098</ele>
        <time>2023-03-15T10:28:24.000Z</time>
      </trkpt>
      <trkpt lat="43.53634" lon="5.33769">
        <ele>211.28755</ele>
        <time>2023-03-15T10:28:26.000Z</time>
      </trkpt>
      <trkpt lat="43.53632" lon="5.33767">
        <ele>211.28378</ele>
        <time>2023-03-15T10:28:28.000Z</time>
      </trkpt>
      <trkpt lat="43.5363" lon="5.33766">
        <ele>211.32211</ele>
        <time>2023-03-15T10:28:30.000Z</time>
      </trkpt>
      <trkpt lat="43.53628" lon="5.33764">
        <ele>211.36099</ele>
        <time>2023-03-15T10:28:32.000Z</time>
      </trkpt>
      <trkpt lat="43.53626" lon="5.33763">
        <ele>211.42203</ele>
        <time>2023-03-15T10:28:34.000Z</time>
      </trkpt>
      <trkpt lat="43.53624" lon="5.33761">
        <ele>211.43979</ele>
        <time>2023-03-15T10:28:36.000Z</time>
      </trkpt>
      <trkpt lat="43.53622" lon="5.33759">
        <ele>211.47928</ele>
        <time>2023-03-15T10:28:38.000Z</time>
      </trkpt>
      <trkpt lat="43.5362" lon="5.33757">
        <ele>211.54532</ele>
        <time>2023-03-15T10:28:40.000Z</time>
      </trkpt>
      <trkpt lat="43.53619" lon="5.33756">
        <ele>211.60677</ele>
        <time>2023-03-15T10:28:42.000Z</time>
      </trkpt>
      <trkpt lat="43.53617" lon="5.33755">
        <ele>211.63811</ele>
        <time>2023-03-15T10:28:44.000Z</time>
      </trkpt>
      <trkpt lat="43.53615" lon="5.33753">
        <ele>211.70996</ele>
        <time>2023-03-15T10:28:46.000Z</time>
      </trkpt>
      <trkpt lat="43.53613" lon="5.33751">
        <ele>211.78252</ele>
        <time>2023-03-15T10:28:48.000Z</time>
      </trkpt>
      <trkpt lat="43.53611" lon="5.3375">
        <ele>211.88132</ele>
        <time>2023-03-15T10:28:50.000Z</time>
      </trkpt>
      <trkpt lat="43.5361" lon="5.33749">
        <ele>211.94206</ele>
        <time>2023-03-15T10:28:52.000Z</time>
      </trkpt>
      <trkpt lat="43.53608" lon="5.33747">
        <ele>212.00005</ele>
        <time>2023-03-15T10:28:54.000Z</time>
      </trkpt>
      <trkpt lat="43.53606" lon="5.33745">
        <ele>212.06674</ele>
        <time>2023-03-15T10:28:56.000Z</time>
      </trkpt>
      <trkpt lat="43.53604" lon="5.33743">
        <ele>212.15732</ele>
        <time>2023-03-15T10:28:58.000Z</time>
      </trkpt>
      <trkpt lat="43.53603" lon="5.33741">
        <ele>212.26614</ele>
        <time>2023-03-15T10:29:00.000Z</time>
      </trkpt>
      <trkpt lat="43.53601" lon="5.33739">
        <ele>212.37122</ele>
        <time>2023-03-15T10:29:02.000Z</time>
      </trkpt>
      <trkpt lat="43.536" lon="5.33737">
        <ele>212.50822</ele>
        <time>2023-03-15T10:29:04.000Z</time>
      </trkpt>
      <trkpt lat="43.53598" lon="5.33736">
        <ele>212.68344</ele>
        <time>2023-03-15T10:29:06.000Z</time>
      </trkpt>
      <trkpt lat="43.53596" lon="5.33734">
        <ele>212.86185</ele>
        <time>2023-03-15T10:29:08.000Z</time>
      </trkpt>
      <trkpt lat="43.53594" lon="5.33733">
        <ele>213.03362</ele>
        <time>2023-03-15T10:29:10.000Z</time>
      </trkpt>
      <trkpt lat="43.53592" lon="5.33732">
        <ele>213.2168</ele>
        <time>2023-03-15T10:29:12.000Z</time>
      </trkpt>
      <trkpt lat="43.5359" lon="5.33731">
        <ele>213.403</ele>
        <time>2023-03-15T10:29:14.000Z</time>
      </trkpt>
      <trkpt lat="43.53588" lon="5.33731">
        <ele>213.60823</ele>
        <time>2023-03-15T10:29:16.000Z</time>
      </trkpt>
      <trkpt lat="43.53586" lon="5.33731">
        <ele>213.82056</ele>
        <time>2023-03-15T10:29:18.000Z</time>
      </trkpt>
      <trkpt lat="43.53584" lon="5.33731">
        <ele>214.00928</ele>
        <time>2023-03-15T10:29:20.000Z</time>
      </trkpt>
      <trkpt lat="43.53582" lon="5.33731">
        <ele>214.20761</ele>
        <time>2023-03-15T10:29:22.000Z</time>
      </trkpt>
      <trkpt lat="43.53579" lon="5.33732">
        <ele>214.41997</ele>
        <time>2023-03-15T10:29:25.000Z</time>
      </trkpt>
      <trkpt lat="43.53577" lon="5.33733">
        <ele>214.58237</ele>
        <time>2023-03-15T10:29:27.000Z</time>
      </trkpt>
      <trkpt lat="43.53575" lon="5.33735">
        <ele>214.77527</ele>
        <time>2023-03-15T10:29:29.000Z</time>
      </trkpt>
      <trkpt lat="43.53574" lon="5.33736">
        <ele>214.99271</ele>
        <time>2023-03-15T10:29:31.000Z</time>
      </trkpt>
      <trkpt lat="43.53572" lon="5.33738">
        <ele>215.24783</ele>
        <time>2023-03-15T10:29:33.000Z</time>
      </trkpt>
      <trkpt lat="43.5357" lon="5.33739">
        <ele>215.50032</ele>
        <time>2023-03-15T10:29:35.000Z</time>
      </trkpt>
      <trkpt lat="43.53568" lon="5.3374">
        <ele>215.746</ele>
        <time>2023-03-15T10:29:37.000Z</time>
      </trkpt>
      <trkpt lat="43.53566" lon="5.33741">
        <ele>215.9832</ele>
        <time>2023-03-15T10:29:39.000Z</time>
      </trkpt>
      <trkpt lat="43.53564" lon="5.33741">
        <ele>216.21257</ele>
        <time>2023-03-15T10:29:41.000Z</time>
      </trkpt>
      <trkpt lat="43.53562" lon="5.33741">
        <ele>216.44052</ele>
        <time>2023-03-15T10:29:43.000Z</time>
      </trkpt>
      <trkpt lat="43.5356" lon="5.33741">
        <ele>216.60222</ele>
        <time>2023-03-15T10:29:45.000Z</time>
      </trkpt>
      <trkpt lat="43.53558" lon="5.33741">
        <ele>216.69275</ele>
        <time>2023-03-15T10:29:47.000Z</time>
      </trkpt>
      <trkpt lat="43.53556" lon="5.3374">
        <ele>216.73108</ele>
        <time>2023-03-15T10:29:49.000Z</time>
      </trkpt>
      <trkpt lat="43.53554" lon="5.3374">
        <ele>216.70801</ele>
        <time>2023-03-15T10:29:51.000Z</time>
      </trkpt>
      <trkpt lat="43.53552" lon="5.3374">
        <ele>216.66049</ele>
        <time>2023-03-15T10:29:53.000Z</time>
      </trkpt>
      <trkpt lat="43.5355" lon="5.3374">
        <ele>216.59966</ele>
        <time>2023-03-15T10:29:55.000Z</time>
      </trkpt>
      <trkpt lat="43.53548" lon="5.33739">
        <ele>216.52637</ele>
        <time>2023-03-15T10:29:57.000Z</time>
      </trkpt>
      <trkpt lat="43.53546" lon="5.33738">
        <ele>216.43982</ele>
        <time>2023-03-15T10:29:59.000Z</time>
      </trkpt>
      <trkpt lat="43.53544" lon="5.33737">
        <ele>216.3665</ele>
        <time>2023-03-15T10:30:01.000Z</time>
      </trkpt>
      <trkpt lat="43.53541" lon="5.33737">
        <ele>216.27481</ele>
        <time>2023-03-15T10:30:03.000Z</time>
      </trkpt>
      <trkpt lat="43.53539" lon="5.33736">
        <ele>216.14168</ele>
        <time>2023-03-15T10:30:05.000Z</time>
      </trkpt>
      <trkpt lat="43.53537" lon="5.33735">
        <ele>216.02946</ele>
        <time>2023-03-15T10:30:07.000Z</time>
      </trkpt>
      <trkpt lat="43.53535" lon="5.33734">
        <ele>215.86995</ele>
        <time>2023-03-15T10:30:09.000Z</time>
      </trkpt>
      <trkpt lat="43.53533" lon="5.33733">
        <ele>215.67976</ele>
        <time>2023-03-15T10:30:11.000Z</time>
      </trkpt>
      <trkpt lat="43.5353" lon="5.33732">
        <ele>215.47124</ele>
        <time>2023-03-15T10:30:13.000Z</time>
      </trkpt>
      <trkpt lat="43.53528" lon="5.33731">
        <ele>215.26489</ele>
        <time>2023-03-15T10:30:15.000Z</time>
      </trkpt>
      <trkpt lat="43.53527" lon="5.3373">
        <ele>215.06575</ele>
        <time>2023-03-15T10:30:17.000Z</time>
      </trkpt>
      <trkpt lat="43.53525" lon="5.33729">
        <ele>214.86694</ele>
        <time>2023-03-15T10:30:19.000Z</time>
      </trkpt>
      <trkpt lat="43.53523" lon="5.33728">
        <ele>214.64156</ele>
        <time>2023-03-15T10:30:21.000Z</time>
      </trkpt>
      <trkpt lat="43.53521" lon="5.33726">
        <ele>214.41467</ele>
        <time>2023-03-15T10:30:23.000Z</time>
      </trkpt>
      <trkpt lat="43.5352" lon="5.33725">
        <ele>214.21162</ele>
        <time>2023-03-15T10:30:25.000Z</time>
      </trkpt>
      <trkpt lat="43.53518" lon="5.33723">
        <ele>214.02592</ele>
        <time>2023-03-15T10:30:27.000Z</time>
      </trkpt>
      <trkpt lat="43.53516" lon="5.33721">
        <ele>213.85222</ele>
        <time>2023-03-15T10:30:29.000Z</time>
      </trkpt>
      <trkpt lat="43.53515" lon="5.33719">
        <ele>213.74484</ele>
        <time>2023-03-15T10:30:31.000Z</time>
      </trkpt>
      <trkpt lat="43.53514" lon="5.33717">
        <ele>213.65494</ele>
        <time>2023-03-15T10:30:33.000Z</time>
      </trkpt>
      <trkpt lat="43.53512" lon="5.33714">
        <ele>213.56799</ele>
        <time>2023-03-15T10:30:35.000Z</time>
      </trkpt>
      <trkpt lat="43.5351" lon="5.33712">
        <ele>213.46346</ele>
        <time>2023-03-15T10:30:37.000Z</time>
      </trkpt>
      <trkpt lat="43.53509" lon="5.3371">
        <ele>213.34567</ele>
        <time>2023-03-15T10:30:39.000Z</time>
      </trkpt>
      <trkpt lat="43.53507" lon="5.33708">
        <ele>213.23088</ele>
        <time>2023-03-15T10:30:41.000Z</time>
      </trkpt>
      <trkpt lat="43.53506" lon="5.33707">
        <ele>213.11723</ele>
        <time>2023-03-15T10:30:43.000Z</time>
      </trkpt>
      <trkpt lat="43.53504" lon="5.33705">
        <ele>213.02328</ele>
        <time>2023-03-15T10:30:46.000Z</time>
      </trkpt>
      <trkpt lat="43.53502" lon="5.33703">
        <ele>212.94043</ele>
        <time>2023-03-15T10:30:48.000Z</time>
      </trkpt>
      <trkpt lat="43.53501" lon="5.33702">
        <ele>212.89603</ele>
        <time>2023-03-15T10:30:50.000Z</time>
      </trkpt>
      <trkpt lat="43.53499" lon="5.33701">
        <ele>212.87051</ele>
        <time>2023-03-15T10:30:52.000Z</time>
      </trkpt>
      <trkpt lat="43.53496" lon="5.337">
        <ele>212.8688</ele>
        <time>2023-03-15T10:30:54.000Z</time>
      </trkpt>
      <trkpt lat="43.53494" lon="5.33699">
        <ele>212.87085</ele>
        <time>2023-03-15T10:30:56.000Z</time>
      </trkpt>
      <trkpt lat="43.53492" lon="5.33699">
        <ele>212.88335</ele>
        <time>2023-03-15T10:30:58.000Z</time>
      </trkpt>
      <trkpt lat="43.5349" lon="5.33698">
        <ele>212.89363</ele>
        <time>2023-03-15T10:31:00.000Z</time>
      </trkpt>
      <trkpt lat="43.53488" lon="5.33698">
        <ele>212.90909</ele>
        <time>2023-03-15T10:31:02.000Z</time>
      </trkpt>
      <trkpt lat="43.53486" lon="5.33698">
        <ele>212.93428</ele>
        <time>2023-03-15T10:31:04.000Z</time>
      </trkpt>
      <trkpt lat="43.53483" lon="5.33699">
        <ele>212.97525</ele>
        <time>2023-03-15T10:31:06.000Z</time>
      </trkpt>
      <trkpt lat="43.53481" lon="5.337">
        <ele>213.00601</ele>
        <time>2023-03-15T10:31:08.000Z</time>
      </trkpt>
      <trkpt lat="43.53479" lon="5.33701">
        <ele>213.04886</ele>
        <time>2023-03-15T10:31:10.000Z</time>
      </trkpt>
      <trkpt lat="43.53477" lon="5.33702">
        <ele>213.08098</ele>
        <time>2023-03-15T10:31:12.000Z</time>
      </trkpt>
      <trkpt lat="43.53475" lon="5.33703">
        <ele>213.13107</ele>
        <time>2023-03-15T10:31:14.000Z</time>
      </trkpt>
      <trkpt lat="43.53473" lon="5.33705">
        <ele>213.16606</ele>
        <time>2023-03-15T10:31:16.000Z</time>
      </trkpt>
      <trkpt lat="43.53471" lon="5.33706">
        <ele>213.20923</ele>
        <time>2023-03-15T10:31:18.000Z</time>
      </trkpt>
      <trkpt lat="43.53469" lon="5.33707">
        <ele>213.29057</ele>
        <time>2023-03-15T10:31:20.000Z</time>
      </trkpt>
      <trkpt lat="43.53467" lon="5.33708">
        <ele>213.3831</ele>
        <time>2023-03-15T10:31:22.000Z</time>
      </trkpt>
      <trkpt lat="43.53465" lon="5.33708">
        <ele>213.47832</ele>
        <time>2023-03-15T10:31:24.000Z</time>
      </trkpt>
      <trkpt lat="43.53463" lon="5.33709">
        <ele>213.54529</ele>
        <time>2023-03-15T10:31:26.000Z</time>
      </trkpt>
      <trkpt lat="43.53461" lon="5.3371">
        <ele>213.59317</ele>
        <time>2023-03-15T10:31:28.000Z</time>
      </trkpt>
      <trkpt lat="43.53459" lon="5.33711">
        <ele>213.60567</ele>
        <time>2023-03-15T10:31:30.000Z</time>
      </trkpt>
      <trkpt lat="43.53457" lon="5.33711">
        <ele>213.6228</ele>
        <time>2023-03-15T10:31:32.000Z</time>
      </trkpt>
      <trkpt lat="43.53455" lon="5.33711">
        <ele>213.63489</ele>
        <time>2023-03-15T10:31:34.000Z</time>
      </trkpt>
      <trkpt lat="43.53453" lon="5.33712">
        <ele>213.64319</ele>
        <time>2023-03-15T10:31:36.000Z</time>
      </trkpt>
      <trkpt lat="43.53451" lon="5.33713">
        <ele>213.65666</ele>
        <time>2023-03-15T10:31:38.000Z</time>
      </trkpt>
      <trkpt lat="43.53449" lon="5.33714">
        <ele>213.6357</ele>
        <time>2023-03-15T10:31:40.000Z</time>
      </trkpt>
      <trkpt lat="43.53447" lon="5.33714">
        <ele>213.62468</ele>
        <time>2023-03-15T10:31:42.000Z</time>
      </trkpt>
      <trkpt lat="43.53445" lon="5.33715">
        <ele>213.58691</ele>
        <time>2023-03-15T10:31:44.000Z</time>
      </trkpt>
      <trkpt lat="43.53443" lon="5.33715">
        <ele>213.50867</ele>
        <time>2023-03-15T10:31:46.000Z</time>
      </trkpt>
      <trkpt lat="43.53441" lon="5.33715">
        <ele>213.47481</ele>
        <time>2023-03-15T10:31:48.000Z</time>
      </trkpt>
      <trkpt lat="43.53438" lon="5.33715">
        <ele>213.43396</ele>
        <time>2023-03-15T10:31:50.000Z</time>
      </trkpt>
      <trkpt lat="43.53436" lon="5.33715">
        <ele>213.38933</ele>
        <time>2023-03-15T10:31:52.000Z</time>
      </trkpt>
      <trkpt lat="43.53434" lon="5.33716">
        <ele>213.34866</ele>
        <time>2023-03-15T10:31:54.000Z</time>
      </trkpt>
      <trkpt lat="43.53432" lon="5.33715">
        <ele>213.31902</ele>
        <time>2023-03-15T10:31:56.000Z</time>
      </trkpt>
      <trkpt lat="43.5343" lon="5.33715">
        <ele>213.26218</ele>
        <time>2023-03-15T10:31:58.000Z</time>
      </trkpt>
      <trkpt lat="43.53428" lon="5.33715">
        <ele>213.14958</ele>
        <time>2023-03-15T10:32:00.000Z</time>
      </trkpt>
      <trkpt lat="43.53426" lon="5.33715">
        <ele>213.00565</ele>
        <time>2023-03-15T10:32:02.000Z</time>
      </trkpt>
      <trkpt lat="43.53424" lon="5.33715">
        <ele>212.8634</ele>
        <time>2023-03-15T10:32:04.000Z</time>
      </trkpt>
      <trkpt lat="43.53421" lon="5.33715">
        <ele>212.7782</ele>
        <time>2023-03-15T10:32:06.000Z</time>
      </trkpt>
      <trkpt lat="43.53419" lon="5.33714">
        <ele>212.70584</ele>
        <time>2023-03-15T10:32:08.000Z</time>
      </trkpt>
      <trkpt lat="43.53417" lon="5.33713">
        <ele>212.64925</ele>
        <time>2023-03-15T10:32:10.000Z</time>
      </trkpt>
      <trkpt lat="43.53415" lon="5.33712">
        <ele>212.56009</ele>
        <time>2023-03-15T10:32:12.000Z</time>
      </trkpt>
      <trkpt lat="43.53413" lon="5.33712">
        <ele>212.46281</ele>
        <time>2023-03-15T10:32:14.000Z</time>
      </trkpt>
      <trkpt lat="43.53411" lon="5.33712">
        <ele>212.37598</ele>
        <time>2023-03-15T10:32:16.000Z</time>
      </trkpt>
      <trkpt lat="43.53409" lon="5.33711">
        <ele>212.2635</ele>
        <time>2023-03-15T10:32:18.000Z</time>
      </trkpt>
      <trkpt lat="43.53407" lon="5.3371">
        <ele>212.1947</ele>
        <time>2023-03-15T10:32:20.000Z</time>
      </trkpt>
      <trkpt lat="43.53405" lon="5.33709">
        <ele>212.09744</ele>
        <time>2023-03-15T10:32:22.000Z</time>
      </trkpt>
      <trkpt lat="43.53403" lon="5.33709">
        <ele>211.9982</ele>
        <time>2023-03-15T10:32:24.000Z</time>
      </trkpt>
      <trkpt lat="43.53401" lon="5.33708">
        <ele>211.93587</ele>
        <time>2023-03-15T10:32:26.000Z</time>
      </trkpt>
      <trkpt lat="43.53399" lon="5.33707">
        <ele>211.8894</ele>
        <time>2023-03-15T10:32:28.000Z</time>
      </trkpt>
      <trkpt lat="43.53397" lon="5.33707">
        <ele>211.83672</ele>
        <time>2023-03-15T10:32:30.000Z</time>
      </trkpt>
      <trkpt lat="43.53395" lon="5.33705">
        <ele>211.82634</ele>
        <time>2023-03-15T10:32:32.000Z</time>
      </trkpt>
      <trkpt lat="43.53393" lon="5.33705">
        <ele>211.77083</ele>
        <time>2023-03-15T10:32:34.000Z</time>
      </trkpt>
      <trkpt lat="43.53391" lon="5.33704">
        <ele>211.70676</ele>
        <time>2023-03-15T10:32:36.000Z</time>
      </trkpt>
      <trkpt lat="43.53389" lon="5.33703">
        <ele>211.67912</ele>
        <time>2023-03-15T10:32:38.000Z</time>
      </trkpt>
      <trkpt lat="43.53387" lon="5.33702">
        <ele>211.68591</ele>
        <time>2023-03-15T10:32:40.000Z</time>
      </trkpt>
      <trkpt lat="43.53385" lon="5.337">
        <ele>211.72522</ele>
        <time>2023-03-15T10:32:42.000Z</time>
      </trkpt>
      <trkpt lat="43.53382" lon="5.33699">
        <ele>211.78987</ele>
        <time>2023-03-15T10:32:44.000Z</time>
      </trkpt>
      <trkpt lat="43.5338" lon="5.33698">
        <ele>211.83755</ele>
        <time>2023-03-15T10:32:46.000Z</time>
      </trkpt>
      <trkpt lat="43.53378" lon="5.33698">
        <ele>211.87952</ele>
        <time>2023-03-15T10:32:48.000Z</time>
      </trkpt>
      <trkpt lat="43.53376" lon="5.33697">
        <ele>211.93338</ele>
        <time>2023-03-15T10:32:50.000Z</time>
      </trkpt>
      <trkpt lat="43.53374" lon="5.33696">
        <ele>212.01433</ele>
        <time>2023-03-15T10:32:52.000Z</time>
      </trkpt>
      <trkpt lat="43.53373" lon="5.33695">
        <ele>212.07515</ele>
        <time>2023-03-15T10:32:54.000Z</time>
      </trkpt>
      <trkpt lat="43.5337" lon="5.33695">
        <ele>212.11885</ele>
        <time>2023-03-15T10:32:59.000Z</time>
      </trkpt>
      <trkpt lat="43.53368" lon="5.33694">
        <ele>212.19194</ele>
        <time>2023-03-15T10:33:06.000Z</time>
      </trkpt>
      <trkpt lat="43.53366" lon="5.33693">
        <ele>212.23564</ele>
        <time>2023-03-15T10:33:08.000Z</time>
      </trkpt>
      <trkpt lat="43.53366" lon="5.3369">
        <ele>212.3166</ele>
        <time>2023-03-15T10:33:10.000Z</time>
      </trkpt>
      <trkpt lat="43.53367" lon="5.33692">
        <ele>212.45161</ele>
        <time>2023-03-15T10:34:22.000Z</time>
      </trkpt>
      <trkpt lat="43.53365" lon="5.33691">
        <ele>212.56665</ele>
        <time>2023-03-15T10:34:26.000Z</time>
      </trkpt>
      <trkpt lat="43.53363" lon="5.3369">
        <ele>212.70163</ele>
        <time>2023-03-15T10:34:29.000Z</time>
      </trkpt>
      <trkpt lat="43.53361" lon="5.33691">
        <ele>212.81795</ele>
        <time>2023-03-15T10:34:31.000Z</time>
      </trkpt>
      <trkpt lat="43.53359" lon="5.33689">
        <ele>212.92773</ele>
        <time>2023-03-15T10:34:34.000Z</time>
      </trkpt>
      <trkpt lat="43.53356" lon="5.33687">
        <ele>213.10506</ele>
        <time>2023-03-15T10:34:37.000Z</time>
      </trkpt>
      <trkpt lat="43.53354" lon="5.33686">
        <ele>213.31107</ele>
        <time>2023-03-15T10:34:39.000Z</time>
      </trkpt>
      <trkpt lat="43.53352" lon="5.33684">
        <ele>213.52353</ele>
        <time>2023-03-15T10:34:41.000Z</time>
      </trkpt>
      <trkpt lat="43.5335" lon="5.33682">
        <ele>213.76254</ele>
        <time>2023-03-15T10:34:43.000Z</time>
      </trkpt>
      <trkpt lat="43.53348" lon="5.33681">
        <ele>213.96306</ele>
        <time>2023-03-15T10:34:45.000Z</time>
      </trkpt>
      <trkpt lat="43.53346" lon="5.3368">
        <ele>214.12</ele>
        <time>2023-03-15T10:34:47.000Z</time>
      </trkpt>
      <trkpt lat="43.53344" lon="5.33679">
        <ele>214.276</ele>
        <time>2023-03-15T10:34:49.000Z</time>
      </trkpt>
      <trkpt lat="43.53342" lon="5.33678">
        <ele>214.45499</ele>
        <time>2023-03-15T10:34:51.000Z</time>
      </trkpt>
      <trkpt lat="43.5334" lon="5.33677">
        <ele>214.62564</ele>
        <time>2023-03-15T10:34:53.000Z</time>
      </trkpt>
      <trkpt lat="43.53338" lon="5.33676">
        <ele>214.79268</ele>
        <time>2023-03-15T10:34:55.000Z</time>
      </trkpt>
      <trkpt lat="43.53336" lon="5.33675">
        <ele>214.97498</ele>
        <time>2023-03-15T10:34:57.000Z</time>
      </trkpt>
      <trkpt lat="43.53334" lon="5.33674">
        <ele>215.17676</ele>
        <time>2023-03-15T10:34:59.000Z</time>
      </trkpt>
      <trkpt lat="43.53332" lon="5.33672">
        <ele>215.34756</ele>
        <time>2023-03-15T10:35:01.000Z</time>
      </trkpt>
      <trkpt lat="43.5333" lon="5.33671">
        <ele>215.52847</ele>
        <time>2023-03-15T10:35:03.000Z</time>
      </trkpt>
      <trkpt lat="43.53327" lon="5.33669">
        <ele>215.69551</ele>
        <time>2023-03-15T10:35:05.000Z</time>
      </trkpt>
      <trkpt lat="43.53325" lon="5.33667">
        <ele>215.82259</ele>
        <time>2023-03-15T10:35:07.000Z</time>
      </trkpt>
      <trkpt lat="43.53323" lon="5.33666">
        <ele>215.96745</ele>
        <time>2023-03-15T10:35:09.000Z</time>
      </trkpt>
      <trkpt lat="43.53321" lon="5.33664">
        <ele>216.07515</ele>
        <time>2023-03-15T10:35:11.000Z</time>
      </trkpt>
      <trkpt lat="43.53318" lon="5.33663">
        <ele>216.21404</ele>
        <time>2023-03-15T10:35:13.000Z</time>
      </trkpt>
      <trkpt lat="43.53316" lon="5.33662">
        <ele>216.29666</ele>
        <time>2023-03-15T10:35:15.000Z</time>
      </trkpt>
      <trkpt lat="43.53314" lon="5.33661">
        <ele>216.31924</ele>
        <time>2023-03-15T10:35:17.000Z</time>
      </trkpt>
      <trkpt lat="43.53312" lon="5.33659">
        <ele>216.3385</ele>
        <time>2023-03-15T10:35:19.000Z</time>
      </trkpt>
      <trkpt lat="43.53309" lon="5.33657">
        <ele>216.34109</ele>
        <time>2023-03-15T10:35:21.000Z</time>
      </trkpt>
      <trkpt lat="43.53307" lon="5.33656">
        <ele>216.31856</ele>
        <time>2023-03-15T10:35:23.000Z</time>
      </trkpt>
      <trkpt lat="43.53305" lon="5.33654">
        <ele>216.32065</ele>
        <time>2023-03-15T10:35:25.000Z</time>
      </trkpt>
      <trkpt lat="43.53303" lon="5.33653">
        <ele>216.34561</ele>
        <time>2023-03-15T10:35:27.000Z</time>
      </trkpt>
      <trkpt lat="43.53301" lon="5.33651">
        <ele>216.41507</ele>
        <time>2023-03-15T10:35:29.000Z</time>
      </trkpt>
      <trkpt lat="43.53298" lon="5.3365">
        <ele>216.46355</ele>
        <time>2023-03-15T10:35:31.000Z</time>
      </trkpt>
      <trkpt lat="43.53296" lon="5.33649">
        <ele>216.49075</ele>
        <time>2023-03-15T10:35:33.000Z</time>
      </trkpt>
      <trkpt lat="43.53294" lon="5.33647">
        <ele>216.51704</ele>
        <time>2023-03-15T10:35:35.000Z</time>
      </trkpt>
      <trkpt lat="43.53292" lon="5.33645">
        <ele>216.52129</ele>
        <time>2023-03-15T10:35:37.000Z</time>
      </trkpt>
      <trkpt lat="43.5329" lon="5.33643">
        <ele>216.53458</ele>
        <time>2023-03-15T10:35:39.000Z</time>
      </trkpt>
      <trkpt lat="43.53288" lon="5.33642">
        <ele>216.54288</ele>
        <time>2023-03-15T10:35:41.000Z</time>
      </trkpt>
      <trkpt lat="43.53286" lon="5.3364">
        <ele>216.53085</ele>
        <time>2023-03-15T10:35:43.000Z</time>
      </trkpt>
      <trkpt lat="43.53284" lon="5.33638">
        <ele>216.5249</ele>
        <time>2023-03-15T10:35:45.000Z</time>
      </trkpt>
      <trkpt lat="43.53282" lon="5.33635">
        <ele>216.52573</ele>
        <time>2023-03-15T10:35:47.000Z</time>
      </trkpt>
      <trkpt lat="43.5328" lon="5.33634">
        <ele>216.52547</ele>
        <time>2023-03-15T10:35:49.000Z</time>
      </trkpt>
      <trkpt lat="43.53279" lon="5.33632">
        <ele>216.52495</ele>
        <time>2023-03-15T10:35:52.000Z</time>
      </trkpt>
      <trkpt lat="43.53276" lon="5.33629">
        <ele>216.50815</ele>
        <time>2023-03-15T10:35:55.000Z</time>
      </trkpt>
      <trkpt lat="43.53275" lon="5.33627">
        <ele>216.51997</ele>
        <time>2023-03-15T10:35:57.000Z</time>
      </trkpt>
      <trkpt lat="43.53273" lon="5.33626">
        <ele>216.55161</ele>
        <time>2023-03-15T10:35:59.000Z</time>
      </trkpt>
      <trkpt lat="43.53272" lon="5.33624">
        <ele>216.5905</ele>
        <time>2023-03-15T10:36:01.000Z</time>
      </trkpt>
      <trkpt lat="43.5327" lon="5.33622">
        <ele>216.63779</ele>
        <time>2023-03-15T10:36:03.000Z</time>
      </trkpt>
      <trkpt lat="43.53269" lon="5.3362">
        <ele>216.70901</ele>
        <time>2023-03-15T10:36:05.000Z</time>
      </trkpt>
      <trkpt lat="43.53267" lon="5.33618">
        <ele>216.75217</ele>
        <time>2023-03-15T10:36:07.000Z</time>
      </trkpt>
      <trkpt lat="43.53265" lon="5.33616">
        <ele>216.78506</ele>
        <time>2023-03-15T10:36:09.000Z</time>
      </trkpt>
      <trkpt lat="43.53264" lon="5.33613">
        <ele>216.78732</ele>
        <time>2023-03-15T10:36:11.000Z</time>
      </trkpt>
      <trkpt lat="43.53263" lon="5.33611">
        <ele>216.79158</ele>
        <time>2023-03-15T10:36:13.000Z</time>
      </trkpt>
      <trkpt lat="43.53261" lon="5.33608">
        <ele>216.81648</ele>
        <time>2023-03-15T10:36:15.000Z</time>
      </trkpt>
      <trkpt lat="43.5326" lon="5.33606">
        <ele>216.83066</ele>
        <time>2023-03-15T10:36:17.000Z</time>
      </trkpt>
      <trkpt lat="43.53259" lon="5.33604">
        <ele>216.88481</ele>
        <time>2023-03-15T10:36:19.000Z</time>
      </trkpt>
      <trkpt lat="43.53258" lon="5.33601">
        <ele>216.93904</ele>
        <time>2023-03-15T10:36:21.000Z</time>
      </trkpt>
      <trkpt lat="43.53256" lon="5.33599">
        <ele>216.98076</ele>
        <time>2023-03-15T10:36:23.000Z</time>
      </trkpt>
      <trkpt lat="43.53255" lon="5.33597">
        <ele>217.00822</ele>
        <time>2023-03-15T10:36:25.000Z</time>
      </trkpt>
      <trkpt lat="43.53253" lon="5.33596">
        <ele>216.96329</ele>
        <time>2023-03-15T10:36:27.000Z</time>
      </trkpt>
      <trkpt lat="43.53251" lon="5.33594">
        <ele>216.86787</ele>
        <time>2023-03-15T10:36:29.000Z</time>
      </trkpt>
      <trkpt lat="43.53251" lon="5.33591">
        <ele>216.77335</ele>
        <time>2023-03-15T10:36:31.000Z</time>
      </trkpt>
      <trkpt lat="43.53249" lon="5.33588">
        <ele>216.67041</ele>
        <time>2023-03-15T10:36:33.000Z</time>
      </trkpt>
      <trkpt lat="43.53248" lon="5.33586">
        <ele>216.56526</ele>
        <time>2023-03-15T10:36:35.000Z</time>
      </trkpt>
      <trkpt lat="43.53247" lon="5.33583">
        <ele>216.41956</ele>
        <time>2023-03-15T10:36:37.000Z</time>
      </trkpt>
      <trkpt lat="43.53246" lon="5.3358">
        <ele>216.26001</ele>
        <time>2023-03-15T10:36:39.000Z</time>
      </trkpt>
      <trkpt lat="43.53245" lon="5.33577">
        <ele>216.07333</ele>
        <time>2023-03-15T10:36:41.000Z</time>
      </trkpt>
      <trkpt lat="43.53244" lon="5.33575">
        <ele>215.8564</ele>
        <time>2023-03-15T10:36:43.000Z</time>
      </trkpt>
      <trkpt lat="43.53243" lon="5.33572">
        <ele>215.60364</ele>
        <time>2023-03-15T10:36:45.000Z</time>
      </trkpt>
      <trkpt lat="43.53242" lon="5.33569">
        <ele>215.34351</ele>
        <time>2023-03-15T10:36:47.000Z</time>
      </trkpt>
      <trkpt lat="43.53241" lon="5.33567">
        <ele>215.04561</ele>
        <time>2023-03-15T10:36:49.000Z</time>
      </trkpt>
      <trkpt lat="43.5324" lon="5.33565">
        <ele>214.70822</ele>
        <time>2023-03-15T10:36:51.000Z</time>
      </trkpt>
      <trkpt lat="43.53239" lon="5.33562">
        <ele>214.34424</ele>
        <time>2023-03-15T10:36:53.000Z</time>
      </trkpt>
      <trkpt lat="43.53238" lon="5.3356">
        <ele>213.96268</ele>
        <time>2023-03-15T10:36:55.000Z</time>
      </trkpt>
      <trkpt lat="43.53238" lon="5.33557">
        <ele>213.60049</ele>
        <time>2023-03-15T10:36:57.000Z</time>
      </trkpt>
      <trkpt lat="43.53237" lon="5.33554">
        <ele>213.20268</ele>
        <time>2023-03-15T10:36:59.000Z</time>
      </trkpt>
      <trkpt lat="43.53235" lon="5.33551">
        <ele>212.76653</ele>
        <time>2023-03-15T10:37:01.000Z</time>
      </trkpt>
      <trkpt lat="43.53235" lon="5.33548">
        <ele>212.37784</ele>
        <time>2023-03-15T10:37:03.000Z</time>
      </trkpt>
      <trkpt lat="43.53234" lon="5.33545">
        <ele>212.01839</ele>
        <time>2023-03-15T10:37:05.000Z</time>
      </trkpt>
      <trkpt lat="43.53233" lon="5.33543">
        <ele>211.72664</ele>
        <time>2023-03-15T10:37:07.000Z</time>
      </trkpt>
      <trkpt lat="43.53233" lon="5.3354">
        <ele>211.48929</ele>
        <time>2023-03-15T10:37:09.000Z</time>
      </trkpt>
      <trkpt lat="43.53232" lon="5.33538">
        <ele>211.27373</ele>
        <time>2023-03-15T10:37:11.000Z</time>
      </trkpt>
      <trkpt lat="43.53231" lon="5.33535">
        <ele>211.04581</ele>
        <time>2023-03-15T10:37:13.000Z</time>
      </trkpt>
      <trkpt lat="43.53231" lon="5.33532">
        <ele>210.86333</ele>
        <time>2023-03-15T10:37:15.000Z</time>
      </trkpt>
      <trkpt lat="43.53231" lon="5.3353">
        <ele>210.7327</ele>
        <time>2023-03-15T10:37:17.000Z</time>
      </trkpt>
      <trkpt lat="43.5323" lon="5.33527">
        <ele>210.58867</ele>
        <time>2023-03-15T10:37:19.000Z</time>
      </trkpt>
      <trkpt lat="43.53229" lon="5.33525">
        <ele>210.45044</ele>
        <time>2023-03-15T10:37:21.000Z</time>
      </trkpt>
      <trkpt lat="43.53228" lon="5.33522">
        <ele>210.34099</ele>
        <time>2023-03-15T10:37:23.000Z</time>
      </trkpt>
      <trkpt lat="43.53227" lon="5.33519">
        <ele>210.26973</ele>
        <time>2023-03-15T10:37:25.000Z</time>
      </trkpt>
      <trkpt lat="43.53226" lon="5.33516">
        <ele>210.27698</ele>
        <time>2023-03-15T10:37:27.000Z</time>
      </trkpt>
      <trkpt lat="43.53225" lon="5.33514">
        <ele>210.34085</ele>
        <time>2023-03-15T10:37:29.000Z</time>
      </trkpt>
      <trkpt lat="43.53224" lon="5.33511">
        <ele>210.42993</ele>
        <time>2023-03-15T10:37:31.000Z</time>
      </trkpt>
      <trkpt lat="43.53223" lon="5.33509">
        <ele>210.54094</ele>
        <time>2023-03-15T10:37:33.000Z</time>
      </trkpt>
      <trkpt lat="43.53222" lon="5.33507">
        <ele>210.65947</ele>
        <time>2023-03-15T10:37:35.000Z</time>
      </trkpt>
      <trkpt lat="43.5322" lon="5.33505">
        <ele>210.75928</ele>
        <time>2023-03-15T10:37:37.000Z</time>
      </trkpt>
      <trkpt lat="43.53219" lon="5.33502">
        <ele>210.89859</ele>
        <time>2023-03-15T10:37:39.000Z</time>
      </trkpt>
      <trkpt lat="43.53219" lon="5.335">
        <ele>211.06023</ele>
        <time>2023-03-15T10:37:41.000Z</time>
      </trkpt>
      <trkpt lat="43.53218" lon="5.33497">
        <ele>211.19978</ele>
        <time>2023-03-15T10:37:43.000Z</time>
      </trkpt>
      <trkpt lat="43.53217" lon="5.33494">
        <ele>211.36079</ele>
        <time>2023-03-15T10:37:45.000Z</time>
      </trkpt>
      <trkpt lat="43.53216" lon="5.33492">
        <ele>211.54495</ele>
        <time>2023-03-15T10:37:47.000Z</time>
      </trkpt>
      <trkpt lat="43.53215" lon="5.33489">
        <ele>211.73621</ele>
        <time>2023-03-15T10:37:49.000Z</time>
      </trkpt>
      <trkpt lat="43.53213" lon="5.33486">
        <ele>211.92532</ele>
        <time>2023-03-15T10:37:51.000Z</time>
      </trkpt>
      <trkpt lat="43.53212" lon="5.33484">
        <ele>212.12466</ele>
        <time>2023-03-15T10:37:53.000Z</time>
      </trkpt>
      <trkpt lat="43.53211" lon="5.33482">
        <ele>212.29355</ele>
        <time>2023-03-15T10:37:55.000Z</time>
      </trkpt>
      <trkpt lat="43.5321" lon="5.33478">
        <ele>212.43416</ele>
        <time>2023-03-15T10:37:58.000Z</time>
      </trkpt>
      <trkpt lat="43.53209" lon="5.33476">
        <ele>212.59799</ele>
        <time>2023-03-15T10:38:00.000Z</time>
      </trkpt>
      <trkpt lat="43.53208" lon="5.33474">
        <ele>212.75175</ele>
        <time>2023-03-15T10:38:02.000Z</time>
      </trkpt>
      <trkpt lat="43.53208" lon="5.3347">
        <ele>212.91226</ele>
        <time>2023-03-15T10:38:05.000Z</time>
      </trkpt>
      <trkpt lat="43.53207" lon="5.33467">
        <ele>213.02617</ele>
        <time>2023-03-15T10:38:07.000Z</time>
      </trkpt>
      <trkpt lat="43.53206" lon="5.33464">
        <ele>213.07156</ele>
        <time>2023-03-15T10:38:09.000Z</time>
      </trkpt>
      <trkpt lat="43.53206" lon="5.33462">
        <ele>213.10782</ele>
        <time>2023-03-15T10:38:11.000Z</time>
      </trkpt>
      <trkpt lat="43.53206" lon="5.33459">
        <ele>213.15071</ele>
        <time>2023-03-15T10:38:13.000Z</time>
      </trkpt>
      <trkpt lat="43.53207" lon="5.33456">
        <ele>213.19778</ele>
        <time>2023-03-15T10:38:15.000Z</time>
      </trkpt>
      <trkpt lat="43.53207" lon="5.33453">
        <ele>213.25513</ele>
        <time>2023-03-15T10:38:17.000Z</time>
      </trkpt>
      <trkpt lat="43.53207" lon="5.3345">
        <ele>213.32364</ele>
        <time>2023-03-15T10:38:19.000Z</time>
      </trkpt>
      <trkpt lat="43.53207" lon="5.33447">
        <ele>213.36227</ele>
        <time>2023-03-15T10:38:21.000Z</time>
      </trkpt>
      <trkpt lat="43.53207" lon="5.33444">
        <ele>213.39917</ele>
        <time>2023-03-15T10:38:23.000Z</time>
      </trkpt>
      <trkpt lat="43.53207" lon="5.33441">
        <ele>213.42374</ele>
        <time>2023-03-15T10:38:25.000Z</time>
      </trkpt>
      <trkpt lat="43.53207" lon="5.33439">
        <ele>213.38261</ele>
        <time>2023-03-15T10:38:27.000Z</time>
      </trkpt>
      <trkpt lat="43.53208" lon="5.33436">
        <ele>213.30269</ele>
        <time>2023-03-15T10:38:29.000Z</time>
      </trkpt>
      <trkpt lat="43.53208" lon="5.33433">
        <ele>213.20467</ele>
        <time>2023-03-15T10:38:31.000Z</time>
      </trkpt>
      <trkpt lat="43.53209" lon="5.33431">
        <ele>213.09427</ele>
        <time>2023-03-15T10:38:33.000Z</time>
      </trkpt>
      <trkpt lat="43.5321" lon="5.33428">
        <ele>212.9819</ele>
        <time>2023-03-15T10:38:35.000Z</time>
      </trkpt>
      <trkpt lat="43.53211" lon="5.33425">
        <ele>212.88753</ele>
        <time>2023-03-15T10:38:38.000Z</time>
      </trkpt>
      <trkpt lat="43.53211" lon="5.33423">
        <ele>212.83676</ele>
        <time>2023-03-15T10:38:40.000Z</time>
      </trkpt>
      <trkpt lat="43.53212" lon="5.3342">
        <ele>212.74731</ele>
        <time>2023-03-15T10:38:42.000Z</time>
      </trkpt>
      <trkpt lat="43.53212" lon="5.33416">
        <ele>212.67911</ele>
        <time>2023-03-15T10:38:44.000Z</time>
      </trkpt>
      <trkpt lat="43.53212" lon="5.33413">
        <ele>212.57678</ele>
        <time>2023-03-15T10:38:46.000Z</time>
      </trkpt>
      <trkpt lat="43.53211" lon="5.3341">
        <ele>212.47891</ele>
        <time>2023-03-15T10:38:48.000Z</time>
      </trkpt>
      <trkpt lat="43.53211" lon="5.33407">
        <ele>212.39009</ele>
        <time>2023-03-15T10:38:50.000Z</time>
      </trkpt>
      <trkpt lat="43.53211" lon="5.33404">
        <ele>212.28972</ele>
        <time>2023-03-15T10:38:52.000Z</time>
      </trkpt>
      <trkpt lat="43.5321" lon="5.33401">
        <ele>212.18143</ele>
        <time>2023-03-15T10:38:54.000Z</time>
      </trkpt>
      <trkpt lat="43.53209" lon="5.33398">
        <ele>212.10922</ele>
        <time>2023-03-15T10:38:56.000Z</time>
      </trkpt>
      <trkpt lat="43.53208" lon="5.33396">
        <ele>212.07051</ele>
        <time>2023-03-15T10:38:58.000Z</time>
      </trkpt>
      <trkpt lat="43.53208" lon="5.33393">
        <ele>212.09827</ele>
        <time>2023-03-15T10:39:00.000Z</time>
      </trkpt>
      <trkpt lat="43.53209" lon="5.3339">
        <ele>212.15755</ele>
        <time>2023-03-15T10:39:02.000Z</time>
      </trkpt>
      <trkpt lat="43.5321" lon="5.33389">
        <ele>212.25066</ele>
        <time>2023-03-15T10:39:04.000Z</time>
      </trkpt>
      <trkpt lat="43.53213" lon="5.33388">
        <ele>212.37871</ele>
        <time>2023-03-15T10:39:06.000Z</time>
      </trkpt>
      <trkpt lat="43.53215" lon="5.33389">
        <ele>212.58536</ele>
        <time>2023-03-15T10:39:08.000Z</time>
      </trkpt>
      <trkpt lat="43.53217" lon="5.33389">
        <ele>212.80533</ele>
        <time>2023-03-15T10:39:11.000Z</time>
      </trkpt>
      <trkpt lat="43.53219" lon="5.33388">
        <ele>213.02263</ele>
        <time>2023-03-15T10:39:14.000Z</time>
      </trkpt>
      <trkpt lat="43.53217" lon="5.3339">
        <ele>213.40475</ele>
        <time>2023-03-15T10:39:24.000Z</time>
      </trkpt>
      <trkpt lat="43.53217" lon="5.33393">
        <ele>213.77859</ele>
        <time>2023-03-15T10:39:30.000Z</time>
      </trkpt>
      <trkpt lat="43.53219" lon="5.33393">
        <ele>214.09766</ele>
        <time>2023-03-15T10:39:34.000Z</time>
      </trkpt>
      <trkpt lat="43.53221" lon="5.33392">
        <ele>214.36084</ele>
        <time>2023-03-15T10:39:37.000Z</time>
      </trkpt>
      <trkpt lat="43.53223" lon="5.3339">
        <ele>214.61679</ele>
        <time>2023-03-15T10:39:42.000Z</time>
      </trkpt>
      <trkpt lat="43.53225" lon="5.33388">
        <ele>214.83672</ele>
        <time>2023-03-15T10:39:45.000Z</time>
      </trkpt>
      <trkpt lat="43.53225" lon="5.33384">
        <ele>215.06221</ele>
        <time>2023-03-15T10:39:48.000Z</time>
      </trkpt>
      <trkpt lat="43.53224" lon="5.33382">
        <ele>215.25822</ele>
        <time>2023-03-15T10:39:51.000Z</time>
      </trkpt>
      <trkpt lat="43.53222" lon="5.33379">
        <ele>215.40964</ele>
        <time>2023-03-15T10:39:54.000Z</time>
      </trkpt>
      <trkpt lat="43.53221" lon="5.33376">
        <ele>215.61963</ele>
        <time>2023-03-15T10:39:57.000Z</time>
      </trkpt>
      <trkpt lat="43.5322" lon="5.33374">
        <ele>215.82825</ele>
        <time>2023-03-15T10:40:00.000Z</time>
      </trkpt>
      <trkpt lat="43.53221" lon="5.33372">
        <ele>216.11502</ele>
        <time>2023-03-15T10:40:27.000Z</time>
      </trkpt>
      <trkpt lat="43.5322" lon="5.33374">
        <ele>216.56131</ele>
        <time>2023-03-15T10:40:44.000Z</time>
      </trkpt>
      <trkpt lat="43.53219" lon="5.33371">
        <ele>216.82271</ele>
        <time>2023-03-15T10:40:52.000Z</time>
      </trkpt>
      <trkpt lat="43.53219" lon="5.33368">
        <ele>217.0127</ele>
        <time>2023-03-15T10:40:54.000Z</time>
      </trkpt>
      <trkpt lat="43.53219" lon="5.33365">
        <ele>217.30893</ele>
        <time>2023-03-15T10:40:57.000Z</time>
      </trkpt>
      <trkpt lat="43.53217" lon="5.33363">
        <ele>217.55118</ele>
        <time>2023-03-15T10:40:59.000Z</time>
      </trkpt>
      <trkpt lat="43.53216" lon="5.33361">
        <ele>217.69168</ele>
        <time>2023-03-15T10:41:01.000Z</time>
      </trkpt>
      <trkpt lat="43.53215" lon="5.33358">
        <ele>217.84753</ele>
        <time>2023-03-15T10:41:03.000Z</time>
      </trkpt>
      <trkpt lat="43.53216" lon="5.33355">
        <ele>217.99014</ele>
        <time>2023-03-15T10:41:05.000Z</time>
      </trkpt>
      <trkpt lat="43.53215" lon="5.33352">
        <ele>217.95227</ele>
        <time>2023-03-15T10:41:07.000Z</time>
      </trkpt>
      <trkpt lat="43.53214" lon="5.33349">
        <ele>217.89531</ele>
        <time>2023-03-15T10:41:10.000Z</time>
      </trkpt>
      <trkpt lat="43.53214" lon="5.33347">
        <ele>217.82373</ele>
        <time>2023-03-15T10:41:12.000Z</time>
      </trkpt>
      <trkpt lat="43.53213" lon="5.33343">
        <ele>217.75044</ele>
        <time>2023-03-15T10:41:14.000Z</time>
      </trkpt>
      <trkpt lat="43.53213" lon="5.3334">
        <ele>217.76338</ele>
        <time>2023-03-15T10:41:16.000Z</time>
      </trkpt>
      <trkpt lat="43.53214" lon="5.33337">
        <ele>217.85017</ele>
        <time>2023-03-15T10:41:18.000Z</time>
      </trkpt>
      <trkpt lat="43.53213" lon="5.33334">
        <ele>217.95967</ele>
        <time>2023-03-15T10:41:20.000Z</time>
      </trkpt>
      <trkpt lat="43.53212" lon="5.33331">
        <ele>218.10291</ele>
        <time>2023-03-15T10:41:22.000Z</time>
      </trkpt>
      <trkpt lat="43.53213" lon="5.33327">
        <ele>218.31601</ele>
        <time>2023-03-15T10:41:24.000Z</time>
      </trkpt>
      <trkpt lat="43.53212" lon="5.33324">
        <ele>218.45549</ele>
        <time>2023-03-15T10:41:26.000Z</time>
      </trkpt>
      <trkpt lat="43.53211" lon="5.33322">
        <ele>218.55327</ele>
        <time>2023-03-15T10:41:28.000Z</time>
      </trkpt>
      <trkpt lat="43.5321" lon="5.33319">
        <ele>218.56921</ele>
        <time>2023-03-15T10:41:30.000Z</time>
      </trkpt>
      <trkpt lat="43.53209" lon="5.33316">
        <ele>218.41768</ele>
        <time>2023-03-15T10:41:32.000Z</time>
      </trkpt>
      <trkpt lat="43.53207" lon="5.33313">
        <ele>218.38029</ele>
        <time>2023-03-15T10:41:34.000Z</time>
      </trkpt>
      <trkpt lat="43.53205" lon="5.3331">
        <ele>218.39897</ele>
        <time>2023-03-15T10:41:36.000Z</time>
      </trkpt>
      <trkpt lat="43.53204" lon="5.33308">
        <ele>218.25278</ele>
        <time>2023-03-15T10:41:38.000Z</time>
      </trkpt>
      <trkpt lat="43.53202" lon="5.33306">
        <ele>218.13565</ele>
        <time>2023-03-15T10:41:40.000Z</time>
      </trkpt>
      <trkpt lat="43.532" lon="5.33304">
        <ele>218.06766</ele>
        <time>2023-03-15T10:41:42.000Z</time>
      </trkpt>
      <trkpt lat="43.53198" lon="5.33302">
        <ele>218.00664</ele>
        <time>2023-03-15T10:41:44.000Z</time>
      </trkpt>
      <trkpt lat="43.53197" lon="5.33301">
        <ele>217.93027</ele>
        <time>2023-03-15T10:41:46.000Z</time>
      </trkpt>
      <trkpt lat="43.53195" lon="5.333">
        <ele>217.85391</ele>
        <time>2023-03-15T10:41:48.000Z</time>
      </trkpt>
      <trkpt lat="43.53193" lon="5.33298">
        <ele>217.78989</ele>
        <time>2023-03-15T10:41:50.000Z</time>
      </trkpt>
      <trkpt lat="43.53191" lon="5.33296">
        <ele>217.73099</ele>
        <time>2023-03-15T10:41:52.000Z</time>
      </trkpt>
      <trkpt lat="43.53189" lon="5.33295">
        <ele>217.67815</ele>
        <time>2023-03-15T10:41:54.000Z</time>
      </trkpt>
      <trkpt lat="43.53187" lon="5.33294">
        <ele>217.59746</ele>
        <time>2023-03-15T10:41:56.000Z</time>
      </trkpt>
      <trkpt lat="43.53185" lon="5.33293">
        <ele>217.48477</ele>
        <time>2023-03-15T10:41:58.000Z</time>
      </trkpt>
      <trkpt lat="43.53183" lon="5.33292">
        <ele>217.32211</ele>
        <time>2023-03-15T10:42:00.000Z</time>
      </trkpt>
      <trkpt lat="43.53181" lon="5.33291">
        <ele>217.09732</ele>
        <time>2023-03-15T10:42:02.000Z</time>
      </trkpt>
      <trkpt lat="43.53179" lon="5.33291">
        <ele>216.82173</ele>
        <time>2023-03-15T10:42:04.000Z</time>
      </trkpt>
      <trkpt lat="43.53177" lon="5.3329">
        <ele>216.57283</ele>
        <time>2023-03-15T10:42:06.000Z</time>
      </trkpt>
      <trkpt lat="43.53175" lon="5.33289">
        <ele>216.44995</ele>
        <time>2023-03-15T10:42:08.000Z</time>
      </trkpt>
      <trkpt lat="43.53172" lon="5.33289">
        <ele>216.31284</ele>
        <time>2023-03-15T10:42:11.000Z</time>
      </trkpt>
      <trkpt lat="43.5317" lon="5.33288">
        <ele>216.19678</ele>
        <time>2023-03-15T10:42:13.000Z</time>
      </trkpt>
      <trkpt lat="43.53168" lon="5.33288">
        <ele>216.06743</ele>
        <time>2023-03-15T10:42:15.000Z</time>
      </trkpt>
      <trkpt lat="43.53166" lon="5.33287">
        <ele>215.94205</ele>
        <time>2023-03-15T10:42:17.000Z</time>
      </trkpt>
      <trkpt lat="43.53163" lon="5.33286">
        <ele>215.85281</ele>
        <time>2023-03-15T10:42:19.000Z</time>
      </trkpt>
      <trkpt lat="43.53161" lon="5.33285">
        <ele>215.77966</ele>
        <time>2023-03-15T10:42:21.000Z</time>
      </trkpt>
      <trkpt lat="43.53159" lon="5.33285">
        <ele>215.71411</ele>
        <time>2023-03-15T10:42:23.000Z</time>
      </trkpt>
      <trkpt lat="43.53157" lon="5.33283">
        <ele>215.64645</ele>
        <time>2023-03-15T10:42:25.000Z</time>
      </trkpt>
      <trkpt lat="43.53155" lon="5.33282">
        <ele>215.64604</ele>
        <time>2023-03-15T10:42:27.000Z</time>
      </trkpt>
      <trkpt lat="43.53153" lon="5.33281">
        <ele>215.67769</ele>
        <time>2023-03-15T10:42:29.000Z</time>
      </trkpt>
      <trkpt lat="43.53151" lon="5.3328">
        <ele>215.74812</ele>
        <time>2023-03-15T10:42:31.000Z</time>
      </trkpt>
      <trkpt lat="43.53149" lon="5.33279">
        <ele>215.87704</ele>
        <time>2023-03-15T10:42:33.000Z</time>
      </trkpt>
      <trkpt lat="43.53147" lon="5.33278">
        <ele>216.01138</ele>
        <time>2023-03-15T10:42:35.000Z</time>
      </trkpt>
      <trkpt lat="43.53145" lon="5.33277">
        <ele>216.13896</ele>
        <time>2023-03-15T10:42:37.000Z</time>
      </trkpt>
      <trkpt lat="43.53143" lon="5.33276">
        <ele>216.22571</ele>
        <time>2023-03-15T10:42:39.000Z</time>
      </trkpt>
      <trkpt lat="43.53142" lon="5.33275">
        <ele>216.36023</ele>
        <time>2023-03-15T10:42:41.000Z</time>
      </trkpt>
      <trkpt lat="43.5314" lon="5.33273">
        <ele>216.5666</ele>
        <time>2023-03-15T10:42:43.000Z</time>
      </trkpt>
      <trkpt lat="43.53138" lon="5.33272">
        <ele>216.81857</ele>
        <time>2023-03-15T10:42:45.000Z</time>
      </trkpt>
      <trkpt lat="43.53136" lon="5.33271">
        <ele>217.06921</ele>
        <time>2023-03-15T10:42:47.000Z</time>
      </trkpt>
      <trkpt lat="43.53134" lon="5.33269">
        <ele>217.23515</ele>
        <time>2023-03-15T10:42:50.000Z</time>
      </trkpt>
      <trkpt lat="43.53132" lon="5.33267">
        <ele>217.40752</ele>
        <time>2023-03-15T10:42:52.000Z</time>
      </trkpt>
      <trkpt lat="43.5313" lon="5.33266">
        <ele>217.51884</ele>
        <time>2023-03-15T10:42:55.000Z</time>
      </trkpt>
      <trkpt lat="43.53128" lon="5.33265">
        <ele>217.68649</ele>
        <time>2023-03-15T10:42:58.000Z</time>
      </trkpt>
      <trkpt lat="43.53126" lon="5.33265">
        <ele>217.86362</ele>
        <time>2023-03-15T10:43:01.000Z</time>
      </trkpt>
      <trkpt lat="43.53125" lon="5.33268">
        <ele>218.01204</ele>
        <time>2023-03-15T10:43:03.000Z</time>
      </trkpt>
      <trkpt lat="43.53125" lon="5.33266">
        <ele>218.16536</ele>
        <time>2023-03-15T10:43:10.000Z</time>
      </trkpt>
      <trkpt lat="43.53124" lon="5.33264">
        <ele>218.30644</ele>
        <time>2023-03-15T10:43:12.000Z</time>
      </trkpt>
      <trkpt lat="43.53122" lon="5.33262">
        <ele>218.41679</ele>
        <time>2023-03-15T10:43:14.000Z</time>
      </trkpt>
      <trkpt lat="43.5312" lon="5.33261">
        <ele>218.5042</ele>
        <time>2023-03-15T10:43:16.000Z</time>
      </trkpt>
      <trkpt lat="43.53119" lon="5.33259">
        <ele>218.58443</ele>
        <time>2023-03-15T10:43:18.000Z</time>
      </trkpt>
      <trkpt lat="43.53117" lon="5.33257">
        <ele>218.66745</ele>
        <time>2023-03-15T10:43:20.000Z</time>
      </trkpt>
      <trkpt lat="43.53115" lon="5.33255">
        <ele>218.72807</ele>
        <time>2023-03-15T10:43:22.000Z</time>
      </trkpt>
      <trkpt lat="43.53114" lon="5.33252">
        <ele>218.79546</ele>
        <time>2023-03-15T10:43:24.000Z</time>
      </trkpt>
      <trkpt lat="43.53112" lon="5.33251">
        <ele>218.83076</ele>
        <time>2023-03-15T10:43:26.000Z</time>
      </trkpt>
      <trkpt lat="43.5311" lon="5.33249">
        <ele>218.89803</ele>
        <time>2023-03-15T10:43:28.000Z</time>
      </trkpt>
      <trkpt lat="43.53109" lon="5.33247">
        <ele>218.97363</ele>
        <time>2023-03-15T10:43:30.000Z</time>
      </trkpt>
      <trkpt lat="43.53107" lon="5.33245">
        <ele>219.01965</ele>
        <time>2023-03-15T10:43:32.000Z</time>
      </trkpt>
      <trkpt lat="43.53105" lon="5.33244">
        <ele>219.03708</ele>
        <time>2023-03-15T10:43:34.000Z</time>
      </trkpt>
      <trkpt lat="43.53104" lon="5.33243">
        <ele>219.01016</ele>
        <time>2023-03-15T10:43:36.000Z</time>
      </trkpt>
      <trkpt lat="43.53102" lon="5.33241">
        <ele>218.93538</ele>
        <time>2023-03-15T10:43:38.000Z</time>
      </trkpt>
      <trkpt lat="43.531" lon="5.33239">
        <ele>218.80952</ele>
        <time>2023-03-15T10:43:40.000Z</time>
      </trkpt>
      <trkpt lat="43.53099" lon="5.33238">
        <ele>218.67456</ele>
        <time>2023-03-15T10:43:42.000Z</time>
      </trkpt>
      <trkpt lat="43.53097" lon="5.33236">
        <ele>218.48648</ele>
        <time>2023-03-15T10:43:44.000Z</time>
      </trkpt>
      <trkpt lat="43.53095" lon="5.33235">
        <ele>218.31026</ele>
        <time>2023-03-15T10:43:46.000Z</time>
      </trkpt>
      <trkpt lat="43.53093" lon="5.33233">
        <ele>218.17729</ele>
        <time>2023-03-15T10:43:48.000Z</time>
      </trkpt>
      <trkpt lat="43.53091" lon="5.33232">
        <ele>218.00517</ele>
        <time>2023-03-15T10:43:50.000Z</time>
      </trkpt>
      <trkpt lat="43.53089" lon="5.3323">
        <ele>217.86356</ele>
        <time>2023-03-15T10:43:52.000Z</time>
      </trkpt>
      <trkpt lat="43.53087" lon="5.33229">
        <ele>217.71066</ele>
        <time>2023-03-15T10:43:54.000Z</time>
      </trkpt>
      <trkpt lat="43.53086" lon="5.33227">
        <ele>217.57108</ele>
        <time>2023-03-15T10:43:56.000Z</time>
      </trkpt>
      <trkpt lat="43.53084" lon="5.33225">
        <ele>217.45757</ele>
        <time>2023-03-15T10:43:58.000Z</time>
      </trkpt>
      <trkpt lat="43.53083" lon="5.33223">
        <ele>217.32666</ele>
        <time>2023-03-15T10:44:00.000Z</time>
      </trkpt>
      <trkpt lat="43.53081" lon="5.33221">
        <ele>217.20341</ele>
        <time>2023-03-15T10:44:02.000Z</time>
      </trkpt>
      <trkpt lat="43.53079" lon="5.33219">
        <ele>217.12813</ele>
        <time>2023-03-15T10:44:04.000Z</time>
      </trkpt>
      <trkpt lat="43.53077" lon="5.33218">
        <ele>217.05008</ele>
        <time>2023-03-15T10:44:06.000Z</time>
      </trkpt>
      <trkpt lat="43.53075" lon="5.33215">
        <ele>216.98689</ele>
        <time>2023-03-15T10:44:08.000Z</time>
      </trkpt>
      <trkpt lat="43.53073" lon="5.33214">
        <ele>216.89095</ele>
        <time>2023-03-15T10:44:10.000Z</time>
      </trkpt>
      <trkpt lat="43.53071" lon="5.33212">
        <ele>216.79196</ele>
        <time>2023-03-15T10:44:12.000Z</time>
      </trkpt>
      <trkpt lat="43.53069" lon="5.3321">
        <ele>216.7126</ele>
        <time>2023-03-15T10:44:14.000Z</time>
      </trkpt>
      <trkpt lat="43.53066" lon="5.33208">
        <ele>216.69295</ele>
        <time>2023-03-15T10:44:16.000Z</time>
      </trkpt>
      <trkpt lat="43.53064" lon="5.33207">
        <ele>216.73874</ele>
        <time>2023-03-15T10:44:18.000Z</time>
      </trkpt>
      <trkpt lat="43.53062" lon="5.33205">
        <ele>216.82803</ele>
        <time>2023-03-15T10:44:20.000Z</time>
      </trkpt>
      <trkpt lat="43.53059" lon="5.33203">
        <ele>216.91023</ele>
        <time>2023-03-15T10:44:22.000Z</time>
      </trkpt>
      <trkpt lat="43.53057" lon="5.33201">
        <ele>216.96252</ele>
        <time>2023-03-15T10:44:24.000Z</time>
      </trkpt>
      <trkpt lat="43.53055" lon="5.332">
        <ele>216.98296</ele>
        <time>2023-03-15T10:44:26.000Z</time>
      </trkpt>
      <trkpt lat="43.53053" lon="5.33198">
        <ele>217.02554</ele>
        <time>2023-03-15T10:44:28.000Z</time>
      </trkpt>
      <trkpt lat="43.53051" lon="5.33196">
        <ele>217.12241</ele>
        <time>2023-03-15T10:44:30.000Z</time>
      </trkpt>
      <trkpt lat="43.53049" lon="5.33194">
        <ele>217.2189</ele>
        <time>2023-03-15T10:44:32.000Z</time>
      </trkpt>
      <trkpt lat="43.53047" lon="5.33192">
        <ele>217.34111</ele>
        <time>2023-03-15T10:44:34.000Z</time>
      </trkpt>
      <trkpt lat="43.53045" lon="5.3319">
        <ele>217.42387</ele>
        <time>2023-03-15T10:44:36.000Z</time>
      </trkpt>
      <trkpt lat="43.53043" lon="5.33188">
        <ele>217.46445</ele>
        <time>2023-03-15T10:44:38.000Z</time>
      </trkpt>
      <trkpt lat="43.53041" lon="5.33186">
        <ele>217.46933</ele>
        <time>2023-03-15T10:44:40.000Z</time>
      </trkpt>
      <trkpt lat="43.53039" lon="5.33184">
        <ele>217.42412</ele>
        <time>2023-03-15T10:44:42.000Z</time>
      </trkpt>
      <trkpt lat="43.53037" lon="5.33183">
        <ele>217.34244</ele>
        <time>2023-03-15T10:44:44.000Z</time>
      </trkpt>
      <trkpt lat="43.53036" lon="5.33181">
        <ele>217.26749</ele>
        <time>2023-03-15T10:44:46.000Z</time>
      </trkpt>
      <trkpt lat="43.53034" lon="5.33179">
        <ele>217.14413</ele>
        <time>2023-03-15T10:44:48.000Z</time>
      </trkpt>
      <trkpt lat="43.53032" lon="5.33177">
        <ele>217.02231</ele>
        <time>2023-03-15T10:44:50.000Z</time>
      </trkpt>
      <trkpt lat="43.5303" lon="5.33176">
        <ele>216.90955</ele>
        <time>2023-03-15T10:44:52.000Z</time>
      </trkpt>
      <trkpt lat="43.53028" lon="5.33174">
        <ele>216.78018</ele>
        <time>2023-03-15T10:44:54.000Z</time>
      </trkpt>
      <trkpt lat="43.53026" lon="5.33171">
        <ele>216.672</ele>
        <time>2023-03-15T10:44:56.000Z</time>
      </trkpt>
      <trkpt lat="43.53024" lon="5.33169">
        <ele>216.53928</ele>
        <time>2023-03-15T10:44:58.000Z</time>
      </trkpt>
      <trkpt lat="43.53022" lon="5.33167">
        <ele>216.39877</ele>
        <time>2023-03-15T10:45:00.000Z</time>
      </trkpt>
      <trkpt lat="43.5302" lon="5.33165">
        <ele>216.25058</ele>
        <time>2023-03-15T10:45:02.000Z</time>
      </trkpt>
      <trkpt lat="43.53019" lon="5.33163">
        <ele>216.08215</ele>
        <time>2023-03-15T10:45:04.000Z</time>
      </trkpt>
      <trkpt lat="43.53018" lon="5.3316">
        <ele>215.87386</ele>
        <time>2023-03-15T10:45:06.000Z</time>
      </trkpt>
      <trkpt lat="43.53018" lon="5.33157">
        <ele>215.65201</ele>
        <time>2023-03-15T10:45:08.000Z</time>
      </trkpt>
      <trkpt lat="43.53018" lon="5.33154">
        <ele>215.41109</ele>
        <time>2023-03-15T10:45:10.000Z</time>
      </trkpt>
      <trkpt lat="43.53017" lon="5.33152">
        <ele>215.18855</ele>
        <time>2023-03-15T10:45:12.000Z</time>
      </trkpt>
      <trkpt lat="43.53015" lon="5.33151">
        <ele>214.95432</ele>
        <time>2023-03-15T10:45:14.000Z</time>
      </trkpt>
      <trkpt lat="43.53013" lon="5.33148">
        <ele>214.70125</ele>
        <time>2023-03-15T10:45:17.000Z</time>
      </trkpt>
      <trkpt lat="43.53012" lon="5.33147">
        <ele>214.45329</ele>
        <time>2023-03-15T10:45:19.000Z</time>
      </trkpt>
      <trkpt lat="43.53011" lon="5.33144">
        <ele>214.27107</ele>
        <time>2023-03-15T10:45:21.000Z</time>
      </trkpt>
      <trkpt lat="43.5301" lon="5.33142">
        <ele>214.13159</ele>
        <time>2023-03-15T10:45:23.000Z</time>
      </trkpt>
      <trkpt lat="43.53009" lon="5.33139">
        <ele>213.97127</ele>
        <time>2023-03-15T10:45:25.000Z</time>
      </trkpt>
      <trkpt lat="43.53008" lon="5.33137">
        <ele>213.83977</ele>
        <time>2023-03-15T10:45:27.000Z</time>
      </trkpt>
      <trkpt lat="43.53006" lon="5.33135">
        <ele>213.67415</ele>
        <time>2023-03-15T10:45:29.000Z</time>
      </trkpt>
      <trkpt lat="43.53006" lon="5.33133">
        <ele>213.63193</ele>
        <time>2023-03-15T10:45:31.000Z</time>
      </trkpt>
      <trkpt lat="43.53003" lon="5.33131">
        <ele>213.6687</ele>
        <time>2023-03-15T10:45:34.000Z</time>
      </trkpt>
      <trkpt lat="43.53001" lon="5.33129">
        <ele>213.80664</ele>
        <time>2023-03-15T10:45:37.000Z</time>
      </trkpt>
      <trkpt lat="43.52999" lon="5.33127">
        <ele>213.92094</ele>
        <time>2023-03-15T10:45:40.000Z</time>
      </trkpt>
      <trkpt lat="43.52997" lon="5.33126">
        <ele>214.0938</ele>
        <time>2023-03-15T10:45:42.000Z</time>
      </trkpt>
      <trkpt lat="43.52996" lon="5.33124">
        <ele>214.33025</ele>
        <time>2023-03-15T10:45:44.000Z</time>
      </trkpt>
      <trkpt lat="43.52994" lon="5.33122">
        <ele>214.59314</ele>
        <time>2023-03-15T10:45:47.000Z</time>
      </trkpt>
      <trkpt lat="43.52992" lon="5.33121">
        <ele>214.8868</ele>
        <time>2023-03-15T10:45:49.000Z</time>
      </trkpt>
      <trkpt lat="43.5299" lon="5.3312">
        <ele>215.241</ele>
        <time>2023-03-15T10:45:51.000Z</time>
      </trkpt>
      <trkpt lat="43.52988" lon="5.33118">
        <ele>215.54419</ele>
        <time>2023-03-15T10:45:54.000Z</time>
      </trkpt>
      <trkpt lat="43.52986" lon="5.33117">
        <ele>215.80203</ele>
        <time>2023-03-15T10:45:57.000Z</time>
      </trkpt>
      <trkpt lat="43.52984" lon="5.33115">
        <ele>216.11758</ele>
        <time>2023-03-15T10:45:59.000Z</time>
      </trkpt>
      <trkpt lat="43.52982" lon="5.33114">
        <ele>216.48116</ele>
        <time>2023-03-15T10:46:01.000Z</time>
      </trkpt>
      <trkpt lat="43.5298" lon="5.33113">
        <ele>216.95364</ele>
        <time>2023-03-15T10:46:03.000Z</time>
      </trkpt>
      <trkpt lat="43.52978" lon="5.33112">
        <ele>217.42847</ele>
        <time>2023-03-15T10:46:05.000Z</time>
      </trkpt>
      <trkpt lat="43.52976" lon="5.3311">
        <ele>217.93335</ele>
        <time>2023-03-15T10:46:07.000Z</time>
      </trkpt>
      <trkpt lat="43.52975" lon="5.3311">
        <ele>218.51065</ele>
        <time>2023-03-15T10:46:09.000Z</time>
      </trkpt>
      <trkpt lat="43.52973" lon="5.33108">
        <ele>219.20963</ele>
        <time>2023-03-15T10:46:11.000Z</time>
      </trkpt>
      <trkpt lat="43.52971" lon="5.33108">
        <ele>219.94731</ele>
        <time>2023-03-15T10:46:13.000Z</time>
      </trkpt>
      <trkpt lat="43.52969" lon="5.33108">
        <ele>220.754</ele>
        <time>2023-03-15T10:46:15.000Z</time>
      </trkpt>
      <trkpt lat="43.52967" lon="5.33108">
        <ele>221.46555</ele>
        <time>2023-03-15T10:46:17.000Z</time>
      </trkpt>
      <trkpt lat="43.52965" lon="5.33109">
        <ele>222.11868</ele>
        <time>2023-03-15T10:46:19.000Z</time>
      </trkpt>
      <trkpt lat="43.52963" lon="5.3311">
        <ele>222.68535</ele>
        <time>2023-03-15T10:46:21.000Z</time>
      </trkpt>
      <trkpt lat="43.52961" lon="5.3311">
        <ele>223.3284</ele>
        <time>2023-03-15T10:46:25.000Z</time>
      </trkpt>
      <trkpt lat="43.52958" lon="5.33109">
        <ele>223.94272</ele>
        <time>2023-03-15T10:46:28.000Z</time>
      </trkpt>
      <trkpt lat="43.52956" lon="5.33109">
        <ele>224.47456</ele>
        <time>2023-03-15T10:46:31.000Z</time>
      </trkpt>
      <trkpt lat="43.52954" lon="5.33108">
        <ele>225.03557</ele>
        <time>2023-03-15T10:46:33.000Z</time>
      </trkpt>
      <trkpt lat="43.52952" lon="5.33107">
        <ele>225.62041</ele>
        <time>2023-03-15T10:46:36.000Z</time>
      </trkpt>
      <trkpt lat="43.52952" lon="5.33105">
        <ele>226.14949</ele>
        <time>2023-03-15T10:46:39.000Z</time>
      </trkpt>
      <trkpt lat="43.52951" lon="5.33103">
        <ele>226.67676</ele>
        <time>2023-03-15T10:46:42.000Z</time>
      </trkpt>
      <trkpt lat="43.52949" lon="5.33101">
        <ele>227.18692</ele>
        <time>2023-03-15T10:46:45.000Z</time>
      </trkpt>
      <trkpt lat="43.52947" lon="5.33099">
        <ele>227.63687</ele>
        <time>2023-03-15T10:46:48.000Z</time>
      </trkpt>
      <trkpt lat="43.52945" lon="5.33097">
        <ele>228.03271</ele>
        <time>2023-03-15T10:46:51.000Z</time>
      </trkpt>
      <trkpt lat="43.52943" lon="5.33095">
        <ele>228.36792</ele>
        <time>2023-03-15T10:46:54.000Z</time>
      </trkpt>
      <trkpt lat="43.52941" lon="5.33093">
        <ele>228.71597</ele>
        <time>2023-03-15T10:46:57.000Z</time>
      </trkpt>
      <trkpt lat="43.5294" lon="5.33091">
        <ele>229.02678</ele>
        <time>2023-03-15T10:47:00.000Z</time>
      </trkpt>
      <trkpt lat="43.52937" lon="5.33089">
        <ele>229.32011</ele>
        <time>2023-03-15T10:47:03.000Z</time>
      </trkpt>
      <trkpt lat="43.52935" lon="5.33088">
        <ele>229.53899</ele>
        <time>2023-03-15T10:47:05.000Z</time>
      </trkpt>
      <trkpt lat="43.52934" lon="5.33088">
        <ele>229.71677</ele>
        <time>2023-03-15T10:47:07.000Z</time>
      </trkpt>
      <trkpt lat="43.52932" lon="5.33089">
        <ele>229.89432</ele>
        <time>2023-03-15T10:47:09.000Z</time>
      </trkpt>
      <trkpt lat="43.5293" lon="5.33089">
        <ele>230.0358</ele>
        <time>2023-03-15T10:47:11.000Z</time>
      </trkpt>
      <trkpt lat="43.52928" lon="5.33089">
        <ele>230.1458</ele>
        <time>2023-03-15T10:47:13.000Z</time>
      </trkpt>
      <trkpt lat="43.52926" lon="5.33088">
        <ele>230.2103</ele>
        <time>2023-03-15T10:47:15.000Z</time>
      </trkpt>
      <trkpt lat="43.52924" lon="5.33087">
        <ele>230.16499</ele>
        <time>2023-03-15T10:47:17.000Z</time>
      </trkpt>
      <trkpt lat="43.52922" lon="5.33085">
        <ele>230.0782</ele>
        <time>2023-03-15T10:47:20.000Z</time>
      </trkpt>
      <trkpt lat="43.5292" lon="5.33083">
        <ele>229.97794</ele>
        <time>2023-03-15T10:47:23.000Z</time>
      </trkpt>
      <trkpt lat="43.52918" lon="5.33082">
        <ele>229.85812</ele>
        <time>2023-03-15T10:47:25.000Z</time>
      </trkpt>
      <trkpt lat="43.52917" lon="5.3308">
        <ele>229.72009</ele>
        <time>2023-03-15T10:47:27.000Z</time>
      </trkpt>
      <trkpt lat="43.52915" lon="5.33078">
        <ele>229.61368</ele>
        <time>2023-03-15T10:47:29.000Z</time>
      </trkpt>
      <trkpt lat="43.52913" lon="5.33077">
        <ele>229.53952</ele>
        <time>2023-03-15T10:47:31.000Z</time>
      </trkpt>
      <trkpt lat="43.52912" lon="5.33075">
        <ele>229.51839</ele>
        <time>2023-03-15T10:47:33.000Z</time>
      </trkpt>
      <trkpt lat="43.5291" lon="5.33073">
        <ele>229.46494</ele>
        <time>2023-03-15T10:47:35.000Z</time>
      </trkpt>
      <trkpt lat="43.52909" lon="5.33071">
        <ele>229.44246</ele>
        <time>2023-03-15T10:47:37.000Z</time>
      </trkpt>
      <trkpt lat="43.52907" lon="5.3307">
        <ele>229.38889</ele>
        <time>2023-03-15T10:47:39.000Z</time>
      </trkpt>
      <trkpt lat="43.52905" lon="5.33068">
        <ele>229.36292</ele>
        <time>2023-03-15T10:47:41.000Z</time>
      </trkpt>
      <trkpt lat="43.52903" lon="5.33067">
        <ele>229.30606</ele>
        <time>2023-03-15T10:47:43.000Z</time>
      </trkpt>
      <trkpt lat="43.52902" lon="5.33066">
        <ele>229.18979</ele>
        <time>2023-03-15T10:47:45.000Z</time>
      </trkpt>
      <trkpt lat="43.529" lon="5.33064">
        <ele>229.01517</ele>
        <time>2023-03-15T10:47:47.000Z</time>
      </trkpt>
      <trkpt lat="43.52898" lon="5.33063">
        <ele>228.83231</ele>
        <time>2023-03-15T10:47:49.000Z</time>
      </trkpt>
      <trkpt lat="43.52897" lon="5.33061">
        <ele>228.64082</ele>
        <time>2023-03-15T10:47:51.000Z</time>
      </trkpt>
      <trkpt lat="43.52895" lon="5.3306">
        <ele>228.45757</ele>
        <time>2023-03-15T10:47:53.000Z</time>
      </trkpt>
      <trkpt lat="43.52893" lon="5.33059">
        <ele>228.31638</ele>
        <time>2023-03-15T10:47:55.000Z</time>
      </trkpt>
      <trkpt lat="43.52891" lon="5.33057">
        <ele>228.20345</ele>
        <time>2023-03-15T10:47:57.000Z</time>
      </trkpt>
      <trkpt lat="43.5289" lon="5.33055">
        <ele>228.08899</ele>
        <time>2023-03-15T10:47:59.000Z</time>
      </trkpt>
      <trkpt lat="43.52889" lon="5.33053">
        <ele>227.96609</ele>
        <time>2023-03-15T10:48:01.000Z</time>
      </trkpt>
      <trkpt lat="43.52887" lon="5.33051">
        <ele>227.8689</ele>
        <time>2023-03-15T10:48:03.000Z</time>
      </trkpt>
      <trkpt lat="43.52885" lon="5.3305">
        <ele>227.76265</ele>
        <time>2023-03-15T10:48:05.000Z</time>
      </trkpt>
      <trkpt lat="43.52883" lon="5.33048">
        <ele>227.64499</ele>
        <time>2023-03-15T10:48:08.000Z</time>
      </trkpt>
      <trkpt lat="43.52882" lon="5.33046">
        <ele>227.53731</ele>
        <time>2023-03-15T10:48:10.000Z</time>
      </trkpt>
      <trkpt lat="43.5288" lon="5.33045">
        <ele>227.42361</ele>
        <time>2023-03-15T10:48:12.000Z</time>
      </trkpt>
      <trkpt lat="43.52878" lon="5.33044">
        <ele>227.29062</ele>
        <time>2023-03-15T10:48:14.000Z</time>
      </trkpt>
      <trkpt lat="43.52877" lon="5.33042">
        <ele>227.17732</ele>
        <time>2023-03-15T10:48:16.000Z</time>
      </trkpt>
      <trkpt lat="43.52876" lon="5.33039">
        <ele>227.05789</ele>
        <time>2023-03-15T10:48:18.000Z</time>
      </trkpt>
      <trkpt lat="43.52874" lon="5.33038">
        <ele>226.96701</ele>
        <time>2023-03-15T10:48:20.000Z</time>
      </trkpt>
      <trkpt lat="43.52872" lon="5.33037">
        <ele>226.8685</ele>
        <time>2023-03-15T10:48:23.000Z</time>
      </trkpt>
      <trkpt lat="43.52871" lon="5.33034">
        <ele>226.7637</ele>
        <time>2023-03-15T10:48:26.000Z</time>
      </trkpt>
      <trkpt lat="43.52872" lon="5.3303">
        <ele>226.67427</ele>
        <time>2023-03-15T10:48:28.000Z</time>
      </trkpt>
      <trkpt lat="43.52875" lon="5.33032">
        <ele>226.57756</ele>
        <time>2023-03-15T10:48:29.000Z</time>
      </trkpt>
      <trkpt lat="43.52876" lon="5.33034">
        <ele>226.4899</ele>
        <time>2023-03-15T10:48:31.000Z</time>
      </trkpt>
      <trkpt lat="43.52874" lon="5.33034">
        <ele>226.45076</ele>
        <time>2023-03-15T10:48:40.000Z</time>
      </trkpt>
      <trkpt lat="43.52872" lon="5.33036">
        <ele>226.47171</ele>
        <time>2023-03-15T10:48:53.000Z</time>
      </trkpt>
      <trkpt lat="43.52871" lon="5.33038">
        <ele>226.49463</ele>
        <time>2023-03-15T10:48:57.000Z</time>
      </trkpt>
      <trkpt lat="43.52869" lon="5.33037">
        <ele>226.64799</ele>
        <time>2023-03-15T10:51:08.000Z</time>
      </trkpt>
      <trkpt lat="43.52867" lon="5.33037">
        <ele>226.89639</ele>
        <time>2023-03-15T10:51:11.000Z</time>
      </trkpt>
      <trkpt lat="43.52864" lon="5.33037">
        <ele>227.17732</ele>
        <time>2023-03-15T10:51:20.000Z</time>
      </trkpt>
      <trkpt lat="43.52862" lon="5.33036">
        <ele>227.44048</ele>
        <time>2023-03-15T10:51:25.000Z</time>
      </trkpt>
      <trkpt lat="43.52861" lon="5.33037">
        <ele>227.65459</ele>
        <time>2023-03-15T10:51:30.000Z</time>
      </trkpt>
      <trkpt lat="43.52858" lon="5.33037">
        <ele>227.9205</ele>
        <time>2023-03-15T10:51:37.000Z</time>
      </trkpt>
      <trkpt lat="43.52856" lon="5.33037">
        <ele>228.20161</ele>
        <time>2023-03-15T10:51:43.000Z</time>
      </trkpt>
      <trkpt lat="43.52855" lon="5.33037">
        <ele>228.4761</ele>
        <time>2023-03-15T10:51:47.000Z</time>
      </trkpt>
      <trkpt lat="43.52852" lon="5.33036">
        <ele>228.72607</ele>
        <time>2023-03-15T10:51:51.000Z</time>
      </trkpt>
      <trkpt lat="43.52851" lon="5.33034">
        <ele>228.92378</ele>
        <time>2023-03-15T10:51:54.000Z</time>
      </trkpt>
      <trkpt lat="43.52849" lon="5.33033">
        <ele>229.07278</ele>
        <time>2023-03-15T10:51:58.000Z</time>
      </trkpt>
      <trkpt lat="43.52847" lon="5.33033">
        <ele>229.20609</ele>
        <time>2023-03-15T10:52:01.000Z</time>
      </trkpt>
      <trkpt lat="43.52846" lon="5.33031">
        <ele>229.23518</ele>
        <time>2023-03-15T10:52:05.000Z</time>
      </trkpt>
      <trkpt lat="43.52847" lon="5.33029">
        <ele>229.23001</ele>
        <time>2023-03-15T10:52:08.000Z</time>
      </trkpt>
      <trkpt lat="43.52848" lon="5.33026">
        <ele>229.15549</ele>
        <time>2023-03-15T10:52:11.000Z</time>
      </trkpt>
      <trkpt lat="43.52847" lon="5.33023">
        <ele>229.05208</ele>
        <time>2023-03-15T10:52:14.000Z</time>
      </trkpt>
      <trkpt lat="43.52847" lon="5.3302">
        <ele>228.85483</ele>
        <time>2023-03-15T10:52:18.000Z</time>
      </trkpt>
      <trkpt lat="43.52846" lon="5.33017">
        <ele>228.54251</ele>
        <time>2023-03-15T10:52:21.000Z</time>
      </trkpt>
      <trkpt lat="43.52845" lon="5.33014">
        <ele>228.1312</ele>
        <time>2023-03-15T10:52:24.000Z</time>
      </trkpt>
      <trkpt lat="43.52844" lon="5.3301">
        <ele>227.64461</ele>
        <time>2023-03-15T10:52:27.000Z</time>
      </trkpt>
      <trkpt lat="43.52843" lon="5.33007">
        <ele>227.02768</ele>
        <time>2023-03-15T10:52:29.000Z</time>
      </trkpt>
      <trkpt lat="43.52843" lon="5.33004">
        <ele>226.29697</ele>
        <time>2023-03-15T10:52:31.000Z</time>
      </trkpt>
      <trkpt lat="43.52843" lon="5.33001">
        <ele>225.52383</ele>
        <time>2023-03-15T10:52:33.000Z</time>
      </trkpt>
      <trkpt lat="43.52843" lon="5.32998">
        <ele>224.72977</ele>
        <time>2023-03-15T10:52:35.000Z</time>
      </trkpt>
      <trkpt lat="43.52843" lon="5.32996">
        <ele>223.96878</ele>
        <time>2023-03-15T10:52:37.000Z</time>
      </trkpt>
      <trkpt lat="43.52844" lon="5.32993">
        <ele>223.1628</ele>
        <time>2023-03-15T10:52:39.000Z</time>
      </trkpt>
      <trkpt lat="43.52844" lon="5.3299">
        <ele>222.29243</ele>
        <time>2023-03-15T10:52:41.000Z</time>
      </trkpt>
      <trkpt lat="43.52844" lon="5.32987">
        <ele>221.35385</ele>
        <time>2023-03-15T10:52:44.000Z</time>
      </trkpt>
      <trkpt lat="43.52845" lon="5.32983">
        <ele>220.4436</ele>
        <time>2023-03-15T10:52:47.000Z</time>
      </trkpt>
      <trkpt lat="43.52845" lon="5.32981">
        <ele>219.53513</ele>
        <time>2023-03-15T10:52:49.000Z</time>
      </trkpt>
      <trkpt lat="43.52845" lon="5.32978">
        <ele>218.6445</ele>
        <time>2023-03-15T10:52:51.000Z</time>
      </trkpt>
      <trkpt lat="43.52845" lon="5.32975">
        <ele>217.759</ele>
        <time>2023-03-15T10:52:53.000Z</time>
      </trkpt>
      <trkpt lat="43.52846" lon="5.32972">
        <ele>216.93892</ele>
        <time>2023-03-15T10:52:55.000Z</time>
      </trkpt>
      <trkpt lat="43.52847" lon="5.32969">
        <ele>216.18332</ele>
        <time>2023-03-15T10:52:57.000Z</time>
      </trkpt>
      <trkpt lat="43.52847" lon="5.32966">
        <ele>215.4761</ele>
        <time>2023-03-15T10:52:59.000Z</time>
      </trkpt>
      <trkpt lat="43.52847" lon="5.32963">
        <ele>214.82146</ele>
        <time>2023-03-15T10:53:01.000Z</time>
      </trkpt>
      <trkpt lat="43.52848" lon="5.32961">
        <ele>214.26321</ele>
        <time>2023-03-15T10:53:03.000Z</time>
      </trkpt>
      <trkpt lat="43.52848" lon="5.32958">
        <ele>213.77344</ele>
        <time>2023-03-15T10:53:05.000Z</time>
      </trkpt>
      <trkpt lat="43.52848" lon="5.32955">
        <ele>213.33524</ele>
        <time>2023-03-15T10:53:08.000Z</time>
      </trkpt>
      <trkpt lat="43.52848" lon="5.32952">
        <ele>212.96468</ele>
        <time>2023-03-15T10:53:10.000Z</time>
      </trkpt>
      <trkpt lat="43.52849" lon="5.32948">
        <ele>212.61467</ele>
        <time>2023-03-15T10:53:12.000Z</time>
      </trkpt>
      <trkpt lat="43.52849" lon="5.32946">
        <ele>212.29472</ele>
        <time>2023-03-15T10:53:14.000Z</time>
      </trkpt>
      <trkpt lat="43.52849" lon="5.32943">
        <ele>212.01729</ele>
        <time>2023-03-15T10:53:16.000Z</time>
      </trkpt>
      <trkpt lat="43.5285" lon="5.3294">
        <ele>211.75473</ele>
        <time>2023-03-15T10:53:18.000Z</time>
      </trkpt>
      <trkpt lat="43.5285" lon="5.32937">
        <ele>211.51241</ele>
        <time>2023-03-15T10:53:20.000Z</time>
      </trkpt>
      <trkpt lat="43.52851" lon="5.32934">
        <ele>211.32393</ele>
        <time>2023-03-15T10:53:22.000Z</time>
      </trkpt>
      <trkpt lat="43.52852" lon="5.32931">
        <ele>211.2063</ele>
        <time>2023-03-15T10:53:24.000Z</time>
      </trkpt>
      <trkpt lat="43.52853" lon="5.32929">
        <ele>211.186</ele>
        <time>2023-03-15T10:53:26.000Z</time>
      </trkpt>
      <trkpt lat="43.52853" lon="5.32926">
        <ele>211.16202</ele>
        <time>2023-03-15T10:53:28.000Z</time>
      </trkpt>
      <trkpt lat="43.52854" lon="5.32923">
        <ele>211.17656</ele>
        <time>2023-03-15T10:53:30.000Z</time>
      </trkpt>
      <trkpt lat="43.52854" lon="5.3292">
        <ele>211.19829</ele>
        <time>2023-03-15T10:53:32.000Z</time>
      </trkpt>
      <trkpt lat="43.52854" lon="5.32917">
        <ele>211.23392</ele>
        <time>2023-03-15T10:53:34.000Z</time>
      </trkpt>
      <trkpt lat="43.52854" lon="5.32914">
        <ele>211.2695</ele>
        <time>2023-03-15T10:53:36.000Z</time>
      </trkpt>
      <trkpt lat="43.52854" lon="5.32911">
        <ele>211.29123</ele>
        <time>2023-03-15T10:53:38.000Z</time>
      </trkpt>
      <trkpt lat="43.52854" lon="5.32908">
        <ele>211.28555</ele>
        <time>2023-03-15T10:53:40.000Z</time>
      </trkpt>
      <trkpt lat="43.52854" lon="5.32905">
        <ele>211.25591</ele>
        <time>2023-03-15T10:53:42.000Z</time>
      </trkpt>
      <trkpt lat="43.52856" lon="5.32904">
        <ele>211.21777</ele>
        <time>2023-03-15T10:53:43.000Z</time>
      </trkpt>
      <trkpt lat="43.52856" lon="5.32901">
        <ele>211.2104</ele>
        <time>2023-03-15T10:53:45.000Z</time>
      </trkpt>
      <trkpt lat="43.52855" lon="5.32898">
        <ele>211.24934</ele>
        <time>2023-03-15T10:53:47.000Z</time>
      </trkpt>
      <trkpt lat="43.52855" lon="5.32895">
        <ele>211.29924</ele>
        <time>2023-03-15T10:53:49.000Z</time>
      </trkpt>
      <trkpt lat="43.52855" lon="5.32892">
        <ele>211.35147</ele>
        <time>2023-03-15T10:53:51.000Z</time>
      </trkpt>
      <trkpt lat="43.52854" lon="5.32888">
        <ele>211.41092</ele>
        <time>2023-03-15T10:53:53.000Z</time>
      </trkpt>
      <trkpt lat="43.52854" lon="5.32885">
        <ele>211.46968</ele>
        <time>2023-03-15T10:53:55.000Z</time>
      </trkpt>
      <trkpt lat="43.52853" lon="5.32882">
        <ele>211.56169</ele>
        <time>2023-03-15T10:53:57.000Z</time>
      </trkpt>
      <trkpt lat="43.52853" lon="5.32879">
        <ele>211.66113</ele>
        <time>2023-03-15T10:53:59.000Z</time>
      </trkpt>
      <trkpt lat="43.52853" lon="5.32876">
        <ele>211.71301</ele>
        <time>2023-03-15T10:54:01.000Z</time>
      </trkpt>
      <trkpt lat="43.52853" lon="5.32873">
        <ele>211.72168</ele>
        <time>2023-03-15T10:54:03.000Z</time>
      </trkpt>
      <trkpt lat="43.52853" lon="5.3287">
        <ele>211.70789</ele>
        <time>2023-03-15T10:54:05.000Z</time>
      </trkpt>
      <trkpt lat="43.52853" lon="5.32866">
        <ele>211.70078</ele>
        <time>2023-03-15T10:54:07.000Z</time>
      </trkpt>
      <trkpt lat="43.52852" lon="5.32864">
        <ele>211.71953</ele>
        <time>2023-03-15T10:54:09.000Z</time>
      </trkpt>
      <trkpt lat="43.52851" lon="5.32861">
        <ele>211.74686</ele>
        <time>2023-03-15T10:54:11.000Z</time>
      </trkpt>
      <trkpt lat="43.52851" lon="5.32858">
        <ele>211.79105</ele>
        <time>2023-03-15T10:54:13.000Z</time>
      </trkpt>
      <trkpt lat="43.52851" lon="5.32855">
        <ele>211.86523</ele>
        <time>2023-03-15T10:54:15.000Z</time>
      </trkpt>
      <trkpt lat="43.52851" lon="5.32852">
        <ele>211.93758</ele>
        <time>2023-03-15T10:54:17.000Z</time>
      </trkpt>
      <trkpt lat="43.5285" lon="5.32849">
        <ele>212.08011</ele>
        <time>2023-03-15T10:54:19.000Z</time>
      </trkpt>
      <trkpt lat="43.52851" lon="5.32847">
        <ele>212.2762</ele>
        <time>2023-03-15T10:54:21.000Z</time>
      </trkpt>
      <trkpt lat="43.52851" lon="5.32844">
        <ele>212.47701</ele>
        <time>2023-03-15T10:54:23.000Z</time>
      </trkpt>
      <trkpt lat="43.52851" lon="5.32841">
        <ele>212.67041</ele>
        <time>2023-03-15T10:54:25.000Z</time>
      </trkpt>
      <trkpt lat="43.52851" lon="5.32839">
        <ele>212.82507</ele>
        <time>2023-03-15T10:54:27.000Z</time>
      </trkpt>
      <trkpt lat="43.5285" lon="5.32836">
        <ele>212.96794</ele>
        <time>2023-03-15T10:54:29.000Z</time>
      </trkpt>
      <trkpt lat="43.5285" lon="5.32832">
        <ele>213.08516</ele>
        <time>2023-03-15T10:54:32.000Z</time>
      </trkpt>
      <trkpt lat="43.52849" lon="5.3283">
        <ele>213.1729</ele>
        <time>2023-03-15T10:54:35.000Z</time>
      </trkpt>
      <trkpt lat="43.52849" lon="5.32827">
        <ele>213.25601</ele>
        <time>2023-03-15T10:54:38.000Z</time>
      </trkpt>
      <trkpt lat="43.52849" lon="5.32824">
        <ele>213.32056</ele>
        <time>2023-03-15T10:54:40.000Z</time>
      </trkpt>
      <trkpt lat="43.52848" lon="5.32821">
        <ele>213.40372</ele>
        <time>2023-03-15T10:54:42.000Z</time>
      </trkpt>
      <trkpt lat="43.52848" lon="5.32818">
        <ele>213.49846</ele>
        <time>2023-03-15T10:54:44.000Z</time>
      </trkpt>
      <trkpt lat="43.52847" lon="5.32815">
        <ele>213.5809</ele>
        <time>2023-03-15T10:54:46.000Z</time>
      </trkpt>
      <trkpt lat="43.52847" lon="5.32812">
        <ele>213.67319</ele>
        <time>2023-03-15T10:54:48.000Z</time>
      </trkpt>
      <trkpt lat="43.52847" lon="5.32809">
        <ele>213.77681</ele>
        <time>2023-03-15T10:54:50.000Z</time>
      </trkpt>
      <trkpt lat="43.52846" lon="5.32805">
        <ele>213.8481</ele>
        <time>2023-03-15T10:54:52.000Z</time>
      </trkpt>
      <trkpt lat="43.52846" lon="5.32802">
        <ele>213.91763</ele>
        <time>2023-03-15T10:54:54.000Z</time>
      </trkpt>
      <trkpt lat="43.52846" lon="5.32799">
        <ele>213.93713</ele>
        <time>2023-03-15T10:54:56.000Z</time>
      </trkpt>
      <trkpt lat="43.52846" lon="5.32797">
        <ele>213.92326</ele>
        <time>2023-03-15T10:54:58.000Z</time>
      </trkpt>
      <trkpt lat="43.52846" lon="5.32794">
        <ele>213.9082</ele>
        <time>2023-03-15T10:55:00.000Z</time>
      </trkpt>
      <trkpt lat="43.52846" lon="5.3279">
        <ele>213.87947</ele>
        <time>2023-03-15T10:55:02.000Z</time>
      </trkpt>
      <trkpt lat="43.52846" lon="5.32787">
        <ele>213.86499</ele>
        <time>2023-03-15T10:55:04.000Z</time>
      </trkpt>
      <trkpt lat="43.52847" lon="5.32784">
        <ele>213.85367</ele>
        <time>2023-03-15T10:55:06.000Z</time>
      </trkpt>
      <trkpt lat="43.52847" lon="5.32781">
        <ele>213.77022</ele>
        <time>2023-03-15T10:55:08.000Z</time>
      </trkpt>
      <trkpt lat="43.52848" lon="5.32778">
        <ele>213.67859</ele>
        <time>2023-03-15T10:55:10.000Z</time>
      </trkpt>
      <trkpt lat="43.52848" lon="5.32776">
        <ele>213.56265</ele>
        <time>2023-03-15T10:55:12.000Z</time>
      </trkpt>
      <trkpt lat="43.52849" lon="5.32773">
        <ele>213.45918</ele>
        <time>2023-03-15T10:55:14.000Z</time>
      </trkpt>
      <trkpt lat="43.52851" lon="5.3277">
        <ele>213.37912</ele>
        <time>2023-03-15T10:55:16.000Z</time>
      </trkpt>
      <trkpt lat="43.52852" lon="5.32767">
        <ele>213.28764</ele>
        <time>2023-03-15T10:55:18.000Z</time>
      </trkpt>
      <trkpt lat="43.52853" lon="5.32764">
        <ele>213.20744</ele>
        <time>2023-03-15T10:55:20.000Z</time>
      </trkpt>
      <trkpt lat="43.52854" lon="5.32762">
        <ele>213.1055</ele>
        <time>2023-03-15T10:55:22.000Z</time>
      </trkpt>
      <trkpt lat="43.52855" lon="5.32759">
        <ele>213.04346</ele>
        <time>2023-03-15T10:55:24.000Z</time>
      </trkpt>
      <trkpt lat="43.52857" lon="5.32756">
        <ele>213.0206</ele>
        <time>2023-03-15T10:55:26.000Z</time>
      </trkpt>
      <trkpt lat="43.52858" lon="5.32753">
        <ele>212.98154</ele>
        <time>2023-03-15T10:55:28.000Z</time>
      </trkpt>
      <trkpt lat="43.52859" lon="5.3275">
        <ele>212.92154</ele>
        <time>2023-03-15T10:55:30.000Z</time>
      </trkpt>
      <trkpt lat="43.5286" lon="5.32748">
        <ele>212.88928</ele>
        <time>2023-03-15T10:55:32.000Z</time>
      </trkpt>
      <trkpt lat="43.5286" lon="5.32744">
        <ele>212.87837</ele>
        <time>2023-03-15T10:55:34.000Z</time>
      </trkpt>
      <trkpt lat="43.5286" lon="5.32741">
        <ele>212.89285</ele>
        <time>2023-03-15T10:55:36.000Z</time>
      </trkpt>
      <trkpt lat="43.52859" lon="5.32738">
        <ele>212.9108</ele>
        <time>2023-03-15T10:55:38.000Z</time>
      </trkpt>
      <trkpt lat="43.52858" lon="5.32736">
        <ele>212.89575</ele>
        <time>2023-03-15T10:55:40.000Z</time>
      </trkpt>
      <trkpt lat="43.52857" lon="5.32733">
        <ele>212.87488</ele>
        <time>2023-03-15T10:55:42.000Z</time>
      </trkpt>
      <trkpt lat="43.52855" lon="5.32731">
        <ele>212.84241</ele>
        <time>2023-03-15T10:55:44.000Z</time>
      </trkpt>
      <trkpt lat="43.52853" lon="5.32728">
        <ele>212.7928</ele>
        <time>2023-03-15T10:55:46.000Z</time>
      </trkpt>
      <trkpt lat="43.52851" lon="5.32727">
        <ele>212.78665</ele>
        <time>2023-03-15T10:55:48.000Z</time>
      </trkpt>
      <trkpt lat="43.52849" lon="5.32726">
        <ele>212.81718</ele>
        <time>2023-03-15T10:55:50.000Z</time>
      </trkpt>
      <trkpt lat="43.52847" lon="5.32725">
        <ele>212.88013</ele>
        <time>2023-03-15T10:55:53.000Z</time>
      </trkpt>
      <trkpt lat="43.52844" lon="5.32725">
        <ele>212.97307</ele>
        <time>2023-03-15T10:55:56.000Z</time>
      </trkpt>
      <trkpt lat="43.52842" lon="5.32726">
        <ele>213.17578</ele>
        <time>2023-03-15T10:55:59.000Z</time>
      </trkpt>
      <trkpt lat="43.5284" lon="5.32727">
        <ele>213.43213</ele>
        <time>2023-03-15T10:56:02.000Z</time>
      </trkpt>
      <trkpt lat="43.52838" lon="5.32726">
        <ele>213.69475</ele>
        <time>2023-03-15T10:56:05.000Z</time>
      </trkpt>
      <trkpt lat="43.52836" lon="5.32726">
        <ele>214.00432</ele>
        <time>2023-03-15T10:56:08.000Z</time>
      </trkpt>
      <trkpt lat="43.52834" lon="5.32725">
        <ele>214.27261</ele>
        <time>2023-03-15T10:56:10.000Z</time>
      </trkpt>
      <trkpt lat="43.52832" lon="5.32726">
        <ele>214.4996</ele>
        <time>2023-03-15T10:56:12.000Z</time>
      </trkpt>
      <trkpt lat="43.5283" lon="5.32725">
        <ele>214.73775</ele>
        <time>2023-03-15T10:56:14.000Z</time>
      </trkpt>
      <trkpt lat="43.52828" lon="5.32725">
        <ele>214.99588</ele>
        <time>2023-03-15T10:56:16.000Z</time>
      </trkpt>
      <trkpt lat="43.52826" lon="5.32724">
        <ele>215.26135</ele>
        <time>2023-03-15T10:56:18.000Z</time>
      </trkpt>
      <trkpt lat="43.52825" lon="5.32722">
        <ele>215.52861</ele>
        <time>2023-03-15T10:56:20.000Z</time>
      </trkpt>
      <trkpt lat="43.52823" lon="5.32721">
        <ele>215.81967</ele>
        <time>2023-03-15T10:56:22.000Z</time>
      </trkpt>
      <trkpt lat="43.52821" lon="5.32719">
        <ele>216.14063</ele>
        <time>2023-03-15T10:56:24.000Z</time>
      </trkpt>
      <trkpt lat="43.5282" lon="5.32717">
        <ele>216.51675</ele>
        <time>2023-03-15T10:56:26.000Z</time>
      </trkpt>
      <trkpt lat="43.52818" lon="5.32715">
        <ele>216.88277</ele>
        <time>2023-03-15T10:56:28.000Z</time>
      </trkpt>
      <trkpt lat="43.52816" lon="5.32713">
        <ele>217.23074</ele>
        <time>2023-03-15T10:56:30.000Z</time>
      </trkpt>
      <trkpt lat="43.52815" lon="5.32711">
        <ele>217.57768</ele>
        <time>2023-03-15T10:56:32.000Z</time>
      </trkpt>
      <trkpt lat="43.52814" lon="5.32709">
        <ele>217.92905</ele>
        <time>2023-03-15T10:56:34.000Z</time>
      </trkpt>
      <trkpt lat="43.52812" lon="5.32707">
        <ele>218.2614</ele>
        <time>2023-03-15T10:56:36.000Z</time>
      </trkpt>
      <trkpt lat="43.52811" lon="5.32705">
        <ele>218.59673</ele>
        <time>2023-03-15T10:56:38.000Z</time>
      </trkpt>
      <trkpt lat="43.5281" lon="5.32703">
        <ele>218.93338</ele>
        <time>2023-03-15T10:56:40.000Z</time>
      </trkpt>
      <trkpt lat="43.52808" lon="5.32701">
        <ele>219.23933</ele>
        <time>2023-03-15T10:56:42.000Z</time>
      </trkpt>
      <trkpt lat="43.52807" lon="5.32699">
        <ele>219.49934</ele>
        <time>2023-03-15T10:56:44.000Z</time>
      </trkpt>
      <trkpt lat="43.52805" lon="5.32697">
        <ele>219.70886</ele>
        <time>2023-03-15T10:56:46.000Z</time>
      </trkpt>
      <trkpt lat="43.52803" lon="5.32695">
        <ele>219.82378</ele>
        <time>2023-03-15T10:56:48.000Z</time>
      </trkpt>
      <trkpt lat="43.52801" lon="5.32693">
        <ele>219.93591</ele>
        <time>2023-03-15T10:56:50.000Z</time>
      </trkpt>
      <trkpt lat="43.52799" lon="5.32691">
        <ele>220.10396</ele>
        <time>2023-03-15T10:56:52.000Z</time>
      </trkpt>
      <trkpt lat="43.52797" lon="5.32689">
        <ele>220.30913</ele>
        <time>2023-03-15T10:56:54.000Z</time>
      </trkpt>
      <trkpt lat="43.52795" lon="5.32688">
        <ele>220.5284</ele>
        <time>2023-03-15T10:56:56.000Z</time>
      </trkpt>
      <trkpt lat="43.52793" lon="5.32687">
        <ele>220.76059</ele>
        <time>2023-03-15T10:56:58.000Z</time>
      </trkpt>
      <trkpt lat="43.52791" lon="5.32686">
        <ele>220.94418</ele>
        <time>2023-03-15T10:57:00.000Z</time>
      </trkpt>
      <trkpt lat="43.52789" lon="5.32685">
        <ele>221.1105</ele>
        <time>2023-03-15T10:57:02.000Z</time>
      </trkpt>
      <trkpt lat="43.52787" lon="5.32684">
        <ele>221.29092</ele>
        <time>2023-03-15T10:57:04.000Z</time>
      </trkpt>
      <trkpt lat="43.52785" lon="5.32683">
        <ele>221.4106</ele>
        <time>2023-03-15T10:57:06.000Z</time>
      </trkpt>
      <trkpt lat="43.52783" lon="5.32682">
        <ele>221.48303</ele>
        <time>2023-03-15T10:57:08.000Z</time>
      </trkpt>
      <trkpt lat="43.52781" lon="5.3268">
        <ele>221.51753</ele>
        <time>2023-03-15T10:57:10.000Z</time>
      </trkpt>
      <trkpt lat="43.52779" lon="5.3268">
        <ele>221.56616</ele>
        <time>2023-03-15T10:57:12.000Z</time>
      </trkpt>
      <trkpt lat="43.52777" lon="5.32679">
        <ele>221.6188</ele>
        <time>2023-03-15T10:57:14.000Z</time>
      </trkpt>
      <trkpt lat="43.52775" lon="5.32677">
        <ele>221.66064</ele>
        <time>2023-03-15T10:57:16.000Z</time>
      </trkpt>
      <trkpt lat="43.52774" lon="5.32676">
        <ele>221.68518</ele>
        <time>2023-03-15T10:57:18.000Z</time>
      </trkpt>
      <trkpt lat="43.52772" lon="5.32675">
        <ele>221.67459</ele>
        <time>2023-03-15T10:57:20.000Z</time>
      </trkpt>
      <trkpt lat="43.5277" lon="5.32673">
        <ele>221.59946</ele>
        <time>2023-03-15T10:57:22.000Z</time>
      </trkpt>
      <trkpt lat="43.52768" lon="5.32672">
        <ele>221.52461</ele>
        <time>2023-03-15T10:57:24.000Z</time>
      </trkpt>
      <trkpt lat="43.52767" lon="5.3267">
        <ele>221.48579</ele>
        <time>2023-03-15T10:57:26.000Z</time>
      </trkpt>
      <trkpt lat="43.52765" lon="5.32667">
        <ele>221.52206</ele>
        <time>2023-03-15T10:57:28.000Z</time>
      </trkpt>
      <trkpt lat="43.52764" lon="5.32665">
        <ele>221.54874</ele>
        <time>2023-03-15T10:57:30.000Z</time>
      </trkpt>
      <trkpt lat="43.52762" lon="5.32663">
        <ele>221.50175</ele>
        <time>2023-03-15T10:57:32.000Z</time>
      </trkpt>
      <trkpt lat="43.52761" lon="5.3266">
        <ele>221.40742</ele>
        <time>2023-03-15T10:57:34.000Z</time>
      </trkpt>
      <trkpt lat="43.52759" lon="5.32657">
        <ele>221.28061</ele>
        <time>2023-03-15T10:57:36.000Z</time>
      </trkpt>
      <trkpt lat="43.52758" lon="5.32654">
        <ele>221.08415</ele>
        <time>2023-03-15T10:57:38.000Z</time>
      </trkpt>
      <trkpt lat="43.52756" lon="5.32652">
        <ele>220.88965</ele>
        <time>2023-03-15T10:57:40.000Z</time>
      </trkpt>
      <trkpt lat="43.52755" lon="5.32649">
        <ele>220.65398</ele>
        <time>2023-03-15T10:57:42.000Z</time>
      </trkpt>
      <trkpt lat="43.52754" lon="5.32646">
        <ele>220.33508</ele>
        <time>2023-03-15T10:57:44.000Z</time>
      </trkpt>
      <trkpt lat="43.52753" lon="5.32643">
        <ele>220.02762</ele>
        <time>2023-03-15T10:57:46.000Z</time>
      </trkpt>
      <trkpt lat="43.52752" lon="5.3264">
        <ele>219.74104</ele>
        <time>2023-03-15T10:57:48.000Z</time>
      </trkpt>
      <trkpt lat="43.5275" lon="5.32637">
        <ele>219.45041</ele>
        <time>2023-03-15T10:57:50.000Z</time>
      </trkpt>
      <trkpt lat="43.5275" lon="5.32633">
        <ele>219.14201</ele>
        <time>2023-03-15T10:57:52.000Z</time>
      </trkpt>
      <trkpt lat="43.52749" lon="5.3263">
        <ele>218.80241</ele>
        <time>2023-03-15T10:57:54.000Z</time>
      </trkpt>
      <trkpt lat="43.52749" lon="5.32627">
        <ele>218.46594</ele>
        <time>2023-03-15T10:57:56.000Z</time>
      </trkpt>
      <trkpt lat="43.52749" lon="5.32624">
        <ele>218.1387</ele>
        <time>2023-03-15T10:57:58.000Z</time>
      </trkpt>
      <trkpt lat="43.52748" lon="5.32622">
        <ele>217.80818</ele>
        <time>2023-03-15T10:58:00.000Z</time>
      </trkpt>
      <trkpt lat="43.52748" lon="5.32618">
        <ele>217.44693</ele>
        <time>2023-03-15T10:58:02.000Z</time>
      </trkpt>
      <trkpt lat="43.52748" lon="5.32616">
        <ele>217.07613</ele>
        <time>2023-03-15T10:58:04.000Z</time>
      </trkpt>
      <trkpt lat="43.52748" lon="5.32613">
        <ele>216.70244</ele>
        <time>2023-03-15T10:58:06.000Z</time>
      </trkpt>
      <trkpt lat="43.52748" lon="5.3261">
        <ele>216.27615</ele>
        <time>2023-03-15T10:58:08.000Z</time>
      </trkpt>
      <trkpt lat="43.52747" lon="5.32607">
        <ele>215.899</ele>
        <time>2023-03-15T10:58:10.000Z</time>
      </trkpt>
      <trkpt lat="43.52747" lon="5.32604">
        <ele>215.55835</ele>
        <time>2023-03-15T10:58:12.000Z</time>
      </trkpt>
      <trkpt lat="43.52747" lon="5.32602">
        <ele>215.24039</ele>
        <time>2023-03-15T10:58:14.000Z</time>
      </trkpt>
      <trkpt lat="43.52747" lon="5.32599">
        <ele>214.96709</ele>
        <time>2023-03-15T10:58:16.000Z</time>
      </trkpt>
      <trkpt lat="43.52746" lon="5.32596">
        <ele>214.69724</ele>
        <time>2023-03-15T10:58:18.000Z</time>
      </trkpt>
      <trkpt lat="43.52746" lon="5.32594">
        <ele>214.46208</ele>
        <time>2023-03-15T10:58:20.000Z</time>
      </trkpt>
      <trkpt lat="43.52746" lon="5.32591">
        <ele>214.2646</ele>
        <time>2023-03-15T10:58:22.000Z</time>
      </trkpt>
      <trkpt lat="43.52746" lon="5.32588">
        <ele>214.13052</ele>
        <time>2023-03-15T10:58:24.000Z</time>
      </trkpt>
      <trkpt lat="43.52747" lon="5.32585">
        <ele>214.07146</ele>
        <time>2023-03-15T10:58:26.000Z</time>
      </trkpt>
      <trkpt lat="43.52747" lon="5.32581">
        <ele>214.08774</ele>
        <time>2023-03-15T10:58:28.000Z</time>
      </trkpt>
      <trkpt lat="43.52747" lon="5.32578">
        <ele>214.15877</ele>
        <time>2023-03-15T10:58:30.000Z</time>
      </trkpt>
      <trkpt lat="43.52747" lon="5.32575">
        <ele>214.27739</ele>
        <time>2023-03-15T10:58:32.000Z</time>
      </trkpt>
      <trkpt lat="43.52747" lon="5.32572">
        <ele>214.41951</ele>
        <time>2023-03-15T10:58:34.000Z</time>
      </trkpt>
      <trkpt lat="43.52747" lon="5.32569">
        <ele>214.56332</ele>
        <time>2023-03-15T10:58:36.000Z</time>
      </trkpt>
      <trkpt lat="43.52747" lon="5.32567">
        <ele>214.68393</ele>
        <time>2023-03-15T10:58:38.000Z</time>
      </trkpt>
      <trkpt lat="43.52747" lon="5.32564">
        <ele>214.84355</ele>
        <time>2023-03-15T10:58:40.000Z</time>
      </trkpt>
      <trkpt lat="43.52748" lon="5.32561">
        <ele>215.01538</ele>
        <time>2023-03-15T10:58:42.000Z</time>
      </trkpt>
      <trkpt lat="43.52748" lon="5.32558">
        <ele>215.19833</ele>
        <time>2023-03-15T10:58:44.000Z</time>
      </trkpt>
      <trkpt lat="43.52748" lon="5.32555">
        <ele>215.39999</ele>
        <time>2023-03-15T10:58:46.000Z</time>
      </trkpt>
      <trkpt lat="43.52747" lon="5.32552">
        <ele>215.6561</ele>
        <time>2023-03-15T10:58:48.000Z</time>
      </trkpt>
      <trkpt lat="43.52747" lon="5.3255">
        <ele>215.92561</ele>
        <time>2023-03-15T10:58:50.000Z</time>
      </trkpt>
      <trkpt lat="43.52747" lon="5.32547">
        <ele>216.22603</ele>
        <time>2023-03-15T10:58:52.000Z</time>
      </trkpt>
      <trkpt lat="43.52747" lon="5.32544">
        <ele>216.51529</ele>
        <time>2023-03-15T10:58:54.000Z</time>
      </trkpt>
      <trkpt lat="43.52747" lon="5.32541">
        <ele>216.80774</ele>
        <time>2023-03-15T10:58:56.000Z</time>
      </trkpt>
      <trkpt lat="43.52747" lon="5.32539">
        <ele>217.1259</ele>
        <time>2023-03-15T10:58:58.000Z</time>
      </trkpt>
      <trkpt lat="43.52746" lon="5.32535">
        <ele>217.43253</ele>
        <time>2023-03-15T10:59:01.000Z</time>
      </trkpt>
      <trkpt lat="43.52747" lon="5.32531">
        <ele>217.72993</ele>
        <time>2023-03-15T10:59:03.000Z</time>
      </trkpt>
      <trkpt lat="43.52747" lon="5.32528">
        <ele>218.01401</ele>
        <time>2023-03-15T10:59:05.000Z</time>
      </trkpt>
      <trkpt lat="43.52746" lon="5.32525">
        <ele>218.23149</ele>
        <time>2023-03-15T10:59:07.000Z</time>
      </trkpt>
      <trkpt lat="43.52746" lon="5.32522">
        <ele>218.40848</ele>
        <time>2023-03-15T10:59:09.000Z</time>
      </trkpt>
      <trkpt lat="43.52746" lon="5.32518">
        <ele>218.58305</ele>
        <time>2023-03-15T10:59:11.000Z</time>
      </trkpt>
      <trkpt lat="43.52746" lon="5.32516">
        <ele>218.71155</ele>
        <time>2023-03-15T10:59:13.000Z</time>
      </trkpt>
      <trkpt lat="43.52746" lon="5.32513">
        <ele>218.82825</ele>
        <time>2023-03-15T10:59:15.000Z</time>
      </trkpt>
      <trkpt lat="43.52746" lon="5.3251">
        <ele>218.91699</ele>
        <time>2023-03-15T10:59:17.000Z</time>
      </trkpt>
      <trkpt lat="43.52745" lon="5.32507">
        <ele>219.03743</ele>
        <time>2023-03-15T10:59:19.000Z</time>
      </trkpt>
      <trkpt lat="43.52745" lon="5.32504">
        <ele>219.1429</ele>
        <time>2023-03-15T10:59:21.000Z</time>
      </trkpt>
      <trkpt lat="43.52745" lon="5.325">
        <ele>219.27324</ele>
        <time>2023-03-15T10:59:23.000Z</time>
      </trkpt>
      <trkpt lat="43.52745" lon="5.32497">
        <ele>219.4229</ele>
        <time>2023-03-15T10:59:25.000Z</time>
      </trkpt>
      <trkpt lat="43.52745" lon="5.32494">
        <ele>219.59038</ele>
        <time>2023-03-15T10:59:27.000Z</time>
      </trkpt>
      <trkpt lat="43.52744" lon="5.3249">
        <ele>219.77666</ele>
        <time>2023-03-15T10:59:29.000Z</time>
      </trkpt>
      <trkpt lat="43.52744" lon="5.32488">
        <ele>219.89328</ele>
        <time>2023-03-15T10:59:31.000Z</time>
      </trkpt>
      <trkpt lat="43.52744" lon="5.32485">
        <ele>219.97672</ele>
        <time>2023-03-15T10:59:33.000Z</time>
      </trkpt>
      <trkpt lat="43.52743" lon="5.32482">
        <ele>220.03738</ele>
        <time>2023-03-15T10:59:35.000Z</time>
      </trkpt>
      <trkpt lat="43.52743" lon="5.32479">
        <ele>220.04268</ele>
        <time>2023-03-15T10:59:37.000Z</time>
      </trkpt>
      <trkpt lat="43.52742" lon="5.32477">
        <ele>220.05896</ele>
        <time>2023-03-15T10:59:39.000Z</time>
      </trkpt>
      <trkpt lat="43.52741" lon="5.32475">
        <ele>220.06963</ele>
        <time>2023-03-15T10:59:41.000Z</time>
      </trkpt>
      <trkpt lat="43.5274" lon="5.32472">
        <ele>220.05205</ele>
        <time>2023-03-15T10:59:44.000Z</time>
      </trkpt>
      <trkpt lat="43.52738" lon="5.3247">
        <ele>220.00809</ele>
        <time>2023-03-15T10:59:46.000Z</time>
      </trkpt>
      <trkpt lat="43.52737" lon="5.32468">
        <ele>219.94734</ele>
        <time>2023-03-15T10:59:48.000Z</time>
      </trkpt>
      <trkpt lat="43.52736" lon="5.32466">
        <ele>219.85181</ele>
        <time>2023-03-15T10:59:50.000Z</time>
      </trkpt>
      <trkpt lat="43.52734" lon="5.32463">
        <ele>219.72302</ele>
        <time>2023-03-15T10:59:52.000Z</time>
      </trkpt>
      <trkpt lat="43.52733" lon="5.32461">
        <ele>219.60971</ele>
        <time>2023-03-15T10:59:54.000Z</time>
      </trkpt>
      <trkpt lat="43.52732" lon="5.32458">
        <ele>219.50069</ele>
        <time>2023-03-15T10:59:56.000Z</time>
      </trkpt>
      <trkpt lat="43.52731" lon="5.32456">
        <ele>219.40572</ele>
        <time>2023-03-15T10:59:58.000Z</time>
      </trkpt>
      <trkpt lat="43.5273" lon="5.32453">
        <ele>219.27237</ele>
        <time>2023-03-15T11:00:00.000Z</time>
      </trkpt>
      <trkpt lat="43.52728" lon="5.32451">
        <ele>219.1357</ele>
        <time>2023-03-15T11:00:02.000Z</time>
      </trkpt>
      <trkpt lat="43.52727" lon="5.32448">
        <ele>218.99594</ele>
        <time>2023-03-15T11:00:04.000Z</time>
      </trkpt>
      <trkpt lat="43.52726" lon="5.32446">
        <ele>218.86719</ele>
        <time>2023-03-15T11:00:06.000Z</time>
      </trkpt>
      <trkpt lat="43.52725" lon="5.32443">
        <ele>218.7404</ele>
        <time>2023-03-15T11:00:08.000Z</time>
      </trkpt>
      <trkpt lat="43.52724" lon="5.32441">
        <ele>218.54707</ele>
        <time>2023-03-15T11:00:10.000Z</time>
      </trkpt>
      <trkpt lat="43.52722" lon="5.32438">
        <ele>218.401</ele>
        <time>2023-03-15T11:00:12.000Z</time>
      </trkpt>
      <trkpt lat="43.52721" lon="5.32436">
        <ele>218.24557</ele>
        <time>2023-03-15T11:00:14.000Z</time>
      </trkpt>
      <trkpt lat="43.5272" lon="5.32433">
        <ele>218.10092</ele>
        <time>2023-03-15T11:00:16.000Z</time>
      </trkpt>
      <trkpt lat="43.52719" lon="5.3243">
        <ele>217.99516</ele>
        <time>2023-03-15T11:00:18.000Z</time>
      </trkpt>
      <trkpt lat="43.52717" lon="5.32427">
        <ele>217.88492</ele>
        <time>2023-03-15T11:00:20.000Z</time>
      </trkpt>
      <trkpt lat="43.52715" lon="5.32424">
        <ele>217.76627</ele>
        <time>2023-03-15T11:00:22.000Z</time>
      </trkpt>
      <trkpt lat="43.52714" lon="5.32422">
        <ele>217.68115</ele>
        <time>2023-03-15T11:00:24.000Z</time>
      </trkpt>
      <trkpt lat="43.52713" lon="5.32419">
        <ele>217.62512</ele>
        <time>2023-03-15T11:00:26.000Z</time>
      </trkpt>
      <trkpt lat="43.52712" lon="5.32416">
        <ele>217.56902</ele>
        <time>2023-03-15T11:00:28.000Z</time>
      </trkpt>
      <trkpt lat="43.52711" lon="5.32414">
        <ele>217.49817</ele>
        <time>2023-03-15T11:00:30.000Z</time>
      </trkpt>
      <trkpt lat="43.5271" lon="5.32411">
        <ele>217.44141</ele>
        <time>2023-03-15T11:00:32.000Z</time>
      </trkpt>
      <trkpt lat="43.52709" lon="5.32409">
        <ele>217.28629</ele>
        <time>2023-03-15T11:00:34.000Z</time>
      </trkpt>
      <trkpt lat="43.52708" lon="5.32406">
        <ele>217.14815</ele>
        <time>2023-03-15T11:00:36.000Z</time>
      </trkpt>
      <trkpt lat="43.52706" lon="5.32403">
        <ele>217.03862</ele>
        <time>2023-03-15T11:00:38.000Z</time>
      </trkpt>
      <trkpt lat="43.52705" lon="5.32401">
        <ele>216.89346</ele>
        <time>2023-03-15T11:00:40.000Z</time>
      </trkpt>
      <trkpt lat="43.52704" lon="5.32398">
        <ele>216.746</ele>
        <time>2023-03-15T11:00:42.000Z</time>
      </trkpt>
      <trkpt lat="43.52702" lon="5.32395">
        <ele>216.54636</ele>
        <time>2023-03-15T11:00:44.000Z</time>
      </trkpt>
      <trkpt lat="43.527" lon="5.32392">
        <ele>216.32854</ele>
        <time>2023-03-15T11:00:46.000Z</time>
      </trkpt>
      <trkpt lat="43.52699" lon="5.3239">
        <ele>216.1033</ele>
        <time>2023-03-15T11:00:48.000Z</time>
      </trkpt>
      <trkpt lat="43.52698" lon="5.32387">
        <ele>215.90457</ele>
        <time>2023-03-15T11:00:50.000Z</time>
      </trkpt>
      <trkpt lat="43.52696" lon="5.32384">
        <ele>215.69173</ele>
        <time>2023-03-15T11:00:52.000Z</time>
      </trkpt>
      <trkpt lat="43.52695" lon="5.32382">
        <ele>215.50432</ele>
        <time>2023-03-15T11:00:54.000Z</time>
      </trkpt>
      <trkpt lat="43.52694" lon="5.3238">
        <ele>215.28145</ele>
        <time>2023-03-15T11:00:56.000Z</time>
      </trkpt>
      <trkpt lat="43.52692" lon="5.32378">
        <ele>215.01657</ele>
        <time>2023-03-15T11:00:58.000Z</time>
      </trkpt>
      <trkpt lat="43.52691" lon="5.32375">
        <ele>214.73677</ele>
        <time>2023-03-15T11:01:00.000Z</time>
      </trkpt>
      <trkpt lat="43.5269" lon="5.32372">
        <ele>214.46928</ele>
        <time>2023-03-15T11:01:02.000Z</time>
      </trkpt>
      <trkpt lat="43.52689" lon="5.32369">
        <ele>214.19931</ele>
        <time>2023-03-15T11:01:04.000Z</time>
      </trkpt>
      <trkpt lat="43.52688" lon="5.32367">
        <ele>213.90898</ele>
        <time>2023-03-15T11:01:06.000Z</time>
      </trkpt>
      <trkpt lat="43.52686" lon="5.32365">
        <ele>213.61897</ele>
        <time>2023-03-15T11:01:08.000Z</time>
      </trkpt>
      <trkpt lat="43.52685" lon="5.32362">
        <ele>213.3774</ele>
        <time>2023-03-15T11:01:10.000Z</time>
      </trkpt>
      <trkpt lat="43.52684" lon="5.32359">
        <ele>213.16228</ele>
        <time>2023-03-15T11:01:12.000Z</time>
      </trkpt>
      <trkpt lat="43.52682" lon="5.32356">
        <ele>213.04636</ele>
        <time>2023-03-15T11:01:14.000Z</time>
      </trkpt>
      <trkpt lat="43.52681" lon="5.32353">
        <ele>212.94292</ele>
        <time>2023-03-15T11:01:16.000Z</time>
      </trkpt>
      <trkpt lat="43.5268" lon="5.32351">
        <ele>212.8372</ele>
        <time>2023-03-15T11:01:18.000Z</time>
      </trkpt>
      <trkpt lat="43.52679" lon="5.32348">
        <ele>212.78549</ele>
        <time>2023-03-15T11:01:20.000Z</time>
      </trkpt>
      <trkpt lat="43.52677" lon="5.32346">
        <ele>212.72412</ele>
        <time>2023-03-15T11:01:22.000Z</time>
      </trkpt>
      <trkpt lat="43.52676" lon="5.32344">
        <ele>212.72543</ele>
        <time>2023-03-15T11:01:24.000Z</time>
      </trkpt>
      <trkpt lat="43.52675" lon="5.32341">
        <ele>212.71248</ele>
        <time>2023-03-15T11:01:26.000Z</time>
      </trkpt>
      <trkpt lat="43.52674" lon="5.32339">
        <ele>212.68867</ele>
        <time>2023-03-15T11:01:28.000Z</time>
      </trkpt>
      <trkpt lat="43.52673" lon="5.32336">
        <ele>212.66049</ele>
        <time>2023-03-15T11:01:30.000Z</time>
      </trkpt>
      <trkpt lat="43.52671" lon="5.32334">
        <ele>212.61667</ele>
        <time>2023-03-15T11:01:32.000Z</time>
      </trkpt>
      <trkpt lat="43.5267" lon="5.32332">
        <ele>212.5627</ele>
        <time>2023-03-15T11:01:34.000Z</time>
      </trkpt>
      <trkpt lat="43.52669" lon="5.32329">
        <ele>212.54802</ele>
        <time>2023-03-15T11:01:36.000Z</time>
      </trkpt>
      <trkpt lat="43.52667" lon="5.32327">
        <ele>212.54024</ele>
        <time>2023-03-15T11:01:38.000Z</time>
      </trkpt>
      <trkpt lat="43.52666" lon="5.32325">
        <ele>212.54565</ele>
        <time>2023-03-15T11:01:40.000Z</time>
      </trkpt>
      <trkpt lat="43.52665" lon="5.32323">
        <ele>212.59001</ele>
        <time>2023-03-15T11:01:42.000Z</time>
      </trkpt>
      <trkpt lat="43.52664" lon="5.3232">
        <ele>212.58029</ele>
        <time>2023-03-15T11:01:44.000Z</time>
      </trkpt>
      <trkpt lat="43.52663" lon="5.32318">
        <ele>212.59114</ele>
        <time>2023-03-15T11:01:46.000Z</time>
      </trkpt>
      <trkpt lat="43.52662" lon="5.32316">
        <ele>212.61792</ele>
        <time>2023-03-15T11:01:48.000Z</time>
      </trkpt>
      <trkpt lat="43.52661" lon="5.32314">
        <ele>212.65689</ele>
        <time>2023-03-15T11:01:50.000Z</time>
      </trkpt>
      <trkpt lat="43.5266" lon="5.32312">
        <ele>212.67068</ele>
        <time>2023-03-15T11:01:52.000Z</time>
      </trkpt>
      <trkpt lat="43.52659" lon="5.32309">
        <ele>212.694</ele>
        <time>2023-03-15T11:01:54.000Z</time>
      </trkpt>
      <trkpt lat="43.52657" lon="5.32308">
        <ele>212.68356</ele>
        <time>2023-03-15T11:01:56.000Z</time>
      </trkpt>
      <trkpt lat="43.52657" lon="5.32305">
        <ele>212.68477</ele>
        <time>2023-03-15T11:01:58.000Z</time>
      </trkpt>
      <trkpt lat="43.52656" lon="5.32302">
        <ele>212.68637</ele>
        <time>2023-03-15T11:02:00.000Z</time>
      </trkpt>
      <trkpt lat="43.52655" lon="5.323">
        <ele>212.72562</ele>
        <time>2023-03-15T11:02:02.000Z</time>
      </trkpt>
      <trkpt lat="43.52653" lon="5.32298">
        <ele>212.7377</ele>
        <time>2023-03-15T11:02:04.000Z</time>
      </trkpt>
      <trkpt lat="43.52652" lon="5.32296">
        <ele>212.76424</ele>
        <time>2023-03-15T11:02:06.000Z</time>
      </trkpt>
      <trkpt lat="43.52651" lon="5.32293">
        <ele>212.84492</ele>
        <time>2023-03-15T11:02:08.000Z</time>
      </trkpt>
      <trkpt lat="43.52651" lon="5.3229">
        <ele>212.97722</ele>
        <time>2023-03-15T11:02:10.000Z</time>
      </trkpt>
      <trkpt lat="43.52649" lon="5.32288">
        <ele>213.11597</ele>
        <time>2023-03-15T11:02:12.000Z</time>
      </trkpt>
      <trkpt lat="43.52648" lon="5.32286">
        <ele>213.22873</ele>
        <time>2023-03-15T11:02:14.000Z</time>
      </trkpt>
      <trkpt lat="43.52647" lon="5.32284">
        <ele>213.35352</ele>
        <time>2023-03-15T11:02:16.000Z</time>
      </trkpt>
      <trkpt lat="43.52646" lon="5.32281">
        <ele>213.54414</ele>
        <time>2023-03-15T11:02:18.000Z</time>
      </trkpt>
      <trkpt lat="43.52645" lon="5.32279">
        <ele>213.7148</ele>
        <time>2023-03-15T11:02:20.000Z</time>
      </trkpt>
      <trkpt lat="43.52643" lon="5.32277">
        <ele>213.81746</ele>
        <time>2023-03-15T11:02:22.000Z</time>
      </trkpt>
      <trkpt lat="43.52642" lon="5.32275">
        <ele>213.97232</ele>
        <time>2023-03-15T11:02:24.000Z</time>
      </trkpt>
      <trkpt lat="43.52641" lon="5.32272">
        <ele>214.12553</ele>
        <time>2023-03-15T11:02:26.000Z</time>
      </trkpt>
      <trkpt lat="43.5264" lon="5.3227">
        <ele>214.30484</ele>
        <time>2023-03-15T11:02:28.000Z</time>
      </trkpt>
      <trkpt lat="43.52639" lon="5.32267">
        <ele>214.49869</ele>
        <time>2023-03-15T11:02:30.000Z</time>
      </trkpt>
      <trkpt lat="43.52637" lon="5.32264">
        <ele>214.68282</ele>
        <time>2023-03-15T11:02:32.000Z</time>
      </trkpt>
      <trkpt lat="43.52636" lon="5.32261">
        <ele>214.82278</ele>
        <time>2023-03-15T11:02:34.000Z</time>
      </trkpt>
      <trkpt lat="43.52635" lon="5.32259">
        <ele>214.97359</ele>
        <time>2023-03-15T11:02:36.000Z</time>
      </trkpt>
      <trkpt lat="43.52634" lon="5.32256">
        <ele>215.10971</ele>
        <time>2023-03-15T11:02:38.000Z</time>
      </trkpt>
      <trkpt lat="43.52632" lon="5.32254">
        <ele>215.20268</ele>
        <time>2023-03-15T11:02:40.000Z</time>
      </trkpt>
      <trkpt lat="43.5263" lon="5.32252">
        <ele>215.24031</ele>
        <time>2023-03-15T11:02:42.000Z</time>
      </trkpt>
      <trkpt lat="43.52629" lon="5.32249">
        <ele>215.30428</ele>
        <time>2023-03-15T11:02:44.000Z</time>
      </trkpt>
      <trkpt lat="43.52627" lon="5.32247">
        <ele>215.3461</ele>
        <time>2023-03-15T11:02:46.000Z</time>
      </trkpt>
      <trkpt lat="43.52624" lon="5.32246">
        <ele>215.33699</ele>
        <time>2023-03-15T11:02:48.000Z</time>
      </trkpt>
      <trkpt lat="43.52622" lon="5.32244">
        <ele>215.30583</ele>
        <time>2023-03-15T11:02:50.000Z</time>
      </trkpt>
      <trkpt lat="43.5262" lon="5.32243">
        <ele>215.28699</ele>
        <time>2023-03-15T11:02:52.000Z</time>
      </trkpt>
      <trkpt lat="43.52618" lon="5.32242">
        <ele>215.31787</ele>
        <time>2023-03-15T11:02:54.000Z</time>
      </trkpt>
      <trkpt lat="43.52616" lon="5.32241">
        <ele>215.32846</ele>
        <time>2023-03-15T11:02:56.000Z</time>
      </trkpt>
      <trkpt lat="43.52614" lon="5.3224">
        <ele>215.30484</ele>
        <time>2023-03-15T11:02:58.000Z</time>
      </trkpt>
      <trkpt lat="43.52612" lon="5.32238">
        <ele>215.30843</ele>
        <time>2023-03-15T11:03:00.000Z</time>
      </trkpt>
      <trkpt lat="43.5261" lon="5.32239">
        <ele>215.35703</ele>
        <time>2023-03-15T11:03:03.000Z</time>
      </trkpt>
      <trkpt lat="43.52607" lon="5.32239">
        <ele>215.453</ele>
        <time>2023-03-15T11:03:06.000Z</time>
      </trkpt>
      <trkpt lat="43.52605" lon="5.3224">
        <ele>215.56259</ele>
        <time>2023-03-15T11:03:09.000Z</time>
      </trkpt>
      <trkpt lat="43.52603" lon="5.32241">
        <ele>215.67569</ele>
        <time>2023-03-15T11:03:11.000Z</time>
      </trkpt>
      <trkpt lat="43.52601" lon="5.32242">
        <ele>215.74097</ele>
        <time>2023-03-15T11:03:13.000Z</time>
      </trkpt>
      <trkpt lat="43.52599" lon="5.32242">
        <ele>215.80087</ele>
        <time>2023-03-15T11:03:15.000Z</time>
      </trkpt>
      <trkpt lat="43.52596" lon="5.32243">
        <ele>215.87793</ele>
        <time>2023-03-15T11:03:18.000Z</time>
      </trkpt>
      <trkpt lat="43.52594" lon="5.32243">
        <ele>215.95169</ele>
        <time>2023-03-15T11:03:20.000Z</time>
      </trkpt>
      <trkpt lat="43.52592" lon="5.32244">
        <ele>216.00784</ele>
        <time>2023-03-15T11:03:22.000Z</time>
      </trkpt>
      <trkpt lat="43.5259" lon="5.32245">
        <ele>216.12833</ele>
        <time>2023-03-15T11:03:24.000Z</time>
      </trkpt>
      <trkpt lat="43.52588" lon="5.32245">
        <ele>216.30095</ele>
        <time>2023-03-15T11:03:26.000Z</time>
      </trkpt>
      <trkpt lat="43.52586" lon="5.32245">
        <ele>216.45674</ele>
        <time>2023-03-15T11:03:28.000Z</time>
      </trkpt>
      <trkpt lat="43.52584" lon="5.32246">
        <ele>216.62582</ele>
        <time>2023-03-15T11:03:30.000Z</time>
      </trkpt>
      <trkpt lat="43.52582" lon="5.32246">
        <ele>216.84941</ele>
        <time>2023-03-15T11:03:32.000Z</time>
      </trkpt>
      <trkpt lat="43.52579" lon="5.32247">
        <ele>217.04602</ele>
        <time>2023-03-15T11:03:35.000Z</time>
      </trkpt>
      <trkpt lat="43.52577" lon="5.32247">
        <ele>217.21143</ele>
        <time>2023-03-15T11:03:37.000Z</time>
      </trkpt>
      <trkpt lat="43.52575" lon="5.32247">
        <ele>217.36633</ele>
        <time>2023-03-15T11:03:39.000Z</time>
      </trkpt>
      <trkpt lat="43.52573" lon="5.32247">
        <ele>217.53596</ele>
        <time>2023-03-15T11:03:41.000Z</time>
      </trkpt>
      <trkpt lat="43.52571" lon="5.32248">
        <ele>217.70723</ele>
        <time>2023-03-15T11:03:43.000Z</time>
      </trkpt>
      <trkpt lat="43.52569" lon="5.32248">
        <ele>217.91202</ele>
        <time>2023-03-15T11:03:45.000Z</time>
      </trkpt>
      <trkpt lat="43.52567" lon="5.32249">
        <ele>218.09363</ele>
        <time>2023-03-15T11:03:47.000Z</time>
      </trkpt>
      <trkpt lat="43.52565" lon="5.3225">
        <ele>218.25339</ele>
        <time>2023-03-15T11:03:49.000Z</time>
      </trkpt>
      <trkpt lat="43.52563" lon="5.32251">
        <ele>218.37769</ele>
        <time>2023-03-15T11:03:51.000Z</time>
      </trkpt>
      <trkpt lat="43.52561" lon="5.32251">
        <ele>218.44226</ele>
        <time>2023-03-15T11:03:53.000Z</time>
      </trkpt>
      <trkpt lat="43.52559" lon="5.32251">
        <ele>218.51822</ele>
        <time>2023-03-15T11:03:55.000Z</time>
      </trkpt>
      <trkpt lat="43.52557" lon="5.32251">
        <ele>218.61752</ele>
        <time>2023-03-15T11:03:57.000Z</time>
      </trkpt>
      <trkpt lat="43.52555" lon="5.32252">
        <ele>218.75227</ele>
        <time>2023-03-15T11:03:59.000Z</time>
      </trkpt>
      <trkpt lat="43.52553" lon="5.32252">
        <ele>218.87093</ele>
        <time>2023-03-15T11:04:01.000Z</time>
      </trkpt>
      <trkpt lat="43.52551" lon="5.32252">
        <ele>218.99374</ele>
        <time>2023-03-15T11:04:03.000Z</time>
      </trkpt>
      <trkpt lat="43.52549" lon="5.32253">
        <ele>219.15469</ele>
        <time>2023-03-15T11:04:05.000Z</time>
      </trkpt>
      <trkpt lat="43.52547" lon="5.32253">
        <ele>219.29468</ele>
        <time>2023-03-15T11:04:07.000Z</time>
      </trkpt>
      <trkpt lat="43.52545" lon="5.32253">
        <ele>219.4263</ele>
        <time>2023-03-15T11:04:09.000Z</time>
      </trkpt>
      <trkpt lat="43.52543" lon="5.32254">
        <ele>219.5979</ele>
        <time>2023-03-15T11:04:11.000Z</time>
      </trkpt>
      <trkpt lat="43.52541" lon="5.32254">
        <ele>219.72588</ele>
        <time>2023-03-15T11:04:13.000Z</time>
      </trkpt>
      <trkpt lat="43.52539" lon="5.32254">
        <ele>219.88632</ele>
        <time>2023-03-15T11:04:15.000Z</time>
      </trkpt>
      <trkpt lat="43.52536" lon="5.32254">
        <ele>220.0511</ele>
        <time>2023-03-15T11:04:17.000Z</time>
      </trkpt>
      <trkpt lat="43.52534" lon="5.32254">
        <ele>220.24216</ele>
        <time>2023-03-15T11:04:19.000Z</time>
      </trkpt>
      <trkpt lat="43.52531" lon="5.32254">
        <ele>220.43985</ele>
        <time>2023-03-15T11:04:21.000Z</time>
      </trkpt>
      <trkpt lat="43.5253" lon="5.32253">
        <ele>220.63257</ele>
        <time>2023-03-15T11:04:23.000Z</time>
      </trkpt>
      <trkpt lat="43.52528" lon="5.32252">
        <ele>220.77161</ele>
        <time>2023-03-15T11:04:25.000Z</time>
      </trkpt>
      <trkpt lat="43.52526" lon="5.32252">
        <ele>220.81865</ele>
        <time>2023-03-15T11:04:28.000Z</time>
      </trkpt>
      <trkpt lat="43.52524" lon="5.3225">
        <ele>220.78276</ele>
        <time>2023-03-15T11:04:31.000Z</time>
      </trkpt>
      <trkpt lat="43.52522" lon="5.32249">
        <ele>220.7552</ele>
        <time>2023-03-15T11:04:33.000Z</time>
      </trkpt>
      <trkpt lat="43.5252" lon="5.32247">
        <ele>220.75395</ele>
        <time>2023-03-15T11:04:35.000Z</time>
      </trkpt>
      <trkpt lat="43.52519" lon="5.32246">
        <ele>220.73389</ele>
        <time>2023-03-15T11:04:37.000Z</time>
      </trkpt>
      <trkpt lat="43.52517" lon="5.32244">
        <ele>220.72214</ele>
        <time>2023-03-15T11:04:39.000Z</time>
      </trkpt>
      <trkpt lat="43.52515" lon="5.32243">
        <ele>220.65256</ele>
        <time>2023-03-15T11:04:41.000Z</time>
      </trkpt>
      <trkpt lat="43.52513" lon="5.32241">
        <ele>220.55696</ele>
        <time>2023-03-15T11:04:44.000Z</time>
      </trkpt>
      <trkpt lat="43.52511" lon="5.3224">
        <ele>220.46782</ele>
        <time>2023-03-15T11:04:46.000Z</time>
      </trkpt>
      <trkpt lat="43.52509" lon="5.32239">
        <ele>220.30241</ele>
        <time>2023-03-15T11:04:48.000Z</time>
      </trkpt>
      <trkpt lat="43.52507" lon="5.32238">
        <ele>220.1376</ele>
        <time>2023-03-15T11:04:50.000Z</time>
      </trkpt>
      <trkpt lat="43.52505" lon="5.32236">
        <ele>219.99429</ele>
        <time>2023-03-15T11:04:52.000Z</time>
      </trkpt>
      <trkpt lat="43.52503" lon="5.32235">
        <ele>219.82047</ele>
        <time>2023-03-15T11:04:54.000Z</time>
      </trkpt>
      <trkpt lat="43.52501" lon="5.32234">
        <ele>219.59851</ele>
        <time>2023-03-15T11:04:56.000Z</time>
      </trkpt>
      <trkpt lat="43.52499" lon="5.32232">
        <ele>219.38916</ele>
        <time>2023-03-15T11:04:58.000Z</time>
      </trkpt>
      <trkpt lat="43.52497" lon="5.32231">
        <ele>219.2327</ele>
        <time>2023-03-15T11:05:00.000Z</time>
      </trkpt>
      <trkpt lat="43.52496" lon="5.3223">
        <ele>219.0916</ele>
        <time>2023-03-15T11:05:02.000Z</time>
      </trkpt>
      <trkpt lat="43.52494" lon="5.32229">
        <ele>218.96265</ele>
        <time>2023-03-15T11:05:04.000Z</time>
      </trkpt>
      <trkpt lat="43.52492" lon="5.32227">
        <ele>218.85185</ele>
        <time>2023-03-15T11:05:06.000Z</time>
      </trkpt>
      <trkpt lat="43.5249" lon="5.32226">
        <ele>218.73544</ele>
        <time>2023-03-15T11:05:08.000Z</time>
      </trkpt>
      <trkpt lat="43.52488" lon="5.32225">
        <ele>218.6851</ele>
        <time>2023-03-15T11:05:10.000Z</time>
      </trkpt>
      <trkpt lat="43.52486" lon="5.32223">
        <ele>218.68765</ele>
        <time>2023-03-15T11:05:12.000Z</time>
      </trkpt>
      <trkpt lat="43.52484" lon="5.32222">
        <ele>218.76836</ele>
        <time>2023-03-15T11:05:14.000Z</time>
      </trkpt>
      <trkpt lat="43.52482" lon="5.3222">
        <ele>218.84756</ele>
        <time>2023-03-15T11:05:16.000Z</time>
      </trkpt>
      <trkpt lat="43.5248" lon="5.32219">
        <ele>218.94894</ele>
        <time>2023-03-15T11:05:18.000Z</time>
      </trkpt>
      <trkpt lat="43.52479" lon="5.32217">
        <ele>219.04568</ele>
        <time>2023-03-15T11:05:20.000Z</time>
      </trkpt>
      <trkpt lat="43.52476" lon="5.32216">
        <ele>219.1521</ele>
        <time>2023-03-15T11:05:22.000Z</time>
      </trkpt>
      <trkpt lat="43.52474" lon="5.32215">
        <ele>219.30949</ele>
        <time>2023-03-15T11:05:24.000Z</time>
      </trkpt>
      <trkpt lat="43.52472" lon="5.32214">
        <ele>219.49422</ele>
        <time>2023-03-15T11:05:26.000Z</time>
      </trkpt>
      <trkpt lat="43.5247" lon="5.32213">
        <ele>219.72079</ele>
        <time>2023-03-15T11:05:28.000Z</time>
      </trkpt>
      <trkpt lat="43.52468" lon="5.32212">
        <ele>219.9501</ele>
        <time>2023-03-15T11:05:30.000Z</time>
      </trkpt>
      <trkpt lat="43.52466" lon="5.32211">
        <ele>220.1086</ele>
        <time>2023-03-15T11:05:32.000Z</time>
      </trkpt>
      <trkpt lat="43.52464" lon="5.32209">
        <ele>220.18088</ele>
        <time>2023-03-15T11:05:34.000Z</time>
      </trkpt>
      <trkpt lat="43.52462" lon="5.32208">
        <ele>220.26694</ele>
        <time>2023-03-15T11:05:36.000Z</time>
      </trkpt>
      <trkpt lat="43.52461" lon="5.32206">
        <ele>220.31674</ele>
        <time>2023-03-15T11:05:38.000Z</time>
      </trkpt>
      <trkpt lat="43.52459" lon="5.32206">
        <ele>220.31274</ele>
        <time>2023-03-15T11:05:40.000Z</time>
      </trkpt>
      <trkpt lat="43.52457" lon="5.32205">
        <ele>220.28056</ele>
        <time>2023-03-15T11:05:42.000Z</time>
      </trkpt>
      <trkpt lat="43.52455" lon="5.32203">
        <ele>220.23666</ele>
        <time>2023-03-15T11:05:44.000Z</time>
      </trkpt>
      <trkpt lat="43.52453" lon="5.32202">
        <ele>220.17148</ele>
        <time>2023-03-15T11:05:46.000Z</time>
      </trkpt>
      <trkpt lat="43.52451" lon="5.322">
        <ele>220.13142</ele>
        <time>2023-03-15T11:05:48.000Z</time>
      </trkpt>
      <trkpt lat="43.5245" lon="5.32198">
        <ele>220.11218</ele>
        <time>2023-03-15T11:05:50.000Z</time>
      </trkpt>
      <trkpt lat="43.52448" lon="5.32197">
        <ele>220.07561</ele>
        <time>2023-03-15T11:05:52.000Z</time>
      </trkpt>
      <trkpt lat="43.52446" lon="5.32196">
        <ele>219.90244</ele>
        <time>2023-03-15T11:05:54.000Z</time>
      </trkpt>
      <trkpt lat="43.52444" lon="5.32195">
        <ele>219.69739</ele>
        <time>2023-03-15T11:05:56.000Z</time>
      </trkpt>
      <trkpt lat="43.52442" lon="5.32193">
        <ele>219.50146</ele>
        <time>2023-03-15T11:05:58.000Z</time>
      </trkpt>
      <trkpt lat="43.52441" lon="5.32191">
        <ele>219.31755</ele>
        <time>2023-03-15T11:06:00.000Z</time>
      </trkpt>
      <trkpt lat="43.52439" lon="5.32189">
        <ele>219.12888</ele>
        <time>2023-03-15T11:06:02.000Z</time>
      </trkpt>
      <trkpt lat="43.52438" lon="5.32187">
        <ele>218.98116</ele>
        <time>2023-03-15T11:06:04.000Z</time>
      </trkpt>
      <trkpt lat="43.52436" lon="5.32185">
        <ele>218.77267</ele>
        <time>2023-03-15T11:06:06.000Z</time>
      </trkpt>
      <trkpt lat="43.52434" lon="5.32183">
        <ele>218.5397</ele>
        <time>2023-03-15T11:06:08.000Z</time>
      </trkpt>
      <trkpt lat="43.52433" lon="5.32181">
        <ele>218.28337</ele>
        <time>2023-03-15T11:06:10.000Z</time>
      </trkpt>
      <trkpt lat="43.52432" lon="5.32178">
        <ele>218.07187</ele>
        <time>2023-03-15T11:06:12.000Z</time>
      </trkpt>
      <trkpt lat="43.52431" lon="5.32175">
        <ele>217.9351</ele>
        <time>2023-03-15T11:06:14.000Z</time>
      </trkpt>
      <trkpt lat="43.5243" lon="5.32173">
        <ele>217.79741</ele>
        <time>2023-03-15T11:06:16.000Z</time>
      </trkpt>
      <trkpt lat="43.52429" lon="5.3217">
        <ele>217.66495</ele>
        <time>2023-03-15T11:06:18.000Z</time>
      </trkpt>
      <trkpt lat="43.52428" lon="5.32168">
        <ele>217.51624</ele>
        <time>2023-03-15T11:06:20.000Z</time>
      </trkpt>
      <trkpt lat="43.52428" lon="5.32165">
        <ele>217.35318</ele>
        <time>2023-03-15T11:06:22.000Z</time>
      </trkpt>
      <trkpt lat="43.52427" lon="5.32162">
        <ele>217.18466</ele>
        <time>2023-03-15T11:06:24.000Z</time>
      </trkpt>
      <trkpt lat="43.52426" lon="5.32159">
        <ele>217.0127</ele>
        <time>2023-03-15T11:06:26.000Z</time>
      </trkpt>
      <trkpt lat="43.52425" lon="5.32156">
        <ele>216.82405</ele>
        <time>2023-03-15T11:06:28.000Z</time>
      </trkpt>
      <trkpt lat="43.52425" lon="5.32153">
        <ele>216.64091</ele>
        <time>2023-03-15T11:06:30.000Z</time>
      </trkpt>
      <trkpt lat="43.52424" lon="5.32149">
        <ele>216.46976</ele>
        <time>2023-03-15T11:06:32.000Z</time>
      </trkpt>
      <trkpt lat="43.52424" lon="5.32146">
        <ele>216.36365</ele>
        <time>2023-03-15T11:06:34.000Z</time>
      </trkpt>
      <trkpt lat="43.52424" lon="5.32144">
        <ele>216.30734</ele>
        <time>2023-03-15T11:06:36.000Z</time>
      </trkpt>
      <trkpt lat="43.52423" lon="5.3214">
        <ele>216.22949</ele>
        <time>2023-03-15T11:06:38.000Z</time>
      </trkpt>
      <trkpt lat="43.52422" lon="5.32138">
        <ele>216.09746</ele>
        <time>2023-03-15T11:06:40.000Z</time>
      </trkpt>
      <trkpt lat="43.52422" lon="5.32135">
        <ele>216.00378</ele>
        <time>2023-03-15T11:06:42.000Z</time>
      </trkpt>
      <trkpt lat="43.52422" lon="5.32132">
        <ele>215.85551</ele>
        <time>2023-03-15T11:06:44.000Z</time>
      </trkpt>
      <trkpt lat="43.52422" lon="5.32129">
        <ele>215.72209</ele>
        <time>2023-03-15T11:06:46.000Z</time>
      </trkpt>
      <trkpt lat="43.52422" lon="5.32126">
        <ele>215.58481</ele>
        <time>2023-03-15T11:06:48.000Z</time>
      </trkpt>
      <trkpt lat="43.52422" lon="5.32124">
        <ele>215.46912</ele>
        <time>2023-03-15T11:06:50.000Z</time>
      </trkpt>
      <trkpt lat="43.52423" lon="5.32121">
        <ele>215.36441</ele>
        <time>2023-03-15T11:06:52.000Z</time>
      </trkpt>
      <trkpt lat="43.52423" lon="5.32118">
        <ele>215.25513</ele>
        <time>2023-03-15T11:06:54.000Z</time>
      </trkpt>
      <trkpt lat="43.52423" lon="5.32115">
        <ele>215.16411</ele>
        <time>2023-03-15T11:06:56.000Z</time>
      </trkpt>
      <trkpt lat="43.52424" lon="5.32112">
        <ele>215.06067</ele>
        <time>2023-03-15T11:06:58.000Z</time>
      </trkpt>
      <trkpt lat="43.52424" lon="5.32108">
        <ele>215.00424</ele>
        <time>2023-03-15T11:07:00.000Z</time>
      </trkpt>
      <trkpt lat="43.52424" lon="5.32106">
        <ele>214.95512</ele>
        <time>2023-03-15T11:07:02.000Z</time>
      </trkpt>
      <trkpt lat="43.52425" lon="5.32103">
        <ele>214.91855</ele>
        <time>2023-03-15T11:07:04.000Z</time>
      </trkpt>
      <trkpt lat="43.52425" lon="5.321">
        <ele>214.82364</ele>
        <time>2023-03-15T11:07:06.000Z</time>
      </trkpt>
      <trkpt lat="43.52426" lon="5.32097">
        <ele>214.77347</ele>
        <time>2023-03-15T11:07:08.000Z</time>
      </trkpt>
      <trkpt lat="43.52426" lon="5.32094">
        <ele>214.73442</ele>
        <time>2023-03-15T11:07:10.000Z</time>
      </trkpt>
      <trkpt lat="43.52427" lon="5.32091">
        <ele>214.71184</ele>
        <time>2023-03-15T11:07:12.000Z</time>
      </trkpt>
      <trkpt lat="43.52427" lon="5.32088">
        <ele>214.7028</ele>
        <time>2023-03-15T11:07:14.000Z</time>
      </trkpt>
      <trkpt lat="43.52427" lon="5.32085">
        <ele>214.69913</ele>
        <time>2023-03-15T11:07:16.000Z</time>
      </trkpt>
      <trkpt lat="43.52427" lon="5.32082">
        <ele>214.71964</ele>
        <time>2023-03-15T11:07:18.000Z</time>
      </trkpt>
      <trkpt lat="43.52426" lon="5.3208">
        <ele>214.79585</ele>
        <time>2023-03-15T11:07:21.000Z</time>
      </trkpt>
      <trkpt lat="43.52426" lon="5.32077">
        <ele>214.91252</ele>
        <time>2023-03-15T11:07:25.000Z</time>
      </trkpt>
      <trkpt lat="43.52428" lon="5.32077">
        <ele>215.0509</ele>
        <time>2023-03-15T11:07:28.000Z</time>
      </trkpt>
      <trkpt lat="43.5243" lon="5.32076">
        <ele>215.11958</ele>
        <time>2023-03-15T11:07:41.000Z</time>
      </trkpt>
      <trkpt lat="43.5243" lon="5.32072">
        <ele>215.1904</ele>
        <time>2023-03-15T11:07:45.000Z</time>
      </trkpt>
      <trkpt lat="43.52431" lon="5.3207">
        <ele>215.2861</ele>
        <time>2023-03-15T11:07:48.000Z</time>
      </trkpt>
      <trkpt lat="43.52431" lon="5.32066">
        <ele>215.3676</ele>
        <time>2023-03-15T11:07:51.000Z</time>
      </trkpt>
      <trkpt lat="43.5243" lon="5.32064">
        <ele>215.47539</ele>
        <time>2023-03-15T11:07:53.000Z</time>
      </trkpt>
      <trkpt lat="43.52431" lon="5.3206">
        <ele>215.61385</ele>
        <time>2023-03-15T11:07:56.000Z</time>
      </trkpt>
      <trkpt lat="43.52431" lon="5.32057">
        <ele>215.80237</ele>
        <time>2023-03-15T11:07:59.000Z</time>
      </trkpt>
      <trkpt lat="43.5243" lon="5.32054">
        <ele>215.96538</ele>
        <time>2023-03-15T11:08:01.000Z</time>
      </trkpt>
      <trkpt lat="43.5243" lon="5.32051">
        <ele>216.12297</ele>
        <time>2023-03-15T11:08:03.000Z</time>
      </trkpt>
      <trkpt lat="43.5243" lon="5.32048">
        <ele>216.26804</ele>
        <time>2023-03-15T11:08:05.000Z</time>
      </trkpt>
      <trkpt lat="43.52431" lon="5.32045">
        <ele>216.49219</ele>
        <time>2023-03-15T11:08:07.000Z</time>
      </trkpt>
      <trkpt lat="43.52431" lon="5.32043">
        <ele>216.70332</ele>
        <time>2023-03-15T11:08:09.000Z</time>
      </trkpt>
      <trkpt lat="43.52431" lon="5.3204">
        <ele>216.90657</ele>
        <time>2023-03-15T11:08:11.000Z</time>
      </trkpt>
      <trkpt lat="43.52431" lon="5.32037">
        <ele>217.09067</ele>
        <time>2023-03-15T11:08:13.000Z</time>
      </trkpt>
      <trkpt lat="43.52431" lon="5.32034">
        <ele>217.25101</ele>
        <time>2023-03-15T11:08:15.000Z</time>
      </trkpt>
      <trkpt lat="43.52432" lon="5.32032">
        <ele>217.36723</ele>
        <time>2023-03-15T11:08:17.000Z</time>
      </trkpt>
      <trkpt lat="43.52433" lon="5.32029">
        <ele>217.46635</ele>
        <time>2023-03-15T11:08:19.000Z</time>
      </trkpt>
      <trkpt lat="43.52434" lon="5.32025">
        <ele>217.51253</ele>
        <time>2023-03-15T11:08:21.000Z</time>
      </trkpt>
      <trkpt lat="43.52435" lon="5.32022">
        <ele>217.50948</ele>
        <time>2023-03-15T11:08:23.000Z</time>
      </trkpt>
      <trkpt lat="43.52436" lon="5.32019">
        <ele>217.47868</ele>
        <time>2023-03-15T11:08:25.000Z</time>
      </trkpt>
      <trkpt lat="43.52437" lon="5.32016">
        <ele>217.55974</ele>
        <time>2023-03-15T11:08:27.000Z</time>
      </trkpt>
      <trkpt lat="43.52438" lon="5.32014">
        <ele>217.67473</ele>
        <time>2023-03-15T11:08:29.000Z</time>
      </trkpt>
      <trkpt lat="43.52439" lon="5.32011">
        <ele>217.75911</ele>
        <time>2023-03-15T11:08:31.000Z</time>
      </trkpt>
      <trkpt lat="43.52439" lon="5.32008">
        <ele>217.82649</ele>
        <time>2023-03-15T11:08:33.000Z</time>
      </trkpt>
      <trkpt lat="43.5244" lon="5.32005">
        <ele>217.86699</ele>
        <time>2023-03-15T11:08:35.000Z</time>
      </trkpt>
      <trkpt lat="43.52441" lon="5.32002">
        <ele>217.85149</ele>
        <time>2023-03-15T11:08:37.000Z</time>
      </trkpt>
      <trkpt lat="43.52442" lon="5.31999">
        <ele>217.76875</ele>
        <time>2023-03-15T11:08:39.000Z</time>
      </trkpt>
      <trkpt lat="43.52442" lon="5.31996">
        <ele>217.65683</ele>
        <time>2023-03-15T11:08:41.000Z</time>
      </trkpt>
      <trkpt lat="43.52443" lon="5.31994">
        <ele>217.51978</ele>
        <time>2023-03-15T11:08:43.000Z</time>
      </trkpt>
      <trkpt lat="43.52444" lon="5.31991">
        <ele>217.39481</ele>
        <time>2023-03-15T11:08:45.000Z</time>
      </trkpt>
      <trkpt lat="43.52445" lon="5.31989">
        <ele>217.27347</ele>
        <time>2023-03-15T11:08:47.000Z</time>
      </trkpt>
      <trkpt lat="43.52446" lon="5.31986">
        <ele>217.11067</ele>
        <time>2023-03-15T11:08:49.000Z</time>
      </trkpt>
      <trkpt lat="43.52447" lon="5.31982">
        <ele>216.92038</ele>
        <time>2023-03-15T11:08:51.000Z</time>
      </trkpt>
      <trkpt lat="43.52447" lon="5.31979">
        <ele>216.73401</ele>
        <time>2023-03-15T11:08:53.000Z</time>
      </trkpt>
      <trkpt lat="43.52448" lon="5.31976">
        <ele>216.5007</ele>
        <time>2023-03-15T11:08:55.000Z</time>
      </trkpt>
      <trkpt lat="43.52449" lon="5.31973">
        <ele>216.3394</ele>
        <time>2023-03-15T11:08:57.000Z</time>
      </trkpt>
      <trkpt lat="43.5245" lon="5.3197">
        <ele>216.13408</ele>
        <time>2023-03-15T11:08:59.000Z</time>
      </trkpt>
      <trkpt lat="43.5245" lon="5.31967">
        <ele>215.98019</ele>
        <time>2023-03-15T11:09:01.000Z</time>
      </trkpt>
      <trkpt lat="43.5245" lon="5.31964">
        <ele>215.79309</ele>
        <time>2023-03-15T11:09:03.000Z</time>
      </trkpt>
      <trkpt lat="43.5245" lon="5.31961">
        <ele>215.69687</ele>
        <time>2023-03-15T11:09:05.000Z</time>
      </trkpt>
      <trkpt lat="43.5245" lon="5.31958">
        <ele>215.5986</ele>
        <time>2023-03-15T11:09:07.000Z</time>
      </trkpt>
      <trkpt lat="43.52451" lon="5.31954">
        <ele>215.45537</ele>
        <time>2023-03-15T11:09:09.000Z</time>
      </trkpt>
      <trkpt lat="43.52451" lon="5.31951">
        <ele>215.32063</ele>
        <time>2023-03-15T11:09:11.000Z</time>
      </trkpt>
      <trkpt lat="43.52452" lon="5.31948">
        <ele>215.25842</ele>
        <time>2023-03-15T11:09:13.000Z</time>
      </trkpt>
      <trkpt lat="43.52452" lon="5.31944">
        <ele>215.25244</ele>
        <time>2023-03-15T11:09:15.000Z</time>
      </trkpt>
      <trkpt lat="43.52452" lon="5.31941">
        <ele>215.26303</ele>
        <time>2023-03-15T11:09:17.000Z</time>
      </trkpt>
      <trkpt lat="43.52452" lon="5.31938">
        <ele>215.33005</ele>
        <time>2023-03-15T11:09:19.000Z</time>
      </trkpt>
      <trkpt lat="43.52452" lon="5.31935">
        <ele>215.45078</ele>
        <time>2023-03-15T11:09:21.000Z</time>
      </trkpt>
      <trkpt lat="43.52451" lon="5.31931">
        <ele>215.60909</ele>
        <time>2023-03-15T11:09:23.000Z</time>
      </trkpt>
      <trkpt lat="43.52449" lon="5.31928">
        <ele>215.68604</ele>
        <time>2023-03-15T11:09:25.000Z</time>
      </trkpt>
      <trkpt lat="43.52448" lon="5.31925">
        <ele>215.7104</ele>
        <time>2023-03-15T11:09:27.000Z</time>
      </trkpt>
      <trkpt lat="43.52447" lon="5.31922">
        <ele>215.73946</ele>
        <time>2023-03-15T11:09:29.000Z</time>
      </trkpt>
      <trkpt lat="43.52445" lon="5.3192">
        <ele>215.7552</ele>
        <time>2023-03-15T11:09:31.000Z</time>
      </trkpt>
      <trkpt lat="43.52443" lon="5.31918">
        <ele>215.72299</ele>
        <time>2023-03-15T11:09:33.000Z</time>
      </trkpt>
      <trkpt lat="43.52441" lon="5.31916">
        <ele>215.74814</ele>
        <time>2023-03-15T11:09:35.000Z</time>
      </trkpt>
      <trkpt lat="43.52439" lon="5.31915">
        <ele>215.76294</ele>
        <time>2023-03-15T11:09:37.000Z</time>
      </trkpt>
      <trkpt lat="43.52437" lon="5.31913">
        <ele>215.84995</ele>
        <time>2023-03-15T11:09:39.000Z</time>
      </trkpt>
      <trkpt lat="43.52435" lon="5.31913">
        <ele>215.91106</ele>
        <time>2023-03-15T11:09:41.000Z</time>
      </trkpt>
      <trkpt lat="43.52432" lon="5.31912">
        <ele>215.99792</ele>
        <time>2023-03-15T11:09:43.000Z</time>
      </trkpt>
      <trkpt lat="43.5243" lon="5.31912">
        <ele>216.01974</ele>
        <time>2023-03-15T11:09:45.000Z</time>
      </trkpt>
      <trkpt lat="43.52427" lon="5.31912">
        <ele>216.01372</ele>
        <time>2023-03-15T11:09:47.000Z</time>
      </trkpt>
      <trkpt lat="43.52425" lon="5.31911">
        <ele>216.05879</ele>
        <time>2023-03-15T11:09:49.000Z</time>
      </trkpt>
      <trkpt lat="43.52422" lon="5.31911">
        <ele>216.10745</ele>
        <time>2023-03-15T11:09:51.000Z</time>
      </trkpt>
      <trkpt lat="43.5242" lon="5.3191">
        <ele>216.15222</ele>
        <time>2023-03-15T11:09:53.000Z</time>
      </trkpt>
      <trkpt lat="43.52418" lon="5.31909">
        <ele>216.16177</ele>
        <time>2023-03-15T11:09:55.000Z</time>
      </trkpt>
      <trkpt lat="43.52415" lon="5.31908">
        <ele>216.20822</ele>
        <time>2023-03-15T11:09:57.000Z</time>
      </trkpt>
      <trkpt lat="43.52413" lon="5.31907">
        <ele>216.14951</ele>
        <time>2023-03-15T11:09:59.000Z</time>
      </trkpt>
      <trkpt lat="43.52411" lon="5.31905">
        <ele>216.04724</ele>
        <time>2023-03-15T11:10:01.000Z</time>
      </trkpt>
      <trkpt lat="43.52409" lon="5.31902">
        <ele>215.91887</ele>
        <time>2023-03-15T11:10:03.000Z</time>
      </trkpt>
      <trkpt lat="43.52407" lon="5.319">
        <ele>215.82158</ele>
        <time>2023-03-15T11:10:05.000Z</time>
      </trkpt>
      <trkpt lat="43.52405" lon="5.31898">
        <ele>215.71292</ele>
        <time>2023-03-15T11:10:07.000Z</time>
      </trkpt>
      <trkpt lat="43.52403" lon="5.31896">
        <ele>215.61067</ele>
        <time>2023-03-15T11:10:09.000Z</time>
      </trkpt>
      <trkpt lat="43.52401" lon="5.31893">
        <ele>215.56136</ele>
        <time>2023-03-15T11:10:11.000Z</time>
      </trkpt>
      <trkpt lat="43.524" lon="5.3189">
        <ele>215.59282</ele>
        <time>2023-03-15T11:10:13.000Z</time>
      </trkpt>
      <trkpt lat="43.52398" lon="5.31888">
        <ele>215.56369</ele>
        <time>2023-03-15T11:10:15.000Z</time>
      </trkpt>
      <trkpt lat="43.52397" lon="5.31885">
        <ele>215.51201</ele>
        <time>2023-03-15T11:10:17.000Z</time>
      </trkpt>
      <trkpt lat="43.52396" lon="5.31882">
        <ele>215.46902</ele>
        <time>2023-03-15T11:10:19.000Z</time>
      </trkpt>
      <trkpt lat="43.52396" lon="5.3188">
        <ele>215.46616</ele>
        <time>2023-03-15T11:10:21.000Z</time>
      </trkpt>
      <trkpt lat="43.52393" lon="5.31879">
        <ele>215.49826</ele>
        <time>2023-03-15T11:10:23.000Z</time>
      </trkpt>
      <trkpt lat="43.52392" lon="5.31877">
        <ele>215.52939</ele>
        <time>2023-03-15T11:10:39.000Z</time>
      </trkpt>
      <trkpt lat="43.52389" lon="5.31876">
        <ele>215.53963</ele>
        <time>2023-03-15T11:10:41.000Z</time>
      </trkpt>
      <trkpt lat="43.52389" lon="5.31873">
        <ele>215.52951</ele>
        <time>2023-03-15T11:10:44.000Z</time>
      </trkpt>
      <trkpt lat="43.5239" lon="5.31869">
        <ele>215.53537</ele>
        <time>2023-03-15T11:10:46.000Z</time>
      </trkpt>
      <trkpt lat="43.52391" lon="5.31866">
        <ele>215.54659</ele>
        <time>2023-03-15T11:10:48.000Z</time>
      </trkpt>
      <trkpt lat="43.52392" lon="5.31862">
        <ele>215.55925</ele>
        <time>2023-03-15T11:10:50.000Z</time>
      </trkpt>
      <trkpt lat="43.52393" lon="5.31859">
        <ele>215.56624</ele>
        <time>2023-03-15T11:10:52.000Z</time>
      </trkpt>
      <trkpt lat="43.52394" lon="5.31856">
        <ele>215.68147</ele>
        <time>2023-03-15T11:10:54.000Z</time>
      </trkpt>
      <trkpt lat="43.52395" lon="5.31853">
        <ele>215.81497</ele>
        <time>2023-03-15T11:10:56.000Z</time>
      </trkpt>
      <trkpt lat="43.52396" lon="5.3185">
        <ele>215.94556</ele>
        <time>2023-03-15T11:10:58.000Z</time>
      </trkpt>
      <trkpt lat="43.52397" lon="5.31847">
        <ele>216.11458</ele>
        <time>2023-03-15T11:11:00.000Z</time>
      </trkpt>
      <trkpt lat="43.52398" lon="5.31844">
        <ele>216.28183</ele>
        <time>2023-03-15T11:11:02.000Z</time>
      </trkpt>
      <trkpt lat="43.52399" lon="5.31841">
        <ele>216.46919</ele>
        <time>2023-03-15T11:11:05.000Z</time>
      </trkpt>
      <trkpt lat="43.524" lon="5.31838">
        <ele>216.65776</ele>
        <time>2023-03-15T11:11:07.000Z</time>
      </trkpt>
      <trkpt lat="43.524" lon="5.31835">
        <ele>216.85677</ele>
        <time>2023-03-15T11:11:09.000Z</time>
      </trkpt>
      <trkpt lat="43.524" lon="5.31833">
        <ele>217.10112</ele>
        <time>2023-03-15T11:11:11.000Z</time>
      </trkpt>
      <trkpt lat="43.524" lon="5.3183">
        <ele>217.32109</ele>
        <time>2023-03-15T11:11:13.000Z</time>
      </trkpt>
      <trkpt lat="43.52399" lon="5.31827">
        <ele>217.48593</ele>
        <time>2023-03-15T11:11:15.000Z</time>
      </trkpt>
      <trkpt lat="43.52399" lon="5.31825">
        <ele>217.59062</ele>
        <time>2023-03-15T11:11:18.000Z</time>
      </trkpt>
      <trkpt lat="43.52399" lon="5.31821">
        <ele>217.70724</ele>
        <time>2023-03-15T11:11:21.000Z</time>
      </trkpt>
      <trkpt lat="43.52398" lon="5.31819">
        <ele>217.81979</ele>
        <time>2023-03-15T11:11:23.000Z</time>
      </trkpt>
      <trkpt lat="43.52396" lon="5.31816">
        <ele>217.91165</ele>
        <time>2023-03-15T11:11:26.000Z</time>
      </trkpt>
      <trkpt lat="43.52394" lon="5.31813">
        <ele>217.98483</ele>
        <time>2023-03-15T11:11:29.000Z</time>
      </trkpt>
      <trkpt lat="43.52393" lon="5.31811">
        <ele>217.99667</ele>
        <time>2023-03-15T11:11:31.000Z</time>
      </trkpt>
      <trkpt lat="43.52392" lon="5.31809">
        <ele>217.93823</ele>
        <time>2023-03-15T11:11:33.000Z</time>
      </trkpt>
      <trkpt lat="43.52391" lon="5.31807">
        <ele>217.87666</ele>
        <time>2023-03-15T11:11:35.000Z</time>
      </trkpt>
      <trkpt lat="43.5239" lon="5.31803">
        <ele>217.73727</ele>
        <time>2023-03-15T11:11:37.000Z</time>
      </trkpt>
      <trkpt lat="43.52388" lon="5.318">
        <ele>217.52959</ele>
        <time>2023-03-15T11:11:39.000Z</time>
      </trkpt>
      <trkpt lat="43.52387" lon="5.31798">
        <ele>217.34244</ele>
        <time>2023-03-15T11:11:41.000Z</time>
      </trkpt>
      <trkpt lat="43.52385" lon="5.31795">
        <ele>217.13315</ele>
        <time>2023-03-15T11:11:43.000Z</time>
      </trkpt>
      <trkpt lat="43.52384" lon="5.31792">
        <ele>216.92294</ele>
        <time>2023-03-15T11:11:45.000Z</time>
      </trkpt>
      <trkpt lat="43.52382" lon="5.31789">
        <ele>216.72478</ele>
        <time>2023-03-15T11:11:47.000Z</time>
      </trkpt>
      <trkpt lat="43.52381" lon="5.31787">
        <ele>216.4877</ele>
        <time>2023-03-15T11:11:49.000Z</time>
      </trkpt>
      <trkpt lat="43.52379" lon="5.31784">
        <ele>216.23563</ele>
        <time>2023-03-15T11:11:51.000Z</time>
      </trkpt>
      <trkpt lat="43.52378" lon="5.31782">
        <ele>215.95682</ele>
        <time>2023-03-15T11:11:53.000Z</time>
      </trkpt>
      <trkpt lat="43.52376" lon="5.31779">
        <ele>215.6501</ele>
        <time>2023-03-15T11:11:55.000Z</time>
      </trkpt>
      <trkpt lat="43.52375" lon="5.31777">
        <ele>215.38008</ele>
        <time>2023-03-15T11:11:57.000Z</time>
      </trkpt>
      <trkpt lat="43.52373" lon="5.31774">
        <ele>215.13278</ele>
        <time>2023-03-15T11:11:59.000Z</time>
      </trkpt>
      <trkpt lat="43.52372" lon="5.31771">
        <ele>214.92256</ele>
        <time>2023-03-15T11:12:01.000Z</time>
      </trkpt>
      <trkpt lat="43.52371" lon="5.31769">
        <ele>214.64688</ele>
        <time>2023-03-15T11:12:03.000Z</time>
      </trkpt>
      <trkpt lat="43.52369" lon="5.31766">
        <ele>214.34192</ele>
        <time>2023-03-15T11:12:05.000Z</time>
      </trkpt>
      <trkpt lat="43.52368" lon="5.31763">
        <ele>214.07217</ele>
        <time>2023-03-15T11:12:07.000Z</time>
      </trkpt>
      <trkpt lat="43.52366" lon="5.3176">
        <ele>213.73601</ele>
        <time>2023-03-15T11:12:09.000Z</time>
      </trkpt>
      <trkpt lat="43.52365" lon="5.31757">
        <ele>213.40666</ele>
        <time>2023-03-15T11:12:11.000Z</time>
      </trkpt>
      <trkpt lat="43.52364" lon="5.31754">
        <ele>213.14209</ele>
        <time>2023-03-15T11:12:13.000Z</time>
      </trkpt>
      <trkpt lat="43.52362" lon="5.31752">
        <ele>212.87068</ele>
        <time>2023-03-15T11:12:15.000Z</time>
      </trkpt>
      <trkpt lat="43.52361" lon="5.31749">
        <ele>212.65836</ele>
        <time>2023-03-15T11:12:17.000Z</time>
      </trkpt>
      <trkpt lat="43.52358" lon="5.31749">
        <ele>212.5466</ele>
        <time>2023-03-15T11:12:19.000Z</time>
      </trkpt>
      <trkpt lat="43.52357" lon="5.31752">
        <ele>212.54782</ele>
        <time>2023-03-15T11:12:21.000Z</time>
      </trkpt>
      <trkpt lat="43.52355" lon="5.31751">
        <ele>212.57622</ele>
        <time>2023-03-15T11:12:23.000Z</time>
      </trkpt>
      <trkpt lat="43.52353" lon="5.31748">
        <ele>212.52206</ele>
        <time>2023-03-15T11:12:25.000Z</time>
      </trkpt>
      <trkpt lat="43.52352" lon="5.31746">
        <ele>212.48149</ele>
        <time>2023-03-15T11:12:27.000Z</time>
      </trkpt>
      <trkpt lat="43.5235" lon="5.31744">
        <ele>212.51697</ele>
        <time>2023-03-15T11:12:29.000Z</time>
      </trkpt>
      <trkpt lat="43.52349" lon="5.31742">
        <ele>212.60889</ele>
        <time>2023-03-15T11:12:31.000Z</time>
      </trkpt>
      <trkpt lat="43.52347" lon="5.31741">
        <ele>212.72346</ele>
        <time>2023-03-15T11:12:33.000Z</time>
      </trkpt>
      <trkpt lat="43.52345" lon="5.3174">
        <ele>212.93173</ele>
        <time>2023-03-15T11:12:36.000Z</time>
      </trkpt>
      <trkpt lat="43.52342" lon="5.31738">
        <ele>213.11475</ele>
        <time>2023-03-15T11:12:39.000Z</time>
      </trkpt>
      <trkpt lat="43.52341" lon="5.31736">
        <ele>213.32207</ele>
        <time>2023-03-15T11:12:41.000Z</time>
      </trkpt>
      <trkpt lat="43.5234" lon="5.31733">
        <ele>213.45134</ele>
        <time>2023-03-15T11:12:44.000Z</time>
      </trkpt>
      <trkpt lat="43.5234" lon="5.3173">
        <ele>213.55099</ele>
        <time>2023-03-15T11:12:47.000Z</time>
      </trkpt>
      <trkpt lat="43.52341" lon="5.31728">
        <ele>213.60835</ele>
        <time>2023-03-15T11:12:50.000Z</time>
      </trkpt>
      <trkpt lat="43.52341" lon="5.31725">
        <ele>213.67827</ele>
        <time>2023-03-15T11:12:53.000Z</time>
      </trkpt>
      <trkpt lat="43.52341" lon="5.3172">
        <ele>213.82991</ele>
        <time>2023-03-15T11:12:58.000Z</time>
      </trkpt>
      <trkpt lat="43.52342" lon="5.31718">
        <ele>213.93253</ele>
        <time>2023-03-15T11:13:03.000Z</time>
      </trkpt>
      <trkpt lat="43.52344" lon="5.31718">
        <ele>213.96313</ele>
        <time>2023-03-15T11:13:05.000Z</time>
      </trkpt>
      <trkpt lat="43.52346" lon="5.3172">
        <ele>213.93144</ele>
        <time>2023-03-15T11:13:07.000Z</time>
      </trkpt>
      <trkpt lat="43.52348" lon="5.3172">
        <ele>213.8793</ele>
        <time>2023-03-15T11:13:09.000Z</time>
      </trkpt>
      <trkpt lat="43.5235" lon="5.31721">
        <ele>213.75858</ele>
        <time>2023-03-15T11:13:11.000Z</time>
      </trkpt>
      <trkpt lat="43.52351" lon="5.31723">
        <ele>213.47029</ele>
        <time>2023-03-15T11:13:14.000Z</time>
      </trkpt>
      <trkpt lat="43.52353" lon="5.31721">
        <ele>213.27832</ele>
        <time>2023-03-15T11:13:39.000Z</time>
      </trkpt>
      <trkpt lat="43.52355" lon="5.31721">
        <ele>213.18355</ele>
        <time>2023-03-15T11:13:42.000Z</time>
      </trkpt>
      <trkpt lat="43.52356" lon="5.31718">
        <ele>213.11003</ele>
        <time>2023-03-15T11:13:43.000Z</time>
      </trkpt>
      <trkpt lat="43.52354" lon="5.31716">
        <ele>213.09309</ele>
        <time>2023-03-15T11:13:44.000Z</time>
      </trkpt>
      <trkpt lat="43.52352" lon="5.31714">
        <ele>213.01791</ele>
        <time>2023-03-15T11:13:46.000Z</time>
      </trkpt>
      <trkpt lat="43.5235" lon="5.31715">
        <ele>213.04111</ele>
        <time>2023-03-15T11:14:10.000Z</time>
      </trkpt>
      <trkpt lat="43.52349" lon="5.31712">
        <ele>213.01514</ele>
        <time>2023-03-15T11:14:14.000Z</time>
      </trkpt>
      <trkpt lat="43.52351" lon="5.31713">
        <ele>212.93742</ele>
        <time>2023-03-15T11:14:39.000Z</time>
      </trkpt>
      <trkpt lat="43.52353" lon="5.31713">
        <ele>212.85193</ele>
        <time>2023-03-15T11:14:45.000Z</time>
      </trkpt>
      <trkpt lat="43.52355" lon="5.31714">
        <ele>212.7607</ele>
        <time>2023-03-15T11:14:51.000Z</time>
      </trkpt>
      <trkpt lat="43.52356" lon="5.31716">
        <ele>212.69511</ele>
        <time>2023-03-15T11:14:55.000Z</time>
      </trkpt>
      <trkpt lat="43.52357" lon="5.31718">
        <ele>212.67105</ele>
        <time>2023-03-15T11:15:00.000Z</time>
      </trkpt>
      <trkpt lat="43.52358" lon="5.3172">
        <ele>212.61667</ele>
        <time>2023-03-15T11:15:05.000Z</time>
      </trkpt>
      <trkpt lat="43.52358" lon="5.31723">
        <ele>212.62724</ele>
        <time>2023-03-15T11:15:26.000Z</time>
      </trkpt>
      <trkpt lat="43.52357" lon="5.31725">
        <ele>212.79773</ele>
        <time>2023-03-15T11:15:33.000Z</time>
      </trkpt>
      <trkpt lat="43.52355" lon="5.31726">
        <ele>212.97141</ele>
        <time>2023-03-15T11:16:09.000Z</time>
      </trkpt>
      <trkpt lat="43.52356" lon="5.31729">
        <ele>213.20117</ele>
        <time>2023-03-15T11:16:11.000Z</time>
      </trkpt>
      <trkpt lat="43.52356" lon="5.31732">
        <ele>213.46484</ele>
        <time>2023-03-15T11:16:13.000Z</time>
      </trkpt>
      <trkpt lat="43.52357" lon="5.31735">
        <ele>213.67612</ele>
        <time>2023-03-15T11:16:15.000Z</time>
      </trkpt>
      <trkpt lat="43.52358" lon="5.31736">
        <ele>213.89494</ele>
        <time>2023-03-15T11:16:17.000Z</time>
      </trkpt>
      <trkpt lat="43.5236" lon="5.31738">
        <ele>214.03394</ele>
        <time>2023-03-15T11:16:19.000Z</time>
      </trkpt>
      <trkpt lat="43.52362" lon="5.31739">
        <ele>214.15303</ele>
        <time>2023-03-15T11:16:22.000Z</time>
      </trkpt>
      <trkpt lat="43.52363" lon="5.31741">
        <ele>214.23648</ele>
        <time>2023-03-15T11:16:25.000Z</time>
      </trkpt>
      <trkpt lat="43.52364" lon="5.31743">
        <ele>214.19626</ele>
        <time>2023-03-15T11:16:28.000Z</time>
      </trkpt>
      <trkpt lat="43.52365" lon="5.31746">
        <ele>214.18794</ele>
        <time>2023-03-15T11:16:32.000Z</time>
      </trkpt>
      <trkpt lat="43.52366" lon="5.31743">
        <ele>214.04233</ele>
        <time>2023-03-15T11:16:46.000Z</time>
      </trkpt>
      <trkpt lat="43.52368" lon="5.31743">
        <ele>213.78996</ele>
        <time>2023-03-15T11:21:19.000Z</time>
      </trkpt>
      <trkpt lat="43.52369" lon="5.31745">
        <ele>213.63306</ele>
        <time>2023-03-15T11:34:58.000Z</time>
      </trkpt>
      <trkpt lat="43.52364" lon="5.3174">
        <ele>213.71989</ele>
        <time>2023-03-15T11:50:02.337Z</time>
      </trkpt>
      <trkpt lat="43.52365" lon="5.31742">
        <ele>213.72478</ele>
        <time>2023-03-15T11:50:07.000Z</time>
      </trkpt>
      <trkpt lat="43.52368" lon="5.31743">
        <ele>213.95334</ele>
        <time>2023-03-15T11:50:15.000Z</time>
      </trkpt>
      <trkpt lat="43.5237" lon="5.31743">
        <ele>214.21313</ele>
        <time>2023-03-15T11:53:16.000Z</time>
      </trkpt>
      <trkpt lat="43.52372" lon="5.31745">
        <ele>214.46719</ele>
        <time>2023-03-15T11:53:25.000Z</time>
      </trkpt>
      <trkpt lat="43.5237" lon="5.31744">
        <ele>214.83601</ele>
        <time>2023-03-15T11:54:53.000Z</time>
      </trkpt>
      <trkpt lat="43.5237" lon="5.31741">
        <ele>215.07495</ele>
        <time>2023-03-15T11:55:01.000Z</time>
      </trkpt>
      <trkpt lat="43.52368" lon="5.3174">
        <ele>215.45792</ele>
        <time>2023-03-15T11:55:24.000Z</time>
      </trkpt>
      <trkpt lat="43.52367" lon="5.31741">
        <ele>215.70357</ele>
        <time>2023-03-15T11:55:32.000Z</time>
      </trkpt>
      <trkpt lat="43.52367" lon="5.31739">
        <ele>215.93307</ele>
        <time>2023-03-15T11:55:51.000Z</time>
      </trkpt>
      <trkpt lat="43.52367" lon="5.31736">
        <ele>216.2229</ele>
        <time>2023-03-15T11:56:01.000Z</time>
      </trkpt>
      <trkpt lat="43.52368" lon="5.31734">
        <ele>216.68408</ele>
        <time>2023-03-15T12:02:14.000Z</time>
      </trkpt>
      <trkpt lat="43.52366" lon="5.31733">
        <ele>217.20181</ele>
        <time>2023-03-15T12:02:20.000Z</time>
      </trkpt>
      <trkpt lat="43.52364" lon="5.31731">
        <ele>217.76694</ele>
        <time>2023-03-15T12:02:32.000Z</time>
      </trkpt>
      <trkpt lat="43.52363" lon="5.31729">
        <ele>218.37849</ele>
        <time>2023-03-15T12:02:34.000Z</time>
      </trkpt>
      <trkpt lat="43.52363" lon="5.31725">
        <ele>219.00154</ele>
        <time>2023-03-15T12:02:36.000Z</time>
      </trkpt>
      <trkpt lat="43.52362" lon="5.31723">
        <ele>219.52011</ele>
        <time>2023-03-15T12:02:39.000Z</time>
      </trkpt>
      <trkpt lat="43.52361" lon="5.31721">
        <ele>219.84697</ele>
        <time>2023-03-15T12:08:53.000Z</time>
      </trkpt>
      <trkpt lat="43.52361" lon="5.31717">
        <ele>220.30998</ele>
        <time>2023-03-15T12:08:57.000Z</time>
      </trkpt>
      <trkpt lat="43.5236" lon="5.31715">
        <ele>220.75052</ele>
        <time>2023-03-15T12:09:00.000Z</time>
      </trkpt>
      <trkpt lat="43.52359" lon="5.31712">
        <ele>220.90349</ele>
        <time>2023-03-15T12:09:05.000Z</time>
      </trkpt>
      <trkpt lat="43.52359" lon="5.31709">
        <ele>221.25742</ele>
        <time>2023-03-15T12:09:13.000Z</time>
      </trkpt>
      <trkpt lat="43.52361" lon="5.31707">
        <ele>221.50333</ele>
        <time>2023-03-15T12:09:18.000Z</time>
      </trkpt>
      <trkpt lat="43.52359" lon="5.31707">
        <ele>221.78218</ele>
        <time>2023-03-15T12:09:40.000Z</time>
      </trkpt>
      <trkpt lat="43.52358" lon="5.31707">
        <ele>222.08823</ele>
        <time>2023-03-15T12:09:42.000Z</time>
      </trkpt>
      <trkpt lat="43.52356" lon="5.31707">
        <ele>222.23691</ele>
        <time>2023-03-15T12:09:44.000Z</time>
      </trkpt>
      <trkpt lat="43.52353" lon="5.31708">
        <ele>222.48637</ele>
        <time>2023-03-15T12:09:47.000Z</time>
      </trkpt>
      <trkpt lat="43.5235" lon="5.31709">
        <ele>222.64615</ele>
        <time>2023-03-15T12:09:49.000Z</time>
      </trkpt>
      <trkpt lat="43.52348" lon="5.3171">
        <ele>222.99809</ele>
        <time>2023-03-15T12:09:51.000Z</time>
      </trkpt>
      <trkpt lat="43.52346" lon="5.31711">
        <ele>223.36099</ele>
        <time>2023-03-15T12:09:53.000Z</time>
      </trkpt>
      <trkpt lat="43.52344" lon="5.31715">
        <ele>223.68872</ele>
        <time>2023-03-15T12:09:56.000Z</time>
      </trkpt>
      <trkpt lat="43.52343" lon="5.31717">
        <ele>223.86502</ele>
        <time>2023-03-15T12:09:58.000Z</time>
      </trkpt>
      <trkpt lat="43.52341" lon="5.31718">
        <ele>223.97177</ele>
        <time>2023-03-15T12:10:00.000Z</time>
      </trkpt>
      <trkpt lat="43.52339" lon="5.31719">
        <ele>224.0907</ele>
        <time>2023-03-15T12:10:02.000Z</time>
      </trkpt>
      <trkpt lat="43.52337" lon="5.3172">
        <ele>224.1956</ele>
        <time>2023-03-15T12:10:04.000Z</time>
      </trkpt>
      <trkpt lat="43.52335" lon="5.31721">
        <ele>224.35579</ele>
        <time>2023-03-15T12:10:06.000Z</time>
      </trkpt>
      <trkpt lat="43.52333" lon="5.31722">
        <ele>224.66235</ele>
        <time>2023-03-15T12:10:08.000Z</time>
      </trkpt>
      <trkpt lat="43.5233" lon="5.31723">
        <ele>225.19246</ele>
        <time>2023-03-15T12:10:10.000Z</time>
      </trkpt>
      <trkpt lat="43.52328" lon="5.31723">
        <ele>225.60539</ele>
        <time>2023-03-15T12:10:12.000Z</time>
      </trkpt>
      <trkpt lat="43.52326" lon="5.31723">
        <ele>225.97981</ele>
        <time>2023-03-15T12:10:14.000Z</time>
      </trkpt>
      <trkpt lat="43.52324" lon="5.31723">
        <ele>226.31621</ele>
        <time>2023-03-15T12:10:16.000Z</time>
      </trkpt>
      <trkpt lat="43.52321" lon="5.31725">
        <ele>226.55119</ele>
        <time>2023-03-15T12:10:18.000Z</time>
      </trkpt>
      <trkpt lat="43.52318" lon="5.31725">
        <ele>226.69316</ele>
        <time>2023-03-15T12:10:20.000Z</time>
      </trkpt>
      <trkpt lat="43.52316" lon="5.31726">
        <ele>226.75473</ele>
        <time>2023-03-15T12:10:22.000Z</time>
      </trkpt>
      <trkpt lat="43.52314" lon="5.31725">
        <ele>226.63095</ele>
        <time>2023-03-15T12:10:24.000Z</time>
      </trkpt>
      <trkpt lat="43.52311" lon="5.31725">
        <ele>226.37833</ele>
        <time>2023-03-15T12:10:26.000Z</time>
      </trkpt>
      <trkpt lat="43.52309" lon="5.31726">
        <ele>226.06015</ele>
        <time>2023-03-15T12:10:28.000Z</time>
      </trkpt>
      <trkpt lat="43.52306" lon="5.31726">
        <ele>225.61426</ele>
        <time>2023-03-15T12:10:30.000Z</time>
      </trkpt>
      <trkpt lat="43.52304" lon="5.31728">
        <ele>225.13535</ele>
        <time>2023-03-15T12:10:32.000Z</time>
      </trkpt>
      <trkpt lat="43.52302" lon="5.31729">
        <ele>224.6666</ele>
        <time>2023-03-15T12:10:34.000Z</time>
      </trkpt>
      <trkpt lat="43.523" lon="5.3173">
        <ele>224.22482</ele>
        <time>2023-03-15T12:10:36.000Z</time>
      </trkpt>
      <trkpt lat="43.52298" lon="5.31731">
        <ele>223.76636</ele>
        <time>2023-03-15T12:10:38.000Z</time>
      </trkpt>
      <trkpt lat="43.52296" lon="5.31732">
        <ele>223.30142</ele>
        <time>2023-03-15T12:10:40.000Z</time>
      </trkpt>
      <trkpt lat="43.52294" lon="5.31732">
        <ele>222.799</ele>
        <time>2023-03-15T12:10:42.000Z</time>
      </trkpt>
      <trkpt lat="43.52291" lon="5.31732">
        <ele>222.23994</ele>
        <time>2023-03-15T12:10:44.000Z</time>
      </trkpt>
      <trkpt lat="43.5229" lon="5.31732">
        <ele>221.64494</ele>
        <time>2023-03-15T12:10:46.000Z</time>
      </trkpt>
      <trkpt lat="43.52287" lon="5.31732">
        <ele>220.99763</ele>
        <time>2023-03-15T12:10:48.000Z</time>
      </trkpt>
      <trkpt lat="43.52285" lon="5.31732">
        <ele>220.31157</ele>
        <time>2023-03-15T12:10:51.000Z</time>
      </trkpt>
      <trkpt lat="43.52283" lon="5.31731">
        <ele>219.69353</ele>
        <time>2023-03-15T12:10:53.000Z</time>
      </trkpt>
      <trkpt lat="43.52281" lon="5.31731">
        <ele>219.08145</ele>
        <time>2023-03-15T12:10:55.000Z</time>
      </trkpt>
      <trkpt lat="43.52279" lon="5.3173">
        <ele>218.54805</ele>
        <time>2023-03-15T12:10:57.000Z</time>
      </trkpt>
      <trkpt lat="43.52277" lon="5.31729">
        <ele>218.09644</ele>
        <time>2023-03-15T12:10:59.000Z</time>
      </trkpt>
      <trkpt lat="43.52275" lon="5.31728">
        <ele>217.63667</ele>
        <time>2023-03-15T12:11:01.000Z</time>
      </trkpt>
      <trkpt lat="43.52273" lon="5.31727">
        <ele>217.27026</ele>
        <time>2023-03-15T12:11:03.000Z</time>
      </trkpt>
      <trkpt lat="43.52271" lon="5.31725">
        <ele>217.06967</ele>
        <time>2023-03-15T12:11:05.000Z</time>
      </trkpt>
      <trkpt lat="43.5227" lon="5.31723">
        <ele>217.00293</ele>
        <time>2023-03-15T12:11:07.000Z</time>
      </trkpt>
      <trkpt lat="43.52268" lon="5.31721">
        <ele>216.93079</ele>
        <time>2023-03-15T12:11:10.000Z</time>
      </trkpt>
      <trkpt lat="43.52266" lon="5.31718">
        <ele>216.96262</ele>
        <time>2023-03-15T12:11:13.000Z</time>
      </trkpt>
      <trkpt lat="43.52265" lon="5.31716">
        <ele>217.00906</ele>
        <time>2023-03-15T12:11:15.000Z</time>
      </trkpt>
      <trkpt lat="43.52263" lon="5.31714">
        <ele>216.99199</ele>
        <time>2023-03-15T12:11:17.000Z</time>
      </trkpt>
      <trkpt lat="43.52262" lon="5.31712">
        <ele>216.96695</ele>
        <time>2023-03-15T12:11:19.000Z</time>
      </trkpt>
      <trkpt lat="43.5226" lon="5.31709">
        <ele>216.99309</ele>
        <time>2023-03-15T12:11:21.000Z</time>
      </trkpt>
      <trkpt lat="43.52259" lon="5.31707">
        <ele>217.01665</ele>
        <time>2023-03-15T12:11:23.000Z</time>
      </trkpt>
      <trkpt lat="43.52258" lon="5.31705">
        <ele>217.0437</ele>
        <time>2023-03-15T12:11:25.000Z</time>
      </trkpt>
      <trkpt lat="43.52257" lon="5.31702">
        <ele>217.15234</ele>
        <time>2023-03-15T12:11:27.000Z</time>
      </trkpt>
      <trkpt lat="43.52256" lon="5.317">
        <ele>217.2533</ele>
        <time>2023-03-15T12:11:29.000Z</time>
      </trkpt>
      <trkpt lat="43.52254" lon="5.31698">
        <ele>217.36739</ele>
        <time>2023-03-15T12:11:31.000Z</time>
      </trkpt>
      <trkpt lat="43.52253" lon="5.31696">
        <ele>217.50754</ele>
        <time>2023-03-15T12:11:33.000Z</time>
      </trkpt>
      <trkpt lat="43.52251" lon="5.31694">
        <ele>217.67465</ele>
        <time>2023-03-15T12:11:35.000Z</time>
      </trkpt>
      <trkpt lat="43.5225" lon="5.31691">
        <ele>217.89778</ele>
        <time>2023-03-15T12:11:38.000Z</time>
      </trkpt>
      <trkpt lat="43.52249" lon="5.31689">
        <ele>218.18332</ele>
        <time>2023-03-15T12:11:40.000Z</time>
      </trkpt>
      <trkpt lat="43.52247" lon="5.31688">
        <ele>218.45377</ele>
        <time>2023-03-15T12:11:42.000Z</time>
      </trkpt>
      <trkpt lat="43.52245" lon="5.31686">
        <ele>218.75961</ele>
        <time>2023-03-15T12:11:44.000Z</time>
      </trkpt>
      <trkpt lat="43.52243" lon="5.31685">
        <ele>219.05579</ele>
        <time>2023-03-15T12:11:46.000Z</time>
      </trkpt>
      <trkpt lat="43.52241" lon="5.31683">
        <ele>219.34164</ele>
        <time>2023-03-15T12:11:48.000Z</time>
      </trkpt>
      <trkpt lat="43.52239" lon="5.31684">
        <ele>219.64189</ele>
        <time>2023-03-15T12:11:50.000Z</time>
      </trkpt>
      <trkpt lat="43.52237" lon="5.31684">
        <ele>219.91043</ele>
        <time>2023-03-15T12:11:52.000Z</time>
      </trkpt>
      <trkpt lat="43.52235" lon="5.31683">
        <ele>220.15169</ele>
        <time>2023-03-15T12:11:54.000Z</time>
      </trkpt>
      <trkpt lat="43.52234" lon="5.31681">
        <ele>220.38327</ele>
        <time>2023-03-15T12:11:56.000Z</time>
      </trkpt>
      <trkpt lat="43.52231" lon="5.3168">
        <ele>220.6174</ele>
        <time>2023-03-15T12:11:58.000Z</time>
      </trkpt>
      <trkpt lat="43.5223" lon="5.31679">
        <ele>220.82248</ele>
        <time>2023-03-15T12:12:00.000Z</time>
      </trkpt>
      <trkpt lat="43.52228" lon="5.31678">
        <ele>221.06133</ele>
        <time>2023-03-15T12:12:02.000Z</time>
      </trkpt>
      <trkpt lat="43.52226" lon="5.31677">
        <ele>221.31596</ele>
        <time>2023-03-15T12:12:04.000Z</time>
      </trkpt>
      <trkpt lat="43.52224" lon="5.31676">
        <ele>221.5824</ele>
        <time>2023-03-15T12:12:06.000Z</time>
      </trkpt>
      <trkpt lat="43.52222" lon="5.31676">
        <ele>221.85617</ele>
        <time>2023-03-15T12:12:08.000Z</time>
      </trkpt>
      <trkpt lat="43.5222" lon="5.31676">
        <ele>222.17624</ele>
        <time>2023-03-15T12:12:10.000Z</time>
      </trkpt>
      <trkpt lat="43.52218" lon="5.31676">
        <ele>222.47604</ele>
        <time>2023-03-15T12:12:12.000Z</time>
      </trkpt>
      <trkpt lat="43.52216" lon="5.31676">
        <ele>222.77705</ele>
        <time>2023-03-15T12:12:14.000Z</time>
      </trkpt>
      <trkpt lat="43.52214" lon="5.31676">
        <ele>223.04427</ele>
        <time>2023-03-15T12:12:16.000Z</time>
      </trkpt>
      <trkpt lat="43.52211" lon="5.31676">
        <ele>223.30344</ele>
        <time>2023-03-15T12:12:19.000Z</time>
      </trkpt>
      <trkpt lat="43.5221" lon="5.31676">
        <ele>223.45747</ele>
        <time>2023-03-15T12:12:21.000Z</time>
      </trkpt>
      <trkpt lat="43.52208" lon="5.31676">
        <ele>223.61748</ele>
        <time>2023-03-15T12:12:23.000Z</time>
      </trkpt>
      <trkpt lat="43.52206" lon="5.31677">
        <ele>223.7552</ele>
        <time>2023-03-15T12:12:25.000Z</time>
      </trkpt>
      <trkpt lat="43.52204" lon="5.31677">
        <ele>223.87141</ele>
        <time>2023-03-15T12:12:27.000Z</time>
      </trkpt>
      <trkpt lat="43.52202" lon="5.31678">
        <ele>223.99809</ele>
        <time>2023-03-15T12:12:29.000Z</time>
      </trkpt>
      <trkpt lat="43.522" lon="5.31678">
        <ele>224.08878</ele>
        <time>2023-03-15T12:12:31.000Z</time>
      </trkpt>
      <trkpt lat="43.52197" lon="5.31678">
        <ele>224.19792</ele>
        <time>2023-03-15T12:12:34.000Z</time>
      </trkpt>
      <trkpt lat="43.52195" lon="5.31679">
        <ele>224.31982</ele>
        <time>2023-03-15T12:12:36.000Z</time>
      </trkpt>
      <trkpt lat="43.52193" lon="5.31679">
        <ele>224.42476</ele>
        <time>2023-03-15T12:12:38.000Z</time>
      </trkpt>
      <trkpt lat="43.52191" lon="5.3168">
        <ele>224.53003</ele>
        <time>2023-03-15T12:12:40.000Z</time>
      </trkpt>
      <trkpt lat="43.52189" lon="5.3168">
        <ele>224.61026</ele>
        <time>2023-03-15T12:12:42.000Z</time>
      </trkpt>
      <trkpt lat="43.52187" lon="5.3168">
        <ele>224.67561</ele>
        <time>2023-03-15T12:12:44.000Z</time>
      </trkpt>
      <trkpt lat="43.52185" lon="5.31681">
        <ele>224.70732</ele>
        <time>2023-03-15T12:12:46.000Z</time>
      </trkpt>
      <trkpt lat="43.52183" lon="5.31681">
        <ele>224.698</ele>
        <time>2023-03-15T12:12:48.000Z</time>
      </trkpt>
      <trkpt lat="43.52181" lon="5.31682">
        <ele>224.68015</ele>
        <time>2023-03-15T12:12:50.000Z</time>
      </trkpt>
      <trkpt lat="43.52178" lon="5.31682">
        <ele>224.60088</ele>
        <time>2023-03-15T12:12:52.000Z</time>
      </trkpt>
      <trkpt lat="43.52176" lon="5.31683">
        <ele>224.47871</ele>
        <time>2023-03-15T12:12:54.000Z</time>
      </trkpt>
      <trkpt lat="43.52174" lon="5.31683">
        <ele>224.34038</ele>
        <time>2023-03-15T12:12:56.000Z</time>
      </trkpt>
      <trkpt lat="43.52172" lon="5.31684">
        <ele>224.23917</ele>
        <time>2023-03-15T12:12:58.000Z</time>
      </trkpt>
      <trkpt lat="43.5217" lon="5.31684">
        <ele>224.1254</ele>
        <time>2023-03-15T12:13:00.000Z</time>
      </trkpt>
      <trkpt lat="43.52168" lon="5.31684">
        <ele>224.03528</ele>
        <time>2023-03-15T12:13:02.000Z</time>
      </trkpt>
      <trkpt lat="43.52166" lon="5.31685">
        <ele>223.9248</ele>
        <time>2023-03-15T12:13:04.000Z</time>
      </trkpt>
      <trkpt lat="43.52164" lon="5.31685">
        <ele>223.79385</ele>
        <time>2023-03-15T12:13:06.000Z</time>
      </trkpt>
      <trkpt lat="43.52162" lon="5.31685">
        <ele>223.65019</ele>
        <time>2023-03-15T12:13:08.000Z</time>
      </trkpt>
      <trkpt lat="43.5216" lon="5.31684">
        <ele>223.54984</ele>
        <time>2023-03-15T12:13:10.000Z</time>
      </trkpt>
      <trkpt lat="43.52158" lon="5.31684">
        <ele>223.47574</ele>
        <time>2023-03-15T12:13:12.000Z</time>
      </trkpt>
      <trkpt lat="43.52156" lon="5.31683">
        <ele>223.38596</ele>
        <time>2023-03-15T12:13:14.000Z</time>
      </trkpt>
      <trkpt lat="43.52155" lon="5.31681">
        <ele>223.30591</ele>
        <time>2023-03-15T12:13:16.000Z</time>
      </trkpt>
      <trkpt lat="43.52153" lon="5.31679">
        <ele>223.20316</ele>
        <time>2023-03-15T12:13:18.000Z</time>
      </trkpt>
      <trkpt lat="43.52151" lon="5.31677">
        <ele>223.14905</ele>
        <time>2023-03-15T12:13:20.000Z</time>
      </trkpt>
      <trkpt lat="43.5215" lon="5.31675">
        <ele>223.13577</ele>
        <time>2023-03-15T12:13:22.000Z</time>
      </trkpt>
      <trkpt lat="43.52149" lon="5.31673">
        <ele>223.10132</ele>
        <time>2023-03-15T12:13:24.000Z</time>
      </trkpt>
      <trkpt lat="43.52148" lon="5.3167">
        <ele>223.0621</ele>
        <time>2023-03-15T12:13:26.000Z</time>
      </trkpt>
      <trkpt lat="43.52147" lon="5.31667">
        <ele>223.05759</ele>
        <time>2023-03-15T12:13:28.000Z</time>
      </trkpt>
      <trkpt lat="43.52146" lon="5.31665">
        <ele>223.00244</ele>
        <time>2023-03-15T12:13:30.000Z</time>
      </trkpt>
      <trkpt lat="43.52146" lon="5.31662">
        <ele>222.9592</ele>
        <time>2023-03-15T12:13:32.000Z</time>
      </trkpt>
      <trkpt lat="43.52145" lon="5.31659">
        <ele>222.94284</ele>
        <time>2023-03-15T12:13:34.000Z</time>
      </trkpt>
      <trkpt lat="43.52145" lon="5.31656">
        <ele>222.98711</ele>
        <time>2023-03-15T12:13:36.000Z</time>
      </trkpt>
      <trkpt lat="43.52144" lon="5.31654">
        <ele>222.9834</ele>
        <time>2023-03-15T12:13:38.000Z</time>
      </trkpt>
      <trkpt lat="43.52143" lon="5.31651">
        <ele>222.99258</ele>
        <time>2023-03-15T12:13:40.000Z</time>
      </trkpt>
      <trkpt lat="43.52142" lon="5.31648">
        <ele>223.01694</ele>
        <time>2023-03-15T12:13:42.000Z</time>
      </trkpt>
      <trkpt lat="43.52142" lon="5.31646">
        <ele>223.08711</ele>
        <time>2023-03-15T12:13:44.000Z</time>
      </trkpt>
      <trkpt lat="43.52141" lon="5.31643">
        <ele>223.16557</ele>
        <time>2023-03-15T12:13:46.000Z</time>
      </trkpt>
      <trkpt lat="43.52141" lon="5.3164">
        <ele>223.2543</ele>
        <time>2023-03-15T12:13:48.000Z</time>
      </trkpt>
      <trkpt lat="43.5214" lon="5.31637">
        <ele>223.34863</ele>
        <time>2023-03-15T12:13:50.000Z</time>
      </trkpt>
      <trkpt lat="43.5214" lon="5.31634">
        <ele>223.41484</ele>
        <time>2023-03-15T12:13:52.000Z</time>
      </trkpt>
      <trkpt lat="43.5214" lon="5.31631">
        <ele>223.51865</ele>
        <time>2023-03-15T12:13:54.000Z</time>
      </trkpt>
      <trkpt lat="43.52139" lon="5.31628">
        <ele>223.63916</ele>
        <time>2023-03-15T12:13:56.000Z</time>
      </trkpt>
      <trkpt lat="43.5214" lon="5.31625">
        <ele>223.80025</ele>
        <time>2023-03-15T12:13:58.000Z</time>
      </trkpt>
      <trkpt lat="43.5214" lon="5.31622">
        <ele>223.89865</ele>
        <time>2023-03-15T12:14:00.000Z</time>
      </trkpt>
      <trkpt lat="43.52141" lon="5.31619">
        <ele>223.98257</ele>
        <time>2023-03-15T12:14:02.000Z</time>
      </trkpt>
      <trkpt lat="43.52143" lon="5.31616">
        <ele>224.00786</ele>
        <time>2023-03-15T12:14:04.000Z</time>
      </trkpt>
      <trkpt lat="43.52144" lon="5.31613">
        <ele>224.05193</ele>
        <time>2023-03-15T12:14:06.000Z</time>
      </trkpt>
      <trkpt lat="43.52145" lon="5.31611">
        <ele>224.06567</ele>
        <time>2023-03-15T12:14:08.000Z</time>
      </trkpt>
      <trkpt lat="43.52146" lon="5.31609">
        <ele>224.09158</ele>
        <time>2023-03-15T12:14:10.000Z</time>
      </trkpt>
      <trkpt lat="43.52147" lon="5.31607">
        <ele>224.08191</ele>
        <time>2023-03-15T12:14:12.000Z</time>
      </trkpt>
      <trkpt lat="43.52148" lon="5.31604">
        <ele>224.05493</ele>
        <time>2023-03-15T12:14:14.000Z</time>
      </trkpt>
      <trkpt lat="43.52149" lon="5.31601">
        <ele>223.92937</ele>
        <time>2023-03-15T12:14:16.000Z</time>
      </trkpt>
      <trkpt lat="43.5215" lon="5.31598">
        <ele>223.84464</ele>
        <time>2023-03-15T12:14:18.000Z</time>
      </trkpt>
      <trkpt lat="43.5215" lon="5.31595">
        <ele>223.72156</ele>
        <time>2023-03-15T12:14:20.000Z</time>
      </trkpt>
      <trkpt lat="43.5215" lon="5.31592">
        <ele>223.6586</ele>
        <time>2023-03-15T12:14:22.000Z</time>
      </trkpt>
      <trkpt lat="43.52149" lon="5.31588">
        <ele>223.56245</ele>
        <time>2023-03-15T12:14:24.000Z</time>
      </trkpt>
      <trkpt lat="43.52149" lon="5.31585">
        <ele>223.57349</ele>
        <time>2023-03-15T12:14:26.000Z</time>
      </trkpt>
      <trkpt lat="43.52148" lon="5.31582">
        <ele>223.59067</ele>
        <time>2023-03-15T12:14:28.000Z</time>
      </trkpt>
      <trkpt lat="43.52147" lon="5.31579">
        <ele>223.57491</ele>
        <time>2023-03-15T12:14:30.000Z</time>
      </trkpt>
      <trkpt lat="43.52146" lon="5.31577">
        <ele>223.5643</ele>
        <time>2023-03-15T12:14:32.000Z</time>
      </trkpt>
      <trkpt lat="43.52145" lon="5.31574">
        <ele>223.47977</ele>
        <time>2023-03-15T12:14:34.000Z</time>
      </trkpt>
      <trkpt lat="43.52145" lon="5.31571">
        <ele>223.32915</ele>
        <time>2023-03-15T12:14:36.000Z</time>
      </trkpt>
      <trkpt lat="43.52143" lon="5.3157">
        <ele>223.13492</ele>
        <time>2023-03-15T12:14:38.000Z</time>
      </trkpt>
      <trkpt lat="43.52142" lon="5.31566">
        <ele>223.04956</ele>
        <time>2023-03-15T12:14:39.000Z</time>
      </trkpt>
      <trkpt lat="43.52144" lon="5.31564">
        <ele>222.90759</ele>
        <time>2023-03-15T12:14:50.000Z</time>
      </trkpt>
      <trkpt lat="43.52146" lon="5.31563">
        <ele>222.71655</ele>
        <time>2023-03-15T12:14:54.000Z</time>
      </trkpt>
      <trkpt lat="43.52147" lon="5.31561">
        <ele>222.50056</ele>
        <time>2023-03-15T12:14:58.000Z</time>
      </trkpt>
      <trkpt lat="43.52148" lon="5.31558">
        <ele>222.24582</ele>
        <time>2023-03-15T12:15:02.000Z</time>
      </trkpt>
      <trkpt lat="43.52148" lon="5.31556">
        <ele>222.05554</ele>
        <time>2023-03-15T12:15:05.000Z</time>
      </trkpt>
      <trkpt lat="43.52149" lon="5.31553">
        <ele>222.00407</ele>
        <time>2023-03-15T12:15:09.000Z</time>
      </trkpt>
      <trkpt lat="43.52148" lon="5.3155">
        <ele>221.96028</ele>
        <time>2023-03-15T12:15:12.000Z</time>
      </trkpt>
      <trkpt lat="43.52147" lon="5.31548">
        <ele>221.99919</ele>
        <time>2023-03-15T12:15:15.000Z</time>
      </trkpt>
      <trkpt lat="43.52147" lon="5.31545">
        <ele>222.09195</ele>
        <time>2023-03-15T12:15:18.000Z</time>
      </trkpt>
      <trkpt lat="43.52145" lon="5.31543">
        <ele>222.20959</ele>
        <time>2023-03-15T12:15:21.000Z</time>
      </trkpt>
      <trkpt lat="43.52143" lon="5.31541">
        <ele>222.24883</ele>
        <time>2023-03-15T12:15:24.000Z</time>
      </trkpt>
      <trkpt lat="43.52142" lon="5.31539">
        <ele>222.28653</ele>
        <time>2023-03-15T12:15:27.000Z</time>
      </trkpt>
      <trkpt lat="43.52139" lon="5.31537">
        <ele>222.26787</ele>
        <time>2023-03-15T12:15:30.000Z</time>
      </trkpt>
      <trkpt lat="43.52137" lon="5.31536">
        <ele>222.29814</ele>
        <time>2023-03-15T12:15:33.000Z</time>
      </trkpt>
      <trkpt lat="43.52135" lon="5.31535">
        <ele>222.34488</ele>
        <time>2023-03-15T12:15:36.000Z</time>
      </trkpt>
      <trkpt lat="43.52132" lon="5.31535">
        <ele>222.39011</ele>
        <time>2023-03-15T12:15:39.000Z</time>
      </trkpt>
      <trkpt lat="43.5213" lon="5.31535">
        <ele>222.59468</ele>
        <time>2023-03-15T12:15:42.000Z</time>
      </trkpt>
      <trkpt lat="43.52127" lon="5.31535">
        <ele>222.91133</ele>
        <time>2023-03-15T12:15:45.000Z</time>
      </trkpt>
      <trkpt lat="43.52125" lon="5.31534">
        <ele>223.24194</ele>
        <time>2023-03-15T12:15:48.000Z</time>
      </trkpt>
      <trkpt lat="43.52123" lon="5.31534">
        <ele>223.53059</ele>
        <time>2023-03-15T12:15:50.000Z</time>
      </trkpt>
      <trkpt lat="43.52121" lon="5.31533">
        <ele>223.90877</ele>
        <time>2023-03-15T12:15:52.000Z</time>
      </trkpt>
      <trkpt lat="43.52119" lon="5.31533">
        <ele>224.38638</ele>
        <time>2023-03-15T12:15:54.000Z</time>
      </trkpt>
      <trkpt lat="43.52116" lon="5.31531">
        <ele>224.93196</ele>
        <time>2023-03-15T12:15:57.000Z</time>
      </trkpt>
      <trkpt lat="43.52114" lon="5.3153">
        <ele>225.51196</ele>
        <time>2023-03-15T12:15:59.000Z</time>
      </trkpt>
      <trkpt lat="43.52113" lon="5.31528">
        <ele>226.05086</ele>
        <time>2023-03-15T12:16:01.000Z</time>
      </trkpt>
      <trkpt lat="43.52111" lon="5.31527">
        <ele>226.49068</ele>
        <time>2023-03-15T12:16:03.000Z</time>
      </trkpt>
      <trkpt lat="43.52109" lon="5.31525">
        <ele>226.9836</ele>
        <time>2023-03-15T12:16:06.000Z</time>
      </trkpt>
      <trkpt lat="43.52107" lon="5.31525">
        <ele>227.42014</ele>
        <time>2023-03-15T12:16:08.000Z</time>
      </trkpt>
      <trkpt lat="43.52104" lon="5.31525">
        <ele>227.78963</ele>
        <time>2023-03-15T12:16:10.000Z</time>
      </trkpt>
      <trkpt lat="43.52102" lon="5.31526">
        <ele>228.12625</ele>
        <time>2023-03-15T12:16:12.000Z</time>
      </trkpt>
      <trkpt lat="43.521" lon="5.31526">
        <ele>228.4592</ele>
        <time>2023-03-15T12:16:14.000Z</time>
      </trkpt>
      <trkpt lat="43.52098" lon="5.31525">
        <ele>228.79752</ele>
        <time>2023-03-15T12:16:16.000Z</time>
      </trkpt>
      <trkpt lat="43.52096" lon="5.31523">
        <ele>229.08183</ele>
        <time>2023-03-15T12:16:19.000Z</time>
      </trkpt>
      <trkpt lat="43.52093" lon="5.31523">
        <ele>229.32974</ele>
        <time>2023-03-15T12:16:22.000Z</time>
      </trkpt>
      <trkpt lat="43.52091" lon="5.31522">
        <ele>229.60152</ele>
        <time>2023-03-15T12:16:24.000Z</time>
      </trkpt>
      <trkpt lat="43.52089" lon="5.31519">
        <ele>229.89297</ele>
        <time>2023-03-15T12:16:27.000Z</time>
      </trkpt>
      <trkpt lat="43.52087" lon="5.31519">
        <ele>230.11569</ele>
        <time>2023-03-15T12:16:30.000Z</time>
      </trkpt>
      <trkpt lat="43.52085" lon="5.31518">
        <ele>230.25534</ele>
        <time>2023-03-15T12:16:32.000Z</time>
      </trkpt>
      <trkpt lat="43.52083" lon="5.31518">
        <ele>230.45625</ele>
        <time>2023-03-15T12:16:34.000Z</time>
      </trkpt>
      <trkpt lat="43.52081" lon="5.31517">
        <ele>230.63374</ele>
        <time>2023-03-15T12:16:36.000Z</time>
      </trkpt>
      <trkpt lat="43.52079" lon="5.31516">
        <ele>230.84619</ele>
        <time>2023-03-15T12:16:39.000Z</time>
      </trkpt>
      <trkpt lat="43.52076" lon="5.31516">
        <ele>231.07144</ele>
        <time>2023-03-15T12:16:42.000Z</time>
      </trkpt>
      <trkpt lat="43.52074" lon="5.31515">
        <ele>231.23447</ele>
        <time>2023-03-15T12:16:44.000Z</time>
      </trkpt>
      <trkpt lat="43.52072" lon="5.31514">
        <ele>231.41228</ele>
        <time>2023-03-15T12:16:47.000Z</time>
      </trkpt>
      <trkpt lat="43.5207" lon="5.31513">
        <ele>231.62564</ele>
        <time>2023-03-15T12:16:50.000Z</time>
      </trkpt>
      <trkpt lat="43.52068" lon="5.31512">
        <ele>231.88469</ele>
        <time>2023-03-15T12:16:53.000Z</time>
      </trkpt>
      <trkpt lat="43.52065" lon="5.31513">
        <ele>232.10852</ele>
        <time>2023-03-15T12:16:56.000Z</time>
      </trkpt>
      <trkpt lat="43.52063" lon="5.31513">
        <ele>232.3429</ele>
        <time>2023-03-15T12:16:59.000Z</time>
      </trkpt>
      <trkpt lat="43.52061" lon="5.31513">
        <ele>232.57071</ele>
        <time>2023-03-15T12:17:02.000Z</time>
      </trkpt>
      <trkpt lat="43.52059" lon="5.31512">
        <ele>232.84331</ele>
        <time>2023-03-15T12:17:05.000Z</time>
      </trkpt>
      <trkpt lat="43.52058" lon="5.31512">
        <ele>233.15169</ele>
        <time>2023-03-15T12:17:08.000Z</time>
      </trkpt>
      <trkpt lat="43.52055" lon="5.31512">
        <ele>233.46635</ele>
        <time>2023-03-15T12:17:11.000Z</time>
      </trkpt>
      <trkpt lat="43.52053" lon="5.31512">
        <ele>233.78958</ele>
        <time>2023-03-15T12:17:14.000Z</time>
      </trkpt>
      <trkpt lat="43.52052" lon="5.31511">
        <ele>234.1174</ele>
        <time>2023-03-15T12:17:26.000Z</time>
      </trkpt>
      <trkpt lat="43.52049" lon="5.31511">
        <ele>234.42737</ele>
        <time>2023-03-15T12:17:29.000Z</time>
      </trkpt>
      <trkpt lat="43.52048" lon="5.31512">
        <ele>234.67439</ele>
        <time>2023-03-15T12:17:32.000Z</time>
      </trkpt>
      <trkpt lat="43.52046" lon="5.31512">
        <ele>234.9086</ele>
        <time>2023-03-15T12:17:35.000Z</time>
      </trkpt>
      <trkpt lat="43.52044" lon="5.31512">
        <ele>235.20288</ele>
        <time>2023-03-15T12:17:38.000Z</time>
      </trkpt>
      <trkpt lat="43.52042" lon="5.31511">
        <ele>235.38867</ele>
        <time>2023-03-15T12:17:41.000Z</time>
      </trkpt>
      <trkpt lat="43.5204" lon="5.31509">
        <ele>235.58224</ele>
        <time>2023-03-15T12:17:44.000Z</time>
      </trkpt>
      <trkpt lat="43.52037" lon="5.31509">
        <ele>235.71533</ele>
        <time>2023-03-15T12:17:48.000Z</time>
      </trkpt>
      <trkpt lat="43.52035" lon="5.31509">
        <ele>235.86447</ele>
        <time>2023-03-15T12:17:50.000Z</time>
      </trkpt>
      <trkpt lat="43.52034" lon="5.31509">
        <ele>235.98384</ele>
        <time>2023-03-15T12:17:52.000Z</time>
      </trkpt>
      <trkpt lat="43.52032" lon="5.31509">
        <ele>236.1113</ele>
        <time>2023-03-15T12:17:54.000Z</time>
      </trkpt>
      <trkpt lat="43.52029" lon="5.31508">
        <ele>236.16138</ele>
        <time>2023-03-15T12:17:57.000Z</time>
      </trkpt>
      <trkpt lat="43.52027" lon="5.31508">
        <ele>236.19138</ele>
        <time>2023-03-15T12:18:01.000Z</time>
      </trkpt>
      <trkpt lat="43.52025" lon="5.31507">
        <ele>236.25955</ele>
        <time>2023-03-15T12:18:04.000Z</time>
      </trkpt>
      <trkpt lat="43.52023" lon="5.31507">
        <ele>236.36052</ele>
        <time>2023-03-15T12:18:07.000Z</time>
      </trkpt>
      <trkpt lat="43.52021" lon="5.31508">
        <ele>236.4366</ele>
        <time>2023-03-15T12:18:10.000Z</time>
      </trkpt>
      <trkpt lat="43.52019" lon="5.31506">
        <ele>236.43279</ele>
        <time>2023-03-15T12:18:13.000Z</time>
      </trkpt>
      <trkpt lat="43.52018" lon="5.31504">
        <ele>236.30652</ele>
        <time>2023-03-15T12:18:16.000Z</time>
      </trkpt>
      <trkpt lat="43.52018" lon="5.31502">
        <ele>236.19449</ele>
        <time>2023-03-15T12:18:19.000Z</time>
      </trkpt>
      <trkpt lat="43.52017" lon="5.31499">
        <ele>236.14563</ele>
        <time>2023-03-15T12:18:23.000Z</time>
      </trkpt>
      <trkpt lat="43.52017" lon="5.31496">
        <ele>236.15451</ele>
        <time>2023-03-15T12:18:27.000Z</time>
      </trkpt>
      <trkpt lat="43.52015" lon="5.31495">
        <ele>236.44231</ele>
        <time>2023-03-15T12:19:13.000Z</time>
      </trkpt>
      <trkpt lat="43.52017" lon="5.31496">
        <ele>236.74765</ele>
        <time>2023-03-15T12:22:35.000Z</time>
      </trkpt>
      <trkpt lat="43.52017" lon="5.31493">
        <ele>236.93181</ele>
        <time>2023-03-15T12:36:46.000Z</time>
      </trkpt>
      <trkpt lat="43.52019" lon="5.3149">
        <ele>237.08682</ele>
        <time>2023-03-15T12:36:49.000Z</time>
      </trkpt>
      <trkpt lat="43.52018" lon="5.31487">
        <ele>237.29085</ele>
        <time>2023-03-15T12:36:51.000Z</time>
      </trkpt>
      <trkpt lat="43.52017" lon="5.31484">
        <ele>237.49385</ele>
        <time>2023-03-15T12:36:53.000Z</time>
      </trkpt>
      <trkpt lat="43.52015" lon="5.31481">
        <ele>237.726</ele>
        <time>2023-03-15T12:36:55.000Z</time>
      </trkpt>
      <trkpt lat="43.52014" lon="5.31478">
        <ele>237.95361</ele>
        <time>2023-03-15T12:36:57.000Z</time>
      </trkpt>
      <trkpt lat="43.52012" lon="5.31477">
        <ele>238.22054</ele>
        <time>2023-03-15T12:36:59.000Z</time>
      </trkpt>
      <trkpt lat="43.5201" lon="5.31476">
        <ele>238.45236</ele>
        <time>2023-03-15T12:37:01.000Z</time>
      </trkpt>
      <trkpt lat="43.52008" lon="5.31475">
        <ele>238.73784</ele>
        <time>2023-03-15T12:37:03.000Z</time>
      </trkpt>
      <trkpt lat="43.52007" lon="5.31472">
        <ele>238.97522</ele>
        <time>2023-03-15T12:37:05.000Z</time>
      </trkpt>
      <trkpt lat="43.52005" lon="5.3147">
        <ele>239.16206</ele>
        <time>2023-03-15T12:37:07.000Z</time>
      </trkpt>
      <trkpt lat="43.52003" lon="5.31468">
        <ele>239.28989</ele>
        <time>2023-03-15T12:37:09.000Z</time>
      </trkpt>
      <trkpt lat="43.52002" lon="5.31466">
        <ele>239.45442</ele>
        <time>2023-03-15T12:37:11.000Z</time>
      </trkpt>
      <trkpt lat="43.52001" lon="5.31463">
        <ele>239.6718</ele>
        <time>2023-03-15T12:37:13.000Z</time>
      </trkpt>
      <trkpt lat="43.52" lon="5.3146">
        <ele>239.97481</ele>
        <time>2023-03-15T12:37:15.000Z</time>
      </trkpt>
      <trkpt lat="43.51999" lon="5.31458">
        <ele>240.25891</ele>
        <time>2023-03-15T12:37:17.000Z</time>
      </trkpt>
      <trkpt lat="43.51998" lon="5.31456">
        <ele>240.50525</ele>
        <time>2023-03-15T12:37:19.000Z</time>
      </trkpt>
      <trkpt lat="43.51995" lon="5.31455">
        <ele>240.68906</ele>
        <time>2023-03-15T12:37:22.000Z</time>
      </trkpt>
      <trkpt lat="43.51993" lon="5.31455">
        <ele>240.5966</ele>
        <time>2023-03-15T12:37:25.000Z</time>
      </trkpt>
      <trkpt lat="43.5199" lon="5.31455">
        <ele>240.55847</ele>
        <time>2023-03-15T12:37:27.000Z</time>
      </trkpt>
      <trkpt lat="43.51988" lon="5.31454">
        <ele>240.66866</ele>
        <time>2023-03-15T12:37:29.000Z</time>
      </trkpt>
      <trkpt lat="43.51986" lon="5.31454">
        <ele>240.77261</ele>
        <time>2023-03-15T12:37:31.000Z</time>
      </trkpt>
      <trkpt lat="43.51984" lon="5.31453">
        <ele>240.8743</ele>
        <time>2023-03-15T12:37:33.000Z</time>
      </trkpt>
      <trkpt lat="43.51982" lon="5.31453">
        <ele>240.98233</ele>
        <time>2023-03-15T12:37:35.000Z</time>
      </trkpt>
      <trkpt lat="43.51979" lon="5.31451">
        <ele>241.08244</ele>
        <time>2023-03-15T12:37:37.000Z</time>
      </trkpt>
      <trkpt lat="43.51977" lon="5.3145">
        <ele>241.15823</ele>
        <time>2023-03-15T12:37:39.000Z</time>
      </trkpt>
      <trkpt lat="43.51975" lon="5.3145">
        <ele>241.24329</ele>
        <time>2023-03-15T12:37:41.000Z</time>
      </trkpt>
      <trkpt lat="43.51973" lon="5.31449">
        <ele>241.34634</ele>
        <time>2023-03-15T12:37:43.000Z</time>
      </trkpt>
      <trkpt lat="43.51971" lon="5.31448">
        <ele>241.44734</ele>
        <time>2023-03-15T12:37:45.000Z</time>
      </trkpt>
      <trkpt lat="43.51969" lon="5.31447">
        <ele>241.54387</ele>
        <time>2023-03-15T12:37:47.000Z</time>
      </trkpt>
      <trkpt lat="43.51967" lon="5.31445">
        <ele>241.62151</ele>
        <time>2023-03-15T12:37:49.000Z</time>
      </trkpt>
      <trkpt lat="43.51966" lon="5.31442">
        <ele>241.7</ele>
        <time>2023-03-15T12:37:51.000Z</time>
      </trkpt>
      <trkpt lat="43.51966" lon="5.31439">
        <ele>241.78955</ele>
        <time>2023-03-15T12:37:53.000Z</time>
      </trkpt>
      <trkpt lat="43.51966" lon="5.31436">
        <ele>241.90994</ele>
        <time>2023-03-15T12:37:55.000Z</time>
      </trkpt>
      <trkpt lat="43.51967" lon="5.31434">
        <ele>242.03894</ele>
        <time>2023-03-15T12:37:57.000Z</time>
      </trkpt>
      <trkpt lat="43.51968" lon="5.3143">
        <ele>242.13008</ele>
        <time>2023-03-15T12:38:00.000Z</time>
      </trkpt>
      <trkpt lat="43.51968" lon="5.31428">
        <ele>242.19431</ele>
        <time>2023-03-15T12:38:02.000Z</time>
      </trkpt>
      <trkpt lat="43.51969" lon="5.31425">
        <ele>242.23128</ele>
        <time>2023-03-15T12:38:04.000Z</time>
      </trkpt>
      <trkpt lat="43.5197" lon="5.31422">
        <ele>242.28256</ele>
        <time>2023-03-15T12:38:06.000Z</time>
      </trkpt>
      <trkpt lat="43.51971" lon="5.31419">
        <ele>242.31894</ele>
        <time>2023-03-15T12:38:09.000Z</time>
      </trkpt>
      <trkpt lat="43.51969" lon="5.31421">
        <ele>242.31345</ele>
        <time>2023-03-15T12:38:22.000Z</time>
      </trkpt>
      <trkpt lat="43.51967" lon="5.31422">
        <ele>242.30905</ele>
        <time>2023-03-15T12:38:24.000Z</time>
      </trkpt>
      <trkpt lat="43.51965" lon="5.31424">
        <ele>242.30705</ele>
        <time>2023-03-15T12:38:26.000Z</time>
      </trkpt>
      <trkpt lat="43.51963" lon="5.31426">
        <ele>242.27734</ele>
        <time>2023-03-15T12:38:28.000Z</time>
      </trkpt>
      <trkpt lat="43.51961" lon="5.31427">
        <ele>242.23935</ele>
        <time>2023-03-15T12:38:30.000Z</time>
      </trkpt>
      <trkpt lat="43.5196" lon="5.31429">
        <ele>242.20503</ele>
        <time>2023-03-15T12:38:32.000Z</time>
      </trkpt>
      <trkpt lat="43.51958" lon="5.31431">
        <ele>242.19058</ele>
        <time>2023-03-15T12:38:34.000Z</time>
      </trkpt>
      <trkpt lat="43.51956" lon="5.31433">
        <ele>242.17549</ele>
        <time>2023-03-15T12:38:36.000Z</time>
      </trkpt>
      <trkpt lat="43.51954" lon="5.31435">
        <ele>242.15923</ele>
        <time>2023-03-15T12:38:38.000Z</time>
      </trkpt>
      <trkpt lat="43.51952" lon="5.31436">
        <ele>242.17818</ele>
        <time>2023-03-15T12:38:41.000Z</time>
      </trkpt>
      <trkpt lat="43.5195" lon="5.31436">
        <ele>242.2562</ele>
        <time>2023-03-15T12:38:43.000Z</time>
      </trkpt>
      <trkpt lat="43.51948" lon="5.31437">
        <ele>242.40585</ele>
        <time>2023-03-15T12:38:45.000Z</time>
      </trkpt>
      <trkpt lat="43.51946" lon="5.31438">
        <ele>242.55893</ele>
        <time>2023-03-15T12:38:47.000Z</time>
      </trkpt>
      <trkpt lat="43.51944" lon="5.31439">
        <ele>242.7061</ele>
        <time>2023-03-15T12:38:49.000Z</time>
      </trkpt>
      <trkpt lat="43.51941" lon="5.3144">
        <ele>242.85092</ele>
        <time>2023-03-15T12:38:52.000Z</time>
      </trkpt>
      <trkpt lat="43.5194" lon="5.31441">
        <ele>243.02539</ele>
        <time>2023-03-15T12:38:54.000Z</time>
      </trkpt>
      <trkpt lat="43.51938" lon="5.31441">
        <ele>243.21207</ele>
        <time>2023-03-15T12:38:56.000Z</time>
      </trkpt>
      <trkpt lat="43.51936" lon="5.31441">
        <ele>243.3936</ele>
        <time>2023-03-15T12:38:58.000Z</time>
      </trkpt>
      <trkpt lat="43.51933" lon="5.31442">
        <ele>243.52158</ele>
        <time>2023-03-15T12:39:01.000Z</time>
      </trkpt>
      <trkpt lat="43.51931" lon="5.31441">
        <ele>243.57919</ele>
        <time>2023-03-15T12:39:03.000Z</time>
      </trkpt>
      <trkpt lat="43.5193" lon="5.31441">
        <ele>243.66724</ele>
        <time>2023-03-15T12:39:05.000Z</time>
      </trkpt>
      <trkpt lat="43.51928" lon="5.3144">
        <ele>243.69942</ele>
        <time>2023-03-15T12:39:07.000Z</time>
      </trkpt>
      <trkpt lat="43.51926" lon="5.3144">
        <ele>243.75314</ele>
        <time>2023-03-15T12:39:09.000Z</time>
      </trkpt>
      <trkpt lat="43.51924" lon="5.3144">
        <ele>243.80637</ele>
        <time>2023-03-15T12:39:11.000Z</time>
      </trkpt>
      <trkpt lat="43.51922" lon="5.31438">
        <ele>243.8959</ele>
        <time>2023-03-15T12:39:14.000Z</time>
      </trkpt>
      <trkpt lat="43.5192" lon="5.31437">
        <ele>243.98941</ele>
        <time>2023-03-15T12:39:16.000Z</time>
      </trkpt>
      <trkpt lat="43.51918" lon="5.31436">
        <ele>244.08951</ele>
        <time>2023-03-15T12:39:18.000Z</time>
      </trkpt>
      <trkpt lat="43.51916" lon="5.31434">
        <ele>244.19377</ele>
        <time>2023-03-15T12:39:20.000Z</time>
      </trkpt>
      <trkpt lat="43.51915" lon="5.31433">
        <ele>244.30933</ele>
        <time>2023-03-15T12:39:22.000Z</time>
      </trkpt>
      <trkpt lat="43.51913" lon="5.31431">
        <ele>244.38925</ele>
        <time>2023-03-15T12:39:25.000Z</time>
      </trkpt>
      <trkpt lat="43.51911" lon="5.3143">
        <ele>244.42062</ele>
        <time>2023-03-15T12:39:28.000Z</time>
      </trkpt>
      <trkpt lat="43.51909" lon="5.31428">
        <ele>244.30342</ele>
        <time>2023-03-15T12:39:31.000Z</time>
      </trkpt>
      <trkpt lat="43.51908" lon="5.31425">
        <ele>244.18604</ele>
        <time>2023-03-15T12:39:34.000Z</time>
      </trkpt>
      <trkpt lat="43.51906" lon="5.31423">
        <ele>244.06389</ele>
        <time>2023-03-15T12:39:37.000Z</time>
      </trkpt>
      <trkpt lat="43.51904" lon="5.3142">
        <ele>243.94682</ele>
        <time>2023-03-15T12:39:40.000Z</time>
      </trkpt>
      <trkpt lat="43.51903" lon="5.31418">
        <ele>243.78316</ele>
        <time>2023-03-15T12:39:43.000Z</time>
      </trkpt>
      <trkpt lat="43.51902" lon="5.31414">
        <ele>243.59915</ele>
        <time>2023-03-15T12:39:46.000Z</time>
      </trkpt>
      <trkpt lat="43.51901" lon="5.31411">
        <ele>243.39632</ele>
        <time>2023-03-15T12:39:49.000Z</time>
      </trkpt>
      <trkpt lat="43.519" lon="5.31409">
        <ele>243.21455</ele>
        <time>2023-03-15T12:39:51.000Z</time>
      </trkpt>
      <trkpt lat="43.51899" lon="5.31407">
        <ele>243.06306</ele>
        <time>2023-03-15T12:39:53.000Z</time>
      </trkpt>
      <trkpt lat="43.51897" lon="5.31406">
        <ele>242.79683</ele>
        <time>2023-03-15T12:39:56.000Z</time>
      </trkpt>
      <trkpt lat="43.51895" lon="5.31404">
        <ele>242.57719</ele>
        <time>2023-03-15T12:39:59.000Z</time>
      </trkpt>
      <trkpt lat="43.51894" lon="5.31402">
        <ele>242.35938</ele>
        <time>2023-03-15T12:40:02.000Z</time>
      </trkpt>
      <trkpt lat="43.51892" lon="5.31401">
        <ele>242.25098</ele>
        <time>2023-03-15T12:40:07.000Z</time>
      </trkpt>
      <trkpt lat="43.51892" lon="5.31403">
        <ele>242.13342</ele>
        <time>2023-03-15T12:40:17.000Z</time>
      </trkpt>
      <trkpt lat="43.51891" lon="5.31406">
        <ele>242.00537</ele>
        <time>2023-03-15T12:40:20.000Z</time>
      </trkpt>
      <trkpt lat="43.51889" lon="5.31409">
        <ele>241.85825</ele>
        <time>2023-03-15T12:40:23.000Z</time>
      </trkpt>
      <trkpt lat="43.51889" lon="5.31412">
        <ele>241.68857</ele>
        <time>2023-03-15T12:40:26.000Z</time>
      </trkpt>
      <trkpt lat="43.51888" lon="5.31414">
        <ele>241.46494</ele>
        <time>2023-03-15T12:40:29.000Z</time>
      </trkpt>
      <trkpt lat="43.51887" lon="5.31416">
        <ele>241.18306</ele>
        <time>2023-03-15T12:40:33.000Z</time>
      </trkpt>
      <trkpt lat="43.51886" lon="5.31419">
        <ele>240.90108</ele>
        <time>2023-03-15T12:40:37.000Z</time>
      </trkpt>
      <trkpt lat="43.51885" lon="5.31421">
        <ele>240.71164</ele>
        <time>2023-03-15T12:40:52.000Z</time>
      </trkpt>
      <trkpt lat="43.51883" lon="5.31422">
        <ele>240.45297</ele>
        <time>2023-03-15T12:40:57.000Z</time>
      </trkpt>
      <trkpt lat="43.51885" lon="5.31424">
        <ele>240.11665</ele>
        <time>2023-03-15T12:42:19.000Z</time>
      </trkpt>
      <trkpt lat="43.51887" lon="5.31422">
        <ele>239.75191</ele>
        <time>2023-03-15T12:42:22.000Z</time>
      </trkpt>
      <trkpt lat="43.51888" lon="5.31419">
        <ele>239.3658</ele>
        <time>2023-03-15T12:42:25.000Z</time>
      </trkpt>
      <trkpt lat="43.51889" lon="5.31417">
        <ele>238.98096</ele>
        <time>2023-03-15T12:42:27.000Z</time>
      </trkpt>
      <trkpt lat="43.5189" lon="5.31414">
        <ele>238.62524</ele>
        <time>2023-03-15T12:42:29.000Z</time>
      </trkpt>
      <trkpt lat="43.5189" lon="5.31412">
        <ele>238.25667</ele>
        <time>2023-03-15T12:42:31.000Z</time>
      </trkpt>
      <trkpt lat="43.51892" lon="5.31409">
        <ele>237.93771</ele>
        <time>2023-03-15T12:42:43.000Z</time>
      </trkpt>
      <trkpt lat="43.51893" lon="5.31406">
        <ele>237.74863</ele>
        <time>2023-03-15T12:42:46.000Z</time>
      </trkpt>
      <trkpt lat="43.51894" lon="5.31404">
        <ele>237.56363</ele>
        <time>2023-03-15T12:42:48.000Z</time>
      </trkpt>
      <trkpt lat="43.51894" lon="5.31401">
        <ele>237.39584</ele>
        <time>2023-03-15T12:42:51.000Z</time>
      </trkpt>
      <trkpt lat="43.51892" lon="5.31399">
        <ele>237.11343</ele>
        <time>2023-03-15T12:42:53.000Z</time>
      </trkpt>
      <trkpt lat="43.51891" lon="5.31398">
        <ele>236.79829</ele>
        <time>2023-03-15T12:42:55.000Z</time>
      </trkpt>
      <trkpt lat="43.51888" lon="5.31396">
        <ele>236.50418</ele>
        <time>2023-03-15T12:42:57.000Z</time>
      </trkpt>
      <trkpt lat="43.51886" lon="5.31395">
        <ele>236.23384</ele>
        <time>2023-03-15T12:42:59.000Z</time>
      </trkpt>
      <trkpt lat="43.51884" lon="5.31393">
        <ele>235.98618</ele>
        <time>2023-03-15T12:43:02.000Z</time>
      </trkpt>
      <trkpt lat="43.51883" lon="5.31391">
        <ele>235.7664</ele>
        <time>2023-03-15T12:43:04.000Z</time>
      </trkpt>
      <trkpt lat="43.51881" lon="5.31389">
        <ele>235.64323</ele>
        <time>2023-03-15T12:43:07.000Z</time>
      </trkpt>
      <trkpt lat="43.51879" lon="5.31387">
        <ele>235.57986</ele>
        <time>2023-03-15T12:43:09.000Z</time>
      </trkpt>
      <trkpt lat="43.51877" lon="5.31384">
        <ele>235.53479</ele>
        <time>2023-03-15T12:43:12.000Z</time>
      </trkpt>
      <trkpt lat="43.51876" lon="5.31382">
        <ele>235.56418</ele>
        <time>2023-03-15T12:43:15.000Z</time>
      </trkpt>
      <trkpt lat="43.51874" lon="5.3138">
        <ele>235.64108</ele>
        <time>2023-03-15T12:43:18.000Z</time>
      </trkpt>
      <trkpt lat="43.51872" lon="5.31378">
        <ele>235.77048</ele>
        <time>2023-03-15T12:43:21.000Z</time>
      </trkpt>
      <trkpt lat="43.5187" lon="5.31376">
        <ele>235.94209</ele>
        <time>2023-03-15T12:43:24.000Z</time>
      </trkpt>
      <trkpt lat="43.51869" lon="5.31374">
        <ele>236.11557</ele>
        <time>2023-03-15T12:43:26.000Z</time>
      </trkpt>
      <trkpt lat="43.51867" lon="5.31372">
        <ele>236.2616</ele>
        <time>2023-03-15T12:43:28.000Z</time>
      </trkpt>
      <trkpt lat="43.51866" lon="5.3137">
        <ele>236.42529</ele>
        <time>2023-03-15T12:43:30.000Z</time>
      </trkpt>
      <trkpt lat="43.51864" lon="5.31368">
        <ele>236.53838</ele>
        <time>2023-03-15T12:43:33.000Z</time>
      </trkpt>
      <trkpt lat="43.51863" lon="5.31366">
        <ele>236.63948</ele>
        <time>2023-03-15T12:43:35.000Z</time>
      </trkpt>
      <trkpt lat="43.51861" lon="5.31364">
        <ele>236.7039</ele>
        <time>2023-03-15T12:43:37.000Z</time>
      </trkpt>
      <trkpt lat="43.5186" lon="5.31362">
        <ele>236.66061</ele>
        <time>2023-03-15T12:43:40.000Z</time>
      </trkpt>
      <trkpt lat="43.5186" lon="5.31358">
        <ele>236.64021</ele>
        <time>2023-03-15T12:43:48.000Z</time>
      </trkpt>
      <trkpt lat="43.5186" lon="5.31356">
        <ele>236.63821</ele>
        <time>2023-03-15T12:43:51.000Z</time>
      </trkpt>
      <trkpt lat="43.51859" lon="5.31353">
        <ele>236.66679</ele>
        <time>2023-03-15T12:43:54.000Z</time>
      </trkpt>
      <trkpt lat="43.51855" lon="5.3135">
        <ele>236.67093</ele>
        <time>2023-03-15T12:44:02.000Z</time>
      </trkpt>
      <trkpt lat="43.51854" lon="5.31348">
        <ele>236.69937</ele>
        <time>2023-03-15T12:44:04.000Z</time>
      </trkpt>
      <trkpt lat="43.51852" lon="5.31346">
        <ele>236.68225</ele>
        <time>2023-03-15T12:44:07.000Z</time>
      </trkpt>
      <trkpt lat="43.5185" lon="5.31344">
        <ele>236.58781</ele>
        <time>2023-03-15T12:44:10.000Z</time>
      </trkpt>
      <trkpt lat="43.51849" lon="5.31341">
        <ele>236.39737</ele>
        <time>2023-03-15T12:44:14.000Z</time>
      </trkpt>
      <trkpt lat="43.5185" lon="5.31338">
        <ele>236.20699</ele>
        <time>2023-03-15T12:44:16.000Z</time>
      </trkpt>
      <trkpt lat="43.51849" lon="5.31334">
        <ele>236.02487</ele>
        <time>2023-03-15T12:44:19.000Z</time>
      </trkpt>
      <trkpt lat="43.51849" lon="5.31332">
        <ele>235.85291</ele>
        <time>2023-03-15T12:44:22.000Z</time>
      </trkpt>
      <trkpt lat="43.51849" lon="5.31328">
        <ele>235.69418</ele>
        <time>2023-03-15T12:44:25.000Z</time>
      </trkpt>
      <trkpt lat="43.5185" lon="5.31326">
        <ele>235.61343</ele>
        <time>2023-03-15T12:44:51.000Z</time>
      </trkpt>
      <trkpt lat="43.51852" lon="5.31323">
        <ele>235.51721</ele>
        <time>2023-03-15T12:44:58.000Z</time>
      </trkpt>
      <trkpt lat="43.51852" lon="5.3132">
        <ele>235.38489</ele>
        <time>2023-03-15T12:45:13.000Z</time>
      </trkpt>
      <trkpt lat="43.51853" lon="5.31318">
        <ele>235.22009</ele>
        <time>2023-03-15T12:45:16.000Z</time>
      </trkpt>
      <trkpt lat="43.51855" lon="5.31316">
        <ele>235.05769</ele>
        <time>2023-03-15T12:45:19.000Z</time>
      </trkpt>
      <trkpt lat="43.51855" lon="5.31313">
        <ele>234.88474</ele>
        <time>2023-03-15T12:45:30.000Z</time>
      </trkpt>
      <trkpt lat="43.51857" lon="5.3131">
        <ele>234.76181</ele>
        <time>2023-03-15T12:45:33.000Z</time>
      </trkpt>
      <trkpt lat="43.51858" lon="5.31308">
        <ele>234.68596</ele>
        <time>2023-03-15T12:45:36.000Z</time>
      </trkpt>
      <trkpt lat="43.5186" lon="5.31305">
        <ele>234.61589</ele>
        <time>2023-03-15T12:45:38.000Z</time>
      </trkpt>
      <trkpt lat="43.51861" lon="5.31303">
        <ele>234.55478</ele>
        <time>2023-03-15T12:45:40.000Z</time>
      </trkpt>
      <trkpt lat="43.51862" lon="5.313">
        <ele>234.46298</ele>
        <time>2023-03-15T12:45:42.000Z</time>
      </trkpt>
      <trkpt lat="43.51862" lon="5.31298">
        <ele>234.35449</ele>
        <time>2023-03-15T12:45:44.000Z</time>
      </trkpt>
      <trkpt lat="43.51863" lon="5.31294">
        <ele>234.19858</ele>
        <time>2023-03-15T12:45:47.000Z</time>
      </trkpt>
      <trkpt lat="43.51862" lon="5.31292">
        <ele>234.08797</ele>
        <time>2023-03-15T12:45:49.000Z</time>
      </trkpt>
      <trkpt lat="43.5186" lon="5.31291">
        <ele>234.04861</ele>
        <time>2023-03-15T12:45:51.000Z</time>
      </trkpt>
      <trkpt lat="43.51859" lon="5.31288">
        <ele>234.11418</ele>
        <time>2023-03-15T12:45:54.000Z</time>
      </trkpt>
      <trkpt lat="43.51857" lon="5.31285">
        <ele>234.15681</ele>
        <time>2023-03-15T12:45:57.000Z</time>
      </trkpt>
      <trkpt lat="43.51856" lon="5.31283">
        <ele>234.17978</ele>
        <time>2023-03-15T12:46:00.000Z</time>
      </trkpt>
      <trkpt lat="43.51854" lon="5.31281">
        <ele>234.22812</ele>
        <time>2023-03-15T12:46:02.000Z</time>
      </trkpt>
      <trkpt lat="43.51853" lon="5.31279">
        <ele>234.22476</ele>
        <time>2023-03-15T12:46:04.000Z</time>
      </trkpt>
      <trkpt lat="43.51852" lon="5.31278">
        <ele>234.13045</ele>
        <time>2023-03-15T12:46:06.000Z</time>
      </trkpt>
      <trkpt lat="43.5185" lon="5.31275">
        <ele>234.05859</ele>
        <time>2023-03-15T12:46:09.000Z</time>
      </trkpt>
      <trkpt lat="43.5185" lon="5.31273">
        <ele>234.00493</ele>
        <time>2023-03-15T12:46:11.000Z</time>
      </trkpt>
      <trkpt lat="43.51851" lon="5.3127">
        <ele>234.10757</ele>
        <time>2023-03-15T12:46:21.000Z</time>
      </trkpt>
      <trkpt lat="43.51852" lon="5.31272">
        <ele>234.23193</ele>
        <time>2023-03-15T12:46:42.000Z</time>
      </trkpt>
      <trkpt lat="43.51852" lon="5.31275">
        <ele>234.36926</ele>
        <time>2023-03-15T12:47:44.000Z</time>
      </trkpt>
      <trkpt lat="43.51854" lon="5.31276">
        <ele>234.44157</ele>
        <time>2023-03-15T12:47:48.000Z</time>
      </trkpt>
      <trkpt lat="43.51852" lon="5.31278">
        <ele>234.55046</ele>
        <time>2023-03-15T12:47:55.000Z</time>
      </trkpt>
      <trkpt lat="43.51854" lon="5.31277">
        <ele>234.65825</ele>
        <time>2023-03-15T12:50:18.000Z</time>
      </trkpt>
      <trkpt lat="43.51853" lon="5.31275">
        <ele>234.76582</ele>
        <time>2023-03-15T12:50:33.000Z</time>
      </trkpt>
      <trkpt lat="43.51854" lon="5.31276">
        <ele>234.88333</ele>
        <time>2023-03-15T12:50:49.000Z</time>
      </trkpt>
      <trkpt lat="43.51855" lon="5.31279">
        <ele>235.00757</ele>
        <time>2023-03-15T12:54:04.000Z</time>
      </trkpt>
      <trkpt lat="43.51854" lon="5.31282">
        <ele>235.13095</ele>
        <time>2023-03-15T12:54:06.000Z</time>
      </trkpt>
      <trkpt lat="43.51853" lon="5.31285">
        <ele>235.24124</ele>
        <time>2023-03-15T12:54:09.000Z</time>
      </trkpt>
      <trkpt lat="43.51856" lon="5.31286">
        <ele>235.32719</ele>
        <time>2023-03-15T12:54:12.000Z</time>
      </trkpt>
      <trkpt lat="43.51858" lon="5.31287">
        <ele>235.35452</ele>
        <time>2023-03-15T12:54:15.000Z</time>
      </trkpt>
      <trkpt lat="43.5186" lon="5.31289">
        <ele>235.41235</ele>
        <time>2023-03-15T12:54:19.000Z</time>
      </trkpt>
      <trkpt lat="43.51862" lon="5.31291">
        <ele>235.44507</ele>
        <time>2023-03-15T12:54:22.000Z</time>
      </trkpt>
      <trkpt lat="43.51863" lon="5.31294">
        <ele>235.46448</ele>
        <time>2023-03-15T12:54:25.000Z</time>
      </trkpt>
      <trkpt lat="43.51865" lon="5.31296">
        <ele>235.54138</ele>
        <time>2023-03-15T12:54:28.000Z</time>
      </trkpt>
      <trkpt lat="43.51867" lon="5.31297">
        <ele>235.69113</ele>
        <time>2023-03-15T12:54:31.000Z</time>
      </trkpt>
      <trkpt lat="43.51868" lon="5.313">
        <ele>235.83208</ele>
        <time>2023-03-15T12:54:35.000Z</time>
      </trkpt>
      <trkpt lat="43.51869" lon="5.31302">
        <ele>235.99577</ele>
        <time>2023-03-15T12:54:38.000Z</time>
      </trkpt>
      <trkpt lat="43.51868" lon="5.31305">
        <ele>235.99597</ele>
        <time>2023-03-15T12:54:42.000Z</time>
      </trkpt>
      <trkpt lat="43.51867" lon="5.31308">
        <ele>236.00484</ele>
        <time>2023-03-15T12:54:48.000Z</time>
      </trkpt>
      <trkpt lat="43.51867" lon="5.3131">
        <ele>236.01797</ele>
        <time>2023-03-15T12:54:51.000Z</time>
      </trkpt>
      <trkpt lat="43.51867" lon="5.31313">
        <ele>236.12044</ele>
        <time>2023-03-15T12:54:53.000Z</time>
      </trkpt>
      <trkpt lat="43.51869" lon="5.31314">
        <ele>236.15799</ele>
        <time>2023-03-15T12:54:56.000Z</time>
      </trkpt>
      <trkpt lat="43.5187" lon="5.31316">
        <ele>236.15596</ele>
        <time>2023-03-15T12:54:58.000Z</time>
      </trkpt>
      <trkpt lat="43.51872" lon="5.31316">
        <ele>236.17215</ele>
        <time>2023-03-15T12:55:02.000Z</time>
      </trkpt>
      <trkpt lat="43.51875" lon="5.31317">
        <ele>236.11617</ele>
        <time>2023-03-15T12:55:14.000Z</time>
      </trkpt>
      <trkpt lat="43.51874" lon="5.3132">
        <ele>236.03342</ele>
        <time>2023-03-15T12:55:27.000Z</time>
      </trkpt>
      <trkpt lat="43.51874" lon="5.31323">
        <ele>235.95145</ele>
        <time>2023-03-15T12:55:30.000Z</time>
      </trkpt>
      <trkpt lat="43.51874" lon="5.31326">
        <ele>235.88379</ele>
        <time>2023-03-15T12:55:32.000Z</time>
      </trkpt>
      <trkpt lat="43.51874" lon="5.31329">
        <ele>235.80478</ele>
        <time>2023-03-15T12:55:34.000Z</time>
      </trkpt>
      <trkpt lat="43.51875" lon="5.31332">
        <ele>235.73392</ele>
        <time>2023-03-15T12:55:36.000Z</time>
      </trkpt>
      <trkpt lat="43.51876" lon="5.31334">
        <ele>235.67537</ele>
        <time>2023-03-15T12:55:39.000Z</time>
      </trkpt>
      <trkpt lat="43.51877" lon="5.31336">
        <ele>235.67314</ele>
        <time>2023-03-15T12:55:42.000Z</time>
      </trkpt>
      <trkpt lat="43.51879" lon="5.31338">
        <ele>235.67532</ele>
        <time>2023-03-15T12:55:44.000Z</time>
      </trkpt>
      <trkpt lat="43.51882" lon="5.31338">
        <ele>235.64261</ele>
        <time>2023-03-15T12:55:48.000Z</time>
      </trkpt>
      <trkpt lat="43.51884" lon="5.31339">
        <ele>235.5679</ele>
        <time>2023-03-15T12:55:50.000Z</time>
      </trkpt>
      <trkpt lat="43.51886" lon="5.3134">
        <ele>235.51729</ele>
        <time>2023-03-15T12:55:52.000Z</time>
      </trkpt>
      <trkpt lat="43.51888" lon="5.31341">
        <ele>235.46199</ele>
        <time>2023-03-15T12:55:54.000Z</time>
      </trkpt>
      <trkpt lat="43.5189" lon="5.31341">
        <ele>235.45052</ele>
        <time>2023-03-15T12:55:56.000Z</time>
      </trkpt>
      <trkpt lat="43.51893" lon="5.31342">
        <ele>235.39998</ele>
        <time>2023-03-15T12:55:58.000Z</time>
      </trkpt>
      <trkpt lat="43.51895" lon="5.31343">
        <ele>235.31013</ele>
        <time>2023-03-15T12:56:00.000Z</time>
      </trkpt>
      <trkpt lat="43.51897" lon="5.31343">
        <ele>235.18623</ele>
        <time>2023-03-15T12:56:02.000Z</time>
      </trkpt>
      <trkpt lat="43.51899" lon="5.31342">
        <ele>235.12053</ele>
        <time>2023-03-15T12:56:04.000Z</time>
      </trkpt>
      <trkpt lat="43.51901" lon="5.31342">
        <ele>235.08662</ele>
        <time>2023-03-15T12:56:06.000Z</time>
      </trkpt>
      <trkpt lat="43.51903" lon="5.31342">
        <ele>234.99548</ele>
        <time>2023-03-15T12:56:08.000Z</time>
      </trkpt>
      <trkpt lat="43.51905" lon="5.31341">
        <ele>234.92313</ele>
        <time>2023-03-15T12:56:10.000Z</time>
      </trkpt>
      <trkpt lat="43.51907" lon="5.31342">
        <ele>234.89526</ele>
        <time>2023-03-15T12:56:12.000Z</time>
      </trkpt>
      <trkpt lat="43.51909" lon="5.31342">
        <ele>234.88782</ele>
        <time>2023-03-15T12:56:14.000Z</time>
      </trkpt>
      <trkpt lat="43.51912" lon="5.31343">
        <ele>234.87854</ele>
        <time>2023-03-15T12:56:16.000Z</time>
      </trkpt>
      <trkpt lat="43.51914" lon="5.31343">
        <ele>234.89175</ele>
        <time>2023-03-15T12:56:18.000Z</time>
      </trkpt>
      <trkpt lat="43.51916" lon="5.31343">
        <ele>234.91682</ele>
        <time>2023-03-15T12:56:20.000Z</time>
      </trkpt>
      <trkpt lat="43.51918" lon="5.31344">
        <ele>234.91953</ele>
        <time>2023-03-15T12:56:22.000Z</time>
      </trkpt>
      <trkpt lat="43.5192" lon="5.31344">
        <ele>234.88745</ele>
        <time>2023-03-15T12:56:24.000Z</time>
      </trkpt>
      <trkpt lat="43.51922" lon="5.31345">
        <ele>234.84306</ele>
        <time>2023-03-15T12:56:26.000Z</time>
      </trkpt>
      <trkpt lat="43.51924" lon="5.31346">
        <ele>234.77991</ele>
        <time>2023-03-15T12:56:28.000Z</time>
      </trkpt>
      <trkpt lat="43.51927" lon="5.31347">
        <ele>234.70686</ele>
        <time>2023-03-15T12:56:30.000Z</time>
      </trkpt>
      <trkpt lat="43.51929" lon="5.31347">
        <ele>234.64096</ele>
        <time>2023-03-15T12:56:32.000Z</time>
      </trkpt>
      <trkpt lat="43.51931" lon="5.31348">
        <ele>234.58939</ele>
        <time>2023-03-15T12:56:34.000Z</time>
      </trkpt>
      <trkpt lat="43.51933" lon="5.31348">
        <ele>234.54045</ele>
        <time>2023-03-15T12:56:36.000Z</time>
      </trkpt>
      <trkpt lat="43.51935" lon="5.31349">
        <ele>234.5463</ele>
        <time>2023-03-15T12:56:38.000Z</time>
      </trkpt>
      <trkpt lat="43.51937" lon="5.3135">
        <ele>234.57718</ele>
        <time>2023-03-15T12:56:40.000Z</time>
      </trkpt>
      <trkpt lat="43.51939" lon="5.31351">
        <ele>234.58359</ele>
        <time>2023-03-15T12:56:42.000Z</time>
      </trkpt>
      <trkpt lat="43.51941" lon="5.31351">
        <ele>234.58305</ele>
        <time>2023-03-15T12:56:44.000Z</time>
      </trkpt>
      <trkpt lat="43.51943" lon="5.31352">
        <ele>234.56929</ele>
        <time>2023-03-15T12:56:46.000Z</time>
      </trkpt>
      <trkpt lat="43.51945" lon="5.31353">
        <ele>234.57971</ele>
        <time>2023-03-15T12:56:48.000Z</time>
      </trkpt>
      <trkpt lat="43.51947" lon="5.31354">
        <ele>234.60188</ele>
        <time>2023-03-15T12:56:50.000Z</time>
      </trkpt>
      <trkpt lat="43.5195" lon="5.31354">
        <ele>234.62936</ele>
        <time>2023-03-15T12:56:52.000Z</time>
      </trkpt>
      <trkpt lat="43.51952" lon="5.31355">
        <ele>234.651</ele>
        <time>2023-03-15T12:56:54.000Z</time>
      </trkpt>
      <trkpt lat="43.51955" lon="5.31355">
        <ele>234.67331</ele>
        <time>2023-03-15T12:56:57.000Z</time>
      </trkpt>
      <trkpt lat="43.51956" lon="5.31355">
        <ele>234.71944</ele>
        <time>2023-03-15T12:56:59.000Z</time>
      </trkpt>
      <trkpt lat="43.51959" lon="5.31357">
        <ele>234.80318</ele>
        <time>2023-03-15T12:57:02.000Z</time>
      </trkpt>
      <trkpt lat="43.51961" lon="5.31358">
        <ele>234.87024</ele>
        <time>2023-03-15T12:57:05.000Z</time>
      </trkpt>
      <trkpt lat="43.51964" lon="5.3136">
        <ele>234.92679</ele>
        <time>2023-03-15T12:57:08.000Z</time>
      </trkpt>
      <trkpt lat="43.51965" lon="5.31362">
        <ele>234.99263</ele>
        <time>2023-03-15T12:57:10.000Z</time>
      </trkpt>
      <trkpt lat="43.51967" lon="5.31364">
        <ele>235.07364</ele>
        <time>2023-03-15T12:57:12.000Z</time>
      </trkpt>
      <trkpt lat="43.51968" lon="5.31365">
        <ele>235.16687</ele>
        <time>2023-03-15T12:57:14.000Z</time>
      </trkpt>
      <trkpt lat="43.5197" lon="5.31367">
        <ele>235.26616</ele>
        <time>2023-03-15T12:57:16.000Z</time>
      </trkpt>
      <trkpt lat="43.51971" lon="5.31369">
        <ele>235.39905</ele>
        <time>2023-03-15T12:57:18.000Z</time>
      </trkpt>
      <trkpt lat="43.51973" lon="5.3137">
        <ele>235.51138</ele>
        <time>2023-03-15T12:57:20.000Z</time>
      </trkpt>
      <trkpt lat="43.51975" lon="5.31372">
        <ele>235.59131</ele>
        <time>2023-03-15T12:57:22.000Z</time>
      </trkpt>
      <trkpt lat="43.51977" lon="5.31373">
        <ele>235.64604</ele>
        <time>2023-03-15T12:57:24.000Z</time>
      </trkpt>
      <trkpt lat="43.51978" lon="5.31375">
        <ele>235.71956</ele>
        <time>2023-03-15T12:57:26.000Z</time>
      </trkpt>
      <trkpt lat="43.5198" lon="5.31376">
        <ele>235.8</ele>
        <time>2023-03-15T12:57:28.000Z</time>
      </trkpt>
      <trkpt lat="43.51982" lon="5.31378">
        <ele>235.90083</ele>
        <time>2023-03-15T12:57:30.000Z</time>
      </trkpt>
      <trkpt lat="43.51983" lon="5.3138">
        <ele>236.00935</ele>
        <time>2023-03-15T12:57:32.000Z</time>
      </trkpt>
      <trkpt lat="43.51985" lon="5.31381">
        <ele>236.15817</ele>
        <time>2023-03-15T12:57:35.000Z</time>
      </trkpt>
      <trkpt lat="43.51987" lon="5.31384">
        <ele>236.32834</ele>
        <time>2023-03-15T12:57:38.000Z</time>
      </trkpt>
      <trkpt lat="43.51988" lon="5.31386">
        <ele>236.50912</ele>
        <time>2023-03-15T12:57:40.000Z</time>
      </trkpt>
      <trkpt lat="43.51989" lon="5.31389">
        <ele>236.6606</ele>
        <time>2023-03-15T12:57:43.000Z</time>
      </trkpt>
      <trkpt lat="43.51991" lon="5.31391">
        <ele>236.78511</ele>
        <time>2023-03-15T12:57:46.000Z</time>
      </trkpt>
      <trkpt lat="43.51993" lon="5.31393">
        <ele>236.86108</ele>
        <time>2023-03-15T12:57:48.000Z</time>
      </trkpt>
      <trkpt lat="43.51995" lon="5.31395">
        <ele>236.94577</ele>
        <time>2023-03-15T12:57:50.000Z</time>
      </trkpt>
      <trkpt lat="43.51996" lon="5.31396">
        <ele>237.04276</ele>
        <time>2023-03-15T12:57:52.000Z</time>
      </trkpt>
      <trkpt lat="43.51998" lon="5.31397">
        <ele>237.13713</ele>
        <time>2023-03-15T12:57:54.000Z</time>
      </trkpt>
      <trkpt lat="43.52" lon="5.31399">
        <ele>237.25504</ele>
        <time>2023-03-15T12:57:57.000Z</time>
      </trkpt>
      <trkpt lat="43.52002" lon="5.314">
        <ele>237.38635</ele>
        <time>2023-03-15T12:57:59.000Z</time>
      </trkpt>
      <trkpt lat="43.52004" lon="5.314">
        <ele>237.45544</ele>
        <time>2023-03-15T12:58:01.000Z</time>
      </trkpt>
      <trkpt lat="43.52006" lon="5.31398">
        <ele>237.48555</ele>
        <time>2023-03-15T12:58:03.000Z</time>
      </trkpt>
      <trkpt lat="43.52008" lon="5.31397">
        <ele>237.53464</ele>
        <time>2023-03-15T12:58:05.000Z</time>
      </trkpt>
      <trkpt lat="43.5201" lon="5.31396">
        <ele>237.5842</ele>
        <time>2023-03-15T12:58:07.000Z</time>
      </trkpt>
      <trkpt lat="43.52012" lon="5.31393">
        <ele>237.63603</ele>
        <time>2023-03-15T12:58:10.000Z</time>
      </trkpt>
      <trkpt lat="43.52014" lon="5.31391">
        <ele>237.76294</ele>
        <time>2023-03-15T12:58:13.000Z</time>
      </trkpt>
      <trkpt lat="43.52015" lon="5.31387">
        <ele>237.79211</ele>
        <time>2023-03-15T12:58:16.000Z</time>
      </trkpt>
      <trkpt lat="43.52016" lon="5.31384">
        <ele>237.83743</ele>
        <time>2023-03-15T12:58:19.000Z</time>
      </trkpt>
      <trkpt lat="43.52017" lon="5.31382">
        <ele>237.85764</ele>
        <time>2023-03-15T12:58:21.000Z</time>
      </trkpt>
      <trkpt lat="43.52019" lon="5.3138">
        <ele>237.80237</ele>
        <time>2023-03-15T12:58:23.000Z</time>
      </trkpt>
      <trkpt lat="43.52021" lon="5.31378">
        <ele>237.72009</ele>
        <time>2023-03-15T12:58:25.000Z</time>
      </trkpt>
      <trkpt lat="43.52023" lon="5.31376">
        <ele>237.63107</ele>
        <time>2023-03-15T12:58:27.000Z</time>
      </trkpt>
      <trkpt lat="43.52025" lon="5.31375">
        <ele>237.56973</ele>
        <time>2023-03-15T12:58:29.000Z</time>
      </trkpt>
      <trkpt lat="43.52027" lon="5.31373">
        <ele>237.51677</ele>
        <time>2023-03-15T12:58:31.000Z</time>
      </trkpt>
      <trkpt lat="43.52029" lon="5.31372">
        <ele>237.43301</ele>
        <time>2023-03-15T12:58:33.000Z</time>
      </trkpt>
      <trkpt lat="43.52031" lon="5.31371">
        <ele>237.34402</ele>
        <time>2023-03-15T12:58:35.000Z</time>
      </trkpt>
      <trkpt lat="43.52033" lon="5.3137">
        <ele>237.24409</ele>
        <time>2023-03-15T12:58:37.000Z</time>
      </trkpt>
      <trkpt lat="43.52035" lon="5.31368">
        <ele>237.10489</ele>
        <time>2023-03-15T12:58:39.000Z</time>
      </trkpt>
      <trkpt lat="43.52037" lon="5.31368">
        <ele>236.93738</ele>
        <time>2023-03-15T12:58:41.000Z</time>
      </trkpt>
      <trkpt lat="43.52039" lon="5.31367">
        <ele>236.72832</ele>
        <time>2023-03-15T12:58:43.000Z</time>
      </trkpt>
      <trkpt lat="43.52041" lon="5.31366">
        <ele>236.54932</ele>
        <time>2023-03-15T12:58:45.000Z</time>
      </trkpt>
      <trkpt lat="43.52043" lon="5.31365">
        <ele>236.37622</ele>
        <time>2023-03-15T12:58:47.000Z</time>
      </trkpt>
      <trkpt lat="43.52045" lon="5.31365">
        <ele>236.17912</ele>
        <time>2023-03-15T12:58:49.000Z</time>
      </trkpt>
      <trkpt lat="43.52047" lon="5.31364">
        <ele>235.99316</ele>
        <time>2023-03-15T12:58:51.000Z</time>
      </trkpt>
      <trkpt lat="43.5205" lon="5.31364">
        <ele>235.84048</ele>
        <time>2023-03-15T12:58:53.000Z</time>
      </trkpt>
      <trkpt lat="43.52052" lon="5.31364">
        <ele>235.70992</ele>
        <time>2023-03-15T12:58:55.000Z</time>
      </trkpt>
      <trkpt lat="43.52053" lon="5.31364">
        <ele>235.71329</ele>
        <time>2023-03-15T12:58:57.000Z</time>
      </trkpt>
      <trkpt lat="43.52055" lon="5.31366">
        <ele>235.64473</ele>
        <time>2023-03-15T12:59:00.000Z</time>
      </trkpt>
      <trkpt lat="43.52056" lon="5.31364">
        <ele>235.62012</ele>
        <time>2023-03-15T12:59:57.000Z</time>
      </trkpt>
      <trkpt lat="43.52059" lon="5.31363">
        <ele>235.62656</ele>
        <time>2023-03-15T13:00:01.000Z</time>
      </trkpt>
      <trkpt lat="43.52061" lon="5.31364">
        <ele>235.63045</ele>
        <time>2023-03-15T13:00:03.000Z</time>
      </trkpt>
      <trkpt lat="43.52063" lon="5.31366">
        <ele>235.71001</ele>
        <time>2023-03-15T13:00:05.000Z</time>
      </trkpt>
      <trkpt lat="43.52064" lon="5.31365">
        <ele>235.76086</ele>
        <time>2023-03-15T13:00:07.000Z</time>
      </trkpt>
      <trkpt lat="43.52066" lon="5.31365">
        <ele>235.75766</ele>
        <time>2023-03-15T13:00:09.000Z</time>
      </trkpt>
      <trkpt lat="43.52068" lon="5.31365">
        <ele>235.80042</ele>
        <time>2023-03-15T13:00:11.000Z</time>
      </trkpt>
      <trkpt lat="43.5207" lon="5.31365">
        <ele>235.90459</ele>
        <time>2023-03-15T13:00:13.000Z</time>
      </trkpt>
      <trkpt lat="43.52072" lon="5.31365">
        <ele>236.02837</ele>
        <time>2023-03-15T13:00:15.000Z</time>
      </trkpt>
      <trkpt lat="43.52074" lon="5.31364">
        <ele>236.16216</ele>
        <time>2023-03-15T13:00:17.000Z</time>
      </trkpt>
      <trkpt lat="43.52077" lon="5.31364">
        <ele>236.27852</ele>
        <time>2023-03-15T13:00:20.000Z</time>
      </trkpt>
      <trkpt lat="43.52079" lon="5.31364">
        <ele>236.4539</ele>
        <time>2023-03-15T13:00:22.000Z</time>
      </trkpt>
      <trkpt lat="43.52081" lon="5.31365">
        <ele>236.67119</ele>
        <time>2023-03-15T13:00:24.000Z</time>
      </trkpt>
      <trkpt lat="43.52083" lon="5.31365">
        <ele>236.88412</ele>
        <time>2023-03-15T13:00:26.000Z</time>
      </trkpt>
      <trkpt lat="43.52085" lon="5.31365">
        <ele>237.1291</ele>
        <time>2023-03-15T13:00:28.000Z</time>
      </trkpt>
      <trkpt lat="43.52086" lon="5.31366">
        <ele>237.3811</ele>
        <time>2023-03-15T13:00:30.000Z</time>
      </trkpt>
      <trkpt lat="43.52088" lon="5.31366">
        <ele>237.60164</ele>
        <time>2023-03-15T13:00:32.000Z</time>
      </trkpt>
      <trkpt lat="43.5209" lon="5.31366">
        <ele>237.7325</ele>
        <time>2023-03-15T13:00:34.000Z</time>
      </trkpt>
      <trkpt lat="43.52092" lon="5.31367">
        <ele>237.80984</ele>
        <time>2023-03-15T13:00:36.000Z</time>
      </trkpt>
      <trkpt lat="43.52094" lon="5.31367">
        <ele>237.93205</ele>
        <time>2023-03-15T13:00:38.000Z</time>
      </trkpt>
      <trkpt lat="43.52096" lon="5.31367">
        <ele>238.00192</ele>
        <time>2023-03-15T13:00:40.000Z</time>
      </trkpt>
      <trkpt lat="43.52098" lon="5.31366">
        <ele>238.05673</ele>
        <time>2023-03-15T13:00:42.000Z</time>
      </trkpt>
      <trkpt lat="43.521" lon="5.31366">
        <ele>238.11638</ele>
        <time>2023-03-15T13:00:44.000Z</time>
      </trkpt>
      <trkpt lat="43.52103" lon="5.31366">
        <ele>238.11211</ele>
        <time>2023-03-15T13:00:47.000Z</time>
      </trkpt>
      <trkpt lat="43.52104" lon="5.31367">
        <ele>238.12296</ele>
        <time>2023-03-15T13:00:49.000Z</time>
      </trkpt>
      <trkpt lat="43.52106" lon="5.31368">
        <ele>238.14038</ele>
        <time>2023-03-15T13:00:51.000Z</time>
      </trkpt>
      <trkpt lat="43.52108" lon="5.31369">
        <ele>238.12764</ele>
        <time>2023-03-15T13:00:53.000Z</time>
      </trkpt>
      <trkpt lat="43.5211" lon="5.3137">
        <ele>238.10864</ele>
        <time>2023-03-15T13:00:55.000Z</time>
      </trkpt>
      <trkpt lat="43.52112" lon="5.31371">
        <ele>238.07578</ele>
        <time>2023-03-15T13:00:57.000Z</time>
      </trkpt>
      <trkpt lat="43.52114" lon="5.31372">
        <ele>238.06918</ele>
        <time>2023-03-15T13:00:59.000Z</time>
      </trkpt>
      <trkpt lat="43.52116" lon="5.31372">
        <ele>238.08195</ele>
        <time>2023-03-15T13:01:01.000Z</time>
      </trkpt>
      <trkpt lat="43.52117" lon="5.31373">
        <ele>238.07549</ele>
        <time>2023-03-15T13:01:03.000Z</time>
      </trkpt>
      <trkpt lat="43.52119" lon="5.31374">
        <ele>238.02451</ele>
        <time>2023-03-15T13:01:05.000Z</time>
      </trkpt>
      <trkpt lat="43.52121" lon="5.31375">
        <ele>237.97322</ele>
        <time>2023-03-15T13:01:07.000Z</time>
      </trkpt>
      <trkpt lat="43.52123" lon="5.31376">
        <ele>237.88777</ele>
        <time>2023-03-15T13:01:09.000Z</time>
      </trkpt>
      <trkpt lat="43.52125" lon="5.31377">
        <ele>237.74516</ele>
        <time>2023-03-15T13:01:11.000Z</time>
      </trkpt>
      <trkpt lat="43.52127" lon="5.31378">
        <ele>237.68225</ele>
        <time>2023-03-15T13:01:13.000Z</time>
      </trkpt>
      <trkpt lat="43.52129" lon="5.31379">
        <ele>237.61226</ele>
        <time>2023-03-15T13:01:15.000Z</time>
      </trkpt>
      <trkpt lat="43.52131" lon="5.31379">
        <ele>237.57889</ele>
        <time>2023-03-15T13:01:17.000Z</time>
      </trkpt>
      <trkpt lat="43.52133" lon="5.31379">
        <ele>237.53557</ele>
        <time>2023-03-15T13:01:19.000Z</time>
      </trkpt>
      <trkpt lat="43.52135" lon="5.31379">
        <ele>237.54825</ele>
        <time>2023-03-15T13:01:21.000Z</time>
      </trkpt>
      <trkpt lat="43.52137" lon="5.31378">
        <ele>237.58423</ele>
        <time>2023-03-15T13:01:23.000Z</time>
      </trkpt>
      <trkpt lat="43.52139" lon="5.31376">
        <ele>237.61868</ele>
        <time>2023-03-15T13:01:25.000Z</time>
      </trkpt>
      <trkpt lat="43.5214" lon="5.31374">
        <ele>237.62834</ele>
        <time>2023-03-15T13:01:27.000Z</time>
      </trkpt>
      <trkpt lat="43.52142" lon="5.31373">
        <ele>237.63168</ele>
        <time>2023-03-15T13:01:29.000Z</time>
      </trkpt>
      <trkpt lat="43.52144" lon="5.31372">
        <ele>237.71841</ele>
        <time>2023-03-15T13:01:31.000Z</time>
      </trkpt>
      <trkpt lat="43.52146" lon="5.31371">
        <ele>237.82681</ele>
        <time>2023-03-15T13:01:33.000Z</time>
      </trkpt>
      <trkpt lat="43.52148" lon="5.31369">
        <ele>237.86971</ele>
        <time>2023-03-15T13:01:35.000Z</time>
      </trkpt>
      <trkpt lat="43.52149" lon="5.31368">
        <ele>237.91154</ele>
        <time>2023-03-15T13:01:37.000Z</time>
      </trkpt>
      <trkpt lat="43.52151" lon="5.31366">
        <ele>237.91641</ele>
        <time>2023-03-15T13:01:39.000Z</time>
      </trkpt>
      <trkpt lat="43.52153" lon="5.31365">
        <ele>237.93469</ele>
        <time>2023-03-15T13:01:41.000Z</time>
      </trkpt>
      <trkpt lat="43.52155" lon="5.31364">
        <ele>237.9487</ele>
        <time>2023-03-15T13:01:43.000Z</time>
      </trkpt>
      <trkpt lat="43.52157" lon="5.31363">
        <ele>237.967</ele>
        <time>2023-03-15T13:01:45.000Z</time>
      </trkpt>
      <trkpt lat="43.5216" lon="5.31362">
        <ele>237.94662</ele>
        <time>2023-03-15T13:01:48.000Z</time>
      </trkpt>
      <trkpt lat="43.52162" lon="5.31362">
        <ele>237.96451</ele>
        <time>2023-03-15T13:01:52.000Z</time>
      </trkpt>
      <trkpt lat="43.52164" lon="5.31361">
        <ele>238.02132</ele>
        <time>2023-03-15T13:01:55.000Z</time>
      </trkpt>
      <trkpt lat="43.52167" lon="5.31361">
        <ele>238.00046</ele>
        <time>2023-03-15T13:01:58.000Z</time>
      </trkpt>
      <trkpt lat="43.52169" lon="5.3136">
        <ele>237.98811</ele>
        <time>2023-03-15T13:02:00.000Z</time>
      </trkpt>
      <trkpt lat="43.52171" lon="5.3136">
        <ele>237.98022</ele>
        <time>2023-03-15T13:02:02.000Z</time>
      </trkpt>
      <trkpt lat="43.52173" lon="5.31361">
        <ele>237.97624</ele>
        <time>2023-03-15T13:02:05.000Z</time>
      </trkpt>
      <trkpt lat="43.52176" lon="5.31362">
        <ele>237.96371</ele>
        <time>2023-03-15T13:02:08.000Z</time>
      </trkpt>
      <trkpt lat="43.52178" lon="5.31362">
        <ele>237.94873</ele>
        <time>2023-03-15T13:02:10.000Z</time>
      </trkpt>
      <trkpt lat="43.5218" lon="5.31363">
        <ele>237.92973</ele>
        <time>2023-03-15T13:02:12.000Z</time>
      </trkpt>
      <trkpt lat="43.52182" lon="5.31364">
        <ele>237.94209</ele>
        <time>2023-03-15T13:02:14.000Z</time>
      </trkpt>
      <trkpt lat="43.52184" lon="5.31365">
        <ele>237.96396</ele>
        <time>2023-03-15T13:02:16.000Z</time>
      </trkpt>
      <trkpt lat="43.52185" lon="5.31365">
        <ele>237.94743</ele>
        <time>2023-03-15T13:02:18.000Z</time>
      </trkpt>
      <trkpt lat="43.52187" lon="5.31365">
        <ele>237.93401</ele>
        <time>2023-03-15T13:02:20.000Z</time>
      </trkpt>
      <trkpt lat="43.52189" lon="5.31366">
        <ele>237.94377</ele>
        <time>2023-03-15T13:02:22.000Z</time>
      </trkpt>
      <trkpt lat="43.52191" lon="5.31365">
        <ele>237.94177</ele>
        <time>2023-03-15T13:02:24.000Z</time>
      </trkpt>
      <trkpt lat="43.52193" lon="5.31365">
        <ele>237.9659</ele>
        <time>2023-03-15T13:02:26.000Z</time>
      </trkpt>
      <trkpt lat="43.52196" lon="5.31364">
        <ele>237.9855</ele>
        <time>2023-03-15T13:02:28.000Z</time>
      </trkpt>
      <trkpt lat="43.52198" lon="5.31364">
        <ele>237.9919</ele>
        <time>2023-03-15T13:02:30.000Z</time>
      </trkpt>
      <trkpt lat="43.52199" lon="5.31363">
        <ele>238.02312</ele>
        <time>2023-03-15T13:02:32.000Z</time>
      </trkpt>
      <trkpt lat="43.52201" lon="5.31362">
        <ele>238.0938</ele>
        <time>2023-03-15T13:02:34.000Z</time>
      </trkpt>
      <trkpt lat="43.52203" lon="5.31361">
        <ele>238.16336</ele>
        <time>2023-03-15T13:02:36.000Z</time>
      </trkpt>
      <trkpt lat="43.52205" lon="5.3136">
        <ele>238.2426</ele>
        <time>2023-03-15T13:02:38.000Z</time>
      </trkpt>
      <trkpt lat="43.52207" lon="5.31359">
        <ele>238.33577</ele>
        <time>2023-03-15T13:02:40.000Z</time>
      </trkpt>
      <trkpt lat="43.52209" lon="5.31358">
        <ele>238.43188</ele>
        <time>2023-03-15T13:02:42.000Z</time>
      </trkpt>
      <trkpt lat="43.52211" lon="5.31357">
        <ele>238.44809</ele>
        <time>2023-03-15T13:02:44.000Z</time>
      </trkpt>
      <trkpt lat="43.52213" lon="5.31357">
        <ele>238.48335</ele>
        <time>2023-03-15T13:02:46.000Z</time>
      </trkpt>
      <trkpt lat="43.52216" lon="5.31356">
        <ele>238.52261</ele>
        <time>2023-03-15T13:02:48.000Z</time>
      </trkpt>
      <trkpt lat="43.52218" lon="5.31355">
        <ele>238.56494</ele>
        <time>2023-03-15T13:02:50.000Z</time>
      </trkpt>
      <trkpt lat="43.5222" lon="5.31355">
        <ele>238.62012</ele>
        <time>2023-03-15T13:02:52.000Z</time>
      </trkpt>
      <trkpt lat="43.52222" lon="5.31354">
        <ele>238.70752</ele>
        <time>2023-03-15T13:02:54.000Z</time>
      </trkpt>
      <trkpt lat="43.52224" lon="5.31354">
        <ele>238.80391</ele>
        <time>2023-03-15T13:02:56.000Z</time>
      </trkpt>
      <trkpt lat="43.52226" lon="5.31353">
        <ele>238.88652</ele>
        <time>2023-03-15T13:02:58.000Z</time>
      </trkpt>
      <trkpt lat="43.52228" lon="5.31353">
        <ele>238.97144</ele>
        <time>2023-03-15T13:03:00.000Z</time>
      </trkpt>
      <trkpt lat="43.5223" lon="5.31353">
        <ele>239.06367</ele>
        <time>2023-03-15T13:03:02.000Z</time>
      </trkpt>
      <trkpt lat="43.52233" lon="5.31353">
        <ele>239.173</ele>
        <time>2023-03-15T13:03:04.000Z</time>
      </trkpt>
      <trkpt lat="43.52235" lon="5.31352">
        <ele>239.2695</ele>
        <time>2023-03-15T13:03:06.000Z</time>
      </trkpt>
      <trkpt lat="43.52237" lon="5.31352">
        <ele>239.3309</ele>
        <time>2023-03-15T13:03:08.000Z</time>
      </trkpt>
      <trkpt lat="43.52239" lon="5.31351">
        <ele>239.36751</ele>
        <time>2023-03-15T13:03:10.000Z</time>
      </trkpt>
      <trkpt lat="43.52242" lon="5.3135">
        <ele>239.38004</ele>
        <time>2023-03-15T13:03:12.000Z</time>
      </trkpt>
      <trkpt lat="43.52244" lon="5.3135">
        <ele>239.41196</ele>
        <time>2023-03-15T13:03:14.000Z</time>
      </trkpt>
      <trkpt lat="43.52246" lon="5.3135">
        <ele>239.43253</ele>
        <time>2023-03-15T13:03:16.000Z</time>
      </trkpt>
      <trkpt lat="43.52248" lon="5.31349">
        <ele>239.41911</ele>
        <time>2023-03-15T13:03:18.000Z</time>
      </trkpt>
      <trkpt lat="43.5225" lon="5.31349">
        <ele>239.39986</ele>
        <time>2023-03-15T13:03:20.000Z</time>
      </trkpt>
      <trkpt lat="43.52252" lon="5.31348">
        <ele>239.36453</ele>
        <time>2023-03-15T13:03:22.000Z</time>
      </trkpt>
      <trkpt lat="43.52255" lon="5.31347">
        <ele>239.36304</ele>
        <time>2023-03-15T13:03:24.000Z</time>
      </trkpt>
      <trkpt lat="43.52257" lon="5.31346">
        <ele>239.34517</ele>
        <time>2023-03-15T13:03:26.000Z</time>
      </trkpt>
      <trkpt lat="43.52259" lon="5.31346">
        <ele>239.30411</ele>
        <time>2023-03-15T13:03:28.000Z</time>
      </trkpt>
      <trkpt lat="43.52261" lon="5.31346">
        <ele>239.30075</ele>
        <time>2023-03-15T13:03:30.000Z</time>
      </trkpt>
      <trkpt lat="43.52263" lon="5.31346">
        <ele>239.27258</ele>
        <time>2023-03-15T13:03:32.000Z</time>
      </trkpt>
      <trkpt lat="43.52266" lon="5.31347">
        <ele>239.19608</ele>
        <time>2023-03-15T13:03:34.000Z</time>
      </trkpt>
      <trkpt lat="43.52268" lon="5.31347">
        <ele>239.11411</ele>
        <time>2023-03-15T13:03:36.000Z</time>
      </trkpt>
      <trkpt lat="43.5227" lon="5.31348">
        <ele>239.06161</ele>
        <time>2023-03-15T13:03:38.000Z</time>
      </trkpt>
      <trkpt lat="43.52273" lon="5.31348">
        <ele>239.00984</ele>
        <time>2023-03-15T13:03:40.000Z</time>
      </trkpt>
      <trkpt lat="43.52275" lon="5.31349">
        <ele>238.94536</ele>
        <time>2023-03-15T13:03:42.000Z</time>
      </trkpt>
      <trkpt lat="43.52277" lon="5.31349">
        <ele>238.88924</ele>
        <time>2023-03-15T13:03:44.000Z</time>
      </trkpt>
      <trkpt lat="43.52279" lon="5.31349">
        <ele>238.8425</ele>
        <time>2023-03-15T13:03:46.000Z</time>
      </trkpt>
      <trkpt lat="43.52282" lon="5.31349">
        <ele>238.81335</ele>
        <time>2023-03-15T13:03:48.000Z</time>
      </trkpt>
      <trkpt lat="43.52284" lon="5.31349">
        <ele>238.80362</ele>
        <time>2023-03-15T13:03:50.000Z</time>
      </trkpt>
      <trkpt lat="43.52286" lon="5.31349">
        <ele>238.81693</ele>
        <time>2023-03-15T13:03:52.000Z</time>
      </trkpt>
      <trkpt lat="43.52289" lon="5.3135">
        <ele>238.82739</ele>
        <time>2023-03-15T13:03:54.000Z</time>
      </trkpt>
      <trkpt lat="43.52291" lon="5.3135">
        <ele>238.81055</ele>
        <time>2023-03-15T13:03:56.000Z</time>
      </trkpt>
      <trkpt lat="43.52293" lon="5.31349">
        <ele>238.78748</ele>
        <time>2023-03-15T13:03:58.000Z</time>
      </trkpt>
      <trkpt lat="43.52296" lon="5.31349">
        <ele>238.75459</ele>
        <time>2023-03-15T13:04:00.000Z</time>
      </trkpt>
      <trkpt lat="43.52298" lon="5.31349">
        <ele>238.74805</ele>
        <time>2023-03-15T13:04:02.000Z</time>
      </trkpt>
      <trkpt lat="43.523" lon="5.31349">
        <ele>238.74153</ele>
        <time>2023-03-15T13:04:04.000Z</time>
      </trkpt>
      <trkpt lat="43.52302" lon="5.31349">
        <ele>238.7421</ele>
        <time>2023-03-15T13:04:06.000Z</time>
      </trkpt>
      <trkpt lat="43.52304" lon="5.3135">
        <ele>238.76497</ele>
        <time>2023-03-15T13:04:08.000Z</time>
      </trkpt>
      <trkpt lat="43.52306" lon="5.31351">
        <ele>238.75212</ele>
        <time>2023-03-15T13:04:10.000Z</time>
      </trkpt>
      <trkpt lat="43.52308" lon="5.31351">
        <ele>238.72842</ele>
        <time>2023-03-15T13:04:12.000Z</time>
      </trkpt>
      <trkpt lat="43.5231" lon="5.31352">
        <ele>238.72983</ele>
        <time>2023-03-15T13:04:15.000Z</time>
      </trkpt>
      <trkpt lat="43.52313" lon="5.31352">
        <ele>238.7644</ele>
        <time>2023-03-15T13:04:18.000Z</time>
      </trkpt>
      <trkpt lat="43.52315" lon="5.31353">
        <ele>238.74638</ele>
        <time>2023-03-15T13:04:21.000Z</time>
      </trkpt>
      <trkpt lat="43.52317" lon="5.31354">
        <ele>238.71436</ele>
        <time>2023-03-15T13:04:23.000Z</time>
      </trkpt>
      <trkpt lat="43.52319" lon="5.31354">
        <ele>238.72278</ele>
        <time>2023-03-15T13:04:25.000Z</time>
      </trkpt>
      <trkpt lat="43.52321" lon="5.31355">
        <ele>238.7596</ele>
        <time>2023-03-15T13:04:27.000Z</time>
      </trkpt>
      <trkpt lat="43.52323" lon="5.31356">
        <ele>238.81331</ele>
        <time>2023-03-15T13:04:29.000Z</time>
      </trkpt>
      <trkpt lat="43.52325" lon="5.31357">
        <ele>238.87834</ele>
        <time>2023-03-15T13:04:31.000Z</time>
      </trkpt>
      <trkpt lat="43.52328" lon="5.31357">
        <ele>238.924</ele>
        <time>2023-03-15T13:04:33.000Z</time>
      </trkpt>
      <trkpt lat="43.5233" lon="5.31358">
        <ele>238.9465</ele>
        <time>2023-03-15T13:04:35.000Z</time>
      </trkpt>
      <trkpt lat="43.52332" lon="5.31358">
        <ele>238.92593</ele>
        <time>2023-03-15T13:04:37.000Z</time>
      </trkpt>
      <trkpt lat="43.52334" lon="5.31359">
        <ele>238.93152</ele>
        <time>2023-03-15T13:04:39.000Z</time>
      </trkpt>
      <trkpt lat="43.52336" lon="5.3136">
        <ele>238.92709</ele>
        <time>2023-03-15T13:04:42.000Z</time>
      </trkpt>
      <trkpt lat="43.52339" lon="5.31358">
        <ele>238.94217</ele>
        <time>2023-03-15T13:04:45.000Z</time>
      </trkpt>
      <trkpt lat="43.52341" lon="5.31357">
        <ele>238.89795</ele>
        <time>2023-03-15T13:04:48.000Z</time>
      </trkpt>
      <trkpt lat="43.52344" lon="5.31358">
        <ele>238.81787</ele>
        <time>2023-03-15T13:04:51.000Z</time>
      </trkpt>
      <trkpt lat="43.52346" lon="5.31359">
        <ele>238.73795</ele>
        <time>2023-03-15T13:04:53.000Z</time>
      </trkpt>
      <trkpt lat="43.52348" lon="5.31359">
        <ele>238.64629</ele>
        <time>2023-03-15T13:04:55.000Z</time>
      </trkpt>
      <trkpt lat="43.5235" lon="5.31359">
        <ele>238.54459</ele>
        <time>2023-03-15T13:04:57.000Z</time>
      </trkpt>
      <trkpt lat="43.52352" lon="5.3136">
        <ele>238.4545</ele>
        <time>2023-03-15T13:04:59.000Z</time>
      </trkpt>
      <trkpt lat="43.52354" lon="5.31362">
        <ele>238.35864</ele>
        <time>2023-03-15T13:05:01.000Z</time>
      </trkpt>
      <trkpt lat="43.52356" lon="5.31362">
        <ele>238.27246</ele>
        <time>2023-03-15T13:05:03.000Z</time>
      </trkpt>
      <trkpt lat="43.52358" lon="5.31363">
        <ele>238.23721</ele>
        <time>2023-03-15T13:05:05.000Z</time>
      </trkpt>
      <trkpt lat="43.5236" lon="5.31364">
        <ele>238.21883</ele>
        <time>2023-03-15T13:05:07.000Z</time>
      </trkpt>
      <trkpt lat="43.52362" lon="5.31364">
        <ele>238.13879</ele>
        <time>2023-03-15T13:05:09.000Z</time>
      </trkpt>
      <trkpt lat="43.52364" lon="5.31365">
        <ele>238.03641</ele>
        <time>2023-03-15T13:05:11.000Z</time>
      </trkpt>
      <trkpt lat="43.52366" lon="5.31366">
        <ele>237.94051</ele>
        <time>2023-03-15T13:05:13.000Z</time>
      </trkpt>
      <trkpt lat="43.52368" lon="5.31367">
        <ele>237.87283</ele>
        <time>2023-03-15T13:05:16.000Z</time>
      </trkpt>
      <trkpt lat="43.52371" lon="5.31367">
        <ele>237.85201</ele>
        <time>2023-03-15T13:05:19.000Z</time>
      </trkpt>
      <trkpt lat="43.52373" lon="5.31367">
        <ele>237.83025</ele>
        <time>2023-03-15T13:05:21.000Z</time>
      </trkpt>
      <trkpt lat="43.52375" lon="5.31368">
        <ele>237.85698</ele>
        <time>2023-03-15T13:05:23.000Z</time>
      </trkpt>
      <trkpt lat="43.52377" lon="5.31368">
        <ele>237.89319</ele>
        <time>2023-03-15T13:05:25.000Z</time>
      </trkpt>
      <trkpt lat="43.52379" lon="5.31368">
        <ele>237.97673</ele>
        <time>2023-03-15T13:05:27.000Z</time>
      </trkpt>
      <trkpt lat="43.52381" lon="5.31367">
        <ele>238.05984</ele>
        <time>2023-03-15T13:05:30.000Z</time>
      </trkpt>
      <trkpt lat="43.52383" lon="5.31367">
        <ele>238.17488</ele>
        <time>2023-03-15T13:05:32.000Z</time>
      </trkpt>
      <trkpt lat="43.52385" lon="5.31367">
        <ele>238.31308</ele>
        <time>2023-03-15T13:05:34.000Z</time>
      </trkpt>
      <trkpt lat="43.52388" lon="5.31366">
        <ele>238.45532</ele>
        <time>2023-03-15T13:05:36.000Z</time>
      </trkpt>
      <trkpt lat="43.5239" lon="5.31366">
        <ele>238.58707</ele>
        <time>2023-03-15T13:05:38.000Z</time>
      </trkpt>
      <trkpt lat="43.52392" lon="5.31366">
        <ele>238.74197</ele>
        <time>2023-03-15T13:05:40.000Z</time>
      </trkpt>
      <trkpt lat="43.52394" lon="5.31365">
        <ele>238.94815</ele>
        <time>2023-03-15T13:05:42.000Z</time>
      </trkpt>
      <trkpt lat="43.52396" lon="5.31364">
        <ele>239.14009</ele>
        <time>2023-03-15T13:05:44.000Z</time>
      </trkpt>
      <trkpt lat="43.52397" lon="5.31364">
        <ele>239.3101</ele>
        <time>2023-03-15T13:05:46.000Z</time>
      </trkpt>
      <trkpt lat="43.52399" lon="5.31363">
        <ele>239.46301</ele>
        <time>2023-03-15T13:05:48.000Z</time>
      </trkpt>
      <trkpt lat="43.52401" lon="5.31363">
        <ele>239.63208</ele>
        <time>2023-03-15T13:05:50.000Z</time>
      </trkpt>
      <trkpt lat="43.52403" lon="5.31364">
        <ele>239.84915</ele>
        <time>2023-03-15T13:05:52.000Z</time>
      </trkpt>
      <trkpt lat="43.52405" lon="5.31363">
        <ele>240.06184</ele>
        <time>2023-03-15T13:05:54.000Z</time>
      </trkpt>
      <trkpt lat="43.52407" lon="5.31363">
        <ele>240.23477</ele>
        <time>2023-03-15T13:05:57.000Z</time>
      </trkpt>
      <trkpt lat="43.5241" lon="5.31363">
        <ele>240.43323</ele>
        <time>2023-03-15T13:06:00.000Z</time>
      </trkpt>
      <trkpt lat="43.52412" lon="5.31363">
        <ele>240.61726</ele>
        <time>2023-03-15T13:06:03.000Z</time>
      </trkpt>
      <trkpt lat="43.52414" lon="5.31364">
        <ele>240.85909</ele>
        <time>2023-03-15T13:06:06.000Z</time>
      </trkpt>
      <trkpt lat="43.52416" lon="5.31364">
        <ele>241.09195</ele>
        <time>2023-03-15T13:06:08.000Z</time>
      </trkpt>
      <trkpt lat="43.52418" lon="5.31365">
        <ele>241.36697</ele>
        <time>2023-03-15T13:06:11.000Z</time>
      </trkpt>
      <trkpt lat="43.52421" lon="5.31368">
        <ele>241.63692</ele>
        <time>2023-03-15T13:06:14.000Z</time>
      </trkpt>
      <trkpt lat="43.52422" lon="5.31369">
        <ele>241.91072</ele>
        <time>2023-03-15T13:06:16.000Z</time>
      </trkpt>
      <trkpt lat="43.52424" lon="5.31371">
        <ele>242.22717</ele>
        <time>2023-03-15T13:06:18.000Z</time>
      </trkpt>
      <trkpt lat="43.52426" lon="5.31371">
        <ele>242.52605</ele>
        <time>2023-03-15T13:06:20.000Z</time>
      </trkpt>
      <trkpt lat="43.52427" lon="5.31372">
        <ele>242.87051</ele>
        <time>2023-03-15T13:06:22.000Z</time>
      </trkpt>
      <trkpt lat="43.52429" lon="5.31374">
        <ele>243.19841</ele>
        <time>2023-03-15T13:06:25.000Z</time>
      </trkpt>
      <trkpt lat="43.5243" lon="5.31376">
        <ele>243.52481</ele>
        <time>2023-03-15T13:06:27.000Z</time>
      </trkpt>
      <trkpt lat="43.52432" lon="5.31379">
        <ele>243.81912</ele>
        <time>2023-03-15T13:06:30.000Z</time>
      </trkpt>
      <trkpt lat="43.52434" lon="5.31381">
        <ele>244.08688</ele>
        <time>2023-03-15T13:06:33.000Z</time>
      </trkpt>
      <trkpt lat="43.52436" lon="5.31381">
        <ele>244.31058</ele>
        <time>2023-03-15T13:06:35.000Z</time>
      </trkpt>
      <trkpt lat="43.52438" lon="5.31383">
        <ele>244.59517</ele>
        <time>2023-03-15T13:06:37.000Z</time>
      </trkpt>
      <trkpt lat="43.5244" lon="5.31383">
        <ele>244.84724</ele>
        <time>2023-03-15T13:06:39.000Z</time>
      </trkpt>
      <trkpt lat="43.52441" lon="5.31384">
        <ele>245.07976</ele>
        <time>2023-03-15T13:06:41.000Z</time>
      </trkpt>
      <trkpt lat="43.52443" lon="5.31386">
        <ele>245.27588</ele>
        <time>2023-03-15T13:06:43.000Z</time>
      </trkpt>
      <trkpt lat="43.52445" lon="5.31387">
        <ele>245.49435</ele>
        <time>2023-03-15T13:06:45.000Z</time>
      </trkpt>
      <trkpt lat="43.52447" lon="5.31388">
        <ele>245.62964</ele>
        <time>2023-03-15T13:06:47.000Z</time>
      </trkpt>
      <trkpt lat="43.52449" lon="5.31389">
        <ele>245.75481</ele>
        <time>2023-03-15T13:06:49.000Z</time>
      </trkpt>
      <trkpt lat="43.5245" lon="5.31391">
        <ele>245.83597</ele>
        <time>2023-03-15T13:06:51.000Z</time>
      </trkpt>
      <trkpt lat="43.52453" lon="5.31392">
        <ele>245.88974</ele>
        <time>2023-03-15T13:06:54.000Z</time>
      </trkpt>
      <trkpt lat="43.52455" lon="5.31394">
        <ele>245.90601</ele>
        <time>2023-03-15T13:06:57.000Z</time>
      </trkpt>
      <trkpt lat="43.52458" lon="5.31396">
        <ele>245.90813</ele>
        <time>2023-03-15T13:07:00.000Z</time>
      </trkpt>
      <trkpt lat="43.52459" lon="5.31397">
        <ele>245.92815</ele>
        <time>2023-03-15T13:07:02.000Z</time>
      </trkpt>
      <trkpt lat="43.52461" lon="5.31398">
        <ele>245.88852</ele>
        <time>2023-03-15T13:07:04.000Z</time>
      </trkpt>
      <trkpt lat="43.52463" lon="5.31399">
        <ele>245.88388</ele>
        <time>2023-03-15T13:07:06.000Z</time>
      </trkpt>
      <trkpt lat="43.52465" lon="5.314">
        <ele>245.86215</ele>
        <time>2023-03-15T13:07:08.000Z</time>
      </trkpt>
      <trkpt lat="43.52467" lon="5.31402">
        <ele>245.90186</ele>
        <time>2023-03-15T13:07:10.000Z</time>
      </trkpt>
      <trkpt lat="43.52468" lon="5.31403">
        <ele>245.9351</ele>
        <time>2023-03-15T13:07:12.000Z</time>
      </trkpt>
      <trkpt lat="43.5247" lon="5.31404">
        <ele>245.95859</ele>
        <time>2023-03-15T13:07:14.000Z</time>
      </trkpt>
      <trkpt lat="43.52472" lon="5.31404">
        <ele>245.98894</ele>
        <time>2023-03-15T13:07:16.000Z</time>
      </trkpt>
      <trkpt lat="43.52474" lon="5.31404">
        <ele>246.04028</ele>
        <time>2023-03-15T13:07:18.000Z</time>
      </trkpt>
      <trkpt lat="43.52476" lon="5.31405">
        <ele>246.04822</ele>
        <time>2023-03-15T13:07:20.000Z</time>
      </trkpt>
      <trkpt lat="43.52478" lon="5.31404">
        <ele>246.05807</ele>
        <time>2023-03-15T13:07:22.000Z</time>
      </trkpt>
      <trkpt lat="43.5248" lon="5.31405">
        <ele>246.1134</ele>
        <time>2023-03-15T13:07:24.000Z</time>
      </trkpt>
      <trkpt lat="43.52483" lon="5.31405">
        <ele>246.17671</ele>
        <time>2023-03-15T13:07:27.000Z</time>
      </trkpt>
      <trkpt lat="43.52485" lon="5.31405">
        <ele>246.23787</ele>
        <time>2023-03-15T13:07:29.000Z</time>
      </trkpt>
      <trkpt lat="43.52487" lon="5.31406">
        <ele>246.32666</ele>
        <time>2023-03-15T13:07:31.000Z</time>
      </trkpt>
      <trkpt lat="43.52489" lon="5.31406">
        <ele>246.43631</ele>
        <time>2023-03-15T13:07:33.000Z</time>
      </trkpt>
      <trkpt lat="43.5249" lon="5.31406">
        <ele>246.53972</ele>
        <time>2023-03-15T13:07:35.000Z</time>
      </trkpt>
      <trkpt lat="43.52492" lon="5.31406">
        <ele>246.67216</ele>
        <time>2023-03-15T13:07:37.000Z</time>
      </trkpt>
      <trkpt lat="43.52494" lon="5.31405">
        <ele>246.8027</ele>
        <time>2023-03-15T13:07:39.000Z</time>
      </trkpt>
      <trkpt lat="43.52496" lon="5.31405">
        <ele>246.95195</ele>
        <time>2023-03-15T13:07:41.000Z</time>
      </trkpt>
      <trkpt lat="43.52498" lon="5.31404">
        <ele>247.08023</ele>
        <time>2023-03-15T13:07:43.000Z</time>
      </trkpt>
      <trkpt lat="43.525" lon="5.31403">
        <ele>247.24821</ele>
        <time>2023-03-15T13:07:45.000Z</time>
      </trkpt>
      <trkpt lat="43.52502" lon="5.31402">
        <ele>247.4017</ele>
        <time>2023-03-15T13:07:47.000Z</time>
      </trkpt>
      <trkpt lat="43.52504" lon="5.31401">
        <ele>247.5218</ele>
        <time>2023-03-15T13:07:49.000Z</time>
      </trkpt>
      <trkpt lat="43.52506" lon="5.31401">
        <ele>247.61121</ele>
        <time>2023-03-15T13:07:51.000Z</time>
      </trkpt>
      <trkpt lat="43.52508" lon="5.314">
        <ele>247.71028</ele>
        <time>2023-03-15T13:07:53.000Z</time>
      </trkpt>
      <trkpt lat="43.5251" lon="5.31399">
        <ele>247.82166</ele>
        <time>2023-03-15T13:07:55.000Z</time>
      </trkpt>
      <trkpt lat="43.52512" lon="5.31399">
        <ele>247.94096</ele>
        <time>2023-03-15T13:07:57.000Z</time>
      </trkpt>
      <trkpt lat="43.52514" lon="5.31399">
        <ele>248.07121</ele>
        <time>2023-03-15T13:07:59.000Z</time>
      </trkpt>
      <trkpt lat="43.52517" lon="5.31398">
        <ele>248.2023</ele>
        <time>2023-03-15T13:08:01.000Z</time>
      </trkpt>
      <trkpt lat="43.5252" lon="5.31398">
        <ele>248.33134</ele>
        <time>2023-03-15T13:08:03.000Z</time>
      </trkpt>
      <trkpt lat="43.52522" lon="5.31397">
        <ele>248.41443</ele>
        <time>2023-03-15T13:08:05.000Z</time>
      </trkpt>
      <trkpt lat="43.52524" lon="5.31397">
        <ele>248.52103</ele>
        <time>2023-03-15T13:08:07.000Z</time>
      </trkpt>
      <trkpt lat="43.52526" lon="5.31397">
        <ele>248.61357</ele>
        <time>2023-03-15T13:08:09.000Z</time>
      </trkpt>
      <trkpt lat="43.52528" lon="5.31396">
        <ele>248.68623</ele>
        <time>2023-03-15T13:08:11.000Z</time>
      </trkpt>
      <trkpt lat="43.52531" lon="5.31396">
        <ele>248.72871</ele>
        <time>2023-03-15T13:08:13.000Z</time>
      </trkpt>
      <trkpt lat="43.52533" lon="5.31395">
        <ele>248.75943</ele>
        <time>2023-03-15T13:08:15.000Z</time>
      </trkpt>
      <trkpt lat="43.52535" lon="5.31395">
        <ele>248.7762</ele>
        <time>2023-03-15T13:08:17.000Z</time>
      </trkpt>
      <trkpt lat="43.52537" lon="5.31394">
        <ele>248.78024</ele>
        <time>2023-03-15T13:08:19.000Z</time>
      </trkpt>
      <trkpt lat="43.52539" lon="5.31394">
        <ele>248.8252</ele>
        <time>2023-03-15T13:08:21.000Z</time>
      </trkpt>
      <trkpt lat="43.52541" lon="5.31393">
        <ele>248.87711</ele>
        <time>2023-03-15T13:08:23.000Z</time>
      </trkpt>
      <trkpt lat="43.52543" lon="5.31392">
        <ele>248.95271</ele>
        <time>2023-03-15T13:08:25.000Z</time>
      </trkpt>
      <trkpt lat="43.52545" lon="5.31392">
        <ele>249.0546</ele>
        <time>2023-03-15T13:08:27.000Z</time>
      </trkpt>
      <trkpt lat="43.52547" lon="5.31392">
        <ele>249.17693</ele>
        <time>2023-03-15T13:08:29.000Z</time>
      </trkpt>
      <trkpt lat="43.5255" lon="5.31391">
        <ele>249.26701</ele>
        <time>2023-03-15T13:08:31.000Z</time>
      </trkpt>
      <trkpt lat="43.52552" lon="5.31392">
        <ele>249.33228</ele>
        <time>2023-03-15T13:08:33.000Z</time>
      </trkpt>
      <trkpt lat="43.52554" lon="5.31391">
        <ele>249.37679</ele>
        <time>2023-03-15T13:08:35.000Z</time>
      </trkpt>
      <trkpt lat="43.52556" lon="5.31391">
        <ele>249.4222</ele>
        <time>2023-03-15T13:08:37.000Z</time>
      </trkpt>
      <trkpt lat="43.52558" lon="5.31391">
        <ele>249.47598</ele>
        <time>2023-03-15T13:08:39.000Z</time>
      </trkpt>
      <trkpt lat="43.5256" lon="5.3139">
        <ele>249.51221</ele>
        <time>2023-03-15T13:08:41.000Z</time>
      </trkpt>
      <trkpt lat="43.52563" lon="5.3139">
        <ele>249.57622</ele>
        <time>2023-03-15T13:08:43.000Z</time>
      </trkpt>
      <trkpt lat="43.52565" lon="5.31389">
        <ele>249.62849</ele>
        <time>2023-03-15T13:08:45.000Z</time>
      </trkpt>
      <trkpt lat="43.52567" lon="5.31389">
        <ele>249.66843</ele>
        <time>2023-03-15T13:08:47.000Z</time>
      </trkpt>
      <trkpt lat="43.52569" lon="5.31388">
        <ele>249.70923</ele>
        <time>2023-03-15T13:08:49.000Z</time>
      </trkpt>
      <trkpt lat="43.52571" lon="5.31387">
        <ele>249.77197</ele>
        <time>2023-03-15T13:08:51.000Z</time>
      </trkpt>
      <trkpt lat="43.52573" lon="5.31386">
        <ele>249.83813</ele>
        <time>2023-03-15T13:08:53.000Z</time>
      </trkpt>
      <trkpt lat="43.52575" lon="5.31385">
        <ele>249.93706</ele>
        <time>2023-03-15T13:08:55.000Z</time>
      </trkpt>
      <trkpt lat="43.52577" lon="5.31385">
        <ele>250.01949</ele>
        <time>2023-03-15T13:08:57.000Z</time>
      </trkpt>
      <trkpt lat="43.52579" lon="5.31384">
        <ele>250.11166</ele>
        <time>2023-03-15T13:08:59.000Z</time>
      </trkpt>
      <trkpt lat="43.52581" lon="5.31384">
        <ele>250.1534</ele>
        <time>2023-03-15T13:09:01.000Z</time>
      </trkpt>
      <trkpt lat="43.52583" lon="5.31383">
        <ele>250.18417</ele>
        <time>2023-03-15T13:09:03.000Z</time>
      </trkpt>
      <trkpt lat="43.52585" lon="5.31383">
        <ele>250.13248</ele>
        <time>2023-03-15T13:09:05.000Z</time>
      </trkpt>
      <trkpt lat="43.52587" lon="5.31383">
        <ele>250.04959</ele>
        <time>2023-03-15T13:09:07.000Z</time>
      </trkpt>
      <trkpt lat="43.52589" lon="5.31382">
        <ele>249.96841</ele>
        <time>2023-03-15T13:09:09.000Z</time>
      </trkpt>
      <trkpt lat="43.52592" lon="5.31381">
        <ele>249.9147</ele>
        <time>2023-03-15T13:09:11.000Z</time>
      </trkpt>
      <trkpt lat="43.52594" lon="5.3138">
        <ele>249.90474</ele>
        <time>2023-03-15T13:09:13.000Z</time>
      </trkpt>
      <trkpt lat="43.52596" lon="5.3138">
        <ele>249.90047</ele>
        <time>2023-03-15T13:09:15.000Z</time>
      </trkpt>
      <trkpt lat="43.52598" lon="5.31379">
        <ele>249.87576</ele>
        <time>2023-03-15T13:09:17.000Z</time>
      </trkpt>
      <trkpt lat="43.526" lon="5.31378">
        <ele>249.86975</ele>
        <time>2023-03-15T13:09:19.000Z</time>
      </trkpt>
      <trkpt lat="43.52602" lon="5.31377">
        <ele>249.87439</ele>
        <time>2023-03-15T13:09:21.000Z</time>
      </trkpt>
      <trkpt lat="43.52604" lon="5.31376">
        <ele>249.86386</ele>
        <time>2023-03-15T13:09:23.000Z</time>
      </trkpt>
      <trkpt lat="43.52606" lon="5.31376">
        <ele>249.86653</ele>
        <time>2023-03-15T13:09:25.000Z</time>
      </trkpt>
      <trkpt lat="43.52608" lon="5.31375">
        <ele>249.8688</ele>
        <time>2023-03-15T13:09:27.000Z</time>
      </trkpt>
      <trkpt lat="43.5261" lon="5.31374">
        <ele>249.88374</ele>
        <time>2023-03-15T13:09:29.000Z</time>
      </trkpt>
      <trkpt lat="43.52613" lon="5.31373">
        <ele>249.92036</ele>
        <time>2023-03-15T13:09:31.000Z</time>
      </trkpt>
      <trkpt lat="43.52615" lon="5.31373">
        <ele>249.95865</ele>
        <time>2023-03-15T13:09:33.000Z</time>
      </trkpt>
      <trkpt lat="43.52617" lon="5.31372">
        <ele>249.98926</ele>
        <time>2023-03-15T13:09:35.000Z</time>
      </trkpt>
      <trkpt lat="43.52619" lon="5.31372">
        <ele>250.03809</ele>
        <time>2023-03-15T13:09:37.000Z</time>
      </trkpt>
      <trkpt lat="43.52621" lon="5.31371">
        <ele>250.05826</ele>
        <time>2023-03-15T13:09:39.000Z</time>
      </trkpt>
      <trkpt lat="43.52623" lon="5.3137">
        <ele>250.07352</ele>
        <time>2023-03-15T13:09:41.000Z</time>
      </trkpt>
      <trkpt lat="43.52625" lon="5.3137">
        <ele>250.11235</ele>
        <time>2023-03-15T13:09:43.000Z</time>
      </trkpt>
      <trkpt lat="43.52627" lon="5.3137">
        <ele>250.21973</ele>
        <time>2023-03-15T13:09:45.000Z</time>
      </trkpt>
      <trkpt lat="43.52628" lon="5.31369">
        <ele>250.34766</ele>
        <time>2023-03-15T13:09:47.000Z</time>
      </trkpt>
      <trkpt lat="43.5263" lon="5.31368">
        <ele>250.44846</ele>
        <time>2023-03-15T13:09:49.000Z</time>
      </trkpt>
      <trkpt lat="43.52632" lon="5.31367">
        <ele>250.53288</ele>
        <time>2023-03-15T13:09:51.000Z</time>
      </trkpt>
      <trkpt lat="43.52635" lon="5.31367">
        <ele>250.58989</ele>
        <time>2023-03-15T13:09:53.000Z</time>
      </trkpt>
      <trkpt lat="43.52637" lon="5.31366">
        <ele>250.66336</ele>
        <time>2023-03-15T13:09:55.000Z</time>
      </trkpt>
      <trkpt lat="43.52639" lon="5.31366">
        <ele>250.7784</ele>
        <time>2023-03-15T13:09:57.000Z</time>
      </trkpt>
      <trkpt lat="43.52641" lon="5.31365">
        <ele>250.86963</ele>
        <time>2023-03-15T13:09:59.000Z</time>
      </trkpt>
      <trkpt lat="43.52643" lon="5.31364">
        <ele>250.96562</ele>
        <time>2023-03-15T13:10:01.000Z</time>
      </trkpt>
      <trkpt lat="43.52646" lon="5.31364">
        <ele>251.0533</ele>
        <time>2023-03-15T13:10:03.000Z</time>
      </trkpt>
      <trkpt lat="43.52648" lon="5.31364">
        <ele>251.14243</ele>
        <time>2023-03-15T13:10:05.000Z</time>
      </trkpt>
      <trkpt lat="43.5265" lon="5.31364">
        <ele>251.24431</ele>
        <time>2023-03-15T13:10:07.000Z</time>
      </trkpt>
      <trkpt lat="43.52653" lon="5.31363">
        <ele>251.35757</ele>
        <time>2023-03-15T13:10:09.000Z</time>
      </trkpt>
      <trkpt lat="43.52655" lon="5.31362">
        <ele>251.43393</ele>
        <time>2023-03-15T13:10:11.000Z</time>
      </trkpt>
      <trkpt lat="43.52657" lon="5.31361">
        <ele>251.52798</ele>
        <time>2023-03-15T13:10:13.000Z</time>
      </trkpt>
      <trkpt lat="43.5266" lon="5.31361">
        <ele>251.61914</ele>
        <time>2023-03-15T13:10:15.000Z</time>
      </trkpt>
      <trkpt lat="43.52662" lon="5.3136">
        <ele>251.69772</ele>
        <time>2023-03-15T13:10:17.000Z</time>
      </trkpt>
      <trkpt lat="43.52664" lon="5.31359">
        <ele>251.78178</ele>
        <time>2023-03-15T13:10:19.000Z</time>
      </trkpt>
      <trkpt lat="43.52666" lon="5.31358">
        <ele>251.87573</ele>
        <time>2023-03-15T13:10:21.000Z</time>
      </trkpt>
      <trkpt lat="43.52668" lon="5.31357">
        <ele>251.93127</ele>
        <time>2023-03-15T13:10:23.000Z</time>
      </trkpt>
      <trkpt lat="43.5267" lon="5.31356">
        <ele>252.00533</ele>
        <time>2023-03-15T13:10:25.000Z</time>
      </trkpt>
      <trkpt lat="43.52672" lon="5.31355">
        <ele>252.08723</ele>
        <time>2023-03-15T13:10:27.000Z</time>
      </trkpt>
      <trkpt lat="43.52674" lon="5.31355">
        <ele>252.17261</ele>
        <time>2023-03-15T13:10:29.000Z</time>
      </trkpt>
      <trkpt lat="43.52676" lon="5.31354">
        <ele>252.2634</ele>
        <time>2023-03-15T13:10:31.000Z</time>
      </trkpt>
      <trkpt lat="43.52679" lon="5.31353">
        <ele>252.3483</ele>
        <time>2023-03-15T13:10:33.000Z</time>
      </trkpt>
      <trkpt lat="43.52681" lon="5.31352">
        <ele>252.42183</ele>
        <time>2023-03-15T13:10:35.000Z</time>
      </trkpt>
      <trkpt lat="43.52684" lon="5.31352">
        <ele>252.47099</ele>
        <time>2023-03-15T13:10:37.000Z</time>
      </trkpt>
      <trkpt lat="43.52686" lon="5.31351">
        <ele>252.52347</ele>
        <time>2023-03-15T13:10:39.000Z</time>
      </trkpt>
      <trkpt lat="43.52688" lon="5.3135">
        <ele>252.55469</ele>
        <time>2023-03-15T13:10:41.000Z</time>
      </trkpt>
      <trkpt lat="43.5269" lon="5.3135">
        <ele>252.6196</ele>
        <time>2023-03-15T13:10:43.000Z</time>
      </trkpt>
      <trkpt lat="43.52693" lon="5.31349">
        <ele>252.67932</ele>
        <time>2023-03-15T13:10:45.000Z</time>
      </trkpt>
      <trkpt lat="43.52695" lon="5.31349">
        <ele>252.75835</ele>
        <time>2023-03-15T13:10:47.000Z</time>
      </trkpt>
      <trkpt lat="43.52697" lon="5.31348">
        <ele>252.84517</ele>
        <time>2023-03-15T13:10:49.000Z</time>
      </trkpt>
      <trkpt lat="43.527" lon="5.31348">
        <ele>252.94571</ele>
        <time>2023-03-15T13:10:51.000Z</time>
      </trkpt>
      <trkpt lat="43.52702" lon="5.31348">
        <ele>253.01697</ele>
        <time>2023-03-15T13:10:53.000Z</time>
      </trkpt>
      <trkpt lat="43.52704" lon="5.31347">
        <ele>253.08316</ele>
        <time>2023-03-15T13:10:55.000Z</time>
      </trkpt>
      <trkpt lat="43.52707" lon="5.31346">
        <ele>253.15527</ele>
        <time>2023-03-15T13:10:57.000Z</time>
      </trkpt>
      <trkpt lat="43.52709" lon="5.31346">
        <ele>253.26755</ele>
        <time>2023-03-15T13:10:59.000Z</time>
      </trkpt>
      <trkpt lat="43.52711" lon="5.31345">
        <ele>253.38533</ele>
        <time>2023-03-15T13:11:01.000Z</time>
      </trkpt>
      <trkpt lat="43.52713" lon="5.31344">
        <ele>253.49673</ele>
        <time>2023-03-15T13:11:03.000Z</time>
      </trkpt>
      <trkpt lat="43.52715" lon="5.31343">
        <ele>253.54675</ele>
        <time>2023-03-15T13:11:05.000Z</time>
      </trkpt>
      <trkpt lat="43.52717" lon="5.31342">
        <ele>253.60864</ele>
        <time>2023-03-15T13:11:07.000Z</time>
      </trkpt>
      <trkpt lat="43.52719" lon="5.31341">
        <ele>253.71477</ele>
        <time>2023-03-15T13:11:09.000Z</time>
      </trkpt>
      <trkpt lat="43.52722" lon="5.3134">
        <ele>253.82309</ele>
        <time>2023-03-15T13:11:11.000Z</time>
      </trkpt>
      <trkpt lat="43.52724" lon="5.31339">
        <ele>253.98698</ele>
        <time>2023-03-15T13:11:13.000Z</time>
      </trkpt>
      <trkpt lat="43.52726" lon="5.31338">
        <ele>254.15999</ele>
        <time>2023-03-15T13:11:15.000Z</time>
      </trkpt>
      <trkpt lat="43.52728" lon="5.31336">
        <ele>254.35844</ele>
        <time>2023-03-15T13:11:17.000Z</time>
      </trkpt>
      <trkpt lat="43.5273" lon="5.31335">
        <ele>254.53291</ele>
        <time>2023-03-15T13:11:19.000Z</time>
      </trkpt>
      <trkpt lat="43.52732" lon="5.31334">
        <ele>254.72871</ele>
        <time>2023-03-15T13:11:21.000Z</time>
      </trkpt>
      <trkpt lat="43.52734" lon="5.31332">
        <ele>254.87198</ele>
        <time>2023-03-15T13:11:23.000Z</time>
      </trkpt>
      <trkpt lat="43.52737" lon="5.31331">
        <ele>255.03738</ele>
        <time>2023-03-15T13:11:25.000Z</time>
      </trkpt>
      <trkpt lat="43.52739" lon="5.3133">
        <ele>255.15112</ele>
        <time>2023-03-15T13:11:27.000Z</time>
      </trkpt>
      <trkpt lat="43.52741" lon="5.31329">
        <ele>255.25674</ele>
        <time>2023-03-15T13:11:29.000Z</time>
      </trkpt>
      <trkpt lat="43.52743" lon="5.31329">
        <ele>255.34412</ele>
        <time>2023-03-15T13:11:31.000Z</time>
      </trkpt>
      <trkpt lat="43.52745" lon="5.31328">
        <ele>255.42325</ele>
        <time>2023-03-15T13:11:33.000Z</time>
      </trkpt>
      <trkpt lat="43.52748" lon="5.31328">
        <ele>255.48282</ele>
        <time>2023-03-15T13:11:35.000Z</time>
      </trkpt>
      <trkpt lat="43.5275" lon="5.31328">
        <ele>255.51811</ele>
        <time>2023-03-15T13:11:37.000Z</time>
      </trkpt>
      <trkpt lat="43.52752" lon="5.31328">
        <ele>255.51717</ele>
        <time>2023-03-15T13:11:39.000Z</time>
      </trkpt>
      <trkpt lat="43.52754" lon="5.31329">
        <ele>255.48271</ele>
        <time>2023-03-15T13:11:41.000Z</time>
      </trkpt>
      <trkpt lat="43.52756" lon="5.31329">
        <ele>255.4603</ele>
        <time>2023-03-15T13:11:43.000Z</time>
      </trkpt>
      <trkpt lat="43.52759" lon="5.31328">
        <ele>255.418</ele>
        <time>2023-03-15T13:11:45.000Z</time>
      </trkpt>
      <trkpt lat="43.52761" lon="5.31327">
        <ele>255.34309</ele>
        <time>2023-03-15T13:11:47.000Z</time>
      </trkpt>
      <trkpt lat="43.52763" lon="5.31327">
        <ele>255.20186</ele>
        <time>2023-03-15T13:11:49.000Z</time>
      </trkpt>
      <trkpt lat="43.52766" lon="5.31327">
        <ele>255.07556</ele>
        <time>2023-03-15T13:11:51.000Z</time>
      </trkpt>
      <trkpt lat="43.52768" lon="5.31328">
        <ele>254.90483</ele>
        <time>2023-03-15T13:11:53.000Z</time>
      </trkpt>
      <trkpt lat="43.5277" lon="5.31327">
        <ele>254.71426</ele>
        <time>2023-03-15T13:11:55.000Z</time>
      </trkpt>
      <trkpt lat="43.52772" lon="5.31327">
        <ele>254.48352</ele>
        <time>2023-03-15T13:11:57.000Z</time>
      </trkpt>
      <trkpt lat="43.52774" lon="5.31327">
        <ele>254.25772</ele>
        <time>2023-03-15T13:11:59.000Z</time>
      </trkpt>
      <trkpt lat="43.52776" lon="5.31327">
        <ele>253.96255</ele>
        <time>2023-03-15T13:12:01.000Z</time>
      </trkpt>
      <trkpt lat="43.52778" lon="5.31326">
        <ele>253.68625</ele>
        <time>2023-03-15T13:12:03.000Z</time>
      </trkpt>
      <trkpt lat="43.5278" lon="5.31326">
        <ele>253.37862</ele>
        <time>2023-03-15T13:12:05.000Z</time>
      </trkpt>
      <trkpt lat="43.52782" lon="5.31326">
        <ele>253.10966</ele>
        <time>2023-03-15T13:12:07.000Z</time>
      </trkpt>
      <trkpt lat="43.52784" lon="5.31327">
        <ele>252.85229</ele>
        <time>2023-03-15T13:12:09.000Z</time>
      </trkpt>
      <trkpt lat="43.52786" lon="5.31327">
        <ele>252.63034</ele>
        <time>2023-03-15T13:12:11.000Z</time>
      </trkpt>
      <trkpt lat="43.52789" lon="5.31327">
        <ele>252.45413</ele>
        <time>2023-03-15T13:12:13.000Z</time>
      </trkpt>
      <trkpt lat="43.52791" lon="5.31327">
        <ele>252.29977</ele>
        <time>2023-03-15T13:12:15.000Z</time>
      </trkpt>
      <trkpt lat="43.52793" lon="5.31327">
        <ele>252.17862</ele>
        <time>2023-03-15T13:12:17.000Z</time>
      </trkpt>
      <trkpt lat="43.52795" lon="5.31327">
        <ele>252.05032</ele>
        <time>2023-03-15T13:12:19.000Z</time>
      </trkpt>
      <trkpt lat="43.52797" lon="5.31327">
        <ele>251.92178</ele>
        <time>2023-03-15T13:12:21.000Z</time>
      </trkpt>
      <trkpt lat="43.52799" lon="5.31327">
        <ele>251.8204</ele>
        <time>2023-03-15T13:12:23.000Z</time>
      </trkpt>
      <trkpt lat="43.52802" lon="5.31327">
        <ele>251.7821</ele>
        <time>2023-03-15T13:12:25.000Z</time>
      </trkpt>
      <trkpt lat="43.52804" lon="5.31327">
        <ele>251.75996</ele>
        <time>2023-03-15T13:12:27.000Z</time>
      </trkpt>
      <trkpt lat="43.52806" lon="5.31327">
        <ele>251.78735</ele>
        <time>2023-03-15T13:12:29.000Z</time>
      </trkpt>
      <trkpt lat="43.52808" lon="5.31327">
        <ele>251.81477</ele>
        <time>2023-03-15T13:12:31.000Z</time>
      </trkpt>
      <trkpt lat="43.5281" lon="5.31326">
        <ele>251.80518</ele>
        <time>2023-03-15T13:12:33.000Z</time>
      </trkpt>
      <trkpt lat="43.52812" lon="5.31325">
        <ele>251.79807</ele>
        <time>2023-03-15T13:12:35.000Z</time>
      </trkpt>
      <trkpt lat="43.52815" lon="5.31325">
        <ele>251.82275</ele>
        <time>2023-03-15T13:12:37.000Z</time>
      </trkpt>
      <trkpt lat="43.52817" lon="5.31324">
        <ele>251.83765</ele>
        <time>2023-03-15T13:12:39.000Z</time>
      </trkpt>
      <trkpt lat="43.52819" lon="5.31324">
        <ele>251.924</ele>
        <time>2023-03-15T13:12:41.000Z</time>
      </trkpt>
      <trkpt lat="43.52822" lon="5.31324">
        <ele>252.02261</ele>
        <time>2023-03-15T13:12:43.000Z</time>
      </trkpt>
      <trkpt lat="43.52823" lon="5.31323">
        <ele>252.14673</ele>
        <time>2023-03-15T13:12:45.000Z</time>
      </trkpt>
      <trkpt lat="43.52826" lon="5.31322">
        <ele>252.24048</ele>
        <time>2023-03-15T13:12:47.000Z</time>
      </trkpt>
      <trkpt lat="43.52828" lon="5.31322">
        <ele>252.30074</ele>
        <time>2023-03-15T13:12:49.000Z</time>
      </trkpt>
      <trkpt lat="43.52831" lon="5.31321">
        <ele>252.36023</ele>
        <time>2023-03-15T13:12:51.000Z</time>
      </trkpt>
      <trkpt lat="43.52833" lon="5.3132">
        <ele>252.42229</ele>
        <time>2023-03-15T13:12:53.000Z</time>
      </trkpt>
      <trkpt lat="43.52835" lon="5.31319">
        <ele>252.45248</ele>
        <time>2023-03-15T13:12:55.000Z</time>
      </trkpt>
      <trkpt lat="43.52837" lon="5.31319">
        <ele>252.507</ele>
        <time>2023-03-15T13:12:57.000Z</time>
      </trkpt>
      <trkpt lat="43.52839" lon="5.31319">
        <ele>252.54306</ele>
        <time>2023-03-15T13:12:59.000Z</time>
      </trkpt>
      <trkpt lat="43.52841" lon="5.31318">
        <ele>252.61491</ele>
        <time>2023-03-15T13:13:01.000Z</time>
      </trkpt>
      <trkpt lat="43.52844" lon="5.31317">
        <ele>252.65596</ele>
        <time>2023-03-15T13:13:03.000Z</time>
      </trkpt>
      <trkpt lat="43.52846" lon="5.31317">
        <ele>252.63867</ele>
        <time>2023-03-15T13:13:05.000Z</time>
      </trkpt>
      <trkpt lat="43.52848" lon="5.31317">
        <ele>252.58646</ele>
        <time>2023-03-15T13:13:07.000Z</time>
      </trkpt>
      <trkpt lat="43.5285" lon="5.31317">
        <ele>252.50496</ele>
        <time>2023-03-15T13:13:09.000Z</time>
      </trkpt>
      <trkpt lat="43.52852" lon="5.31317">
        <ele>252.42484</ele>
        <time>2023-03-15T13:13:11.000Z</time>
      </trkpt>
      <trkpt lat="43.52854" lon="5.31317">
        <ele>252.35336</ele>
        <time>2023-03-15T13:13:13.000Z</time>
      </trkpt>
      <trkpt lat="43.52856" lon="5.31317">
        <ele>252.26242</ele>
        <time>2023-03-15T13:13:15.000Z</time>
      </trkpt>
      <trkpt lat="43.52858" lon="5.31316">
        <ele>252.1666</ele>
        <time>2023-03-15T13:13:17.000Z</time>
      </trkpt>
      <trkpt lat="43.5286" lon="5.31315">
        <ele>252.05569</ele>
        <time>2023-03-15T13:13:19.000Z</time>
      </trkpt>
      <trkpt lat="43.52862" lon="5.31314">
        <ele>251.91492</ele>
        <time>2023-03-15T13:13:21.000Z</time>
      </trkpt>
      <trkpt lat="43.52865" lon="5.31314">
        <ele>251.73874</ele>
        <time>2023-03-15T13:13:24.000Z</time>
      </trkpt>
      <trkpt lat="43.52867" lon="5.31314">
        <ele>251.54024</ele>
        <time>2023-03-15T13:13:26.000Z</time>
      </trkpt>
      <trkpt lat="43.52869" lon="5.31314">
        <ele>251.35425</ele>
        <time>2023-03-15T13:13:28.000Z</time>
      </trkpt>
      <trkpt lat="43.52871" lon="5.31314">
        <ele>251.21028</ele>
        <time>2023-03-15T13:13:30.000Z</time>
      </trkpt>
      <trkpt lat="43.52873" lon="5.31314">
        <ele>251.12178</ele>
        <time>2023-03-15T13:13:32.000Z</time>
      </trkpt>
      <trkpt lat="43.52875" lon="5.31314">
        <ele>251.02946</ele>
        <time>2023-03-15T13:13:34.000Z</time>
      </trkpt>
      <trkpt lat="43.52878" lon="5.31315">
        <ele>250.97635</ele>
        <time>2023-03-15T13:13:36.000Z</time>
      </trkpt>
      <trkpt lat="43.5288" lon="5.31315">
        <ele>250.86069</ele>
        <time>2023-03-15T13:13:38.000Z</time>
      </trkpt>
      <trkpt lat="43.52882" lon="5.31315">
        <ele>250.73824</ele>
        <time>2023-03-15T13:13:40.000Z</time>
      </trkpt>
      <trkpt lat="43.52884" lon="5.31315">
        <ele>250.5562</ele>
        <time>2023-03-15T13:13:42.000Z</time>
      </trkpt>
      <trkpt lat="43.52887" lon="5.31316">
        <ele>250.37381</ele>
        <time>2023-03-15T13:13:44.000Z</time>
      </trkpt>
      <trkpt lat="43.52889" lon="5.31316">
        <ele>250.22403</ele>
        <time>2023-03-15T13:13:46.000Z</time>
      </trkpt>
      <trkpt lat="43.52891" lon="5.31316">
        <ele>250.1116</ele>
        <time>2023-03-15T13:13:48.000Z</time>
      </trkpt>
      <trkpt lat="43.52893" lon="5.31316">
        <ele>250.02341</ele>
        <time>2023-03-15T13:13:50.000Z</time>
      </trkpt>
      <trkpt lat="43.52895" lon="5.31315">
        <ele>249.90149</ele>
        <time>2023-03-15T13:13:52.000Z</time>
      </trkpt>
      <trkpt lat="43.52897" lon="5.31315">
        <ele>249.75879</ele>
        <time>2023-03-15T13:13:54.000Z</time>
      </trkpt>
      <trkpt lat="43.52899" lon="5.31315">
        <ele>249.61446</ele>
        <time>2023-03-15T13:13:56.000Z</time>
      </trkpt>
      <trkpt lat="43.52902" lon="5.31315">
        <ele>249.51521</ele>
        <time>2023-03-15T13:13:58.000Z</time>
      </trkpt>
      <trkpt lat="43.52904" lon="5.31314">
        <ele>249.4451</ele>
        <time>2023-03-15T13:14:00.000Z</time>
      </trkpt>
      <trkpt lat="43.52906" lon="5.31313">
        <ele>249.33728</ele>
        <time>2023-03-15T13:14:02.000Z</time>
      </trkpt>
      <trkpt lat="43.52908" lon="5.31312">
        <ele>249.2386</ele>
        <time>2023-03-15T13:14:04.000Z</time>
      </trkpt>
      <trkpt lat="43.5291" lon="5.31311">
        <ele>249.13017</ele>
        <time>2023-03-15T13:14:06.000Z</time>
      </trkpt>
      <trkpt lat="43.52911" lon="5.3131">
        <ele>249.02701</ele>
        <time>2023-03-15T13:14:08.000Z</time>
      </trkpt>
      <trkpt lat="43.52914" lon="5.31309">
        <ele>248.91496</ele>
        <time>2023-03-15T13:14:11.000Z</time>
      </trkpt>
      <trkpt lat="43.52916" lon="5.31308">
        <ele>248.72258</ele>
        <time>2023-03-15T13:14:13.000Z</time>
      </trkpt>
      <trkpt lat="43.52917" lon="5.31306">
        <ele>248.52763</ele>
        <time>2023-03-15T13:14:15.000Z</time>
      </trkpt>
      <trkpt lat="43.52919" lon="5.31305">
        <ele>248.33374</ele>
        <time>2023-03-15T13:14:17.000Z</time>
      </trkpt>
      <trkpt lat="43.52921" lon="5.31303">
        <ele>248.1709</ele>
        <time>2023-03-15T13:14:19.000Z</time>
      </trkpt>
      <trkpt lat="43.52922" lon="5.31301">
        <ele>248.05818</ele>
        <time>2023-03-15T13:14:21.000Z</time>
      </trkpt>
      <trkpt lat="43.52923" lon="5.31298">
        <ele>248.00803</ele>
        <time>2023-03-15T13:14:23.000Z</time>
      </trkpt>
      <trkpt lat="43.52925" lon="5.31296">
        <ele>247.96538</ele>
        <time>2023-03-15T13:14:25.000Z</time>
      </trkpt>
      <trkpt lat="43.52926" lon="5.31294">
        <ele>247.91049</ele>
        <time>2023-03-15T13:14:27.000Z</time>
      </trkpt>
      <trkpt lat="43.52928" lon="5.31292">
        <ele>247.85147</ele>
        <time>2023-03-15T13:14:29.000Z</time>
      </trkpt>
      <trkpt lat="43.52929" lon="5.31291">
        <ele>247.80807</ele>
        <time>2023-03-15T13:14:31.000Z</time>
      </trkpt>
      <trkpt lat="43.52931" lon="5.31289">
        <ele>247.81487</ele>
        <time>2023-03-15T13:14:33.000Z</time>
      </trkpt>
      <trkpt lat="43.52931" lon="5.31285">
        <ele>247.75888</ele>
        <time>2023-03-15T13:14:35.000Z</time>
      </trkpt>
      <trkpt lat="43.52933" lon="5.31284">
        <ele>247.71802</ele>
        <time>2023-03-15T13:14:38.000Z</time>
      </trkpt>
      <trkpt lat="43.52935" lon="5.31282">
        <ele>247.62129</ele>
        <time>2023-03-15T13:14:41.000Z</time>
      </trkpt>
      <trkpt lat="43.52937" lon="5.3128">
        <ele>247.51718</ele>
        <time>2023-03-15T13:14:43.000Z</time>
      </trkpt>
      <trkpt lat="43.52938" lon="5.31279">
        <ele>247.47786</ele>
        <time>2023-03-15T13:14:45.000Z</time>
      </trkpt>
      <trkpt lat="43.5294" lon="5.31278">
        <ele>247.49353</ele>
        <time>2023-03-15T13:14:47.000Z</time>
      </trkpt>
      <trkpt lat="43.52941" lon="5.31275">
        <ele>247.53886</ele>
        <time>2023-03-15T13:14:50.000Z</time>
      </trkpt>
      <trkpt lat="43.52944" lon="5.31273">
        <ele>247.58218</ele>
        <time>2023-03-15T13:14:53.000Z</time>
      </trkpt>
      <trkpt lat="43.52946" lon="5.31271">
        <ele>247.62949</ele>
        <time>2023-03-15T13:14:55.000Z</time>
      </trkpt>
      <trkpt lat="43.52948" lon="5.3127">
        <ele>247.68233</ele>
        <time>2023-03-15T13:14:57.000Z</time>
      </trkpt>
      <trkpt lat="43.52949" lon="5.31269">
        <ele>247.75693</ele>
        <time>2023-03-15T13:14:59.000Z</time>
      </trkpt>
      <trkpt lat="43.52951" lon="5.31268">
        <ele>247.82108</ele>
        <time>2023-03-15T13:15:01.000Z</time>
      </trkpt>
      <trkpt lat="43.52953" lon="5.31267">
        <ele>247.92148</ele>
        <time>2023-03-15T13:15:03.000Z</time>
      </trkpt>
      <trkpt lat="43.52955" lon="5.31266">
        <ele>247.96823</ele>
        <time>2023-03-15T13:15:05.000Z</time>
      </trkpt>
      <trkpt lat="43.52957" lon="5.31264">
        <ele>247.95691</ele>
        <time>2023-03-15T13:15:07.000Z</time>
      </trkpt>
      <trkpt lat="43.52959" lon="5.31264">
        <ele>247.91141</ele>
        <time>2023-03-15T13:15:09.000Z</time>
      </trkpt>
      <trkpt lat="43.52961" lon="5.31263">
        <ele>247.90356</ele>
        <time>2023-03-15T13:15:11.000Z</time>
      </trkpt>
      <trkpt lat="43.52963" lon="5.31262">
        <ele>247.92676</ele>
        <time>2023-03-15T13:15:13.000Z</time>
      </trkpt>
      <trkpt lat="43.52966" lon="5.31261">
        <ele>247.91643</ele>
        <time>2023-03-15T13:15:15.000Z</time>
      </trkpt>
      <trkpt lat="43.52968" lon="5.31261">
        <ele>247.85945</ele>
        <time>2023-03-15T13:15:17.000Z</time>
      </trkpt>
      <trkpt lat="43.5297" lon="5.3126">
        <ele>247.91708</ele>
        <time>2023-03-15T13:15:19.000Z</time>
      </trkpt>
      <trkpt lat="43.52972" lon="5.3126">
        <ele>247.89803</ele>
        <time>2023-03-15T13:15:21.000Z</time>
      </trkpt>
      <trkpt lat="43.52974" lon="5.3126">
        <ele>247.90738</ele>
        <time>2023-03-15T13:15:23.000Z</time>
      </trkpt>
      <trkpt lat="43.52976" lon="5.31259">
        <ele>247.91887</ele>
        <time>2023-03-15T13:15:25.000Z</time>
      </trkpt>
      <trkpt lat="43.52977" lon="5.31258">
        <ele>247.91206</ele>
        <time>2023-03-15T13:15:27.000Z</time>
      </trkpt>
      <trkpt lat="43.52979" lon="5.31256">
        <ele>247.86874</ele>
        <time>2023-03-15T13:15:30.000Z</time>
      </trkpt>
      <trkpt lat="43.52981" lon="5.31255">
        <ele>247.85295</ele>
        <time>2023-03-15T13:15:32.000Z</time>
      </trkpt>
      <trkpt lat="43.52983" lon="5.31254">
        <ele>247.80542</ele>
        <time>2023-03-15T13:15:34.000Z</time>
      </trkpt>
      <trkpt lat="43.52985" lon="5.31253">
        <ele>247.68433</ele>
        <time>2023-03-15T13:15:36.000Z</time>
      </trkpt>
      <trkpt lat="43.52987" lon="5.31252">
        <ele>247.53882</ele>
        <time>2023-03-15T13:15:38.000Z</time>
      </trkpt>
      <trkpt lat="43.52989" lon="5.31251">
        <ele>247.46237</ele>
        <time>2023-03-15T13:15:40.000Z</time>
      </trkpt>
      <trkpt lat="43.52991" lon="5.31249">
        <ele>247.40933</ele>
        <time>2023-03-15T13:15:42.000Z</time>
      </trkpt>
      <trkpt lat="43.52992" lon="5.31247">
        <ele>247.34946</ele>
        <time>2023-03-15T13:15:44.000Z</time>
      </trkpt>
      <trkpt lat="43.52993" lon="5.31245">
        <ele>247.33374</ele>
        <time>2023-03-15T13:15:46.000Z</time>
      </trkpt>
      <trkpt lat="43.52995" lon="5.31243">
        <ele>247.34705</ele>
        <time>2023-03-15T13:15:48.000Z</time>
      </trkpt>
      <trkpt lat="43.52996" lon="5.31241">
        <ele>247.36736</ele>
        <time>2023-03-15T13:15:50.000Z</time>
      </trkpt>
      <trkpt lat="43.52997" lon="5.31239">
        <ele>247.41162</ele>
        <time>2023-03-15T13:15:52.000Z</time>
      </trkpt>
      <trkpt lat="43.52999" lon="5.31237">
        <ele>247.41866</ele>
        <time>2023-03-15T13:15:54.000Z</time>
      </trkpt>
      <trkpt lat="43.52999" lon="5.31235">
        <ele>247.40401</ele>
        <time>2023-03-15T13:15:56.000Z</time>
      </trkpt>
      <trkpt lat="43.53" lon="5.31232">
        <ele>247.3387</ele>
        <time>2023-03-15T13:15:58.000Z</time>
      </trkpt>
      <trkpt lat="43.53002" lon="5.31228">
        <ele>247.20889</ele>
        <time>2023-03-15T13:16:02.000Z</time>
      </trkpt>
      <trkpt lat="43.53003" lon="5.31226">
        <ele>247.06302</ele>
        <time>2023-03-15T13:16:04.000Z</time>
      </trkpt>
      <trkpt lat="43.53004" lon="5.31224">
        <ele>246.91748</ele>
        <time>2023-03-15T13:16:06.000Z</time>
      </trkpt>
      <trkpt lat="43.53006" lon="5.31221">
        <ele>246.72644</ele>
        <time>2023-03-15T13:16:09.000Z</time>
      </trkpt>
      <trkpt lat="43.53007" lon="5.31219">
        <ele>246.54318</ele>
        <time>2023-03-15T13:16:11.000Z</time>
      </trkpt>
      <trkpt lat="43.53009" lon="5.31217">
        <ele>246.34013</ele>
        <time>2023-03-15T13:16:13.000Z</time>
      </trkpt>
      <trkpt lat="43.53011" lon="5.31216">
        <ele>246.08118</ele>
        <time>2023-03-15T13:16:15.000Z</time>
      </trkpt>
      <trkpt lat="43.53013" lon="5.31215">
        <ele>245.84521</ele>
        <time>2023-03-15T13:16:17.000Z</time>
      </trkpt>
      <trkpt lat="43.53015" lon="5.31214">
        <ele>245.67464</ele>
        <time>2023-03-15T13:16:19.000Z</time>
      </trkpt>
      <trkpt lat="43.53017" lon="5.31213">
        <ele>245.5271</ele>
        <time>2023-03-15T13:16:21.000Z</time>
      </trkpt>
      <trkpt lat="43.53018" lon="5.31212">
        <ele>245.28238</ele>
        <time>2023-03-15T13:16:23.000Z</time>
      </trkpt>
      <trkpt lat="43.5302" lon="5.31211">
        <ele>245.00504</ele>
        <time>2023-03-15T13:16:25.000Z</time>
      </trkpt>
      <trkpt lat="43.53022" lon="5.3121">
        <ele>244.64677</ele>
        <time>2023-03-15T13:16:27.000Z</time>
      </trkpt>
      <trkpt lat="43.53024" lon="5.31209">
        <ele>244.29073</ele>
        <time>2023-03-15T13:16:29.000Z</time>
      </trkpt>
      <trkpt lat="43.53026" lon="5.31209">
        <ele>243.95757</ele>
        <time>2023-03-15T13:16:31.000Z</time>
      </trkpt>
      <trkpt lat="43.53028" lon="5.31208">
        <ele>243.65727</ele>
        <time>2023-03-15T13:16:33.000Z</time>
      </trkpt>
      <trkpt lat="43.5303" lon="5.31207">
        <ele>243.32315</ele>
        <time>2023-03-15T13:16:35.000Z</time>
      </trkpt>
      <trkpt lat="43.53032" lon="5.31206">
        <ele>242.97783</ele>
        <time>2023-03-15T13:16:37.000Z</time>
      </trkpt>
      <trkpt lat="43.53034" lon="5.31205">
        <ele>242.66924</ele>
        <time>2023-03-15T13:16:39.000Z</time>
      </trkpt>
      <trkpt lat="43.53036" lon="5.31204">
        <ele>242.44865</ele>
        <time>2023-03-15T13:16:41.000Z</time>
      </trkpt>
      <trkpt lat="43.53038" lon="5.31202">
        <ele>242.23291</ele>
        <time>2023-03-15T13:16:44.000Z</time>
      </trkpt>
      <trkpt lat="43.5304" lon="5.31201">
        <ele>242.1409</ele>
        <time>2023-03-15T13:16:46.000Z</time>
      </trkpt>
      <trkpt lat="43.53041" lon="5.312">
        <ele>241.99771</ele>
        <time>2023-03-15T13:16:48.000Z</time>
      </trkpt>
      <trkpt lat="43.53043" lon="5.31199">
        <ele>241.94833</ele>
        <time>2023-03-15T13:16:50.000Z</time>
      </trkpt>
      <trkpt lat="43.53045" lon="5.31198">
        <ele>241.89462</ele>
        <time>2023-03-15T13:16:52.000Z</time>
      </trkpt>
      <trkpt lat="43.53047" lon="5.31197">
        <ele>241.83098</ele>
        <time>2023-03-15T13:16:54.000Z</time>
      </trkpt>
      <trkpt lat="43.53049" lon="5.31196">
        <ele>241.80403</ele>
        <time>2023-03-15T13:16:56.000Z</time>
      </trkpt>
      <trkpt lat="43.5305" lon="5.31195">
        <ele>241.78122</ele>
        <time>2023-03-15T13:16:58.000Z</time>
      </trkpt>
      <trkpt lat="43.53052" lon="5.31193">
        <ele>241.75655</ele>
        <time>2023-03-15T13:17:01.000Z</time>
      </trkpt>
      <trkpt lat="43.53054" lon="5.31192">
        <ele>241.74783</ele>
        <time>2023-03-15T13:17:04.000Z</time>
      </trkpt>
      <trkpt lat="43.53056" lon="5.31192">
        <ele>241.74368</ele>
        <time>2023-03-15T13:17:07.000Z</time>
      </trkpt>
      <trkpt lat="43.53059" lon="5.31191">
        <ele>241.74052</ele>
        <time>2023-03-15T13:17:10.000Z</time>
      </trkpt>
      <trkpt lat="43.53061" lon="5.31192">
        <ele>241.77583</ele>
        <time>2023-03-15T13:17:13.000Z</time>
      </trkpt>
      <trkpt lat="43.53063" lon="5.31192">
        <ele>241.78967</ele>
        <time>2023-03-15T13:17:15.000Z</time>
      </trkpt>
      <trkpt lat="43.53066" lon="5.31191">
        <ele>241.8093</ele>
        <time>2023-03-15T13:17:18.000Z</time>
      </trkpt>
      <trkpt lat="43.53067" lon="5.3119">
        <ele>241.7668</ele>
        <time>2023-03-15T13:17:20.000Z</time>
      </trkpt>
      <trkpt lat="43.53069" lon="5.31189">
        <ele>241.7363</ele>
        <time>2023-03-15T13:17:22.000Z</time>
      </trkpt>
      <trkpt lat="43.53071" lon="5.31188">
        <ele>241.74544</ele>
        <time>2023-03-15T13:17:24.000Z</time>
      </trkpt>
      <trkpt lat="43.53073" lon="5.31186">
        <ele>241.75652</ele>
        <time>2023-03-15T13:17:27.000Z</time>
      </trkpt>
      <trkpt lat="43.53072" lon="5.31184">
        <ele>241.68071</ele>
        <time>2023-03-15T13:21:38.000Z</time>
      </trkpt>
      <trkpt lat="43.53072" lon="5.31182">
        <ele>241.61826</ele>
        <time>2023-03-15T13:22:03.000Z</time>
      </trkpt>
      <trkpt lat="43.53072" lon="5.31178">
        <ele>241.4239</ele>
        <time>2023-03-15T13:22:06.000Z</time>
      </trkpt>
      <trkpt lat="43.53072" lon="5.31175">
        <ele>241.23218</ele>
        <time>2023-03-15T13:22:08.000Z</time>
      </trkpt>
      <trkpt lat="43.53072" lon="5.31173">
        <ele>240.97324</ele>
        <time>2023-03-15T13:22:10.000Z</time>
      </trkpt>
      <trkpt lat="43.53072" lon="5.31169">
        <ele>240.80649</ele>
        <time>2023-03-15T13:22:13.000Z</time>
      </trkpt>
      <trkpt lat="43.53072" lon="5.31167">
        <ele>240.68164</ele>
        <time>2023-03-15T13:22:15.000Z</time>
      </trkpt>
      <trkpt lat="43.53072" lon="5.31164">
        <ele>240.53687</ele>
        <time>2023-03-15T13:22:17.000Z</time>
      </trkpt>
      <trkpt lat="43.53071" lon="5.31161">
        <ele>240.31912</ele>
        <time>2023-03-15T13:22:19.000Z</time>
      </trkpt>
      <trkpt lat="43.53071" lon="5.31159">
        <ele>240.12061</ele>
        <time>2023-03-15T13:22:21.000Z</time>
      </trkpt>
      <trkpt lat="43.53071" lon="5.31156">
        <ele>239.77975</ele>
        <time>2023-03-15T13:22:24.000Z</time>
      </trkpt>
      <trkpt lat="43.53071" lon="5.31153">
        <ele>239.37634</ele>
        <time>2023-03-15T13:22:27.000Z</time>
      </trkpt>
      <trkpt lat="43.5307" lon="5.3115">
        <ele>239.02319</ele>
        <time>2023-03-15T13:22:29.000Z</time>
      </trkpt>
      <trkpt lat="43.53069" lon="5.31148">
        <ele>238.67581</ele>
        <time>2023-03-15T13:22:31.000Z</time>
      </trkpt>
      <trkpt lat="43.53069" lon="5.31145">
        <ele>238.36807</ele>
        <time>2023-03-15T13:22:33.000Z</time>
      </trkpt>
      <trkpt lat="43.53068" lon="5.31143">
        <ele>238.07056</ele>
        <time>2023-03-15T13:22:35.000Z</time>
      </trkpt>
      <trkpt lat="43.53067" lon="5.3114">
        <ele>237.85759</ele>
        <time>2023-03-15T13:22:37.000Z</time>
      </trkpt>
      <trkpt lat="43.53067" lon="5.31138">
        <ele>237.62936</ele>
        <time>2023-03-15T13:22:39.000Z</time>
      </trkpt>
      <trkpt lat="43.53066" lon="5.31135">
        <ele>237.38406</ele>
        <time>2023-03-15T13:22:41.000Z</time>
      </trkpt>
      <trkpt lat="43.53066" lon="5.31133">
        <ele>237.05396</ele>
        <time>2023-03-15T13:22:43.000Z</time>
      </trkpt>
      <trkpt lat="43.53065" lon="5.3113">
        <ele>236.83879</ele>
        <time>2023-03-15T13:22:45.000Z</time>
      </trkpt>
      <trkpt lat="43.53065" lon="5.31127">
        <ele>236.66402</ele>
        <time>2023-03-15T13:22:47.000Z</time>
      </trkpt>
      <trkpt lat="43.53064" lon="5.31125">
        <ele>236.60034</ele>
        <time>2023-03-15T13:22:49.000Z</time>
      </trkpt>
      <trkpt lat="43.53063" lon="5.31122">
        <ele>236.51997</ele>
        <time>2023-03-15T13:22:51.000Z</time>
      </trkpt>
      <trkpt lat="43.53063" lon="5.31119">
        <ele>236.46553</ele>
        <time>2023-03-15T13:22:53.000Z</time>
      </trkpt>
      <trkpt lat="43.53062" lon="5.31116">
        <ele>236.33101</ele>
        <time>2023-03-15T13:22:55.000Z</time>
      </trkpt>
      <trkpt lat="43.53061" lon="5.31114">
        <ele>236.19339</ele>
        <time>2023-03-15T13:22:57.000Z</time>
      </trkpt>
      <trkpt lat="43.5306" lon="5.31111">
        <ele>236.04521</ele>
        <time>2023-03-15T13:22:59.000Z</time>
      </trkpt>
      <trkpt lat="43.5306" lon="5.31109">
        <ele>235.96785</ele>
        <time>2023-03-15T13:23:01.000Z</time>
      </trkpt>
      <trkpt lat="43.53059" lon="5.31106">
        <ele>235.91512</ele>
        <time>2023-03-15T13:23:03.000Z</time>
      </trkpt>
      <trkpt lat="43.53059" lon="5.31103">
        <ele>235.98306</ele>
        <time>2023-03-15T13:23:05.000Z</time>
      </trkpt>
      <trkpt lat="43.53058" lon="5.31101">
        <ele>236.05356</ele>
        <time>2023-03-15T13:23:07.000Z</time>
      </trkpt>
      <trkpt lat="43.53058" lon="5.31098">
        <ele>236.03235</ele>
        <time>2023-03-15T13:23:09.000Z</time>
      </trkpt>
      <trkpt lat="43.53057" lon="5.31096">
        <ele>236.01071</ele>
        <time>2023-03-15T13:23:11.000Z</time>
      </trkpt>
      <trkpt lat="43.53056" lon="5.31093">
        <ele>235.91882</ele>
        <time>2023-03-15T13:23:14.000Z</time>
      </trkpt>
      <trkpt lat="43.53056" lon="5.3109">
        <ele>235.78255</ele>
        <time>2023-03-15T13:23:17.000Z</time>
      </trkpt>
      <trkpt lat="43.53054" lon="5.31088">
        <ele>235.68204</ele>
        <time>2023-03-15T13:23:23.000Z</time>
      </trkpt>
      <trkpt lat="43.53053" lon="5.31086">
        <ele>235.58701</ele>
        <time>2023-03-15T13:23:26.000Z</time>
      </trkpt>
      <trkpt lat="43.53053" lon="5.31082">
        <ele>235.50359</ele>
        <time>2023-03-15T13:23:29.000Z</time>
      </trkpt>
      <trkpt lat="43.53052" lon="5.31079">
        <ele>235.47993</ele>
        <time>2023-03-15T13:23:32.000Z</time>
      </trkpt>
      <trkpt lat="43.53052" lon="5.31076">
        <ele>235.43132</ele>
        <time>2023-03-15T13:23:35.000Z</time>
      </trkpt>
      <trkpt lat="43.53052" lon="5.31073">
        <ele>235.39282</ele>
        <time>2023-03-15T13:23:38.000Z</time>
      </trkpt>
      <trkpt lat="43.53052" lon="5.3107">
        <ele>235.36247</ele>
        <time>2023-03-15T13:23:40.000Z</time>
      </trkpt>
      <trkpt lat="43.53051" lon="5.31068">
        <ele>235.39746</ele>
        <time>2023-03-15T13:23:42.000Z</time>
      </trkpt>
      <trkpt lat="43.53051" lon="5.31065">
        <ele>235.44406</ele>
        <time>2023-03-15T13:23:44.000Z</time>
      </trkpt>
      <trkpt lat="43.53051" lon="5.31062">
        <ele>235.53723</ele>
        <time>2023-03-15T13:23:46.000Z</time>
      </trkpt>
      <trkpt lat="43.53051" lon="5.3106">
        <ele>235.66064</ele>
        <time>2023-03-15T13:23:48.000Z</time>
      </trkpt>
      <trkpt lat="43.5305" lon="5.31056">
        <ele>235.87671</ele>
        <time>2023-03-15T13:23:51.000Z</time>
      </trkpt>
      <trkpt lat="43.53049" lon="5.31053">
        <ele>236.20447</ele>
        <time>2023-03-15T13:23:54.000Z</time>
      </trkpt>
      <trkpt lat="43.53049" lon="5.31049">
        <ele>236.51352</ele>
        <time>2023-03-15T13:23:56.000Z</time>
      </trkpt>
      <trkpt lat="43.53049" lon="5.31046">
        <ele>236.79057</ele>
        <time>2023-03-15T13:23:58.000Z</time>
      </trkpt>
      <trkpt lat="43.53048" lon="5.31044">
        <ele>237.13599</ele>
        <time>2023-03-15T13:24:00.000Z</time>
      </trkpt>
      <trkpt lat="43.53049" lon="5.3104">
        <ele>237.55042</ele>
        <time>2023-03-15T13:24:02.000Z</time>
      </trkpt>
      <trkpt lat="43.53048" lon="5.31038">
        <ele>237.97379</ele>
        <time>2023-03-15T13:24:04.000Z</time>
      </trkpt>
      <trkpt lat="43.53048" lon="5.31035">
        <ele>238.38538</ele>
        <time>2023-03-15T13:24:06.000Z</time>
      </trkpt>
      <trkpt lat="43.53048" lon="5.31032">
        <ele>238.78828</ele>
        <time>2023-03-15T13:24:08.000Z</time>
      </trkpt>
      <trkpt lat="43.53048" lon="5.31029">
        <ele>239.11353</ele>
        <time>2023-03-15T13:24:10.000Z</time>
      </trkpt>
      <trkpt lat="43.53047" lon="5.31026">
        <ele>239.37296</ele>
        <time>2023-03-15T13:24:12.000Z</time>
      </trkpt>
      <trkpt lat="43.53047" lon="5.31023">
        <ele>239.6044</ele>
        <time>2023-03-15T13:24:14.000Z</time>
      </trkpt>
      <trkpt lat="43.53047" lon="5.3102">
        <ele>239.85913</ele>
        <time>2023-03-15T13:24:16.000Z</time>
      </trkpt>
      <trkpt lat="43.53047" lon="5.31016">
        <ele>240.08057</ele>
        <time>2023-03-15T13:24:18.000Z</time>
      </trkpt>
      <trkpt lat="43.53047" lon="5.31014">
        <ele>240.25212</ele>
        <time>2023-03-15T13:24:20.000Z</time>
      </trkpt>
      <trkpt lat="43.53047" lon="5.31011">
        <ele>240.41528</ele>
        <time>2023-03-15T13:24:22.000Z</time>
      </trkpt>
      <trkpt lat="43.53047" lon="5.31008">
        <ele>240.56332</ele>
        <time>2023-03-15T13:24:24.000Z</time>
      </trkpt>
      <trkpt lat="43.53046" lon="5.31006">
        <ele>240.67715</ele>
        <time>2023-03-15T13:24:26.000Z</time>
      </trkpt>
      <trkpt lat="43.53045" lon="5.31002">
        <ele>240.73743</ele>
        <time>2023-03-15T13:24:29.000Z</time>
      </trkpt>
      <trkpt lat="43.53044" lon="5.31">
        <ele>240.60544</ele>
        <time>2023-03-15T13:24:32.000Z</time>
      </trkpt>
      <trkpt lat="43.53043" lon="5.30997">
        <ele>240.30424</ele>
        <time>2023-03-15T13:24:35.000Z</time>
      </trkpt>
      <trkpt lat="43.53043" lon="5.30994">
        <ele>240.01822</ele>
        <time>2023-03-15T13:24:38.000Z</time>
      </trkpt>
      <trkpt lat="43.53043" lon="5.30991">
        <ele>239.81543</ele>
        <time>2023-03-15T13:24:40.000Z</time>
      </trkpt>
      <trkpt lat="43.53044" lon="5.30989">
        <ele>239.63901</ele>
        <time>2023-03-15T13:24:42.000Z</time>
      </trkpt>
      <trkpt lat="43.53044" lon="5.30986">
        <ele>239.50798</ele>
        <time>2023-03-15T13:24:44.000Z</time>
      </trkpt>
      <trkpt lat="43.53043" lon="5.30983">
        <ele>239.39816</ele>
        <time>2023-03-15T13:24:46.000Z</time>
      </trkpt>
      <trkpt lat="43.53043" lon="5.30981">
        <ele>239.30376</ele>
        <time>2023-03-15T13:24:48.000Z</time>
      </trkpt>
      <trkpt lat="43.53043" lon="5.30977">
        <ele>239.1938</ele>
        <time>2023-03-15T13:24:50.000Z</time>
      </trkpt>
      <trkpt lat="43.53042" lon="5.30974">
        <ele>239.04768</ele>
        <time>2023-03-15T13:24:53.000Z</time>
      </trkpt>
      <trkpt lat="43.53041" lon="5.30971">
        <ele>238.95346</ele>
        <time>2023-03-15T13:24:55.000Z</time>
      </trkpt>
      <trkpt lat="43.53042" lon="5.30968">
        <ele>238.88574</ele>
        <time>2023-03-15T13:24:58.000Z</time>
      </trkpt>
      <trkpt lat="43.53043" lon="5.30965">
        <ele>238.84341</ele>
        <time>2023-03-15T13:25:00.000Z</time>
      </trkpt>
      <trkpt lat="43.53043" lon="5.30962">
        <ele>238.74287</ele>
        <time>2023-03-15T13:25:02.000Z</time>
      </trkpt>
      <trkpt lat="43.53043" lon="5.30959">
        <ele>238.55212</ele>
        <time>2023-03-15T13:25:04.000Z</time>
      </trkpt>
      <trkpt lat="43.53043" lon="5.30956">
        <ele>238.42773</ele>
        <time>2023-03-15T13:25:06.000Z</time>
      </trkpt>
      <trkpt lat="43.53044" lon="5.30953">
        <ele>238.28589</ele>
        <time>2023-03-15T13:25:08.000Z</time>
      </trkpt>
      <trkpt lat="43.53044" lon="5.3095">
        <ele>238.11177</ele>
        <time>2023-03-15T13:25:10.000Z</time>
      </trkpt>
      <trkpt lat="43.53045" lon="5.30947">
        <ele>237.98576</ele>
        <time>2023-03-15T13:25:12.000Z</time>
      </trkpt>
      <trkpt lat="43.53046" lon="5.30944">
        <ele>237.88364</ele>
        <time>2023-03-15T13:25:14.000Z</time>
      </trkpt>
      <trkpt lat="43.53046" lon="5.30942">
        <ele>237.95053</ele>
        <time>2023-03-15T13:25:16.000Z</time>
      </trkpt>
      <trkpt lat="43.53048" lon="5.30939">
        <ele>238.11397</ele>
        <time>2023-03-15T13:25:19.000Z</time>
      </trkpt>
      <trkpt lat="43.53048" lon="5.30936">
        <ele>238.12373</ele>
        <time>2023-03-15T13:25:21.000Z</time>
      </trkpt>
      <trkpt lat="43.53049" lon="5.30934">
        <ele>237.99797</ele>
        <time>2023-03-15T13:25:23.000Z</time>
      </trkpt>
      <trkpt lat="43.5305" lon="5.30931">
        <ele>237.86649</ele>
        <time>2023-03-15T13:25:25.000Z</time>
      </trkpt>
      <trkpt lat="43.5305" lon="5.30928">
        <ele>237.64005</ele>
        <time>2023-03-15T13:25:27.000Z</time>
      </trkpt>
      <trkpt lat="43.5305" lon="5.30925">
        <ele>237.34819</ele>
        <time>2023-03-15T13:25:29.000Z</time>
      </trkpt>
      <trkpt lat="43.5305" lon="5.30922">
        <ele>237.02475</ele>
        <time>2023-03-15T13:25:31.000Z</time>
      </trkpt>
      <trkpt lat="43.53051" lon="5.30919">
        <ele>236.78008</ele>
        <time>2023-03-15T13:25:33.000Z</time>
      </trkpt>
      <trkpt lat="43.53052" lon="5.30916">
        <ele>236.63553</ele>
        <time>2023-03-15T13:25:35.000Z</time>
      </trkpt>
      <trkpt lat="43.53052" lon="5.30913">
        <ele>236.39523</ele>
        <time>2023-03-15T13:25:37.000Z</time>
      </trkpt>
      <trkpt lat="43.53052" lon="5.3091">
        <ele>236.14151</ele>
        <time>2023-03-15T13:25:39.000Z</time>
      </trkpt>
      <trkpt lat="43.53053" lon="5.30908">
        <ele>235.82246</ele>
        <time>2023-03-15T13:25:41.000Z</time>
      </trkpt>
      <trkpt lat="43.53055" lon="5.30906">
        <ele>235.49356</ele>
        <time>2023-03-15T13:25:43.000Z</time>
      </trkpt>
      <trkpt lat="43.53055" lon="5.30903">
        <ele>235.23282</ele>
        <time>2023-03-15T13:25:45.000Z</time>
      </trkpt>
      <trkpt lat="43.53056" lon="5.309">
        <ele>234.90764</ele>
        <time>2023-03-15T13:25:47.000Z</time>
      </trkpt>
      <trkpt lat="43.53056" lon="5.30897">
        <ele>234.59148</ele>
        <time>2023-03-15T13:25:49.000Z</time>
      </trkpt>
      <trkpt lat="43.53056" lon="5.30894">
        <ele>234.28256</ele>
        <time>2023-03-15T13:25:51.000Z</time>
      </trkpt>
      <trkpt lat="43.53056" lon="5.30891">
        <ele>233.93037</ele>
        <time>2023-03-15T13:25:53.000Z</time>
      </trkpt>
      <trkpt lat="43.53057" lon="5.30888">
        <ele>233.56717</ele>
        <time>2023-03-15T13:25:55.000Z</time>
      </trkpt>
      <trkpt lat="43.53056" lon="5.30885">
        <ele>233.1938</ele>
        <time>2023-03-15T13:25:57.000Z</time>
      </trkpt>
      <trkpt lat="43.53056" lon="5.30883">
        <ele>232.83676</ele>
        <time>2023-03-15T13:25:59.000Z</time>
      </trkpt>
      <trkpt lat="43.53056" lon="5.3088">
        <ele>232.5199</ele>
        <time>2023-03-15T13:26:01.000Z</time>
      </trkpt>
      <trkpt lat="43.53056" lon="5.30877">
        <ele>232.25362</ele>
        <time>2023-03-15T13:26:03.000Z</time>
      </trkpt>
      <trkpt lat="43.53056" lon="5.30874">
        <ele>232.05551</ele>
        <time>2023-03-15T13:26:05.000Z</time>
      </trkpt>
      <trkpt lat="43.53055" lon="5.30871">
        <ele>231.88924</ele>
        <time>2023-03-15T13:26:07.000Z</time>
      </trkpt>
      <trkpt lat="43.53054" lon="5.30868">
        <ele>231.69763</ele>
        <time>2023-03-15T13:26:09.000Z</time>
      </trkpt>
      <trkpt lat="43.53052" lon="5.30866">
        <ele>231.48979</ele>
        <time>2023-03-15T13:26:11.000Z</time>
      </trkpt>
      <trkpt lat="43.53051" lon="5.30863">
        <ele>231.26242</ele>
        <time>2023-03-15T13:26:13.000Z</time>
      </trkpt>
      <trkpt lat="43.5305" lon="5.30861">
        <ele>230.97278</ele>
        <time>2023-03-15T13:26:15.000Z</time>
      </trkpt>
      <trkpt lat="43.53049" lon="5.30858">
        <ele>230.75407</ele>
        <time>2023-03-15T13:26:17.000Z</time>
      </trkpt>
      <trkpt lat="43.53048" lon="5.30856">
        <ele>230.56636</ele>
        <time>2023-03-15T13:26:19.000Z</time>
      </trkpt>
      <trkpt lat="43.53046" lon="5.30854">
        <ele>230.42648</ele>
        <time>2023-03-15T13:26:21.000Z</time>
      </trkpt>
      <trkpt lat="43.53045" lon="5.30851">
        <ele>230.36047</ele>
        <time>2023-03-15T13:26:23.000Z</time>
      </trkpt>
      <trkpt lat="43.53044" lon="5.30848">
        <ele>230.29578</ele>
        <time>2023-03-15T13:26:25.000Z</time>
      </trkpt>
      <trkpt lat="43.53042" lon="5.30845">
        <ele>230.23714</ele>
        <time>2023-03-15T13:26:27.000Z</time>
      </trkpt>
      <trkpt lat="43.53041" lon="5.30843">
        <ele>230.12796</ele>
        <time>2023-03-15T13:26:29.000Z</time>
      </trkpt>
      <trkpt lat="43.53039" lon="5.30841">
        <ele>230.00223</ele>
        <time>2023-03-15T13:26:31.000Z</time>
      </trkpt>
      <trkpt lat="43.53037" lon="5.30838">
        <ele>229.94254</ele>
        <time>2023-03-15T13:26:33.000Z</time>
      </trkpt>
      <trkpt lat="43.53036" lon="5.30836">
        <ele>229.8356</ele>
        <time>2023-03-15T13:26:35.000Z</time>
      </trkpt>
      <trkpt lat="43.53034" lon="5.30833">
        <ele>229.71548</ele>
        <time>2023-03-15T13:26:37.000Z</time>
      </trkpt>
      <trkpt lat="43.53032" lon="5.30832">
        <ele>229.53703</ele>
        <time>2023-03-15T13:26:39.000Z</time>
      </trkpt>
      <trkpt lat="43.53031" lon="5.30829">
        <ele>229.38016</ele>
        <time>2023-03-15T13:26:41.000Z</time>
      </trkpt>
      <trkpt lat="43.53029" lon="5.30826">
        <ele>229.25928</ele>
        <time>2023-03-15T13:26:43.000Z</time>
      </trkpt>
      <trkpt lat="43.53027" lon="5.30824">
        <ele>229.13782</ele>
        <time>2023-03-15T13:26:45.000Z</time>
      </trkpt>
      <trkpt lat="43.53026" lon="5.30821">
        <ele>228.97221</ele>
        <time>2023-03-15T13:26:47.000Z</time>
      </trkpt>
      <trkpt lat="43.53024" lon="5.30819">
        <ele>228.86221</ele>
        <time>2023-03-15T13:26:49.000Z</time>
      </trkpt>
      <trkpt lat="43.53022" lon="5.30817">
        <ele>228.81863</ele>
        <time>2023-03-15T13:26:51.000Z</time>
      </trkpt>
      <trkpt lat="43.5302" lon="5.30815">
        <ele>228.70601</ele>
        <time>2023-03-15T13:26:53.000Z</time>
      </trkpt>
      <trkpt lat="43.53018" lon="5.30813">
        <ele>228.59253</ele>
        <time>2023-03-15T13:26:55.000Z</time>
      </trkpt>
      <trkpt lat="43.53017" lon="5.3081">
        <ele>228.42329</ele>
        <time>2023-03-15T13:26:57.000Z</time>
      </trkpt>
      <trkpt lat="43.53015" lon="5.30808">
        <ele>228.28059</ele>
        <time>2023-03-15T13:26:59.000Z</time>
      </trkpt>
      <trkpt lat="43.53014" lon="5.30806">
        <ele>228.13535</ele>
        <time>2023-03-15T13:27:01.000Z</time>
      </trkpt>
      <trkpt lat="43.53013" lon="5.30803">
        <ele>228.04485</ele>
        <time>2023-03-15T13:27:03.000Z</time>
      </trkpt>
      <trkpt lat="43.53012" lon="5.308">
        <ele>228.01997</ele>
        <time>2023-03-15T13:27:05.000Z</time>
      </trkpt>
      <trkpt lat="43.53011" lon="5.30797">
        <ele>228.00346</ele>
        <time>2023-03-15T13:27:07.000Z</time>
      </trkpt>
      <trkpt lat="43.5301" lon="5.30795">
        <ele>228.0455</ele>
        <time>2023-03-15T13:27:09.000Z</time>
      </trkpt>
      <trkpt lat="43.5301" lon="5.30792">
        <ele>228.22319</ele>
        <time>2023-03-15T13:27:11.000Z</time>
      </trkpt>
      <trkpt lat="43.5301" lon="5.30789">
        <ele>228.4407</ele>
        <time>2023-03-15T13:27:13.000Z</time>
      </trkpt>
      <trkpt lat="43.53009" lon="5.30786">
        <ele>228.6418</ele>
        <time>2023-03-15T13:27:15.000Z</time>
      </trkpt>
      <trkpt lat="43.53009" lon="5.30784">
        <ele>228.83157</ele>
        <time>2023-03-15T13:27:17.000Z</time>
      </trkpt>
      <trkpt lat="43.53008" lon="5.30781">
        <ele>229.01291</ele>
        <time>2023-03-15T13:27:19.000Z</time>
      </trkpt>
      <trkpt lat="43.53006" lon="5.30779">
        <ele>229.15625</ele>
        <time>2023-03-15T13:27:21.000Z</time>
      </trkpt>
      <trkpt lat="43.53005" lon="5.30778">
        <ele>229.1252</ele>
        <time>2023-03-15T13:27:23.000Z</time>
      </trkpt>
      <trkpt lat="43.53002" lon="5.30778">
        <ele>229.08704</ele>
        <time>2023-03-15T13:27:26.000Z</time>
      </trkpt>
      <trkpt lat="43.53" lon="5.30775">
        <ele>229.10928</ele>
        <time>2023-03-15T13:27:29.000Z</time>
      </trkpt>
      <trkpt lat="43.52999" lon="5.30772">
        <ele>229.10701</ele>
        <time>2023-03-15T13:27:32.000Z</time>
      </trkpt>
      <trkpt lat="43.52997" lon="5.30773">
        <ele>229.21953</ele>
        <time>2023-03-15T13:27:35.000Z</time>
      </trkpt>
      <trkpt lat="43.52995" lon="5.30773">
        <ele>229.42978</ele>
        <time>2023-03-15T13:27:38.000Z</time>
      </trkpt>
      <trkpt lat="43.52993" lon="5.30773">
        <ele>229.69031</ele>
        <time>2023-03-15T13:27:40.000Z</time>
      </trkpt>
      <trkpt lat="43.52991" lon="5.30772">
        <ele>229.99138</ele>
        <time>2023-03-15T13:27:42.000Z</time>
      </trkpt>
      <trkpt lat="43.52988" lon="5.30772">
        <ele>230.30122</ele>
        <time>2023-03-15T13:27:44.000Z</time>
      </trkpt>
      <trkpt lat="43.52986" lon="5.30771">
        <ele>230.70828</ele>
        <time>2023-03-15T13:27:46.000Z</time>
      </trkpt>
      <trkpt lat="43.52984" lon="5.30771">
        <ele>231.12564</ele>
        <time>2023-03-15T13:27:48.000Z</time>
      </trkpt>
      <trkpt lat="43.52982" lon="5.3077">
        <ele>231.52115</ele>
        <time>2023-03-15T13:27:50.000Z</time>
      </trkpt>
      <trkpt lat="43.5298" lon="5.30769">
        <ele>231.97629</ele>
        <time>2023-03-15T13:27:52.000Z</time>
      </trkpt>
      <trkpt lat="43.52978" lon="5.30768">
        <ele>232.49593</ele>
        <time>2023-03-15T13:27:54.000Z</time>
      </trkpt>
      <trkpt lat="43.52976" lon="5.30768">
        <ele>232.91841</ele>
        <time>2023-03-15T13:27:56.000Z</time>
      </trkpt>
      <trkpt lat="43.52975" lon="5.30767">
        <ele>233.27365</ele>
        <time>2023-03-15T13:27:58.000Z</time>
      </trkpt>
      <trkpt lat="43.52973" lon="5.30766">
        <ele>233.71436</ele>
        <time>2023-03-15T13:28:00.000Z</time>
      </trkpt>
      <trkpt lat="43.52971" lon="5.30766">
        <ele>234.21078</ele>
        <time>2023-03-15T13:28:02.000Z</time>
      </trkpt>
      <trkpt lat="43.52969" lon="5.30765">
        <ele>234.81265</ele>
        <time>2023-03-15T13:28:04.000Z</time>
      </trkpt>
      <trkpt lat="43.52967" lon="5.30764">
        <ele>235.49548</ele>
        <time>2023-03-15T13:28:06.000Z</time>
      </trkpt>
      <trkpt lat="43.52964" lon="5.30764">
        <ele>236.3075</ele>
        <time>2023-03-15T13:28:09.000Z</time>
      </trkpt>
      <trkpt lat="43.52962" lon="5.30763">
        <ele>237.08064</ele>
        <time>2023-03-15T13:28:11.000Z</time>
      </trkpt>
      <trkpt lat="43.52961" lon="5.30761">
        <ele>237.77011</ele>
        <time>2023-03-15T13:28:14.000Z</time>
      </trkpt>
      <trkpt lat="43.52958" lon="5.30761">
        <ele>238.53731</ele>
        <time>2023-03-15T13:28:18.000Z</time>
      </trkpt>
      <trkpt lat="43.52956" lon="5.30761">
        <ele>239.15665</ele>
        <time>2023-03-15T13:28:21.000Z</time>
      </trkpt>
      <trkpt lat="43.52953" lon="5.30759">
        <ele>239.80069</ele>
        <time>2023-03-15T13:28:24.000Z</time>
      </trkpt>
      <trkpt lat="43.52951" lon="5.30759">
        <ele>240.44768</ele>
        <time>2023-03-15T13:28:27.000Z</time>
      </trkpt>
      <trkpt lat="43.52949" lon="5.30759">
        <ele>241.07295</ele>
        <time>2023-03-15T13:28:30.000Z</time>
      </trkpt>
      <trkpt lat="43.52947" lon="5.30757">
        <ele>241.65359</ele>
        <time>2023-03-15T13:28:33.000Z</time>
      </trkpt>
      <trkpt lat="43.52945" lon="5.30756">
        <ele>242.16025</ele>
        <time>2023-03-15T13:28:36.000Z</time>
      </trkpt>
      <trkpt lat="43.52944" lon="5.30753">
        <ele>242.64005</ele>
        <time>2023-03-15T13:28:39.000Z</time>
      </trkpt>
      <trkpt lat="43.52945" lon="5.3075">
        <ele>243.0789</ele>
        <time>2023-03-15T13:28:42.000Z</time>
      </trkpt>
      <trkpt lat="43.52946" lon="5.30747">
        <ele>243.5168</ele>
        <time>2023-03-15T13:28:45.000Z</time>
      </trkpt>
      <trkpt lat="43.52947" lon="5.30745">
        <ele>243.83247</ele>
        <time>2023-03-15T13:28:47.000Z</time>
      </trkpt>
      <trkpt lat="43.52949" lon="5.30742">
        <ele>244.15942</ele>
        <time>2023-03-15T13:28:50.000Z</time>
      </trkpt>
      <trkpt lat="43.52951" lon="5.3074">
        <ele>244.36496</ele>
        <time>2023-03-15T13:28:53.000Z</time>
      </trkpt>
      <trkpt lat="43.52953" lon="5.30739">
        <ele>244.57178</ele>
        <time>2023-03-15T13:28:55.000Z</time>
      </trkpt>
      <trkpt lat="43.52954" lon="5.30737">
        <ele>244.81453</ele>
        <time>2023-03-15T13:28:57.000Z</time>
      </trkpt>
      <trkpt lat="43.52956" lon="5.30735">
        <ele>244.96411</ele>
        <time>2023-03-15T13:29:00.000Z</time>
      </trkpt>
      <trkpt lat="43.52958" lon="5.30733">
        <ele>244.96753</ele>
        <time>2023-03-15T13:29:03.000Z</time>
      </trkpt>
      <trkpt lat="43.52959" lon="5.30731">
        <ele>244.92383</ele>
        <time>2023-03-15T13:29:06.000Z</time>
      </trkpt>
      <trkpt lat="43.52961" lon="5.30728">
        <ele>244.92107</ele>
        <time>2023-03-15T13:29:09.000Z</time>
      </trkpt>
      <trkpt lat="43.52963" lon="5.30726">
        <ele>245.02824</ele>
        <time>2023-03-15T13:29:11.000Z</time>
      </trkpt>
      <trkpt lat="43.52964" lon="5.30724">
        <ele>245.12692</ele>
        <time>2023-03-15T13:29:13.000Z</time>
      </trkpt>
      <trkpt lat="43.52966" lon="5.30722">
        <ele>245.17807</ele>
        <time>2023-03-15T13:29:15.000Z</time>
      </trkpt>
      <trkpt lat="43.52967" lon="5.30719">
        <ele>245.21538</ele>
        <time>2023-03-15T13:29:18.000Z</time>
      </trkpt>
      <trkpt lat="43.52968" lon="5.30716">
        <ele>245.23111</ele>
        <time>2023-03-15T13:29:21.000Z</time>
      </trkpt>
      <trkpt lat="43.52969" lon="5.30714">
        <ele>245.29117</ele>
        <time>2023-03-15T13:29:23.000Z</time>
      </trkpt>
      <trkpt lat="43.5297" lon="5.30711">
        <ele>245.37271</ele>
        <time>2023-03-15T13:29:25.000Z</time>
      </trkpt>
      <trkpt lat="43.52971" lon="5.30709">
        <ele>245.44034</ele>
        <time>2023-03-15T13:29:27.000Z</time>
      </trkpt>
      <trkpt lat="43.52972" lon="5.30707">
        <ele>245.41658</ele>
        <time>2023-03-15T13:29:29.000Z</time>
      </trkpt>
      <trkpt lat="43.52973" lon="5.30704">
        <ele>245.45932</ele>
        <time>2023-03-15T13:29:31.000Z</time>
      </trkpt>
      <trkpt lat="43.52974" lon="5.30702">
        <ele>245.51619</ele>
        <time>2023-03-15T13:29:33.000Z</time>
      </trkpt>
      <trkpt lat="43.52974" lon="5.307">
        <ele>245.6488</ele>
        <time>2023-03-15T13:29:35.000Z</time>
      </trkpt>
      <trkpt lat="43.52975" lon="5.30697">
        <ele>245.75533</ele>
        <time>2023-03-15T13:29:37.000Z</time>
      </trkpt>
      <trkpt lat="43.52976" lon="5.30694">
        <ele>245.95471</ele>
        <time>2023-03-15T13:29:40.000Z</time>
      </trkpt>
      <trkpt lat="43.52975" lon="5.3069">
        <ele>246.16206</ele>
        <time>2023-03-15T13:29:43.000Z</time>
      </trkpt>
      <trkpt lat="43.52974" lon="5.30687">
        <ele>246.32382</ele>
        <time>2023-03-15T13:29:46.000Z</time>
      </trkpt>
      <trkpt lat="43.52974" lon="5.30684">
        <ele>246.54483</ele>
        <time>2023-03-15T13:29:49.000Z</time>
      </trkpt>
      <trkpt lat="43.52974" lon="5.30681">
        <ele>246.87149</ele>
        <time>2023-03-15T13:29:52.000Z</time>
      </trkpt>
      <trkpt lat="43.52973" lon="5.30679">
        <ele>247.23184</ele>
        <time>2023-03-15T13:29:56.000Z</time>
      </trkpt>
      <trkpt lat="43.52974" lon="5.30676">
        <ele>247.56418</ele>
        <time>2023-03-15T13:29:59.000Z</time>
      </trkpt>
      <trkpt lat="43.52973" lon="5.30674">
        <ele>247.76334</ele>
        <time>2023-03-15T13:30:02.000Z</time>
      </trkpt>
      <trkpt lat="43.52973" lon="5.30671">
        <ele>247.92972</ele>
        <time>2023-03-15T13:30:05.000Z</time>
      </trkpt>
      <trkpt lat="43.52972" lon="5.30669">
        <ele>248.14693</ele>
        <time>2023-03-15T13:30:08.000Z</time>
      </trkpt>
      <trkpt lat="43.52973" lon="5.30666">
        <ele>248.39351</ele>
        <time>2023-03-15T13:30:11.000Z</time>
      </trkpt>
      <trkpt lat="43.52973" lon="5.30663">
        <ele>248.69666</ele>
        <time>2023-03-15T13:30:14.000Z</time>
      </trkpt>
      <trkpt lat="43.52972" lon="5.30661">
        <ele>249.00778</ele>
        <time>2023-03-15T13:30:17.000Z</time>
      </trkpt>
      <trkpt lat="43.52971" lon="5.30658">
        <ele>249.31311</ele>
        <time>2023-03-15T13:30:20.000Z</time>
      </trkpt>
      <trkpt lat="43.5297" lon="5.30656">
        <ele>249.67065</ele>
        <time>2023-03-15T13:30:23.000Z</time>
      </trkpt>
      <trkpt lat="43.5297" lon="5.30653">
        <ele>250.07629</ele>
        <time>2023-03-15T13:30:26.000Z</time>
      </trkpt>
      <trkpt lat="43.52968" lon="5.30651">
        <ele>250.48914</ele>
        <time>2023-03-15T13:30:31.000Z</time>
      </trkpt>
      <trkpt lat="43.52967" lon="5.30648">
        <ele>250.85684</ele>
        <time>2023-03-15T13:30:35.000Z</time>
      </trkpt>
      <trkpt lat="43.52967" lon="5.30645">
        <ele>251.24394</ele>
        <time>2023-03-15T13:30:38.000Z</time>
      </trkpt>
      <trkpt lat="43.52967" lon="5.30642">
        <ele>251.65613</ele>
        <time>2023-03-15T13:30:41.000Z</time>
      </trkpt>
      <trkpt lat="43.52967" lon="5.30639">
        <ele>252.11528</ele>
        <time>2023-03-15T13:30:44.000Z</time>
      </trkpt>
      <trkpt lat="43.52966" lon="5.30636">
        <ele>252.53984</ele>
        <time>2023-03-15T13:30:47.000Z</time>
      </trkpt>
      <trkpt lat="43.52965" lon="5.30633">
        <ele>252.92603</ele>
        <time>2023-03-15T13:30:50.000Z</time>
      </trkpt>
      <trkpt lat="43.52964" lon="5.30631">
        <ele>253.32463</ele>
        <time>2023-03-15T13:30:53.000Z</time>
      </trkpt>
      <trkpt lat="43.52963" lon="5.30628">
        <ele>253.75668</ele>
        <time>2023-03-15T13:30:56.000Z</time>
      </trkpt>
      <trkpt lat="43.52963" lon="5.30625">
        <ele>254.18753</ele>
        <time>2023-03-15T13:30:59.000Z</time>
      </trkpt>
      <trkpt lat="43.52962" lon="5.30622">
        <ele>254.54016</ele>
        <time>2023-03-15T13:31:02.000Z</time>
      </trkpt>
      <trkpt lat="43.52962" lon="5.30619">
        <ele>254.99744</ele>
        <time>2023-03-15T13:31:04.000Z</time>
      </trkpt>
      <trkpt lat="43.52962" lon="5.30617">
        <ele>255.46753</ele>
        <time>2023-03-15T13:31:06.000Z</time>
      </trkpt>
      <trkpt lat="43.52962" lon="5.30614">
        <ele>255.94963</ele>
        <time>2023-03-15T13:31:09.000Z</time>
      </trkpt>
      <trkpt lat="43.52962" lon="5.30611">
        <ele>256.41479</ele>
        <time>2023-03-15T13:31:12.000Z</time>
      </trkpt>
      <trkpt lat="43.52962" lon="5.30608">
        <ele>256.83124</ele>
        <time>2023-03-15T13:31:15.000Z</time>
      </trkpt>
      <trkpt lat="43.52961" lon="5.30605">
        <ele>257.23969</ele>
        <time>2023-03-15T13:31:18.000Z</time>
      </trkpt>
      <trkpt lat="43.52962" lon="5.30602">
        <ele>257.65601</ele>
        <time>2023-03-15T13:31:20.000Z</time>
      </trkpt>
      <trkpt lat="43.52961" lon="5.30599">
        <ele>257.98242</ele>
        <time>2023-03-15T13:31:23.000Z</time>
      </trkpt>
      <trkpt lat="43.52961" lon="5.30596">
        <ele>258.34668</ele>
        <time>2023-03-15T13:31:26.000Z</time>
      </trkpt>
      <trkpt lat="43.52961" lon="5.30593">
        <ele>258.64084</ele>
        <time>2023-03-15T13:31:29.000Z</time>
      </trkpt>
      <trkpt lat="43.52961" lon="5.3059">
        <ele>258.91513</ele>
        <time>2023-03-15T13:31:31.000Z</time>
      </trkpt>
      <trkpt lat="43.52961" lon="5.30587">
        <ele>259.13901</ele>
        <time>2023-03-15T13:31:34.000Z</time>
      </trkpt>
      <trkpt lat="43.52961" lon="5.30583">
        <ele>259.34039</ele>
        <time>2023-03-15T13:31:37.000Z</time>
      </trkpt>
      <trkpt lat="43.52961" lon="5.30581">
        <ele>259.48541</ele>
        <time>2023-03-15T13:31:39.000Z</time>
      </trkpt>
      <trkpt lat="43.52961" lon="5.30578">
        <ele>259.66156</ele>
        <time>2023-03-15T13:31:41.000Z</time>
      </trkpt>
      <trkpt lat="43.52961" lon="5.30576">
        <ele>259.85889</ele>
        <time>2023-03-15T13:31:43.000Z</time>
      </trkpt>
      <trkpt lat="43.5296" lon="5.30573">
        <ele>260.00281</ele>
        <time>2023-03-15T13:31:45.000Z</time>
      </trkpt>
      <trkpt lat="43.5296" lon="5.30571">
        <ele>260.09381</ele>
        <time>2023-03-15T13:31:47.000Z</time>
      </trkpt>
      <trkpt lat="43.5296" lon="5.30568">
        <ele>260.18338</ele>
        <time>2023-03-15T13:31:49.000Z</time>
      </trkpt>
      <trkpt lat="43.5296" lon="5.30565">
        <ele>260.35675</ele>
        <time>2023-03-15T13:31:51.000Z</time>
      </trkpt>
      <trkpt lat="43.5296" lon="5.30563">
        <ele>260.51563</ele>
        <time>2023-03-15T13:31:53.000Z</time>
      </trkpt>
      <trkpt lat="43.5296" lon="5.30559">
        <ele>260.55923</ele>
        <time>2023-03-15T13:31:56.000Z</time>
      </trkpt>
      <trkpt lat="43.5296" lon="5.30556">
        <ele>260.64542</ele>
        <time>2023-03-15T13:31:59.000Z</time>
      </trkpt>
      <trkpt lat="43.5296" lon="5.30553">
        <ele>260.62994</ele>
        <time>2023-03-15T13:32:01.000Z</time>
      </trkpt>
      <trkpt lat="43.52961" lon="5.30551">
        <ele>260.59705</ele>
        <time>2023-03-15T13:32:03.000Z</time>
      </trkpt>
      <trkpt lat="43.52961" lon="5.30547">
        <ele>260.59882</ele>
        <time>2023-03-15T13:32:06.000Z</time>
      </trkpt>
      <trkpt lat="43.52961" lon="5.30544">
        <ele>260.57217</ele>
        <time>2023-03-15T13:32:08.000Z</time>
      </trkpt>
      <trkpt lat="43.52961" lon="5.30541">
        <ele>260.61301</ele>
        <time>2023-03-15T13:32:11.000Z</time>
      </trkpt>
      <trkpt lat="43.52961" lon="5.30537">
        <ele>260.58896</ele>
        <time>2023-03-15T13:32:13.000Z</time>
      </trkpt>
      <trkpt lat="43.52962" lon="5.30535">
        <ele>260.56216</ele>
        <time>2023-03-15T13:32:15.000Z</time>
      </trkpt>
      <trkpt lat="43.52962" lon="5.30531">
        <ele>260.57407</ele>
        <time>2023-03-15T13:32:17.000Z</time>
      </trkpt>
      <trkpt lat="43.52963" lon="5.30527">
        <ele>260.68747</ele>
        <time>2023-03-15T13:32:19.000Z</time>
      </trkpt>
      <trkpt lat="43.52962" lon="5.30524">
        <ele>260.83453</ele>
        <time>2023-03-15T13:32:21.000Z</time>
      </trkpt>
      <trkpt lat="43.52962" lon="5.30521">
        <ele>261.0047</ele>
        <time>2023-03-15T13:32:23.000Z</time>
      </trkpt>
      <trkpt lat="43.52961" lon="5.30518">
        <ele>261.21475</ele>
        <time>2023-03-15T13:32:26.000Z</time>
      </trkpt>
      <trkpt lat="43.52961" lon="5.30514">
        <ele>261.48642</ele>
        <time>2023-03-15T13:32:28.000Z</time>
      </trkpt>
      <trkpt lat="43.52961" lon="5.30511">
        <ele>261.76624</ele>
        <time>2023-03-15T13:32:30.000Z</time>
      </trkpt>
      <trkpt lat="43.5296" lon="5.30509">
        <ele>262.03937</ele>
        <time>2023-03-15T13:32:32.000Z</time>
      </trkpt>
      <trkpt lat="43.52959" lon="5.30505">
        <ele>262.29266</ele>
        <time>2023-03-15T13:32:35.000Z</time>
      </trkpt>
      <trkpt lat="43.52959" lon="5.30502">
        <ele>262.55276</ele>
        <time>2023-03-15T13:32:37.000Z</time>
      </trkpt>
      <trkpt lat="43.52958" lon="5.30499">
        <ele>262.81738</ele>
        <time>2023-03-15T13:32:39.000Z</time>
      </trkpt>
      <trkpt lat="43.52958" lon="5.30496">
        <ele>263.19724</ele>
        <time>2023-03-15T13:32:41.000Z</time>
      </trkpt>
      <trkpt lat="43.52957" lon="5.30493">
        <ele>263.54926</ele>
        <time>2023-03-15T13:32:43.000Z</time>
      </trkpt>
      <trkpt lat="43.52956" lon="5.30491">
        <ele>263.95337</ele>
        <time>2023-03-15T13:32:45.000Z</time>
      </trkpt>
      <trkpt lat="43.52955" lon="5.30489">
        <ele>264.34387</ele>
        <time>2023-03-15T13:32:47.000Z</time>
      </trkpt>
      <trkpt lat="43.52954" lon="5.30487">
        <ele>264.66461</ele>
        <time>2023-03-15T13:32:49.000Z</time>
      </trkpt>
      <trkpt lat="43.52953" lon="5.30484">
        <ele>265.03726</ele>
        <time>2023-03-15T13:32:51.000Z</time>
      </trkpt>
      <trkpt lat="43.52952" lon="5.30481">
        <ele>265.40723</ele>
        <time>2023-03-15T13:32:53.000Z</time>
      </trkpt>
      <trkpt lat="43.52951" lon="5.30478">
        <ele>265.79706</ele>
        <time>2023-03-15T13:32:56.000Z</time>
      </trkpt>
      <trkpt lat="43.5295" lon="5.30475">
        <ele>266.20126</ele>
        <time>2023-03-15T13:32:58.000Z</time>
      </trkpt>
      <trkpt lat="43.52949" lon="5.30473">
        <ele>266.52618</ele>
        <time>2023-03-15T13:33:00.000Z</time>
      </trkpt>
      <trkpt lat="43.52948" lon="5.30471">
        <ele>266.86209</ele>
        <time>2023-03-15T13:33:02.000Z</time>
      </trkpt>
      <trkpt lat="43.52948" lon="5.30468">
        <ele>267.1499</ele>
        <time>2023-03-15T13:33:04.000Z</time>
      </trkpt>
      <trkpt lat="43.52947" lon="5.30466">
        <ele>267.45038</ele>
        <time>2023-03-15T13:33:06.000Z</time>
      </trkpt>
      <trkpt lat="43.52946" lon="5.30463">
        <ele>267.67108</ele>
        <time>2023-03-15T13:33:08.000Z</time>
      </trkpt>
      <trkpt lat="43.52945" lon="5.3046">
        <ele>267.82281</ele>
        <time>2023-03-15T13:33:10.000Z</time>
      </trkpt>
      <trkpt lat="43.52945" lon="5.30456">
        <ele>268.00311</ele>
        <time>2023-03-15T13:33:12.000Z</time>
      </trkpt>
      <trkpt lat="43.52945" lon="5.30453">
        <ele>268.19345</ele>
        <time>2023-03-15T13:33:14.000Z</time>
      </trkpt>
      <trkpt lat="43.52943" lon="5.30451">
        <ele>268.39954</ele>
        <time>2023-03-15T13:33:16.000Z</time>
      </trkpt>
      <trkpt lat="43.52943" lon="5.30449">
        <ele>268.58795</ele>
        <time>2023-03-15T13:33:18.000Z</time>
      </trkpt>
      <trkpt lat="43.52942" lon="5.30446">
        <ele>268.78406</ele>
        <time>2023-03-15T13:33:20.000Z</time>
      </trkpt>
      <trkpt lat="43.52941" lon="5.30444">
        <ele>268.9603</ele>
        <time>2023-03-15T13:33:22.000Z</time>
      </trkpt>
      <trkpt lat="43.5294" lon="5.30442">
        <ele>269.11908</ele>
        <time>2023-03-15T13:33:24.000Z</time>
      </trkpt>
      <trkpt lat="43.52939" lon="5.3044">
        <ele>269.29248</ele>
        <time>2023-03-15T13:33:26.000Z</time>
      </trkpt>
      <trkpt lat="43.52938" lon="5.30436">
        <ele>269.48425</ele>
        <time>2023-03-15T13:33:29.000Z</time>
      </trkpt>
      <trkpt lat="43.52937" lon="5.30433">
        <ele>269.70575</ele>
        <time>2023-03-15T13:33:31.000Z</time>
      </trkpt>
      <trkpt lat="43.52937" lon="5.3043">
        <ele>269.91959</ele>
        <time>2023-03-15T13:33:33.000Z</time>
      </trkpt>
      <trkpt lat="43.52936" lon="5.30427">
        <ele>270.11295</ele>
        <time>2023-03-15T13:33:35.000Z</time>
      </trkpt>
      <trkpt lat="43.52935" lon="5.30425">
        <ele>270.28448</ele>
        <time>2023-03-15T13:33:37.000Z</time>
      </trkpt>
      <trkpt lat="43.52935" lon="5.30422">
        <ele>270.47339</ele>
        <time>2023-03-15T13:33:39.000Z</time>
      </trkpt>
      <trkpt lat="43.52934" lon="5.3042">
        <ele>270.69391</ele>
        <time>2023-03-15T13:33:41.000Z</time>
      </trkpt>
      <trkpt lat="43.52933" lon="5.30417">
        <ele>270.81055</ele>
        <time>2023-03-15T13:33:43.000Z</time>
      </trkpt>
      <trkpt lat="43.52932" lon="5.30415">
        <ele>270.93918</ele>
        <time>2023-03-15T13:33:45.000Z</time>
      </trkpt>
      <trkpt lat="43.52931" lon="5.30412">
        <ele>271.06073</ele>
        <time>2023-03-15T13:33:47.000Z</time>
      </trkpt>
      <trkpt lat="43.5293" lon="5.30409">
        <ele>271.15338</ele>
        <time>2023-03-15T13:33:49.000Z</time>
      </trkpt>
      <trkpt lat="43.52929" lon="5.30406">
        <ele>271.25073</ele>
        <time>2023-03-15T13:33:51.000Z</time>
      </trkpt>
      <trkpt lat="43.52928" lon="5.30403">
        <ele>271.33832</ele>
        <time>2023-03-15T13:33:53.000Z</time>
      </trkpt>
      <trkpt lat="43.52928" lon="5.304">
        <ele>271.44147</ele>
        <time>2023-03-15T13:33:55.000Z</time>
      </trkpt>
      <trkpt lat="43.52927" lon="5.30397">
        <ele>271.58838</ele>
        <time>2023-03-15T13:33:57.000Z</time>
      </trkpt>
      <trkpt lat="43.52926" lon="5.30394">
        <ele>271.76318</ele>
        <time>2023-03-15T13:33:59.000Z</time>
      </trkpt>
      <trkpt lat="43.52926" lon="5.30391">
        <ele>271.91061</ele>
        <time>2023-03-15T13:34:01.000Z</time>
      </trkpt>
      <trkpt lat="43.52926" lon="5.30388">
        <ele>272.04865</ele>
        <time>2023-03-15T13:34:03.000Z</time>
      </trkpt>
      <trkpt lat="43.52925" lon="5.30385">
        <ele>272.19589</ele>
        <time>2023-03-15T13:34:05.000Z</time>
      </trkpt>
      <trkpt lat="43.52924" lon="5.30383">
        <ele>272.35776</ele>
        <time>2023-03-15T13:34:07.000Z</time>
      </trkpt>
      <trkpt lat="43.52924" lon="5.3038">
        <ele>272.53046</ele>
        <time>2023-03-15T13:34:09.000Z</time>
      </trkpt>
      <trkpt lat="43.52923" lon="5.30377">
        <ele>272.67743</ele>
        <time>2023-03-15T13:34:11.000Z</time>
      </trkpt>
      <trkpt lat="43.52923" lon="5.30375">
        <ele>272.85629</ele>
        <time>2023-03-15T13:34:48.000Z</time>
      </trkpt>
      <trkpt lat="43.52924" lon="5.30372">
        <ele>273.06647</ele>
        <time>2023-03-15T13:34:50.000Z</time>
      </trkpt>
      <trkpt lat="43.52923" lon="5.30369">
        <ele>273.29425</ele>
        <time>2023-03-15T13:34:52.000Z</time>
      </trkpt>
      <trkpt lat="43.52924" lon="5.30366">
        <ele>273.54074</ele>
        <time>2023-03-15T13:34:54.000Z</time>
      </trkpt>
      <trkpt lat="43.52924" lon="5.30363">
        <ele>273.82593</ele>
        <time>2023-03-15T13:34:56.000Z</time>
      </trkpt>
      <trkpt lat="43.52924" lon="5.3036">
        <ele>274.11722</ele>
        <time>2023-03-15T13:34:59.000Z</time>
      </trkpt>
      <trkpt lat="43.52925" lon="5.30357">
        <ele>274.41739</ele>
        <time>2023-03-15T13:35:01.000Z</time>
      </trkpt>
      <trkpt lat="43.52925" lon="5.30355">
        <ele>274.75116</ele>
        <time>2023-03-15T13:35:03.000Z</time>
      </trkpt>
      <trkpt lat="43.52925" lon="5.30352">
        <ele>275.15839</ele>
        <time>2023-03-15T13:35:05.000Z</time>
      </trkpt>
      <trkpt lat="43.52925" lon="5.30349">
        <ele>275.60025</ele>
        <time>2023-03-15T13:35:08.000Z</time>
      </trkpt>
      <trkpt lat="43.52927" lon="5.30347">
        <ele>275.98419</ele>
        <time>2023-03-15T13:35:11.000Z</time>
      </trkpt>
      <trkpt lat="43.52929" lon="5.30346">
        <ele>276.34225</ele>
        <time>2023-03-15T13:35:13.000Z</time>
      </trkpt>
      <trkpt lat="43.52929" lon="5.30343">
        <ele>276.66864</ele>
        <time>2023-03-15T13:36:33.000Z</time>
      </trkpt>
      <trkpt lat="43.52932" lon="5.30345">
        <ele>276.96771</ele>
        <time>2023-03-15T13:36:35.000Z</time>
      </trkpt>
      <trkpt lat="43.5293" lon="5.30344">
        <ele>277.32861</ele>
        <time>2023-03-15T13:37:44.000Z</time>
      </trkpt>
      <trkpt lat="43.52929" lon="5.30342">
        <ele>277.7088</ele>
        <time>2023-03-15T13:38:33.000Z</time>
      </trkpt>
      <trkpt lat="43.5293" lon="5.3034">
        <ele>278.10236</ele>
        <time>2023-03-15T13:40:33.000Z</time>
      </trkpt>
      <trkpt lat="43.52933" lon="5.30339">
        <ele>278.49213</ele>
        <time>2023-03-15T13:40:36.000Z</time>
      </trkpt>
      <trkpt lat="43.52935" lon="5.30338">
        <ele>278.88275</ele>
        <time>2023-03-15T13:40:38.000Z</time>
      </trkpt>
      <trkpt lat="43.52937" lon="5.30337">
        <ele>279.26349</ele>
        <time>2023-03-15T13:40:41.000Z</time>
      </trkpt>
      <trkpt lat="43.52939" lon="5.30336">
        <ele>279.59598</ele>
        <time>2023-03-15T13:40:43.000Z</time>
      </trkpt>
      <trkpt lat="43.52941" lon="5.30335">
        <ele>279.90466</ele>
        <time>2023-03-15T13:40:46.000Z</time>
      </trkpt>
      <trkpt lat="43.52943" lon="5.30333">
        <ele>280.22241</ele>
        <time>2023-03-15T13:40:49.000Z</time>
      </trkpt>
      <trkpt lat="43.52945" lon="5.30331">
        <ele>280.49237</ele>
        <time>2023-03-15T13:40:51.000Z</time>
      </trkpt>
      <trkpt lat="43.52947" lon="5.3033">
        <ele>280.78604</ele>
        <time>2023-03-15T13:40:53.000Z</time>
      </trkpt>
      <trkpt lat="43.52949" lon="5.30329">
        <ele>281.08798</ele>
        <time>2023-03-15T13:40:55.000Z</time>
      </trkpt>
      <trkpt lat="43.52951" lon="5.30327">
        <ele>281.37445</ele>
        <time>2023-03-15T13:40:57.000Z</time>
      </trkpt>
      <trkpt lat="43.52953" lon="5.30326">
        <ele>281.60699</ele>
        <time>2023-03-15T13:40:59.000Z</time>
      </trkpt>
      <trkpt lat="43.52955" lon="5.30325">
        <ele>281.81439</ele>
        <time>2023-03-15T13:41:01.000Z</time>
      </trkpt>
      <trkpt lat="43.52957" lon="5.30324">
        <ele>281.97711</ele>
        <time>2023-03-15T13:41:03.000Z</time>
      </trkpt>
      <trkpt lat="43.52959" lon="5.30322">
        <ele>282.19537</ele>
        <time>2023-03-15T13:41:05.000Z</time>
      </trkpt>
      <trkpt lat="43.52961" lon="5.3032">
        <ele>282.39288</ele>
        <time>2023-03-15T13:41:07.000Z</time>
      </trkpt>
      <trkpt lat="43.52962" lon="5.30319">
        <ele>282.57147</ele>
        <time>2023-03-15T13:41:09.000Z</time>
      </trkpt>
      <trkpt lat="43.52964" lon="5.30318">
        <ele>282.74219</ele>
        <time>2023-03-15T13:41:11.000Z</time>
      </trkpt>
      <trkpt lat="43.52967" lon="5.30317">
        <ele>282.87186</ele>
        <time>2023-03-15T13:41:13.000Z</time>
      </trkpt>
      <trkpt lat="43.52969" lon="5.30315">
        <ele>282.97913</ele>
        <time>2023-03-15T13:41:15.000Z</time>
      </trkpt>
      <trkpt lat="43.52971" lon="5.30314">
        <ele>283.04034</ele>
        <time>2023-03-15T13:41:17.000Z</time>
      </trkpt>
      <trkpt lat="43.52972" lon="5.30311">
        <ele>283.08868</ele>
        <time>2023-03-15T13:41:19.000Z</time>
      </trkpt>
      <trkpt lat="43.52974" lon="5.30309">
        <ele>283.12473</ele>
        <time>2023-03-15T13:41:21.000Z</time>
      </trkpt>
      <trkpt lat="43.52976" lon="5.30306">
        <ele>283.18079</ele>
        <time>2023-03-15T13:41:23.000Z</time>
      </trkpt>
      <trkpt lat="43.52977" lon="5.30303">
        <ele>283.22076</ele>
        <time>2023-03-15T13:41:25.000Z</time>
      </trkpt>
      <trkpt lat="43.52979" lon="5.30301">
        <ele>283.25775</ele>
        <time>2023-03-15T13:41:27.000Z</time>
      </trkpt>
      <trkpt lat="43.5298" lon="5.30298">
        <ele>283.29211</ele>
        <time>2023-03-15T13:41:29.000Z</time>
      </trkpt>
      <trkpt lat="43.52981" lon="5.30296">
        <ele>283.34344</ele>
        <time>2023-03-15T13:41:31.000Z</time>
      </trkpt>
      <trkpt lat="43.52981" lon="5.30293">
        <ele>283.36453</ele>
        <time>2023-03-15T13:41:33.000Z</time>
      </trkpt>
      <trkpt lat="43.52982" lon="5.30291">
        <ele>283.38849</ele>
        <time>2023-03-15T13:41:35.000Z</time>
      </trkpt>
      <trkpt lat="43.52983" lon="5.30288">
        <ele>283.431</ele>
        <time>2023-03-15T13:41:37.000Z</time>
      </trkpt>
      <trkpt lat="43.52983" lon="5.30285">
        <ele>283.48099</ele>
        <time>2023-03-15T13:41:39.000Z</time>
      </trkpt>
      <trkpt lat="43.52984" lon="5.30282">
        <ele>283.54306</ele>
        <time>2023-03-15T13:41:41.000Z</time>
      </trkpt>
      <trkpt lat="43.52984" lon="5.30279">
        <ele>283.6026</ele>
        <time>2023-03-15T13:41:43.000Z</time>
      </trkpt>
      <trkpt lat="43.52985" lon="5.30276">
        <ele>283.63013</ele>
        <time>2023-03-15T13:41:45.000Z</time>
      </trkpt>
      <trkpt lat="43.52985" lon="5.30274">
        <ele>283.65109</ele>
        <time>2023-03-15T13:41:47.000Z</time>
      </trkpt>
      <trkpt lat="43.52985" lon="5.30271">
        <ele>283.68542</ele>
        <time>2023-03-15T13:41:49.000Z</time>
      </trkpt>
      <trkpt lat="43.52986" lon="5.30268">
        <ele>283.711</ele>
        <time>2023-03-15T13:41:51.000Z</time>
      </trkpt>
      <trkpt lat="43.52986" lon="5.30265">
        <ele>283.73199</ele>
        <time>2023-03-15T13:41:53.000Z</time>
      </trkpt>
      <trkpt lat="43.52987" lon="5.30262">
        <ele>283.73663</ele>
        <time>2023-03-15T13:41:55.000Z</time>
      </trkpt>
      <trkpt lat="43.52988" lon="5.3026">
        <ele>283.75739</ele>
        <time>2023-03-15T13:41:57.000Z</time>
      </trkpt>
      <trkpt lat="43.52989" lon="5.30257">
        <ele>283.75458</ele>
        <time>2023-03-15T13:41:59.000Z</time>
      </trkpt>
      <trkpt lat="43.52991" lon="5.30255">
        <ele>283.76248</ele>
        <time>2023-03-15T13:42:01.000Z</time>
      </trkpt>
      <trkpt lat="43.52992" lon="5.30252">
        <ele>283.78043</ele>
        <time>2023-03-15T13:42:03.000Z</time>
      </trkpt>
      <trkpt lat="43.52992" lon="5.3025">
        <ele>283.80914</ele>
        <time>2023-03-15T13:42:05.000Z</time>
      </trkpt>
      <trkpt lat="43.52994" lon="5.30247">
        <ele>283.83838</ele>
        <time>2023-03-15T13:42:07.000Z</time>
      </trkpt>
      <trkpt lat="43.52995" lon="5.30245">
        <ele>283.86136</ele>
        <time>2023-03-15T13:42:09.000Z</time>
      </trkpt>
      <trkpt lat="43.52996" lon="5.30242">
        <ele>283.87796</ele>
        <time>2023-03-15T13:42:11.000Z</time>
      </trkpt>
      <trkpt lat="43.52997" lon="5.30239">
        <ele>283.88654</ele>
        <time>2023-03-15T13:42:13.000Z</time>
      </trkpt>
      <trkpt lat="43.52998" lon="5.30237">
        <ele>283.88486</ele>
        <time>2023-03-15T13:42:15.000Z</time>
      </trkpt>
      <trkpt lat="43.53" lon="5.30234">
        <ele>283.88226</ele>
        <time>2023-03-15T13:42:17.000Z</time>
      </trkpt>
      <trkpt lat="43.53001" lon="5.30232">
        <ele>283.88623</ele>
        <time>2023-03-15T13:42:19.000Z</time>
      </trkpt>
      <trkpt lat="43.53003" lon="5.3023">
        <ele>283.8681</ele>
        <time>2023-03-15T13:42:21.000Z</time>
      </trkpt>
      <trkpt lat="43.53004" lon="5.30228">
        <ele>283.8605</ele>
        <time>2023-03-15T13:42:23.000Z</time>
      </trkpt>
      <trkpt lat="43.53005" lon="5.30226">
        <ele>283.88083</ele>
        <time>2023-03-15T13:42:25.000Z</time>
      </trkpt>
      <trkpt lat="43.53006" lon="5.30224">
        <ele>283.92358</ele>
        <time>2023-03-15T13:42:27.000Z</time>
      </trkpt>
      <trkpt lat="43.53007" lon="5.30221">
        <ele>283.93829</ele>
        <time>2023-03-15T13:42:29.000Z</time>
      </trkpt>
      <trkpt lat="43.53008" lon="5.30218">
        <ele>283.9527</ele>
        <time>2023-03-15T13:42:31.000Z</time>
      </trkpt>
      <trkpt lat="43.5301" lon="5.30216">
        <ele>283.96649</ele>
        <time>2023-03-15T13:42:33.000Z</time>
      </trkpt>
      <trkpt lat="43.53011" lon="5.30213">
        <ele>283.9938</ele>
        <time>2023-03-15T13:42:35.000Z</time>
      </trkpt>
      <trkpt lat="43.53011" lon="5.30211">
        <ele>284.01208</ele>
        <time>2023-03-15T13:42:37.000Z</time>
      </trkpt>
      <trkpt lat="43.53012" lon="5.30208">
        <ele>284.04526</ele>
        <time>2023-03-15T13:42:39.000Z</time>
      </trkpt>
      <trkpt lat="43.53013" lon="5.30206">
        <ele>284.04193</ele>
        <time>2023-03-15T13:42:41.000Z</time>
      </trkpt>
      <trkpt lat="43.53014" lon="5.30203">
        <ele>284.01978</ele>
        <time>2023-03-15T13:42:43.000Z</time>
      </trkpt>
      <trkpt lat="43.53014" lon="5.302">
        <ele>284.00259</ele>
        <time>2023-03-15T13:42:45.000Z</time>
      </trkpt>
      <trkpt lat="43.53015" lon="5.30197">
        <ele>283.98373</ele>
        <time>2023-03-15T13:42:47.000Z</time>
      </trkpt>
      <trkpt lat="43.53016" lon="5.30195">
        <ele>283.95026</ele>
        <time>2023-03-15T13:42:49.000Z</time>
      </trkpt>
      <trkpt lat="43.53016" lon="5.30192">
        <ele>283.91949</ele>
        <time>2023-03-15T13:42:51.000Z</time>
      </trkpt>
      <trkpt lat="43.53016" lon="5.30189">
        <ele>283.8797</ele>
        <time>2023-03-15T13:42:53.000Z</time>
      </trkpt>
      <trkpt lat="43.53017" lon="5.30185">
        <ele>283.85065</ele>
        <time>2023-03-15T13:42:55.000Z</time>
      </trkpt>
      <trkpt lat="43.53017" lon="5.30182">
        <ele>283.83521</ele>
        <time>2023-03-15T13:42:57.000Z</time>
      </trkpt>
      <trkpt lat="43.53018" lon="5.30179">
        <ele>283.82364</ele>
        <time>2023-03-15T13:42:59.000Z</time>
      </trkpt>
      <trkpt lat="43.53019" lon="5.30177">
        <ele>283.8205</ele>
        <time>2023-03-15T13:43:01.000Z</time>
      </trkpt>
      <trkpt lat="43.5302" lon="5.30173">
        <ele>283.81689</ele>
        <time>2023-03-15T13:43:03.000Z</time>
      </trkpt>
      <trkpt lat="43.5302" lon="5.30171">
        <ele>283.81744</ele>
        <time>2023-03-15T13:43:05.000Z</time>
      </trkpt>
      <trkpt lat="43.53018" lon="5.30169">
        <ele>283.85199</ele>
        <time>2023-03-15T13:43:06.000Z</time>
      </trkpt>
      <trkpt lat="43.53016" lon="5.30166">
        <ele>283.94348</ele>
        <time>2023-03-15T13:43:09.000Z</time>
      </trkpt>
      <trkpt lat="43.53018" lon="5.30163">
        <ele>284.00586</ele>
        <time>2023-03-15T13:43:11.000Z</time>
      </trkpt>
      <trkpt lat="43.53019" lon="5.30161">
        <ele>284.0376</ele>
        <time>2023-03-15T13:43:13.000Z</time>
      </trkpt>
      <trkpt lat="43.53019" lon="5.30157">
        <ele>284.06464</ele>
        <time>2023-03-15T13:43:16.000Z</time>
      </trkpt>
      <trkpt lat="43.5302" lon="5.30154">
        <ele>284.08099</ele>
        <time>2023-03-15T13:43:19.000Z</time>
      </trkpt>
      <trkpt lat="43.53021" lon="5.30151">
        <ele>284.10632</ele>
        <time>2023-03-15T13:43:21.000Z</time>
      </trkpt>
      <trkpt lat="43.53021" lon="5.30148">
        <ele>284.13889</ele>
        <time>2023-03-15T13:43:23.000Z</time>
      </trkpt>
      <trkpt lat="43.53022" lon="5.30145">
        <ele>284.16626</ele>
        <time>2023-03-15T13:43:25.000Z</time>
      </trkpt>
      <trkpt lat="43.53023" lon="5.30142">
        <ele>284.18573</ele>
        <time>2023-03-15T13:43:27.000Z</time>
      </trkpt>
      <trkpt lat="43.53024" lon="5.30139">
        <ele>284.20322</ele>
        <time>2023-03-15T13:43:29.000Z</time>
      </trkpt>
      <trkpt lat="43.53024" lon="5.30136">
        <ele>284.22037</ele>
        <time>2023-03-15T13:43:31.000Z</time>
      </trkpt>
      <trkpt lat="43.53026" lon="5.30133">
        <ele>284.23993</ele>
        <time>2023-03-15T13:43:33.000Z</time>
      </trkpt>
      <trkpt lat="43.53027" lon="5.30131">
        <ele>284.25775</ele>
        <time>2023-03-15T13:43:35.000Z</time>
      </trkpt>
      <trkpt lat="43.53028" lon="5.30128">
        <ele>284.28476</ele>
        <time>2023-03-15T13:43:37.000Z</time>
      </trkpt>
      <trkpt lat="43.53029" lon="5.30125">
        <ele>284.32724</ele>
        <time>2023-03-15T13:43:39.000Z</time>
      </trkpt>
      <trkpt lat="43.53029" lon="5.30122">
        <ele>284.37018</ele>
        <time>2023-03-15T13:43:41.000Z</time>
      </trkpt>
      <trkpt lat="43.5303" lon="5.30119">
        <ele>284.41037</ele>
        <time>2023-03-15T13:43:43.000Z</time>
      </trkpt>
      <trkpt lat="43.53031" lon="5.30116">
        <ele>284.44843</ele>
        <time>2023-03-15T13:43:45.000Z</time>
      </trkpt>
      <trkpt lat="43.53033" lon="5.30112">
        <ele>284.4971</ele>
        <time>2023-03-15T13:43:47.000Z</time>
      </trkpt>
      <trkpt lat="43.53034" lon="5.30109">
        <ele>284.52725</ele>
        <time>2023-03-15T13:43:49.000Z</time>
      </trkpt>
      <trkpt lat="43.53035" lon="5.30106">
        <ele>284.52789</ele>
        <time>2023-03-15T13:43:51.000Z</time>
      </trkpt>
      <trkpt lat="43.53036" lon="5.30103">
        <ele>284.56024</ele>
        <time>2023-03-15T13:43:53.000Z</time>
      </trkpt>
      <trkpt lat="43.53037" lon="5.301">
        <ele>284.62665</ele>
        <time>2023-03-15T13:43:55.000Z</time>
      </trkpt>
      <trkpt lat="43.53039" lon="5.30096">
        <ele>284.73074</ele>
        <time>2023-03-15T13:43:57.000Z</time>
      </trkpt>
      <trkpt lat="43.53039" lon="5.30094">
        <ele>284.88324</ele>
        <time>2023-03-15T13:43:59.000Z</time>
      </trkpt>
      <trkpt lat="43.53038" lon="5.30092">
        <ele>285.02322</ele>
        <time>2023-03-15T13:44:00.000Z</time>
      </trkpt>
      <trkpt lat="43.53036" lon="5.3009">
        <ele>285.14828</ele>
        <time>2023-03-15T13:44:03.000Z</time>
      </trkpt>
      <trkpt lat="43.53037" lon="5.30087">
        <ele>285.19901</ele>
        <time>2023-03-15T13:44:06.000Z</time>
      </trkpt>
      <trkpt lat="43.53038" lon="5.30085">
        <ele>285.22833</ele>
        <time>2023-03-15T13:44:08.000Z</time>
      </trkpt>
      <trkpt lat="43.53039" lon="5.30082">
        <ele>285.24661</ele>
        <time>2023-03-15T13:44:10.000Z</time>
      </trkpt>
      <trkpt lat="43.53041" lon="5.30079">
        <ele>285.28134</ele>
        <time>2023-03-15T13:44:12.000Z</time>
      </trkpt>
      <trkpt lat="43.53042" lon="5.30077">
        <ele>285.30966</ele>
        <time>2023-03-15T13:44:14.000Z</time>
      </trkpt>
      <trkpt lat="43.53043" lon="5.30074">
        <ele>285.35831</ele>
        <time>2023-03-15T13:44:16.000Z</time>
      </trkpt>
      <trkpt lat="43.53045" lon="5.30071">
        <ele>285.42252</ele>
        <time>2023-03-15T13:44:18.000Z</time>
      </trkpt>
      <trkpt lat="43.53046" lon="5.30068">
        <ele>285.46048</ele>
        <time>2023-03-15T13:44:20.000Z</time>
      </trkpt>
      <trkpt lat="43.53048" lon="5.30065">
        <ele>285.48874</ele>
        <time>2023-03-15T13:44:22.000Z</time>
      </trkpt>
      <trkpt lat="43.53049" lon="5.30062">
        <ele>285.51556</ele>
        <time>2023-03-15T13:44:24.000Z</time>
      </trkpt>
      <trkpt lat="43.5305" lon="5.30059">
        <ele>285.52094</ele>
        <time>2023-03-15T13:44:26.000Z</time>
      </trkpt>
      <trkpt lat="43.53051" lon="5.30056">
        <ele>285.5155</ele>
        <time>2023-03-15T13:44:28.000Z</time>
      </trkpt>
      <trkpt lat="43.53051" lon="5.30053">
        <ele>285.49408</ele>
        <time>2023-03-15T13:44:30.000Z</time>
      </trkpt>
      <trkpt lat="43.53052" lon="5.3005">
        <ele>285.49225</ele>
        <time>2023-03-15T13:44:32.000Z</time>
      </trkpt>
      <trkpt lat="43.53053" lon="5.30047">
        <ele>285.51001</ele>
        <time>2023-03-15T13:44:34.000Z</time>
      </trkpt>
      <trkpt lat="43.53054" lon="5.30043">
        <ele>285.52127</ele>
        <time>2023-03-15T13:44:36.000Z</time>
      </trkpt>
      <trkpt lat="43.53054" lon="5.3004">
        <ele>285.50748</ele>
        <time>2023-03-15T13:44:38.000Z</time>
      </trkpt>
      <trkpt lat="43.53055" lon="5.30037">
        <ele>285.48053</ele>
        <time>2023-03-15T13:44:40.000Z</time>
      </trkpt>
      <trkpt lat="43.53055" lon="5.30033">
        <ele>285.49463</ele>
        <time>2023-03-15T13:44:42.000Z</time>
      </trkpt>
      <trkpt lat="43.53056" lon="5.3003">
        <ele>285.53693</ele>
        <time>2023-03-15T13:44:44.000Z</time>
      </trkpt>
      <trkpt lat="43.53056" lon="5.30027">
        <ele>285.68253</ele>
        <time>2023-03-15T13:44:46.000Z</time>
      </trkpt>
      <trkpt lat="43.53056" lon="5.30024">
        <ele>285.85065</ele>
        <time>2023-03-15T13:44:48.000Z</time>
      </trkpt>
      <trkpt lat="43.53056" lon="5.30021">
        <ele>286.06076</ele>
        <time>2023-03-15T13:44:50.000Z</time>
      </trkpt>
      <trkpt lat="43.53055" lon="5.30018">
        <ele>286.2496</ele>
        <time>2023-03-15T13:44:52.000Z</time>
      </trkpt>
      <trkpt lat="43.53055" lon="5.30021">
        <ele>286.50085</ele>
        <time>2023-03-15T13:45:07.000Z</time>
      </trkpt>
      <trkpt lat="43.53055" lon="5.30025">
        <ele>286.71967</ele>
        <time>2023-03-15T13:45:09.000Z</time>
      </trkpt>
      <trkpt lat="43.53055" lon="5.30029">
        <ele>286.88434</ele>
        <time>2023-03-15T13:45:11.000Z</time>
      </trkpt>
      <trkpt lat="43.53055" lon="5.30032">
        <ele>287.05991</ele>
        <time>2023-03-15T13:45:13.000Z</time>
      </trkpt>
      <trkpt lat="43.53055" lon="5.30034">
        <ele>287.23856</ele>
        <time>2023-03-15T13:45:15.000Z</time>
      </trkpt>
      <trkpt lat="43.53052" lon="5.30036">
        <ele>287.4151</ele>
        <time>2023-03-15T13:45:16.000Z</time>
      </trkpt>
      <trkpt lat="43.5305" lon="5.30034">
        <ele>287.61346</ele>
        <time>2023-03-15T13:45:18.000Z</time>
      </trkpt>
      <trkpt lat="43.5305" lon="5.30039">
        <ele>287.79071</ele>
        <time>2023-03-15T13:45:20.000Z</time>
      </trkpt>
      <trkpt lat="43.53051" lon="5.30042">
        <ele>287.97412</ele>
        <time>2023-03-15T13:45:22.000Z</time>
      </trkpt>
      <trkpt lat="43.53051" lon="5.30045">
        <ele>288.13428</ele>
        <time>2023-03-15T13:45:24.000Z</time>
      </trkpt>
      <trkpt lat="43.53051" lon="5.30048">
        <ele>288.25735</ele>
        <time>2023-03-15T13:45:26.000Z</time>
      </trkpt>
      <trkpt lat="43.53051" lon="5.30051">
        <ele>288.33145</ele>
        <time>2023-03-15T13:45:28.000Z</time>
      </trkpt>
      <trkpt lat="43.53051" lon="5.30055">
        <ele>288.37787</ele>
        <time>2023-03-15T13:45:30.000Z</time>
      </trkpt>
      <trkpt lat="43.53051" lon="5.30058">
        <ele>288.39465</ele>
        <time>2023-03-15T13:45:32.000Z</time>
      </trkpt>
      <trkpt lat="43.53051" lon="5.30061">
        <ele>288.31012</ele>
        <time>2023-03-15T13:45:34.000Z</time>
      </trkpt>
      <trkpt lat="43.53049" lon="5.30063">
        <ele>288.17789</ele>
        <time>2023-03-15T13:45:36.000Z</time>
      </trkpt>
      <trkpt lat="43.53047" lon="5.30064">
        <ele>288.03635</ele>
        <time>2023-03-15T13:45:39.000Z</time>
      </trkpt>
      <trkpt lat="43.53046" lon="5.30067">
        <ele>287.91846</ele>
        <time>2023-03-15T13:45:41.000Z</time>
      </trkpt>
      <trkpt lat="43.53046" lon="5.3007">
        <ele>287.73917</ele>
        <time>2023-03-15T13:45:43.000Z</time>
      </trkpt>
      <trkpt lat="43.53045" lon="5.30073">
        <ele>287.54865</ele>
        <time>2023-03-15T13:45:45.000Z</time>
      </trkpt>
      <trkpt lat="43.53044" lon="5.30076">
        <ele>287.34894</ele>
        <time>2023-03-15T13:45:47.000Z</time>
      </trkpt>
      <trkpt lat="43.53044" lon="5.30079">
        <ele>287.19699</ele>
        <time>2023-03-15T13:45:49.000Z</time>
      </trkpt>
      <trkpt lat="43.53043" lon="5.30081">
        <ele>287.12158</ele>
        <time>2023-03-15T13:45:51.000Z</time>
      </trkpt>
      <trkpt lat="43.53042" lon="5.30084">
        <ele>287.06964</ele>
        <time>2023-03-15T13:45:53.000Z</time>
      </trkpt>
      <trkpt lat="43.53041" lon="5.30087">
        <ele>287.00543</ele>
        <time>2023-03-15T13:45:55.000Z</time>
      </trkpt>
      <trkpt lat="43.53041" lon="5.30089">
        <ele>286.95544</ele>
        <time>2023-03-15T13:45:57.000Z</time>
      </trkpt>
      <trkpt lat="43.5304" lon="5.30092">
        <ele>286.94272</ele>
        <time>2023-03-15T13:45:59.000Z</time>
      </trkpt>
      <trkpt lat="43.53038" lon="5.30089">
        <ele>286.89648</ele>
        <time>2023-03-15T13:46:11.000Z</time>
      </trkpt>
      <trkpt lat="43.53038" lon="5.30087">
        <ele>286.79355</ele>
        <time>2023-03-15T13:46:14.000Z</time>
      </trkpt>
      <trkpt lat="43.53039" lon="5.30083">
        <ele>286.61411</ele>
        <time>2023-03-15T13:46:18.000Z</time>
      </trkpt>
      <trkpt lat="43.53041" lon="5.30081">
        <ele>286.46738</ele>
        <time>2023-03-15T13:46:21.000Z</time>
      </trkpt>
      <trkpt lat="43.53042" lon="5.30079">
        <ele>286.38177</ele>
        <time>2023-03-15T13:46:23.000Z</time>
      </trkpt>
      <trkpt lat="43.53043" lon="5.30076">
        <ele>286.30792</ele>
        <time>2023-03-15T13:46:25.000Z</time>
      </trkpt>
      <trkpt lat="43.53045" lon="5.30074">
        <ele>286.2442</ele>
        <time>2023-03-15T13:46:27.000Z</time>
      </trkpt>
      <trkpt lat="43.53046" lon="5.30071">
        <ele>286.23676</ele>
        <time>2023-03-15T13:46:29.000Z</time>
      </trkpt>
      <trkpt lat="43.53047" lon="5.30068">
        <ele>286.27655</ele>
        <time>2023-03-15T13:46:31.000Z</time>
      </trkpt>
      <trkpt lat="43.53048" lon="5.30065">
        <ele>286.31451</ele>
        <time>2023-03-15T13:46:33.000Z</time>
      </trkpt>
      <trkpt lat="43.53049" lon="5.30062">
        <ele>286.34698</ele>
        <time>2023-03-15T13:46:35.000Z</time>
      </trkpt>
      <trkpt lat="43.53049" lon="5.30059">
        <ele>286.37576</ele>
        <time>2023-03-15T13:46:37.000Z</time>
      </trkpt>
      <trkpt lat="43.5305" lon="5.30056">
        <ele>286.46478</ele>
        <time>2023-03-15T13:46:39.000Z</time>
      </trkpt>
      <trkpt lat="43.53052" lon="5.30053">
        <ele>286.50732</ele>
        <time>2023-03-15T13:46:41.000Z</time>
      </trkpt>
      <trkpt lat="43.53053" lon="5.3005">
        <ele>286.53693</ele>
        <time>2023-03-15T13:46:43.000Z</time>
      </trkpt>
      <trkpt lat="43.53053" lon="5.30047">
        <ele>286.52814</ele>
        <time>2023-03-15T13:46:45.000Z</time>
      </trkpt>
      <trkpt lat="43.53054" lon="5.30045">
        <ele>286.47369</ele>
        <time>2023-03-15T13:46:47.000Z</time>
      </trkpt>
      <trkpt lat="43.53054" lon="5.30042">
        <ele>286.4455</ele>
        <time>2023-03-15T13:46:49.000Z</time>
      </trkpt>
      <trkpt lat="43.53055" lon="5.30038">
        <ele>286.36609</ele>
        <time>2023-03-15T13:46:51.000Z</time>
      </trkpt>
      <trkpt lat="43.53056" lon="5.30035">
        <ele>286.24634</ele>
        <time>2023-03-15T13:46:53.000Z</time>
      </trkpt>
      <trkpt lat="43.53056" lon="5.30032">
        <ele>286.16681</ele>
        <time>2023-03-15T13:46:55.000Z</time>
      </trkpt>
      <trkpt lat="43.53056" lon="5.30029">
        <ele>286.17902</ele>
        <time>2023-03-15T13:46:57.000Z</time>
      </trkpt>
      <trkpt lat="43.53057" lon="5.30026">
        <ele>286.27756</ele>
        <time>2023-03-15T13:46:59.000Z</time>
      </trkpt>
      <trkpt lat="43.53057" lon="5.30023">
        <ele>286.35886</ele>
        <time>2023-03-15T13:47:01.000Z</time>
      </trkpt>
      <trkpt lat="43.53057" lon="5.3002">
        <ele>286.41354</ele>
        <time>2023-03-15T13:47:03.000Z</time>
      </trkpt>
      <trkpt lat="43.53058" lon="5.30017">
        <ele>286.47403</ele>
        <time>2023-03-15T13:47:05.000Z</time>
      </trkpt>
      <trkpt lat="43.53058" lon="5.30014">
        <ele>286.50467</ele>
        <time>2023-03-15T13:47:07.000Z</time>
      </trkpt>
      <trkpt lat="43.53057" lon="5.30011">
        <ele>286.535</ele>
        <time>2023-03-15T13:47:09.000Z</time>
      </trkpt>
      <trkpt lat="43.53056" lon="5.30008">
        <ele>286.55182</ele>
        <time>2023-03-15T13:47:11.000Z</time>
      </trkpt>
      <trkpt lat="43.53056" lon="5.30005">
        <ele>286.58737</ele>
        <time>2023-03-15T13:47:13.000Z</time>
      </trkpt>
      <trkpt lat="43.53056" lon="5.30002">
        <ele>286.62006</ele>
        <time>2023-03-15T13:47:16.000Z</time>
      </trkpt>
      <trkpt lat="43.53056" lon="5.29999">
        <ele>286.63919</ele>
        <time>2023-03-15T13:47:18.000Z</time>
      </trkpt>
      <trkpt lat="43.53056" lon="5.29996">
        <ele>286.62421</ele>
        <time>2023-03-15T13:47:20.000Z</time>
      </trkpt>
      <trkpt lat="43.53056" lon="5.29993">
        <ele>286.5874</ele>
        <time>2023-03-15T13:47:22.000Z</time>
      </trkpt>
      <trkpt lat="43.53056" lon="5.29989">
        <ele>286.58038</ele>
        <time>2023-03-15T13:47:24.000Z</time>
      </trkpt>
      <trkpt lat="43.53056" lon="5.29986">
        <ele>286.51559</ele>
        <time>2023-03-15T13:47:26.000Z</time>
      </trkpt>
      <trkpt lat="43.53056" lon="5.29983">
        <ele>286.43362</ele>
        <time>2023-03-15T13:47:28.000Z</time>
      </trkpt>
      <trkpt lat="43.53056" lon="5.2998">
        <ele>286.33917</ele>
        <time>2023-03-15T13:47:30.000Z</time>
      </trkpt>
      <trkpt lat="43.53055" lon="5.29977">
        <ele>286.2204</ele>
        <time>2023-03-15T13:47:32.000Z</time>
      </trkpt>
      <trkpt lat="43.53055" lon="5.29974">
        <ele>286.09006</ele>
        <time>2023-03-15T13:47:34.000Z</time>
      </trkpt>
      <trkpt lat="43.53054" lon="5.29971">
        <ele>285.92578</ele>
        <time>2023-03-15T13:47:36.000Z</time>
      </trkpt>
      <trkpt lat="43.53054" lon="5.29968">
        <ele>285.70789</ele>
        <time>2023-03-15T13:47:38.000Z</time>
      </trkpt>
      <trkpt lat="43.53054" lon="5.29965">
        <ele>285.47659</ele>
        <time>2023-03-15T13:47:40.000Z</time>
      </trkpt>
      <trkpt lat="43.53054" lon="5.29962">
        <ele>285.25415</ele>
        <time>2023-03-15T13:47:42.000Z</time>
      </trkpt>
      <trkpt lat="43.53054" lon="5.29959">
        <ele>284.99948</ele>
        <time>2023-03-15T13:47:44.000Z</time>
      </trkpt>
      <trkpt lat="43.53055" lon="5.29956">
        <ele>284.71429</ele>
        <time>2023-03-15T13:47:46.000Z</time>
      </trkpt>
      <trkpt lat="43.53055" lon="5.29954">
        <ele>284.45416</ele>
        <time>2023-03-15T13:47:48.000Z</time>
      </trkpt>
      <trkpt lat="43.53054" lon="5.29951">
        <ele>284.20483</ele>
        <time>2023-03-15T13:47:50.000Z</time>
      </trkpt>
      <trkpt lat="43.53055" lon="5.29949">
        <ele>283.97064</ele>
        <time>2023-03-15T13:47:52.000Z</time>
      </trkpt>
      <trkpt lat="43.53057" lon="5.29946">
        <ele>283.69891</ele>
        <time>2023-03-15T13:47:54.000Z</time>
      </trkpt>
      <trkpt lat="43.53057" lon="5.29943">
        <ele>283.4267</ele>
        <time>2023-03-15T13:47:56.000Z</time>
      </trkpt>
      <trkpt lat="43.53057" lon="5.2994">
        <ele>283.17191</ele>
        <time>2023-03-15T13:47:58.000Z</time>
      </trkpt>
      <trkpt lat="43.53058" lon="5.29937">
        <ele>282.90533</ele>
        <time>2023-03-15T13:48:00.000Z</time>
      </trkpt>
      <trkpt lat="43.53058" lon="5.29934">
        <ele>282.66</ele>
        <time>2023-03-15T13:48:02.000Z</time>
      </trkpt>
      <trkpt lat="43.53058" lon="5.29931">
        <ele>282.38034</ele>
        <time>2023-03-15T13:48:04.000Z</time>
      </trkpt>
      <trkpt lat="43.53058" lon="5.29928">
        <ele>282.13046</ele>
        <time>2023-03-15T13:48:06.000Z</time>
      </trkpt>
      <trkpt lat="43.53057" lon="5.29925">
        <ele>281.88141</ele>
        <time>2023-03-15T13:48:08.000Z</time>
      </trkpt>
      <trkpt lat="43.53057" lon="5.29922">
        <ele>281.5719</ele>
        <time>2023-03-15T13:48:10.000Z</time>
      </trkpt>
      <trkpt lat="43.53056" lon="5.2992">
        <ele>281.30936</ele>
        <time>2023-03-15T13:48:12.000Z</time>
      </trkpt>
      <trkpt lat="43.53055" lon="5.29916">
        <ele>281.05533</ele>
        <time>2023-03-15T13:48:14.000Z</time>
      </trkpt>
      <trkpt lat="43.53054" lon="5.29913">
        <ele>280.81149</ele>
        <time>2023-03-15T13:48:16.000Z</time>
      </trkpt>
      <trkpt lat="43.53053" lon="5.2991">
        <ele>280.56479</ele>
        <time>2023-03-15T13:48:18.000Z</time>
      </trkpt>
      <trkpt lat="43.53053" lon="5.29908">
        <ele>280.28534</ele>
        <time>2023-03-15T13:48:20.000Z</time>
      </trkpt>
      <trkpt lat="43.53051" lon="5.29905">
        <ele>279.97058</ele>
        <time>2023-03-15T13:48:22.000Z</time>
      </trkpt>
      <trkpt lat="43.5305" lon="5.29902">
        <ele>279.70502</ele>
        <time>2023-03-15T13:48:24.000Z</time>
      </trkpt>
      <trkpt lat="43.53049" lon="5.29899">
        <ele>279.48914</ele>
        <time>2023-03-15T13:48:26.000Z</time>
      </trkpt>
      <trkpt lat="43.53047" lon="5.29897">
        <ele>279.26263</ele>
        <time>2023-03-15T13:48:28.000Z</time>
      </trkpt>
      <trkpt lat="43.53047" lon="5.29894">
        <ele>279.0307</ele>
        <time>2023-03-15T13:48:30.000Z</time>
      </trkpt>
      <trkpt lat="43.53045" lon="5.29891">
        <ele>278.78839</ele>
        <time>2023-03-15T13:48:32.000Z</time>
      </trkpt>
      <trkpt lat="43.53044" lon="5.29889">
        <ele>278.51633</ele>
        <time>2023-03-15T13:48:34.000Z</time>
      </trkpt>
      <trkpt lat="43.53043" lon="5.29886">
        <ele>278.26492</ele>
        <time>2023-03-15T13:48:36.000Z</time>
      </trkpt>
      <trkpt lat="43.53042" lon="5.29883">
        <ele>278.03281</ele>
        <time>2023-03-15T13:48:38.000Z</time>
      </trkpt>
      <trkpt lat="43.53041" lon="5.29881">
        <ele>277.81439</ele>
        <time>2023-03-15T13:48:40.000Z</time>
      </trkpt>
      <trkpt lat="43.5304" lon="5.29878">
        <ele>277.6235</ele>
        <time>2023-03-15T13:48:42.000Z</time>
      </trkpt>
      <trkpt lat="43.53039" lon="5.29875">
        <ele>277.44321</ele>
        <time>2023-03-15T13:48:44.000Z</time>
      </trkpt>
      <trkpt lat="43.53038" lon="5.29873">
        <ele>277.27731</ele>
        <time>2023-03-15T13:48:46.000Z</time>
      </trkpt>
      <trkpt lat="43.53037" lon="5.2987">
        <ele>277.1416</ele>
        <time>2023-03-15T13:48:48.000Z</time>
      </trkpt>
      <trkpt lat="43.53037" lon="5.29867">
        <ele>277.06036</ele>
        <time>2023-03-15T13:48:50.000Z</time>
      </trkpt>
      <trkpt lat="43.53037" lon="5.29864">
        <ele>276.98495</ele>
        <time>2023-03-15T13:48:52.000Z</time>
      </trkpt>
      <trkpt lat="43.53037" lon="5.29861">
        <ele>276.91895</ele>
        <time>2023-03-15T13:48:54.000Z</time>
      </trkpt>
      <trkpt lat="43.53036" lon="5.29858">
        <ele>276.89154</ele>
        <time>2023-03-15T13:48:56.000Z</time>
      </trkpt>
      <trkpt lat="43.53035" lon="5.29855">
        <ele>276.9003</ele>
        <time>2023-03-15T13:48:58.000Z</time>
      </trkpt>
      <trkpt lat="43.53034" lon="5.29853">
        <ele>276.94254</ele>
        <time>2023-03-15T13:49:00.000Z</time>
      </trkpt>
      <trkpt lat="43.53033" lon="5.29851">
        <ele>277.00891</ele>
        <time>2023-03-15T13:49:02.000Z</time>
      </trkpt>
      <trkpt lat="43.53033" lon="5.29848">
        <ele>277.04932</ele>
        <time>2023-03-15T13:49:04.000Z</time>
      </trkpt>
      <trkpt lat="43.53033" lon="5.29845">
        <ele>277.0993</ele>
        <time>2023-03-15T13:49:06.000Z</time>
      </trkpt>
      <trkpt lat="43.53033" lon="5.29843">
        <ele>277.17438</ele>
        <time>2023-03-15T13:49:08.000Z</time>
      </trkpt>
      <trkpt lat="43.53033" lon="5.2984">
        <ele>277.28824</ele>
        <time>2023-03-15T13:49:10.000Z</time>
      </trkpt>
      <trkpt lat="43.53033" lon="5.29837">
        <ele>277.42667</ele>
        <time>2023-03-15T13:49:12.000Z</time>
      </trkpt>
      <trkpt lat="43.53033" lon="5.29835">
        <ele>277.62494</ele>
        <time>2023-03-15T13:49:14.000Z</time>
      </trkpt>
      <trkpt lat="43.53033" lon="5.29832">
        <ele>277.78796</ele>
        <time>2023-03-15T13:49:16.000Z</time>
      </trkpt>
      <trkpt lat="43.53033" lon="5.29829">
        <ele>278.01581</ele>
        <time>2023-03-15T13:49:18.000Z</time>
      </trkpt>
      <trkpt lat="43.53032" lon="5.29826">
        <ele>278.24091</ele>
        <time>2023-03-15T13:49:21.000Z</time>
      </trkpt>
      <trkpt lat="43.53034" lon="5.29822">
        <ele>278.43314</ele>
        <time>2023-03-15T13:49:24.000Z</time>
      </trkpt>
      <trkpt lat="43.53035" lon="5.2982">
        <ele>278.60254</ele>
        <time>2023-03-15T13:49:26.000Z</time>
      </trkpt>
      <trkpt lat="43.53036" lon="5.29818">
        <ele>278.74948</ele>
        <time>2023-03-15T13:49:28.000Z</time>
      </trkpt>
      <trkpt lat="43.53037" lon="5.29816">
        <ele>278.9046</ele>
        <time>2023-03-15T13:49:30.000Z</time>
      </trkpt>
      <trkpt lat="43.53039" lon="5.29814">
        <ele>279.06207</ele>
        <time>2023-03-15T13:49:32.000Z</time>
      </trkpt>
      <trkpt lat="43.5304" lon="5.29813">
        <ele>279.25879</ele>
        <time>2023-03-15T13:49:34.000Z</time>
      </trkpt>
      <trkpt lat="43.53042" lon="5.29811">
        <ele>279.47025</ele>
        <time>2023-03-15T13:49:36.000Z</time>
      </trkpt>
      <trkpt lat="43.53043" lon="5.29809">
        <ele>279.68683</ele>
        <time>2023-03-15T13:49:38.000Z</time>
      </trkpt>
      <trkpt lat="43.53045" lon="5.29807">
        <ele>279.91534</ele>
        <time>2023-03-15T13:49:40.000Z</time>
      </trkpt>
      <trkpt lat="43.53046" lon="5.29805">
        <ele>280.15714</ele>
        <time>2023-03-15T13:49:42.000Z</time>
      </trkpt>
      <trkpt lat="43.53048" lon="5.29804">
        <ele>280.40979</ele>
        <time>2023-03-15T13:49:44.000Z</time>
      </trkpt>
      <trkpt lat="43.5305" lon="5.29803">
        <ele>280.69812</ele>
        <time>2023-03-15T13:49:46.000Z</time>
      </trkpt>
      <trkpt lat="43.53052" lon="5.29801">
        <ele>280.96851</ele>
        <time>2023-03-15T13:49:48.000Z</time>
      </trkpt>
      <trkpt lat="43.53053" lon="5.29799">
        <ele>281.24338</ele>
        <time>2023-03-15T13:49:50.000Z</time>
      </trkpt>
      <trkpt lat="43.53054" lon="5.29796">
        <ele>281.48941</ele>
        <time>2023-03-15T13:49:52.000Z</time>
      </trkpt>
      <trkpt lat="43.53055" lon="5.29794">
        <ele>281.71255</ele>
        <time>2023-03-15T13:49:54.000Z</time>
      </trkpt>
      <trkpt lat="43.53057" lon="5.29792">
        <ele>281.96918</ele>
        <time>2023-03-15T13:49:56.000Z</time>
      </trkpt>
      <trkpt lat="43.53058" lon="5.29789">
        <ele>282.27652</ele>
        <time>2023-03-15T13:49:59.000Z</time>
      </trkpt>
      <trkpt lat="43.53056" lon="5.29788">
        <ele>282.57867</ele>
        <time>2023-03-15T13:50:01.000Z</time>
      </trkpt>
      <trkpt lat="43.53056" lon="5.29785">
        <ele>282.86273</ele>
        <time>2023-03-15T13:50:06.000Z</time>
      </trkpt>
      <trkpt lat="43.53057" lon="5.29782">
        <ele>283.13083</ele>
        <time>2023-03-15T13:50:08.000Z</time>
      </trkpt>
      <trkpt lat="43.53058" lon="5.2978">
        <ele>283.39145</ele>
        <time>2023-03-15T13:50:10.000Z</time>
      </trkpt>
      <trkpt lat="43.53059" lon="5.29777">
        <ele>283.65872</ele>
        <time>2023-03-15T13:50:12.000Z</time>
      </trkpt>
      <trkpt lat="43.53061" lon="5.29774">
        <ele>283.90506</ele>
        <time>2023-03-15T13:50:15.000Z</time>
      </trkpt>
      <trkpt lat="43.53061" lon="5.29772">
        <ele>284.14404</ele>
        <time>2023-03-15T13:50:17.000Z</time>
      </trkpt>
      <trkpt lat="43.53062" lon="5.29769">
        <ele>284.32672</ele>
        <time>2023-03-15T13:50:19.000Z</time>
      </trkpt>
      <trkpt lat="43.53064" lon="5.29766">
        <ele>284.5141</ele>
        <time>2023-03-15T13:50:21.000Z</time>
      </trkpt>
      <trkpt lat="43.53065" lon="5.29764">
        <ele>284.6485</ele>
        <time>2023-03-15T13:50:23.000Z</time>
      </trkpt>
      <trkpt lat="43.53066" lon="5.29761">
        <ele>284.72226</ele>
        <time>2023-03-15T13:50:25.000Z</time>
      </trkpt>
      <trkpt lat="43.53067" lon="5.29759">
        <ele>284.78827</ele>
        <time>2023-03-15T13:50:27.000Z</time>
      </trkpt>
      <trkpt lat="43.53068" lon="5.29756">
        <ele>284.84198</ele>
        <time>2023-03-15T13:50:29.000Z</time>
      </trkpt>
      <trkpt lat="43.53069" lon="5.29754">
        <ele>284.88361</ele>
        <time>2023-03-15T13:50:31.000Z</time>
      </trkpt>
      <trkpt lat="43.53071" lon="5.29752">
        <ele>284.91339</ele>
        <time>2023-03-15T13:50:33.000Z</time>
      </trkpt>
      <trkpt lat="43.53072" lon="5.29749">
        <ele>284.9129</ele>
        <time>2023-03-15T13:50:35.000Z</time>
      </trkpt>
      <trkpt lat="43.53073" lon="5.29747">
        <ele>284.90259</ele>
        <time>2023-03-15T13:50:37.000Z</time>
      </trkpt>
      <trkpt lat="43.53075" lon="5.29744">
        <ele>284.8934</ele>
        <time>2023-03-15T13:50:39.000Z</time>
      </trkpt>
      <trkpt lat="43.53076" lon="5.29742">
        <ele>284.84705</ele>
        <time>2023-03-15T13:50:41.000Z</time>
      </trkpt>
      <trkpt lat="43.53078" lon="5.2974">
        <ele>284.78189</ele>
        <time>2023-03-15T13:50:43.000Z</time>
      </trkpt>
      <trkpt lat="43.53079" lon="5.29737">
        <ele>284.66098</ele>
        <time>2023-03-15T13:50:45.000Z</time>
      </trkpt>
      <trkpt lat="43.5308" lon="5.29734">
        <ele>284.5322</ele>
        <time>2023-03-15T13:50:47.000Z</time>
      </trkpt>
      <trkpt lat="43.53082" lon="5.29732">
        <ele>284.44711</ele>
        <time>2023-03-15T13:50:49.000Z</time>
      </trkpt>
      <trkpt lat="43.53084" lon="5.29729">
        <ele>284.36584</ele>
        <time>2023-03-15T13:50:51.000Z</time>
      </trkpt>
      <trkpt lat="43.53085" lon="5.29726">
        <ele>284.31122</ele>
        <time>2023-03-15T13:50:53.000Z</time>
      </trkpt>
      <trkpt lat="43.53087" lon="5.29724">
        <ele>284.24713</ele>
        <time>2023-03-15T13:50:55.000Z</time>
      </trkpt>
      <trkpt lat="43.53088" lon="5.29721">
        <ele>284.22739</ele>
        <time>2023-03-15T13:50:57.000Z</time>
      </trkpt>
      <trkpt lat="43.53089" lon="5.29719">
        <ele>284.24094</ele>
        <time>2023-03-15T13:50:59.000Z</time>
      </trkpt>
      <trkpt lat="43.5309" lon="5.29717">
        <ele>284.26569</ele>
        <time>2023-03-15T13:51:01.000Z</time>
      </trkpt>
      <trkpt lat="43.53092" lon="5.29714">
        <ele>284.35666</ele>
        <time>2023-03-15T13:51:03.000Z</time>
      </trkpt>
      <trkpt lat="43.53094" lon="5.29711">
        <ele>284.50708</ele>
        <time>2023-03-15T13:51:06.000Z</time>
      </trkpt>
      <trkpt lat="43.53096" lon="5.29708">
        <ele>284.65527</ele>
        <time>2023-03-15T13:51:08.000Z</time>
      </trkpt>
      <trkpt lat="43.53097" lon="5.29706">
        <ele>284.8183</ele>
        <time>2023-03-15T13:51:10.000Z</time>
      </trkpt>
      <trkpt lat="43.53098" lon="5.29704">
        <ele>285.01849</ele>
        <time>2023-03-15T13:51:12.000Z</time>
      </trkpt>
      <trkpt lat="43.531" lon="5.29702">
        <ele>285.20673</ele>
        <time>2023-03-15T13:51:14.000Z</time>
      </trkpt>
      <trkpt lat="43.53102" lon="5.297">
        <ele>285.40976</ele>
        <time>2023-03-15T13:51:16.000Z</time>
      </trkpt>
      <trkpt lat="43.53103" lon="5.29698">
        <ele>285.62982</ele>
        <time>2023-03-15T13:51:18.000Z</time>
      </trkpt>
      <trkpt lat="43.53105" lon="5.29696">
        <ele>285.86975</ele>
        <time>2023-03-15T13:51:20.000Z</time>
      </trkpt>
      <trkpt lat="43.53106" lon="5.29694">
        <ele>286.09735</ele>
        <time>2023-03-15T13:51:22.000Z</time>
      </trkpt>
      <trkpt lat="43.53108" lon="5.29692">
        <ele>286.30939</ele>
        <time>2023-03-15T13:51:24.000Z</time>
      </trkpt>
      <trkpt lat="43.5311" lon="5.29691">
        <ele>286.51923</ele>
        <time>2023-03-15T13:51:26.000Z</time>
      </trkpt>
      <trkpt lat="43.53112" lon="5.29689">
        <ele>286.79248</ele>
        <time>2023-03-15T13:51:28.000Z</time>
      </trkpt>
      <trkpt lat="43.53114" lon="5.29688">
        <ele>287.04205</ele>
        <time>2023-03-15T13:51:30.000Z</time>
      </trkpt>
      <trkpt lat="43.53116" lon="5.29686">
        <ele>287.3017</ele>
        <time>2023-03-15T13:51:32.000Z</time>
      </trkpt>
      <trkpt lat="43.53117" lon="5.29685">
        <ele>287.52634</ele>
        <time>2023-03-15T13:51:34.000Z</time>
      </trkpt>
      <trkpt lat="43.53119" lon="5.29684">
        <ele>287.7424</ele>
        <time>2023-03-15T13:51:36.000Z</time>
      </trkpt>
      <trkpt lat="43.53121" lon="5.29683">
        <ele>287.89532</ele>
        <time>2023-03-15T13:51:38.000Z</time>
      </trkpt>
      <trkpt lat="43.53123" lon="5.29682">
        <ele>288.02325</ele>
        <time>2023-03-15T13:51:40.000Z</time>
      </trkpt>
      <trkpt lat="43.53125" lon="5.29681">
        <ele>288.09286</ele>
        <time>2023-03-15T13:51:42.000Z</time>
      </trkpt>
      <trkpt lat="43.53127" lon="5.2968">
        <ele>288.16766</ele>
        <time>2023-03-15T13:51:44.000Z</time>
      </trkpt>
      <trkpt lat="43.53129" lon="5.29679">
        <ele>288.21692</ele>
        <time>2023-03-15T13:51:46.000Z</time>
      </trkpt>
      <trkpt lat="43.53131" lon="5.29678">
        <ele>288.27505</ele>
        <time>2023-03-15T13:51:48.000Z</time>
      </trkpt>
      <trkpt lat="43.53133" lon="5.29676">
        <ele>288.31708</ele>
        <time>2023-03-15T13:51:50.000Z</time>
      </trkpt>
      <trkpt lat="43.53135" lon="5.29676">
        <ele>288.32727</ele>
        <time>2023-03-15T13:51:52.000Z</time>
      </trkpt>
      <trkpt lat="43.53137" lon="5.29675">
        <ele>288.31903</ele>
        <time>2023-03-15T13:51:54.000Z</time>
      </trkpt>
      <trkpt lat="43.53139" lon="5.29673">
        <ele>288.31277</ele>
        <time>2023-03-15T13:51:56.000Z</time>
      </trkpt>
      <trkpt lat="43.53141" lon="5.29672">
        <ele>288.34406</ele>
        <time>2023-03-15T13:51:58.000Z</time>
      </trkpt>
      <trkpt lat="43.53143" lon="5.29671">
        <ele>288.40613</ele>
        <time>2023-03-15T13:52:00.000Z</time>
      </trkpt>
      <trkpt lat="43.53145" lon="5.2967">
        <ele>288.4949</ele>
        <time>2023-03-15T13:52:02.000Z</time>
      </trkpt>
      <trkpt lat="43.53147" lon="5.29668">
        <ele>288.60114</ele>
        <time>2023-03-15T13:52:04.000Z</time>
      </trkpt>
      <trkpt lat="43.53149" lon="5.29668">
        <ele>288.74771</ele>
        <time>2023-03-15T13:52:06.000Z</time>
      </trkpt>
      <trkpt lat="43.53152" lon="5.29667">
        <ele>288.88922</ele>
        <time>2023-03-15T13:52:08.000Z</time>
      </trkpt>
      <trkpt lat="43.53154" lon="5.29666">
        <ele>289.0239</ele>
        <time>2023-03-15T13:52:10.000Z</time>
      </trkpt>
      <trkpt lat="43.53156" lon="5.29665">
        <ele>289.13104</ele>
        <time>2023-03-15T13:52:12.000Z</time>
      </trkpt>
      <trkpt lat="43.53158" lon="5.29664">
        <ele>289.22455</ele>
        <time>2023-03-15T13:52:14.000Z</time>
      </trkpt>
      <trkpt lat="43.5316" lon="5.29663">
        <ele>289.29938</ele>
        <time>2023-03-15T13:52:16.000Z</time>
      </trkpt>
      <trkpt lat="43.53162" lon="5.29662">
        <ele>289.39642</ele>
        <time>2023-03-15T13:52:18.000Z</time>
      </trkpt>
      <trkpt lat="43.53164" lon="5.29661">
        <ele>289.55902</ele>
        <time>2023-03-15T13:52:21.000Z</time>
      </trkpt>
      <trkpt lat="43.53166" lon="5.2966">
        <ele>289.74493</ele>
        <time>2023-03-15T13:52:23.000Z</time>
      </trkpt>
      <trkpt lat="43.53168" lon="5.29659">
        <ele>289.87808</ele>
        <time>2023-03-15T13:52:25.000Z</time>
      </trkpt>
      <trkpt lat="43.5317" lon="5.29657">
        <ele>290.00644</ele>
        <time>2023-03-15T13:52:27.000Z</time>
      </trkpt>
      <trkpt lat="43.53171" lon="5.29656">
        <ele>290.11847</ele>
        <time>2023-03-15T13:52:29.000Z</time>
      </trkpt>
      <trkpt lat="43.53173" lon="5.29654">
        <ele>290.26593</ele>
        <time>2023-03-15T13:52:31.000Z</time>
      </trkpt>
      <trkpt lat="43.53175" lon="5.29652">
        <ele>290.37314</ele>
        <time>2023-03-15T13:52:33.000Z</time>
      </trkpt>
      <trkpt lat="43.53177" lon="5.29651">
        <ele>290.54486</ele>
        <time>2023-03-15T13:52:35.000Z</time>
      </trkpt>
      <trkpt lat="43.53179" lon="5.2965">
        <ele>290.71442</ele>
        <time>2023-03-15T13:52:37.000Z</time>
      </trkpt>
      <trkpt lat="43.53181" lon="5.29648">
        <ele>290.83148</ele>
        <time>2023-03-15T13:52:39.000Z</time>
      </trkpt>
      <trkpt lat="43.53183" lon="5.29646">
        <ele>290.91913</ele>
        <time>2023-03-15T13:52:41.000Z</time>
      </trkpt>
      <trkpt lat="43.53184" lon="5.29643">
        <ele>290.99127</ele>
        <time>2023-03-15T13:52:43.000Z</time>
      </trkpt>
      <trkpt lat="43.53186" lon="5.29641">
        <ele>291.01996</ele>
        <time>2023-03-15T13:52:45.000Z</time>
      </trkpt>
      <trkpt lat="43.53187" lon="5.29638">
        <ele>291.00571</ele>
        <time>2023-03-15T13:52:47.000Z</time>
      </trkpt>
      <trkpt lat="43.53189" lon="5.29636">
        <ele>290.96576</ele>
        <time>2023-03-15T13:52:49.000Z</time>
      </trkpt>
      <trkpt lat="43.53191" lon="5.29634">
        <ele>290.94601</ele>
        <time>2023-03-15T13:52:51.000Z</time>
      </trkpt>
      <trkpt lat="43.53192" lon="5.29632">
        <ele>290.98462</ele>
        <time>2023-03-15T13:52:53.000Z</time>
      </trkpt>
      <trkpt lat="43.53194" lon="5.29631">
        <ele>291.09912</ele>
        <time>2023-03-15T13:52:55.000Z</time>
      </trkpt>
      <trkpt lat="43.53195" lon="5.29629">
        <ele>291.21533</ele>
        <time>2023-03-15T13:52:57.000Z</time>
      </trkpt>
      <trkpt lat="43.53197" lon="5.29627">
        <ele>291.27301</ele>
        <time>2023-03-15T13:52:59.000Z</time>
      </trkpt>
      <trkpt lat="43.53199" lon="5.29626">
        <ele>291.25793</ele>
        <time>2023-03-15T13:53:01.000Z</time>
      </trkpt>
      <trkpt lat="43.532" lon="5.29624">
        <ele>291.28354</ele>
        <time>2023-03-15T13:53:03.000Z</time>
      </trkpt>
      <trkpt lat="43.53202" lon="5.29622">
        <ele>291.34857</ele>
        <time>2023-03-15T13:53:05.000Z</time>
      </trkpt>
      <trkpt lat="43.53204" lon="5.29618">
        <ele>291.42548</ele>
        <time>2023-03-15T13:53:08.000Z</time>
      </trkpt>
      <trkpt lat="43.53206" lon="5.29617">
        <ele>291.47919</ele>
        <time>2023-03-15T13:53:10.000Z</time>
      </trkpt>
      <trkpt lat="43.53207" lon="5.29615">
        <ele>291.46506</ele>
        <time>2023-03-15T13:53:12.000Z</time>
      </trkpt>
      <trkpt lat="43.53209" lon="5.29613">
        <ele>291.4917</ele>
        <time>2023-03-15T13:53:14.000Z</time>
      </trkpt>
      <trkpt lat="43.5321" lon="5.2961">
        <ele>291.47586</ele>
        <time>2023-03-15T13:53:16.000Z</time>
      </trkpt>
      <trkpt lat="43.53212" lon="5.29608">
        <ele>291.44296</ele>
        <time>2023-03-15T13:53:18.000Z</time>
      </trkpt>
      <trkpt lat="43.53214" lon="5.29606">
        <ele>291.39764</ele>
        <time>2023-03-15T13:53:20.000Z</time>
      </trkpt>
      <trkpt lat="43.53215" lon="5.29603">
        <ele>291.35654</ele>
        <time>2023-03-15T13:53:22.000Z</time>
      </trkpt>
      <trkpt lat="43.53215" lon="5.296">
        <ele>291.31393</ele>
        <time>2023-03-15T13:53:24.000Z</time>
      </trkpt>
      <trkpt lat="43.53216" lon="5.29598">
        <ele>291.28152</ele>
        <time>2023-03-15T13:53:26.000Z</time>
      </trkpt>
      <trkpt lat="43.53217" lon="5.29595">
        <ele>291.28265</ele>
        <time>2023-03-15T13:53:28.000Z</time>
      </trkpt>
      <trkpt lat="43.53218" lon="5.29592">
        <ele>291.30902</ele>
        <time>2023-03-15T13:53:30.000Z</time>
      </trkpt>
      <trkpt lat="43.53217" lon="5.29589">
        <ele>291.30862</ele>
        <time>2023-03-15T13:53:32.000Z</time>
      </trkpt>
      <trkpt lat="43.53217" lon="5.29586">
        <ele>291.28888</ele>
        <time>2023-03-15T13:53:34.000Z</time>
      </trkpt>
      <trkpt lat="43.53217" lon="5.29583">
        <ele>291.23273</ele>
        <time>2023-03-15T13:53:36.000Z</time>
      </trkpt>
      <trkpt lat="43.53216" lon="5.2958">
        <ele>291.23444</ele>
        <time>2023-03-15T13:53:38.000Z</time>
      </trkpt>
      <trkpt lat="43.53215" lon="5.29577">
        <ele>291.25836</ele>
        <time>2023-03-15T13:53:40.000Z</time>
      </trkpt>
      <trkpt lat="43.53213" lon="5.29574">
        <ele>291.27563</ele>
        <time>2023-03-15T13:53:42.000Z</time>
      </trkpt>
      <trkpt lat="43.53212" lon="5.29572">
        <ele>291.211</ele>
        <time>2023-03-15T13:53:44.000Z</time>
      </trkpt>
      <trkpt lat="43.5321" lon="5.29569">
        <ele>291.10587</ele>
        <time>2023-03-15T13:53:46.000Z</time>
      </trkpt>
      <trkpt lat="43.53208" lon="5.29567">
        <ele>290.95862</ele>
        <time>2023-03-15T13:53:48.000Z</time>
      </trkpt>
      <trkpt lat="43.53206" lon="5.29565">
        <ele>290.8175</ele>
        <time>2023-03-15T13:53:50.000Z</time>
      </trkpt>
      <trkpt lat="43.53205" lon="5.29562">
        <ele>290.71552</ele>
        <time>2023-03-15T13:53:52.000Z</time>
      </trkpt>
      <trkpt lat="43.53203" lon="5.2956">
        <ele>290.60077</ele>
        <time>2023-03-15T13:53:54.000Z</time>
      </trkpt>
      <trkpt lat="43.53202" lon="5.29558">
        <ele>290.49683</ele>
        <time>2023-03-15T13:53:56.000Z</time>
      </trkpt>
      <trkpt lat="43.53201" lon="5.29556">
        <ele>290.41379</ele>
        <time>2023-03-15T13:53:58.000Z</time>
      </trkpt>
      <trkpt lat="43.532" lon="5.29553">
        <ele>290.32651</ele>
        <time>2023-03-15T13:54:00.000Z</time>
      </trkpt>
      <trkpt lat="43.53198" lon="5.29551">
        <ele>290.18018</ele>
        <time>2023-03-15T13:54:02.000Z</time>
      </trkpt>
      <trkpt lat="43.53197" lon="5.29549">
        <ele>289.98877</ele>
        <time>2023-03-15T13:54:04.000Z</time>
      </trkpt>
      <trkpt lat="43.53196" lon="5.29546">
        <ele>289.82526</ele>
        <time>2023-03-15T13:54:06.000Z</time>
      </trkpt>
      <trkpt lat="43.53194" lon="5.29543">
        <ele>289.63251</ele>
        <time>2023-03-15T13:54:08.000Z</time>
      </trkpt>
      <trkpt lat="43.53193" lon="5.29541">
        <ele>289.43097</ele>
        <time>2023-03-15T13:54:10.000Z</time>
      </trkpt>
      <trkpt lat="43.53191" lon="5.29538">
        <ele>289.24069</ele>
        <time>2023-03-15T13:54:12.000Z</time>
      </trkpt>
      <trkpt lat="43.5319" lon="5.29536">
        <ele>289.01941</ele>
        <time>2023-03-15T13:54:14.000Z</time>
      </trkpt>
      <trkpt lat="43.53188" lon="5.29533">
        <ele>288.79639</ele>
        <time>2023-03-15T13:54:16.000Z</time>
      </trkpt>
      <trkpt lat="43.53186" lon="5.29531">
        <ele>288.5372</ele>
        <time>2023-03-15T13:54:18.000Z</time>
      </trkpt>
      <trkpt lat="43.53184" lon="5.29528">
        <ele>288.32764</ele>
        <time>2023-03-15T13:54:20.000Z</time>
      </trkpt>
      <trkpt lat="43.53183" lon="5.29525">
        <ele>288.1463</ele>
        <time>2023-03-15T13:54:22.000Z</time>
      </trkpt>
      <trkpt lat="43.53181" lon="5.29523">
        <ele>288.02231</ele>
        <time>2023-03-15T13:54:24.000Z</time>
      </trkpt>
      <trkpt lat="43.5318" lon="5.29521">
        <ele>287.93286</ele>
        <time>2023-03-15T13:54:26.000Z</time>
      </trkpt>
      <trkpt lat="43.53179" lon="5.29518">
        <ele>287.87866</ele>
        <time>2023-03-15T13:54:28.000Z</time>
      </trkpt>
      <trkpt lat="43.53177" lon="5.29516">
        <ele>287.82446</ele>
        <time>2023-03-15T13:54:30.000Z</time>
      </trkpt>
      <trkpt lat="43.53175" lon="5.29514">
        <ele>287.79086</ele>
        <time>2023-03-15T13:54:32.000Z</time>
      </trkpt>
      <trkpt lat="43.53174" lon="5.29512">
        <ele>287.76077</ele>
        <time>2023-03-15T13:54:34.000Z</time>
      </trkpt>
      <trkpt lat="43.53172" lon="5.29509">
        <ele>287.69678</ele>
        <time>2023-03-15T13:54:36.000Z</time>
      </trkpt>
      <trkpt lat="43.53171" lon="5.29507">
        <ele>287.63058</ele>
        <time>2023-03-15T13:54:38.000Z</time>
      </trkpt>
      <trkpt lat="43.5317" lon="5.29504">
        <ele>287.55942</ele>
        <time>2023-03-15T13:54:40.000Z</time>
      </trkpt>
      <trkpt lat="43.53168" lon="5.29502">
        <ele>287.53769</ele>
        <time>2023-03-15T13:54:42.000Z</time>
      </trkpt>
      <trkpt lat="43.53167" lon="5.29499">
        <ele>287.55817</ele>
        <time>2023-03-15T13:54:44.000Z</time>
      </trkpt>
      <trkpt lat="43.53165" lon="5.29497">
        <ele>287.53839</ele>
        <time>2023-03-15T13:54:46.000Z</time>
      </trkpt>
      <trkpt lat="43.53164" lon="5.29494">
        <ele>287.54559</ele>
        <time>2023-03-15T13:54:48.000Z</time>
      </trkpt>
      <trkpt lat="43.53162" lon="5.29492">
        <ele>287.53452</ele>
        <time>2023-03-15T13:54:50.000Z</time>
      </trkpt>
      <trkpt lat="43.53161" lon="5.29489">
        <ele>287.58304</ele>
        <time>2023-03-15T13:54:52.000Z</time>
      </trkpt>
      <trkpt lat="43.53159" lon="5.29486">
        <ele>287.64636</ele>
        <time>2023-03-15T13:54:54.000Z</time>
      </trkpt>
      <trkpt lat="43.53158" lon="5.29483">
        <ele>287.70944</ele>
        <time>2023-03-15T13:54:56.000Z</time>
      </trkpt>
      <trkpt lat="43.53156" lon="5.29481">
        <ele>287.81619</ele>
        <time>2023-03-15T13:54:58.000Z</time>
      </trkpt>
      <trkpt lat="43.53155" lon="5.29478">
        <ele>287.91895</ele>
        <time>2023-03-15T13:55:00.000Z</time>
      </trkpt>
      <trkpt lat="43.53154" lon="5.29475">
        <ele>288.03778</ele>
        <time>2023-03-15T13:55:02.000Z</time>
      </trkpt>
      <trkpt lat="43.53153" lon="5.29472">
        <ele>288.15497</ele>
        <time>2023-03-15T13:55:04.000Z</time>
      </trkpt>
      <trkpt lat="43.53152" lon="5.29469">
        <ele>288.25467</ele>
        <time>2023-03-15T13:55:06.000Z</time>
      </trkpt>
      <trkpt lat="43.53151" lon="5.29466">
        <ele>288.34866</ele>
        <time>2023-03-15T13:55:08.000Z</time>
      </trkpt>
      <trkpt lat="43.53151" lon="5.29463">
        <ele>288.46399</ele>
        <time>2023-03-15T13:55:10.000Z</time>
      </trkpt>
      <trkpt lat="43.53151" lon="5.2946">
        <ele>288.59012</ele>
        <time>2023-03-15T13:55:12.000Z</time>
      </trkpt>
      <trkpt lat="43.5315" lon="5.29457">
        <ele>288.69977</ele>
        <time>2023-03-15T13:55:14.000Z</time>
      </trkpt>
      <trkpt lat="43.53151" lon="5.29454">
        <ele>288.88434</ele>
        <time>2023-03-15T13:55:16.000Z</time>
      </trkpt>
      <trkpt lat="43.53152" lon="5.29451">
        <ele>289.09961</ele>
        <time>2023-03-15T13:55:18.000Z</time>
      </trkpt>
      <trkpt lat="43.53152" lon="5.29447">
        <ele>289.3446</ele>
        <time>2023-03-15T13:55:20.000Z</time>
      </trkpt>
      <trkpt lat="43.53154" lon="5.29444">
        <ele>289.56491</ele>
        <time>2023-03-15T13:55:22.000Z</time>
      </trkpt>
      <trkpt lat="43.53155" lon="5.29441">
        <ele>289.80707</ele>
        <time>2023-03-15T13:55:24.000Z</time>
      </trkpt>
      <trkpt lat="43.53155" lon="5.29438">
        <ele>290.07623</ele>
        <time>2023-03-15T13:55:26.000Z</time>
      </trkpt>
      <trkpt lat="43.53156" lon="5.29435">
        <ele>290.32123</ele>
        <time>2023-03-15T13:55:28.000Z</time>
      </trkpt>
      <trkpt lat="43.53156" lon="5.29432">
        <ele>290.55472</ele>
        <time>2023-03-15T13:55:30.000Z</time>
      </trkpt>
      <trkpt lat="43.53157" lon="5.29429">
        <ele>290.74335</ele>
        <time>2023-03-15T13:55:32.000Z</time>
      </trkpt>
      <trkpt lat="43.53158" lon="5.29426">
        <ele>290.91571</ele>
        <time>2023-03-15T13:55:34.000Z</time>
      </trkpt>
      <trkpt lat="43.53158" lon="5.29423">
        <ele>291.08023</ele>
        <time>2023-03-15T13:55:36.000Z</time>
      </trkpt>
      <trkpt lat="43.53159" lon="5.2942">
        <ele>291.23529</ele>
        <time>2023-03-15T13:55:38.000Z</time>
      </trkpt>
      <trkpt lat="43.5316" lon="5.29418">
        <ele>291.39038</ele>
        <time>2023-03-15T13:55:40.000Z</time>
      </trkpt>
      <trkpt lat="43.53162" lon="5.29416">
        <ele>291.51303</ele>
        <time>2023-03-15T13:55:42.000Z</time>
      </trkpt>
      <trkpt lat="43.53163" lon="5.29414">
        <ele>291.59561</ele>
        <time>2023-03-15T13:55:44.000Z</time>
      </trkpt>
      <trkpt lat="43.53165" lon="5.29413">
        <ele>291.68732</ele>
        <time>2023-03-15T13:55:46.000Z</time>
      </trkpt>
      <trkpt lat="43.53168" lon="5.29412">
        <ele>291.76248</ele>
        <time>2023-03-15T13:55:49.000Z</time>
      </trkpt>
      <trkpt lat="43.5317" lon="5.29413">
        <ele>291.86246</ele>
        <time>2023-03-15T13:55:51.000Z</time>
      </trkpt>
      <trkpt lat="43.53172" lon="5.29414">
        <ele>291.95572</ele>
        <time>2023-03-15T13:55:53.000Z</time>
      </trkpt>
      <trkpt lat="43.53175" lon="5.29415">
        <ele>292.08319</ele>
        <time>2023-03-15T13:55:55.000Z</time>
      </trkpt>
      <trkpt lat="43.53177" lon="5.29415">
        <ele>292.17572</ele>
        <time>2023-03-15T13:55:57.000Z</time>
      </trkpt>
      <trkpt lat="43.53179" lon="5.29416">
        <ele>292.24805</ele>
        <time>2023-03-15T13:55:59.000Z</time>
      </trkpt>
      <trkpt lat="43.53182" lon="5.29417">
        <ele>292.31607</ele>
        <time>2023-03-15T13:56:01.000Z</time>
      </trkpt>
      <trkpt lat="43.53184" lon="5.29417">
        <ele>292.39423</ele>
        <time>2023-03-15T13:56:03.000Z</time>
      </trkpt>
      <trkpt lat="43.53186" lon="5.29416">
        <ele>292.4046</ele>
        <time>2023-03-15T13:56:05.000Z</time>
      </trkpt>
      <trkpt lat="43.53188" lon="5.29415">
        <ele>292.41339</ele>
        <time>2023-03-15T13:56:07.000Z</time>
      </trkpt>
      <trkpt lat="43.5319" lon="5.29415">
        <ele>292.44211</ele>
        <time>2023-03-15T13:56:09.000Z</time>
      </trkpt>
      <trkpt lat="43.53192" lon="5.29415">
        <ele>292.47113</ele>
        <time>2023-03-15T13:56:11.000Z</time>
      </trkpt>
      <trkpt lat="43.53195" lon="5.29416">
        <ele>292.48715</ele>
        <time>2023-03-15T13:56:13.000Z</time>
      </trkpt>
      <trkpt lat="43.53197" lon="5.29416">
        <ele>292.49957</ele>
        <time>2023-03-15T13:56:15.000Z</time>
      </trkpt>
      <trkpt lat="43.53199" lon="5.29415">
        <ele>292.513</ele>
        <time>2023-03-15T13:56:17.000Z</time>
      </trkpt>
      <trkpt lat="43.53201" lon="5.29414">
        <ele>292.49783</ele>
        <time>2023-03-15T13:56:19.000Z</time>
      </trkpt>
      <trkpt lat="43.53203" lon="5.29414">
        <ele>292.47382</ele>
        <time>2023-03-15T13:56:21.000Z</time>
      </trkpt>
      <trkpt lat="43.53205" lon="5.29413">
        <ele>292.43991</ele>
        <time>2023-03-15T13:56:23.000Z</time>
      </trkpt>
      <trkpt lat="43.53207" lon="5.29413">
        <ele>292.43698</ele>
        <time>2023-03-15T13:56:25.000Z</time>
      </trkpt>
      <trkpt lat="43.5321" lon="5.29413">
        <ele>292.41641</ele>
        <time>2023-03-15T13:56:27.000Z</time>
      </trkpt>
      <trkpt lat="43.53212" lon="5.29415">
        <ele>292.41888</ele>
        <time>2023-03-15T13:56:29.000Z</time>
      </trkpt>
      <trkpt lat="43.53214" lon="5.29415">
        <ele>292.39542</ele>
        <time>2023-03-15T13:56:31.000Z</time>
      </trkpt>
      <trkpt lat="43.53216" lon="5.29416">
        <ele>292.32458</ele>
        <time>2023-03-15T13:56:33.000Z</time>
      </trkpt>
      <trkpt lat="43.53219" lon="5.29417">
        <ele>292.23819</ele>
        <time>2023-03-15T13:56:35.000Z</time>
      </trkpt>
      <trkpt lat="43.5322" lon="5.29419">
        <ele>292.14273</ele>
        <time>2023-03-15T13:56:37.000Z</time>
      </trkpt>
      <trkpt lat="43.53222" lon="5.2942">
        <ele>292.0163</ele>
        <time>2023-03-15T13:56:39.000Z</time>
      </trkpt>
      <trkpt lat="43.53224" lon="5.29422">
        <ele>291.8804</ele>
        <time>2023-03-15T13:56:41.000Z</time>
      </trkpt>
      <trkpt lat="43.53226" lon="5.29423">
        <ele>291.70105</ele>
        <time>2023-03-15T13:56:43.000Z</time>
      </trkpt>
      <trkpt lat="43.53228" lon="5.29424">
        <ele>291.54608</ele>
        <time>2023-03-15T13:56:45.000Z</time>
      </trkpt>
      <trkpt lat="43.5323" lon="5.29426">
        <ele>291.38794</ele>
        <time>2023-03-15T13:56:47.000Z</time>
      </trkpt>
      <trkpt lat="43.53232" lon="5.29428">
        <ele>291.22684</ele>
        <time>2023-03-15T13:56:49.000Z</time>
      </trkpt>
      <trkpt lat="43.53234" lon="5.2943">
        <ele>291.07883</ele>
        <time>2023-03-15T13:56:51.000Z</time>
      </trkpt>
      <trkpt lat="43.53235" lon="5.29431">
        <ele>290.91437</ele>
        <time>2023-03-15T13:56:53.000Z</time>
      </trkpt>
      <trkpt lat="43.53237" lon="5.29433">
        <ele>290.77042</ele>
        <time>2023-03-15T13:56:55.000Z</time>
      </trkpt>
      <trkpt lat="43.53239" lon="5.29434">
        <ele>290.61334</ele>
        <time>2023-03-15T13:56:57.000Z</time>
      </trkpt>
      <trkpt lat="43.5324" lon="5.29436">
        <ele>290.48138</ele>
        <time>2023-03-15T13:56:59.000Z</time>
      </trkpt>
      <trkpt lat="43.53242" lon="5.29437">
        <ele>290.33331</ele>
        <time>2023-03-15T13:57:01.000Z</time>
      </trkpt>
      <trkpt lat="43.53244" lon="5.29439">
        <ele>290.15863</ele>
        <time>2023-03-15T13:57:03.000Z</time>
      </trkpt>
      <trkpt lat="43.53246" lon="5.2944">
        <ele>289.96552</ele>
        <time>2023-03-15T13:57:05.000Z</time>
      </trkpt>
      <trkpt lat="43.53248" lon="5.29441">
        <ele>289.80722</ele>
        <time>2023-03-15T13:57:07.000Z</time>
      </trkpt>
      <trkpt lat="43.5325" lon="5.29442">
        <ele>289.62808</ele>
        <time>2023-03-15T13:57:09.000Z</time>
      </trkpt>
      <trkpt lat="43.53251" lon="5.29443">
        <ele>289.48581</ele>
        <time>2023-03-15T13:57:11.000Z</time>
      </trkpt>
      <trkpt lat="43.53253" lon="5.29444">
        <ele>289.35028</ele>
        <time>2023-03-15T13:57:13.000Z</time>
      </trkpt>
      <trkpt lat="43.53255" lon="5.29446">
        <ele>289.20575</ele>
        <time>2023-03-15T13:57:15.000Z</time>
      </trkpt>
      <trkpt lat="43.53257" lon="5.29447">
        <ele>289.0358</ele>
        <time>2023-03-15T13:57:17.000Z</time>
      </trkpt>
      <trkpt lat="43.53259" lon="5.29449">
        <ele>288.89484</ele>
        <time>2023-03-15T13:57:19.000Z</time>
      </trkpt>
      <trkpt lat="43.53261" lon="5.2945">
        <ele>288.76553</ele>
        <time>2023-03-15T13:57:21.000Z</time>
      </trkpt>
      <trkpt lat="43.53263" lon="5.29451">
        <ele>288.68085</ele>
        <time>2023-03-15T13:57:23.000Z</time>
      </trkpt>
      <trkpt lat="43.53265" lon="5.29453">
        <ele>288.62796</ele>
        <time>2023-03-15T13:57:25.000Z</time>
      </trkpt>
      <trkpt lat="43.53267" lon="5.29455">
        <ele>288.57074</ele>
        <time>2023-03-15T13:57:27.000Z</time>
      </trkpt>
      <trkpt lat="43.53269" lon="5.29457">
        <ele>288.48761</ele>
        <time>2023-03-15T13:57:29.000Z</time>
      </trkpt>
      <trkpt lat="43.5327" lon="5.29458">
        <ele>288.36331</ele>
        <time>2023-03-15T13:57:31.000Z</time>
      </trkpt>
      <trkpt lat="43.53272" lon="5.2946">
        <ele>288.26962</ele>
        <time>2023-03-15T13:57:33.000Z</time>
      </trkpt>
      <trkpt lat="43.53274" lon="5.29462">
        <ele>288.17688</ele>
        <time>2023-03-15T13:57:35.000Z</time>
      </trkpt>
      <trkpt lat="43.53276" lon="5.29463">
        <ele>288.13947</ele>
        <time>2023-03-15T13:57:37.000Z</time>
      </trkpt>
      <trkpt lat="43.53278" lon="5.29464">
        <ele>288.10175</ele>
        <time>2023-03-15T13:57:39.000Z</time>
      </trkpt>
      <trkpt lat="43.53279" lon="5.29466">
        <ele>288.14273</ele>
        <time>2023-03-15T13:57:41.000Z</time>
      </trkpt>
      <trkpt lat="43.53282" lon="5.29467">
        <ele>288.2746</ele>
        <time>2023-03-15T13:57:43.000Z</time>
      </trkpt>
      <trkpt lat="43.53285" lon="5.29464">
        <ele>288.36465</ele>
        <time>2023-03-15T13:57:48.000Z</time>
      </trkpt>
      <trkpt lat="43.53284" lon="5.29461">
        <ele>288.41861</ele>
        <time>2023-03-15T13:57:49.000Z</time>
      </trkpt>
      <trkpt lat="43.53284" lon="5.29464">
        <ele>288.49771</ele>
        <time>2023-03-15T13:58:03.000Z</time>
      </trkpt>
      <trkpt lat="43.53286" lon="5.29466">
        <ele>288.65021</ele>
        <time>2023-03-15T13:58:28.000Z</time>
      </trkpt>
      <trkpt lat="43.53288" lon="5.29464">
        <ele>288.8299</ele>
        <time>2023-03-15T13:58:30.000Z</time>
      </trkpt>
      <trkpt lat="43.5329" lon="5.2946">
        <ele>289.11627</ele>
        <time>2023-03-15T13:58:32.000Z</time>
      </trkpt>
      <trkpt lat="43.53291" lon="5.29462">
        <ele>289.29245</ele>
        <time>2023-03-15T13:58:34.000Z</time>
      </trkpt>
      <trkpt lat="43.53293" lon="5.29464">
        <ele>289.44345</ele>
        <time>2023-03-15T13:58:35.000Z</time>
      </trkpt>
      <trkpt lat="43.53295" lon="5.29467">
        <ele>289.56772</ele>
        <time>2023-03-15T13:58:37.000Z</time>
      </trkpt>
      <trkpt lat="43.53297" lon="5.29469">
        <ele>289.71689</ele>
        <time>2023-03-15T13:58:39.000Z</time>
      </trkpt>
      <trkpt lat="43.53299" lon="5.2947">
        <ele>289.88571</ele>
        <time>2023-03-15T13:58:41.000Z</time>
      </trkpt>
      <trkpt lat="43.53301" lon="5.29471">
        <ele>290.04083</ele>
        <time>2023-03-15T13:58:43.000Z</time>
      </trkpt>
      <trkpt lat="43.53303" lon="5.29473">
        <ele>290.24316</ele>
        <time>2023-03-15T13:58:45.000Z</time>
      </trkpt>
      <trkpt lat="43.53306" lon="5.29473">
        <ele>290.42255</ele>
        <time>2023-03-15T13:58:48.000Z</time>
      </trkpt>
      <trkpt lat="43.53308" lon="5.29473">
        <ele>290.5687</ele>
        <time>2023-03-15T13:58:50.000Z</time>
      </trkpt>
      <trkpt lat="43.5331" lon="5.29474">
        <ele>290.68011</ele>
        <time>2023-03-15T13:58:52.000Z</time>
      </trkpt>
      <trkpt lat="43.53312" lon="5.29475">
        <ele>290.7757</ele>
        <time>2023-03-15T13:58:54.000Z</time>
      </trkpt>
      <trkpt lat="43.53314" lon="5.29476">
        <ele>290.81964</ele>
        <time>2023-03-15T13:58:56.000Z</time>
      </trkpt>
      <trkpt lat="43.53316" lon="5.29477">
        <ele>290.79718</ele>
        <time>2023-03-15T13:58:58.000Z</time>
      </trkpt>
      <trkpt lat="43.53317" lon="5.29479">
        <ele>290.71753</ele>
        <time>2023-03-15T13:59:00.000Z</time>
      </trkpt>
      <trkpt lat="43.53319" lon="5.2948">
        <ele>290.69693</ele>
        <time>2023-03-15T13:59:02.000Z</time>
      </trkpt>
      <trkpt lat="43.53321" lon="5.29483">
        <ele>290.67001</ele>
        <time>2023-03-15T13:59:05.000Z</time>
      </trkpt>
      <trkpt lat="43.53322" lon="5.29485">
        <ele>290.65277</ele>
        <time>2023-03-15T13:59:07.000Z</time>
      </trkpt>
      <trkpt lat="43.53323" lon="5.29488">
        <ele>290.52771</ele>
        <time>2023-03-15T13:59:09.000Z</time>
      </trkpt>
      <trkpt lat="43.53324" lon="5.2949">
        <ele>290.37885</ele>
        <time>2023-03-15T13:59:11.000Z</time>
      </trkpt>
      <trkpt lat="43.53324" lon="5.29493">
        <ele>290.12607</ele>
        <time>2023-03-15T13:59:13.000Z</time>
      </trkpt>
      <trkpt lat="43.53325" lon="5.29496">
        <ele>290.08722</ele>
        <time>2023-03-15T13:59:15.000Z</time>
      </trkpt>
      <trkpt lat="43.53326" lon="5.29498">
        <ele>290.02542</ele>
        <time>2023-03-15T13:59:17.000Z</time>
      </trkpt>
      <trkpt lat="43.53326" lon="5.29501">
        <ele>290.04584</ele>
        <time>2023-03-15T13:59:19.000Z</time>
      </trkpt>
      <trkpt lat="43.53327" lon="5.29504">
        <ele>290.06006</ele>
        <time>2023-03-15T13:59:21.000Z</time>
      </trkpt>
      <trkpt lat="43.53327" lon="5.29507">
        <ele>290.03787</ele>
        <time>2023-03-15T13:59:23.000Z</time>
      </trkpt>
      <trkpt lat="43.53328" lon="5.2951">
        <ele>290.0206</ele>
        <time>2023-03-15T13:59:25.000Z</time>
      </trkpt>
      <trkpt lat="43.53329" lon="5.29512">
        <ele>289.96558</ele>
        <time>2023-03-15T13:59:27.000Z</time>
      </trkpt>
      <trkpt lat="43.53329" lon="5.29515">
        <ele>289.91962</ele>
        <time>2023-03-15T13:59:29.000Z</time>
      </trkpt>
      <trkpt lat="43.53329" lon="5.29518">
        <ele>289.89908</ele>
        <time>2023-03-15T13:59:31.000Z</time>
      </trkpt>
      <trkpt lat="43.53329" lon="5.2952">
        <ele>289.89398</ele>
        <time>2023-03-15T13:59:33.000Z</time>
      </trkpt>
      <trkpt lat="43.53329" lon="5.29523">
        <ele>289.85623</ele>
        <time>2023-03-15T13:59:35.000Z</time>
      </trkpt>
      <trkpt lat="43.53329" lon="5.29526">
        <ele>289.84537</ele>
        <time>2023-03-15T13:59:37.000Z</time>
      </trkpt>
      <trkpt lat="43.53328" lon="5.29529">
        <ele>289.84793</ele>
        <time>2023-03-15T13:59:39.000Z</time>
      </trkpt>
      <trkpt lat="43.53327" lon="5.29531">
        <ele>289.8595</ele>
        <time>2023-03-15T13:59:41.000Z</time>
      </trkpt>
      <trkpt lat="43.53326" lon="5.29534">
        <ele>289.83612</ele>
        <time>2023-03-15T13:59:43.000Z</time>
      </trkpt>
      <trkpt lat="43.53326" lon="5.29536">
        <ele>289.80609</ele>
        <time>2023-03-15T13:59:45.000Z</time>
      </trkpt>
      <trkpt lat="43.53326" lon="5.29539">
        <ele>289.74039</ele>
        <time>2023-03-15T13:59:47.000Z</time>
      </trkpt>
      <trkpt lat="43.53325" lon="5.29542">
        <ele>289.65964</ele>
        <time>2023-03-15T13:59:49.000Z</time>
      </trkpt>
      <trkpt lat="43.53325" lon="5.29545">
        <ele>289.56894</ele>
        <time>2023-03-15T13:59:51.000Z</time>
      </trkpt>
      <trkpt lat="43.53324" lon="5.29547">
        <ele>289.47763</ele>
        <time>2023-03-15T13:59:53.000Z</time>
      </trkpt>
      <trkpt lat="43.53323" lon="5.2955">
        <ele>289.3273</ele>
        <time>2023-03-15T13:59:55.000Z</time>
      </trkpt>
      <trkpt lat="43.53321" lon="5.29553">
        <ele>289.2738</ele>
        <time>2023-03-15T13:59:57.000Z</time>
      </trkpt>
      <trkpt lat="43.5332" lon="5.29556">
        <ele>289.19763</ele>
        <time>2023-03-15T13:59:59.000Z</time>
      </trkpt>
      <trkpt lat="43.5332" lon="5.2956">
        <ele>289.1015</ele>
        <time>2023-03-15T14:00:01.000Z</time>
      </trkpt>
      <trkpt lat="43.53319" lon="5.29562">
        <ele>288.97757</ele>
        <time>2023-03-15T14:00:03.000Z</time>
      </trkpt>
      <trkpt lat="43.53319" lon="5.29565">
        <ele>288.74774</ele>
        <time>2023-03-15T14:00:05.000Z</time>
      </trkpt>
      <trkpt lat="43.53318" lon="5.29568">
        <ele>288.49341</ele>
        <time>2023-03-15T14:00:07.000Z</time>
      </trkpt>
      <trkpt lat="43.53318" lon="5.29571">
        <ele>288.2572</ele>
        <time>2023-03-15T14:00:09.000Z</time>
      </trkpt>
      <trkpt lat="43.53316" lon="5.29574">
        <ele>288.01648</ele>
        <time>2023-03-15T14:00:11.000Z</time>
      </trkpt>
      <trkpt lat="43.53316" lon="5.29577">
        <ele>287.84052</ele>
        <time>2023-03-15T14:00:13.000Z</time>
      </trkpt>
      <trkpt lat="43.53316" lon="5.29581">
        <ele>287.6976</ele>
        <time>2023-03-15T14:00:15.000Z</time>
      </trkpt>
      <trkpt lat="43.53316" lon="5.29584">
        <ele>287.58139</ele>
        <time>2023-03-15T14:00:17.000Z</time>
      </trkpt>
      <trkpt lat="43.53315" lon="5.29587">
        <ele>287.44595</ele>
        <time>2023-03-15T14:00:19.000Z</time>
      </trkpt>
      <trkpt lat="43.53315" lon="5.2959">
        <ele>287.30621</ele>
        <time>2023-03-15T14:00:21.000Z</time>
      </trkpt>
      <trkpt lat="43.53315" lon="5.29593">
        <ele>287.24066</ele>
        <time>2023-03-15T14:00:24.000Z</time>
      </trkpt>
      <trkpt lat="43.53315" lon="5.29596">
        <ele>287.20135</ele>
        <time>2023-03-15T14:00:26.000Z</time>
      </trkpt>
      <trkpt lat="43.53315" lon="5.29599">
        <ele>287.19424</ele>
        <time>2023-03-15T14:00:28.000Z</time>
      </trkpt>
      <trkpt lat="43.53315" lon="5.29602">
        <ele>287.25275</ele>
        <time>2023-03-15T14:00:30.000Z</time>
      </trkpt>
      <trkpt lat="43.53315" lon="5.29605">
        <ele>287.36823</ele>
        <time>2023-03-15T14:00:32.000Z</time>
      </trkpt>
      <trkpt lat="43.53315" lon="5.29608">
        <ele>287.51001</ele>
        <time>2023-03-15T14:00:34.000Z</time>
      </trkpt>
      <trkpt lat="43.53315" lon="5.29611">
        <ele>287.65518</ele>
        <time>2023-03-15T14:00:36.000Z</time>
      </trkpt>
      <trkpt lat="43.53316" lon="5.29614">
        <ele>287.76581</ele>
        <time>2023-03-15T14:00:38.000Z</time>
      </trkpt>
      <trkpt lat="43.53316" lon="5.29617">
        <ele>287.85565</ele>
        <time>2023-03-15T14:00:40.000Z</time>
      </trkpt>
      <trkpt lat="43.53315" lon="5.2962">
        <ele>287.91888</ele>
        <time>2023-03-15T14:00:42.000Z</time>
      </trkpt>
      <trkpt lat="43.53315" lon="5.29622">
        <ele>287.98199</ele>
        <time>2023-03-15T14:00:44.000Z</time>
      </trkpt>
      <trkpt lat="43.53316" lon="5.29625">
        <ele>288.15463</ele>
        <time>2023-03-15T14:00:46.000Z</time>
      </trkpt>
      <trkpt lat="43.53316" lon="5.29628">
        <ele>288.33847</ele>
        <time>2023-03-15T14:00:48.000Z</time>
      </trkpt>
      <trkpt lat="43.53316" lon="5.2963">
        <ele>288.54785</ele>
        <time>2023-03-15T14:00:50.000Z</time>
      </trkpt>
      <trkpt lat="43.53317" lon="5.29634">
        <ele>288.72614</ele>
        <time>2023-03-15T14:00:53.000Z</time>
      </trkpt>
      <trkpt lat="43.53318" lon="5.29637">
        <ele>288.84793</ele>
        <time>2023-03-15T14:00:55.000Z</time>
      </trkpt>
      <trkpt lat="43.5332" lon="5.29639">
        <ele>288.93741</ele>
        <time>2023-03-15T14:00:57.000Z</time>
      </trkpt>
      <trkpt lat="43.53321" lon="5.29641">
        <ele>289.07773</ele>
        <time>2023-03-15T14:00:59.000Z</time>
      </trkpt>
      <trkpt lat="43.53323" lon="5.29643">
        <ele>289.26276</ele>
        <time>2023-03-15T14:01:01.000Z</time>
      </trkpt>
      <trkpt lat="43.53326" lon="5.29644">
        <ele>289.44165</ele>
        <time>2023-03-15T14:01:03.000Z</time>
      </trkpt>
      <trkpt lat="43.53328" lon="5.29645">
        <ele>289.57315</ele>
        <time>2023-03-15T14:01:05.000Z</time>
      </trkpt>
      <trkpt lat="43.5333" lon="5.29647">
        <ele>289.6983</ele>
        <time>2023-03-15T14:01:07.000Z</time>
      </trkpt>
      <trkpt lat="43.53332" lon="5.29648">
        <ele>289.82559</ele>
        <time>2023-03-15T14:01:09.000Z</time>
      </trkpt>
      <trkpt lat="43.53334" lon="5.29649">
        <ele>289.90503</ele>
        <time>2023-03-15T14:01:11.000Z</time>
      </trkpt>
      <trkpt lat="43.53337" lon="5.29651">
        <ele>289.94382</ele>
        <time>2023-03-15T14:01:14.000Z</time>
      </trkpt>
      <trkpt lat="43.53339" lon="5.29652">
        <ele>289.96567</ele>
        <time>2023-03-15T14:01:16.000Z</time>
      </trkpt>
      <trkpt lat="43.53341" lon="5.29653">
        <ele>289.99695</ele>
        <time>2023-03-15T14:01:18.000Z</time>
      </trkpt>
      <trkpt lat="43.53343" lon="5.29654">
        <ele>289.96841</ele>
        <time>2023-03-15T14:01:21.000Z</time>
      </trkpt>
      <trkpt lat="43.53345" lon="5.29655">
        <ele>289.89877</ele>
        <time>2023-03-15T14:01:23.000Z</time>
      </trkpt>
      <trkpt lat="43.53347" lon="5.29657">
        <ele>289.83832</ele>
        <time>2023-03-15T14:01:25.000Z</time>
      </trkpt>
      <trkpt lat="43.53349" lon="5.29658">
        <ele>289.79327</ele>
        <time>2023-03-15T14:01:27.000Z</time>
      </trkpt>
      <trkpt lat="43.53351" lon="5.2966">
        <ele>289.74609</ele>
        <time>2023-03-15T14:01:29.000Z</time>
      </trkpt>
      <trkpt lat="43.53353" lon="5.29662">
        <ele>289.71335</ele>
        <time>2023-03-15T14:01:31.000Z</time>
      </trkpt>
      <trkpt lat="43.53355" lon="5.29664">
        <ele>289.68558</ele>
        <time>2023-03-15T14:01:33.000Z</time>
      </trkpt>
      <trkpt lat="43.53357" lon="5.29665">
        <ele>289.6983</ele>
        <time>2023-03-15T14:01:35.000Z</time>
      </trkpt>
      <trkpt lat="43.53358" lon="5.29667">
        <ele>289.70538</ele>
        <time>2023-03-15T14:01:37.000Z</time>
      </trkpt>
      <trkpt lat="43.5336" lon="5.29669">
        <ele>289.71622</ele>
        <time>2023-03-15T14:01:39.000Z</time>
      </trkpt>
      <trkpt lat="43.53362" lon="5.29671">
        <ele>289.67661</ele>
        <time>2023-03-15T14:01:41.000Z</time>
      </trkpt>
      <trkpt lat="43.53364" lon="5.29672">
        <ele>289.633</ele>
        <time>2023-03-15T14:01:43.000Z</time>
      </trkpt>
      <trkpt lat="43.53365" lon="5.29673">
        <ele>289.60419</ele>
        <time>2023-03-15T14:01:45.000Z</time>
      </trkpt>
      <trkpt lat="43.53367" lon="5.29675">
        <ele>289.57422</ele>
        <time>2023-03-15T14:01:47.000Z</time>
      </trkpt>
      <trkpt lat="43.53369" lon="5.29677">
        <ele>289.56226</ele>
        <time>2023-03-15T14:01:49.000Z</time>
      </trkpt>
      <trkpt lat="43.53371" lon="5.29679">
        <ele>289.54166</ele>
        <time>2023-03-15T14:01:51.000Z</time>
      </trkpt>
      <trkpt lat="43.53373" lon="5.29681">
        <ele>289.51523</ele>
        <time>2023-03-15T14:01:53.000Z</time>
      </trkpt>
      <trkpt lat="43.53375" lon="5.29683">
        <ele>289.51138</ele>
        <time>2023-03-15T14:01:55.000Z</time>
      </trkpt>
      <trkpt lat="43.53377" lon="5.29685">
        <ele>289.49051</ele>
        <time>2023-03-15T14:01:57.000Z</time>
      </trkpt>
      <trkpt lat="43.53379" lon="5.29686">
        <ele>289.42545</ele>
        <time>2023-03-15T14:01:59.000Z</time>
      </trkpt>
      <trkpt lat="43.53381" lon="5.29689">
        <ele>289.39984</ele>
        <time>2023-03-15T14:02:01.000Z</time>
      </trkpt>
      <trkpt lat="43.53383" lon="5.29691">
        <ele>289.40762</ele>
        <time>2023-03-15T14:02:03.000Z</time>
      </trkpt>
      <trkpt lat="43.53385" lon="5.29692">
        <ele>289.41397</ele>
        <time>2023-03-15T14:02:05.000Z</time>
      </trkpt>
      <trkpt lat="43.53386" lon="5.29694">
        <ele>289.42993</ele>
        <time>2023-03-15T14:02:07.000Z</time>
      </trkpt>
      <trkpt lat="43.53388" lon="5.29696">
        <ele>289.44745</ele>
        <time>2023-03-15T14:02:09.000Z</time>
      </trkpt>
      <trkpt lat="43.5339" lon="5.29699">
        <ele>289.50079</ele>
        <time>2023-03-15T14:02:11.000Z</time>
      </trkpt>
      <trkpt lat="43.53392" lon="5.297">
        <ele>289.5871</ele>
        <time>2023-03-15T14:02:13.000Z</time>
      </trkpt>
      <trkpt lat="43.53393" lon="5.29702">
        <ele>289.6817</ele>
        <time>2023-03-15T14:02:15.000Z</time>
      </trkpt>
      <trkpt lat="43.53395" lon="5.29704">
        <ele>289.7951</ele>
        <time>2023-03-15T14:02:17.000Z</time>
      </trkpt>
      <trkpt lat="43.53396" lon="5.29706">
        <ele>289.93314</ele>
        <time>2023-03-15T14:02:19.000Z</time>
      </trkpt>
      <trkpt lat="43.53398" lon="5.29708">
        <ele>290.08029</ele>
        <time>2023-03-15T14:02:21.000Z</time>
      </trkpt>
      <trkpt lat="43.53399" lon="5.2971">
        <ele>290.24933</ele>
        <time>2023-03-15T14:02:23.000Z</time>
      </trkpt>
      <trkpt lat="43.534" lon="5.29713">
        <ele>290.41748</ele>
        <time>2023-03-15T14:02:25.000Z</time>
      </trkpt>
      <trkpt lat="43.53402" lon="5.29715">
        <ele>290.57397</ele>
        <time>2023-03-15T14:02:27.000Z</time>
      </trkpt>
      <trkpt lat="43.53403" lon="5.29717">
        <ele>290.68497</ele>
        <time>2023-03-15T14:02:29.000Z</time>
      </trkpt>
      <trkpt lat="43.53405" lon="5.29719">
        <ele>290.76791</ele>
        <time>2023-03-15T14:02:31.000Z</time>
      </trkpt>
      <trkpt lat="43.53407" lon="5.29721">
        <ele>290.86346</ele>
        <time>2023-03-15T14:02:33.000Z</time>
      </trkpt>
      <trkpt lat="43.53407" lon="5.29725">
        <ele>290.9715</ele>
        <time>2023-03-15T14:02:35.000Z</time>
      </trkpt>
      <trkpt lat="43.53408" lon="5.29728">
        <ele>291.12762</ele>
        <time>2023-03-15T14:02:37.000Z</time>
      </trkpt>
      <trkpt lat="43.5341" lon="5.29731">
        <ele>291.27606</ele>
        <time>2023-03-15T14:02:39.000Z</time>
      </trkpt>
      <trkpt lat="43.53411" lon="5.29733">
        <ele>291.40143</ele>
        <time>2023-03-15T14:02:41.000Z</time>
      </trkpt>
      <trkpt lat="43.53412" lon="5.29736">
        <ele>291.5661</ele>
        <time>2023-03-15T14:02:43.000Z</time>
      </trkpt>
      <trkpt lat="43.53413" lon="5.29738">
        <ele>291.72778</ele>
        <time>2023-03-15T14:02:45.000Z</time>
      </trkpt>
      <trkpt lat="43.53415" lon="5.29741">
        <ele>291.91693</ele>
        <time>2023-03-15T14:02:47.000Z</time>
      </trkpt>
      <trkpt lat="43.53415" lon="5.29744">
        <ele>292.14056</ele>
        <time>2023-03-15T14:02:50.000Z</time>
      </trkpt>
      <trkpt lat="43.53416" lon="5.29747">
        <ele>292.30548</ele>
        <time>2023-03-15T14:02:53.000Z</time>
      </trkpt>
      <trkpt lat="43.53417" lon="5.29749">
        <ele>292.44034</ele>
        <time>2023-03-15T14:02:55.000Z</time>
      </trkpt>
      <trkpt lat="43.53418" lon="5.29752">
        <ele>292.57233</ele>
        <time>2023-03-15T14:02:57.000Z</time>
      </trkpt>
      <trkpt lat="43.5342" lon="5.29755">
        <ele>292.67487</ele>
        <time>2023-03-15T14:03:00.000Z</time>
      </trkpt>
      <trkpt lat="43.53422" lon="5.29757">
        <ele>292.74014</ele>
        <time>2023-03-15T14:03:02.000Z</time>
      </trkpt>
      <trkpt lat="43.53423" lon="5.2976">
        <ele>292.76654</ele>
        <time>2023-03-15T14:03:04.000Z</time>
      </trkpt>
      <trkpt lat="43.53424" lon="5.29762">
        <ele>292.75073</ele>
        <time>2023-03-15T14:03:06.000Z</time>
      </trkpt>
      <trkpt lat="43.53425" lon="5.29765">
        <ele>292.71936</ele>
        <time>2023-03-15T14:03:08.000Z</time>
      </trkpt>
      <trkpt lat="43.53426" lon="5.29768">
        <ele>292.69403</ele>
        <time>2023-03-15T14:03:10.000Z</time>
      </trkpt>
      <trkpt lat="43.53427" lon="5.29771">
        <ele>292.69696</ele>
        <time>2023-03-15T14:03:12.000Z</time>
      </trkpt>
      <trkpt lat="43.53428" lon="5.29774">
        <ele>292.71176</ele>
        <time>2023-03-15T14:03:14.000Z</time>
      </trkpt>
      <trkpt lat="43.53429" lon="5.29776">
        <ele>292.7352</ele>
        <time>2023-03-15T14:03:16.000Z</time>
      </trkpt>
      <trkpt lat="43.5343" lon="5.29779">
        <ele>292.72269</ele>
        <time>2023-03-15T14:03:18.000Z</time>
      </trkpt>
      <trkpt lat="43.53431" lon="5.29782">
        <ele>292.69678</ele>
        <time>2023-03-15T14:03:20.000Z</time>
      </trkpt>
      <trkpt lat="43.53432" lon="5.29785">
        <ele>292.68741</ele>
        <time>2023-03-15T14:03:22.000Z</time>
      </trkpt>
      <trkpt lat="43.53432" lon="5.29789">
        <ele>292.67334</ele>
        <time>2023-03-15T14:03:24.000Z</time>
      </trkpt>
      <trkpt lat="43.53432" lon="5.29791">
        <ele>292.6405</ele>
        <time>2023-03-15T14:03:26.000Z</time>
      </trkpt>
      <trkpt lat="43.53432" lon="5.29794">
        <ele>292.69403</ele>
        <time>2023-03-15T14:03:28.000Z</time>
      </trkpt>
      <trkpt lat="43.53433" lon="5.29797">
        <ele>292.75262</ele>
        <time>2023-03-15T14:03:30.000Z</time>
      </trkpt>
      <trkpt lat="43.53433" lon="5.298">
        <ele>292.77338</ele>
        <time>2023-03-15T14:03:32.000Z</time>
      </trkpt>
      <trkpt lat="43.53434" lon="5.29804">
        <ele>292.79974</ele>
        <time>2023-03-15T14:03:34.000Z</time>
      </trkpt>
      <trkpt lat="43.53435" lon="5.29807">
        <ele>292.85211</ele>
        <time>2023-03-15T14:03:36.000Z</time>
      </trkpt>
      <trkpt lat="43.53436" lon="5.29809">
        <ele>292.8302</ele>
        <time>2023-03-15T14:03:38.000Z</time>
      </trkpt>
      <trkpt lat="43.53437" lon="5.29812">
        <ele>292.84225</ele>
        <time>2023-03-15T14:03:40.000Z</time>
      </trkpt>
      <trkpt lat="43.53438" lon="5.29815">
        <ele>292.83676</ele>
        <time>2023-03-15T14:03:43.000Z</time>
      </trkpt>
      <trkpt lat="43.53439" lon="5.29817">
        <ele>292.83701</ele>
        <time>2023-03-15T14:03:45.000Z</time>
      </trkpt>
      <trkpt lat="43.5344" lon="5.2982">
        <ele>292.79337</ele>
        <time>2023-03-15T14:03:47.000Z</time>
      </trkpt>
      <trkpt lat="43.53441" lon="5.29822">
        <ele>292.73196</ele>
        <time>2023-03-15T14:03:49.000Z</time>
      </trkpt>
      <trkpt lat="43.53442" lon="5.29825">
        <ele>292.68173</ele>
        <time>2023-03-15T14:03:51.000Z</time>
      </trkpt>
      <trkpt lat="43.53443" lon="5.29828">
        <ele>292.63776</ele>
        <time>2023-03-15T14:03:53.000Z</time>
      </trkpt>
      <trkpt lat="43.53445" lon="5.29831">
        <ele>292.61142</ele>
        <time>2023-03-15T14:03:55.000Z</time>
      </trkpt>
      <trkpt lat="43.53446" lon="5.29834">
        <ele>292.54358</ele>
        <time>2023-03-15T14:03:57.000Z</time>
      </trkpt>
      <trkpt lat="43.53446" lon="5.29837">
        <ele>292.46869</ele>
        <time>2023-03-15T14:03:59.000Z</time>
      </trkpt>
      <trkpt lat="43.53447" lon="5.2984">
        <ele>292.36472</ele>
        <time>2023-03-15T14:04:01.000Z</time>
      </trkpt>
      <trkpt lat="43.53448" lon="5.29843">
        <ele>292.26578</ele>
        <time>2023-03-15T14:04:03.000Z</time>
      </trkpt>
      <trkpt lat="43.53447" lon="5.29846">
        <ele>292.21924</ele>
        <time>2023-03-15T14:04:05.000Z</time>
      </trkpt>
      <trkpt lat="43.53447" lon="5.29849">
        <ele>292.1568</ele>
        <time>2023-03-15T14:04:07.000Z</time>
      </trkpt>
      <trkpt lat="43.53447" lon="5.29852">
        <ele>292.07809</ele>
        <time>2023-03-15T14:04:09.000Z</time>
      </trkpt>
      <trkpt lat="43.53448" lon="5.29855">
        <ele>291.96121</ele>
        <time>2023-03-15T14:04:11.000Z</time>
      </trkpt>
      <trkpt lat="43.53449" lon="5.29858">
        <ele>291.86121</ele>
        <time>2023-03-15T14:04:13.000Z</time>
      </trkpt>
      <trkpt lat="43.53449" lon="5.29861">
        <ele>291.77771</ele>
        <time>2023-03-15T14:04:15.000Z</time>
      </trkpt>
      <trkpt lat="43.5345" lon="5.29864">
        <ele>291.6442</ele>
        <time>2023-03-15T14:04:17.000Z</time>
      </trkpt>
      <trkpt lat="43.5345" lon="5.29867">
        <ele>291.57794</ele>
        <time>2023-03-15T14:04:19.000Z</time>
      </trkpt>
      <trkpt lat="43.5345" lon="5.2987">
        <ele>291.52167</ele>
        <time>2023-03-15T14:04:21.000Z</time>
      </trkpt>
      <trkpt lat="43.5345" lon="5.29873">
        <ele>291.49023</ele>
        <time>2023-03-15T14:04:24.000Z</time>
      </trkpt>
      <trkpt lat="43.53451" lon="5.29877">
        <ele>291.48251</ele>
        <time>2023-03-15T14:04:47.000Z</time>
      </trkpt>
      <trkpt lat="43.53451" lon="5.2988">
        <ele>291.55838</ele>
        <time>2023-03-15T14:05:04.000Z</time>
      </trkpt>
      <trkpt lat="43.53452" lon="5.29883">
        <ele>291.66623</ele>
        <time>2023-03-15T14:05:06.000Z</time>
      </trkpt>
      <trkpt lat="43.53452" lon="5.29886">
        <ele>291.76447</ele>
        <time>2023-03-15T14:05:08.000Z</time>
      </trkpt>
      <trkpt lat="43.53452" lon="5.29889">
        <ele>291.84573</ele>
        <time>2023-03-15T14:05:10.000Z</time>
      </trkpt>
      <trkpt lat="43.53452" lon="5.29892">
        <ele>291.92267</ele>
        <time>2023-03-15T14:05:12.000Z</time>
      </trkpt>
      <trkpt lat="43.5345" lon="5.29893">
        <ele>292.01996</ele>
        <time>2023-03-15T14:05:14.000Z</time>
      </trkpt>
      <trkpt lat="43.53449" lon="5.29894">
        <ele>292.11133</ele>
        <time>2023-03-15T14:05:18.000Z</time>
      </trkpt>
      <trkpt lat="43.53447" lon="5.29893">
        <ele>292.31076</ele>
        <time>2023-03-15T14:05:26.000Z</time>
      </trkpt>
      <trkpt lat="43.53446" lon="5.2989">
        <ele>292.51556</ele>
        <time>2023-03-15T14:05:28.000Z</time>
      </trkpt>
      <trkpt lat="43.53446" lon="5.29887">
        <ele>292.66196</ele>
        <time>2023-03-15T14:05:30.000Z</time>
      </trkpt>
    </trkseg>
  </trk>
</gpx>